<?xml version="1.0" encoding="UTF-8" standalone="no" ?>
<gpx xmlns="http://www.topografix.com/GPX/1/1" xmlns:xsi="http://www.w3.org/2001/XMLSchema-instance" xsi:schemaLocation="http://www.topografix.com/GPX/1/1 http://www.topografix.com/GPX/1/1/gpx.xsd" version="1.1" creator="VisuGPX - https://www.visugpx.com">
  <metadata>
    <name>J5 Voie Bleue : Baulay - Charmes</name>
    <desc><![CDATA[Voie Bleue réalisée dans le sens Sud (Lyon) Nord (Apach)

Pour l'itinéraire complet, suivre le [url=https://www.visugpx.com/membres/33867/voie-bleue/]dossier suivant[/url].]]></desc>
  </metadata>
  <trk>
    <name><![CDATA[Vélo sur route, 2026-05-17]]></name>
    <trkseg>
      <trkpt lat="47.78635" lon="6.01532">
        <ele>230.7002</ele>
        <time>2026-05-17T08:34:28+02:00</time>
      </trkpt>
      <trkpt lat="47.78631" lon="6.01529">
        <ele>230.5</ele>
        <time>2026-05-17T08:34:29+02:00</time>
      </trkpt>
      <trkpt lat="47.78627" lon="6.01525">
        <ele>230.10059</ele>
        <time>2026-05-17T08:34:30+02:00</time>
      </trkpt>
      <trkpt lat="47.78624" lon="6.01521">
        <ele>230.10059</ele>
        <time>2026-05-17T08:34:31+02:00</time>
      </trkpt>
      <trkpt lat="47.78621" lon="6.01517">
        <ele>229.7002</ele>
        <time>2026-05-17T08:34:32+02:00</time>
      </trkpt>
      <trkpt lat="47.78618" lon="6.01512">
        <ele>229.7002</ele>
        <time>2026-05-17T08:34:33+02:00</time>
      </trkpt>
      <trkpt lat="47.78614" lon="6.01508">
        <ele>229.2998</ele>
        <time>2026-05-17T08:34:34+02:00</time>
      </trkpt>
      <trkpt lat="47.78611" lon="6.01503">
        <ele>229.2002</ele>
        <time>2026-05-17T08:34:35+02:00</time>
      </trkpt>
      <trkpt lat="47.78608" lon="6.01499">
        <ele>229</ele>
        <time>2026-05-17T08:34:36+02:00</time>
      </trkpt>
      <trkpt lat="47.78605" lon="6.01494">
        <ele>228.90039</ele>
        <time>2026-05-17T08:34:37+02:00</time>
      </trkpt>
      <trkpt lat="47.78603" lon="6.0149">
        <ele>228.60059</ele>
        <time>2026-05-17T08:34:38+02:00</time>
      </trkpt>
      <trkpt lat="47.78602" lon="6.01485">
        <ele>228.60059</ele>
        <time>2026-05-17T08:34:39+02:00</time>
      </trkpt>
      <trkpt lat="47.786" lon="6.01479">
        <ele>228.2998</ele>
        <time>2026-05-17T08:34:40+02:00</time>
      </trkpt>
      <trkpt lat="47.78601" lon="6.01472">
        <ele>228.10059</ele>
        <time>2026-05-17T08:34:41+02:00</time>
      </trkpt>
      <trkpt lat="47.78602" lon="6.01465">
        <ele>227.90039</ele>
        <time>2026-05-17T08:34:42+02:00</time>
      </trkpt>
      <trkpt lat="47.78602" lon="6.01458">
        <ele>227.60059</ele>
        <time>2026-05-17T08:34:43+02:00</time>
      </trkpt>
      <trkpt lat="47.78603" lon="6.01452">
        <ele>227.60059</ele>
        <time>2026-05-17T08:34:44+02:00</time>
      </trkpt>
      <trkpt lat="47.78605" lon="6.01445">
        <ele>227.40039</ele>
        <time>2026-05-17T08:34:45+02:00</time>
      </trkpt>
      <trkpt lat="47.78607" lon="6.01438">
        <ele>227.40039</ele>
        <time>2026-05-17T08:34:46+02:00</time>
      </trkpt>
      <trkpt lat="47.78608" lon="6.01432">
        <ele>227.2002</ele>
        <time>2026-05-17T08:34:47+02:00</time>
      </trkpt>
      <trkpt lat="47.7861" lon="6.01426">
        <ele>227.2002</ele>
        <time>2026-05-17T08:34:48+02:00</time>
      </trkpt>
      <trkpt lat="47.78612" lon="6.01419">
        <ele>227.2998</ele>
        <time>2026-05-17T08:34:49+02:00</time>
      </trkpt>
      <trkpt lat="47.78613" lon="6.01413">
        <ele>227.2002</ele>
        <time>2026-05-17T08:34:50+02:00</time>
      </trkpt>
      <trkpt lat="47.78615" lon="6.01407">
        <ele>227.10059</ele>
        <time>2026-05-17T08:34:51+02:00</time>
      </trkpt>
      <trkpt lat="47.78616" lon="6.01401">
        <ele>227.10059</ele>
        <time>2026-05-17T08:34:52+02:00</time>
      </trkpt>
      <trkpt lat="47.78617" lon="6.01394">
        <ele>227.10059</ele>
        <time>2026-05-17T08:34:53+02:00</time>
      </trkpt>
      <trkpt lat="47.78618" lon="6.01388">
        <ele>227.5</ele>
        <time>2026-05-17T08:34:54+02:00</time>
      </trkpt>
      <trkpt lat="47.7862" lon="6.01381">
        <ele>227.60059</ele>
        <time>2026-05-17T08:34:55+02:00</time>
      </trkpt>
      <trkpt lat="47.78621" lon="6.01374">
        <ele>227.60059</ele>
        <time>2026-05-17T08:34:56+02:00</time>
      </trkpt>
      <trkpt lat="47.78623" lon="6.01367">
        <ele>227.7002</ele>
        <time>2026-05-17T08:34:57+02:00</time>
      </trkpt>
      <trkpt lat="47.78624" lon="6.0136">
        <ele>228.40039</ele>
        <time>2026-05-17T08:34:58+02:00</time>
      </trkpt>
      <trkpt lat="47.78625" lon="6.01353">
        <ele>228.40039</ele>
        <time>2026-05-17T08:34:59+02:00</time>
      </trkpt>
      <trkpt lat="47.78626" lon="6.01346">
        <ele>228.40039</ele>
        <time>2026-05-17T08:35:00+02:00</time>
      </trkpt>
      <trkpt lat="47.78628" lon="6.01339">
        <ele>228.40039</ele>
        <time>2026-05-17T08:35:01+02:00</time>
      </trkpt>
      <trkpt lat="47.78629" lon="6.01332">
        <ele>229.10059</ele>
        <time>2026-05-17T08:35:02+02:00</time>
      </trkpt>
      <trkpt lat="47.7863" lon="6.01325">
        <ele>229.10059</ele>
        <time>2026-05-17T08:35:03+02:00</time>
      </trkpt>
      <trkpt lat="47.78631" lon="6.01318">
        <ele>229.10059</ele>
        <time>2026-05-17T08:35:04+02:00</time>
      </trkpt>
      <trkpt lat="47.78632" lon="6.0131">
        <ele>229</ele>
        <time>2026-05-17T08:35:05+02:00</time>
      </trkpt>
      <trkpt lat="47.78633" lon="6.01303">
        <ele>228.7998</ele>
        <time>2026-05-17T08:35:06+02:00</time>
      </trkpt>
      <trkpt lat="47.78633" lon="6.01295">
        <ele>228.60059</ele>
        <time>2026-05-17T08:35:07+02:00</time>
      </trkpt>
      <trkpt lat="47.78634" lon="6.01287">
        <ele>228.60059</ele>
        <time>2026-05-17T08:35:08+02:00</time>
      </trkpt>
      <trkpt lat="47.78635" lon="6.01278">
        <ele>228.7002</ele>
        <time>2026-05-17T08:35:09+02:00</time>
      </trkpt>
      <trkpt lat="47.78635" lon="6.0127">
        <ele>228.7002</ele>
        <time>2026-05-17T08:35:10+02:00</time>
      </trkpt>
      <trkpt lat="47.78636" lon="6.01262">
        <ele>228.40039</ele>
        <time>2026-05-17T08:35:11+02:00</time>
      </trkpt>
      <trkpt lat="47.78636" lon="6.01253">
        <ele>228</ele>
        <time>2026-05-17T08:35:12+02:00</time>
      </trkpt>
      <trkpt lat="47.78636" lon="6.01244">
        <ele>227.60059</ele>
        <time>2026-05-17T08:35:13+02:00</time>
      </trkpt>
      <trkpt lat="47.78636" lon="6.01236">
        <ele>227.2998</ele>
        <time>2026-05-17T08:35:14+02:00</time>
      </trkpt>
      <trkpt lat="47.78636" lon="6.01227">
        <ele>226.90039</ele>
        <time>2026-05-17T08:35:15+02:00</time>
      </trkpt>
      <trkpt lat="47.78637" lon="6.01218">
        <ele>226.5</ele>
        <time>2026-05-17T08:35:16+02:00</time>
      </trkpt>
      <trkpt lat="47.78637" lon="6.01209">
        <ele>226.40039</ele>
        <time>2026-05-17T08:35:17+02:00</time>
      </trkpt>
      <trkpt lat="47.78637" lon="6.012">
        <ele>226.40039</ele>
        <time>2026-05-17T08:35:18+02:00</time>
      </trkpt>
      <trkpt lat="47.78637" lon="6.01192">
        <ele>226.40039</ele>
        <time>2026-05-17T08:35:19+02:00</time>
      </trkpt>
      <trkpt lat="47.78637" lon="6.01184">
        <ele>226.40039</ele>
        <time>2026-05-17T08:35:20+02:00</time>
      </trkpt>
      <trkpt lat="47.78637" lon="6.01176">
        <ele>226.40039</ele>
        <time>2026-05-17T08:35:21+02:00</time>
      </trkpt>
      <trkpt lat="47.78637" lon="6.01168">
        <ele>226.40039</ele>
        <time>2026-05-17T08:35:22+02:00</time>
      </trkpt>
      <trkpt lat="47.78637" lon="6.01161">
        <ele>226.2998</ele>
        <time>2026-05-17T08:35:23+02:00</time>
      </trkpt>
      <trkpt lat="47.78637" lon="6.01155">
        <ele>226.2998</ele>
        <time>2026-05-17T08:35:24+02:00</time>
      </trkpt>
      <trkpt lat="47.78635" lon="6.01151">
        <ele>226.2998</ele>
        <time>2026-05-17T08:35:25+02:00</time>
      </trkpt>
      <trkpt lat="47.78632" lon="6.0115">
        <ele>226.10059</ele>
        <time>2026-05-17T08:35:26+02:00</time>
      </trkpt>
      <trkpt lat="47.78629" lon="6.01153">
        <ele>226.10059</ele>
        <time>2026-05-17T08:35:27+02:00</time>
      </trkpt>
      <trkpt lat="47.78626" lon="6.01158">
        <ele>225.7998</ele>
        <time>2026-05-17T08:35:28+02:00</time>
      </trkpt>
      <trkpt lat="47.78623" lon="6.01163">
        <ele>225.7002</ele>
        <time>2026-05-17T08:35:29+02:00</time>
      </trkpt>
      <trkpt lat="47.78621" lon="6.01169">
        <ele>225.60059</ele>
        <time>2026-05-17T08:35:30+02:00</time>
      </trkpt>
      <trkpt lat="47.78618" lon="6.01174">
        <ele>225.60059</ele>
        <time>2026-05-17T08:35:31+02:00</time>
      </trkpt>
      <trkpt lat="47.78614" lon="6.01179">
        <ele>225.2002</ele>
        <time>2026-05-17T08:35:32+02:00</time>
      </trkpt>
      <trkpt lat="47.78609" lon="6.01183">
        <ele>224.90039</ele>
        <time>2026-05-17T08:35:33+02:00</time>
      </trkpt>
      <trkpt lat="47.78605" lon="6.01188">
        <ele>224.2998</ele>
        <time>2026-05-17T08:35:34+02:00</time>
      </trkpt>
      <trkpt lat="47.786" lon="6.01194">
        <ele>224.10059</ele>
        <time>2026-05-17T08:35:35+02:00</time>
      </trkpt>
      <trkpt lat="47.78595" lon="6.01199">
        <ele>223.7998</ele>
        <time>2026-05-17T08:35:36+02:00</time>
      </trkpt>
      <trkpt lat="47.78591" lon="6.01205">
        <ele>223.2002</ele>
        <time>2026-05-17T08:35:37+02:00</time>
      </trkpt>
      <trkpt lat="47.78586" lon="6.01212">
        <ele>222.60059</ele>
        <time>2026-05-17T08:35:38+02:00</time>
      </trkpt>
      <trkpt lat="47.78581" lon="6.01219">
        <ele>222.2002</ele>
        <time>2026-05-17T08:35:39+02:00</time>
      </trkpt>
      <trkpt lat="47.78576" lon="6.01227">
        <ele>221.7998</ele>
        <time>2026-05-17T08:35:40+02:00</time>
      </trkpt>
      <trkpt lat="47.78571" lon="6.01236">
        <ele>221.7002</ele>
        <time>2026-05-17T08:35:41+02:00</time>
      </trkpt>
      <trkpt lat="47.78566" lon="6.01244">
        <ele>221.60059</ele>
        <time>2026-05-17T08:35:42+02:00</time>
      </trkpt>
      <trkpt lat="47.78562" lon="6.01253">
        <ele>221.60059</ele>
        <time>2026-05-17T08:35:43+02:00</time>
      </trkpt>
      <trkpt lat="47.78557" lon="6.01262">
        <ele>221.7002</ele>
        <time>2026-05-17T08:35:44+02:00</time>
      </trkpt>
      <trkpt lat="47.78552" lon="6.0127">
        <ele>221.7998</ele>
        <time>2026-05-17T08:35:45+02:00</time>
      </trkpt>
      <trkpt lat="47.78547" lon="6.01279">
        <ele>221.90039</ele>
        <time>2026-05-17T08:35:46+02:00</time>
      </trkpt>
      <trkpt lat="47.78543" lon="6.01288">
        <ele>222.10059</ele>
        <time>2026-05-17T08:35:47+02:00</time>
      </trkpt>
      <trkpt lat="47.78538" lon="6.01296">
        <ele>222.10059</ele>
        <time>2026-05-17T08:35:48+02:00</time>
      </trkpt>
      <trkpt lat="47.78533" lon="6.01305">
        <ele>222</ele>
        <time>2026-05-17T08:35:49+02:00</time>
      </trkpt>
      <trkpt lat="47.78529" lon="6.01313">
        <ele>222</ele>
        <time>2026-05-17T08:35:50+02:00</time>
      </trkpt>
      <trkpt lat="47.78524" lon="6.01321">
        <ele>221.7998</ele>
        <time>2026-05-17T08:35:51+02:00</time>
      </trkpt>
      <trkpt lat="47.7852" lon="6.01329">
        <ele>221.90039</ele>
        <time>2026-05-17T08:35:52+02:00</time>
      </trkpt>
      <trkpt lat="47.78515" lon="6.01337">
        <ele>221.90039</ele>
        <time>2026-05-17T08:35:53+02:00</time>
      </trkpt>
      <trkpt lat="47.78511" lon="6.01345">
        <ele>221.7998</ele>
        <time>2026-05-17T08:35:54+02:00</time>
      </trkpt>
      <trkpt lat="47.78507" lon="6.01354">
        <ele>221.7002</ele>
        <time>2026-05-17T08:35:55+02:00</time>
      </trkpt>
      <trkpt lat="47.78502" lon="6.01362">
        <ele>221.7998</ele>
        <time>2026-05-17T08:35:56+02:00</time>
      </trkpt>
      <trkpt lat="47.78498" lon="6.0137">
        <ele>221.7002</ele>
        <time>2026-05-17T08:35:57+02:00</time>
      </trkpt>
      <trkpt lat="47.78493" lon="6.01377">
        <ele>221.60059</ele>
        <time>2026-05-17T08:35:58+02:00</time>
      </trkpt>
      <trkpt lat="47.78489" lon="6.01385">
        <ele>221.40039</ele>
        <time>2026-05-17T08:35:59+02:00</time>
      </trkpt>
      <trkpt lat="47.78484" lon="6.01393">
        <ele>221.2998</ele>
        <time>2026-05-17T08:36:00+02:00</time>
      </trkpt>
      <trkpt lat="47.78481" lon="6.014">
        <ele>221.40039</ele>
        <time>2026-05-17T08:36:01+02:00</time>
      </trkpt>
      <trkpt lat="47.78477" lon="6.01407">
        <ele>221.2002</ele>
        <time>2026-05-17T08:36:02+02:00</time>
      </trkpt>
      <trkpt lat="47.78473" lon="6.01411">
        <ele>221.2002</ele>
        <time>2026-05-17T08:36:03+02:00</time>
      </trkpt>
      <trkpt lat="47.78468" lon="6.01413">
        <ele>221.2002</ele>
        <time>2026-05-17T08:36:04+02:00</time>
      </trkpt>
      <trkpt lat="47.78463" lon="6.01412">
        <ele>221.10059</ele>
        <time>2026-05-17T08:36:05+02:00</time>
      </trkpt>
      <trkpt lat="47.78457" lon="6.01408">
        <ele>221</ele>
        <time>2026-05-17T08:36:06+02:00</time>
      </trkpt>
      <trkpt lat="47.78452" lon="6.01404">
        <ele>220.7998</ele>
        <time>2026-05-17T08:36:07+02:00</time>
      </trkpt>
      <trkpt lat="47.78446" lon="6.01399">
        <ele>220.7002</ele>
        <time>2026-05-17T08:36:08+02:00</time>
      </trkpt>
      <trkpt lat="47.78439" lon="6.01394">
        <ele>220.5</ele>
        <time>2026-05-17T08:36:09+02:00</time>
      </trkpt>
      <trkpt lat="47.78433" lon="6.01389">
        <ele>220.40039</ele>
        <time>2026-05-17T08:36:10+02:00</time>
      </trkpt>
      <trkpt lat="47.78426" lon="6.01385">
        <ele>220.2002</ele>
        <time>2026-05-17T08:36:11+02:00</time>
      </trkpt>
      <trkpt lat="47.7842" lon="6.0138">
        <ele>220.10059</ele>
        <time>2026-05-17T08:36:12+02:00</time>
      </trkpt>
      <trkpt lat="47.78413" lon="6.01375">
        <ele>220</ele>
        <time>2026-05-17T08:36:13+02:00</time>
      </trkpt>
      <trkpt lat="47.78406" lon="6.0137">
        <ele>219.7998</ele>
        <time>2026-05-17T08:36:14+02:00</time>
      </trkpt>
      <trkpt lat="47.78399" lon="6.01366">
        <ele>219.7002</ele>
        <time>2026-05-17T08:36:15+02:00</time>
      </trkpt>
      <trkpt lat="47.78393" lon="6.01361">
        <ele>219.5</ele>
        <time>2026-05-17T08:36:16+02:00</time>
      </trkpt>
      <trkpt lat="47.78386" lon="6.01357">
        <ele>219.2002</ele>
        <time>2026-05-17T08:36:17+02:00</time>
      </trkpt>
      <trkpt lat="47.78379" lon="6.01352">
        <ele>219</ele>
        <time>2026-05-17T08:36:18+02:00</time>
      </trkpt>
      <trkpt lat="47.78373" lon="6.01347">
        <ele>218.90039</ele>
        <time>2026-05-17T08:36:19+02:00</time>
      </trkpt>
      <trkpt lat="47.78367" lon="6.01343">
        <ele>218.7002</ele>
        <time>2026-05-17T08:36:20+02:00</time>
      </trkpt>
      <trkpt lat="47.78361" lon="6.0134">
        <ele>218.5</ele>
        <time>2026-05-17T08:36:21+02:00</time>
      </trkpt>
      <trkpt lat="47.78355" lon="6.01338">
        <ele>218.2998</ele>
        <time>2026-05-17T08:36:22+02:00</time>
      </trkpt>
      <trkpt lat="47.78349" lon="6.01335">
        <ele>218.2002</ele>
        <time>2026-05-17T08:36:23+02:00</time>
      </trkpt>
      <trkpt lat="47.78346" lon="6.0133">
        <ele>218</ele>
        <time>2026-05-17T08:36:24+02:00</time>
      </trkpt>
      <trkpt lat="47.78344" lon="6.01323">
        <ele>218</ele>
        <time>2026-05-17T08:36:25+02:00</time>
      </trkpt>
      <trkpt lat="47.78343" lon="6.01316">
        <ele>217.90039</ele>
        <time>2026-05-17T08:36:26+02:00</time>
      </trkpt>
      <trkpt lat="47.78345" lon="6.01308">
        <ele>217.7998</ele>
        <time>2026-05-17T08:36:27+02:00</time>
      </trkpt>
      <trkpt lat="47.78348" lon="6.01301">
        <ele>217.90039</ele>
        <time>2026-05-17T08:36:28+02:00</time>
      </trkpt>
      <trkpt lat="47.78351" lon="6.01294">
        <ele>217.7002</ele>
        <time>2026-05-17T08:36:29+02:00</time>
      </trkpt>
      <trkpt lat="47.78354" lon="6.01287">
        <ele>217.7998</ele>
        <time>2026-05-17T08:36:30+02:00</time>
      </trkpt>
      <trkpt lat="47.78357" lon="6.0128">
        <ele>217.60059</ele>
        <time>2026-05-17T08:36:31+02:00</time>
      </trkpt>
      <trkpt lat="47.7836" lon="6.01273">
        <ele>217.60059</ele>
        <time>2026-05-17T08:36:32+02:00</time>
      </trkpt>
      <trkpt lat="47.78364" lon="6.01266">
        <ele>217.5</ele>
        <time>2026-05-17T08:36:33+02:00</time>
      </trkpt>
      <trkpt lat="47.78367" lon="6.01258">
        <ele>217.2998</ele>
        <time>2026-05-17T08:36:34+02:00</time>
      </trkpt>
      <trkpt lat="47.7837" lon="6.01251">
        <ele>217.10059</ele>
        <time>2026-05-17T08:36:35+02:00</time>
      </trkpt>
      <trkpt lat="47.78374" lon="6.01244">
        <ele>217.10059</ele>
        <time>2026-05-17T08:36:36+02:00</time>
      </trkpt>
      <trkpt lat="47.78377" lon="6.01237">
        <ele>217</ele>
        <time>2026-05-17T08:36:37+02:00</time>
      </trkpt>
      <trkpt lat="47.7838" lon="6.0123">
        <ele>216.7002</ele>
        <time>2026-05-17T08:36:38+02:00</time>
      </trkpt>
      <trkpt lat="47.78383" lon="6.01222">
        <ele>216.60059</ele>
        <time>2026-05-17T08:36:39+02:00</time>
      </trkpt>
      <trkpt lat="47.78386" lon="6.01215">
        <ele>216.2998</ele>
        <time>2026-05-17T08:36:40+02:00</time>
      </trkpt>
      <trkpt lat="47.78389" lon="6.01207">
        <ele>216.2002</ele>
        <time>2026-05-17T08:36:41+02:00</time>
      </trkpt>
      <trkpt lat="47.78393" lon="6.01199">
        <ele>216.2002</ele>
        <time>2026-05-17T08:36:42+02:00</time>
      </trkpt>
      <trkpt lat="47.78396" lon="6.01191">
        <ele>215.90039</ele>
        <time>2026-05-17T08:36:43+02:00</time>
      </trkpt>
      <trkpt lat="47.784" lon="6.01182">
        <ele>215.7998</ele>
        <time>2026-05-17T08:36:44+02:00</time>
      </trkpt>
      <trkpt lat="47.78404" lon="6.01174">
        <ele>215.90039</ele>
        <time>2026-05-17T08:36:45+02:00</time>
      </trkpt>
      <trkpt lat="47.78407" lon="6.01165">
        <ele>215.7002</ele>
        <time>2026-05-17T08:36:46+02:00</time>
      </trkpt>
      <trkpt lat="47.7841" lon="6.01156">
        <ele>215.7998</ele>
        <time>2026-05-17T08:36:47+02:00</time>
      </trkpt>
      <trkpt lat="47.78414" lon="6.01148">
        <ele>215.60059</ele>
        <time>2026-05-17T08:36:48+02:00</time>
      </trkpt>
      <trkpt lat="47.78418" lon="6.01139">
        <ele>215.7998</ele>
        <time>2026-05-17T08:36:49+02:00</time>
      </trkpt>
      <trkpt lat="47.78422" lon="6.0113">
        <ele>215.90039</ele>
        <time>2026-05-17T08:36:50+02:00</time>
      </trkpt>
      <trkpt lat="47.78425" lon="6.01122">
        <ele>215.7998</ele>
        <time>2026-05-17T08:36:51+02:00</time>
      </trkpt>
      <trkpt lat="47.78429" lon="6.01113">
        <ele>216.10059</ele>
        <time>2026-05-17T08:36:52+02:00</time>
      </trkpt>
      <trkpt lat="47.78433" lon="6.01105">
        <ele>216.40039</ele>
        <time>2026-05-17T08:36:53+02:00</time>
      </trkpt>
      <trkpt lat="47.78436" lon="6.01096">
        <ele>216.40039</ele>
        <time>2026-05-17T08:36:54+02:00</time>
      </trkpt>
      <trkpt lat="47.78439" lon="6.01087">
        <ele>216.7998</ele>
        <time>2026-05-17T08:36:55+02:00</time>
      </trkpt>
      <trkpt lat="47.78443" lon="6.01079">
        <ele>216.90039</ele>
        <time>2026-05-17T08:36:56+02:00</time>
      </trkpt>
      <trkpt lat="47.78446" lon="6.0107">
        <ele>217.2998</ele>
        <time>2026-05-17T08:36:57+02:00</time>
      </trkpt>
      <trkpt lat="47.78449" lon="6.01061">
        <ele>217.2002</ele>
        <time>2026-05-17T08:36:58+02:00</time>
      </trkpt>
      <trkpt lat="47.78452" lon="6.01053">
        <ele>217.60059</ele>
        <time>2026-05-17T08:36:59+02:00</time>
      </trkpt>
      <trkpt lat="47.78455" lon="6.01044">
        <ele>217.5</ele>
        <time>2026-05-17T08:37:00+02:00</time>
      </trkpt>
      <trkpt lat="47.78458" lon="6.01035">
        <ele>217.7998</ele>
        <time>2026-05-17T08:37:01+02:00</time>
      </trkpt>
      <trkpt lat="47.78461" lon="6.01026">
        <ele>217.60059</ele>
        <time>2026-05-17T08:37:02+02:00</time>
      </trkpt>
      <trkpt lat="47.78464" lon="6.01017">
        <ele>217.7998</ele>
        <time>2026-05-17T08:37:03+02:00</time>
      </trkpt>
      <trkpt lat="47.78467" lon="6.01008">
        <ele>217.7002</ele>
        <time>2026-05-17T08:37:04+02:00</time>
      </trkpt>
      <trkpt lat="47.78469" lon="6.01">
        <ele>217.90039</ele>
        <time>2026-05-17T08:37:05+02:00</time>
      </trkpt>
      <trkpt lat="47.78472" lon="6.00991">
        <ele>217.7998</ele>
        <time>2026-05-17T08:37:06+02:00</time>
      </trkpt>
      <trkpt lat="47.78473" lon="6.00983">
        <ele>217.60059</ele>
        <time>2026-05-17T08:37:07+02:00</time>
      </trkpt>
      <trkpt lat="47.78476" lon="6.00976">
        <ele>217.7998</ele>
        <time>2026-05-17T08:37:08+02:00</time>
      </trkpt>
      <trkpt lat="47.78477" lon="6.00969">
        <ele>217.5</ele>
        <time>2026-05-17T08:37:09+02:00</time>
      </trkpt>
      <trkpt lat="47.78477" lon="6.00963">
        <ele>217.5</ele>
        <time>2026-05-17T08:37:10+02:00</time>
      </trkpt>
      <trkpt lat="47.78475" lon="6.00958">
        <ele>217.2998</ele>
        <time>2026-05-17T08:37:11+02:00</time>
      </trkpt>
      <trkpt lat="47.78472" lon="6.00953">
        <ele>216.90039</ele>
        <time>2026-05-17T08:37:12+02:00</time>
      </trkpt>
      <trkpt lat="47.78467" lon="6.00949">
        <ele>216.10059</ele>
        <time>2026-05-17T08:37:13+02:00</time>
      </trkpt>
      <trkpt lat="47.78463" lon="6.00944">
        <ele>216.10059</ele>
        <time>2026-05-17T08:37:14+02:00</time>
      </trkpt>
      <trkpt lat="47.78458" lon="6.00939">
        <ele>215.2998</ele>
        <time>2026-05-17T08:37:15+02:00</time>
      </trkpt>
      <trkpt lat="47.78453" lon="6.00934">
        <ele>214.5</ele>
        <time>2026-05-17T08:37:16+02:00</time>
      </trkpt>
      <trkpt lat="47.78447" lon="6.0093">
        <ele>214.10059</ele>
        <time>2026-05-17T08:37:17+02:00</time>
      </trkpt>
      <trkpt lat="47.78441" lon="6.00926">
        <ele>213.40039</ele>
        <time>2026-05-17T08:37:18+02:00</time>
      </trkpt>
      <trkpt lat="47.78435" lon="6.00924">
        <ele>213.10059</ele>
        <time>2026-05-17T08:37:19+02:00</time>
      </trkpt>
      <trkpt lat="47.78428" lon="6.0092">
        <ele>212.7002</ele>
        <time>2026-05-17T08:37:20+02:00</time>
      </trkpt>
      <trkpt lat="47.78422" lon="6.00917">
        <ele>212.2002</ele>
        <time>2026-05-17T08:37:21+02:00</time>
      </trkpt>
      <trkpt lat="47.78415" lon="6.00914">
        <ele>211.7002</ele>
        <time>2026-05-17T08:37:22+02:00</time>
      </trkpt>
      <trkpt lat="47.78408" lon="6.00911">
        <ele>211.60059</ele>
        <time>2026-05-17T08:37:23+02:00</time>
      </trkpt>
      <trkpt lat="47.78402" lon="6.00908">
        <ele>211.40039</ele>
        <time>2026-05-17T08:37:24+02:00</time>
      </trkpt>
      <trkpt lat="47.78396" lon="6.00905">
        <ele>211.2998</ele>
        <time>2026-05-17T08:37:25+02:00</time>
      </trkpt>
      <trkpt lat="47.78389" lon="6.00903">
        <ele>211.2998</ele>
        <time>2026-05-17T08:37:26+02:00</time>
      </trkpt>
      <trkpt lat="47.78383" lon="6.009">
        <ele>211.2002</ele>
        <time>2026-05-17T08:37:27+02:00</time>
      </trkpt>
      <trkpt lat="47.78378" lon="6.00896">
        <ele>211.2002</ele>
        <time>2026-05-17T08:37:28+02:00</time>
      </trkpt>
      <trkpt lat="47.78375" lon="6.0089">
        <ele>211.10059</ele>
        <time>2026-05-17T08:37:29+02:00</time>
      </trkpt>
      <trkpt lat="47.78375" lon="6.00882">
        <ele>211</ele>
        <time>2026-05-17T08:37:30+02:00</time>
      </trkpt>
      <trkpt lat="47.78378" lon="6.00876">
        <ele>211.10059</ele>
        <time>2026-05-17T08:37:31+02:00</time>
      </trkpt>
      <trkpt lat="47.78381" lon="6.00871">
        <ele>211.10059</ele>
        <time>2026-05-17T08:37:32+02:00</time>
      </trkpt>
      <trkpt lat="47.78386" lon="6.00866">
        <ele>211</ele>
        <time>2026-05-17T08:37:33+02:00</time>
      </trkpt>
      <trkpt lat="47.7839" lon="6.0086">
        <ele>211.10059</ele>
        <time>2026-05-17T08:37:34+02:00</time>
      </trkpt>
      <trkpt lat="47.78395" lon="6.00855">
        <ele>211.10059</ele>
        <time>2026-05-17T08:37:35+02:00</time>
      </trkpt>
      <trkpt lat="47.78399" lon="6.00849">
        <ele>211.2002</ele>
        <time>2026-05-17T08:37:36+02:00</time>
      </trkpt>
      <trkpt lat="47.78404" lon="6.00842">
        <ele>211.2998</ele>
        <time>2026-05-17T08:37:37+02:00</time>
      </trkpt>
      <trkpt lat="47.78409" lon="6.00835">
        <ele>211.2002</ele>
        <time>2026-05-17T08:37:38+02:00</time>
      </trkpt>
      <trkpt lat="47.78414" lon="6.00829">
        <ele>211.2998</ele>
        <time>2026-05-17T08:37:39+02:00</time>
      </trkpt>
      <trkpt lat="47.78419" lon="6.00822">
        <ele>211.40039</ele>
        <time>2026-05-17T08:37:40+02:00</time>
      </trkpt>
      <trkpt lat="47.78424" lon="6.00816">
        <ele>211.5</ele>
        <time>2026-05-17T08:37:41+02:00</time>
      </trkpt>
      <trkpt lat="47.78429" lon="6.00809">
        <ele>211.60059</ele>
        <time>2026-05-17T08:37:42+02:00</time>
      </trkpt>
      <trkpt lat="47.78434" lon="6.00802">
        <ele>211.7002</ele>
        <time>2026-05-17T08:37:43+02:00</time>
      </trkpt>
      <trkpt lat="47.78439" lon="6.00794">
        <ele>211.7998</ele>
        <time>2026-05-17T08:37:44+02:00</time>
      </trkpt>
      <trkpt lat="47.78444" lon="6.00787">
        <ele>211.7998</ele>
        <time>2026-05-17T08:37:45+02:00</time>
      </trkpt>
      <trkpt lat="47.78449" lon="6.0078">
        <ele>211.90039</ele>
        <time>2026-05-17T08:37:46+02:00</time>
      </trkpt>
      <trkpt lat="47.78454" lon="6.00773">
        <ele>212</ele>
        <time>2026-05-17T08:37:47+02:00</time>
      </trkpt>
      <trkpt lat="47.7846" lon="6.00766">
        <ele>212.2002</ele>
        <time>2026-05-17T08:37:48+02:00</time>
      </trkpt>
      <trkpt lat="47.78465" lon="6.00759">
        <ele>212.2998</ele>
        <time>2026-05-17T08:37:49+02:00</time>
      </trkpt>
      <trkpt lat="47.7847" lon="6.00752">
        <ele>212.5</ele>
        <time>2026-05-17T08:37:50+02:00</time>
      </trkpt>
      <trkpt lat="47.78475" lon="6.00745">
        <ele>212.60059</ele>
        <time>2026-05-17T08:37:51+02:00</time>
      </trkpt>
      <trkpt lat="47.7848" lon="6.00738">
        <ele>212.7002</ele>
        <time>2026-05-17T08:37:52+02:00</time>
      </trkpt>
      <trkpt lat="47.78485" lon="6.00731">
        <ele>212.7998</ele>
        <time>2026-05-17T08:37:53+02:00</time>
      </trkpt>
      <trkpt lat="47.78491" lon="6.00724">
        <ele>212.90039</ele>
        <time>2026-05-17T08:37:54+02:00</time>
      </trkpt>
      <trkpt lat="47.78496" lon="6.00717">
        <ele>212.90039</ele>
        <time>2026-05-17T08:37:55+02:00</time>
      </trkpt>
      <trkpt lat="47.78501" lon="6.0071">
        <ele>212.7998</ele>
        <time>2026-05-17T08:37:56+02:00</time>
      </trkpt>
      <trkpt lat="47.78506" lon="6.00703">
        <ele>212.7998</ele>
        <time>2026-05-17T08:37:57+02:00</time>
      </trkpt>
      <trkpt lat="47.78511" lon="6.00696">
        <ele>213</ele>
        <time>2026-05-17T08:37:58+02:00</time>
      </trkpt>
      <trkpt lat="47.78516" lon="6.00688">
        <ele>213</ele>
        <time>2026-05-17T08:37:59+02:00</time>
      </trkpt>
      <trkpt lat="47.78521" lon="6.00681">
        <ele>213.10059</ele>
        <time>2026-05-17T08:38:00+02:00</time>
      </trkpt>
      <trkpt lat="47.78526" lon="6.00674">
        <ele>213.2002</ele>
        <time>2026-05-17T08:38:01+02:00</time>
      </trkpt>
      <trkpt lat="47.78531" lon="6.00667">
        <ele>213.2998</ele>
        <time>2026-05-17T08:38:02+02:00</time>
      </trkpt>
      <trkpt lat="47.78536" lon="6.0066">
        <ele>213.10059</ele>
        <time>2026-05-17T08:38:03+02:00</time>
      </trkpt>
      <trkpt lat="47.78542" lon="6.00653">
        <ele>213.2998</ele>
        <time>2026-05-17T08:38:04+02:00</time>
      </trkpt>
      <trkpt lat="47.78546" lon="6.00646">
        <ele>213.2998</ele>
        <time>2026-05-17T08:38:05+02:00</time>
      </trkpt>
      <trkpt lat="47.78552" lon="6.00639">
        <ele>213.2998</ele>
        <time>2026-05-17T08:38:06+02:00</time>
      </trkpt>
      <trkpt lat="47.78557" lon="6.00632">
        <ele>213.2002</ele>
        <time>2026-05-17T08:38:07+02:00</time>
      </trkpt>
      <trkpt lat="47.78562" lon="6.00625">
        <ele>213.10059</ele>
        <time>2026-05-17T08:38:08+02:00</time>
      </trkpt>
      <trkpt lat="47.78567" lon="6.00618">
        <ele>213.2002</ele>
        <time>2026-05-17T08:38:09+02:00</time>
      </trkpt>
      <trkpt lat="47.78572" lon="6.00611">
        <ele>213</ele>
        <time>2026-05-17T08:38:10+02:00</time>
      </trkpt>
      <trkpt lat="47.78578" lon="6.00605">
        <ele>212.90039</ele>
        <time>2026-05-17T08:38:11+02:00</time>
      </trkpt>
      <trkpt lat="47.78583" lon="6.00599">
        <ele>212.7002</ele>
        <time>2026-05-17T08:38:12+02:00</time>
      </trkpt>
      <trkpt lat="47.78589" lon="6.00594">
        <ele>212.7998</ele>
        <time>2026-05-17T08:38:13+02:00</time>
      </trkpt>
      <trkpt lat="47.78595" lon="6.00589">
        <ele>212.7002</ele>
        <time>2026-05-17T08:38:14+02:00</time>
      </trkpt>
      <trkpt lat="47.78602" lon="6.00584">
        <ele>212.7998</ele>
        <time>2026-05-17T08:38:15+02:00</time>
      </trkpt>
      <trkpt lat="47.78608" lon="6.0058">
        <ele>212.7002</ele>
        <time>2026-05-17T08:38:16+02:00</time>
      </trkpt>
      <trkpt lat="47.78614" lon="6.00575">
        <ele>212.7998</ele>
        <time>2026-05-17T08:38:17+02:00</time>
      </trkpt>
      <trkpt lat="47.7862" lon="6.00571">
        <ele>212.7998</ele>
        <time>2026-05-17T08:38:18+02:00</time>
      </trkpt>
      <trkpt lat="47.78625" lon="6.00567">
        <ele>212.90039</ele>
        <time>2026-05-17T08:38:19+02:00</time>
      </trkpt>
      <trkpt lat="47.78629" lon="6.00562">
        <ele>212.7998</ele>
        <time>2026-05-17T08:38:20+02:00</time>
      </trkpt>
      <trkpt lat="47.78632" lon="6.00556">
        <ele>212.5</ele>
        <time>2026-05-17T08:38:21+02:00</time>
      </trkpt>
      <trkpt lat="47.78634" lon="6.00548">
        <ele>212.2002</ele>
        <time>2026-05-17T08:38:22+02:00</time>
      </trkpt>
      <trkpt lat="47.78635" lon="6.0054">
        <ele>211.90039</ele>
        <time>2026-05-17T08:38:23+02:00</time>
      </trkpt>
      <trkpt lat="47.78634" lon="6.00532">
        <ele>211.7998</ele>
        <time>2026-05-17T08:38:24+02:00</time>
      </trkpt>
      <trkpt lat="47.78633" lon="6.00524">
        <ele>211.40039</ele>
        <time>2026-05-17T08:38:25+02:00</time>
      </trkpt>
      <trkpt lat="47.78631" lon="6.00515">
        <ele>211.10059</ele>
        <time>2026-05-17T08:38:26+02:00</time>
      </trkpt>
      <trkpt lat="47.78629" lon="6.00506">
        <ele>210.7998</ele>
        <time>2026-05-17T08:38:27+02:00</time>
      </trkpt>
      <trkpt lat="47.78627" lon="6.00498">
        <ele>210.40039</ele>
        <time>2026-05-17T08:38:28+02:00</time>
      </trkpt>
      <trkpt lat="47.78625" lon="6.00489">
        <ele>210.2002</ele>
        <time>2026-05-17T08:38:29+02:00</time>
      </trkpt>
      <trkpt lat="47.78623" lon="6.0048">
        <ele>210.2002</ele>
        <time>2026-05-17T08:38:30+02:00</time>
      </trkpt>
      <trkpt lat="47.78621" lon="6.00471">
        <ele>210.2998</ele>
        <time>2026-05-17T08:38:31+02:00</time>
      </trkpt>
      <trkpt lat="47.7862" lon="6.00464">
        <ele>210.2998</ele>
        <time>2026-05-17T08:38:32+02:00</time>
      </trkpt>
      <trkpt lat="47.78618" lon="6.00457">
        <ele>210.40039</ele>
        <time>2026-05-17T08:38:33+02:00</time>
      </trkpt>
      <trkpt lat="47.78617" lon="6.00453">
        <ele>210.5</ele>
        <time>2026-05-17T08:38:34+02:00</time>
      </trkpt>
      <trkpt lat="47.78616" lon="6.0045">
        <ele>210.5</ele>
        <time>2026-05-17T08:38:35+02:00</time>
      </trkpt>
      <trkpt lat="47.78616" lon="6.00447">
        <ele>210.5</ele>
        <time>2026-05-17T08:38:36+02:00</time>
      </trkpt>
      <trkpt lat="47.78615" lon="6.00446">
        <ele>210.5</ele>
        <time>2026-05-17T08:38:37+02:00</time>
      </trkpt>
      <trkpt lat="47.78615" lon="6.00446">
        <ele>210.5</ele>
        <time>2026-05-17T08:38:38+02:00</time>
      </trkpt>
      <trkpt lat="47.78615" lon="6.00446">
        <ele>210.5</ele>
        <time>2026-05-17T08:38:39+02:00</time>
      </trkpt>
      <trkpt lat="47.78615" lon="6.00446">
        <ele>210.5</ele>
        <time>2026-05-17T08:38:40+02:00</time>
      </trkpt>
      <trkpt lat="47.7861" lon="6.00428">
        <ele>211</ele>
        <time>2026-05-17T08:39:01+02:00</time>
      </trkpt>
      <trkpt lat="47.78609" lon="6.00424">
        <ele>211</ele>
        <time>2026-05-17T08:39:02+02:00</time>
      </trkpt>
      <trkpt lat="47.78608" lon="6.00421">
        <ele>211</ele>
        <time>2026-05-17T08:39:03+02:00</time>
      </trkpt>
      <trkpt lat="47.78607" lon="6.00417">
        <ele>211.10059</ele>
        <time>2026-05-17T08:39:04+02:00</time>
      </trkpt>
      <trkpt lat="47.78606" lon="6.00413">
        <ele>211.10059</ele>
        <time>2026-05-17T08:39:05+02:00</time>
      </trkpt>
      <trkpt lat="47.78605" lon="6.00409">
        <ele>211.10059</ele>
        <time>2026-05-17T08:39:06+02:00</time>
      </trkpt>
      <trkpt lat="47.78604" lon="6.00405">
        <ele>211.10059</ele>
        <time>2026-05-17T08:39:07+02:00</time>
      </trkpt>
      <trkpt lat="47.78602" lon="6.004">
        <ele>211</ele>
        <time>2026-05-17T08:39:08+02:00</time>
      </trkpt>
      <trkpt lat="47.78601" lon="6.00395">
        <ele>211</ele>
        <time>2026-05-17T08:39:09+02:00</time>
      </trkpt>
      <trkpt lat="47.78599" lon="6.00389">
        <ele>210.7002</ele>
        <time>2026-05-17T08:39:10+02:00</time>
      </trkpt>
      <trkpt lat="47.78598" lon="6.00384">
        <ele>210.5</ele>
        <time>2026-05-17T08:39:11+02:00</time>
      </trkpt>
      <trkpt lat="47.78595" lon="6.00378">
        <ele>210.5</ele>
        <time>2026-05-17T08:39:12+02:00</time>
      </trkpt>
      <trkpt lat="47.78594" lon="6.00373">
        <ele>210.10059</ele>
        <time>2026-05-17T08:39:13+02:00</time>
      </trkpt>
      <trkpt lat="47.78592" lon="6.00367">
        <ele>209.90039</ele>
        <time>2026-05-17T08:39:14+02:00</time>
      </trkpt>
      <trkpt lat="47.7859" lon="6.00362">
        <ele>209.90039</ele>
        <time>2026-05-17T08:39:15+02:00</time>
      </trkpt>
      <trkpt lat="47.78587" lon="6.00356">
        <ele>209.60059</ele>
        <time>2026-05-17T08:39:16+02:00</time>
      </trkpt>
      <trkpt lat="47.78586" lon="6.00351">
        <ele>209.5</ele>
        <time>2026-05-17T08:39:17+02:00</time>
      </trkpt>
      <trkpt lat="47.78583" lon="6.00345">
        <ele>209.5</ele>
        <time>2026-05-17T08:39:18+02:00</time>
      </trkpt>
      <trkpt lat="47.78581" lon="6.00339">
        <ele>209.2998</ele>
        <time>2026-05-17T08:39:19+02:00</time>
      </trkpt>
      <trkpt lat="47.78579" lon="6.00333">
        <ele>209.2998</ele>
        <time>2026-05-17T08:39:20+02:00</time>
      </trkpt>
      <trkpt lat="47.78576" lon="6.00328">
        <ele>209.2998</ele>
        <time>2026-05-17T08:39:21+02:00</time>
      </trkpt>
      <trkpt lat="47.78574" lon="6.00322">
        <ele>209.2002</ele>
        <time>2026-05-17T08:39:22+02:00</time>
      </trkpt>
      <trkpt lat="47.78572" lon="6.00315">
        <ele>209.2002</ele>
        <time>2026-05-17T08:39:23+02:00</time>
      </trkpt>
      <trkpt lat="47.7857" lon="6.00308">
        <ele>209.40039</ele>
        <time>2026-05-17T08:39:24+02:00</time>
      </trkpt>
      <trkpt lat="47.78567" lon="6.00302">
        <ele>209.40039</ele>
        <time>2026-05-17T08:39:25+02:00</time>
      </trkpt>
      <trkpt lat="47.78565" lon="6.00294">
        <ele>209.7998</ele>
        <time>2026-05-17T08:39:26+02:00</time>
      </trkpt>
      <trkpt lat="47.78562" lon="6.00286">
        <ele>210</ele>
        <time>2026-05-17T08:39:27+02:00</time>
      </trkpt>
      <trkpt lat="47.78561" lon="6.00277">
        <ele>210.2998</ele>
        <time>2026-05-17T08:39:28+02:00</time>
      </trkpt>
      <trkpt lat="47.78561" lon="6.00267">
        <ele>210.7002</ele>
        <time>2026-05-17T08:39:29+02:00</time>
      </trkpt>
      <trkpt lat="47.78561" lon="6.00257">
        <ele>211</ele>
        <time>2026-05-17T08:39:30+02:00</time>
      </trkpt>
      <trkpt lat="47.78562" lon="6.00246">
        <ele>211.7998</ele>
        <time>2026-05-17T08:39:31+02:00</time>
      </trkpt>
      <trkpt lat="47.78563" lon="6.00235">
        <ele>212.2002</ele>
        <time>2026-05-17T08:39:32+02:00</time>
      </trkpt>
      <trkpt lat="47.78564" lon="6.00223">
        <ele>212.40039</ele>
        <time>2026-05-17T08:39:33+02:00</time>
      </trkpt>
      <trkpt lat="47.78565" lon="6.00212">
        <ele>212.60059</ele>
        <time>2026-05-17T08:39:34+02:00</time>
      </trkpt>
      <trkpt lat="47.78565" lon="6.00201">
        <ele>212.7002</ele>
        <time>2026-05-17T08:39:35+02:00</time>
      </trkpt>
      <trkpt lat="47.78566" lon="6.0019">
        <ele>212.60059</ele>
        <time>2026-05-17T08:39:36+02:00</time>
      </trkpt>
      <trkpt lat="47.78569" lon="6.0018">
        <ele>212.7002</ele>
        <time>2026-05-17T08:39:37+02:00</time>
      </trkpt>
      <trkpt lat="47.78573" lon="6.00171">
        <ele>212.7002</ele>
        <time>2026-05-17T08:39:38+02:00</time>
      </trkpt>
      <trkpt lat="47.78578" lon="6.00164">
        <ele>212.5</ele>
        <time>2026-05-17T08:39:39+02:00</time>
      </trkpt>
      <trkpt lat="47.78585" lon="6.0016">
        <ele>212.40039</ele>
        <time>2026-05-17T08:39:40+02:00</time>
      </trkpt>
      <trkpt lat="47.78592" lon="6.00158">
        <ele>212.2998</ele>
        <time>2026-05-17T08:39:41+02:00</time>
      </trkpt>
      <trkpt lat="47.78599" lon="6.00156">
        <ele>212.10059</ele>
        <time>2026-05-17T08:39:42+02:00</time>
      </trkpt>
      <trkpt lat="47.78607" lon="6.00154">
        <ele>211.90039</ele>
        <time>2026-05-17T08:39:43+02:00</time>
      </trkpt>
      <trkpt lat="47.78614" lon="6.00153">
        <ele>212</ele>
        <time>2026-05-17T08:39:44+02:00</time>
      </trkpt>
      <trkpt lat="47.78621" lon="6.00151">
        <ele>211.90039</ele>
        <time>2026-05-17T08:39:45+02:00</time>
      </trkpt>
      <trkpt lat="47.78628" lon="6.00149">
        <ele>211.7002</ele>
        <time>2026-05-17T08:39:46+02:00</time>
      </trkpt>
      <trkpt lat="47.78635" lon="6.00148">
        <ele>211.2998</ele>
        <time>2026-05-17T08:39:47+02:00</time>
      </trkpt>
      <trkpt lat="47.78642" lon="6.00146">
        <ele>211.10059</ele>
        <time>2026-05-17T08:39:48+02:00</time>
      </trkpt>
      <trkpt lat="47.78649" lon="6.00144">
        <ele>211.2002</ele>
        <time>2026-05-17T08:39:49+02:00</time>
      </trkpt>
      <trkpt lat="47.78656" lon="6.00141">
        <ele>211</ele>
        <time>2026-05-17T08:39:50+02:00</time>
      </trkpt>
      <trkpt lat="47.78663" lon="6.00138">
        <ele>210.7002</ele>
        <time>2026-05-17T08:39:51+02:00</time>
      </trkpt>
      <trkpt lat="47.78669" lon="6.00134">
        <ele>210.7998</ele>
        <time>2026-05-17T08:39:52+02:00</time>
      </trkpt>
      <trkpt lat="47.78676" lon="6.0013">
        <ele>210.2998</ele>
        <time>2026-05-17T08:39:53+02:00</time>
      </trkpt>
      <trkpt lat="47.78683" lon="6.00126">
        <ele>210.40039</ele>
        <time>2026-05-17T08:39:54+02:00</time>
      </trkpt>
      <trkpt lat="47.78689" lon="6.00121">
        <ele>210.10059</ele>
        <time>2026-05-17T08:39:55+02:00</time>
      </trkpt>
      <trkpt lat="47.78696" lon="6.00116">
        <ele>210</ele>
        <time>2026-05-17T08:39:56+02:00</time>
      </trkpt>
      <trkpt lat="47.78721" lon="6.00096">
        <ele>210</ele>
        <time>2026-05-17T08:39:57+02:00</time>
      </trkpt>
      <trkpt lat="47.78727" lon="6.00091">
        <ele>210.2002</ele>
        <time>2026-05-17T08:39:58+02:00</time>
      </trkpt>
      <trkpt lat="47.78732" lon="6.00086">
        <ele>210.2002</ele>
        <time>2026-05-17T08:39:59+02:00</time>
      </trkpt>
      <trkpt lat="47.78738" lon="6.0008">
        <ele>210.2002</ele>
        <time>2026-05-17T08:40:00+02:00</time>
      </trkpt>
      <trkpt lat="47.78743" lon="6.00074">
        <ele>210.2998</ele>
        <time>2026-05-17T08:40:01+02:00</time>
      </trkpt>
      <trkpt lat="47.78749" lon="6.00068">
        <ele>210.5</ele>
        <time>2026-05-17T08:40:02+02:00</time>
      </trkpt>
      <trkpt lat="47.78755" lon="6.00062">
        <ele>210.2002</ele>
        <time>2026-05-17T08:40:03+02:00</time>
      </trkpt>
      <trkpt lat="47.7876" lon="6.00054">
        <ele>210.60059</ele>
        <time>2026-05-17T08:40:04+02:00</time>
      </trkpt>
      <trkpt lat="47.78765" lon="6.00047">
        <ele>211</ele>
        <time>2026-05-17T08:40:05+02:00</time>
      </trkpt>
      <trkpt lat="47.7877" lon="6.0004">
        <ele>211.2002</ele>
        <time>2026-05-17T08:40:06+02:00</time>
      </trkpt>
      <trkpt lat="47.78775" lon="6.00032">
        <ele>211.40039</ele>
        <time>2026-05-17T08:40:07+02:00</time>
      </trkpt>
      <trkpt lat="47.78779" lon="6.00024">
        <ele>211.60059</ele>
        <time>2026-05-17T08:40:08+02:00</time>
      </trkpt>
      <trkpt lat="47.78784" lon="6.00016">
        <ele>212.2002</ele>
        <time>2026-05-17T08:40:09+02:00</time>
      </trkpt>
      <trkpt lat="47.78788" lon="6.00007">
        <ele>212.60059</ele>
        <time>2026-05-17T08:40:10+02:00</time>
      </trkpt>
      <trkpt lat="47.78792" lon="5.99999">
        <ele>212.90039</ele>
        <time>2026-05-17T08:40:11+02:00</time>
      </trkpt>
      <trkpt lat="47.78796" lon="5.9999">
        <ele>213.2002</ele>
        <time>2026-05-17T08:40:12+02:00</time>
      </trkpt>
      <trkpt lat="47.788" lon="5.99981">
        <ele>213.90039</ele>
        <time>2026-05-17T08:40:13+02:00</time>
      </trkpt>
      <trkpt lat="47.78804" lon="5.99973">
        <ele>214.2998</ele>
        <time>2026-05-17T08:40:14+02:00</time>
      </trkpt>
      <trkpt lat="47.78808" lon="5.99964">
        <ele>214.7998</ele>
        <time>2026-05-17T08:40:15+02:00</time>
      </trkpt>
      <trkpt lat="47.78811" lon="5.99956">
        <ele>215.60059</ele>
        <time>2026-05-17T08:40:16+02:00</time>
      </trkpt>
      <trkpt lat="47.78816" lon="5.99947">
        <ele>215.90039</ele>
        <time>2026-05-17T08:40:17+02:00</time>
      </trkpt>
      <trkpt lat="47.78819" lon="5.99939">
        <ele>216.5</ele>
        <time>2026-05-17T08:40:18+02:00</time>
      </trkpt>
      <trkpt lat="47.78824" lon="5.9993">
        <ele>216.60059</ele>
        <time>2026-05-17T08:40:19+02:00</time>
      </trkpt>
      <trkpt lat="47.78827" lon="5.99922">
        <ele>216.60059</ele>
        <time>2026-05-17T08:40:20+02:00</time>
      </trkpt>
      <trkpt lat="47.78831" lon="5.99913">
        <ele>216.7002</ele>
        <time>2026-05-17T08:40:21+02:00</time>
      </trkpt>
      <trkpt lat="47.78835" lon="5.99905">
        <ele>216.7002</ele>
        <time>2026-05-17T08:40:22+02:00</time>
      </trkpt>
      <trkpt lat="47.78839" lon="5.99897">
        <ele>216.60059</ele>
        <time>2026-05-17T08:40:23+02:00</time>
      </trkpt>
      <trkpt lat="47.78843" lon="5.99888">
        <ele>216.5</ele>
        <time>2026-05-17T08:40:24+02:00</time>
      </trkpt>
      <trkpt lat="47.78846" lon="5.9988">
        <ele>216.7002</ele>
        <time>2026-05-17T08:40:25+02:00</time>
      </trkpt>
      <trkpt lat="47.7885" lon="5.99871">
        <ele>216.60059</ele>
        <time>2026-05-17T08:40:26+02:00</time>
      </trkpt>
      <trkpt lat="47.78853" lon="5.99863">
        <ele>216.90039</ele>
        <time>2026-05-17T08:40:27+02:00</time>
      </trkpt>
      <trkpt lat="47.78857" lon="5.99854">
        <ele>216.7998</ele>
        <time>2026-05-17T08:40:28+02:00</time>
      </trkpt>
      <trkpt lat="47.78861" lon="5.99846">
        <ele>216.60059</ele>
        <time>2026-05-17T08:40:29+02:00</time>
      </trkpt>
      <trkpt lat="47.78864" lon="5.99838">
        <ele>216.90039</ele>
        <time>2026-05-17T08:40:30+02:00</time>
      </trkpt>
      <trkpt lat="47.78869" lon="5.9983">
        <ele>216.7998</ele>
        <time>2026-05-17T08:40:31+02:00</time>
      </trkpt>
      <trkpt lat="47.78872" lon="5.99822">
        <ele>216.60059</ele>
        <time>2026-05-17T08:40:32+02:00</time>
      </trkpt>
      <trkpt lat="47.78877" lon="5.99814">
        <ele>216.5</ele>
        <time>2026-05-17T08:40:33+02:00</time>
      </trkpt>
      <trkpt lat="47.78881" lon="5.99806">
        <ele>216.90039</ele>
        <time>2026-05-17T08:40:34+02:00</time>
      </trkpt>
      <trkpt lat="47.78885" lon="5.99798">
        <ele>216.90039</ele>
        <time>2026-05-17T08:40:35+02:00</time>
      </trkpt>
      <trkpt lat="47.78889" lon="5.99791">
        <ele>217</ele>
        <time>2026-05-17T08:40:36+02:00</time>
      </trkpt>
      <trkpt lat="47.78893" lon="5.99783">
        <ele>217.5</ele>
        <time>2026-05-17T08:40:37+02:00</time>
      </trkpt>
      <trkpt lat="47.78897" lon="5.99775">
        <ele>217.60059</ele>
        <time>2026-05-17T08:40:38+02:00</time>
      </trkpt>
      <trkpt lat="47.78901" lon="5.99768">
        <ele>217.2998</ele>
        <time>2026-05-17T08:40:39+02:00</time>
      </trkpt>
      <trkpt lat="47.78905" lon="5.9976">
        <ele>217.7002</ele>
        <time>2026-05-17T08:40:40+02:00</time>
      </trkpt>
      <trkpt lat="47.78909" lon="5.99753">
        <ele>217.90039</ele>
        <time>2026-05-17T08:40:41+02:00</time>
      </trkpt>
      <trkpt lat="47.78913" lon="5.99746">
        <ele>218.2002</ele>
        <time>2026-05-17T08:40:42+02:00</time>
      </trkpt>
      <trkpt lat="47.78917" lon="5.99739">
        <ele>218.7002</ele>
        <time>2026-05-17T08:40:43+02:00</time>
      </trkpt>
      <trkpt lat="47.78922" lon="5.99734">
        <ele>218.5</ele>
        <time>2026-05-17T08:40:44+02:00</time>
      </trkpt>
      <trkpt lat="47.78927" lon="5.99729">
        <ele>218.7998</ele>
        <time>2026-05-17T08:40:45+02:00</time>
      </trkpt>
      <trkpt lat="47.78932" lon="5.99726">
        <ele>218.60059</ele>
        <time>2026-05-17T08:40:46+02:00</time>
      </trkpt>
      <trkpt lat="47.78937" lon="5.99723">
        <ele>218.7998</ele>
        <time>2026-05-17T08:40:47+02:00</time>
      </trkpt>
      <trkpt lat="47.78942" lon="5.99721">
        <ele>218.7002</ele>
        <time>2026-05-17T08:40:48+02:00</time>
      </trkpt>
      <trkpt lat="47.78947" lon="5.9972">
        <ele>218.7002</ele>
        <time>2026-05-17T08:40:49+02:00</time>
      </trkpt>
      <trkpt lat="47.78953" lon="5.99718">
        <ele>218.60059</ele>
        <time>2026-05-17T08:40:50+02:00</time>
      </trkpt>
      <trkpt lat="47.78959" lon="5.99717">
        <ele>218.60059</ele>
        <time>2026-05-17T08:40:51+02:00</time>
      </trkpt>
      <trkpt lat="47.78965" lon="5.99715">
        <ele>219.10059</ele>
        <time>2026-05-17T08:40:52+02:00</time>
      </trkpt>
      <trkpt lat="47.78971" lon="5.99713">
        <ele>219.10059</ele>
        <time>2026-05-17T08:40:53+02:00</time>
      </trkpt>
      <trkpt lat="47.78978" lon="5.99711">
        <ele>219</ele>
        <time>2026-05-17T08:40:54+02:00</time>
      </trkpt>
      <trkpt lat="47.78985" lon="5.99708">
        <ele>218.90039</ele>
        <time>2026-05-17T08:40:55+02:00</time>
      </trkpt>
      <trkpt lat="47.78991" lon="5.99705">
        <ele>219.40039</ele>
        <time>2026-05-17T08:40:56+02:00</time>
      </trkpt>
      <trkpt lat="47.78999" lon="5.99702">
        <ele>219</ele>
        <time>2026-05-17T08:40:57+02:00</time>
      </trkpt>
      <trkpt lat="47.79006" lon="5.99699">
        <ele>219.2998</ele>
        <time>2026-05-17T08:40:58+02:00</time>
      </trkpt>
      <trkpt lat="47.79013" lon="5.99695">
        <ele>219</ele>
        <time>2026-05-17T08:40:59+02:00</time>
      </trkpt>
      <trkpt lat="47.79019" lon="5.99691">
        <ele>218.60059</ele>
        <time>2026-05-17T08:41:00+02:00</time>
      </trkpt>
      <trkpt lat="47.79026" lon="5.99687">
        <ele>218.7998</ele>
        <time>2026-05-17T08:41:01+02:00</time>
      </trkpt>
      <trkpt lat="47.79032" lon="5.99683">
        <ele>218.2998</ele>
        <time>2026-05-17T08:41:02+02:00</time>
      </trkpt>
      <trkpt lat="47.79039" lon="5.99679">
        <ele>217.7002</ele>
        <time>2026-05-17T08:41:03+02:00</time>
      </trkpt>
      <trkpt lat="47.79044" lon="5.99675">
        <ele>217.10059</ele>
        <time>2026-05-17T08:41:04+02:00</time>
      </trkpt>
      <trkpt lat="47.7905" lon="5.9967">
        <ele>217.10059</ele>
        <time>2026-05-17T08:41:05+02:00</time>
      </trkpt>
      <trkpt lat="47.79056" lon="5.99665">
        <ele>216.40039</ele>
        <time>2026-05-17T08:41:06+02:00</time>
      </trkpt>
      <trkpt lat="47.79061" lon="5.9966">
        <ele>216.90039</ele>
        <time>2026-05-17T08:41:07+02:00</time>
      </trkpt>
      <trkpt lat="47.79065" lon="5.99655">
        <ele>216.7002</ele>
        <time>2026-05-17T08:41:08+02:00</time>
      </trkpt>
      <trkpt lat="47.7907" lon="5.9965">
        <ele>215.7998</ele>
        <time>2026-05-17T08:41:09+02:00</time>
      </trkpt>
      <trkpt lat="47.79075" lon="5.99645">
        <ele>215.60059</ele>
        <time>2026-05-17T08:41:10+02:00</time>
      </trkpt>
      <trkpt lat="47.79081" lon="5.9964">
        <ele>214.7002</ele>
        <time>2026-05-17T08:41:11+02:00</time>
      </trkpt>
      <trkpt lat="47.79086" lon="5.99634">
        <ele>214.5</ele>
        <time>2026-05-17T08:41:12+02:00</time>
      </trkpt>
      <trkpt lat="47.79091" lon="5.99629">
        <ele>214.5</ele>
        <time>2026-05-17T08:41:13+02:00</time>
      </trkpt>
      <trkpt lat="47.79096" lon="5.99623">
        <ele>214.5</ele>
        <time>2026-05-17T08:41:14+02:00</time>
      </trkpt>
      <trkpt lat="47.79102" lon="5.99618">
        <ele>214.2002</ele>
        <time>2026-05-17T08:41:15+02:00</time>
      </trkpt>
      <trkpt lat="47.79107" lon="5.99612">
        <ele>215.2002</ele>
        <time>2026-05-17T08:41:16+02:00</time>
      </trkpt>
      <trkpt lat="47.79113" lon="5.99606">
        <ele>214.7002</ele>
        <time>2026-05-17T08:41:17+02:00</time>
      </trkpt>
      <trkpt lat="47.79118" lon="5.996">
        <ele>215.60059</ele>
        <time>2026-05-17T08:41:18+02:00</time>
      </trkpt>
      <trkpt lat="47.79123" lon="5.99595">
        <ele>216.60059</ele>
        <time>2026-05-17T08:41:19+02:00</time>
      </trkpt>
      <trkpt lat="47.79129" lon="5.99589">
        <ele>216.40039</ele>
        <time>2026-05-17T08:41:20+02:00</time>
      </trkpt>
      <trkpt lat="47.79135" lon="5.99584">
        <ele>217.2998</ele>
        <time>2026-05-17T08:41:21+02:00</time>
      </trkpt>
      <trkpt lat="47.7914" lon="5.99578">
        <ele>218.2998</ele>
        <time>2026-05-17T08:41:22+02:00</time>
      </trkpt>
      <trkpt lat="47.79145" lon="5.99573">
        <ele>217.90039</ele>
        <time>2026-05-17T08:41:23+02:00</time>
      </trkpt>
      <trkpt lat="47.79151" lon="5.99567">
        <ele>218.90039</ele>
        <time>2026-05-17T08:41:24+02:00</time>
      </trkpt>
      <trkpt lat="47.79156" lon="5.99562">
        <ele>218.2998</ele>
        <time>2026-05-17T08:41:25+02:00</time>
      </trkpt>
      <trkpt lat="47.79162" lon="5.99556">
        <ele>218.7998</ele>
        <time>2026-05-17T08:41:26+02:00</time>
      </trkpt>
      <trkpt lat="47.79167" lon="5.99551">
        <ele>219</ele>
        <time>2026-05-17T08:41:27+02:00</time>
      </trkpt>
      <trkpt lat="47.79172" lon="5.99545">
        <ele>218</ele>
        <time>2026-05-17T08:41:28+02:00</time>
      </trkpt>
      <trkpt lat="47.79177" lon="5.9954">
        <ele>217.7998</ele>
        <time>2026-05-17T08:41:29+02:00</time>
      </trkpt>
      <trkpt lat="47.79182" lon="5.99534">
        <ele>218.7002</ele>
        <time>2026-05-17T08:41:30+02:00</time>
      </trkpt>
      <trkpt lat="47.79188" lon="5.99528">
        <ele>216.2002</ele>
        <time>2026-05-17T08:41:31+02:00</time>
      </trkpt>
      <trkpt lat="47.79193" lon="5.99523">
        <ele>217.2002</ele>
        <time>2026-05-17T08:41:32+02:00</time>
      </trkpt>
      <trkpt lat="47.79198" lon="5.99517">
        <ele>217</ele>
        <time>2026-05-17T08:41:33+02:00</time>
      </trkpt>
      <trkpt lat="47.79203" lon="5.99512">
        <ele>215.90039</ele>
        <time>2026-05-17T08:41:34+02:00</time>
      </trkpt>
      <trkpt lat="47.79209" lon="5.99507">
        <ele>216</ele>
        <time>2026-05-17T08:41:35+02:00</time>
      </trkpt>
      <trkpt lat="47.79213" lon="5.99501">
        <ele>216.40039</ele>
        <time>2026-05-17T08:41:36+02:00</time>
      </trkpt>
      <trkpt lat="47.79218" lon="5.99496">
        <ele>215.5</ele>
        <time>2026-05-17T08:41:37+02:00</time>
      </trkpt>
      <trkpt lat="47.79224" lon="5.9949">
        <ele>216.2002</ele>
        <time>2026-05-17T08:41:38+02:00</time>
      </trkpt>
      <trkpt lat="47.79229" lon="5.99485">
        <ele>215.5</ele>
        <time>2026-05-17T08:41:39+02:00</time>
      </trkpt>
      <trkpt lat="47.79234" lon="5.9948">
        <ele>217.2002</ele>
        <time>2026-05-17T08:41:40+02:00</time>
      </trkpt>
      <trkpt lat="47.7924" lon="5.99474">
        <ele>218</ele>
        <time>2026-05-17T08:41:41+02:00</time>
      </trkpt>
      <trkpt lat="47.79245" lon="5.99469">
        <ele>218</ele>
        <time>2026-05-17T08:41:42+02:00</time>
      </trkpt>
      <trkpt lat="47.7925" lon="5.99463">
        <ele>219.60059</ele>
        <time>2026-05-17T08:41:43+02:00</time>
      </trkpt>
      <trkpt lat="47.79255" lon="5.99458">
        <ele>221.10059</ele>
        <time>2026-05-17T08:41:44+02:00</time>
      </trkpt>
      <trkpt lat="47.79261" lon="5.99452">
        <ele>220.7002</ele>
        <time>2026-05-17T08:41:45+02:00</time>
      </trkpt>
      <trkpt lat="47.79266" lon="5.99446">
        <ele>221.90039</ele>
        <time>2026-05-17T08:41:46+02:00</time>
      </trkpt>
      <trkpt lat="47.79271" lon="5.99441">
        <ele>222.7998</ele>
        <time>2026-05-17T08:41:47+02:00</time>
      </trkpt>
      <trkpt lat="47.79277" lon="5.99435">
        <ele>222.2002</ele>
        <time>2026-05-17T08:41:48+02:00</time>
      </trkpt>
      <trkpt lat="47.79282" lon="5.9943">
        <ele>222.90039</ele>
        <time>2026-05-17T08:41:49+02:00</time>
      </trkpt>
      <trkpt lat="47.79288" lon="5.99424">
        <ele>223.60059</ele>
        <time>2026-05-17T08:41:50+02:00</time>
      </trkpt>
      <trkpt lat="47.79294" lon="5.99419">
        <ele>222.90039</ele>
        <time>2026-05-17T08:41:51+02:00</time>
      </trkpt>
      <trkpt lat="47.79299" lon="5.99413">
        <ele>223.5</ele>
        <time>2026-05-17T08:41:52+02:00</time>
      </trkpt>
      <trkpt lat="47.79305" lon="5.99408">
        <ele>222.7998</ele>
        <time>2026-05-17T08:41:53+02:00</time>
      </trkpt>
      <trkpt lat="47.7931" lon="5.99402">
        <ele>223.40039</ele>
        <time>2026-05-17T08:41:54+02:00</time>
      </trkpt>
      <trkpt lat="47.79316" lon="5.99397">
        <ele>224.10059</ele>
        <time>2026-05-17T08:41:55+02:00</time>
      </trkpt>
      <trkpt lat="47.79322" lon="5.99392">
        <ele>223.40039</ele>
        <time>2026-05-17T08:41:56+02:00</time>
      </trkpt>
      <trkpt lat="47.79328" lon="5.99387">
        <ele>224.10059</ele>
        <time>2026-05-17T08:41:57+02:00</time>
      </trkpt>
      <trkpt lat="47.79333" lon="5.99382">
        <ele>223.40039</ele>
        <time>2026-05-17T08:41:58+02:00</time>
      </trkpt>
      <trkpt lat="47.79339" lon="5.99378">
        <ele>224.10059</ele>
        <time>2026-05-17T08:41:59+02:00</time>
      </trkpt>
      <trkpt lat="47.79345" lon="5.99373">
        <ele>223.40039</ele>
        <time>2026-05-17T08:42:00+02:00</time>
      </trkpt>
      <trkpt lat="47.79351" lon="5.99369">
        <ele>224</ele>
        <time>2026-05-17T08:42:01+02:00</time>
      </trkpt>
      <trkpt lat="47.79357" lon="5.99364">
        <ele>224.40039</ele>
        <time>2026-05-17T08:42:02+02:00</time>
      </trkpt>
      <trkpt lat="47.79363" lon="5.99359">
        <ele>223.5</ele>
        <time>2026-05-17T08:42:03+02:00</time>
      </trkpt>
      <trkpt lat="47.79369" lon="5.99355">
        <ele>223.7002</ele>
        <time>2026-05-17T08:42:04+02:00</time>
      </trkpt>
      <trkpt lat="47.79374" lon="5.99351">
        <ele>222.7998</ele>
        <time>2026-05-17T08:42:05+02:00</time>
      </trkpt>
      <trkpt lat="47.79381" lon="5.99347">
        <ele>222.90039</ele>
        <time>2026-05-17T08:42:06+02:00</time>
      </trkpt>
      <trkpt lat="47.79387" lon="5.99343">
        <ele>222</ele>
        <time>2026-05-17T08:42:07+02:00</time>
      </trkpt>
      <trkpt lat="47.79393" lon="5.99339">
        <ele>221.2998</ele>
        <time>2026-05-17T08:42:08+02:00</time>
      </trkpt>
      <trkpt lat="47.79398" lon="5.99334">
        <ele>221.40039</ele>
        <time>2026-05-17T08:42:09+02:00</time>
      </trkpt>
      <trkpt lat="47.79405" lon="5.9933">
        <ele>220.60059</ele>
        <time>2026-05-17T08:42:10+02:00</time>
      </trkpt>
      <trkpt lat="47.7941" lon="5.99325">
        <ele>220.7998</ele>
        <time>2026-05-17T08:42:11+02:00</time>
      </trkpt>
      <trkpt lat="47.79416" lon="5.99321">
        <ele>221</ele>
        <time>2026-05-17T08:42:12+02:00</time>
      </trkpt>
      <trkpt lat="47.79423" lon="5.99316">
        <ele>220.2002</ele>
        <time>2026-05-17T08:42:13+02:00</time>
      </trkpt>
      <trkpt lat="47.79429" lon="5.99312">
        <ele>220.40039</ele>
        <time>2026-05-17T08:42:14+02:00</time>
      </trkpt>
      <trkpt lat="47.79435" lon="5.99308">
        <ele>219.5</ele>
        <time>2026-05-17T08:42:15+02:00</time>
      </trkpt>
      <trkpt lat="47.79442" lon="5.99303">
        <ele>218.7002</ele>
        <time>2026-05-17T08:42:16+02:00</time>
      </trkpt>
      <trkpt lat="47.79448" lon="5.99299">
        <ele>218</ele>
        <time>2026-05-17T08:42:17+02:00</time>
      </trkpt>
      <trkpt lat="47.79453" lon="5.99294">
        <ele>219</ele>
        <time>2026-05-17T08:42:18+02:00</time>
      </trkpt>
      <trkpt lat="47.7946" lon="5.9929">
        <ele>217.7002</ele>
        <time>2026-05-17T08:42:19+02:00</time>
      </trkpt>
      <trkpt lat="47.79466" lon="5.99285">
        <ele>218.10059</ele>
        <time>2026-05-17T08:42:20+02:00</time>
      </trkpt>
      <trkpt lat="47.79472" lon="5.99281">
        <ele>217.2998</ele>
        <time>2026-05-17T08:42:21+02:00</time>
      </trkpt>
      <trkpt lat="47.79478" lon="5.99277">
        <ele>217.60059</ele>
        <time>2026-05-17T08:42:22+02:00</time>
      </trkpt>
      <trkpt lat="47.79484" lon="5.99272">
        <ele>216.7002</ele>
        <time>2026-05-17T08:42:23+02:00</time>
      </trkpt>
      <trkpt lat="47.7949" lon="5.99268">
        <ele>217.2002</ele>
        <time>2026-05-17T08:42:24+02:00</time>
      </trkpt>
      <trkpt lat="47.79496" lon="5.99264">
        <ele>216.60059</ele>
        <time>2026-05-17T08:42:25+02:00</time>
      </trkpt>
      <trkpt lat="47.79502" lon="5.99259">
        <ele>216.90039</ele>
        <time>2026-05-17T08:42:26+02:00</time>
      </trkpt>
      <trkpt lat="47.79508" lon="5.99254">
        <ele>216.2002</ele>
        <time>2026-05-17T08:42:27+02:00</time>
      </trkpt>
      <trkpt lat="47.79514" lon="5.9925">
        <ele>216.5</ele>
        <time>2026-05-17T08:42:28+02:00</time>
      </trkpt>
      <trkpt lat="47.7952" lon="5.99245">
        <ele>215.7002</ele>
        <time>2026-05-17T08:42:29+02:00</time>
      </trkpt>
      <trkpt lat="47.79526" lon="5.99241">
        <ele>216.10059</ele>
        <time>2026-05-17T08:42:30+02:00</time>
      </trkpt>
      <trkpt lat="47.79532" lon="5.99236">
        <ele>215.2998</ele>
        <time>2026-05-17T08:42:31+02:00</time>
      </trkpt>
      <trkpt lat="47.79538" lon="5.99232">
        <ele>215.7998</ele>
        <time>2026-05-17T08:42:32+02:00</time>
      </trkpt>
      <trkpt lat="47.79545" lon="5.99228">
        <ele>215.10059</ele>
        <time>2026-05-17T08:42:33+02:00</time>
      </trkpt>
      <trkpt lat="47.7955" lon="5.99223">
        <ele>215.10059</ele>
        <time>2026-05-17T08:42:34+02:00</time>
      </trkpt>
      <trkpt lat="47.79556" lon="5.99219">
        <ele>214.2002</ele>
        <time>2026-05-17T08:42:35+02:00</time>
      </trkpt>
      <trkpt lat="47.79563" lon="5.99215">
        <ele>212.90039</ele>
        <time>2026-05-17T08:42:36+02:00</time>
      </trkpt>
      <trkpt lat="47.79569" lon="5.99211">
        <ele>212</ele>
        <time>2026-05-17T08:42:37+02:00</time>
      </trkpt>
      <trkpt lat="47.79575" lon="5.99207">
        <ele>212.60059</ele>
        <time>2026-05-17T08:42:38+02:00</time>
      </trkpt>
      <trkpt lat="47.7958" lon="5.99202">
        <ele>212.60059</ele>
        <time>2026-05-17T08:42:39+02:00</time>
      </trkpt>
      <trkpt lat="47.79587" lon="5.99197">
        <ele>212.90039</ele>
        <time>2026-05-17T08:42:40+02:00</time>
      </trkpt>
      <trkpt lat="47.79592" lon="5.99193">
        <ele>212.60059</ele>
        <time>2026-05-17T08:42:41+02:00</time>
      </trkpt>
      <trkpt lat="47.79598" lon="5.99189">
        <ele>212.2998</ele>
        <time>2026-05-17T08:42:42+02:00</time>
      </trkpt>
      <trkpt lat="47.79604" lon="5.99184">
        <ele>212.40039</ele>
        <time>2026-05-17T08:42:43+02:00</time>
      </trkpt>
      <trkpt lat="47.79611" lon="5.9918">
        <ele>212.2002</ele>
        <time>2026-05-17T08:42:44+02:00</time>
      </trkpt>
      <trkpt lat="47.79617" lon="5.99175">
        <ele>213</ele>
        <time>2026-05-17T08:42:45+02:00</time>
      </trkpt>
      <trkpt lat="47.79623" lon="5.99171">
        <ele>212.90039</ele>
        <time>2026-05-17T08:42:46+02:00</time>
      </trkpt>
      <trkpt lat="47.79629" lon="5.99167">
        <ele>213</ele>
        <time>2026-05-17T08:42:47+02:00</time>
      </trkpt>
      <trkpt lat="47.79635" lon="5.99162">
        <ele>213.7002</ele>
        <time>2026-05-17T08:42:48+02:00</time>
      </trkpt>
      <trkpt lat="47.79641" lon="5.99158">
        <ele>214</ele>
        <time>2026-05-17T08:42:49+02:00</time>
      </trkpt>
      <trkpt lat="47.79648" lon="5.99153">
        <ele>213.5</ele>
        <time>2026-05-17T08:42:50+02:00</time>
      </trkpt>
      <trkpt lat="47.79654" lon="5.99149">
        <ele>213.60059</ele>
        <time>2026-05-17T08:42:51+02:00</time>
      </trkpt>
      <trkpt lat="47.7966" lon="5.99145">
        <ele>213.2002</ele>
        <time>2026-05-17T08:42:52+02:00</time>
      </trkpt>
      <trkpt lat="47.79667" lon="5.9914">
        <ele>213.7002</ele>
        <time>2026-05-17T08:42:53+02:00</time>
      </trkpt>
      <trkpt lat="47.79673" lon="5.99136">
        <ele>213.7002</ele>
        <time>2026-05-17T08:42:54+02:00</time>
      </trkpt>
      <trkpt lat="47.79679" lon="5.99131">
        <ele>214.2998</ele>
        <time>2026-05-17T08:42:55+02:00</time>
      </trkpt>
      <trkpt lat="47.79685" lon="5.99127">
        <ele>213.90039</ele>
        <time>2026-05-17T08:42:56+02:00</time>
      </trkpt>
      <trkpt lat="47.79692" lon="5.99122">
        <ele>214.2002</ele>
        <time>2026-05-17T08:42:57+02:00</time>
      </trkpt>
      <trkpt lat="47.79698" lon="5.99117">
        <ele>213.7998</ele>
        <time>2026-05-17T08:42:58+02:00</time>
      </trkpt>
      <trkpt lat="47.79704" lon="5.99113">
        <ele>214.10059</ele>
        <time>2026-05-17T08:42:59+02:00</time>
      </trkpt>
      <trkpt lat="47.79711" lon="5.99108">
        <ele>213.7002</ele>
        <time>2026-05-17T08:43:00+02:00</time>
      </trkpt>
      <trkpt lat="47.79717" lon="5.99103">
        <ele>214</ele>
        <time>2026-05-17T08:43:01+02:00</time>
      </trkpt>
      <trkpt lat="47.79723" lon="5.99099">
        <ele>213.60059</ele>
        <time>2026-05-17T08:43:02+02:00</time>
      </trkpt>
      <trkpt lat="47.7973" lon="5.99094">
        <ele>213.7002</ele>
        <time>2026-05-17T08:43:03+02:00</time>
      </trkpt>
      <trkpt lat="47.79736" lon="5.9909">
        <ele>213.10059</ele>
        <time>2026-05-17T08:43:04+02:00</time>
      </trkpt>
      <trkpt lat="47.79743" lon="5.99085">
        <ele>213.5</ele>
        <time>2026-05-17T08:43:05+02:00</time>
      </trkpt>
      <trkpt lat="47.79749" lon="5.99081">
        <ele>214.10059</ele>
        <time>2026-05-17T08:43:06+02:00</time>
      </trkpt>
      <trkpt lat="47.79756" lon="5.99076">
        <ele>213.7998</ele>
        <time>2026-05-17T08:43:07+02:00</time>
      </trkpt>
      <trkpt lat="47.79762" lon="5.99072">
        <ele>214.2998</ele>
        <time>2026-05-17T08:43:08+02:00</time>
      </trkpt>
      <trkpt lat="47.79768" lon="5.99067">
        <ele>213.90039</ele>
        <time>2026-05-17T08:43:09+02:00</time>
      </trkpt>
      <trkpt lat="47.79775" lon="5.99062">
        <ele>214.40039</ele>
        <time>2026-05-17T08:43:10+02:00</time>
      </trkpt>
      <trkpt lat="47.79781" lon="5.99058">
        <ele>214</ele>
        <time>2026-05-17T08:43:11+02:00</time>
      </trkpt>
      <trkpt lat="47.79788" lon="5.99053">
        <ele>214</ele>
        <time>2026-05-17T08:43:12+02:00</time>
      </trkpt>
      <trkpt lat="47.79794" lon="5.99049">
        <ele>213.5</ele>
        <time>2026-05-17T08:43:13+02:00</time>
      </trkpt>
      <trkpt lat="47.798" lon="5.99044">
        <ele>213.7998</ele>
        <time>2026-05-17T08:43:14+02:00</time>
      </trkpt>
      <trkpt lat="47.79806" lon="5.99039">
        <ele>213.2998</ele>
        <time>2026-05-17T08:43:15+02:00</time>
      </trkpt>
      <trkpt lat="47.79813" lon="5.99035">
        <ele>213.7998</ele>
        <time>2026-05-17T08:43:16+02:00</time>
      </trkpt>
      <trkpt lat="47.79819" lon="5.9903">
        <ele>213.40039</ele>
        <time>2026-05-17T08:43:17+02:00</time>
      </trkpt>
      <trkpt lat="47.79825" lon="5.99026">
        <ele>213.90039</ele>
        <time>2026-05-17T08:43:18+02:00</time>
      </trkpt>
      <trkpt lat="47.79831" lon="5.99021">
        <ele>213.40039</ele>
        <time>2026-05-17T08:43:19+02:00</time>
      </trkpt>
      <trkpt lat="47.79838" lon="5.99016">
        <ele>213.7002</ele>
        <time>2026-05-17T08:43:20+02:00</time>
      </trkpt>
      <trkpt lat="47.79844" lon="5.99011">
        <ele>213.90039</ele>
        <time>2026-05-17T08:43:21+02:00</time>
      </trkpt>
      <trkpt lat="47.79851" lon="5.99006">
        <ele>213.2998</ele>
        <time>2026-05-17T08:43:22+02:00</time>
      </trkpt>
      <trkpt lat="47.79857" lon="5.99001">
        <ele>213.7998</ele>
        <time>2026-05-17T08:43:23+02:00</time>
      </trkpt>
      <trkpt lat="47.79863" lon="5.98996">
        <ele>212.90039</ele>
        <time>2026-05-17T08:43:24+02:00</time>
      </trkpt>
      <trkpt lat="47.7987" lon="5.9899">
        <ele>213.2998</ele>
        <time>2026-05-17T08:43:25+02:00</time>
      </trkpt>
      <trkpt lat="47.79875" lon="5.98984">
        <ele>213.60059</ele>
        <time>2026-05-17T08:43:26+02:00</time>
      </trkpt>
      <trkpt lat="47.79881" lon="5.98978">
        <ele>213.90039</ele>
        <time>2026-05-17T08:43:27+02:00</time>
      </trkpt>
      <trkpt lat="47.79887" lon="5.98973">
        <ele>213.2002</ele>
        <time>2026-05-17T08:43:28+02:00</time>
      </trkpt>
      <trkpt lat="47.79893" lon="5.98967">
        <ele>213.40039</ele>
        <time>2026-05-17T08:43:29+02:00</time>
      </trkpt>
      <trkpt lat="47.79899" lon="5.98961">
        <ele>212.7998</ele>
        <time>2026-05-17T08:43:30+02:00</time>
      </trkpt>
      <trkpt lat="47.79904" lon="5.98955">
        <ele>213</ele>
        <time>2026-05-17T08:43:31+02:00</time>
      </trkpt>
      <trkpt lat="47.7991" lon="5.98949">
        <ele>213</ele>
        <time>2026-05-17T08:43:32+02:00</time>
      </trkpt>
      <trkpt lat="47.79915" lon="5.98943">
        <ele>213.10059</ele>
        <time>2026-05-17T08:43:33+02:00</time>
      </trkpt>
      <trkpt lat="47.79921" lon="5.98937">
        <ele>212.2998</ele>
        <time>2026-05-17T08:43:34+02:00</time>
      </trkpt>
      <trkpt lat="47.79926" lon="5.98931">
        <ele>213.40039</ele>
        <time>2026-05-17T08:43:35+02:00</time>
      </trkpt>
      <trkpt lat="47.79932" lon="5.98925">
        <ele>212.60059</ele>
        <time>2026-05-17T08:43:36+02:00</time>
      </trkpt>
      <trkpt lat="47.79937" lon="5.98919">
        <ele>212.60059</ele>
        <time>2026-05-17T08:43:37+02:00</time>
      </trkpt>
      <trkpt lat="47.79943" lon="5.98913">
        <ele>212.2998</ele>
        <time>2026-05-17T08:43:38+02:00</time>
      </trkpt>
      <trkpt lat="47.79948" lon="5.98907">
        <ele>212.7002</ele>
        <time>2026-05-17T08:43:39+02:00</time>
      </trkpt>
      <trkpt lat="47.79953" lon="5.98901">
        <ele>212.2002</ele>
        <time>2026-05-17T08:43:40+02:00</time>
      </trkpt>
      <trkpt lat="47.79958" lon="5.98895">
        <ele>213.2998</ele>
        <time>2026-05-17T08:43:41+02:00</time>
      </trkpt>
      <trkpt lat="47.79964" lon="5.98889">
        <ele>214.2002</ele>
        <time>2026-05-17T08:43:42+02:00</time>
      </trkpt>
      <trkpt lat="47.79969" lon="5.98883">
        <ele>214.60059</ele>
        <time>2026-05-17T08:43:43+02:00</time>
      </trkpt>
      <trkpt lat="47.79974" lon="5.98877">
        <ele>213.5</ele>
        <time>2026-05-17T08:43:44+02:00</time>
      </trkpt>
      <trkpt lat="47.7998" lon="5.98872">
        <ele>213.5</ele>
        <time>2026-05-17T08:43:45+02:00</time>
      </trkpt>
      <trkpt lat="47.79985" lon="5.98866">
        <ele>213.7998</ele>
        <time>2026-05-17T08:43:46+02:00</time>
      </trkpt>
      <trkpt lat="47.79991" lon="5.9886">
        <ele>212.7998</ele>
        <time>2026-05-17T08:43:47+02:00</time>
      </trkpt>
      <trkpt lat="47.79996" lon="5.98854">
        <ele>212.7998</ele>
        <time>2026-05-17T08:43:48+02:00</time>
      </trkpt>
      <trkpt lat="47.80002" lon="5.98848">
        <ele>212.40039</ele>
        <time>2026-05-17T08:43:49+02:00</time>
      </trkpt>
      <trkpt lat="47.80007" lon="5.98842">
        <ele>211.40039</ele>
        <time>2026-05-17T08:43:50+02:00</time>
      </trkpt>
      <trkpt lat="47.80012" lon="5.98835">
        <ele>212.2002</ele>
        <time>2026-05-17T08:43:51+02:00</time>
      </trkpt>
      <trkpt lat="47.80018" lon="5.98829">
        <ele>212.5</ele>
        <time>2026-05-17T08:43:52+02:00</time>
      </trkpt>
      <trkpt lat="47.80023" lon="5.98823">
        <ele>212.60059</ele>
        <time>2026-05-17T08:43:53+02:00</time>
      </trkpt>
      <trkpt lat="47.80029" lon="5.98817">
        <ele>211.5</ele>
        <time>2026-05-17T08:43:54+02:00</time>
      </trkpt>
      <trkpt lat="47.80035" lon="5.98811">
        <ele>211.10059</ele>
        <time>2026-05-17T08:43:55+02:00</time>
      </trkpt>
      <trkpt lat="47.8004" lon="5.98805">
        <ele>211.5</ele>
        <time>2026-05-17T08:43:56+02:00</time>
      </trkpt>
      <trkpt lat="47.80046" lon="5.98799">
        <ele>211.2998</ele>
        <time>2026-05-17T08:43:57+02:00</time>
      </trkpt>
      <trkpt lat="47.80052" lon="5.98792">
        <ele>212.5</ele>
        <time>2026-05-17T08:43:58+02:00</time>
      </trkpt>
      <trkpt lat="47.80057" lon="5.98786">
        <ele>213</ele>
        <time>2026-05-17T08:43:59+02:00</time>
      </trkpt>
      <trkpt lat="47.80062" lon="5.98779">
        <ele>213.10059</ele>
        <time>2026-05-17T08:44:00+02:00</time>
      </trkpt>
      <trkpt lat="47.80068" lon="5.98773">
        <ele>212.10059</ele>
        <time>2026-05-17T08:44:01+02:00</time>
      </trkpt>
      <trkpt lat="47.80074" lon="5.98767">
        <ele>212</ele>
        <time>2026-05-17T08:44:02+02:00</time>
      </trkpt>
      <trkpt lat="47.80079" lon="5.98761">
        <ele>212.2002</ele>
        <time>2026-05-17T08:44:03+02:00</time>
      </trkpt>
      <trkpt lat="47.80085" lon="5.98754">
        <ele>212.2998</ele>
        <time>2026-05-17T08:44:04+02:00</time>
      </trkpt>
      <trkpt lat="47.8009" lon="5.98748">
        <ele>211.5</ele>
        <time>2026-05-17T08:44:05+02:00</time>
      </trkpt>
      <trkpt lat="47.80096" lon="5.98742">
        <ele>211.2002</ele>
        <time>2026-05-17T08:44:06+02:00</time>
      </trkpt>
      <trkpt lat="47.80101" lon="5.98735">
        <ele>211.10059</ele>
        <time>2026-05-17T08:44:07+02:00</time>
      </trkpt>
      <trkpt lat="47.80107" lon="5.98729">
        <ele>211.2998</ele>
        <time>2026-05-17T08:44:08+02:00</time>
      </trkpt>
      <trkpt lat="47.80112" lon="5.98723">
        <ele>210.90039</ele>
        <time>2026-05-17T08:44:09+02:00</time>
      </trkpt>
      <trkpt lat="47.80118" lon="5.98718">
        <ele>210.60059</ele>
        <time>2026-05-17T08:44:10+02:00</time>
      </trkpt>
      <trkpt lat="47.80123" lon="5.98712">
        <ele>210.60059</ele>
        <time>2026-05-17T08:44:11+02:00</time>
      </trkpt>
      <trkpt lat="47.80128" lon="5.98706">
        <ele>210.7998</ele>
        <time>2026-05-17T08:44:12+02:00</time>
      </trkpt>
      <trkpt lat="47.80133" lon="5.98701">
        <ele>211.2002</ele>
        <time>2026-05-17T08:44:13+02:00</time>
      </trkpt>
      <trkpt lat="47.80139" lon="5.98695">
        <ele>211.2002</ele>
        <time>2026-05-17T08:44:14+02:00</time>
      </trkpt>
      <trkpt lat="47.80144" lon="5.98689">
        <ele>211.7998</ele>
        <time>2026-05-17T08:44:15+02:00</time>
      </trkpt>
      <trkpt lat="47.8015" lon="5.98683">
        <ele>212</ele>
        <time>2026-05-17T08:44:16+02:00</time>
      </trkpt>
      <trkpt lat="47.80155" lon="5.98677">
        <ele>211.90039</ele>
        <time>2026-05-17T08:44:17+02:00</time>
      </trkpt>
      <trkpt lat="47.80161" lon="5.9867">
        <ele>211.10059</ele>
        <time>2026-05-17T08:44:18+02:00</time>
      </trkpt>
      <trkpt lat="47.80167" lon="5.98664">
        <ele>211.10059</ele>
        <time>2026-05-17T08:44:19+02:00</time>
      </trkpt>
      <trkpt lat="47.80172" lon="5.98658">
        <ele>211.10059</ele>
        <time>2026-05-17T08:44:20+02:00</time>
      </trkpt>
      <trkpt lat="47.80178" lon="5.98651">
        <ele>211.2002</ele>
        <time>2026-05-17T08:44:21+02:00</time>
      </trkpt>
      <trkpt lat="47.80184" lon="5.98645">
        <ele>210.7002</ele>
        <time>2026-05-17T08:44:22+02:00</time>
      </trkpt>
      <trkpt lat="47.80189" lon="5.98638">
        <ele>210.7002</ele>
        <time>2026-05-17T08:44:23+02:00</time>
      </trkpt>
      <trkpt lat="47.80195" lon="5.98632">
        <ele>210.90039</ele>
        <time>2026-05-17T08:44:24+02:00</time>
      </trkpt>
      <trkpt lat="47.802" lon="5.98625">
        <ele>211.60059</ele>
        <time>2026-05-17T08:44:25+02:00</time>
      </trkpt>
      <trkpt lat="47.80206" lon="5.98619">
        <ele>211.60059</ele>
        <time>2026-05-17T08:44:26+02:00</time>
      </trkpt>
      <trkpt lat="47.80212" lon="5.98613">
        <ele>211.90039</ele>
        <time>2026-05-17T08:44:27+02:00</time>
      </trkpt>
      <trkpt lat="47.80217" lon="5.98607">
        <ele>211.90039</ele>
        <time>2026-05-17T08:44:28+02:00</time>
      </trkpt>
      <trkpt lat="47.80222" lon="5.98601">
        <ele>211.10059</ele>
        <time>2026-05-17T08:44:29+02:00</time>
      </trkpt>
      <trkpt lat="47.80228" lon="5.98595">
        <ele>211.10059</ele>
        <time>2026-05-17T08:44:30+02:00</time>
      </trkpt>
      <trkpt lat="47.80234" lon="5.98589">
        <ele>211.5</ele>
        <time>2026-05-17T08:44:31+02:00</time>
      </trkpt>
      <trkpt lat="47.80239" lon="5.98583">
        <ele>212.5</ele>
        <time>2026-05-17T08:44:32+02:00</time>
      </trkpt>
      <trkpt lat="47.80245" lon="5.98577">
        <ele>212.10059</ele>
        <time>2026-05-17T08:44:33+02:00</time>
      </trkpt>
      <trkpt lat="47.8025" lon="5.98571">
        <ele>212.5</ele>
        <time>2026-05-17T08:44:34+02:00</time>
      </trkpt>
      <trkpt lat="47.80256" lon="5.98564">
        <ele>212.5</ele>
        <time>2026-05-17T08:44:35+02:00</time>
      </trkpt>
      <trkpt lat="47.80262" lon="5.98558">
        <ele>211.7998</ele>
        <time>2026-05-17T08:44:36+02:00</time>
      </trkpt>
      <trkpt lat="47.80267" lon="5.98552">
        <ele>211.60059</ele>
        <time>2026-05-17T08:44:37+02:00</time>
      </trkpt>
      <trkpt lat="47.80273" lon="5.98546">
        <ele>211.7998</ele>
        <time>2026-05-17T08:44:38+02:00</time>
      </trkpt>
      <trkpt lat="47.80279" lon="5.98539">
        <ele>212</ele>
        <time>2026-05-17T08:44:39+02:00</time>
      </trkpt>
      <trkpt lat="47.80284" lon="5.98533">
        <ele>211.2002</ele>
        <time>2026-05-17T08:44:40+02:00</time>
      </trkpt>
      <trkpt lat="47.8029" lon="5.98527">
        <ele>211</ele>
        <time>2026-05-17T08:44:41+02:00</time>
      </trkpt>
      <trkpt lat="47.80295" lon="5.9852">
        <ele>211</ele>
        <time>2026-05-17T08:44:42+02:00</time>
      </trkpt>
      <trkpt lat="47.803" lon="5.98514">
        <ele>212.2002</ele>
        <time>2026-05-17T08:44:43+02:00</time>
      </trkpt>
      <trkpt lat="47.80305" lon="5.98508">
        <ele>212</ele>
        <time>2026-05-17T08:44:44+02:00</time>
      </trkpt>
      <trkpt lat="47.80311" lon="5.98502">
        <ele>212.7998</ele>
        <time>2026-05-17T08:44:45+02:00</time>
      </trkpt>
      <trkpt lat="47.80317" lon="5.98496">
        <ele>213.2002</ele>
        <time>2026-05-17T08:44:46+02:00</time>
      </trkpt>
      <trkpt lat="47.80322" lon="5.98491">
        <ele>212.40039</ele>
        <time>2026-05-17T08:44:47+02:00</time>
      </trkpt>
      <trkpt lat="47.80328" lon="5.98485">
        <ele>212.2998</ele>
        <time>2026-05-17T08:44:48+02:00</time>
      </trkpt>
      <trkpt lat="47.80333" lon="5.98479">
        <ele>212.2998</ele>
        <time>2026-05-17T08:44:49+02:00</time>
      </trkpt>
      <trkpt lat="47.80339" lon="5.98473">
        <ele>211.60059</ele>
        <time>2026-05-17T08:44:50+02:00</time>
      </trkpt>
      <trkpt lat="47.80344" lon="5.98467">
        <ele>211.7998</ele>
        <time>2026-05-17T08:44:51+02:00</time>
      </trkpt>
      <trkpt lat="47.80349" lon="5.98462">
        <ele>211.7002</ele>
        <time>2026-05-17T08:44:52+02:00</time>
      </trkpt>
      <trkpt lat="47.80355" lon="5.98456">
        <ele>211</ele>
        <time>2026-05-17T08:44:53+02:00</time>
      </trkpt>
      <trkpt lat="47.80361" lon="5.9845">
        <ele>211.10059</ele>
        <time>2026-05-17T08:44:54+02:00</time>
      </trkpt>
      <trkpt lat="47.80366" lon="5.98443">
        <ele>211.60059</ele>
        <time>2026-05-17T08:44:55+02:00</time>
      </trkpt>
      <trkpt lat="47.80372" lon="5.98437">
        <ele>212.2998</ele>
        <time>2026-05-17T08:44:56+02:00</time>
      </trkpt>
      <trkpt lat="47.80377" lon="5.98431">
        <ele>212</ele>
        <time>2026-05-17T08:44:57+02:00</time>
      </trkpt>
      <trkpt lat="47.80383" lon="5.98425">
        <ele>212.2002</ele>
        <time>2026-05-17T08:44:58+02:00</time>
      </trkpt>
      <trkpt lat="47.80388" lon="5.98419">
        <ele>212.10059</ele>
        <time>2026-05-17T08:44:59+02:00</time>
      </trkpt>
      <trkpt lat="47.80394" lon="5.98413">
        <ele>211.5</ele>
        <time>2026-05-17T08:45:00+02:00</time>
      </trkpt>
      <trkpt lat="47.80399" lon="5.98407">
        <ele>211.40039</ele>
        <time>2026-05-17T08:45:01+02:00</time>
      </trkpt>
      <trkpt lat="47.80404" lon="5.98401">
        <ele>212.10059</ele>
        <time>2026-05-17T08:45:02+02:00</time>
      </trkpt>
      <trkpt lat="47.80409" lon="5.98395">
        <ele>211.60059</ele>
        <time>2026-05-17T08:45:03+02:00</time>
      </trkpt>
      <trkpt lat="47.80414" lon="5.98389">
        <ele>211.60059</ele>
        <time>2026-05-17T08:45:04+02:00</time>
      </trkpt>
      <trkpt lat="47.80419" lon="5.98382">
        <ele>211.40039</ele>
        <time>2026-05-17T08:45:05+02:00</time>
      </trkpt>
      <trkpt lat="47.80424" lon="5.98375">
        <ele>211.2002</ele>
        <time>2026-05-17T08:45:06+02:00</time>
      </trkpt>
      <trkpt lat="47.80428" lon="5.98368">
        <ele>211.40039</ele>
        <time>2026-05-17T08:45:07+02:00</time>
      </trkpt>
      <trkpt lat="47.80433" lon="5.98362">
        <ele>211.40039</ele>
        <time>2026-05-17T08:45:08+02:00</time>
      </trkpt>
      <trkpt lat="47.80438" lon="5.98355">
        <ele>211.40039</ele>
        <time>2026-05-17T08:45:09+02:00</time>
      </trkpt>
      <trkpt lat="47.80443" lon="5.98348">
        <ele>211.2002</ele>
        <time>2026-05-17T08:45:10+02:00</time>
      </trkpt>
      <trkpt lat="47.80447" lon="5.98341">
        <ele>211.2998</ele>
        <time>2026-05-17T08:45:11+02:00</time>
      </trkpt>
      <trkpt lat="47.80451" lon="5.98334">
        <ele>211.7002</ele>
        <time>2026-05-17T08:45:12+02:00</time>
      </trkpt>
      <trkpt lat="47.80455" lon="5.98327">
        <ele>211.7002</ele>
        <time>2026-05-17T08:45:13+02:00</time>
      </trkpt>
      <trkpt lat="47.80459" lon="5.98319">
        <ele>212</ele>
        <time>2026-05-17T08:45:14+02:00</time>
      </trkpt>
      <trkpt lat="47.80463" lon="5.98311">
        <ele>212.10059</ele>
        <time>2026-05-17T08:45:15+02:00</time>
      </trkpt>
      <trkpt lat="47.80467" lon="5.98304">
        <ele>212.5</ele>
        <time>2026-05-17T08:45:16+02:00</time>
      </trkpt>
      <trkpt lat="47.8047" lon="5.98295">
        <ele>212.5</ele>
        <time>2026-05-17T08:45:17+02:00</time>
      </trkpt>
      <trkpt lat="47.80473" lon="5.98287">
        <ele>213.10059</ele>
        <time>2026-05-17T08:45:18+02:00</time>
      </trkpt>
      <trkpt lat="47.80477" lon="5.98279">
        <ele>213.2002</ele>
        <time>2026-05-17T08:45:19+02:00</time>
      </trkpt>
      <trkpt lat="47.8048" lon="5.98271">
        <ele>213.2002</ele>
        <time>2026-05-17T08:45:20+02:00</time>
      </trkpt>
      <trkpt lat="47.80483" lon="5.98263">
        <ele>213.7002</ele>
        <time>2026-05-17T08:45:21+02:00</time>
      </trkpt>
      <trkpt lat="47.80486" lon="5.98255">
        <ele>213.60059</ele>
        <time>2026-05-17T08:45:22+02:00</time>
      </trkpt>
      <trkpt lat="47.80489" lon="5.98247">
        <ele>214.2002</ele>
        <time>2026-05-17T08:45:23+02:00</time>
      </trkpt>
      <trkpt lat="47.80492" lon="5.98239">
        <ele>214.2002</ele>
        <time>2026-05-17T08:45:24+02:00</time>
      </trkpt>
      <trkpt lat="47.80495" lon="5.9823">
        <ele>215.10059</ele>
        <time>2026-05-17T08:45:25+02:00</time>
      </trkpt>
      <trkpt lat="47.80498" lon="5.98222">
        <ele>214.7998</ele>
        <time>2026-05-17T08:45:26+02:00</time>
      </trkpt>
      <trkpt lat="47.80501" lon="5.98214">
        <ele>215.5</ele>
        <time>2026-05-17T08:45:27+02:00</time>
      </trkpt>
      <trkpt lat="47.80504" lon="5.98206">
        <ele>214.2998</ele>
        <time>2026-05-17T08:45:28+02:00</time>
      </trkpt>
      <trkpt lat="47.80507" lon="5.98198">
        <ele>214.7998</ele>
        <time>2026-05-17T08:45:29+02:00</time>
      </trkpt>
      <trkpt lat="47.8051" lon="5.9819">
        <ele>214.2998</ele>
        <time>2026-05-17T08:45:30+02:00</time>
      </trkpt>
      <trkpt lat="47.80512" lon="5.98182">
        <ele>215.10059</ele>
        <time>2026-05-17T08:45:31+02:00</time>
      </trkpt>
      <trkpt lat="47.80515" lon="5.98174">
        <ele>215</ele>
        <time>2026-05-17T08:45:32+02:00</time>
      </trkpt>
      <trkpt lat="47.80518" lon="5.98166">
        <ele>216</ele>
        <time>2026-05-17T08:45:33+02:00</time>
      </trkpt>
      <trkpt lat="47.80521" lon="5.98157">
        <ele>215.7998</ele>
        <time>2026-05-17T08:45:34+02:00</time>
      </trkpt>
      <trkpt lat="47.80523" lon="5.98148">
        <ele>216.60059</ele>
        <time>2026-05-17T08:45:35+02:00</time>
      </trkpt>
      <trkpt lat="47.80526" lon="5.9814">
        <ele>216.2998</ele>
        <time>2026-05-17T08:45:36+02:00</time>
      </trkpt>
      <trkpt lat="47.80529" lon="5.98131">
        <ele>217.2002</ele>
        <time>2026-05-17T08:45:37+02:00</time>
      </trkpt>
      <trkpt lat="47.80531" lon="5.98123">
        <ele>218.10059</ele>
        <time>2026-05-17T08:45:38+02:00</time>
      </trkpt>
      <trkpt lat="47.80534" lon="5.98114">
        <ele>217.90039</ele>
        <time>2026-05-17T08:45:39+02:00</time>
      </trkpt>
      <trkpt lat="47.80538" lon="5.98105">
        <ele>217.60059</ele>
        <time>2026-05-17T08:45:40+02:00</time>
      </trkpt>
      <trkpt lat="47.80541" lon="5.98096">
        <ele>218.40039</ele>
        <time>2026-05-17T08:45:41+02:00</time>
      </trkpt>
      <trkpt lat="47.80544" lon="5.98087">
        <ele>218.2002</ele>
        <time>2026-05-17T08:45:42+02:00</time>
      </trkpt>
      <trkpt lat="47.80547" lon="5.98079">
        <ele>219.10059</ele>
        <time>2026-05-17T08:45:43+02:00</time>
      </trkpt>
      <trkpt lat="47.8055" lon="5.98071">
        <ele>218.7998</ele>
        <time>2026-05-17T08:45:44+02:00</time>
      </trkpt>
      <trkpt lat="47.80552" lon="5.98064">
        <ele>219.40039</ele>
        <time>2026-05-17T08:45:45+02:00</time>
      </trkpt>
      <trkpt lat="47.80555" lon="5.98056">
        <ele>218.7002</ele>
        <time>2026-05-17T08:45:46+02:00</time>
      </trkpt>
      <trkpt lat="47.80557" lon="5.98048">
        <ele>219.10059</ele>
        <time>2026-05-17T08:45:47+02:00</time>
      </trkpt>
      <trkpt lat="47.80559" lon="5.9804">
        <ele>219.5</ele>
        <time>2026-05-17T08:45:48+02:00</time>
      </trkpt>
      <trkpt lat="47.80561" lon="5.98031">
        <ele>219.10059</ele>
        <time>2026-05-17T08:45:49+02:00</time>
      </trkpt>
      <trkpt lat="47.80563" lon="5.98022">
        <ele>219.60059</ele>
        <time>2026-05-17T08:45:50+02:00</time>
      </trkpt>
      <trkpt lat="47.80565" lon="5.98013">
        <ele>220.10059</ele>
        <time>2026-05-17T08:45:51+02:00</time>
      </trkpt>
      <trkpt lat="47.80568" lon="5.98004">
        <ele>219.7998</ele>
        <time>2026-05-17T08:45:52+02:00</time>
      </trkpt>
      <trkpt lat="47.80569" lon="5.97995">
        <ele>220.2002</ele>
        <time>2026-05-17T08:45:53+02:00</time>
      </trkpt>
      <trkpt lat="47.8057" lon="5.97985">
        <ele>220.60059</ele>
        <time>2026-05-17T08:45:54+02:00</time>
      </trkpt>
      <trkpt lat="47.80572" lon="5.97976">
        <ele>220.2002</ele>
        <time>2026-05-17T08:45:55+02:00</time>
      </trkpt>
      <trkpt lat="47.80573" lon="5.97966">
        <ele>220.5</ele>
        <time>2026-05-17T08:45:56+02:00</time>
      </trkpt>
      <trkpt lat="47.80575" lon="5.97956">
        <ele>221.2998</ele>
        <time>2026-05-17T08:45:57+02:00</time>
      </trkpt>
      <trkpt lat="47.80576" lon="5.97947">
        <ele>221.7002</ele>
        <time>2026-05-17T08:45:58+02:00</time>
      </trkpt>
      <trkpt lat="47.80578" lon="5.97937">
        <ele>221</ele>
        <time>2026-05-17T08:45:59+02:00</time>
      </trkpt>
      <trkpt lat="47.8058" lon="5.97927">
        <ele>221</ele>
        <time>2026-05-17T08:46:00+02:00</time>
      </trkpt>
      <trkpt lat="47.80581" lon="5.97917">
        <ele>220.7998</ele>
        <time>2026-05-17T08:46:01+02:00</time>
      </trkpt>
      <trkpt lat="47.80583" lon="5.97907">
        <ele>220.40039</ele>
        <time>2026-05-17T08:46:02+02:00</time>
      </trkpt>
      <trkpt lat="47.80584" lon="5.97897">
        <ele>219.2002</ele>
        <time>2026-05-17T08:46:03+02:00</time>
      </trkpt>
      <trkpt lat="47.80586" lon="5.97887">
        <ele>219.2002</ele>
        <time>2026-05-17T08:46:04+02:00</time>
      </trkpt>
      <trkpt lat="47.80587" lon="5.97877">
        <ele>219.2002</ele>
        <time>2026-05-17T08:46:05+02:00</time>
      </trkpt>
      <trkpt lat="47.80588" lon="5.97866">
        <ele>219.40039</ele>
        <time>2026-05-17T08:46:06+02:00</time>
      </trkpt>
      <trkpt lat="47.80589" lon="5.97856">
        <ele>219.7002</ele>
        <time>2026-05-17T08:46:07+02:00</time>
      </trkpt>
      <trkpt lat="47.8059" lon="5.97846">
        <ele>219.5</ele>
        <time>2026-05-17T08:46:08+02:00</time>
      </trkpt>
      <trkpt lat="47.80591" lon="5.97835">
        <ele>220.2998</ele>
        <time>2026-05-17T08:46:09+02:00</time>
      </trkpt>
      <trkpt lat="47.80593" lon="5.97825">
        <ele>220.7002</ele>
        <time>2026-05-17T08:46:10+02:00</time>
      </trkpt>
      <trkpt lat="47.80594" lon="5.97816">
        <ele>221.2002</ele>
        <time>2026-05-17T08:46:11+02:00</time>
      </trkpt>
      <trkpt lat="47.80596" lon="5.97806">
        <ele>221.10059</ele>
        <time>2026-05-17T08:46:12+02:00</time>
      </trkpt>
      <trkpt lat="47.80597" lon="5.97798">
        <ele>221.2998</ele>
        <time>2026-05-17T08:46:13+02:00</time>
      </trkpt>
      <trkpt lat="47.806" lon="5.97792">
        <ele>221.5</ele>
        <time>2026-05-17T08:46:14+02:00</time>
      </trkpt>
      <trkpt lat="47.80604" lon="5.97787">
        <ele>221.10059</ele>
        <time>2026-05-17T08:46:15+02:00</time>
      </trkpt>
      <trkpt lat="47.80609" lon="5.97786">
        <ele>220.7002</ele>
        <time>2026-05-17T08:46:16+02:00</time>
      </trkpt>
      <trkpt lat="47.80613" lon="5.97788">
        <ele>220.40039</ele>
        <time>2026-05-17T08:46:17+02:00</time>
      </trkpt>
      <trkpt lat="47.80617" lon="5.97793">
        <ele>220.40039</ele>
        <time>2026-05-17T08:46:18+02:00</time>
      </trkpt>
      <trkpt lat="47.8062" lon="5.97799">
        <ele>220.10059</ele>
        <time>2026-05-17T08:46:19+02:00</time>
      </trkpt>
      <trkpt lat="47.80623" lon="5.97806">
        <ele>220</ele>
        <time>2026-05-17T08:46:20+02:00</time>
      </trkpt>
      <trkpt lat="47.80626" lon="5.97813">
        <ele>219.7998</ele>
        <time>2026-05-17T08:46:21+02:00</time>
      </trkpt>
      <trkpt lat="47.8063" lon="5.9782">
        <ele>219.7002</ele>
        <time>2026-05-17T08:46:22+02:00</time>
      </trkpt>
      <trkpt lat="47.80633" lon="5.97828">
        <ele>219.60059</ele>
        <time>2026-05-17T08:46:23+02:00</time>
      </trkpt>
      <trkpt lat="47.80637" lon="5.97836">
        <ele>219.5</ele>
        <time>2026-05-17T08:46:24+02:00</time>
      </trkpt>
      <trkpt lat="47.80641" lon="5.97844">
        <ele>219.2002</ele>
        <time>2026-05-17T08:46:25+02:00</time>
      </trkpt>
      <trkpt lat="47.80644" lon="5.97851">
        <ele>218.7998</ele>
        <time>2026-05-17T08:46:26+02:00</time>
      </trkpt>
      <trkpt lat="47.80648" lon="5.97859">
        <ele>218.5</ele>
        <time>2026-05-17T08:46:27+02:00</time>
      </trkpt>
      <trkpt lat="47.80652" lon="5.97867">
        <ele>218.2998</ele>
        <time>2026-05-17T08:46:28+02:00</time>
      </trkpt>
      <trkpt lat="47.80655" lon="5.97874">
        <ele>218.2002</ele>
        <time>2026-05-17T08:46:29+02:00</time>
      </trkpt>
      <trkpt lat="47.80658" lon="5.97882">
        <ele>217.90039</ele>
        <time>2026-05-17T08:46:30+02:00</time>
      </trkpt>
      <trkpt lat="47.80662" lon="5.97889">
        <ele>217.5</ele>
        <time>2026-05-17T08:46:31+02:00</time>
      </trkpt>
      <trkpt lat="47.80665" lon="5.97896">
        <ele>217.2002</ele>
        <time>2026-05-17T08:46:32+02:00</time>
      </trkpt>
      <trkpt lat="47.80668" lon="5.97904">
        <ele>217</ele>
        <time>2026-05-17T08:46:33+02:00</time>
      </trkpt>
      <trkpt lat="47.80672" lon="5.97911">
        <ele>216.40039</ele>
        <time>2026-05-17T08:46:34+02:00</time>
      </trkpt>
      <trkpt lat="47.80675" lon="5.97918">
        <ele>216.10059</ele>
        <time>2026-05-17T08:46:35+02:00</time>
      </trkpt>
      <trkpt lat="47.80678" lon="5.97925">
        <ele>215.60059</ele>
        <time>2026-05-17T08:46:36+02:00</time>
      </trkpt>
      <trkpt lat="47.80682" lon="5.97932">
        <ele>215.10059</ele>
        <time>2026-05-17T08:46:37+02:00</time>
      </trkpt>
      <trkpt lat="47.80685" lon="5.97939">
        <ele>215.10059</ele>
        <time>2026-05-17T08:46:38+02:00</time>
      </trkpt>
      <trkpt lat="47.80689" lon="5.97947">
        <ele>214.7998</ele>
        <time>2026-05-17T08:46:39+02:00</time>
      </trkpt>
      <trkpt lat="47.80692" lon="5.97954">
        <ele>214.7998</ele>
        <time>2026-05-17T08:46:40+02:00</time>
      </trkpt>
      <trkpt lat="47.80695" lon="5.97961">
        <ele>214.7002</ele>
        <time>2026-05-17T08:46:41+02:00</time>
      </trkpt>
      <trkpt lat="47.80699" lon="5.97968">
        <ele>214.60059</ele>
        <time>2026-05-17T08:46:42+02:00</time>
      </trkpt>
      <trkpt lat="47.80702" lon="5.97974">
        <ele>214.7002</ele>
        <time>2026-05-17T08:46:43+02:00</time>
      </trkpt>
      <trkpt lat="47.80705" lon="5.97981">
        <ele>214.60059</ele>
        <time>2026-05-17T08:46:44+02:00</time>
      </trkpt>
      <trkpt lat="47.80708" lon="5.97988">
        <ele>214.7002</ele>
        <time>2026-05-17T08:46:45+02:00</time>
      </trkpt>
      <trkpt lat="47.80711" lon="5.97996">
        <ele>214.7998</ele>
        <time>2026-05-17T08:46:46+02:00</time>
      </trkpt>
      <trkpt lat="47.80714" lon="5.98003">
        <ele>215</ele>
        <time>2026-05-17T08:46:47+02:00</time>
      </trkpt>
      <trkpt lat="47.80718" lon="5.9801">
        <ele>215</ele>
        <time>2026-05-17T08:46:48+02:00</time>
      </trkpt>
      <trkpt lat="47.80721" lon="5.98018">
        <ele>215.10059</ele>
        <time>2026-05-17T08:46:49+02:00</time>
      </trkpt>
      <trkpt lat="47.80724" lon="5.98026">
        <ele>214.90039</ele>
        <time>2026-05-17T08:46:50+02:00</time>
      </trkpt>
      <trkpt lat="47.80728" lon="5.98034">
        <ele>214.7002</ele>
        <time>2026-05-17T08:46:51+02:00</time>
      </trkpt>
      <trkpt lat="47.80732" lon="5.98042">
        <ele>214.7002</ele>
        <time>2026-05-17T08:46:52+02:00</time>
      </trkpt>
      <trkpt lat="47.80735" lon="5.9805">
        <ele>214.7002</ele>
        <time>2026-05-17T08:46:53+02:00</time>
      </trkpt>
      <trkpt lat="47.80739" lon="5.98058">
        <ele>214.5</ele>
        <time>2026-05-17T08:46:54+02:00</time>
      </trkpt>
      <trkpt lat="47.80742" lon="5.98066">
        <ele>214.60059</ele>
        <time>2026-05-17T08:46:55+02:00</time>
      </trkpt>
      <trkpt lat="47.80746" lon="5.98074">
        <ele>214.2002</ele>
        <time>2026-05-17T08:46:56+02:00</time>
      </trkpt>
      <trkpt lat="47.8075" lon="5.98082">
        <ele>213.5</ele>
        <time>2026-05-17T08:46:57+02:00</time>
      </trkpt>
      <trkpt lat="47.80753" lon="5.9809">
        <ele>213</ele>
        <time>2026-05-17T08:46:58+02:00</time>
      </trkpt>
      <trkpt lat="47.80757" lon="5.98097">
        <ele>212.60059</ele>
        <time>2026-05-17T08:46:59+02:00</time>
      </trkpt>
      <trkpt lat="47.8076" lon="5.98105">
        <ele>212</ele>
        <time>2026-05-17T08:47:00+02:00</time>
      </trkpt>
      <trkpt lat="47.80764" lon="5.98113">
        <ele>212</ele>
        <time>2026-05-17T08:47:01+02:00</time>
      </trkpt>
      <trkpt lat="47.80767" lon="5.98121">
        <ele>211.7002</ele>
        <time>2026-05-17T08:47:02+02:00</time>
      </trkpt>
      <trkpt lat="47.80771" lon="5.98128">
        <ele>212.10059</ele>
        <time>2026-05-17T08:47:03+02:00</time>
      </trkpt>
      <trkpt lat="47.80774" lon="5.98136">
        <ele>211.90039</ele>
        <time>2026-05-17T08:47:04+02:00</time>
      </trkpt>
      <trkpt lat="47.80778" lon="5.98144">
        <ele>211.40039</ele>
        <time>2026-05-17T08:47:05+02:00</time>
      </trkpt>
      <trkpt lat="47.80781" lon="5.98152">
        <ele>211.40039</ele>
        <time>2026-05-17T08:47:06+02:00</time>
      </trkpt>
      <trkpt lat="47.80785" lon="5.9816">
        <ele>211.2998</ele>
        <time>2026-05-17T08:47:07+02:00</time>
      </trkpt>
      <trkpt lat="47.80789" lon="5.98168">
        <ele>211.5</ele>
        <time>2026-05-17T08:47:08+02:00</time>
      </trkpt>
      <trkpt lat="47.80792" lon="5.98176">
        <ele>211.7002</ele>
        <time>2026-05-17T08:47:09+02:00</time>
      </trkpt>
      <trkpt lat="47.80796" lon="5.98184">
        <ele>211.60059</ele>
        <time>2026-05-17T08:47:10+02:00</time>
      </trkpt>
      <trkpt lat="47.808" lon="5.98193">
        <ele>211.60059</ele>
        <time>2026-05-17T08:47:11+02:00</time>
      </trkpt>
      <trkpt lat="47.80803" lon="5.98201">
        <ele>211.5</ele>
        <time>2026-05-17T08:47:12+02:00</time>
      </trkpt>
      <trkpt lat="47.80808" lon="5.9821">
        <ele>211.2998</ele>
        <time>2026-05-17T08:47:13+02:00</time>
      </trkpt>
      <trkpt lat="47.80811" lon="5.98218">
        <ele>211.40039</ele>
        <time>2026-05-17T08:47:14+02:00</time>
      </trkpt>
      <trkpt lat="47.80815" lon="5.98226">
        <ele>211.7002</ele>
        <time>2026-05-17T08:47:15+02:00</time>
      </trkpt>
      <trkpt lat="47.80819" lon="5.98234">
        <ele>211.60059</ele>
        <time>2026-05-17T08:47:16+02:00</time>
      </trkpt>
      <trkpt lat="47.80822" lon="5.98242">
        <ele>211.7998</ele>
        <time>2026-05-17T08:47:17+02:00</time>
      </trkpt>
      <trkpt lat="47.80826" lon="5.9825">
        <ele>212</ele>
        <time>2026-05-17T08:47:18+02:00</time>
      </trkpt>
      <trkpt lat="47.8083" lon="5.98258">
        <ele>212</ele>
        <time>2026-05-17T08:47:19+02:00</time>
      </trkpt>
      <trkpt lat="47.80833" lon="5.98266">
        <ele>212.2998</ele>
        <time>2026-05-17T08:47:20+02:00</time>
      </trkpt>
      <trkpt lat="47.80837" lon="5.98274">
        <ele>212.2998</ele>
        <time>2026-05-17T08:47:21+02:00</time>
      </trkpt>
      <trkpt lat="47.8084" lon="5.98282">
        <ele>212.7002</ele>
        <time>2026-05-17T08:47:22+02:00</time>
      </trkpt>
      <trkpt lat="47.80843" lon="5.9829">
        <ele>212.7998</ele>
        <time>2026-05-17T08:47:23+02:00</time>
      </trkpt>
      <trkpt lat="47.80847" lon="5.98299">
        <ele>212.40039</ele>
        <time>2026-05-17T08:47:24+02:00</time>
      </trkpt>
      <trkpt lat="47.80849" lon="5.98307">
        <ele>212</ele>
        <time>2026-05-17T08:47:25+02:00</time>
      </trkpt>
      <trkpt lat="47.80852" lon="5.98315">
        <ele>211.7002</ele>
        <time>2026-05-17T08:47:26+02:00</time>
      </trkpt>
      <trkpt lat="47.80855" lon="5.98323">
        <ele>211.40039</ele>
        <time>2026-05-17T08:47:27+02:00</time>
      </trkpt>
      <trkpt lat="47.80856" lon="5.98332">
        <ele>211.2998</ele>
        <time>2026-05-17T08:47:28+02:00</time>
      </trkpt>
      <trkpt lat="47.80859" lon="5.9834">
        <ele>211.2002</ele>
        <time>2026-05-17T08:47:29+02:00</time>
      </trkpt>
      <trkpt lat="47.8086" lon="5.98349">
        <ele>211.10059</ele>
        <time>2026-05-17T08:47:30+02:00</time>
      </trkpt>
      <trkpt lat="47.80861" lon="5.98358">
        <ele>211</ele>
        <time>2026-05-17T08:47:31+02:00</time>
      </trkpt>
      <trkpt lat="47.80863" lon="5.98367">
        <ele>211</ele>
        <time>2026-05-17T08:47:32+02:00</time>
      </trkpt>
      <trkpt lat="47.80863" lon="5.98375">
        <ele>211</ele>
        <time>2026-05-17T08:47:33+02:00</time>
      </trkpt>
      <trkpt lat="47.80864" lon="5.98384">
        <ele>211.10059</ele>
        <time>2026-05-17T08:47:34+02:00</time>
      </trkpt>
      <trkpt lat="47.80865" lon="5.98392">
        <ele>211.2998</ele>
        <time>2026-05-17T08:47:35+02:00</time>
      </trkpt>
      <trkpt lat="47.80866" lon="5.98401">
        <ele>211.5</ele>
        <time>2026-05-17T08:47:36+02:00</time>
      </trkpt>
      <trkpt lat="47.80866" lon="5.9841">
        <ele>211.7998</ele>
        <time>2026-05-17T08:47:37+02:00</time>
      </trkpt>
      <trkpt lat="47.80867" lon="5.98419">
        <ele>212.2002</ele>
        <time>2026-05-17T08:47:38+02:00</time>
      </trkpt>
      <trkpt lat="47.80868" lon="5.98428">
        <ele>212.90039</ele>
        <time>2026-05-17T08:47:39+02:00</time>
      </trkpt>
      <trkpt lat="47.80869" lon="5.98438">
        <ele>214.2002</ele>
        <time>2026-05-17T08:47:40+02:00</time>
      </trkpt>
      <trkpt lat="47.80869" lon="5.98447">
        <ele>214.40039</ele>
        <time>2026-05-17T08:47:41+02:00</time>
      </trkpt>
      <trkpt lat="47.80871" lon="5.98456">
        <ele>214.5</ele>
        <time>2026-05-17T08:47:42+02:00</time>
      </trkpt>
      <trkpt lat="47.80872" lon="5.98466">
        <ele>214.2998</ele>
        <time>2026-05-17T08:47:43+02:00</time>
      </trkpt>
      <trkpt lat="47.80873" lon="5.98476">
        <ele>214.2002</ele>
        <time>2026-05-17T08:47:44+02:00</time>
      </trkpt>
      <trkpt lat="47.80875" lon="5.98485">
        <ele>214.2002</ele>
        <time>2026-05-17T08:47:45+02:00</time>
      </trkpt>
      <trkpt lat="47.80877" lon="5.98495">
        <ele>214.10059</ele>
        <time>2026-05-17T08:47:46+02:00</time>
      </trkpt>
      <trkpt lat="47.8088" lon="5.98505">
        <ele>213.90039</ele>
        <time>2026-05-17T08:47:47+02:00</time>
      </trkpt>
      <trkpt lat="47.80883" lon="5.98514">
        <ele>213.7998</ele>
        <time>2026-05-17T08:47:48+02:00</time>
      </trkpt>
      <trkpt lat="47.80886" lon="5.98523">
        <ele>213.60059</ele>
        <time>2026-05-17T08:47:49+02:00</time>
      </trkpt>
      <trkpt lat="47.8089" lon="5.98532">
        <ele>213.2002</ele>
        <time>2026-05-17T08:47:50+02:00</time>
      </trkpt>
      <trkpt lat="47.80894" lon="5.98541">
        <ele>213.10059</ele>
        <time>2026-05-17T08:47:51+02:00</time>
      </trkpt>
      <trkpt lat="47.80899" lon="5.98549">
        <ele>212.90039</ele>
        <time>2026-05-17T08:47:52+02:00</time>
      </trkpt>
      <trkpt lat="47.80903" lon="5.98557">
        <ele>212.7998</ele>
        <time>2026-05-17T08:47:53+02:00</time>
      </trkpt>
      <trkpt lat="47.80908" lon="5.98566">
        <ele>212.7002</ele>
        <time>2026-05-17T08:47:54+02:00</time>
      </trkpt>
      <trkpt lat="47.80912" lon="5.98574">
        <ele>212.60059</ele>
        <time>2026-05-17T08:47:55+02:00</time>
      </trkpt>
      <trkpt lat="47.80917" lon="5.98582">
        <ele>212.60059</ele>
        <time>2026-05-17T08:47:56+02:00</time>
      </trkpt>
      <trkpt lat="47.80921" lon="5.98589">
        <ele>212.60059</ele>
        <time>2026-05-17T08:47:57+02:00</time>
      </trkpt>
      <trkpt lat="47.80925" lon="5.98597">
        <ele>212.7002</ele>
        <time>2026-05-17T08:47:58+02:00</time>
      </trkpt>
      <trkpt lat="47.80929" lon="5.98604">
        <ele>212.7998</ele>
        <time>2026-05-17T08:47:59+02:00</time>
      </trkpt>
      <trkpt lat="47.80933" lon="5.98612">
        <ele>212.90039</ele>
        <time>2026-05-17T08:48:00+02:00</time>
      </trkpt>
      <trkpt lat="47.80937" lon="5.9862">
        <ele>213.10059</ele>
        <time>2026-05-17T08:48:01+02:00</time>
      </trkpt>
      <trkpt lat="47.80942" lon="5.98627">
        <ele>213.2998</ele>
        <time>2026-05-17T08:48:02+02:00</time>
      </trkpt>
      <trkpt lat="47.80946" lon="5.98635">
        <ele>213.40039</ele>
        <time>2026-05-17T08:48:03+02:00</time>
      </trkpt>
      <trkpt lat="47.80951" lon="5.98643">
        <ele>213.40039</ele>
        <time>2026-05-17T08:48:04+02:00</time>
      </trkpt>
      <trkpt lat="47.80955" lon="5.9865">
        <ele>213.60059</ele>
        <time>2026-05-17T08:48:05+02:00</time>
      </trkpt>
      <trkpt lat="47.80959" lon="5.98658">
        <ele>213.7002</ele>
        <time>2026-05-17T08:48:06+02:00</time>
      </trkpt>
      <trkpt lat="47.80964" lon="5.98665">
        <ele>213.90039</ele>
        <time>2026-05-17T08:48:07+02:00</time>
      </trkpt>
      <trkpt lat="47.80968" lon="5.98673">
        <ele>213.90039</ele>
        <time>2026-05-17T08:48:08+02:00</time>
      </trkpt>
      <trkpt lat="47.80971" lon="5.98682">
        <ele>214</ele>
        <time>2026-05-17T08:48:09+02:00</time>
      </trkpt>
      <trkpt lat="47.80974" lon="5.9869">
        <ele>214</ele>
        <time>2026-05-17T08:48:10+02:00</time>
      </trkpt>
      <trkpt lat="47.80977" lon="5.98698">
        <ele>214</ele>
        <time>2026-05-17T08:48:11+02:00</time>
      </trkpt>
      <trkpt lat="47.8098" lon="5.98705">
        <ele>214</ele>
        <time>2026-05-17T08:48:12+02:00</time>
      </trkpt>
      <trkpt lat="47.80984" lon="5.98712">
        <ele>214.10059</ele>
        <time>2026-05-17T08:48:13+02:00</time>
      </trkpt>
      <trkpt lat="47.8099" lon="5.98717">
        <ele>214.10059</ele>
        <time>2026-05-17T08:48:14+02:00</time>
      </trkpt>
      <trkpt lat="47.80996" lon="5.9872">
        <ele>214.10059</ele>
        <time>2026-05-17T08:48:15+02:00</time>
      </trkpt>
      <trkpt lat="47.81003" lon="5.98721">
        <ele>214.10059</ele>
        <time>2026-05-17T08:48:16+02:00</time>
      </trkpt>
      <trkpt lat="47.81009" lon="5.98719">
        <ele>214</ele>
        <time>2026-05-17T08:48:17+02:00</time>
      </trkpt>
      <trkpt lat="47.81016" lon="5.98716">
        <ele>213.90039</ele>
        <time>2026-05-17T08:48:18+02:00</time>
      </trkpt>
      <trkpt lat="47.81023" lon="5.98712">
        <ele>213.7998</ele>
        <time>2026-05-17T08:48:19+02:00</time>
      </trkpt>
      <trkpt lat="47.8103" lon="5.98708">
        <ele>213.7002</ele>
        <time>2026-05-17T08:48:20+02:00</time>
      </trkpt>
      <trkpt lat="47.81037" lon="5.98705">
        <ele>213.60059</ele>
        <time>2026-05-17T08:48:21+02:00</time>
      </trkpt>
      <trkpt lat="47.81044" lon="5.98702">
        <ele>213.40039</ele>
        <time>2026-05-17T08:48:22+02:00</time>
      </trkpt>
      <trkpt lat="47.81051" lon="5.98699">
        <ele>213.2002</ele>
        <time>2026-05-17T08:48:23+02:00</time>
      </trkpt>
      <trkpt lat="47.81058" lon="5.98696">
        <ele>213.2002</ele>
        <time>2026-05-17T08:48:24+02:00</time>
      </trkpt>
      <trkpt lat="47.81066" lon="5.98693">
        <ele>213</ele>
        <time>2026-05-17T08:48:25+02:00</time>
      </trkpt>
      <trkpt lat="47.81073" lon="5.9869">
        <ele>213</ele>
        <time>2026-05-17T08:48:26+02:00</time>
      </trkpt>
      <trkpt lat="47.8108" lon="5.98688">
        <ele>213</ele>
        <time>2026-05-17T08:48:27+02:00</time>
      </trkpt>
      <trkpt lat="47.81088" lon="5.98685">
        <ele>212.90039</ele>
        <time>2026-05-17T08:48:28+02:00</time>
      </trkpt>
      <trkpt lat="47.81096" lon="5.98682">
        <ele>213</ele>
        <time>2026-05-17T08:48:29+02:00</time>
      </trkpt>
      <trkpt lat="47.81103" lon="5.98679">
        <ele>213.10059</ele>
        <time>2026-05-17T08:48:30+02:00</time>
      </trkpt>
      <trkpt lat="47.81111" lon="5.98676">
        <ele>213.10059</ele>
        <time>2026-05-17T08:48:31+02:00</time>
      </trkpt>
      <trkpt lat="47.81118" lon="5.98674">
        <ele>213.10059</ele>
        <time>2026-05-17T08:48:32+02:00</time>
      </trkpt>
      <trkpt lat="47.81126" lon="5.98671">
        <ele>213.2002</ele>
        <time>2026-05-17T08:48:33+02:00</time>
      </trkpt>
      <trkpt lat="47.81133" lon="5.98669">
        <ele>213.2002</ele>
        <time>2026-05-17T08:48:34+02:00</time>
      </trkpt>
      <trkpt lat="47.8114" lon="5.98667">
        <ele>213.2998</ele>
        <time>2026-05-17T08:48:35+02:00</time>
      </trkpt>
      <trkpt lat="47.81147" lon="5.98664">
        <ele>213.40039</ele>
        <time>2026-05-17T08:48:36+02:00</time>
      </trkpt>
      <trkpt lat="47.81154" lon="5.98662">
        <ele>213.5</ele>
        <time>2026-05-17T08:48:37+02:00</time>
      </trkpt>
      <trkpt lat="47.81162" lon="5.98659">
        <ele>213.60059</ele>
        <time>2026-05-17T08:48:38+02:00</time>
      </trkpt>
      <trkpt lat="47.81168" lon="5.98657">
        <ele>213.7002</ele>
        <time>2026-05-17T08:48:39+02:00</time>
      </trkpt>
      <trkpt lat="47.81176" lon="5.98654">
        <ele>213.7998</ele>
        <time>2026-05-17T08:48:40+02:00</time>
      </trkpt>
      <trkpt lat="47.81183" lon="5.98651">
        <ele>213.90039</ele>
        <time>2026-05-17T08:48:41+02:00</time>
      </trkpt>
      <trkpt lat="47.81189" lon="5.98649">
        <ele>214.10059</ele>
        <time>2026-05-17T08:48:42+02:00</time>
      </trkpt>
      <trkpt lat="47.81197" lon="5.98646">
        <ele>214.2002</ele>
        <time>2026-05-17T08:48:43+02:00</time>
      </trkpt>
      <trkpt lat="47.81204" lon="5.98644">
        <ele>214.2998</ele>
        <time>2026-05-17T08:48:44+02:00</time>
      </trkpt>
      <trkpt lat="47.81211" lon="5.98642">
        <ele>214.2998</ele>
        <time>2026-05-17T08:48:45+02:00</time>
      </trkpt>
      <trkpt lat="47.81218" lon="5.9864">
        <ele>214.60059</ele>
        <time>2026-05-17T08:48:46+02:00</time>
      </trkpt>
      <trkpt lat="47.81225" lon="5.98637">
        <ele>214.7002</ele>
        <time>2026-05-17T08:48:47+02:00</time>
      </trkpt>
      <trkpt lat="47.81232" lon="5.98635">
        <ele>214.7998</ele>
        <time>2026-05-17T08:48:48+02:00</time>
      </trkpt>
      <trkpt lat="47.81239" lon="5.98632">
        <ele>214.7998</ele>
        <time>2026-05-17T08:48:49+02:00</time>
      </trkpt>
      <trkpt lat="47.81246" lon="5.9863">
        <ele>214.90039</ele>
        <time>2026-05-17T08:48:50+02:00</time>
      </trkpt>
      <trkpt lat="47.81253" lon="5.98628">
        <ele>215</ele>
        <time>2026-05-17T08:48:51+02:00</time>
      </trkpt>
      <trkpt lat="47.8126" lon="5.98626">
        <ele>214.7998</ele>
        <time>2026-05-17T08:48:52+02:00</time>
      </trkpt>
      <trkpt lat="47.81267" lon="5.98624">
        <ele>214.90039</ele>
        <time>2026-05-17T08:48:53+02:00</time>
      </trkpt>
      <trkpt lat="47.81274" lon="5.98622">
        <ele>215</ele>
        <time>2026-05-17T08:48:54+02:00</time>
      </trkpt>
      <trkpt lat="47.81281" lon="5.9862">
        <ele>215.2998</ele>
        <time>2026-05-17T08:48:55+02:00</time>
      </trkpt>
      <trkpt lat="47.81288" lon="5.98619">
        <ele>215.5</ele>
        <time>2026-05-17T08:48:56+02:00</time>
      </trkpt>
      <trkpt lat="47.81295" lon="5.98617">
        <ele>215.60059</ele>
        <time>2026-05-17T08:48:57+02:00</time>
      </trkpt>
      <trkpt lat="47.81301" lon="5.98616">
        <ele>215.7998</ele>
        <time>2026-05-17T08:48:58+02:00</time>
      </trkpt>
      <trkpt lat="47.81308" lon="5.98614">
        <ele>216</ele>
        <time>2026-05-17T08:48:59+02:00</time>
      </trkpt>
      <trkpt lat="47.81313" lon="5.98612">
        <ele>216.2002</ele>
        <time>2026-05-17T08:49:00+02:00</time>
      </trkpt>
      <trkpt lat="47.81319" lon="5.98609">
        <ele>216.5</ele>
        <time>2026-05-17T08:49:01+02:00</time>
      </trkpt>
      <trkpt lat="47.81325" lon="5.98605">
        <ele>216.5</ele>
        <time>2026-05-17T08:49:02+02:00</time>
      </trkpt>
      <trkpt lat="47.81329" lon="5.98599">
        <ele>216.40039</ele>
        <time>2026-05-17T08:49:03+02:00</time>
      </trkpt>
      <trkpt lat="47.81334" lon="5.98592">
        <ele>216.60059</ele>
        <time>2026-05-17T08:49:04+02:00</time>
      </trkpt>
      <trkpt lat="47.81339" lon="5.98584">
        <ele>216.60059</ele>
        <time>2026-05-17T08:49:05+02:00</time>
      </trkpt>
      <trkpt lat="47.81344" lon="5.98577">
        <ele>216.5</ele>
        <time>2026-05-17T08:49:06+02:00</time>
      </trkpt>
      <trkpt lat="47.81349" lon="5.98569">
        <ele>216.40039</ele>
        <time>2026-05-17T08:49:07+02:00</time>
      </trkpt>
      <trkpt lat="47.81354" lon="5.98561">
        <ele>216.2998</ele>
        <time>2026-05-17T08:49:08+02:00</time>
      </trkpt>
      <trkpt lat="47.8136" lon="5.98553">
        <ele>216.10059</ele>
        <time>2026-05-17T08:49:09+02:00</time>
      </trkpt>
      <trkpt lat="47.81365" lon="5.98546">
        <ele>215.90039</ele>
        <time>2026-05-17T08:49:10+02:00</time>
      </trkpt>
      <trkpt lat="47.81371" lon="5.98539">
        <ele>215.7002</ele>
        <time>2026-05-17T08:49:11+02:00</time>
      </trkpt>
      <trkpt lat="47.81377" lon="5.98532">
        <ele>215.7002</ele>
        <time>2026-05-17T08:49:12+02:00</time>
      </trkpt>
      <trkpt lat="47.81384" lon="5.98526">
        <ele>215.40039</ele>
        <time>2026-05-17T08:49:13+02:00</time>
      </trkpt>
      <trkpt lat="47.81391" lon="5.9852">
        <ele>215.2002</ele>
        <time>2026-05-17T08:49:14+02:00</time>
      </trkpt>
      <trkpt lat="47.81398" lon="5.98515">
        <ele>215.2002</ele>
        <time>2026-05-17T08:49:15+02:00</time>
      </trkpt>
      <trkpt lat="47.81405" lon="5.98511">
        <ele>215</ele>
        <time>2026-05-17T08:49:16+02:00</time>
      </trkpt>
      <trkpt lat="47.81412" lon="5.98507">
        <ele>215</ele>
        <time>2026-05-17T08:49:17+02:00</time>
      </trkpt>
      <trkpt lat="47.81419" lon="5.98503">
        <ele>214.7998</ele>
        <time>2026-05-17T08:49:18+02:00</time>
      </trkpt>
      <trkpt lat="47.81426" lon="5.98498">
        <ele>214.90039</ele>
        <time>2026-05-17T08:49:19+02:00</time>
      </trkpt>
      <trkpt lat="47.81432" lon="5.98493">
        <ele>214.7998</ele>
        <time>2026-05-17T08:49:20+02:00</time>
      </trkpt>
      <trkpt lat="47.81439" lon="5.98487">
        <ele>214.7002</ele>
        <time>2026-05-17T08:49:21+02:00</time>
      </trkpt>
      <trkpt lat="47.81445" lon="5.9848">
        <ele>214.7998</ele>
        <time>2026-05-17T08:49:22+02:00</time>
      </trkpt>
      <trkpt lat="47.8145" lon="5.98472">
        <ele>214.7998</ele>
        <time>2026-05-17T08:49:23+02:00</time>
      </trkpt>
      <trkpt lat="47.81454" lon="5.98463">
        <ele>214.7998</ele>
        <time>2026-05-17T08:49:24+02:00</time>
      </trkpt>
      <trkpt lat="47.81458" lon="5.98454">
        <ele>214.7998</ele>
        <time>2026-05-17T08:49:25+02:00</time>
      </trkpt>
      <trkpt lat="47.81461" lon="5.98444">
        <ele>214.7998</ele>
        <time>2026-05-17T08:49:26+02:00</time>
      </trkpt>
      <trkpt lat="47.81464" lon="5.98434">
        <ele>214.7998</ele>
        <time>2026-05-17T08:49:27+02:00</time>
      </trkpt>
      <trkpt lat="47.81465" lon="5.98423">
        <ele>214.7998</ele>
        <time>2026-05-17T08:49:28+02:00</time>
      </trkpt>
      <trkpt lat="47.81466" lon="5.98413">
        <ele>214.7998</ele>
        <time>2026-05-17T08:49:29+02:00</time>
      </trkpt>
      <trkpt lat="47.81465" lon="5.98403">
        <ele>214.90039</ele>
        <time>2026-05-17T08:49:30+02:00</time>
      </trkpt>
      <trkpt lat="47.81465" lon="5.98394">
        <ele>215.10059</ele>
        <time>2026-05-17T08:49:31+02:00</time>
      </trkpt>
      <trkpt lat="47.81464" lon="5.98384">
        <ele>215.2002</ele>
        <time>2026-05-17T08:49:32+02:00</time>
      </trkpt>
      <trkpt lat="47.81465" lon="5.98374">
        <ele>215.40039</ele>
        <time>2026-05-17T08:49:33+02:00</time>
      </trkpt>
      <trkpt lat="47.81466" lon="5.98364">
        <ele>215.40039</ele>
        <time>2026-05-17T08:49:34+02:00</time>
      </trkpt>
      <trkpt lat="47.8147" lon="5.98355">
        <ele>215.5</ele>
        <time>2026-05-17T08:49:35+02:00</time>
      </trkpt>
      <trkpt lat="47.81474" lon="5.98347">
        <ele>215.60059</ele>
        <time>2026-05-17T08:49:36+02:00</time>
      </trkpt>
      <trkpt lat="47.8148" lon="5.98341">
        <ele>215.5</ele>
        <time>2026-05-17T08:49:37+02:00</time>
      </trkpt>
      <trkpt lat="47.81486" lon="5.98335">
        <ele>215.40039</ele>
        <time>2026-05-17T08:49:38+02:00</time>
      </trkpt>
      <trkpt lat="47.81492" lon="5.98328">
        <ele>215.40039</ele>
        <time>2026-05-17T08:49:39+02:00</time>
      </trkpt>
      <trkpt lat="47.81497" lon="5.98323">
        <ele>215.40039</ele>
        <time>2026-05-17T08:49:40+02:00</time>
      </trkpt>
      <trkpt lat="47.81502" lon="5.98317">
        <ele>215.40039</ele>
        <time>2026-05-17T08:49:41+02:00</time>
      </trkpt>
      <trkpt lat="47.81508" lon="5.98312">
        <ele>215.40039</ele>
        <time>2026-05-17T08:49:42+02:00</time>
      </trkpt>
      <trkpt lat="47.81514" lon="5.98307">
        <ele>215.5</ele>
        <time>2026-05-17T08:49:43+02:00</time>
      </trkpt>
      <trkpt lat="47.8152" lon="5.98303">
        <ele>215.5</ele>
        <time>2026-05-17T08:49:44+02:00</time>
      </trkpt>
      <trkpt lat="47.81526" lon="5.983">
        <ele>215.7002</ele>
        <time>2026-05-17T08:49:45+02:00</time>
      </trkpt>
      <trkpt lat="47.81532" lon="5.98297">
        <ele>215.7998</ele>
        <time>2026-05-17T08:49:46+02:00</time>
      </trkpt>
      <trkpt lat="47.81538" lon="5.98295">
        <ele>215.90039</ele>
        <time>2026-05-17T08:49:47+02:00</time>
      </trkpt>
      <trkpt lat="47.81544" lon="5.98293">
        <ele>216</ele>
        <time>2026-05-17T08:49:48+02:00</time>
      </trkpt>
      <trkpt lat="47.8155" lon="5.9829">
        <ele>216.2998</ele>
        <time>2026-05-17T08:49:49+02:00</time>
      </trkpt>
      <trkpt lat="47.81556" lon="5.98288">
        <ele>216.5</ele>
        <time>2026-05-17T08:49:50+02:00</time>
      </trkpt>
      <trkpt lat="47.81563" lon="5.98286">
        <ele>216.7998</ele>
        <time>2026-05-17T08:49:51+02:00</time>
      </trkpt>
      <trkpt lat="47.81569" lon="5.98284">
        <ele>217</ele>
        <time>2026-05-17T08:49:52+02:00</time>
      </trkpt>
      <trkpt lat="47.81575" lon="5.98281">
        <ele>217.40039</ele>
        <time>2026-05-17T08:49:53+02:00</time>
      </trkpt>
      <trkpt lat="47.8158" lon="5.98279">
        <ele>217.40039</ele>
        <time>2026-05-17T08:49:54+02:00</time>
      </trkpt>
      <trkpt lat="47.81586" lon="5.98276">
        <ele>217.5</ele>
        <time>2026-05-17T08:49:55+02:00</time>
      </trkpt>
      <trkpt lat="47.81592" lon="5.98274">
        <ele>217.90039</ele>
        <time>2026-05-17T08:49:56+02:00</time>
      </trkpt>
      <trkpt lat="47.81598" lon="5.98271">
        <ele>217.90039</ele>
        <time>2026-05-17T08:49:57+02:00</time>
      </trkpt>
      <trkpt lat="47.81604" lon="5.98268">
        <ele>218</ele>
        <time>2026-05-17T08:49:58+02:00</time>
      </trkpt>
      <trkpt lat="47.8161" lon="5.98264">
        <ele>218.2998</ele>
        <time>2026-05-17T08:49:59+02:00</time>
      </trkpt>
      <trkpt lat="47.81616" lon="5.9826">
        <ele>218.2998</ele>
        <time>2026-05-17T08:50:00+02:00</time>
      </trkpt>
      <trkpt lat="47.81621" lon="5.98255">
        <ele>218.5</ele>
        <time>2026-05-17T08:50:01+02:00</time>
      </trkpt>
      <trkpt lat="47.81626" lon="5.9825">
        <ele>218.5</ele>
        <time>2026-05-17T08:50:02+02:00</time>
      </trkpt>
      <trkpt lat="47.81632" lon="5.98246">
        <ele>218.60059</ele>
        <time>2026-05-17T08:50:03+02:00</time>
      </trkpt>
      <trkpt lat="47.81637" lon="5.98241">
        <ele>218.7002</ele>
        <time>2026-05-17T08:50:04+02:00</time>
      </trkpt>
      <trkpt lat="47.81643" lon="5.98237">
        <ele>218.7998</ele>
        <time>2026-05-17T08:50:05+02:00</time>
      </trkpt>
      <trkpt lat="47.81648" lon="5.98232">
        <ele>218.90039</ele>
        <time>2026-05-17T08:50:06+02:00</time>
      </trkpt>
      <trkpt lat="47.81654" lon="5.98228">
        <ele>219</ele>
        <time>2026-05-17T08:50:07+02:00</time>
      </trkpt>
      <trkpt lat="47.81659" lon="5.98223">
        <ele>219.10059</ele>
        <time>2026-05-17T08:50:08+02:00</time>
      </trkpt>
      <trkpt lat="47.81666" lon="5.98218">
        <ele>219.2002</ele>
        <time>2026-05-17T08:50:09+02:00</time>
      </trkpt>
      <trkpt lat="47.81672" lon="5.98214">
        <ele>219.2998</ele>
        <time>2026-05-17T08:50:10+02:00</time>
      </trkpt>
      <trkpt lat="47.81678" lon="5.9821">
        <ele>219.40039</ele>
        <time>2026-05-17T08:50:11+02:00</time>
      </trkpt>
      <trkpt lat="47.81683" lon="5.98206">
        <ele>219.60059</ele>
        <time>2026-05-17T08:50:12+02:00</time>
      </trkpt>
      <trkpt lat="47.81689" lon="5.98202">
        <ele>219.7998</ele>
        <time>2026-05-17T08:50:13+02:00</time>
      </trkpt>
      <trkpt lat="47.81695" lon="5.98198">
        <ele>219.90039</ele>
        <time>2026-05-17T08:50:14+02:00</time>
      </trkpt>
      <trkpt lat="47.817" lon="5.98193">
        <ele>220.10059</ele>
        <time>2026-05-17T08:50:15+02:00</time>
      </trkpt>
      <trkpt lat="47.81706" lon="5.98189">
        <ele>220.2998</ele>
        <time>2026-05-17T08:50:16+02:00</time>
      </trkpt>
      <trkpt lat="47.81711" lon="5.98185">
        <ele>220.40039</ele>
        <time>2026-05-17T08:50:17+02:00</time>
      </trkpt>
      <trkpt lat="47.81717" lon="5.98182">
        <ele>220.60059</ele>
        <time>2026-05-17T08:50:18+02:00</time>
      </trkpt>
      <trkpt lat="47.81723" lon="5.98178">
        <ele>220.7002</ele>
        <time>2026-05-17T08:50:19+02:00</time>
      </trkpt>
      <trkpt lat="47.81728" lon="5.98173">
        <ele>220.90039</ele>
        <time>2026-05-17T08:50:20+02:00</time>
      </trkpt>
      <trkpt lat="47.81734" lon="5.98169">
        <ele>221</ele>
        <time>2026-05-17T08:50:21+02:00</time>
      </trkpt>
      <trkpt lat="47.8174" lon="5.98165">
        <ele>221.2002</ele>
        <time>2026-05-17T08:50:22+02:00</time>
      </trkpt>
      <trkpt lat="47.81745" lon="5.98161">
        <ele>221.2002</ele>
        <time>2026-05-17T08:50:23+02:00</time>
      </trkpt>
      <trkpt lat="47.81749" lon="5.98157">
        <ele>221.2998</ele>
        <time>2026-05-17T08:50:24+02:00</time>
      </trkpt>
      <trkpt lat="47.81754" lon="5.98154">
        <ele>221.2002</ele>
        <time>2026-05-17T08:50:25+02:00</time>
      </trkpt>
      <trkpt lat="47.8176" lon="5.9815">
        <ele>221.2002</ele>
        <time>2026-05-17T08:50:26+02:00</time>
      </trkpt>
      <trkpt lat="47.81765" lon="5.98146">
        <ele>221.2002</ele>
        <time>2026-05-17T08:50:27+02:00</time>
      </trkpt>
      <trkpt lat="47.8177" lon="5.98142">
        <ele>221</ele>
        <time>2026-05-17T08:50:28+02:00</time>
      </trkpt>
      <trkpt lat="47.81775" lon="5.98137">
        <ele>221</ele>
        <time>2026-05-17T08:50:29+02:00</time>
      </trkpt>
      <trkpt lat="47.81779" lon="5.98132">
        <ele>220.7998</ele>
        <time>2026-05-17T08:50:30+02:00</time>
      </trkpt>
      <trkpt lat="47.81784" lon="5.98127">
        <ele>220.60059</ele>
        <time>2026-05-17T08:50:31+02:00</time>
      </trkpt>
      <trkpt lat="47.81789" lon="5.98121">
        <ele>220.60059</ele>
        <time>2026-05-17T08:50:32+02:00</time>
      </trkpt>
      <trkpt lat="47.81793" lon="5.98115">
        <ele>220.40039</ele>
        <time>2026-05-17T08:50:33+02:00</time>
      </trkpt>
      <trkpt lat="47.81798" lon="5.98109">
        <ele>220.2002</ele>
        <time>2026-05-17T08:50:34+02:00</time>
      </trkpt>
      <trkpt lat="47.81803" lon="5.98103">
        <ele>220.2998</ele>
        <time>2026-05-17T08:50:35+02:00</time>
      </trkpt>
      <trkpt lat="47.81808" lon="5.98096">
        <ele>220.10059</ele>
        <time>2026-05-17T08:50:36+02:00</time>
      </trkpt>
      <trkpt lat="47.81812" lon="5.98089">
        <ele>220</ele>
        <time>2026-05-17T08:50:37+02:00</time>
      </trkpt>
      <trkpt lat="47.81817" lon="5.98082">
        <ele>219.7998</ele>
        <time>2026-05-17T08:50:38+02:00</time>
      </trkpt>
      <trkpt lat="47.81822" lon="5.98075">
        <ele>219.7998</ele>
        <time>2026-05-17T08:50:39+02:00</time>
      </trkpt>
      <trkpt lat="47.81827" lon="5.98067">
        <ele>219.7002</ele>
        <time>2026-05-17T08:50:40+02:00</time>
      </trkpt>
      <trkpt lat="47.81831" lon="5.9806">
        <ele>219.7998</ele>
        <time>2026-05-17T08:50:41+02:00</time>
      </trkpt>
      <trkpt lat="47.81836" lon="5.98052">
        <ele>219.7002</ele>
        <time>2026-05-17T08:50:42+02:00</time>
      </trkpt>
      <trkpt lat="47.8184" lon="5.98044">
        <ele>219.5</ele>
        <time>2026-05-17T08:50:43+02:00</time>
      </trkpt>
      <trkpt lat="47.81845" lon="5.98036">
        <ele>219.2998</ele>
        <time>2026-05-17T08:50:44+02:00</time>
      </trkpt>
      <trkpt lat="47.81849" lon="5.98028">
        <ele>219.2002</ele>
        <time>2026-05-17T08:50:45+02:00</time>
      </trkpt>
      <trkpt lat="47.81854" lon="5.9802">
        <ele>219</ele>
        <time>2026-05-17T08:50:46+02:00</time>
      </trkpt>
      <trkpt lat="47.81859" lon="5.98012">
        <ele>218.7998</ele>
        <time>2026-05-17T08:50:47+02:00</time>
      </trkpt>
      <trkpt lat="47.81864" lon="5.98005">
        <ele>218.60059</ele>
        <time>2026-05-17T08:50:48+02:00</time>
      </trkpt>
      <trkpt lat="47.81868" lon="5.97997">
        <ele>218.40039</ele>
        <time>2026-05-17T08:50:49+02:00</time>
      </trkpt>
      <trkpt lat="47.81873" lon="5.97989">
        <ele>218.2002</ele>
        <time>2026-05-17T08:50:50+02:00</time>
      </trkpt>
      <trkpt lat="47.81878" lon="5.97981">
        <ele>218.10059</ele>
        <time>2026-05-17T08:50:51+02:00</time>
      </trkpt>
      <trkpt lat="47.81883" lon="5.97974">
        <ele>218.10059</ele>
        <time>2026-05-17T08:50:52+02:00</time>
      </trkpt>
      <trkpt lat="47.81888" lon="5.97966">
        <ele>218</ele>
        <time>2026-05-17T08:50:53+02:00</time>
      </trkpt>
      <trkpt lat="47.81893" lon="5.97958">
        <ele>217.90039</ele>
        <time>2026-05-17T08:50:54+02:00</time>
      </trkpt>
      <trkpt lat="47.81899" lon="5.97951">
        <ele>217.7998</ele>
        <time>2026-05-17T08:50:55+02:00</time>
      </trkpt>
      <trkpt lat="47.81904" lon="5.97944">
        <ele>217.7002</ele>
        <time>2026-05-17T08:50:56+02:00</time>
      </trkpt>
      <trkpt lat="47.81909" lon="5.97938">
        <ele>217.60059</ele>
        <time>2026-05-17T08:50:57+02:00</time>
      </trkpt>
      <trkpt lat="47.81914" lon="5.97932">
        <ele>217.60059</ele>
        <time>2026-05-17T08:50:58+02:00</time>
      </trkpt>
      <trkpt lat="47.81919" lon="5.97926">
        <ele>217.60059</ele>
        <time>2026-05-17T08:50:59+02:00</time>
      </trkpt>
      <trkpt lat="47.81925" lon="5.9792">
        <ele>217.5</ele>
        <time>2026-05-17T08:51:00+02:00</time>
      </trkpt>
      <trkpt lat="47.8193" lon="5.97914">
        <ele>217.60059</ele>
        <time>2026-05-17T08:51:01+02:00</time>
      </trkpt>
      <trkpt lat="47.81935" lon="5.97908">
        <ele>217.5</ele>
        <time>2026-05-17T08:51:02+02:00</time>
      </trkpt>
      <trkpt lat="47.8194" lon="5.97902">
        <ele>217.5</ele>
        <time>2026-05-17T08:51:03+02:00</time>
      </trkpt>
      <trkpt lat="47.81945" lon="5.97897">
        <ele>217.5</ele>
        <time>2026-05-17T08:51:04+02:00</time>
      </trkpt>
      <trkpt lat="47.8195" lon="5.97891">
        <ele>217.5</ele>
        <time>2026-05-17T08:51:05+02:00</time>
      </trkpt>
      <trkpt lat="47.81956" lon="5.97885">
        <ele>217.5</ele>
        <time>2026-05-17T08:51:06+02:00</time>
      </trkpt>
      <trkpt lat="47.81961" lon="5.9788">
        <ele>217.5</ele>
        <time>2026-05-17T08:51:07+02:00</time>
      </trkpt>
      <trkpt lat="47.81967" lon="5.97874">
        <ele>217.5</ele>
        <time>2026-05-17T08:51:08+02:00</time>
      </trkpt>
      <trkpt lat="47.81972" lon="5.97869">
        <ele>217.40039</ele>
        <time>2026-05-17T08:51:09+02:00</time>
      </trkpt>
      <trkpt lat="47.81978" lon="5.97863">
        <ele>217.5</ele>
        <time>2026-05-17T08:51:10+02:00</time>
      </trkpt>
      <trkpt lat="47.81983" lon="5.97857">
        <ele>217.5</ele>
        <time>2026-05-17T08:51:11+02:00</time>
      </trkpt>
      <trkpt lat="47.81989" lon="5.97852">
        <ele>217.5</ele>
        <time>2026-05-17T08:51:12+02:00</time>
      </trkpt>
      <trkpt lat="47.81994" lon="5.97846">
        <ele>217.60059</ele>
        <time>2026-05-17T08:51:13+02:00</time>
      </trkpt>
      <trkpt lat="47.82" lon="5.9784">
        <ele>217.60059</ele>
        <time>2026-05-17T08:51:14+02:00</time>
      </trkpt>
      <trkpt lat="47.82005" lon="5.97834">
        <ele>217.60059</ele>
        <time>2026-05-17T08:51:15+02:00</time>
      </trkpt>
      <trkpt lat="47.8201" lon="5.97829">
        <ele>217.7002</ele>
        <time>2026-05-17T08:51:16+02:00</time>
      </trkpt>
      <trkpt lat="47.82015" lon="5.97823">
        <ele>217.7998</ele>
        <time>2026-05-17T08:51:17+02:00</time>
      </trkpt>
      <trkpt lat="47.8202" lon="5.97817">
        <ele>217.90039</ele>
        <time>2026-05-17T08:51:18+02:00</time>
      </trkpt>
      <trkpt lat="47.82024" lon="5.9781">
        <ele>217.90039</ele>
        <time>2026-05-17T08:51:19+02:00</time>
      </trkpt>
      <trkpt lat="47.82026" lon="5.97802">
        <ele>218</ele>
        <time>2026-05-17T08:51:20+02:00</time>
      </trkpt>
      <trkpt lat="47.82026" lon="5.97794">
        <ele>218</ele>
        <time>2026-05-17T08:51:21+02:00</time>
      </trkpt>
      <trkpt lat="47.82026" lon="5.97785">
        <ele>218</ele>
        <time>2026-05-17T08:51:22+02:00</time>
      </trkpt>
      <trkpt lat="47.82026" lon="5.97775">
        <ele>218</ele>
        <time>2026-05-17T08:51:23+02:00</time>
      </trkpt>
      <trkpt lat="47.82026" lon="5.97765">
        <ele>217.90039</ele>
        <time>2026-05-17T08:51:24+02:00</time>
      </trkpt>
      <trkpt lat="47.82026" lon="5.97755">
        <ele>217.90039</ele>
        <time>2026-05-17T08:51:25+02:00</time>
      </trkpt>
      <trkpt lat="47.82026" lon="5.97745">
        <ele>217.7998</ele>
        <time>2026-05-17T08:51:26+02:00</time>
      </trkpt>
      <trkpt lat="47.82026" lon="5.97734">
        <ele>217.7002</ele>
        <time>2026-05-17T08:51:27+02:00</time>
      </trkpt>
      <trkpt lat="47.82026" lon="5.97723">
        <ele>217.5</ele>
        <time>2026-05-17T08:51:28+02:00</time>
      </trkpt>
      <trkpt lat="47.82026" lon="5.97712">
        <ele>217.40039</ele>
        <time>2026-05-17T08:51:29+02:00</time>
      </trkpt>
      <trkpt lat="47.82026" lon="5.97701">
        <ele>217.40039</ele>
        <time>2026-05-17T08:51:30+02:00</time>
      </trkpt>
      <trkpt lat="47.82026" lon="5.97691">
        <ele>217.2998</ele>
        <time>2026-05-17T08:51:31+02:00</time>
      </trkpt>
      <trkpt lat="47.82027" lon="5.9768">
        <ele>217.10059</ele>
        <time>2026-05-17T08:51:32+02:00</time>
      </trkpt>
      <trkpt lat="47.82027" lon="5.9767">
        <ele>217</ele>
        <time>2026-05-17T08:51:33+02:00</time>
      </trkpt>
      <trkpt lat="47.82028" lon="5.97659">
        <ele>217</ele>
        <time>2026-05-17T08:51:34+02:00</time>
      </trkpt>
      <trkpt lat="47.82029" lon="5.97649">
        <ele>216.90039</ele>
        <time>2026-05-17T08:51:35+02:00</time>
      </trkpt>
      <trkpt lat="47.82031" lon="5.97638">
        <ele>216.90039</ele>
        <time>2026-05-17T08:51:36+02:00</time>
      </trkpt>
      <trkpt lat="47.82033" lon="5.97628">
        <ele>216.7998</ele>
        <time>2026-05-17T08:51:37+02:00</time>
      </trkpt>
      <trkpt lat="47.82035" lon="5.97618">
        <ele>216.60059</ele>
        <time>2026-05-17T08:51:38+02:00</time>
      </trkpt>
      <trkpt lat="47.82037" lon="5.97608">
        <ele>216.90039</ele>
        <time>2026-05-17T08:51:39+02:00</time>
      </trkpt>
      <trkpt lat="47.82039" lon="5.97599">
        <ele>216.90039</ele>
        <time>2026-05-17T08:51:40+02:00</time>
      </trkpt>
      <trkpt lat="47.82042" lon="5.97589">
        <ele>217.10059</ele>
        <time>2026-05-17T08:51:41+02:00</time>
      </trkpt>
      <trkpt lat="47.82045" lon="5.9758">
        <ele>216.7998</ele>
        <time>2026-05-17T08:51:42+02:00</time>
      </trkpt>
      <trkpt lat="47.82048" lon="5.97571">
        <ele>216.40039</ele>
        <time>2026-05-17T08:51:43+02:00</time>
      </trkpt>
      <trkpt lat="47.82052" lon="5.97563">
        <ele>215.60059</ele>
        <time>2026-05-17T08:51:44+02:00</time>
      </trkpt>
      <trkpt lat="47.82055" lon="5.97554">
        <ele>215.10059</ele>
        <time>2026-05-17T08:51:45+02:00</time>
      </trkpt>
      <trkpt lat="47.82058" lon="5.97546">
        <ele>214.5</ele>
        <time>2026-05-17T08:51:46+02:00</time>
      </trkpt>
      <trkpt lat="47.82062" lon="5.97538">
        <ele>214.60059</ele>
        <time>2026-05-17T08:51:47+02:00</time>
      </trkpt>
      <trkpt lat="47.82066" lon="5.97529">
        <ele>214.7998</ele>
        <time>2026-05-17T08:51:48+02:00</time>
      </trkpt>
      <trkpt lat="47.8207" lon="5.97521">
        <ele>214.10059</ele>
        <time>2026-05-17T08:51:49+02:00</time>
      </trkpt>
      <trkpt lat="47.82074" lon="5.97512">
        <ele>214</ele>
        <time>2026-05-17T08:51:50+02:00</time>
      </trkpt>
      <trkpt lat="47.82078" lon="5.97504">
        <ele>214.10059</ele>
        <time>2026-05-17T08:51:51+02:00</time>
      </trkpt>
      <trkpt lat="47.82083" lon="5.97494">
        <ele>214.2998</ele>
        <time>2026-05-17T08:51:52+02:00</time>
      </trkpt>
      <trkpt lat="47.82087" lon="5.97485">
        <ele>213.7002</ele>
        <time>2026-05-17T08:51:53+02:00</time>
      </trkpt>
      <trkpt lat="47.82091" lon="5.97475">
        <ele>213</ele>
        <time>2026-05-17T08:51:54+02:00</time>
      </trkpt>
      <trkpt lat="47.82094" lon="5.97464">
        <ele>213</ele>
        <time>2026-05-17T08:51:55+02:00</time>
      </trkpt>
      <trkpt lat="47.82097" lon="5.97453">
        <ele>212.5</ele>
        <time>2026-05-17T08:51:56+02:00</time>
      </trkpt>
      <trkpt lat="47.82098" lon="5.97441">
        <ele>211.7002</ele>
        <time>2026-05-17T08:51:57+02:00</time>
      </trkpt>
      <trkpt lat="47.82098" lon="5.97429">
        <ele>211.40039</ele>
        <time>2026-05-17T08:51:58+02:00</time>
      </trkpt>
      <trkpt lat="47.82099" lon="5.97418">
        <ele>211.2002</ele>
        <time>2026-05-17T08:51:59+02:00</time>
      </trkpt>
      <trkpt lat="47.82099" lon="5.97407">
        <ele>211.10059</ele>
        <time>2026-05-17T08:52:00+02:00</time>
      </trkpt>
      <trkpt lat="47.821" lon="5.97396">
        <ele>211</ele>
        <time>2026-05-17T08:52:01+02:00</time>
      </trkpt>
      <trkpt lat="47.821" lon="5.97385">
        <ele>211</ele>
        <time>2026-05-17T08:52:02+02:00</time>
      </trkpt>
      <trkpt lat="47.821" lon="5.97374">
        <ele>211</ele>
        <time>2026-05-17T08:52:03+02:00</time>
      </trkpt>
      <trkpt lat="47.821" lon="5.97363">
        <ele>211</ele>
        <time>2026-05-17T08:52:04+02:00</time>
      </trkpt>
      <trkpt lat="47.82101" lon="5.97352">
        <ele>211</ele>
        <time>2026-05-17T08:52:05+02:00</time>
      </trkpt>
      <trkpt lat="47.82101" lon="5.97341">
        <ele>211</ele>
        <time>2026-05-17T08:52:06+02:00</time>
      </trkpt>
      <trkpt lat="47.82101" lon="5.97331">
        <ele>211</ele>
        <time>2026-05-17T08:52:07+02:00</time>
      </trkpt>
      <trkpt lat="47.82101" lon="5.97321">
        <ele>210.90039</ele>
        <time>2026-05-17T08:52:08+02:00</time>
      </trkpt>
      <trkpt lat="47.821" lon="5.9731">
        <ele>210.90039</ele>
        <time>2026-05-17T08:52:09+02:00</time>
      </trkpt>
      <trkpt lat="47.82098" lon="5.973">
        <ele>211.10059</ele>
        <time>2026-05-17T08:52:10+02:00</time>
      </trkpt>
      <trkpt lat="47.82095" lon="5.97291">
        <ele>211.10059</ele>
        <time>2026-05-17T08:52:11+02:00</time>
      </trkpt>
      <trkpt lat="47.82091" lon="5.97283">
        <ele>211.10059</ele>
        <time>2026-05-17T08:52:12+02:00</time>
      </trkpt>
      <trkpt lat="47.82087" lon="5.97275">
        <ele>211.10059</ele>
        <time>2026-05-17T08:52:13+02:00</time>
      </trkpt>
      <trkpt lat="47.82082" lon="5.97267">
        <ele>211</ele>
        <time>2026-05-17T08:52:14+02:00</time>
      </trkpt>
      <trkpt lat="47.82079" lon="5.97259">
        <ele>211</ele>
        <time>2026-05-17T08:52:15+02:00</time>
      </trkpt>
      <trkpt lat="47.82075" lon="5.9725">
        <ele>211</ele>
        <time>2026-05-17T08:52:16+02:00</time>
      </trkpt>
      <trkpt lat="47.82072" lon="5.9724">
        <ele>211</ele>
        <time>2026-05-17T08:52:17+02:00</time>
      </trkpt>
      <trkpt lat="47.8207" lon="5.9723">
        <ele>211.10059</ele>
        <time>2026-05-17T08:52:18+02:00</time>
      </trkpt>
      <trkpt lat="47.82068" lon="5.97219">
        <ele>211.10059</ele>
        <time>2026-05-17T08:52:19+02:00</time>
      </trkpt>
      <trkpt lat="47.82066" lon="5.97209">
        <ele>211.10059</ele>
        <time>2026-05-17T08:52:20+02:00</time>
      </trkpt>
      <trkpt lat="47.82064" lon="5.97198">
        <ele>211</ele>
        <time>2026-05-17T08:52:21+02:00</time>
      </trkpt>
      <trkpt lat="47.82062" lon="5.97188">
        <ele>211</ele>
        <time>2026-05-17T08:52:22+02:00</time>
      </trkpt>
      <trkpt lat="47.82061" lon="5.97178">
        <ele>210.90039</ele>
        <time>2026-05-17T08:52:23+02:00</time>
      </trkpt>
      <trkpt lat="47.82059" lon="5.97167">
        <ele>210.7998</ele>
        <time>2026-05-17T08:52:24+02:00</time>
      </trkpt>
      <trkpt lat="47.82058" lon="5.97157">
        <ele>210.7998</ele>
        <time>2026-05-17T08:52:25+02:00</time>
      </trkpt>
      <trkpt lat="47.82057" lon="5.97147">
        <ele>210.90039</ele>
        <time>2026-05-17T08:52:26+02:00</time>
      </trkpt>
      <trkpt lat="47.82055" lon="5.97137">
        <ele>211.10059</ele>
        <time>2026-05-17T08:52:27+02:00</time>
      </trkpt>
      <trkpt lat="47.82054" lon="5.97127">
        <ele>211.40039</ele>
        <time>2026-05-17T08:52:28+02:00</time>
      </trkpt>
      <trkpt lat="47.82053" lon="5.97117">
        <ele>211.2998</ele>
        <time>2026-05-17T08:52:29+02:00</time>
      </trkpt>
      <trkpt lat="47.82052" lon="5.97108">
        <ele>211.40039</ele>
        <time>2026-05-17T08:52:30+02:00</time>
      </trkpt>
      <trkpt lat="47.8205" lon="5.97098">
        <ele>211.5</ele>
        <time>2026-05-17T08:52:31+02:00</time>
      </trkpt>
      <trkpt lat="47.82049" lon="5.97088">
        <ele>211.5</ele>
        <time>2026-05-17T08:52:32+02:00</time>
      </trkpt>
      <trkpt lat="47.82049" lon="5.97078">
        <ele>211.60059</ele>
        <time>2026-05-17T08:52:33+02:00</time>
      </trkpt>
      <trkpt lat="47.82047" lon="5.97068">
        <ele>211.10059</ele>
        <time>2026-05-17T08:52:34+02:00</time>
      </trkpt>
      <trkpt lat="47.82047" lon="5.97058">
        <ele>211.10059</ele>
        <time>2026-05-17T08:52:35+02:00</time>
      </trkpt>
      <trkpt lat="47.82047" lon="5.97047">
        <ele>211.2002</ele>
        <time>2026-05-17T08:52:36+02:00</time>
      </trkpt>
      <trkpt lat="47.82047" lon="5.97037">
        <ele>212.2002</ele>
        <time>2026-05-17T08:52:37+02:00</time>
      </trkpt>
      <trkpt lat="47.82046" lon="5.97026">
        <ele>212.7998</ele>
        <time>2026-05-17T08:52:38+02:00</time>
      </trkpt>
      <trkpt lat="47.82046" lon="5.97016">
        <ele>213.2998</ele>
        <time>2026-05-17T08:52:39+02:00</time>
      </trkpt>
      <trkpt lat="47.82046" lon="5.97005">
        <ele>213.60059</ele>
        <time>2026-05-17T08:52:40+02:00</time>
      </trkpt>
      <trkpt lat="47.82046" lon="5.96995">
        <ele>214.40039</ele>
        <time>2026-05-17T08:52:41+02:00</time>
      </trkpt>
      <trkpt lat="47.82046" lon="5.96984">
        <ele>214.7002</ele>
        <time>2026-05-17T08:52:42+02:00</time>
      </trkpt>
      <trkpt lat="47.82046" lon="5.96974">
        <ele>214.90039</ele>
        <time>2026-05-17T08:52:43+02:00</time>
      </trkpt>
      <trkpt lat="47.82046" lon="5.96964">
        <ele>215</ele>
        <time>2026-05-17T08:52:44+02:00</time>
      </trkpt>
      <trkpt lat="47.82047" lon="5.96954">
        <ele>215.10059</ele>
        <time>2026-05-17T08:52:45+02:00</time>
      </trkpt>
      <trkpt lat="47.82047" lon="5.96944">
        <ele>215.2998</ele>
        <time>2026-05-17T08:52:46+02:00</time>
      </trkpt>
      <trkpt lat="47.82047" lon="5.96934">
        <ele>215.90039</ele>
        <time>2026-05-17T08:52:47+02:00</time>
      </trkpt>
      <trkpt lat="47.82047" lon="5.96924">
        <ele>216.10059</ele>
        <time>2026-05-17T08:52:48+02:00</time>
      </trkpt>
      <trkpt lat="47.82048" lon="5.96914">
        <ele>216.2998</ele>
        <time>2026-05-17T08:52:49+02:00</time>
      </trkpt>
      <trkpt lat="47.82049" lon="5.96904">
        <ele>216.2998</ele>
        <time>2026-05-17T08:52:50+02:00</time>
      </trkpt>
      <trkpt lat="47.82049" lon="5.96894">
        <ele>216.40039</ele>
        <time>2026-05-17T08:52:51+02:00</time>
      </trkpt>
      <trkpt lat="47.8205" lon="5.96884">
        <ele>216.40039</ele>
        <time>2026-05-17T08:52:52+02:00</time>
      </trkpt>
      <trkpt lat="47.82051" lon="5.96875">
        <ele>216.40039</ele>
        <time>2026-05-17T08:52:53+02:00</time>
      </trkpt>
      <trkpt lat="47.82052" lon="5.96865">
        <ele>216.2998</ele>
        <time>2026-05-17T08:52:54+02:00</time>
      </trkpt>
      <trkpt lat="47.82054" lon="5.96855">
        <ele>216.60059</ele>
        <time>2026-05-17T08:52:55+02:00</time>
      </trkpt>
      <trkpt lat="47.82055" lon="5.96844">
        <ele>216.7002</ele>
        <time>2026-05-17T08:52:56+02:00</time>
      </trkpt>
      <trkpt lat="47.82057" lon="5.96834">
        <ele>216.7002</ele>
        <time>2026-05-17T08:52:57+02:00</time>
      </trkpt>
      <trkpt lat="47.82059" lon="5.96824">
        <ele>217.10059</ele>
        <time>2026-05-17T08:52:58+02:00</time>
      </trkpt>
      <trkpt lat="47.8206" lon="5.96813">
        <ele>217.2998</ele>
        <time>2026-05-17T08:52:59+02:00</time>
      </trkpt>
      <trkpt lat="47.82061" lon="5.96803">
        <ele>217.5</ele>
        <time>2026-05-17T08:53:00+02:00</time>
      </trkpt>
      <trkpt lat="47.82062" lon="5.96792">
        <ele>217.60059</ele>
        <time>2026-05-17T08:53:01+02:00</time>
      </trkpt>
      <trkpt lat="47.82063" lon="5.96782">
        <ele>217.7998</ele>
        <time>2026-05-17T08:53:02+02:00</time>
      </trkpt>
      <trkpt lat="47.82063" lon="5.96772">
        <ele>218</ele>
        <time>2026-05-17T08:53:03+02:00</time>
      </trkpt>
      <trkpt lat="47.82063" lon="5.96761">
        <ele>218.10059</ele>
        <time>2026-05-17T08:53:04+02:00</time>
      </trkpt>
      <trkpt lat="47.82063" lon="5.96751">
        <ele>218.2998</ele>
        <time>2026-05-17T08:53:05+02:00</time>
      </trkpt>
      <trkpt lat="47.82064" lon="5.96741">
        <ele>218.40039</ele>
        <time>2026-05-17T08:53:06+02:00</time>
      </trkpt>
      <trkpt lat="47.82064" lon="5.96731">
        <ele>218.60059</ele>
        <time>2026-05-17T08:53:07+02:00</time>
      </trkpt>
      <trkpt lat="47.82064" lon="5.9672">
        <ele>218.7998</ele>
        <time>2026-05-17T08:53:08+02:00</time>
      </trkpt>
      <trkpt lat="47.82065" lon="5.9671">
        <ele>219.2002</ele>
        <time>2026-05-17T08:53:09+02:00</time>
      </trkpt>
      <trkpt lat="47.82065" lon="5.967">
        <ele>219.2002</ele>
        <time>2026-05-17T08:53:10+02:00</time>
      </trkpt>
      <trkpt lat="47.82066" lon="5.96689">
        <ele>219.10059</ele>
        <time>2026-05-17T08:53:11+02:00</time>
      </trkpt>
      <trkpt lat="47.82066" lon="5.96679">
        <ele>219.10059</ele>
        <time>2026-05-17T08:53:12+02:00</time>
      </trkpt>
      <trkpt lat="47.82066" lon="5.96669">
        <ele>219.2002</ele>
        <time>2026-05-17T08:53:13+02:00</time>
      </trkpt>
      <trkpt lat="47.82066" lon="5.96659">
        <ele>219.2998</ele>
        <time>2026-05-17T08:53:14+02:00</time>
      </trkpt>
      <trkpt lat="47.82067" lon="5.96648">
        <ele>219.5</ele>
        <time>2026-05-17T08:53:15+02:00</time>
      </trkpt>
      <trkpt lat="47.82068" lon="5.96638">
        <ele>219.7002</ele>
        <time>2026-05-17T08:53:16+02:00</time>
      </trkpt>
      <trkpt lat="47.82068" lon="5.96628">
        <ele>220.10059</ele>
        <time>2026-05-17T08:53:17+02:00</time>
      </trkpt>
      <trkpt lat="47.82068" lon="5.96618">
        <ele>220.40039</ele>
        <time>2026-05-17T08:53:18+02:00</time>
      </trkpt>
      <trkpt lat="47.82068" lon="5.96607">
        <ele>220.60059</ele>
        <time>2026-05-17T08:53:19+02:00</time>
      </trkpt>
      <trkpt lat="47.82067" lon="5.96597">
        <ele>220.60059</ele>
        <time>2026-05-17T08:53:20+02:00</time>
      </trkpt>
      <trkpt lat="47.82067" lon="5.96587">
        <ele>220.60059</ele>
        <time>2026-05-17T08:53:21+02:00</time>
      </trkpt>
      <trkpt lat="47.82066" lon="5.96576">
        <ele>220.60059</ele>
        <time>2026-05-17T08:53:22+02:00</time>
      </trkpt>
      <trkpt lat="47.82066" lon="5.96566">
        <ele>220.60059</ele>
        <time>2026-05-17T08:53:23+02:00</time>
      </trkpt>
      <trkpt lat="47.82065" lon="5.96555">
        <ele>220.60059</ele>
        <time>2026-05-17T08:53:24+02:00</time>
      </trkpt>
      <trkpt lat="47.82065" lon="5.96545">
        <ele>220.60059</ele>
        <time>2026-05-17T08:53:25+02:00</time>
      </trkpt>
      <trkpt lat="47.82064" lon="5.96534">
        <ele>220</ele>
        <time>2026-05-17T08:53:26+02:00</time>
      </trkpt>
      <trkpt lat="47.82063" lon="5.96524">
        <ele>220.10059</ele>
        <time>2026-05-17T08:53:27+02:00</time>
      </trkpt>
      <trkpt lat="47.82063" lon="5.96513">
        <ele>220.10059</ele>
        <time>2026-05-17T08:53:28+02:00</time>
      </trkpt>
      <trkpt lat="47.82062" lon="5.96502">
        <ele>220.10059</ele>
        <time>2026-05-17T08:53:29+02:00</time>
      </trkpt>
      <trkpt lat="47.82062" lon="5.96492">
        <ele>220.10059</ele>
        <time>2026-05-17T08:53:30+02:00</time>
      </trkpt>
      <trkpt lat="47.82062" lon="5.96481">
        <ele>220.10059</ele>
        <time>2026-05-17T08:53:31+02:00</time>
      </trkpt>
      <trkpt lat="47.82061" lon="5.9647">
        <ele>220.10059</ele>
        <time>2026-05-17T08:53:32+02:00</time>
      </trkpt>
      <trkpt lat="47.82061" lon="5.96459">
        <ele>220</ele>
        <time>2026-05-17T08:53:33+02:00</time>
      </trkpt>
      <trkpt lat="47.8206" lon="5.96448">
        <ele>220</ele>
        <time>2026-05-17T08:53:34+02:00</time>
      </trkpt>
      <trkpt lat="47.8206" lon="5.96437">
        <ele>219.90039</ele>
        <time>2026-05-17T08:53:35+02:00</time>
      </trkpt>
      <trkpt lat="47.8206" lon="5.96426">
        <ele>219.7998</ele>
        <time>2026-05-17T08:53:36+02:00</time>
      </trkpt>
      <trkpt lat="47.82059" lon="5.96415">
        <ele>219.7998</ele>
        <time>2026-05-17T08:53:37+02:00</time>
      </trkpt>
      <trkpt lat="47.82058" lon="5.96404">
        <ele>218.7002</ele>
        <time>2026-05-17T08:53:38+02:00</time>
      </trkpt>
      <trkpt lat="47.82058" lon="5.96394">
        <ele>218.5</ele>
        <time>2026-05-17T08:53:39+02:00</time>
      </trkpt>
      <trkpt lat="47.82058" lon="5.96383">
        <ele>218.2998</ele>
        <time>2026-05-17T08:53:40+02:00</time>
      </trkpt>
      <trkpt lat="47.82058" lon="5.96372">
        <ele>217.7998</ele>
        <time>2026-05-17T08:53:41+02:00</time>
      </trkpt>
      <trkpt lat="47.82058" lon="5.96361">
        <ele>217.10059</ele>
        <time>2026-05-17T08:53:42+02:00</time>
      </trkpt>
      <trkpt lat="47.82058" lon="5.9635">
        <ele>215.60059</ele>
        <time>2026-05-17T08:53:43+02:00</time>
      </trkpt>
      <trkpt lat="47.82058" lon="5.9634">
        <ele>215.10059</ele>
        <time>2026-05-17T08:53:44+02:00</time>
      </trkpt>
      <trkpt lat="47.82058" lon="5.96329">
        <ele>214.60059</ele>
        <time>2026-05-17T08:53:45+02:00</time>
      </trkpt>
      <trkpt lat="47.82058" lon="5.96318">
        <ele>214.10059</ele>
        <time>2026-05-17T08:53:46+02:00</time>
      </trkpt>
      <trkpt lat="47.82059" lon="5.96307">
        <ele>213.7998</ele>
        <time>2026-05-17T08:53:47+02:00</time>
      </trkpt>
      <trkpt lat="47.8206" lon="5.96297">
        <ele>212.90039</ele>
        <time>2026-05-17T08:53:48+02:00</time>
      </trkpt>
      <trkpt lat="47.8206" lon="5.96286">
        <ele>212</ele>
        <time>2026-05-17T08:53:49+02:00</time>
      </trkpt>
      <trkpt lat="47.8206" lon="5.96275">
        <ele>211.40039</ele>
        <time>2026-05-17T08:53:50+02:00</time>
      </trkpt>
      <trkpt lat="47.8206" lon="5.96265">
        <ele>211.5</ele>
        <time>2026-05-17T08:53:51+02:00</time>
      </trkpt>
      <trkpt lat="47.82061" lon="5.96254">
        <ele>211.5</ele>
        <time>2026-05-17T08:53:52+02:00</time>
      </trkpt>
      <trkpt lat="47.82061" lon="5.96243">
        <ele>211.5</ele>
        <time>2026-05-17T08:53:53+02:00</time>
      </trkpt>
      <trkpt lat="47.82064" lon="5.962">
        <ele>211.7002</ele>
        <time>2026-05-17T08:53:54+02:00</time>
      </trkpt>
      <trkpt lat="47.82065" lon="5.9619">
        <ele>212.7998</ele>
        <time>2026-05-17T08:53:55+02:00</time>
      </trkpt>
      <trkpt lat="47.82065" lon="5.9618">
        <ele>212.90039</ele>
        <time>2026-05-17T08:53:56+02:00</time>
      </trkpt>
      <trkpt lat="47.82065" lon="5.96169">
        <ele>213.10059</ele>
        <time>2026-05-17T08:53:57+02:00</time>
      </trkpt>
      <trkpt lat="47.82066" lon="5.96159">
        <ele>213.2998</ele>
        <time>2026-05-17T08:53:58+02:00</time>
      </trkpt>
      <trkpt lat="47.82067" lon="5.96149">
        <ele>213.60059</ele>
        <time>2026-05-17T08:53:59+02:00</time>
      </trkpt>
      <trkpt lat="47.82068" lon="5.96138">
        <ele>213.90039</ele>
        <time>2026-05-17T08:54:00+02:00</time>
      </trkpt>
      <trkpt lat="47.82068" lon="5.96128">
        <ele>215</ele>
        <time>2026-05-17T08:54:01+02:00</time>
      </trkpt>
      <trkpt lat="47.82069" lon="5.96117">
        <ele>215.5</ele>
        <time>2026-05-17T08:54:02+02:00</time>
      </trkpt>
      <trkpt lat="47.8207" lon="5.96106">
        <ele>216</ele>
        <time>2026-05-17T08:54:03+02:00</time>
      </trkpt>
      <trkpt lat="47.82071" lon="5.96096">
        <ele>217.2002</ele>
        <time>2026-05-17T08:54:04+02:00</time>
      </trkpt>
      <trkpt lat="47.82071" lon="5.96085">
        <ele>218</ele>
        <time>2026-05-17T08:54:05+02:00</time>
      </trkpt>
      <trkpt lat="47.82073" lon="5.96075">
        <ele>218.10059</ele>
        <time>2026-05-17T08:54:06+02:00</time>
      </trkpt>
      <trkpt lat="47.82073" lon="5.96064">
        <ele>218</ele>
        <time>2026-05-17T08:54:07+02:00</time>
      </trkpt>
      <trkpt lat="47.82074" lon="5.96053">
        <ele>217.90039</ele>
        <time>2026-05-17T08:54:08+02:00</time>
      </trkpt>
      <trkpt lat="47.82075" lon="5.96043">
        <ele>217.7002</ele>
        <time>2026-05-17T08:54:09+02:00</time>
      </trkpt>
      <trkpt lat="47.82077" lon="5.96032">
        <ele>217.7998</ele>
        <time>2026-05-17T08:54:10+02:00</time>
      </trkpt>
      <trkpt lat="47.82078" lon="5.96021">
        <ele>217.60059</ele>
        <time>2026-05-17T08:54:11+02:00</time>
      </trkpt>
      <trkpt lat="47.82079" lon="5.96011">
        <ele>217.5</ele>
        <time>2026-05-17T08:54:12+02:00</time>
      </trkpt>
      <trkpt lat="47.8208" lon="5.96">
        <ele>217.2998</ele>
        <time>2026-05-17T08:54:13+02:00</time>
      </trkpt>
      <trkpt lat="47.82081" lon="5.95989">
        <ele>217</ele>
        <time>2026-05-17T08:54:14+02:00</time>
      </trkpt>
      <trkpt lat="47.82083" lon="5.95978">
        <ele>217</ele>
        <time>2026-05-17T08:54:15+02:00</time>
      </trkpt>
      <trkpt lat="47.82084" lon="5.95967">
        <ele>216.7998</ele>
        <time>2026-05-17T08:54:16+02:00</time>
      </trkpt>
      <trkpt lat="47.82085" lon="5.95956">
        <ele>216.2998</ele>
        <time>2026-05-17T08:54:17+02:00</time>
      </trkpt>
      <trkpt lat="47.82087" lon="5.95945">
        <ele>216.10059</ele>
        <time>2026-05-17T08:54:18+02:00</time>
      </trkpt>
      <trkpt lat="47.82088" lon="5.95934">
        <ele>216</ele>
        <time>2026-05-17T08:54:19+02:00</time>
      </trkpt>
      <trkpt lat="47.8209" lon="5.95923">
        <ele>215.90039</ele>
        <time>2026-05-17T08:54:20+02:00</time>
      </trkpt>
      <trkpt lat="47.82091" lon="5.95912">
        <ele>215.60059</ele>
        <time>2026-05-17T08:54:21+02:00</time>
      </trkpt>
      <trkpt lat="47.82093" lon="5.95902">
        <ele>215.60059</ele>
        <time>2026-05-17T08:54:22+02:00</time>
      </trkpt>
      <trkpt lat="47.82095" lon="5.95891">
        <ele>215.7002</ele>
        <time>2026-05-17T08:54:23+02:00</time>
      </trkpt>
      <trkpt lat="47.82097" lon="5.95881">
        <ele>215.7002</ele>
        <time>2026-05-17T08:54:24+02:00</time>
      </trkpt>
      <trkpt lat="47.82099" lon="5.9587">
        <ele>215.60059</ele>
        <time>2026-05-17T08:54:25+02:00</time>
      </trkpt>
      <trkpt lat="47.821" lon="5.95859">
        <ele>215.7998</ele>
        <time>2026-05-17T08:54:26+02:00</time>
      </trkpt>
      <trkpt lat="47.82102" lon="5.95848">
        <ele>215.7998</ele>
        <time>2026-05-17T08:54:27+02:00</time>
      </trkpt>
      <trkpt lat="47.82104" lon="5.95838">
        <ele>215.7998</ele>
        <time>2026-05-17T08:54:28+02:00</time>
      </trkpt>
      <trkpt lat="47.82106" lon="5.95827">
        <ele>216</ele>
        <time>2026-05-17T08:54:29+02:00</time>
      </trkpt>
      <trkpt lat="47.82108" lon="5.95817">
        <ele>216</ele>
        <time>2026-05-17T08:54:30+02:00</time>
      </trkpt>
      <trkpt lat="47.82109" lon="5.95806">
        <ele>216.10059</ele>
        <time>2026-05-17T08:54:31+02:00</time>
      </trkpt>
      <trkpt lat="47.82111" lon="5.95796">
        <ele>216.2998</ele>
        <time>2026-05-17T08:54:32+02:00</time>
      </trkpt>
      <trkpt lat="47.82113" lon="5.95786">
        <ele>216.40039</ele>
        <time>2026-05-17T08:54:33+02:00</time>
      </trkpt>
      <trkpt lat="47.82115" lon="5.95775">
        <ele>216.5</ele>
        <time>2026-05-17T08:54:34+02:00</time>
      </trkpt>
      <trkpt lat="47.82117" lon="5.95765">
        <ele>216.90039</ele>
        <time>2026-05-17T08:54:35+02:00</time>
      </trkpt>
      <trkpt lat="47.82119" lon="5.95754">
        <ele>216.90039</ele>
        <time>2026-05-17T08:54:36+02:00</time>
      </trkpt>
      <trkpt lat="47.82121" lon="5.95743">
        <ele>217</ele>
        <time>2026-05-17T08:54:37+02:00</time>
      </trkpt>
      <trkpt lat="47.82123" lon="5.95733">
        <ele>217.40039</ele>
        <time>2026-05-17T08:54:38+02:00</time>
      </trkpt>
      <trkpt lat="47.82125" lon="5.95722">
        <ele>217.5</ele>
        <time>2026-05-17T08:54:39+02:00</time>
      </trkpt>
      <trkpt lat="47.82127" lon="5.95711">
        <ele>217.60059</ele>
        <time>2026-05-17T08:54:40+02:00</time>
      </trkpt>
      <trkpt lat="47.82128" lon="5.957">
        <ele>218</ele>
        <time>2026-05-17T08:54:41+02:00</time>
      </trkpt>
      <trkpt lat="47.82129" lon="5.95689">
        <ele>218.10059</ele>
        <time>2026-05-17T08:54:42+02:00</time>
      </trkpt>
      <trkpt lat="47.82131" lon="5.95678">
        <ele>218.10059</ele>
        <time>2026-05-17T08:54:43+02:00</time>
      </trkpt>
      <trkpt lat="47.82132" lon="5.95667">
        <ele>218.2002</ele>
        <time>2026-05-17T08:54:44+02:00</time>
      </trkpt>
      <trkpt lat="47.82134" lon="5.95656">
        <ele>218.10059</ele>
        <time>2026-05-17T08:54:45+02:00</time>
      </trkpt>
      <trkpt lat="47.82135" lon="5.95645">
        <ele>218.40039</ele>
        <time>2026-05-17T08:54:46+02:00</time>
      </trkpt>
      <trkpt lat="47.82136" lon="5.95635">
        <ele>218.40039</ele>
        <time>2026-05-17T08:54:47+02:00</time>
      </trkpt>
      <trkpt lat="47.82137" lon="5.95624">
        <ele>218.40039</ele>
        <time>2026-05-17T08:54:48+02:00</time>
      </trkpt>
      <trkpt lat="47.82138" lon="5.95614">
        <ele>218.40039</ele>
        <time>2026-05-17T08:54:49+02:00</time>
      </trkpt>
      <trkpt lat="47.82139" lon="5.95604">
        <ele>218.40039</ele>
        <time>2026-05-17T08:54:50+02:00</time>
      </trkpt>
      <trkpt lat="47.8214" lon="5.95594">
        <ele>218.7998</ele>
        <time>2026-05-17T08:54:51+02:00</time>
      </trkpt>
      <trkpt lat="47.8214" lon="5.95583">
        <ele>218.7998</ele>
        <time>2026-05-17T08:54:52+02:00</time>
      </trkpt>
      <trkpt lat="47.82142" lon="5.95573">
        <ele>218.90039</ele>
        <time>2026-05-17T08:54:53+02:00</time>
      </trkpt>
      <trkpt lat="47.82143" lon="5.95563">
        <ele>219</ele>
        <time>2026-05-17T08:54:54+02:00</time>
      </trkpt>
      <trkpt lat="47.82144" lon="5.95553">
        <ele>219.40039</ele>
        <time>2026-05-17T08:54:55+02:00</time>
      </trkpt>
      <trkpt lat="47.82145" lon="5.95543">
        <ele>219.7002</ele>
        <time>2026-05-17T08:54:56+02:00</time>
      </trkpt>
      <trkpt lat="47.82145" lon="5.95532">
        <ele>219.7998</ele>
        <time>2026-05-17T08:54:57+02:00</time>
      </trkpt>
      <trkpt lat="47.82146" lon="5.95522">
        <ele>220.40039</ele>
        <time>2026-05-17T08:54:58+02:00</time>
      </trkpt>
      <trkpt lat="47.82147" lon="5.95511">
        <ele>220.5</ele>
        <time>2026-05-17T08:54:59+02:00</time>
      </trkpt>
      <trkpt lat="47.82148" lon="5.95501">
        <ele>220.60059</ele>
        <time>2026-05-17T08:55:00+02:00</time>
      </trkpt>
      <trkpt lat="47.82149" lon="5.9549">
        <ele>220.5</ele>
        <time>2026-05-17T08:55:01+02:00</time>
      </trkpt>
      <trkpt lat="47.8215" lon="5.95479">
        <ele>220.5</ele>
        <time>2026-05-17T08:55:02+02:00</time>
      </trkpt>
      <trkpt lat="47.82151" lon="5.95468">
        <ele>220.5</ele>
        <time>2026-05-17T08:55:03+02:00</time>
      </trkpt>
      <trkpt lat="47.82152" lon="5.95457">
        <ele>220.90039</ele>
        <time>2026-05-17T08:55:04+02:00</time>
      </trkpt>
      <trkpt lat="47.82153" lon="5.95447">
        <ele>220.7998</ele>
        <time>2026-05-17T08:55:05+02:00</time>
      </trkpt>
      <trkpt lat="47.82155" lon="5.95436">
        <ele>220.7002</ele>
        <time>2026-05-17T08:55:06+02:00</time>
      </trkpt>
      <trkpt lat="47.82156" lon="5.95426">
        <ele>220.7002</ele>
        <time>2026-05-17T08:55:07+02:00</time>
      </trkpt>
      <trkpt lat="47.82158" lon="5.95416">
        <ele>221</ele>
        <time>2026-05-17T08:55:08+02:00</time>
      </trkpt>
      <trkpt lat="47.8216" lon="5.95406">
        <ele>220.90039</ele>
        <time>2026-05-17T08:55:09+02:00</time>
      </trkpt>
      <trkpt lat="47.82162" lon="5.95396">
        <ele>220.90039</ele>
        <time>2026-05-17T08:55:10+02:00</time>
      </trkpt>
      <trkpt lat="47.82164" lon="5.95386">
        <ele>221.2998</ele>
        <time>2026-05-17T08:55:11+02:00</time>
      </trkpt>
      <trkpt lat="47.82166" lon="5.95377">
        <ele>221.2998</ele>
        <time>2026-05-17T08:55:12+02:00</time>
      </trkpt>
      <trkpt lat="47.82169" lon="5.95368">
        <ele>221.40039</ele>
        <time>2026-05-17T08:55:13+02:00</time>
      </trkpt>
      <trkpt lat="47.82172" lon="5.95359">
        <ele>221</ele>
        <time>2026-05-17T08:55:14+02:00</time>
      </trkpt>
      <trkpt lat="47.82175" lon="5.95351">
        <ele>221.40039</ele>
        <time>2026-05-17T08:55:15+02:00</time>
      </trkpt>
      <trkpt lat="47.82178" lon="5.95343">
        <ele>221.10059</ele>
        <time>2026-05-17T08:55:16+02:00</time>
      </trkpt>
      <trkpt lat="47.82181" lon="5.95335">
        <ele>221.7002</ele>
        <time>2026-05-17T08:55:17+02:00</time>
      </trkpt>
      <trkpt lat="47.82184" lon="5.95327">
        <ele>221.60059</ele>
        <time>2026-05-17T08:55:18+02:00</time>
      </trkpt>
      <trkpt lat="47.82187" lon="5.9532">
        <ele>222.10059</ele>
        <time>2026-05-17T08:55:19+02:00</time>
      </trkpt>
      <trkpt lat="47.8219" lon="5.95313">
        <ele>221.90039</ele>
        <time>2026-05-17T08:55:20+02:00</time>
      </trkpt>
      <trkpt lat="47.82192" lon="5.95305">
        <ele>222.2998</ele>
        <time>2026-05-17T08:55:21+02:00</time>
      </trkpt>
      <trkpt lat="47.82195" lon="5.95298">
        <ele>221.90039</ele>
        <time>2026-05-17T08:55:22+02:00</time>
      </trkpt>
      <trkpt lat="47.82197" lon="5.95291">
        <ele>221.60059</ele>
        <time>2026-05-17T08:55:23+02:00</time>
      </trkpt>
      <trkpt lat="47.822" lon="5.95284">
        <ele>222</ele>
        <time>2026-05-17T08:55:24+02:00</time>
      </trkpt>
      <trkpt lat="47.82203" lon="5.95277">
        <ele>221.7002</ele>
        <time>2026-05-17T08:55:25+02:00</time>
      </trkpt>
      <trkpt lat="47.82206" lon="5.9527">
        <ele>221.7998</ele>
        <time>2026-05-17T08:55:26+02:00</time>
      </trkpt>
      <trkpt lat="47.82208" lon="5.95263">
        <ele>221.7998</ele>
        <time>2026-05-17T08:55:27+02:00</time>
      </trkpt>
      <trkpt lat="47.82211" lon="5.95256">
        <ele>221.60059</ele>
        <time>2026-05-17T08:55:28+02:00</time>
      </trkpt>
      <trkpt lat="47.82214" lon="5.95249">
        <ele>220.90039</ele>
        <time>2026-05-17T08:55:29+02:00</time>
      </trkpt>
      <trkpt lat="47.82216" lon="5.95241">
        <ele>221.10059</ele>
        <time>2026-05-17T08:55:30+02:00</time>
      </trkpt>
      <trkpt lat="47.82219" lon="5.95234">
        <ele>220.40039</ele>
        <time>2026-05-17T08:55:31+02:00</time>
      </trkpt>
      <trkpt lat="47.82222" lon="5.95226">
        <ele>220.60059</ele>
        <time>2026-05-17T08:55:32+02:00</time>
      </trkpt>
      <trkpt lat="47.82226" lon="5.95217">
        <ele>220.60059</ele>
        <time>2026-05-17T08:55:33+02:00</time>
      </trkpt>
      <trkpt lat="47.82229" lon="5.95209">
        <ele>219.60059</ele>
        <time>2026-05-17T08:55:34+02:00</time>
      </trkpt>
      <trkpt lat="47.82231" lon="5.95201">
        <ele>218.60059</ele>
        <time>2026-05-17T08:55:35+02:00</time>
      </trkpt>
      <trkpt lat="47.82234" lon="5.95193">
        <ele>220.10059</ele>
        <time>2026-05-17T08:55:36+02:00</time>
      </trkpt>
      <trkpt lat="47.82237" lon="5.95185">
        <ele>219.2998</ele>
        <time>2026-05-17T08:55:37+02:00</time>
      </trkpt>
      <trkpt lat="47.8224" lon="5.95176">
        <ele>219.5</ele>
        <time>2026-05-17T08:55:38+02:00</time>
      </trkpt>
      <trkpt lat="47.82243" lon="5.95168">
        <ele>218.2002</ele>
        <time>2026-05-17T08:55:39+02:00</time>
      </trkpt>
      <trkpt lat="47.82246" lon="5.95159">
        <ele>218.40039</ele>
        <time>2026-05-17T08:55:40+02:00</time>
      </trkpt>
      <trkpt lat="47.82249" lon="5.9515">
        <ele>216.90039</ele>
        <time>2026-05-17T08:55:41+02:00</time>
      </trkpt>
      <trkpt lat="47.82253" lon="5.95141">
        <ele>217</ele>
        <time>2026-05-17T08:55:42+02:00</time>
      </trkpt>
      <trkpt lat="47.82256" lon="5.95132">
        <ele>216.90039</ele>
        <time>2026-05-17T08:55:43+02:00</time>
      </trkpt>
      <trkpt lat="47.82259" lon="5.95123">
        <ele>216</ele>
        <time>2026-05-17T08:55:44+02:00</time>
      </trkpt>
      <trkpt lat="47.82263" lon="5.95113">
        <ele>216.40039</ele>
        <time>2026-05-17T08:55:45+02:00</time>
      </trkpt>
      <trkpt lat="47.82266" lon="5.95103">
        <ele>215.5</ele>
        <time>2026-05-17T08:55:46+02:00</time>
      </trkpt>
      <trkpt lat="47.82271" lon="5.95093">
        <ele>215.5</ele>
        <time>2026-05-17T08:55:47+02:00</time>
      </trkpt>
      <trkpt lat="47.82275" lon="5.95083">
        <ele>215.60059</ele>
        <time>2026-05-17T08:55:48+02:00</time>
      </trkpt>
      <trkpt lat="47.82279" lon="5.95073">
        <ele>215.90039</ele>
        <time>2026-05-17T08:55:49+02:00</time>
      </trkpt>
      <trkpt lat="47.82283" lon="5.95062">
        <ele>214.2002</ele>
        <time>2026-05-17T08:55:50+02:00</time>
      </trkpt>
      <trkpt lat="47.82288" lon="5.95051">
        <ele>214.2998</ele>
        <time>2026-05-17T08:55:51+02:00</time>
      </trkpt>
      <trkpt lat="47.82292" lon="5.95039">
        <ele>214.2998</ele>
        <time>2026-05-17T08:55:52+02:00</time>
      </trkpt>
      <trkpt lat="47.82296" lon="5.95026">
        <ele>213.90039</ele>
        <time>2026-05-17T08:55:53+02:00</time>
      </trkpt>
      <trkpt lat="47.823" lon="5.95013">
        <ele>213</ele>
        <time>2026-05-17T08:55:54+02:00</time>
      </trkpt>
      <trkpt lat="47.82303" lon="5.95">
        <ele>211.90039</ele>
        <time>2026-05-17T08:55:55+02:00</time>
      </trkpt>
      <trkpt lat="47.82306" lon="5.94987">
        <ele>211.10059</ele>
        <time>2026-05-17T08:55:56+02:00</time>
      </trkpt>
      <trkpt lat="47.82309" lon="5.94974">
        <ele>212</ele>
        <time>2026-05-17T08:55:57+02:00</time>
      </trkpt>
      <trkpt lat="47.82313" lon="5.94961">
        <ele>213.2998</ele>
        <time>2026-05-17T08:55:58+02:00</time>
      </trkpt>
      <trkpt lat="47.82316" lon="5.94948">
        <ele>213.2002</ele>
        <time>2026-05-17T08:55:59+02:00</time>
      </trkpt>
      <trkpt lat="47.82319" lon="5.94935">
        <ele>214.40039</ele>
        <time>2026-05-17T08:56:00+02:00</time>
      </trkpt>
      <trkpt lat="47.82322" lon="5.94922">
        <ele>214.2998</ele>
        <time>2026-05-17T08:56:01+02:00</time>
      </trkpt>
      <trkpt lat="47.82325" lon="5.94909">
        <ele>215.40039</ele>
        <time>2026-05-17T08:56:02+02:00</time>
      </trkpt>
      <trkpt lat="47.82328" lon="5.94896">
        <ele>215.2002</ele>
        <time>2026-05-17T08:56:03+02:00</time>
      </trkpt>
      <trkpt lat="47.8233" lon="5.94884">
        <ele>216.5</ele>
        <time>2026-05-17T08:56:04+02:00</time>
      </trkpt>
      <trkpt lat="47.82333" lon="5.94872">
        <ele>216.2002</ele>
        <time>2026-05-17T08:56:05+02:00</time>
      </trkpt>
      <trkpt lat="47.82336" lon="5.9486">
        <ele>217.2998</ele>
        <time>2026-05-17T08:56:06+02:00</time>
      </trkpt>
      <trkpt lat="47.82339" lon="5.94848">
        <ele>216.90039</ele>
        <time>2026-05-17T08:56:07+02:00</time>
      </trkpt>
      <trkpt lat="47.82342" lon="5.94837">
        <ele>217.2002</ele>
        <time>2026-05-17T08:56:08+02:00</time>
      </trkpt>
      <trkpt lat="47.82344" lon="5.94826">
        <ele>216.90039</ele>
        <time>2026-05-17T08:56:09+02:00</time>
      </trkpt>
      <trkpt lat="47.82347" lon="5.94814">
        <ele>216.40039</ele>
        <time>2026-05-17T08:56:10+02:00</time>
      </trkpt>
      <trkpt lat="47.8235" lon="5.94803">
        <ele>216</ele>
        <time>2026-05-17T08:56:11+02:00</time>
      </trkpt>
      <trkpt lat="47.82352" lon="5.94792">
        <ele>215.7002</ele>
        <time>2026-05-17T08:56:12+02:00</time>
      </trkpt>
      <trkpt lat="47.82355" lon="5.94782">
        <ele>215.2002</ele>
        <time>2026-05-17T08:56:13+02:00</time>
      </trkpt>
      <trkpt lat="47.82358" lon="5.94771">
        <ele>214.7002</ele>
        <time>2026-05-17T08:56:14+02:00</time>
      </trkpt>
      <trkpt lat="47.82361" lon="5.9476">
        <ele>214.60059</ele>
        <time>2026-05-17T08:56:15+02:00</time>
      </trkpt>
      <trkpt lat="47.82363" lon="5.9475">
        <ele>214.5</ele>
        <time>2026-05-17T08:56:16+02:00</time>
      </trkpt>
      <trkpt lat="47.82366" lon="5.94739">
        <ele>214.40039</ele>
        <time>2026-05-17T08:56:17+02:00</time>
      </trkpt>
      <trkpt lat="47.82368" lon="5.94729">
        <ele>214.10059</ele>
        <time>2026-05-17T08:56:18+02:00</time>
      </trkpt>
      <trkpt lat="47.82371" lon="5.94718">
        <ele>214.2002</ele>
        <time>2026-05-17T08:56:19+02:00</time>
      </trkpt>
      <trkpt lat="47.82374" lon="5.94707">
        <ele>214.2002</ele>
        <time>2026-05-17T08:56:20+02:00</time>
      </trkpt>
      <trkpt lat="47.82376" lon="5.94696">
        <ele>214.40039</ele>
        <time>2026-05-17T08:56:21+02:00</time>
      </trkpt>
      <trkpt lat="47.82379" lon="5.94685">
        <ele>214.2998</ele>
        <time>2026-05-17T08:56:22+02:00</time>
      </trkpt>
      <trkpt lat="47.82382" lon="5.94674">
        <ele>214.40039</ele>
        <time>2026-05-17T08:56:23+02:00</time>
      </trkpt>
      <trkpt lat="47.82384" lon="5.94664">
        <ele>214.40039</ele>
        <time>2026-05-17T08:56:24+02:00</time>
      </trkpt>
      <trkpt lat="47.82387" lon="5.94653">
        <ele>214.40039</ele>
        <time>2026-05-17T08:56:25+02:00</time>
      </trkpt>
      <trkpt lat="47.8239" lon="5.94642">
        <ele>214.40039</ele>
        <time>2026-05-17T08:56:26+02:00</time>
      </trkpt>
      <trkpt lat="47.82393" lon="5.94631">
        <ele>214.2998</ele>
        <time>2026-05-17T08:56:27+02:00</time>
      </trkpt>
      <trkpt lat="47.82395" lon="5.94621">
        <ele>214.5</ele>
        <time>2026-05-17T08:56:28+02:00</time>
      </trkpt>
      <trkpt lat="47.82398" lon="5.9461">
        <ele>214.40039</ele>
        <time>2026-05-17T08:56:29+02:00</time>
      </trkpt>
      <trkpt lat="47.824" lon="5.94599">
        <ele>214.40039</ele>
        <time>2026-05-17T08:56:30+02:00</time>
      </trkpt>
      <trkpt lat="47.82403" lon="5.94588">
        <ele>214.2002</ele>
        <time>2026-05-17T08:56:31+02:00</time>
      </trkpt>
      <trkpt lat="47.82406" lon="5.94577">
        <ele>214.2998</ele>
        <time>2026-05-17T08:56:32+02:00</time>
      </trkpt>
      <trkpt lat="47.82408" lon="5.94566">
        <ele>214.2998</ele>
        <time>2026-05-17T08:56:33+02:00</time>
      </trkpt>
      <trkpt lat="47.82411" lon="5.94556">
        <ele>214.40039</ele>
        <time>2026-05-17T08:56:34+02:00</time>
      </trkpt>
      <trkpt lat="47.82413" lon="5.94545">
        <ele>214.40039</ele>
        <time>2026-05-17T08:56:35+02:00</time>
      </trkpt>
      <trkpt lat="47.82416" lon="5.94534">
        <ele>214.40039</ele>
        <time>2026-05-17T08:56:36+02:00</time>
      </trkpt>
      <trkpt lat="47.82417" lon="5.94524">
        <ele>214.5</ele>
        <time>2026-05-17T08:56:37+02:00</time>
      </trkpt>
      <trkpt lat="47.8242" lon="5.94513">
        <ele>214.40039</ele>
        <time>2026-05-17T08:56:38+02:00</time>
      </trkpt>
      <trkpt lat="47.82422" lon="5.94503">
        <ele>214.40039</ele>
        <time>2026-05-17T08:56:39+02:00</time>
      </trkpt>
      <trkpt lat="47.82423" lon="5.94493">
        <ele>214.5</ele>
        <time>2026-05-17T08:56:40+02:00</time>
      </trkpt>
      <trkpt lat="47.82425" lon="5.94483">
        <ele>214.5</ele>
        <time>2026-05-17T08:56:41+02:00</time>
      </trkpt>
      <trkpt lat="47.82427" lon="5.94474">
        <ele>214.5</ele>
        <time>2026-05-17T08:56:42+02:00</time>
      </trkpt>
      <trkpt lat="47.82429" lon="5.94465">
        <ele>214.60059</ele>
        <time>2026-05-17T08:56:43+02:00</time>
      </trkpt>
      <trkpt lat="47.8243" lon="5.94456">
        <ele>214.60059</ele>
        <time>2026-05-17T08:56:44+02:00</time>
      </trkpt>
      <trkpt lat="47.82431" lon="5.94446">
        <ele>214.60059</ele>
        <time>2026-05-17T08:56:45+02:00</time>
      </trkpt>
      <trkpt lat="47.8243" lon="5.94437">
        <ele>214.60059</ele>
        <time>2026-05-17T08:56:46+02:00</time>
      </trkpt>
      <trkpt lat="47.82427" lon="5.94427">
        <ele>214.5</ele>
        <time>2026-05-17T08:56:47+02:00</time>
      </trkpt>
      <trkpt lat="47.82424" lon="5.94417">
        <ele>214.40039</ele>
        <time>2026-05-17T08:56:48+02:00</time>
      </trkpt>
      <trkpt lat="47.82419" lon="5.94407">
        <ele>214.40039</ele>
        <time>2026-05-17T08:56:49+02:00</time>
      </trkpt>
      <trkpt lat="47.82415" lon="5.94397">
        <ele>214.2998</ele>
        <time>2026-05-17T08:56:50+02:00</time>
      </trkpt>
      <trkpt lat="47.82409" lon="5.94387">
        <ele>214.2002</ele>
        <time>2026-05-17T08:56:51+02:00</time>
      </trkpt>
      <trkpt lat="47.82405" lon="5.94377">
        <ele>214.10059</ele>
        <time>2026-05-17T08:56:52+02:00</time>
      </trkpt>
      <trkpt lat="47.824" lon="5.94366">
        <ele>214</ele>
        <time>2026-05-17T08:56:53+02:00</time>
      </trkpt>
      <trkpt lat="47.82396" lon="5.94356">
        <ele>213.90039</ele>
        <time>2026-05-17T08:56:54+02:00</time>
      </trkpt>
      <trkpt lat="47.82391" lon="5.94346">
        <ele>213.7998</ele>
        <time>2026-05-17T08:56:55+02:00</time>
      </trkpt>
      <trkpt lat="47.82387" lon="5.94337">
        <ele>213.60059</ele>
        <time>2026-05-17T08:56:56+02:00</time>
      </trkpt>
      <trkpt lat="47.82382" lon="5.94327">
        <ele>213.60059</ele>
        <time>2026-05-17T08:56:57+02:00</time>
      </trkpt>
      <trkpt lat="47.82378" lon="5.94318">
        <ele>213.5</ele>
        <time>2026-05-17T08:56:58+02:00</time>
      </trkpt>
      <trkpt lat="47.82374" lon="5.94308">
        <ele>213.2998</ele>
        <time>2026-05-17T08:56:59+02:00</time>
      </trkpt>
      <trkpt lat="47.8237" lon="5.94299">
        <ele>213.2002</ele>
        <time>2026-05-17T08:57:00+02:00</time>
      </trkpt>
      <trkpt lat="47.82366" lon="5.9429">
        <ele>213.2002</ele>
        <time>2026-05-17T08:57:01+02:00</time>
      </trkpt>
      <trkpt lat="47.82361" lon="5.94281">
        <ele>213.2002</ele>
        <time>2026-05-17T08:57:02+02:00</time>
      </trkpt>
      <trkpt lat="47.82357" lon="5.94272">
        <ele>213.2002</ele>
        <time>2026-05-17T08:57:03+02:00</time>
      </trkpt>
      <trkpt lat="47.82353" lon="5.94263">
        <ele>213.2002</ele>
        <time>2026-05-17T08:57:04+02:00</time>
      </trkpt>
      <trkpt lat="47.82349" lon="5.94254">
        <ele>213.2002</ele>
        <time>2026-05-17T08:57:05+02:00</time>
      </trkpt>
      <trkpt lat="47.82345" lon="5.94245">
        <ele>213.2998</ele>
        <time>2026-05-17T08:57:06+02:00</time>
      </trkpt>
      <trkpt lat="47.82341" lon="5.94236">
        <ele>213.2998</ele>
        <time>2026-05-17T08:57:07+02:00</time>
      </trkpt>
      <trkpt lat="47.82337" lon="5.94227">
        <ele>213.40039</ele>
        <time>2026-05-17T08:57:08+02:00</time>
      </trkpt>
      <trkpt lat="47.82333" lon="5.94218">
        <ele>213.60059</ele>
        <time>2026-05-17T08:57:09+02:00</time>
      </trkpt>
      <trkpt lat="47.82329" lon="5.94209">
        <ele>213.90039</ele>
        <time>2026-05-17T08:57:10+02:00</time>
      </trkpt>
      <trkpt lat="47.82325" lon="5.942">
        <ele>214</ele>
        <time>2026-05-17T08:57:11+02:00</time>
      </trkpt>
      <trkpt lat="47.82321" lon="5.94191">
        <ele>214.2002</ele>
        <time>2026-05-17T08:57:12+02:00</time>
      </trkpt>
      <trkpt lat="47.82317" lon="5.94182">
        <ele>214.2002</ele>
        <time>2026-05-17T08:57:13+02:00</time>
      </trkpt>
      <trkpt lat="47.82313" lon="5.94174">
        <ele>214.40039</ele>
        <time>2026-05-17T08:57:14+02:00</time>
      </trkpt>
      <trkpt lat="47.82309" lon="5.94165">
        <ele>214.10059</ele>
        <time>2026-05-17T08:57:15+02:00</time>
      </trkpt>
      <trkpt lat="47.82305" lon="5.94156">
        <ele>213.60059</ele>
        <time>2026-05-17T08:57:16+02:00</time>
      </trkpt>
      <trkpt lat="47.82301" lon="5.94147">
        <ele>213</ele>
        <time>2026-05-17T08:57:17+02:00</time>
      </trkpt>
      <trkpt lat="47.82298" lon="5.94137">
        <ele>212.90039</ele>
        <time>2026-05-17T08:57:18+02:00</time>
      </trkpt>
      <trkpt lat="47.82297" lon="5.94127">
        <ele>212.7998</ele>
        <time>2026-05-17T08:57:19+02:00</time>
      </trkpt>
      <trkpt lat="47.82297" lon="5.94117">
        <ele>212.7002</ele>
        <time>2026-05-17T08:57:20+02:00</time>
      </trkpt>
      <trkpt lat="47.82297" lon="5.94108">
        <ele>212.5</ele>
        <time>2026-05-17T08:57:21+02:00</time>
      </trkpt>
      <trkpt lat="47.823" lon="5.94099">
        <ele>212.2998</ele>
        <time>2026-05-17T08:57:22+02:00</time>
      </trkpt>
      <trkpt lat="47.82304" lon="5.9409">
        <ele>212.40039</ele>
        <time>2026-05-17T08:57:23+02:00</time>
      </trkpt>
      <trkpt lat="47.82308" lon="5.94082">
        <ele>212.7998</ele>
        <time>2026-05-17T08:57:24+02:00</time>
      </trkpt>
      <trkpt lat="47.82311" lon="5.94072">
        <ele>212.7998</ele>
        <time>2026-05-17T08:57:25+02:00</time>
      </trkpt>
      <trkpt lat="47.82314" lon="5.94063">
        <ele>213</ele>
        <time>2026-05-17T08:57:26+02:00</time>
      </trkpt>
      <trkpt lat="47.82316" lon="5.94053">
        <ele>212.90039</ele>
        <time>2026-05-17T08:57:27+02:00</time>
      </trkpt>
      <trkpt lat="47.82319" lon="5.94043">
        <ele>213</ele>
        <time>2026-05-17T08:57:28+02:00</time>
      </trkpt>
      <trkpt lat="47.82321" lon="5.94032">
        <ele>212.5</ele>
        <time>2026-05-17T08:57:29+02:00</time>
      </trkpt>
      <trkpt lat="47.82323" lon="5.94022">
        <ele>212.40039</ele>
        <time>2026-05-17T08:57:30+02:00</time>
      </trkpt>
      <trkpt lat="47.82325" lon="5.94011">
        <ele>212.60059</ele>
        <time>2026-05-17T08:57:31+02:00</time>
      </trkpt>
      <trkpt lat="47.82327" lon="5.94">
        <ele>212.60059</ele>
        <time>2026-05-17T08:57:32+02:00</time>
      </trkpt>
      <trkpt lat="47.82328" lon="5.9399">
        <ele>212.60059</ele>
        <time>2026-05-17T08:57:33+02:00</time>
      </trkpt>
      <trkpt lat="47.8233" lon="5.9398">
        <ele>212.7002</ele>
        <time>2026-05-17T08:57:34+02:00</time>
      </trkpt>
      <trkpt lat="47.82331" lon="5.9397">
        <ele>212.7002</ele>
        <time>2026-05-17T08:57:35+02:00</time>
      </trkpt>
      <trkpt lat="47.82333" lon="5.93962">
        <ele>212.7002</ele>
        <time>2026-05-17T08:57:36+02:00</time>
      </trkpt>
      <trkpt lat="47.82333" lon="5.93954">
        <ele>212.7002</ele>
        <time>2026-05-17T08:57:37+02:00</time>
      </trkpt>
      <trkpt lat="47.82332" lon="5.93947">
        <ele>212.7002</ele>
        <time>2026-05-17T08:57:38+02:00</time>
      </trkpt>
      <trkpt lat="47.82332" lon="5.9394">
        <ele>212.7002</ele>
        <time>2026-05-17T08:57:39+02:00</time>
      </trkpt>
      <trkpt lat="47.82332" lon="5.93932">
        <ele>212.7002</ele>
        <time>2026-05-17T08:57:40+02:00</time>
      </trkpt>
      <trkpt lat="47.82331" lon="5.93924">
        <ele>212.7002</ele>
        <time>2026-05-17T08:57:41+02:00</time>
      </trkpt>
      <trkpt lat="47.8233" lon="5.93916">
        <ele>212.7002</ele>
        <time>2026-05-17T08:57:42+02:00</time>
      </trkpt>
      <trkpt lat="47.82328" lon="5.93907">
        <ele>212.5</ele>
        <time>2026-05-17T08:57:43+02:00</time>
      </trkpt>
      <trkpt lat="47.82325" lon="5.93898">
        <ele>212.5</ele>
        <time>2026-05-17T08:57:44+02:00</time>
      </trkpt>
      <trkpt lat="47.82322" lon="5.9389">
        <ele>212.40039</ele>
        <time>2026-05-17T08:57:45+02:00</time>
      </trkpt>
      <trkpt lat="47.82317" lon="5.93882">
        <ele>212.2998</ele>
        <time>2026-05-17T08:57:46+02:00</time>
      </trkpt>
      <trkpt lat="47.82313" lon="5.93874">
        <ele>212.2998</ele>
        <time>2026-05-17T08:57:47+02:00</time>
      </trkpt>
      <trkpt lat="47.82308" lon="5.93866">
        <ele>212.2002</ele>
        <time>2026-05-17T08:57:48+02:00</time>
      </trkpt>
      <trkpt lat="47.82303" lon="5.93858">
        <ele>212.2002</ele>
        <time>2026-05-17T08:57:49+02:00</time>
      </trkpt>
      <trkpt lat="47.82298" lon="5.93851">
        <ele>212.2002</ele>
        <time>2026-05-17T08:57:50+02:00</time>
      </trkpt>
      <trkpt lat="47.82293" lon="5.93843">
        <ele>212.2002</ele>
        <time>2026-05-17T08:57:51+02:00</time>
      </trkpt>
      <trkpt lat="47.82288" lon="5.93835">
        <ele>212.2998</ele>
        <time>2026-05-17T08:57:52+02:00</time>
      </trkpt>
      <trkpt lat="47.82283" lon="5.93827">
        <ele>212.2002</ele>
        <time>2026-05-17T08:57:53+02:00</time>
      </trkpt>
      <trkpt lat="47.82278" lon="5.93819">
        <ele>212.2998</ele>
        <time>2026-05-17T08:57:54+02:00</time>
      </trkpt>
      <trkpt lat="47.82274" lon="5.9381">
        <ele>212.40039</ele>
        <time>2026-05-17T08:57:55+02:00</time>
      </trkpt>
      <trkpt lat="47.8227" lon="5.93801">
        <ele>212.40039</ele>
        <time>2026-05-17T08:57:56+02:00</time>
      </trkpt>
      <trkpt lat="47.82266" lon="5.93791">
        <ele>212.40039</ele>
        <time>2026-05-17T08:57:57+02:00</time>
      </trkpt>
      <trkpt lat="47.82263" lon="5.93781">
        <ele>212.40039</ele>
        <time>2026-05-17T08:57:58+02:00</time>
      </trkpt>
      <trkpt lat="47.82261" lon="5.93771">
        <ele>212.40039</ele>
        <time>2026-05-17T08:57:59+02:00</time>
      </trkpt>
      <trkpt lat="47.82259" lon="5.93761">
        <ele>212.40039</ele>
        <time>2026-05-17T08:58:00+02:00</time>
      </trkpt>
      <trkpt lat="47.82257" lon="5.93751">
        <ele>212.40039</ele>
        <time>2026-05-17T08:58:01+02:00</time>
      </trkpt>
      <trkpt lat="47.82256" lon="5.93741">
        <ele>212.60059</ele>
        <time>2026-05-17T08:58:02+02:00</time>
      </trkpt>
      <trkpt lat="47.82255" lon="5.93731">
        <ele>212.7002</ele>
        <time>2026-05-17T08:58:03+02:00</time>
      </trkpt>
      <trkpt lat="47.82255" lon="5.9372">
        <ele>212.7002</ele>
        <time>2026-05-17T08:58:04+02:00</time>
      </trkpt>
      <trkpt lat="47.82254" lon="5.9371">
        <ele>212.7002</ele>
        <time>2026-05-17T08:58:05+02:00</time>
      </trkpt>
      <trkpt lat="47.82255" lon="5.93699">
        <ele>212.7002</ele>
        <time>2026-05-17T08:58:06+02:00</time>
      </trkpt>
      <trkpt lat="47.82255" lon="5.93689">
        <ele>212.7002</ele>
        <time>2026-05-17T08:58:07+02:00</time>
      </trkpt>
      <trkpt lat="47.82257" lon="5.93679">
        <ele>212.7002</ele>
        <time>2026-05-17T08:58:08+02:00</time>
      </trkpt>
      <trkpt lat="47.8226" lon="5.9367">
        <ele>212.60059</ele>
        <time>2026-05-17T08:58:09+02:00</time>
      </trkpt>
      <trkpt lat="47.82262" lon="5.9366">
        <ele>212.7002</ele>
        <time>2026-05-17T08:58:10+02:00</time>
      </trkpt>
      <trkpt lat="47.82265" lon="5.93651">
        <ele>212.7002</ele>
        <time>2026-05-17T08:58:11+02:00</time>
      </trkpt>
      <trkpt lat="47.82268" lon="5.93642">
        <ele>212.90039</ele>
        <time>2026-05-17T08:58:12+02:00</time>
      </trkpt>
      <trkpt lat="47.82272" lon="5.93633">
        <ele>212.90039</ele>
        <time>2026-05-17T08:58:13+02:00</time>
      </trkpt>
      <trkpt lat="47.82276" lon="5.93624">
        <ele>213</ele>
        <time>2026-05-17T08:58:14+02:00</time>
      </trkpt>
      <trkpt lat="47.82281" lon="5.93616">
        <ele>213.10059</ele>
        <time>2026-05-17T08:58:15+02:00</time>
      </trkpt>
      <trkpt lat="47.82286" lon="5.93609">
        <ele>213.2002</ele>
        <time>2026-05-17T08:58:16+02:00</time>
      </trkpt>
      <trkpt lat="47.82291" lon="5.93601">
        <ele>213.2998</ele>
        <time>2026-05-17T08:58:17+02:00</time>
      </trkpt>
      <trkpt lat="47.82297" lon="5.93594">
        <ele>213.5</ele>
        <time>2026-05-17T08:58:18+02:00</time>
      </trkpt>
      <trkpt lat="47.82303" lon="5.93588">
        <ele>213.60059</ele>
        <time>2026-05-17T08:58:19+02:00</time>
      </trkpt>
      <trkpt lat="47.82309" lon="5.93583">
        <ele>213.7002</ele>
        <time>2026-05-17T08:58:20+02:00</time>
      </trkpt>
      <trkpt lat="47.82315" lon="5.93578">
        <ele>213.7998</ele>
        <time>2026-05-17T08:58:21+02:00</time>
      </trkpt>
      <trkpt lat="47.82322" lon="5.93574">
        <ele>214</ele>
        <time>2026-05-17T08:58:22+02:00</time>
      </trkpt>
      <trkpt lat="47.82329" lon="5.93569">
        <ele>214.10059</ele>
        <time>2026-05-17T08:58:23+02:00</time>
      </trkpt>
      <trkpt lat="47.82335" lon="5.93564">
        <ele>214.2998</ele>
        <time>2026-05-17T08:58:24+02:00</time>
      </trkpt>
      <trkpt lat="47.82342" lon="5.93559">
        <ele>214.2002</ele>
        <time>2026-05-17T08:58:25+02:00</time>
      </trkpt>
      <trkpt lat="47.82348" lon="5.93553">
        <ele>214</ele>
        <time>2026-05-17T08:58:26+02:00</time>
      </trkpt>
      <trkpt lat="47.82354" lon="5.93548">
        <ele>214</ele>
        <time>2026-05-17T08:58:27+02:00</time>
      </trkpt>
      <trkpt lat="47.8236" lon="5.93542">
        <ele>214.10059</ele>
        <time>2026-05-17T08:58:28+02:00</time>
      </trkpt>
      <trkpt lat="47.82366" lon="5.93537">
        <ele>214.2002</ele>
        <time>2026-05-17T08:58:29+02:00</time>
      </trkpt>
      <trkpt lat="47.82372" lon="5.93531">
        <ele>214.2998</ele>
        <time>2026-05-17T08:58:30+02:00</time>
      </trkpt>
      <trkpt lat="47.82378" lon="5.93526">
        <ele>214.2002</ele>
        <time>2026-05-17T08:58:31+02:00</time>
      </trkpt>
      <trkpt lat="47.82385" lon="5.93521">
        <ele>214.2002</ele>
        <time>2026-05-17T08:58:32+02:00</time>
      </trkpt>
      <trkpt lat="47.82391" lon="5.93516">
        <ele>214.10059</ele>
        <time>2026-05-17T08:58:33+02:00</time>
      </trkpt>
      <trkpt lat="47.82398" lon="5.93511">
        <ele>214.10059</ele>
        <time>2026-05-17T08:58:34+02:00</time>
      </trkpt>
      <trkpt lat="47.82404" lon="5.93507">
        <ele>214.10059</ele>
        <time>2026-05-17T08:58:35+02:00</time>
      </trkpt>
      <trkpt lat="47.82411" lon="5.93502">
        <ele>214.10059</ele>
        <time>2026-05-17T08:58:36+02:00</time>
      </trkpt>
      <trkpt lat="47.82417" lon="5.93497">
        <ele>214.2002</ele>
        <time>2026-05-17T08:58:37+02:00</time>
      </trkpt>
      <trkpt lat="47.82424" lon="5.93492">
        <ele>214.10059</ele>
        <time>2026-05-17T08:58:38+02:00</time>
      </trkpt>
      <trkpt lat="47.8243" lon="5.93488">
        <ele>214.10059</ele>
        <time>2026-05-17T08:58:39+02:00</time>
      </trkpt>
      <trkpt lat="47.82435" lon="5.93482">
        <ele>214</ele>
        <time>2026-05-17T08:58:40+02:00</time>
      </trkpt>
      <trkpt lat="47.82441" lon="5.93475">
        <ele>214</ele>
        <time>2026-05-17T08:58:41+02:00</time>
      </trkpt>
      <trkpt lat="47.82446" lon="5.93469">
        <ele>214</ele>
        <time>2026-05-17T08:58:42+02:00</time>
      </trkpt>
      <trkpt lat="47.82451" lon="5.93462">
        <ele>214.10059</ele>
        <time>2026-05-17T08:58:43+02:00</time>
      </trkpt>
      <trkpt lat="47.82456" lon="5.93454">
        <ele>214.10059</ele>
        <time>2026-05-17T08:58:44+02:00</time>
      </trkpt>
      <trkpt lat="47.82461" lon="5.93447">
        <ele>214.10059</ele>
        <time>2026-05-17T08:58:45+02:00</time>
      </trkpt>
      <trkpt lat="47.82466" lon="5.9344">
        <ele>214.2002</ele>
        <time>2026-05-17T08:58:46+02:00</time>
      </trkpt>
      <trkpt lat="47.8247" lon="5.93431">
        <ele>214.2002</ele>
        <time>2026-05-17T08:58:47+02:00</time>
      </trkpt>
      <trkpt lat="47.82474" lon="5.93423">
        <ele>214.2998</ele>
        <time>2026-05-17T08:58:48+02:00</time>
      </trkpt>
      <trkpt lat="47.82478" lon="5.93414">
        <ele>214.2998</ele>
        <time>2026-05-17T08:58:49+02:00</time>
      </trkpt>
      <trkpt lat="47.82481" lon="5.93404">
        <ele>214.2998</ele>
        <time>2026-05-17T08:58:50+02:00</time>
      </trkpt>
      <trkpt lat="47.82483" lon="5.93394">
        <ele>214.2998</ele>
        <time>2026-05-17T08:58:51+02:00</time>
      </trkpt>
      <trkpt lat="47.82485" lon="5.93384">
        <ele>214.2002</ele>
        <time>2026-05-17T08:58:52+02:00</time>
      </trkpt>
      <trkpt lat="47.82486" lon="5.93374">
        <ele>214.2998</ele>
        <time>2026-05-17T08:58:53+02:00</time>
      </trkpt>
      <trkpt lat="47.82486" lon="5.93363">
        <ele>214.2998</ele>
        <time>2026-05-17T08:58:54+02:00</time>
      </trkpt>
      <trkpt lat="47.82485" lon="5.93352">
        <ele>214</ele>
        <time>2026-05-17T08:58:55+02:00</time>
      </trkpt>
      <trkpt lat="47.82484" lon="5.93341">
        <ele>214</ele>
        <time>2026-05-17T08:58:56+02:00</time>
      </trkpt>
      <trkpt lat="47.82483" lon="5.93331">
        <ele>214</ele>
        <time>2026-05-17T08:58:57+02:00</time>
      </trkpt>
      <trkpt lat="47.82481" lon="5.93321">
        <ele>214</ele>
        <time>2026-05-17T08:58:58+02:00</time>
      </trkpt>
      <trkpt lat="47.82479" lon="5.9331">
        <ele>213.7998</ele>
        <time>2026-05-17T08:58:59+02:00</time>
      </trkpt>
      <trkpt lat="47.82478" lon="5.933">
        <ele>213.7998</ele>
        <time>2026-05-17T08:59:00+02:00</time>
      </trkpt>
      <trkpt lat="47.82476" lon="5.93289">
        <ele>213.7998</ele>
        <time>2026-05-17T08:59:01+02:00</time>
      </trkpt>
      <trkpt lat="47.82475" lon="5.93279">
        <ele>213.7998</ele>
        <time>2026-05-17T08:59:02+02:00</time>
      </trkpt>
      <trkpt lat="47.82474" lon="5.93268">
        <ele>213.7998</ele>
        <time>2026-05-17T08:59:03+02:00</time>
      </trkpt>
      <trkpt lat="47.82474" lon="5.93257">
        <ele>213.7998</ele>
        <time>2026-05-17T08:59:04+02:00</time>
      </trkpt>
      <trkpt lat="47.82474" lon="5.93246">
        <ele>213.7002</ele>
        <time>2026-05-17T08:59:05+02:00</time>
      </trkpt>
      <trkpt lat="47.82475" lon="5.93236">
        <ele>213.7002</ele>
        <time>2026-05-17T08:59:06+02:00</time>
      </trkpt>
      <trkpt lat="47.82475" lon="5.93225">
        <ele>213.7002</ele>
        <time>2026-05-17T08:59:07+02:00</time>
      </trkpt>
      <trkpt lat="47.82477" lon="5.93215">
        <ele>213.7002</ele>
        <time>2026-05-17T08:59:08+02:00</time>
      </trkpt>
      <trkpt lat="47.82478" lon="5.93205">
        <ele>213.7002</ele>
        <time>2026-05-17T08:59:09+02:00</time>
      </trkpt>
      <trkpt lat="47.82481" lon="5.93195">
        <ele>213.7002</ele>
        <time>2026-05-17T08:59:10+02:00</time>
      </trkpt>
      <trkpt lat="47.82484" lon="5.93185">
        <ele>213.7002</ele>
        <time>2026-05-17T08:59:11+02:00</time>
      </trkpt>
      <trkpt lat="47.82488" lon="5.93176">
        <ele>213.7002</ele>
        <time>2026-05-17T08:59:12+02:00</time>
      </trkpt>
      <trkpt lat="47.82491" lon="5.93166">
        <ele>213.7002</ele>
        <time>2026-05-17T08:59:13+02:00</time>
      </trkpt>
      <trkpt lat="47.82494" lon="5.93157">
        <ele>213.7002</ele>
        <time>2026-05-17T08:59:14+02:00</time>
      </trkpt>
      <trkpt lat="47.82498" lon="5.93149">
        <ele>213.7998</ele>
        <time>2026-05-17T08:59:15+02:00</time>
      </trkpt>
      <trkpt lat="47.82503" lon="5.9314">
        <ele>213.90039</ele>
        <time>2026-05-17T08:59:16+02:00</time>
      </trkpt>
      <trkpt lat="47.82507" lon="5.93132">
        <ele>213.7998</ele>
        <time>2026-05-17T08:59:17+02:00</time>
      </trkpt>
      <trkpt lat="47.82511" lon="5.93123">
        <ele>213.7998</ele>
        <time>2026-05-17T08:59:18+02:00</time>
      </trkpt>
      <trkpt lat="47.82515" lon="5.93115">
        <ele>213.7998</ele>
        <time>2026-05-17T08:59:19+02:00</time>
      </trkpt>
      <trkpt lat="47.82519" lon="5.93106">
        <ele>213.7998</ele>
        <time>2026-05-17T08:59:20+02:00</time>
      </trkpt>
      <trkpt lat="47.82523" lon="5.93098">
        <ele>213.7998</ele>
        <time>2026-05-17T08:59:21+02:00</time>
      </trkpt>
      <trkpt lat="47.82527" lon="5.93089">
        <ele>213.7998</ele>
        <time>2026-05-17T08:59:22+02:00</time>
      </trkpt>
      <trkpt lat="47.8253" lon="5.93079">
        <ele>213.7998</ele>
        <time>2026-05-17T08:59:23+02:00</time>
      </trkpt>
      <trkpt lat="47.82534" lon="5.9307">
        <ele>213.7998</ele>
        <time>2026-05-17T08:59:24+02:00</time>
      </trkpt>
      <trkpt lat="47.82538" lon="5.93061">
        <ele>213.7998</ele>
        <time>2026-05-17T08:59:25+02:00</time>
      </trkpt>
      <trkpt lat="47.82543" lon="5.93054">
        <ele>213.7998</ele>
        <time>2026-05-17T08:59:26+02:00</time>
      </trkpt>
      <trkpt lat="47.82549" lon="5.93048">
        <ele>213.7998</ele>
        <time>2026-05-17T08:59:27+02:00</time>
      </trkpt>
      <trkpt lat="47.82555" lon="5.93044">
        <ele>213.7998</ele>
        <time>2026-05-17T08:59:28+02:00</time>
      </trkpt>
      <trkpt lat="47.82562" lon="5.93039">
        <ele>213.7998</ele>
        <time>2026-05-17T08:59:29+02:00</time>
      </trkpt>
      <trkpt lat="47.82568" lon="5.93036">
        <ele>213.7998</ele>
        <time>2026-05-17T08:59:30+02:00</time>
      </trkpt>
      <trkpt lat="47.82575" lon="5.93033">
        <ele>213.7998</ele>
        <time>2026-05-17T08:59:31+02:00</time>
      </trkpt>
      <trkpt lat="47.82582" lon="5.93031">
        <ele>213.7998</ele>
        <time>2026-05-17T08:59:32+02:00</time>
      </trkpt>
      <trkpt lat="47.82589" lon="5.93029">
        <ele>213.7998</ele>
        <time>2026-05-17T08:59:33+02:00</time>
      </trkpt>
      <trkpt lat="47.82596" lon="5.93028">
        <ele>213.7998</ele>
        <time>2026-05-17T08:59:34+02:00</time>
      </trkpt>
      <trkpt lat="47.82602" lon="5.93027">
        <ele>213.90039</ele>
        <time>2026-05-17T08:59:35+02:00</time>
      </trkpt>
      <trkpt lat="47.82609" lon="5.93024">
        <ele>213.90039</ele>
        <time>2026-05-17T08:59:36+02:00</time>
      </trkpt>
      <trkpt lat="47.82615" lon="5.93021">
        <ele>213.90039</ele>
        <time>2026-05-17T08:59:37+02:00</time>
      </trkpt>
      <trkpt lat="47.82622" lon="5.93017">
        <ele>214</ele>
        <time>2026-05-17T08:59:38+02:00</time>
      </trkpt>
      <trkpt lat="47.82628" lon="5.93013">
        <ele>214</ele>
        <time>2026-05-17T08:59:39+02:00</time>
      </trkpt>
      <trkpt lat="47.82634" lon="5.93008">
        <ele>214.10059</ele>
        <time>2026-05-17T08:59:40+02:00</time>
      </trkpt>
      <trkpt lat="47.8264" lon="5.93003">
        <ele>214</ele>
        <time>2026-05-17T08:59:41+02:00</time>
      </trkpt>
      <trkpt lat="47.82646" lon="5.92997">
        <ele>214.10059</ele>
        <time>2026-05-17T08:59:42+02:00</time>
      </trkpt>
      <trkpt lat="47.82652" lon="5.92991">
        <ele>214.10059</ele>
        <time>2026-05-17T08:59:43+02:00</time>
      </trkpt>
      <trkpt lat="47.82657" lon="5.92985">
        <ele>214.10059</ele>
        <time>2026-05-17T08:59:44+02:00</time>
      </trkpt>
      <trkpt lat="47.82663" lon="5.92978">
        <ele>214.2002</ele>
        <time>2026-05-17T08:59:45+02:00</time>
      </trkpt>
      <trkpt lat="47.82668" lon="5.9297">
        <ele>214.2998</ele>
        <time>2026-05-17T08:59:46+02:00</time>
      </trkpt>
      <trkpt lat="47.82672" lon="5.92962">
        <ele>214.2998</ele>
        <time>2026-05-17T08:59:47+02:00</time>
      </trkpt>
      <trkpt lat="47.82676" lon="5.92953">
        <ele>214.2998</ele>
        <time>2026-05-17T08:59:48+02:00</time>
      </trkpt>
      <trkpt lat="47.82679" lon="5.92943">
        <ele>214.2002</ele>
        <time>2026-05-17T08:59:49+02:00</time>
      </trkpt>
      <trkpt lat="47.82682" lon="5.92934">
        <ele>214.2002</ele>
        <time>2026-05-17T08:59:50+02:00</time>
      </trkpt>
      <trkpt lat="47.82685" lon="5.92923">
        <ele>214.2002</ele>
        <time>2026-05-17T08:59:51+02:00</time>
      </trkpt>
      <trkpt lat="47.82687" lon="5.92913">
        <ele>214.10059</ele>
        <time>2026-05-17T08:59:52+02:00</time>
      </trkpt>
      <trkpt lat="47.82688" lon="5.92902">
        <ele>214.2002</ele>
        <time>2026-05-17T08:59:53+02:00</time>
      </trkpt>
      <trkpt lat="47.82689" lon="5.92892">
        <ele>214.10059</ele>
        <time>2026-05-17T08:59:54+02:00</time>
      </trkpt>
      <trkpt lat="47.82691" lon="5.92881">
        <ele>214</ele>
        <time>2026-05-17T08:59:55+02:00</time>
      </trkpt>
      <trkpt lat="47.82694" lon="5.92871">
        <ele>214.2002</ele>
        <time>2026-05-17T08:59:56+02:00</time>
      </trkpt>
      <trkpt lat="47.82697" lon="5.92861">
        <ele>214.2002</ele>
        <time>2026-05-17T08:59:57+02:00</time>
      </trkpt>
      <trkpt lat="47.827" lon="5.92851">
        <ele>214.2998</ele>
        <time>2026-05-17T08:59:58+02:00</time>
      </trkpt>
      <trkpt lat="47.82703" lon="5.92841">
        <ele>214.10059</ele>
        <time>2026-05-17T08:59:59+02:00</time>
      </trkpt>
      <trkpt lat="47.82707" lon="5.92832">
        <ele>214</ele>
        <time>2026-05-17T09:00:00+02:00</time>
      </trkpt>
      <trkpt lat="47.8271" lon="5.92823">
        <ele>214</ele>
        <time>2026-05-17T09:00:01+02:00</time>
      </trkpt>
      <trkpt lat="47.82714" lon="5.92814">
        <ele>214</ele>
        <time>2026-05-17T09:00:02+02:00</time>
      </trkpt>
      <trkpt lat="47.82718" lon="5.92805">
        <ele>214.10059</ele>
        <time>2026-05-17T09:00:03+02:00</time>
      </trkpt>
      <trkpt lat="47.82722" lon="5.92797">
        <ele>214.10059</ele>
        <time>2026-05-17T09:00:04+02:00</time>
      </trkpt>
      <trkpt lat="47.82726" lon="5.9279">
        <ele>214.10059</ele>
        <time>2026-05-17T09:00:05+02:00</time>
      </trkpt>
      <trkpt lat="47.82731" lon="5.92783">
        <ele>214.10059</ele>
        <time>2026-05-17T09:00:06+02:00</time>
      </trkpt>
      <trkpt lat="47.82736" lon="5.92776">
        <ele>214.10059</ele>
        <time>2026-05-17T09:00:07+02:00</time>
      </trkpt>
      <trkpt lat="47.82739" lon="5.9277">
        <ele>214</ele>
        <time>2026-05-17T09:00:08+02:00</time>
      </trkpt>
      <trkpt lat="47.82742" lon="5.92764">
        <ele>214.10059</ele>
        <time>2026-05-17T09:00:09+02:00</time>
      </trkpt>
      <trkpt lat="47.82745" lon="5.92759">
        <ele>214.2002</ele>
        <time>2026-05-17T09:00:10+02:00</time>
      </trkpt>
      <trkpt lat="47.82749" lon="5.92754">
        <ele>214.10059</ele>
        <time>2026-05-17T09:00:11+02:00</time>
      </trkpt>
      <trkpt lat="47.82754" lon="5.9275">
        <ele>214.2002</ele>
        <time>2026-05-17T09:00:12+02:00</time>
      </trkpt>
      <trkpt lat="47.82759" lon="5.92749">
        <ele>214.40039</ele>
        <time>2026-05-17T09:00:13+02:00</time>
      </trkpt>
      <trkpt lat="47.82763" lon="5.92752">
        <ele>214.5</ele>
        <time>2026-05-17T09:00:14+02:00</time>
      </trkpt>
      <trkpt lat="47.82768" lon="5.92757">
        <ele>214.7998</ele>
        <time>2026-05-17T09:00:15+02:00</time>
      </trkpt>
      <trkpt lat="47.82771" lon="5.92764">
        <ele>215</ele>
        <time>2026-05-17T09:00:16+02:00</time>
      </trkpt>
      <trkpt lat="47.82776" lon="5.9277">
        <ele>215.2002</ele>
        <time>2026-05-17T09:00:17+02:00</time>
      </trkpt>
      <trkpt lat="47.8278" lon="5.92777">
        <ele>215.60059</ele>
        <time>2026-05-17T09:00:18+02:00</time>
      </trkpt>
      <trkpt lat="47.82784" lon="5.92783">
        <ele>215.7998</ele>
        <time>2026-05-17T09:00:19+02:00</time>
      </trkpt>
      <trkpt lat="47.82789" lon="5.92789">
        <ele>216</ele>
        <time>2026-05-17T09:00:20+02:00</time>
      </trkpt>
      <trkpt lat="47.82793" lon="5.92793">
        <ele>216.5</ele>
        <time>2026-05-17T09:00:21+02:00</time>
      </trkpt>
      <trkpt lat="47.82799" lon="5.92795">
        <ele>216.90039</ele>
        <time>2026-05-17T09:00:22+02:00</time>
      </trkpt>
      <trkpt lat="47.82803" lon="5.92792">
        <ele>217.2002</ele>
        <time>2026-05-17T09:00:23+02:00</time>
      </trkpt>
      <trkpt lat="47.82807" lon="5.92786">
        <ele>216.90039</ele>
        <time>2026-05-17T09:00:24+02:00</time>
      </trkpt>
      <trkpt lat="47.82811" lon="5.92779">
        <ele>217</ele>
        <time>2026-05-17T09:00:25+02:00</time>
      </trkpt>
      <trkpt lat="47.82815" lon="5.92773">
        <ele>217.40039</ele>
        <time>2026-05-17T09:00:26+02:00</time>
      </trkpt>
      <trkpt lat="47.8282" lon="5.92766">
        <ele>217.5</ele>
        <time>2026-05-17T09:00:27+02:00</time>
      </trkpt>
      <trkpt lat="47.82824" lon="5.9276">
        <ele>217</ele>
        <time>2026-05-17T09:00:28+02:00</time>
      </trkpt>
      <trkpt lat="47.82829" lon="5.92753">
        <ele>217</ele>
        <time>2026-05-17T09:00:29+02:00</time>
      </trkpt>
      <trkpt lat="47.82835" lon="5.92746">
        <ele>217.2002</ele>
        <time>2026-05-17T09:00:30+02:00</time>
      </trkpt>
      <trkpt lat="47.8284" lon="5.9274">
        <ele>217.7998</ele>
        <time>2026-05-17T09:00:31+02:00</time>
      </trkpt>
      <trkpt lat="47.82845" lon="5.92734">
        <ele>217.90039</ele>
        <time>2026-05-17T09:00:32+02:00</time>
      </trkpt>
      <trkpt lat="47.8285" lon="5.92728">
        <ele>218</ele>
        <time>2026-05-17T09:00:33+02:00</time>
      </trkpt>
      <trkpt lat="47.82855" lon="5.92721">
        <ele>218.5</ele>
        <time>2026-05-17T09:00:34+02:00</time>
      </trkpt>
      <trkpt lat="47.8286" lon="5.92715">
        <ele>218.5</ele>
        <time>2026-05-17T09:00:35+02:00</time>
      </trkpt>
      <trkpt lat="47.82865" lon="5.92708">
        <ele>217.90039</ele>
        <time>2026-05-17T09:00:36+02:00</time>
      </trkpt>
      <trkpt lat="47.82871" lon="5.92702">
        <ele>217.7998</ele>
        <time>2026-05-17T09:00:37+02:00</time>
      </trkpt>
      <trkpt lat="47.82876" lon="5.92695">
        <ele>217.7002</ele>
        <time>2026-05-17T09:00:38+02:00</time>
      </trkpt>
      <trkpt lat="47.82882" lon="5.92689">
        <ele>218.10059</ele>
        <time>2026-05-17T09:00:39+02:00</time>
      </trkpt>
      <trkpt lat="47.82889" lon="5.92683">
        <ele>218.2002</ele>
        <time>2026-05-17T09:00:40+02:00</time>
      </trkpt>
      <trkpt lat="47.82895" lon="5.92677">
        <ele>217.7998</ele>
        <time>2026-05-17T09:00:41+02:00</time>
      </trkpt>
      <trkpt lat="47.82902" lon="5.92672">
        <ele>218.10059</ele>
        <time>2026-05-17T09:00:42+02:00</time>
      </trkpt>
      <trkpt lat="47.82908" lon="5.92668">
        <ele>217.7998</ele>
        <time>2026-05-17T09:00:43+02:00</time>
      </trkpt>
      <trkpt lat="47.82915" lon="5.92663">
        <ele>218</ele>
        <time>2026-05-17T09:00:44+02:00</time>
      </trkpt>
      <trkpt lat="47.82922" lon="5.92659">
        <ele>217.60059</ele>
        <time>2026-05-17T09:00:45+02:00</time>
      </trkpt>
      <trkpt lat="47.82929" lon="5.92656">
        <ele>217.7998</ele>
        <time>2026-05-17T09:00:46+02:00</time>
      </trkpt>
      <trkpt lat="47.82937" lon="5.92652">
        <ele>217.5</ele>
        <time>2026-05-17T09:00:47+02:00</time>
      </trkpt>
      <trkpt lat="47.82943" lon="5.92648">
        <ele>217.5</ele>
        <time>2026-05-17T09:00:48+02:00</time>
      </trkpt>
      <trkpt lat="47.82951" lon="5.92644">
        <ele>217.60059</ele>
        <time>2026-05-17T09:00:49+02:00</time>
      </trkpt>
      <trkpt lat="47.82958" lon="5.9264">
        <ele>217.10059</ele>
        <time>2026-05-17T09:00:50+02:00</time>
      </trkpt>
      <trkpt lat="47.82965" lon="5.92636">
        <ele>217.2002</ele>
        <time>2026-05-17T09:00:51+02:00</time>
      </trkpt>
      <trkpt lat="47.82972" lon="5.92632">
        <ele>216.7998</ele>
        <time>2026-05-17T09:00:52+02:00</time>
      </trkpt>
      <trkpt lat="47.82978" lon="5.92627">
        <ele>216.7998</ele>
        <time>2026-05-17T09:00:53+02:00</time>
      </trkpt>
      <trkpt lat="47.82984" lon="5.92621">
        <ele>216.5</ele>
        <time>2026-05-17T09:00:54+02:00</time>
      </trkpt>
      <trkpt lat="47.8299" lon="5.92614">
        <ele>216.2998</ele>
        <time>2026-05-17T09:00:55+02:00</time>
      </trkpt>
      <trkpt lat="47.82995" lon="5.92606">
        <ele>216</ele>
        <time>2026-05-17T09:00:56+02:00</time>
      </trkpt>
      <trkpt lat="47.82999" lon="5.92598">
        <ele>215.7998</ele>
        <time>2026-05-17T09:00:57+02:00</time>
      </trkpt>
      <trkpt lat="47.83003" lon="5.92589">
        <ele>215.5</ele>
        <time>2026-05-17T09:00:58+02:00</time>
      </trkpt>
      <trkpt lat="47.83007" lon="5.9258">
        <ele>215.40039</ele>
        <time>2026-05-17T09:00:59+02:00</time>
      </trkpt>
      <trkpt lat="47.83012" lon="5.92572">
        <ele>215.2998</ele>
        <time>2026-05-17T09:01:00+02:00</time>
      </trkpt>
      <trkpt lat="47.83016" lon="5.92563">
        <ele>215.2002</ele>
        <time>2026-05-17T09:01:01+02:00</time>
      </trkpt>
      <trkpt lat="47.83021" lon="5.92556">
        <ele>215</ele>
        <time>2026-05-17T09:01:02+02:00</time>
      </trkpt>
      <trkpt lat="47.83027" lon="5.92551">
        <ele>215.10059</ele>
        <time>2026-05-17T09:01:03+02:00</time>
      </trkpt>
      <trkpt lat="47.83034" lon="5.92549">
        <ele>215.2998</ele>
        <time>2026-05-17T09:01:04+02:00</time>
      </trkpt>
      <trkpt lat="47.8304" lon="5.92551">
        <ele>215.60059</ele>
        <time>2026-05-17T09:01:05+02:00</time>
      </trkpt>
      <trkpt lat="47.83046" lon="5.92555">
        <ele>215.7002</ele>
        <time>2026-05-17T09:01:06+02:00</time>
      </trkpt>
      <trkpt lat="47.83051" lon="5.9256">
        <ele>216</ele>
        <time>2026-05-17T09:01:07+02:00</time>
      </trkpt>
      <trkpt lat="47.83056" lon="5.92565">
        <ele>216.2002</ele>
        <time>2026-05-17T09:01:08+02:00</time>
      </trkpt>
      <trkpt lat="47.83062" lon="5.9257">
        <ele>216.40039</ele>
        <time>2026-05-17T09:01:09+02:00</time>
      </trkpt>
      <trkpt lat="47.83068" lon="5.92576">
        <ele>216.60059</ele>
        <time>2026-05-17T09:01:10+02:00</time>
      </trkpt>
      <trkpt lat="47.83075" lon="5.92581">
        <ele>216.7002</ele>
        <time>2026-05-17T09:01:11+02:00</time>
      </trkpt>
      <trkpt lat="47.83081" lon="5.92585">
        <ele>216.90039</ele>
        <time>2026-05-17T09:01:12+02:00</time>
      </trkpt>
      <trkpt lat="47.83088" lon="5.92588">
        <ele>216.90039</ele>
        <time>2026-05-17T09:01:13+02:00</time>
      </trkpt>
      <trkpt lat="47.83095" lon="5.92591">
        <ele>216.90039</ele>
        <time>2026-05-17T09:01:14+02:00</time>
      </trkpt>
      <trkpt lat="47.83101" lon="5.92594">
        <ele>217.2002</ele>
        <time>2026-05-17T09:01:15+02:00</time>
      </trkpt>
      <trkpt lat="47.83107" lon="5.92596">
        <ele>217.2002</ele>
        <time>2026-05-17T09:01:16+02:00</time>
      </trkpt>
      <trkpt lat="47.83114" lon="5.92598">
        <ele>217.2998</ele>
        <time>2026-05-17T09:01:17+02:00</time>
      </trkpt>
      <trkpt lat="47.8312" lon="5.92599">
        <ele>217.2998</ele>
        <time>2026-05-17T09:01:18+02:00</time>
      </trkpt>
      <trkpt lat="47.83127" lon="5.926">
        <ele>217.2998</ele>
        <time>2026-05-17T09:01:19+02:00</time>
      </trkpt>
      <trkpt lat="47.83133" lon="5.92601">
        <ele>217.7002</ele>
        <time>2026-05-17T09:01:20+02:00</time>
      </trkpt>
      <trkpt lat="47.8314" lon="5.92602">
        <ele>217.7002</ele>
        <time>2026-05-17T09:01:21+02:00</time>
      </trkpt>
      <trkpt lat="47.83146" lon="5.92603">
        <ele>217.7002</ele>
        <time>2026-05-17T09:01:22+02:00</time>
      </trkpt>
      <trkpt lat="47.83153" lon="5.92605">
        <ele>217.7002</ele>
        <time>2026-05-17T09:01:23+02:00</time>
      </trkpt>
      <trkpt lat="47.83159" lon="5.92605">
        <ele>217.7002</ele>
        <time>2026-05-17T09:01:24+02:00</time>
      </trkpt>
      <trkpt lat="47.83165" lon="5.92606">
        <ele>217.7002</ele>
        <time>2026-05-17T09:01:25+02:00</time>
      </trkpt>
      <trkpt lat="47.83171" lon="5.92607">
        <ele>217.7002</ele>
        <time>2026-05-17T09:01:26+02:00</time>
      </trkpt>
      <trkpt lat="47.83177" lon="5.92608">
        <ele>217.7002</ele>
        <time>2026-05-17T09:01:27+02:00</time>
      </trkpt>
      <trkpt lat="47.83184" lon="5.92609">
        <ele>217.60059</ele>
        <time>2026-05-17T09:01:28+02:00</time>
      </trkpt>
      <trkpt lat="47.83191" lon="5.9261">
        <ele>218.10059</ele>
        <time>2026-05-17T09:01:29+02:00</time>
      </trkpt>
      <trkpt lat="47.83198" lon="5.92611">
        <ele>218</ele>
        <time>2026-05-17T09:01:30+02:00</time>
      </trkpt>
      <trkpt lat="47.83204" lon="5.92611">
        <ele>217.90039</ele>
        <time>2026-05-17T09:01:31+02:00</time>
      </trkpt>
      <trkpt lat="47.83211" lon="5.92612">
        <ele>217.7002</ele>
        <time>2026-05-17T09:01:32+02:00</time>
      </trkpt>
      <trkpt lat="47.83218" lon="5.92613">
        <ele>217.40039</ele>
        <time>2026-05-17T09:01:33+02:00</time>
      </trkpt>
      <trkpt lat="47.83224" lon="5.92614">
        <ele>217.2002</ele>
        <time>2026-05-17T09:01:34+02:00</time>
      </trkpt>
      <trkpt lat="47.83231" lon="5.92614">
        <ele>217</ele>
        <time>2026-05-17T09:01:35+02:00</time>
      </trkpt>
      <trkpt lat="47.83238" lon="5.92615">
        <ele>216.90039</ele>
        <time>2026-05-17T09:01:36+02:00</time>
      </trkpt>
      <trkpt lat="47.83244" lon="5.92616">
        <ele>216.7002</ele>
        <time>2026-05-17T09:01:37+02:00</time>
      </trkpt>
      <trkpt lat="47.8325" lon="5.92616">
        <ele>216.60059</ele>
        <time>2026-05-17T09:01:38+02:00</time>
      </trkpt>
      <trkpt lat="47.83257" lon="5.92617">
        <ele>216.5</ele>
        <time>2026-05-17T09:01:39+02:00</time>
      </trkpt>
      <trkpt lat="47.83263" lon="5.92618">
        <ele>216.90039</ele>
        <time>2026-05-17T09:01:40+02:00</time>
      </trkpt>
      <trkpt lat="47.8327" lon="5.92618">
        <ele>216.7998</ele>
        <time>2026-05-17T09:01:41+02:00</time>
      </trkpt>
      <trkpt lat="47.83276" lon="5.92618">
        <ele>216.7998</ele>
        <time>2026-05-17T09:01:42+02:00</time>
      </trkpt>
      <trkpt lat="47.83283" lon="5.92619">
        <ele>216.7002</ele>
        <time>2026-05-17T09:01:43+02:00</time>
      </trkpt>
      <trkpt lat="47.83289" lon="5.92619">
        <ele>216.7002</ele>
        <time>2026-05-17T09:01:44+02:00</time>
      </trkpt>
      <trkpt lat="47.83295" lon="5.9262">
        <ele>216.7002</ele>
        <time>2026-05-17T09:01:45+02:00</time>
      </trkpt>
      <trkpt lat="47.83301" lon="5.9262">
        <ele>216.7998</ele>
        <time>2026-05-17T09:01:46+02:00</time>
      </trkpt>
      <trkpt lat="47.83307" lon="5.92621">
        <ele>216.90039</ele>
        <time>2026-05-17T09:01:47+02:00</time>
      </trkpt>
      <trkpt lat="47.83314" lon="5.92622">
        <ele>217</ele>
        <time>2026-05-17T09:01:48+02:00</time>
      </trkpt>
      <trkpt lat="47.8332" lon="5.92622">
        <ele>217.2002</ele>
        <time>2026-05-17T09:01:49+02:00</time>
      </trkpt>
      <trkpt lat="47.83325" lon="5.92623">
        <ele>217.40039</ele>
        <time>2026-05-17T09:01:50+02:00</time>
      </trkpt>
      <trkpt lat="47.83331" lon="5.92624">
        <ele>217.7002</ele>
        <time>2026-05-17T09:01:51+02:00</time>
      </trkpt>
      <trkpt lat="47.83337" lon="5.92625">
        <ele>217.90039</ele>
        <time>2026-05-17T09:01:52+02:00</time>
      </trkpt>
      <trkpt lat="47.83343" lon="5.92627">
        <ele>218.60059</ele>
        <time>2026-05-17T09:01:53+02:00</time>
      </trkpt>
      <trkpt lat="47.83349" lon="5.92629">
        <ele>218.7998</ele>
        <time>2026-05-17T09:01:54+02:00</time>
      </trkpt>
      <trkpt lat="47.83355" lon="5.92631">
        <ele>219</ele>
        <time>2026-05-17T09:01:55+02:00</time>
      </trkpt>
      <trkpt lat="47.8336" lon="5.92633">
        <ele>219.2002</ele>
        <time>2026-05-17T09:01:56+02:00</time>
      </trkpt>
      <trkpt lat="47.83366" lon="5.92636">
        <ele>219.7998</ele>
        <time>2026-05-17T09:01:57+02:00</time>
      </trkpt>
      <trkpt lat="47.83372" lon="5.92638">
        <ele>220</ele>
        <time>2026-05-17T09:01:58+02:00</time>
      </trkpt>
      <trkpt lat="47.83378" lon="5.92641">
        <ele>220.10059</ele>
        <time>2026-05-17T09:01:59+02:00</time>
      </trkpt>
      <trkpt lat="47.83383" lon="5.92644">
        <ele>220.5</ele>
        <time>2026-05-17T09:02:00+02:00</time>
      </trkpt>
      <trkpt lat="47.83389" lon="5.92647">
        <ele>220.5</ele>
        <time>2026-05-17T09:02:01+02:00</time>
      </trkpt>
      <trkpt lat="47.83394" lon="5.92649">
        <ele>220.5</ele>
        <time>2026-05-17T09:02:02+02:00</time>
      </trkpt>
      <trkpt lat="47.834" lon="5.92652">
        <ele>220.5</ele>
        <time>2026-05-17T09:02:03+02:00</time>
      </trkpt>
      <trkpt lat="47.83405" lon="5.92655">
        <ele>220.7998</ele>
        <time>2026-05-17T09:02:04+02:00</time>
      </trkpt>
      <trkpt lat="47.8341" lon="5.92656">
        <ele>220.7998</ele>
        <time>2026-05-17T09:02:05+02:00</time>
      </trkpt>
      <trkpt lat="47.83416" lon="5.92656">
        <ele>220.7998</ele>
        <time>2026-05-17T09:02:06+02:00</time>
      </trkpt>
      <trkpt lat="47.83421" lon="5.92654">
        <ele>220.7998</ele>
        <time>2026-05-17T09:02:07+02:00</time>
      </trkpt>
      <trkpt lat="47.83426" lon="5.92649">
        <ele>220.5</ele>
        <time>2026-05-17T09:02:08+02:00</time>
      </trkpt>
      <trkpt lat="47.83431" lon="5.92643">
        <ele>220.2998</ele>
        <time>2026-05-17T09:02:09+02:00</time>
      </trkpt>
      <trkpt lat="47.83436" lon="5.92636">
        <ele>220.2998</ele>
        <time>2026-05-17T09:02:10+02:00</time>
      </trkpt>
      <trkpt lat="47.83441" lon="5.92629">
        <ele>219.90039</ele>
        <time>2026-05-17T09:02:11+02:00</time>
      </trkpt>
      <trkpt lat="47.83447" lon="5.92621">
        <ele>219.60059</ele>
        <time>2026-05-17T09:02:12+02:00</time>
      </trkpt>
      <trkpt lat="47.83453" lon="5.92613">
        <ele>219.2998</ele>
        <time>2026-05-17T09:02:13+02:00</time>
      </trkpt>
      <trkpt lat="47.8346" lon="5.92606">
        <ele>219</ele>
        <time>2026-05-17T09:02:14+02:00</time>
      </trkpt>
      <trkpt lat="47.83466" lon="5.92598">
        <ele>218.7002</ele>
        <time>2026-05-17T09:02:15+02:00</time>
      </trkpt>
      <trkpt lat="47.83473" lon="5.92591">
        <ele>218.5</ele>
        <time>2026-05-17T09:02:16+02:00</time>
      </trkpt>
      <trkpt lat="47.8348" lon="5.92584">
        <ele>218.5</ele>
        <time>2026-05-17T09:02:17+02:00</time>
      </trkpt>
      <trkpt lat="47.83487" lon="5.92578">
        <ele>218.2998</ele>
        <time>2026-05-17T09:02:18+02:00</time>
      </trkpt>
      <trkpt lat="47.83494" lon="5.92572">
        <ele>218.2002</ele>
        <time>2026-05-17T09:02:19+02:00</time>
      </trkpt>
      <trkpt lat="47.83502" lon="5.92567">
        <ele>218.2002</ele>
        <time>2026-05-17T09:02:20+02:00</time>
      </trkpt>
      <trkpt lat="47.8351" lon="5.92564">
        <ele>218.10059</ele>
        <time>2026-05-17T09:02:21+02:00</time>
      </trkpt>
      <trkpt lat="47.83518" lon="5.92562">
        <ele>218.2998</ele>
        <time>2026-05-17T09:02:22+02:00</time>
      </trkpt>
      <trkpt lat="47.83526" lon="5.92561">
        <ele>218.2998</ele>
        <time>2026-05-17T09:02:23+02:00</time>
      </trkpt>
      <trkpt lat="47.83533" lon="5.92559">
        <ele>218.40039</ele>
        <time>2026-05-17T09:02:24+02:00</time>
      </trkpt>
      <trkpt lat="47.83541" lon="5.92557">
        <ele>218.2998</ele>
        <time>2026-05-17T09:02:25+02:00</time>
      </trkpt>
      <trkpt lat="47.83548" lon="5.92556">
        <ele>218.40039</ele>
        <time>2026-05-17T09:02:26+02:00</time>
      </trkpt>
      <trkpt lat="47.83556" lon="5.92555">
        <ele>218.40039</ele>
        <time>2026-05-17T09:02:27+02:00</time>
      </trkpt>
      <trkpt lat="47.83564" lon="5.92554">
        <ele>218.5</ele>
        <time>2026-05-17T09:02:28+02:00</time>
      </trkpt>
      <trkpt lat="47.83571" lon="5.92553">
        <ele>218.5</ele>
        <time>2026-05-17T09:02:29+02:00</time>
      </trkpt>
      <trkpt lat="47.83579" lon="5.92552">
        <ele>218.5</ele>
        <time>2026-05-17T09:02:30+02:00</time>
      </trkpt>
      <trkpt lat="47.83586" lon="5.92551">
        <ele>218.60059</ele>
        <time>2026-05-17T09:02:31+02:00</time>
      </trkpt>
      <trkpt lat="47.83594" lon="5.9255">
        <ele>218.60059</ele>
        <time>2026-05-17T09:02:32+02:00</time>
      </trkpt>
      <trkpt lat="47.83601" lon="5.9255">
        <ele>218.60059</ele>
        <time>2026-05-17T09:02:33+02:00</time>
      </trkpt>
      <trkpt lat="47.83608" lon="5.92549">
        <ele>218.40039</ele>
        <time>2026-05-17T09:02:34+02:00</time>
      </trkpt>
      <trkpt lat="47.83615" lon="5.92548">
        <ele>218.2998</ele>
        <time>2026-05-17T09:02:35+02:00</time>
      </trkpt>
      <trkpt lat="47.83622" lon="5.92548">
        <ele>218.2998</ele>
        <time>2026-05-17T09:02:36+02:00</time>
      </trkpt>
      <trkpt lat="47.8363" lon="5.92547">
        <ele>218.2998</ele>
        <time>2026-05-17T09:02:37+02:00</time>
      </trkpt>
      <trkpt lat="47.83637" lon="5.92547">
        <ele>218.2998</ele>
        <time>2026-05-17T09:02:38+02:00</time>
      </trkpt>
      <trkpt lat="47.83643" lon="5.92547">
        <ele>218.2998</ele>
        <time>2026-05-17T09:02:39+02:00</time>
      </trkpt>
      <trkpt lat="47.8365" lon="5.92547">
        <ele>218.40039</ele>
        <time>2026-05-17T09:02:40+02:00</time>
      </trkpt>
      <trkpt lat="47.83656" lon="5.92547">
        <ele>218.40039</ele>
        <time>2026-05-17T09:02:41+02:00</time>
      </trkpt>
      <trkpt lat="47.83663" lon="5.92547">
        <ele>218.5</ele>
        <time>2026-05-17T09:02:42+02:00</time>
      </trkpt>
      <trkpt lat="47.83668" lon="5.92549">
        <ele>218.7002</ele>
        <time>2026-05-17T09:02:43+02:00</time>
      </trkpt>
      <trkpt lat="47.83673" lon="5.92553">
        <ele>219.10059</ele>
        <time>2026-05-17T09:02:44+02:00</time>
      </trkpt>
      <trkpt lat="47.83678" lon="5.92558">
        <ele>219.5</ele>
        <time>2026-05-17T09:02:45+02:00</time>
      </trkpt>
      <trkpt lat="47.83682" lon="5.92563">
        <ele>219.7002</ele>
        <time>2026-05-17T09:02:46+02:00</time>
      </trkpt>
      <trkpt lat="47.83687" lon="5.92568">
        <ele>220.2002</ele>
        <time>2026-05-17T09:02:47+02:00</time>
      </trkpt>
      <trkpt lat="47.83692" lon="5.92571">
        <ele>220.2998</ele>
        <time>2026-05-17T09:02:48+02:00</time>
      </trkpt>
      <trkpt lat="47.83697" lon="5.92573">
        <ele>220.5</ele>
        <time>2026-05-17T09:02:49+02:00</time>
      </trkpt>
      <trkpt lat="47.83702" lon="5.92573">
        <ele>220.60059</ele>
        <time>2026-05-17T09:02:50+02:00</time>
      </trkpt>
      <trkpt lat="47.83707" lon="5.92571">
        <ele>220.7002</ele>
        <time>2026-05-17T09:02:51+02:00</time>
      </trkpt>
      <trkpt lat="47.83712" lon="5.92569">
        <ele>220.7002</ele>
        <time>2026-05-17T09:02:52+02:00</time>
      </trkpt>
      <trkpt lat="47.83717" lon="5.92567">
        <ele>220.90039</ele>
        <time>2026-05-17T09:02:53+02:00</time>
      </trkpt>
      <trkpt lat="47.83722" lon="5.92564">
        <ele>220.7002</ele>
        <time>2026-05-17T09:02:54+02:00</time>
      </trkpt>
      <trkpt lat="47.83727" lon="5.92561">
        <ele>220.7998</ele>
        <time>2026-05-17T09:02:55+02:00</time>
      </trkpt>
      <trkpt lat="47.83733" lon="5.92559">
        <ele>220.90039</ele>
        <time>2026-05-17T09:02:56+02:00</time>
      </trkpt>
      <trkpt lat="47.83738" lon="5.92556">
        <ele>220.60059</ele>
        <time>2026-05-17T09:02:57+02:00</time>
      </trkpt>
      <trkpt lat="47.83744" lon="5.92554">
        <ele>220.7002</ele>
        <time>2026-05-17T09:02:58+02:00</time>
      </trkpt>
      <trkpt lat="47.8375" lon="5.92552">
        <ele>220.90039</ele>
        <time>2026-05-17T09:02:59+02:00</time>
      </trkpt>
      <trkpt lat="47.83756" lon="5.9255">
        <ele>221.10059</ele>
        <time>2026-05-17T09:03:00+02:00</time>
      </trkpt>
      <trkpt lat="47.83762" lon="5.92548">
        <ele>220.90039</ele>
        <time>2026-05-17T09:03:01+02:00</time>
      </trkpt>
      <trkpt lat="47.83768" lon="5.92546">
        <ele>221.10059</ele>
        <time>2026-05-17T09:03:02+02:00</time>
      </trkpt>
      <trkpt lat="47.83774" lon="5.92543">
        <ele>221.2998</ele>
        <time>2026-05-17T09:03:03+02:00</time>
      </trkpt>
      <trkpt lat="47.8378" lon="5.9254">
        <ele>221</ele>
        <time>2026-05-17T09:03:04+02:00</time>
      </trkpt>
      <trkpt lat="47.83786" lon="5.92538">
        <ele>221.10059</ele>
        <time>2026-05-17T09:03:05+02:00</time>
      </trkpt>
      <trkpt lat="47.83792" lon="5.92535">
        <ele>221.2002</ele>
        <time>2026-05-17T09:03:06+02:00</time>
      </trkpt>
      <trkpt lat="47.83798" lon="5.92533">
        <ele>221.2998</ele>
        <time>2026-05-17T09:03:07+02:00</time>
      </trkpt>
      <trkpt lat="47.83804" lon="5.9253">
        <ele>220.90039</ele>
        <time>2026-05-17T09:03:08+02:00</time>
      </trkpt>
      <trkpt lat="47.83811" lon="5.92527">
        <ele>221</ele>
        <time>2026-05-17T09:03:09+02:00</time>
      </trkpt>
      <trkpt lat="47.83816" lon="5.92524">
        <ele>221</ele>
        <time>2026-05-17T09:03:10+02:00</time>
      </trkpt>
      <trkpt lat="47.83822" lon="5.92522">
        <ele>220.60059</ele>
        <time>2026-05-17T09:03:11+02:00</time>
      </trkpt>
      <trkpt lat="47.83828" lon="5.92519">
        <ele>220.7998</ele>
        <time>2026-05-17T09:03:12+02:00</time>
      </trkpt>
      <trkpt lat="47.83834" lon="5.92516">
        <ele>220.90039</ele>
        <time>2026-05-17T09:03:13+02:00</time>
      </trkpt>
      <trkpt lat="47.8384" lon="5.92514">
        <ele>220.60059</ele>
        <time>2026-05-17T09:03:14+02:00</time>
      </trkpt>
      <trkpt lat="47.83846" lon="5.92511">
        <ele>220.7998</ele>
        <time>2026-05-17T09:03:15+02:00</time>
      </trkpt>
      <trkpt lat="47.83852" lon="5.92508">
        <ele>221</ele>
        <time>2026-05-17T09:03:16+02:00</time>
      </trkpt>
      <trkpt lat="47.83858" lon="5.92506">
        <ele>220.7002</ele>
        <time>2026-05-17T09:03:17+02:00</time>
      </trkpt>
      <trkpt lat="47.83864" lon="5.92503">
        <ele>220.90039</ele>
        <time>2026-05-17T09:03:18+02:00</time>
      </trkpt>
      <trkpt lat="47.8387" lon="5.92501">
        <ele>221.10059</ele>
        <time>2026-05-17T09:03:19+02:00</time>
      </trkpt>
      <trkpt lat="47.83875" lon="5.92498">
        <ele>221.2998</ele>
        <time>2026-05-17T09:03:20+02:00</time>
      </trkpt>
      <trkpt lat="47.83881" lon="5.92495">
        <ele>221.10059</ele>
        <time>2026-05-17T09:03:21+02:00</time>
      </trkpt>
      <trkpt lat="47.83887" lon="5.92493">
        <ele>221.40039</ele>
        <time>2026-05-17T09:03:22+02:00</time>
      </trkpt>
      <trkpt lat="47.83893" lon="5.9249">
        <ele>221.7002</ele>
        <time>2026-05-17T09:03:23+02:00</time>
      </trkpt>
      <trkpt lat="47.83899" lon="5.92488">
        <ele>221.60059</ele>
        <time>2026-05-17T09:03:24+02:00</time>
      </trkpt>
      <trkpt lat="47.83904" lon="5.92486">
        <ele>221.90039</ele>
        <time>2026-05-17T09:03:25+02:00</time>
      </trkpt>
      <trkpt lat="47.8391" lon="5.92483">
        <ele>222.2002</ele>
        <time>2026-05-17T09:03:26+02:00</time>
      </trkpt>
      <trkpt lat="47.83916" lon="5.92481">
        <ele>222.60059</ele>
        <time>2026-05-17T09:03:27+02:00</time>
      </trkpt>
      <trkpt lat="47.83922" lon="5.92478">
        <ele>222.5</ele>
        <time>2026-05-17T09:03:28+02:00</time>
      </trkpt>
      <trkpt lat="47.83928" lon="5.92475">
        <ele>222.90039</ele>
        <time>2026-05-17T09:03:29+02:00</time>
      </trkpt>
      <trkpt lat="47.83935" lon="5.92473">
        <ele>223.40039</ele>
        <time>2026-05-17T09:03:30+02:00</time>
      </trkpt>
      <trkpt lat="47.83941" lon="5.92471">
        <ele>223.40039</ele>
        <time>2026-05-17T09:03:31+02:00</time>
      </trkpt>
      <trkpt lat="47.83947" lon="5.92468">
        <ele>223.7998</ele>
        <time>2026-05-17T09:03:32+02:00</time>
      </trkpt>
      <trkpt lat="47.83953" lon="5.92466">
        <ele>224</ele>
        <time>2026-05-17T09:03:33+02:00</time>
      </trkpt>
      <trkpt lat="47.83959" lon="5.92465">
        <ele>224.2998</ele>
        <time>2026-05-17T09:03:34+02:00</time>
      </trkpt>
      <trkpt lat="47.83965" lon="5.92463">
        <ele>224.10059</ele>
        <time>2026-05-17T09:03:35+02:00</time>
      </trkpt>
      <trkpt lat="47.83971" lon="5.92462">
        <ele>224.2998</ele>
        <time>2026-05-17T09:03:36+02:00</time>
      </trkpt>
      <trkpt lat="47.83976" lon="5.9246">
        <ele>224.5</ele>
        <time>2026-05-17T09:03:37+02:00</time>
      </trkpt>
      <trkpt lat="47.83982" lon="5.92458">
        <ele>224.7002</ele>
        <time>2026-05-17T09:03:38+02:00</time>
      </trkpt>
      <trkpt lat="47.83988" lon="5.92457">
        <ele>224.7998</ele>
        <time>2026-05-17T09:03:39+02:00</time>
      </trkpt>
      <trkpt lat="47.83993" lon="5.92456">
        <ele>225</ele>
        <time>2026-05-17T09:03:40+02:00</time>
      </trkpt>
      <trkpt lat="47.83999" lon="5.92454">
        <ele>224.7002</ele>
        <time>2026-05-17T09:03:41+02:00</time>
      </trkpt>
      <trkpt lat="47.84005" lon="5.92452">
        <ele>224.7998</ele>
        <time>2026-05-17T09:03:42+02:00</time>
      </trkpt>
      <trkpt lat="47.84011" lon="5.92451">
        <ele>224.90039</ele>
        <time>2026-05-17T09:03:43+02:00</time>
      </trkpt>
      <trkpt lat="47.84017" lon="5.92449">
        <ele>225</ele>
        <time>2026-05-17T09:03:44+02:00</time>
      </trkpt>
      <trkpt lat="47.84024" lon="5.92448">
        <ele>225.10059</ele>
        <time>2026-05-17T09:03:45+02:00</time>
      </trkpt>
      <trkpt lat="47.8403" lon="5.92447">
        <ele>225.10059</ele>
        <time>2026-05-17T09:03:46+02:00</time>
      </trkpt>
      <trkpt lat="47.84036" lon="5.92445">
        <ele>224.7002</ele>
        <time>2026-05-17T09:03:47+02:00</time>
      </trkpt>
      <trkpt lat="47.84042" lon="5.92443">
        <ele>224.7002</ele>
        <time>2026-05-17T09:03:48+02:00</time>
      </trkpt>
      <trkpt lat="47.84049" lon="5.92442">
        <ele>224.7002</ele>
        <time>2026-05-17T09:03:49+02:00</time>
      </trkpt>
      <trkpt lat="47.84055" lon="5.92441">
        <ele>224.7002</ele>
        <time>2026-05-17T09:03:50+02:00</time>
      </trkpt>
      <trkpt lat="47.84062" lon="5.9244">
        <ele>224.7998</ele>
        <time>2026-05-17T09:03:51+02:00</time>
      </trkpt>
      <trkpt lat="47.84068" lon="5.92439">
        <ele>224.7998</ele>
        <time>2026-05-17T09:03:52+02:00</time>
      </trkpt>
      <trkpt lat="47.84075" lon="5.92438">
        <ele>224.7002</ele>
        <time>2026-05-17T09:03:53+02:00</time>
      </trkpt>
      <trkpt lat="47.84081" lon="5.92437">
        <ele>224.2998</ele>
        <time>2026-05-17T09:03:54+02:00</time>
      </trkpt>
      <trkpt lat="47.84087" lon="5.92436">
        <ele>224.10059</ele>
        <time>2026-05-17T09:03:55+02:00</time>
      </trkpt>
      <trkpt lat="47.84093" lon="5.92435">
        <ele>223.7998</ele>
        <time>2026-05-17T09:03:56+02:00</time>
      </trkpt>
      <trkpt lat="47.841" lon="5.92435">
        <ele>223.60059</ele>
        <time>2026-05-17T09:03:57+02:00</time>
      </trkpt>
      <trkpt lat="47.84106" lon="5.92436">
        <ele>223.5</ele>
        <time>2026-05-17T09:03:58+02:00</time>
      </trkpt>
      <trkpt lat="47.84113" lon="5.92436">
        <ele>223.40039</ele>
        <time>2026-05-17T09:03:59+02:00</time>
      </trkpt>
      <trkpt lat="47.84119" lon="5.92437">
        <ele>223.2998</ele>
        <time>2026-05-17T09:04:00+02:00</time>
      </trkpt>
      <trkpt lat="47.84126" lon="5.92438">
        <ele>223.60059</ele>
        <time>2026-05-17T09:04:01+02:00</time>
      </trkpt>
      <trkpt lat="47.84133" lon="5.92438">
        <ele>223.60059</ele>
        <time>2026-05-17T09:04:02+02:00</time>
      </trkpt>
      <trkpt lat="47.8414" lon="5.92438">
        <ele>223.60059</ele>
        <time>2026-05-17T09:04:03+02:00</time>
      </trkpt>
      <trkpt lat="47.84146" lon="5.92438">
        <ele>223.7002</ele>
        <time>2026-05-17T09:04:04+02:00</time>
      </trkpt>
      <trkpt lat="47.84153" lon="5.92437">
        <ele>223.5</ele>
        <time>2026-05-17T09:04:05+02:00</time>
      </trkpt>
      <trkpt lat="47.8416" lon="5.92437">
        <ele>223.60059</ele>
        <time>2026-05-17T09:04:06+02:00</time>
      </trkpt>
      <trkpt lat="47.84166" lon="5.92436">
        <ele>223.7998</ele>
        <time>2026-05-17T09:04:07+02:00</time>
      </trkpt>
      <trkpt lat="47.84174" lon="5.92436">
        <ele>224.40039</ele>
        <time>2026-05-17T09:04:08+02:00</time>
      </trkpt>
      <trkpt lat="47.84181" lon="5.92435">
        <ele>224.7002</ele>
        <time>2026-05-17T09:04:09+02:00</time>
      </trkpt>
      <trkpt lat="47.84189" lon="5.92435">
        <ele>225</ele>
        <time>2026-05-17T09:04:10+02:00</time>
      </trkpt>
      <trkpt lat="47.84195" lon="5.92436">
        <ele>225.2002</ele>
        <time>2026-05-17T09:04:11+02:00</time>
      </trkpt>
      <trkpt lat="47.84201" lon="5.92436">
        <ele>225.5</ele>
        <time>2026-05-17T09:04:12+02:00</time>
      </trkpt>
      <trkpt lat="47.84206" lon="5.92436">
        <ele>225.7002</ele>
        <time>2026-05-17T09:04:13+02:00</time>
      </trkpt>
      <trkpt lat="47.8421" lon="5.92437">
        <ele>226</ele>
        <time>2026-05-17T09:04:14+02:00</time>
      </trkpt>
      <trkpt lat="47.84213" lon="5.92437">
        <ele>226</ele>
        <time>2026-05-17T09:04:15+02:00</time>
      </trkpt>
      <trkpt lat="47.84215" lon="5.92435">
        <ele>226.2002</ele>
        <time>2026-05-17T09:04:16+02:00</time>
      </trkpt>
      <trkpt lat="47.84217" lon="5.92431">
        <ele>226.2002</ele>
        <time>2026-05-17T09:04:17+02:00</time>
      </trkpt>
      <trkpt lat="47.84217" lon="5.92427">
        <ele>226.2002</ele>
        <time>2026-05-17T09:04:18+02:00</time>
      </trkpt>
      <trkpt lat="47.84216" lon="5.92421">
        <ele>226.2002</ele>
        <time>2026-05-17T09:04:19+02:00</time>
      </trkpt>
      <trkpt lat="47.84214" lon="5.92415">
        <ele>226</ele>
        <time>2026-05-17T09:04:20+02:00</time>
      </trkpt>
      <trkpt lat="47.84212" lon="5.92409">
        <ele>225.5</ele>
        <time>2026-05-17T09:04:21+02:00</time>
      </trkpt>
      <trkpt lat="47.8421" lon="5.92401">
        <ele>225.2998</ele>
        <time>2026-05-17T09:04:22+02:00</time>
      </trkpt>
      <trkpt lat="47.84209" lon="5.92393">
        <ele>225</ele>
        <time>2026-05-17T09:04:23+02:00</time>
      </trkpt>
      <trkpt lat="47.84207" lon="5.92384">
        <ele>224.2002</ele>
        <time>2026-05-17T09:04:24+02:00</time>
      </trkpt>
      <trkpt lat="47.84205" lon="5.92375">
        <ele>223.7998</ele>
        <time>2026-05-17T09:04:25+02:00</time>
      </trkpt>
      <trkpt lat="47.84203" lon="5.92366">
        <ele>223.40039</ele>
        <time>2026-05-17T09:04:26+02:00</time>
      </trkpt>
      <trkpt lat="47.842" lon="5.92357">
        <ele>222.5</ele>
        <time>2026-05-17T09:04:27+02:00</time>
      </trkpt>
      <trkpt lat="47.84198" lon="5.92347">
        <ele>222.10059</ele>
        <time>2026-05-17T09:04:28+02:00</time>
      </trkpt>
      <trkpt lat="47.84195" lon="5.92338">
        <ele>221.2998</ele>
        <time>2026-05-17T09:04:29+02:00</time>
      </trkpt>
      <trkpt lat="47.84193" lon="5.92328">
        <ele>220.90039</ele>
        <time>2026-05-17T09:04:30+02:00</time>
      </trkpt>
      <trkpt lat="47.8419" lon="5.92318">
        <ele>220.2002</ele>
        <time>2026-05-17T09:04:31+02:00</time>
      </trkpt>
      <trkpt lat="47.84187" lon="5.92308">
        <ele>219.5</ele>
        <time>2026-05-17T09:04:32+02:00</time>
      </trkpt>
      <trkpt lat="47.84185" lon="5.92298">
        <ele>218.90039</ele>
        <time>2026-05-17T09:04:33+02:00</time>
      </trkpt>
      <trkpt lat="47.84182" lon="5.92288">
        <ele>218.60059</ele>
        <time>2026-05-17T09:04:34+02:00</time>
      </trkpt>
      <trkpt lat="47.84179" lon="5.92278">
        <ele>218.2998</ele>
        <time>2026-05-17T09:04:35+02:00</time>
      </trkpt>
      <trkpt lat="47.84177" lon="5.92267">
        <ele>218.10059</ele>
        <time>2026-05-17T09:04:36+02:00</time>
      </trkpt>
      <trkpt lat="47.84174" lon="5.92257">
        <ele>217.7002</ele>
        <time>2026-05-17T09:04:37+02:00</time>
      </trkpt>
      <trkpt lat="47.84171" lon="5.92248">
        <ele>217.5</ele>
        <time>2026-05-17T09:04:38+02:00</time>
      </trkpt>
      <trkpt lat="47.84169" lon="5.92238">
        <ele>217.2998</ele>
        <time>2026-05-17T09:04:39+02:00</time>
      </trkpt>
      <trkpt lat="47.84167" lon="5.92229">
        <ele>217.2002</ele>
        <time>2026-05-17T09:04:40+02:00</time>
      </trkpt>
      <trkpt lat="47.84164" lon="5.92219">
        <ele>217.10059</ele>
        <time>2026-05-17T09:04:41+02:00</time>
      </trkpt>
      <trkpt lat="47.84162" lon="5.9221">
        <ele>216.90039</ele>
        <time>2026-05-17T09:04:42+02:00</time>
      </trkpt>
      <trkpt lat="47.84159" lon="5.922">
        <ele>216.7998</ele>
        <time>2026-05-17T09:04:43+02:00</time>
      </trkpt>
      <trkpt lat="47.84157" lon="5.92191">
        <ele>216.7002</ele>
        <time>2026-05-17T09:04:44+02:00</time>
      </trkpt>
      <trkpt lat="47.84154" lon="5.92181">
        <ele>216.5</ele>
        <time>2026-05-17T09:04:45+02:00</time>
      </trkpt>
      <trkpt lat="47.84152" lon="5.92171">
        <ele>216.2998</ele>
        <time>2026-05-17T09:04:46+02:00</time>
      </trkpt>
      <trkpt lat="47.84149" lon="5.92161">
        <ele>216.10059</ele>
        <time>2026-05-17T09:04:47+02:00</time>
      </trkpt>
      <trkpt lat="47.84146" lon="5.92151">
        <ele>216</ele>
        <time>2026-05-17T09:04:48+02:00</time>
      </trkpt>
      <trkpt lat="47.84144" lon="5.92142">
        <ele>215.7998</ele>
        <time>2026-05-17T09:04:49+02:00</time>
      </trkpt>
      <trkpt lat="47.84141" lon="5.92132">
        <ele>215.7002</ele>
        <time>2026-05-17T09:04:50+02:00</time>
      </trkpt>
      <trkpt lat="47.84138" lon="5.92122">
        <ele>215.5</ele>
        <time>2026-05-17T09:04:51+02:00</time>
      </trkpt>
      <trkpt lat="47.84136" lon="5.92112">
        <ele>215.40039</ele>
        <time>2026-05-17T09:04:52+02:00</time>
      </trkpt>
      <trkpt lat="47.84133" lon="5.92103">
        <ele>215.2998</ele>
        <time>2026-05-17T09:04:53+02:00</time>
      </trkpt>
      <trkpt lat="47.84131" lon="5.92093">
        <ele>215</ele>
        <time>2026-05-17T09:04:54+02:00</time>
      </trkpt>
      <trkpt lat="47.84128" lon="5.92083">
        <ele>214.90039</ele>
        <time>2026-05-17T09:04:55+02:00</time>
      </trkpt>
      <trkpt lat="47.84125" lon="5.92074">
        <ele>214.7002</ele>
        <time>2026-05-17T09:04:56+02:00</time>
      </trkpt>
      <trkpt lat="47.84123" lon="5.92064">
        <ele>214.5</ele>
        <time>2026-05-17T09:04:57+02:00</time>
      </trkpt>
      <trkpt lat="47.8412" lon="5.92055">
        <ele>214.2998</ele>
        <time>2026-05-17T09:04:58+02:00</time>
      </trkpt>
      <trkpt lat="47.84118" lon="5.92045">
        <ele>214.2002</ele>
        <time>2026-05-17T09:04:59+02:00</time>
      </trkpt>
      <trkpt lat="47.84115" lon="5.92036">
        <ele>214</ele>
        <time>2026-05-17T09:05:00+02:00</time>
      </trkpt>
      <trkpt lat="47.84113" lon="5.92026">
        <ele>213.90039</ele>
        <time>2026-05-17T09:05:01+02:00</time>
      </trkpt>
      <trkpt lat="47.8411" lon="5.92017">
        <ele>213.60059</ele>
        <time>2026-05-17T09:05:02+02:00</time>
      </trkpt>
      <trkpt lat="47.84108" lon="5.92007">
        <ele>213.60059</ele>
        <time>2026-05-17T09:05:03+02:00</time>
      </trkpt>
      <trkpt lat="47.84105" lon="5.91998">
        <ele>213.5</ele>
        <time>2026-05-17T09:05:04+02:00</time>
      </trkpt>
      <trkpt lat="47.84102" lon="5.91988">
        <ele>213.60059</ele>
        <time>2026-05-17T09:05:05+02:00</time>
      </trkpt>
      <trkpt lat="47.841" lon="5.91979">
        <ele>213.60059</ele>
        <time>2026-05-17T09:05:06+02:00</time>
      </trkpt>
      <trkpt lat="47.84097" lon="5.91969">
        <ele>213.7002</ele>
        <time>2026-05-17T09:05:07+02:00</time>
      </trkpt>
      <trkpt lat="47.84095" lon="5.9196">
        <ele>213.7998</ele>
        <time>2026-05-17T09:05:08+02:00</time>
      </trkpt>
      <trkpt lat="47.84092" lon="5.91951">
        <ele>213.90039</ele>
        <time>2026-05-17T09:05:09+02:00</time>
      </trkpt>
      <trkpt lat="47.8409" lon="5.91942">
        <ele>214</ele>
        <time>2026-05-17T09:05:10+02:00</time>
      </trkpt>
      <trkpt lat="47.84088" lon="5.91933">
        <ele>214.2002</ele>
        <time>2026-05-17T09:05:11+02:00</time>
      </trkpt>
      <trkpt lat="47.84085" lon="5.91924">
        <ele>214.2998</ele>
        <time>2026-05-17T09:05:12+02:00</time>
      </trkpt>
      <trkpt lat="47.84083" lon="5.91915">
        <ele>214.40039</ele>
        <time>2026-05-17T09:05:13+02:00</time>
      </trkpt>
      <trkpt lat="47.84081" lon="5.91907">
        <ele>214.5</ele>
        <time>2026-05-17T09:05:14+02:00</time>
      </trkpt>
      <trkpt lat="47.84079" lon="5.91898">
        <ele>214.7002</ele>
        <time>2026-05-17T09:05:15+02:00</time>
      </trkpt>
      <trkpt lat="47.84077" lon="5.91889">
        <ele>214.90039</ele>
        <time>2026-05-17T09:05:16+02:00</time>
      </trkpt>
      <trkpt lat="47.84076" lon="5.91881">
        <ele>215.10059</ele>
        <time>2026-05-17T09:05:17+02:00</time>
      </trkpt>
      <trkpt lat="47.84074" lon="5.91874">
        <ele>215.2002</ele>
        <time>2026-05-17T09:05:18+02:00</time>
      </trkpt>
      <trkpt lat="47.84073" lon="5.91868">
        <ele>215.40039</ele>
        <time>2026-05-17T09:05:19+02:00</time>
      </trkpt>
      <trkpt lat="47.84071" lon="5.91862">
        <ele>215.60059</ele>
        <time>2026-05-17T09:05:20+02:00</time>
      </trkpt>
      <trkpt lat="47.8407" lon="5.91856">
        <ele>215.5</ele>
        <time>2026-05-17T09:05:21+02:00</time>
      </trkpt>
      <trkpt lat="47.84068" lon="5.91851">
        <ele>215.7002</ele>
        <time>2026-05-17T09:05:22+02:00</time>
      </trkpt>
      <trkpt lat="47.84065" lon="5.91848">
        <ele>215.7002</ele>
        <time>2026-05-17T09:05:23+02:00</time>
      </trkpt>
      <trkpt lat="47.84062" lon="5.91845">
        <ele>215.7998</ele>
        <time>2026-05-17T09:05:24+02:00</time>
      </trkpt>
      <trkpt lat="47.84059" lon="5.9184">
        <ele>215.7998</ele>
        <time>2026-05-17T09:05:25+02:00</time>
      </trkpt>
      <trkpt lat="47.84057" lon="5.91833">
        <ele>215.90039</ele>
        <time>2026-05-17T09:05:26+02:00</time>
      </trkpt>
      <trkpt lat="47.84054" lon="5.91826">
        <ele>216</ele>
        <time>2026-05-17T09:05:27+02:00</time>
      </trkpt>
      <trkpt lat="47.84051" lon="5.91817">
        <ele>216.10059</ele>
        <time>2026-05-17T09:05:28+02:00</time>
      </trkpt>
      <trkpt lat="47.84048" lon="5.91809">
        <ele>216.10059</ele>
        <time>2026-05-17T09:05:29+02:00</time>
      </trkpt>
      <trkpt lat="47.84045" lon="5.918">
        <ele>216</ele>
        <time>2026-05-17T09:05:30+02:00</time>
      </trkpt>
      <trkpt lat="47.84044" lon="5.91792">
        <ele>216</ele>
        <time>2026-05-17T09:05:31+02:00</time>
      </trkpt>
      <trkpt lat="47.84044" lon="5.91783">
        <ele>215.90039</ele>
        <time>2026-05-17T09:05:32+02:00</time>
      </trkpt>
      <trkpt lat="47.84046" lon="5.91776">
        <ele>215.7998</ele>
        <time>2026-05-17T09:05:33+02:00</time>
      </trkpt>
      <trkpt lat="47.8405" lon="5.9177">
        <ele>215.90039</ele>
        <time>2026-05-17T09:05:34+02:00</time>
      </trkpt>
      <trkpt lat="47.84055" lon="5.91766">
        <ele>215.90039</ele>
        <time>2026-05-17T09:05:35+02:00</time>
      </trkpt>
      <trkpt lat="47.8406" lon="5.91764">
        <ele>216.10059</ele>
        <time>2026-05-17T09:05:36+02:00</time>
      </trkpt>
      <trkpt lat="47.84067" lon="5.91761">
        <ele>216.2002</ele>
        <time>2026-05-17T09:05:37+02:00</time>
      </trkpt>
      <trkpt lat="47.84073" lon="5.91759">
        <ele>216.40039</ele>
        <time>2026-05-17T09:05:38+02:00</time>
      </trkpt>
      <trkpt lat="47.8408" lon="5.91756">
        <ele>216.5</ele>
        <time>2026-05-17T09:05:39+02:00</time>
      </trkpt>
      <trkpt lat="47.84087" lon="5.91754">
        <ele>216.5</ele>
        <time>2026-05-17T09:05:40+02:00</time>
      </trkpt>
      <trkpt lat="47.84093" lon="5.91753">
        <ele>216.60059</ele>
        <time>2026-05-17T09:05:41+02:00</time>
      </trkpt>
      <trkpt lat="47.841" lon="5.91752">
        <ele>216.60059</ele>
        <time>2026-05-17T09:05:42+02:00</time>
      </trkpt>
      <trkpt lat="47.84107" lon="5.91751">
        <ele>216.5</ele>
        <time>2026-05-17T09:05:43+02:00</time>
      </trkpt>
      <trkpt lat="47.84112" lon="5.91752">
        <ele>216.60059</ele>
        <time>2026-05-17T09:05:44+02:00</time>
      </trkpt>
      <trkpt lat="47.84117" lon="5.91753">
        <ele>216.60059</ele>
        <time>2026-05-17T09:05:45+02:00</time>
      </trkpt>
      <trkpt lat="47.84121" lon="5.91753">
        <ele>216.60059</ele>
        <time>2026-05-17T09:05:46+02:00</time>
      </trkpt>
      <trkpt lat="47.84125" lon="5.91754">
        <ele>216.60059</ele>
        <time>2026-05-17T09:05:47+02:00</time>
      </trkpt>
      <trkpt lat="47.84129" lon="5.91756">
        <ele>216.5</ele>
        <time>2026-05-17T09:05:48+02:00</time>
      </trkpt>
      <trkpt lat="47.84133" lon="5.91759">
        <ele>216.5</ele>
        <time>2026-05-17T09:05:49+02:00</time>
      </trkpt>
      <trkpt lat="47.84137" lon="5.91762">
        <ele>216.5</ele>
        <time>2026-05-17T09:05:50+02:00</time>
      </trkpt>
      <trkpt lat="47.84142" lon="5.91765">
        <ele>216.5</ele>
        <time>2026-05-17T09:05:51+02:00</time>
      </trkpt>
      <trkpt lat="47.84147" lon="5.9177">
        <ele>216.40039</ele>
        <time>2026-05-17T09:05:52+02:00</time>
      </trkpt>
      <trkpt lat="47.84152" lon="5.91776">
        <ele>216.40039</ele>
        <time>2026-05-17T09:05:53+02:00</time>
      </trkpt>
      <trkpt lat="47.84156" lon="5.91782">
        <ele>216.40039</ele>
        <time>2026-05-17T09:05:54+02:00</time>
      </trkpt>
      <trkpt lat="47.84161" lon="5.91788">
        <ele>216.2998</ele>
        <time>2026-05-17T09:05:55+02:00</time>
      </trkpt>
      <trkpt lat="47.84165" lon="5.91796">
        <ele>216.2002</ele>
        <time>2026-05-17T09:05:56+02:00</time>
      </trkpt>
      <trkpt lat="47.84169" lon="5.91804">
        <ele>216.2002</ele>
        <time>2026-05-17T09:05:57+02:00</time>
      </trkpt>
      <trkpt lat="47.84172" lon="5.91813">
        <ele>216.2002</ele>
        <time>2026-05-17T09:05:58+02:00</time>
      </trkpt>
      <trkpt lat="47.84175" lon="5.91822">
        <ele>216.2002</ele>
        <time>2026-05-17T09:05:59+02:00</time>
      </trkpt>
      <trkpt lat="47.84178" lon="5.91831">
        <ele>216.2002</ele>
        <time>2026-05-17T09:06:00+02:00</time>
      </trkpt>
      <trkpt lat="47.8418" lon="5.91841">
        <ele>216.2002</ele>
        <time>2026-05-17T09:06:01+02:00</time>
      </trkpt>
      <trkpt lat="47.84182" lon="5.9185">
        <ele>216.2002</ele>
        <time>2026-05-17T09:06:02+02:00</time>
      </trkpt>
      <trkpt lat="47.84184" lon="5.9186">
        <ele>216.10059</ele>
        <time>2026-05-17T09:06:03+02:00</time>
      </trkpt>
      <trkpt lat="47.84186" lon="5.91869">
        <ele>216.2002</ele>
        <time>2026-05-17T09:06:04+02:00</time>
      </trkpt>
      <trkpt lat="47.84189" lon="5.91879">
        <ele>216.10059</ele>
        <time>2026-05-17T09:06:05+02:00</time>
      </trkpt>
      <trkpt lat="47.84191" lon="5.91888">
        <ele>216.10059</ele>
        <time>2026-05-17T09:06:06+02:00</time>
      </trkpt>
      <trkpt lat="47.84195" lon="5.91897">
        <ele>216.10059</ele>
        <time>2026-05-17T09:06:07+02:00</time>
      </trkpt>
      <trkpt lat="47.84198" lon="5.91905">
        <ele>216.10059</ele>
        <time>2026-05-17T09:06:08+02:00</time>
      </trkpt>
      <trkpt lat="47.84202" lon="5.91914">
        <ele>216.10059</ele>
        <time>2026-05-17T09:06:09+02:00</time>
      </trkpt>
      <trkpt lat="47.84206" lon="5.91922">
        <ele>216.10059</ele>
        <time>2026-05-17T09:06:10+02:00</time>
      </trkpt>
      <trkpt lat="47.8421" lon="5.91929">
        <ele>216.10059</ele>
        <time>2026-05-17T09:06:11+02:00</time>
      </trkpt>
      <trkpt lat="47.84215" lon="5.91936">
        <ele>216</ele>
        <time>2026-05-17T09:06:12+02:00</time>
      </trkpt>
      <trkpt lat="47.8422" lon="5.91942">
        <ele>216</ele>
        <time>2026-05-17T09:06:13+02:00</time>
      </trkpt>
      <trkpt lat="47.84225" lon="5.91948">
        <ele>216</ele>
        <time>2026-05-17T09:06:14+02:00</time>
      </trkpt>
      <trkpt lat="47.84231" lon="5.91954">
        <ele>215.90039</ele>
        <time>2026-05-17T09:06:15+02:00</time>
      </trkpt>
      <trkpt lat="47.84236" lon="5.91958">
        <ele>215.7998</ele>
        <time>2026-05-17T09:06:16+02:00</time>
      </trkpt>
      <trkpt lat="47.84242" lon="5.91963">
        <ele>215.7998</ele>
        <time>2026-05-17T09:06:17+02:00</time>
      </trkpt>
      <trkpt lat="47.84248" lon="5.91967">
        <ele>215.7002</ele>
        <time>2026-05-17T09:06:18+02:00</time>
      </trkpt>
      <trkpt lat="47.84255" lon="5.91971">
        <ele>215.7002</ele>
        <time>2026-05-17T09:06:19+02:00</time>
      </trkpt>
      <trkpt lat="47.84261" lon="5.91974">
        <ele>215.60059</ele>
        <time>2026-05-17T09:06:20+02:00</time>
      </trkpt>
      <trkpt lat="47.84268" lon="5.91976">
        <ele>215.40039</ele>
        <time>2026-05-17T09:06:21+02:00</time>
      </trkpt>
      <trkpt lat="47.84274" lon="5.91977">
        <ele>215.2998</ele>
        <time>2026-05-17T09:06:22+02:00</time>
      </trkpt>
      <trkpt lat="47.84281" lon="5.91978">
        <ele>215.2002</ele>
        <time>2026-05-17T09:06:23+02:00</time>
      </trkpt>
      <trkpt lat="47.84287" lon="5.91978">
        <ele>215.2002</ele>
        <time>2026-05-17T09:06:24+02:00</time>
      </trkpt>
      <trkpt lat="47.84293" lon="5.91979">
        <ele>215.10059</ele>
        <time>2026-05-17T09:06:25+02:00</time>
      </trkpt>
      <trkpt lat="47.843" lon="5.91979">
        <ele>215</ele>
        <time>2026-05-17T09:06:26+02:00</time>
      </trkpt>
      <trkpt lat="47.84307" lon="5.91979">
        <ele>214.90039</ele>
        <time>2026-05-17T09:06:27+02:00</time>
      </trkpt>
      <trkpt lat="47.84314" lon="5.91979">
        <ele>214.7998</ele>
        <time>2026-05-17T09:06:28+02:00</time>
      </trkpt>
      <trkpt lat="47.84321" lon="5.91979">
        <ele>214.7998</ele>
        <time>2026-05-17T09:06:29+02:00</time>
      </trkpt>
      <trkpt lat="47.84327" lon="5.91979">
        <ele>214.7002</ele>
        <time>2026-05-17T09:06:30+02:00</time>
      </trkpt>
      <trkpt lat="47.84334" lon="5.91979">
        <ele>214.7002</ele>
        <time>2026-05-17T09:06:31+02:00</time>
      </trkpt>
      <trkpt lat="47.84341" lon="5.91979">
        <ele>214.7998</ele>
        <time>2026-05-17T09:06:32+02:00</time>
      </trkpt>
      <trkpt lat="47.84348" lon="5.91979">
        <ele>214.7998</ele>
        <time>2026-05-17T09:06:33+02:00</time>
      </trkpt>
      <trkpt lat="47.84355" lon="5.9198">
        <ele>214.90039</ele>
        <time>2026-05-17T09:06:34+02:00</time>
      </trkpt>
      <trkpt lat="47.84362" lon="5.91979">
        <ele>215</ele>
        <time>2026-05-17T09:06:35+02:00</time>
      </trkpt>
      <trkpt lat="47.84368" lon="5.91979">
        <ele>215.10059</ele>
        <time>2026-05-17T09:06:36+02:00</time>
      </trkpt>
      <trkpt lat="47.84374" lon="5.91979">
        <ele>215.2002</ele>
        <time>2026-05-17T09:06:37+02:00</time>
      </trkpt>
      <trkpt lat="47.84379" lon="5.91978">
        <ele>215.2002</ele>
        <time>2026-05-17T09:06:38+02:00</time>
      </trkpt>
      <trkpt lat="47.84384" lon="5.91979">
        <ele>215.2998</ele>
        <time>2026-05-17T09:06:39+02:00</time>
      </trkpt>
      <trkpt lat="47.84388" lon="5.9198">
        <ele>215.40039</ele>
        <time>2026-05-17T09:06:40+02:00</time>
      </trkpt>
      <trkpt lat="47.84393" lon="5.9198">
        <ele>215.5</ele>
        <time>2026-05-17T09:06:41+02:00</time>
      </trkpt>
      <trkpt lat="47.84398" lon="5.91979">
        <ele>215.5</ele>
        <time>2026-05-17T09:06:42+02:00</time>
      </trkpt>
      <trkpt lat="47.84403" lon="5.91979">
        <ele>215.60059</ele>
        <time>2026-05-17T09:06:43+02:00</time>
      </trkpt>
      <trkpt lat="47.84408" lon="5.91979">
        <ele>215.60059</ele>
        <time>2026-05-17T09:06:44+02:00</time>
      </trkpt>
      <trkpt lat="47.84412" lon="5.91978">
        <ele>215.7002</ele>
        <time>2026-05-17T09:06:45+02:00</time>
      </trkpt>
      <trkpt lat="47.84416" lon="5.91976">
        <ele>215.7002</ele>
        <time>2026-05-17T09:06:46+02:00</time>
      </trkpt>
      <trkpt lat="47.84419" lon="5.91972">
        <ele>215.7002</ele>
        <time>2026-05-17T09:06:47+02:00</time>
      </trkpt>
      <trkpt lat="47.84421" lon="5.91968">
        <ele>215.7002</ele>
        <time>2026-05-17T09:06:48+02:00</time>
      </trkpt>
      <trkpt lat="47.84421" lon="5.91963">
        <ele>215.7002</ele>
        <time>2026-05-17T09:06:49+02:00</time>
      </trkpt>
      <trkpt lat="47.84421" lon="5.91958">
        <ele>215.7002</ele>
        <time>2026-05-17T09:06:50+02:00</time>
      </trkpt>
      <trkpt lat="47.84421" lon="5.91953">
        <ele>215.7002</ele>
        <time>2026-05-17T09:06:51+02:00</time>
      </trkpt>
      <trkpt lat="47.84422" lon="5.91947">
        <ele>215.7002</ele>
        <time>2026-05-17T09:06:52+02:00</time>
      </trkpt>
      <trkpt lat="47.84425" lon="5.91942">
        <ele>215.7002</ele>
        <time>2026-05-17T09:06:53+02:00</time>
      </trkpt>
      <trkpt lat="47.84429" lon="5.91939">
        <ele>215.7002</ele>
        <time>2026-05-17T09:06:54+02:00</time>
      </trkpt>
      <trkpt lat="47.84435" lon="5.91939">
        <ele>215.7002</ele>
        <time>2026-05-17T09:06:55+02:00</time>
      </trkpt>
      <trkpt lat="47.84441" lon="5.9194">
        <ele>215.7998</ele>
        <time>2026-05-17T09:06:56+02:00</time>
      </trkpt>
      <trkpt lat="47.84447" lon="5.9194">
        <ele>215.7998</ele>
        <time>2026-05-17T09:06:57+02:00</time>
      </trkpt>
      <trkpt lat="47.84453" lon="5.91941">
        <ele>215.7998</ele>
        <time>2026-05-17T09:06:58+02:00</time>
      </trkpt>
      <trkpt lat="47.84459" lon="5.91941">
        <ele>215.7998</ele>
        <time>2026-05-17T09:06:59+02:00</time>
      </trkpt>
      <trkpt lat="47.84466" lon="5.91942">
        <ele>215.7998</ele>
        <time>2026-05-17T09:07:00+02:00</time>
      </trkpt>
      <trkpt lat="47.84472" lon="5.91942">
        <ele>215.90039</ele>
        <time>2026-05-17T09:07:01+02:00</time>
      </trkpt>
      <trkpt lat="47.84479" lon="5.91941">
        <ele>215.90039</ele>
        <time>2026-05-17T09:07:02+02:00</time>
      </trkpt>
      <trkpt lat="47.84485" lon="5.9194">
        <ele>215.90039</ele>
        <time>2026-05-17T09:07:03+02:00</time>
      </trkpt>
      <trkpt lat="47.84491" lon="5.9194">
        <ele>216</ele>
        <time>2026-05-17T09:07:04+02:00</time>
      </trkpt>
      <trkpt lat="47.84496" lon="5.9194">
        <ele>216</ele>
        <time>2026-05-17T09:07:05+02:00</time>
      </trkpt>
      <trkpt lat="47.84503" lon="5.9194">
        <ele>216</ele>
        <time>2026-05-17T09:07:06+02:00</time>
      </trkpt>
      <trkpt lat="47.84509" lon="5.91941">
        <ele>216</ele>
        <time>2026-05-17T09:07:07+02:00</time>
      </trkpt>
      <trkpt lat="47.84515" lon="5.91941">
        <ele>216.10059</ele>
        <time>2026-05-17T09:07:08+02:00</time>
      </trkpt>
      <trkpt lat="47.84521" lon="5.91941">
        <ele>216.10059</ele>
        <time>2026-05-17T09:07:09+02:00</time>
      </trkpt>
      <trkpt lat="47.84528" lon="5.91941">
        <ele>216.10059</ele>
        <time>2026-05-17T09:07:10+02:00</time>
      </trkpt>
      <trkpt lat="47.84534" lon="5.91941">
        <ele>216.10059</ele>
        <time>2026-05-17T09:07:11+02:00</time>
      </trkpt>
      <trkpt lat="47.84541" lon="5.91941">
        <ele>216.10059</ele>
        <time>2026-05-17T09:07:12+02:00</time>
      </trkpt>
      <trkpt lat="47.84547" lon="5.91941">
        <ele>216.2002</ele>
        <time>2026-05-17T09:07:13+02:00</time>
      </trkpt>
      <trkpt lat="47.84553" lon="5.91941">
        <ele>216.2002</ele>
        <time>2026-05-17T09:07:14+02:00</time>
      </trkpt>
      <trkpt lat="47.8456" lon="5.91941">
        <ele>216.2998</ele>
        <time>2026-05-17T09:07:15+02:00</time>
      </trkpt>
      <trkpt lat="47.84566" lon="5.91941">
        <ele>216.2998</ele>
        <time>2026-05-17T09:07:16+02:00</time>
      </trkpt>
      <trkpt lat="47.84573" lon="5.91941">
        <ele>216.2998</ele>
        <time>2026-05-17T09:07:17+02:00</time>
      </trkpt>
      <trkpt lat="47.8458" lon="5.91941">
        <ele>216.40039</ele>
        <time>2026-05-17T09:07:18+02:00</time>
      </trkpt>
      <trkpt lat="47.84586" lon="5.91941">
        <ele>216.40039</ele>
        <time>2026-05-17T09:07:19+02:00</time>
      </trkpt>
      <trkpt lat="47.84593" lon="5.91941">
        <ele>216.40039</ele>
        <time>2026-05-17T09:07:20+02:00</time>
      </trkpt>
      <trkpt lat="47.84599" lon="5.91941">
        <ele>216.5</ele>
        <time>2026-05-17T09:07:21+02:00</time>
      </trkpt>
      <trkpt lat="47.84606" lon="5.91941">
        <ele>216.5</ele>
        <time>2026-05-17T09:07:22+02:00</time>
      </trkpt>
      <trkpt lat="47.84612" lon="5.91941">
        <ele>216.5</ele>
        <time>2026-05-17T09:07:23+02:00</time>
      </trkpt>
      <trkpt lat="47.84619" lon="5.91941">
        <ele>216.60059</ele>
        <time>2026-05-17T09:07:24+02:00</time>
      </trkpt>
      <trkpt lat="47.84625" lon="5.91941">
        <ele>216.60059</ele>
        <time>2026-05-17T09:07:25+02:00</time>
      </trkpt>
      <trkpt lat="47.84632" lon="5.91942">
        <ele>216.7002</ele>
        <time>2026-05-17T09:07:26+02:00</time>
      </trkpt>
      <trkpt lat="47.84639" lon="5.91942">
        <ele>216.7002</ele>
        <time>2026-05-17T09:07:27+02:00</time>
      </trkpt>
      <trkpt lat="47.84646" lon="5.91943">
        <ele>216.7998</ele>
        <time>2026-05-17T09:07:28+02:00</time>
      </trkpt>
      <trkpt lat="47.84652" lon="5.91944">
        <ele>216.7998</ele>
        <time>2026-05-17T09:07:29+02:00</time>
      </trkpt>
      <trkpt lat="47.84659" lon="5.91945">
        <ele>216.7002</ele>
        <time>2026-05-17T09:07:30+02:00</time>
      </trkpt>
      <trkpt lat="47.84667" lon="5.91946">
        <ele>216.7002</ele>
        <time>2026-05-17T09:07:31+02:00</time>
      </trkpt>
      <trkpt lat="47.84673" lon="5.91947">
        <ele>216.7002</ele>
        <time>2026-05-17T09:07:32+02:00</time>
      </trkpt>
      <trkpt lat="47.8468" lon="5.91949">
        <ele>216.2998</ele>
        <time>2026-05-17T09:07:33+02:00</time>
      </trkpt>
      <trkpt lat="47.84687" lon="5.9195">
        <ele>216.2998</ele>
        <time>2026-05-17T09:07:34+02:00</time>
      </trkpt>
      <trkpt lat="47.84694" lon="5.91952">
        <ele>216.2998</ele>
        <time>2026-05-17T09:07:35+02:00</time>
      </trkpt>
      <trkpt lat="47.84701" lon="5.91954">
        <ele>216.2998</ele>
        <time>2026-05-17T09:07:36+02:00</time>
      </trkpt>
      <trkpt lat="47.84708" lon="5.91956">
        <ele>216.2998</ele>
        <time>2026-05-17T09:07:37+02:00</time>
      </trkpt>
      <trkpt lat="47.84715" lon="5.91958">
        <ele>216.2998</ele>
        <time>2026-05-17T09:07:38+02:00</time>
      </trkpt>
      <trkpt lat="47.84722" lon="5.9196">
        <ele>216.2998</ele>
        <time>2026-05-17T09:07:39+02:00</time>
      </trkpt>
      <trkpt lat="47.84728" lon="5.91963">
        <ele>216.2998</ele>
        <time>2026-05-17T09:07:40+02:00</time>
      </trkpt>
      <trkpt lat="47.84735" lon="5.91965">
        <ele>216.40039</ele>
        <time>2026-05-17T09:07:41+02:00</time>
      </trkpt>
      <trkpt lat="47.84742" lon="5.91968">
        <ele>217</ele>
        <time>2026-05-17T09:07:42+02:00</time>
      </trkpt>
      <trkpt lat="47.84749" lon="5.91971">
        <ele>216.7002</ele>
        <time>2026-05-17T09:07:43+02:00</time>
      </trkpt>
      <trkpt lat="47.84755" lon="5.91974">
        <ele>216.40039</ele>
        <time>2026-05-17T09:07:44+02:00</time>
      </trkpt>
      <trkpt lat="47.84762" lon="5.91978">
        <ele>215.7998</ele>
        <time>2026-05-17T09:07:45+02:00</time>
      </trkpt>
      <trkpt lat="47.84769" lon="5.91981">
        <ele>215.7998</ele>
        <time>2026-05-17T09:07:46+02:00</time>
      </trkpt>
      <trkpt lat="47.84776" lon="5.91985">
        <ele>216.2998</ele>
        <time>2026-05-17T09:07:47+02:00</time>
      </trkpt>
      <trkpt lat="47.84783" lon="5.91989">
        <ele>216.2998</ele>
        <time>2026-05-17T09:07:48+02:00</time>
      </trkpt>
      <trkpt lat="47.84789" lon="5.91992">
        <ele>216.90039</ele>
        <time>2026-05-17T09:07:49+02:00</time>
      </trkpt>
      <trkpt lat="47.84796" lon="5.91996">
        <ele>216.2002</ele>
        <time>2026-05-17T09:07:50+02:00</time>
      </trkpt>
      <trkpt lat="47.84822" lon="5.92013">
        <ele>215.7998</ele>
        <time>2026-05-17T09:07:51+02:00</time>
      </trkpt>
      <trkpt lat="47.84829" lon="5.92017">
        <ele>215.90039</ele>
        <time>2026-05-17T09:07:52+02:00</time>
      </trkpt>
      <trkpt lat="47.84836" lon="5.92021">
        <ele>216.90039</ele>
        <time>2026-05-17T09:07:53+02:00</time>
      </trkpt>
      <trkpt lat="47.84842" lon="5.92026">
        <ele>218.7998</ele>
        <time>2026-05-17T09:07:54+02:00</time>
      </trkpt>
      <trkpt lat="47.84849" lon="5.9203">
        <ele>218.7998</ele>
        <time>2026-05-17T09:07:55+02:00</time>
      </trkpt>
      <trkpt lat="47.84856" lon="5.92035">
        <ele>220.2002</ele>
        <time>2026-05-17T09:07:56+02:00</time>
      </trkpt>
      <trkpt lat="47.84863" lon="5.92039">
        <ele>218.7998</ele>
        <time>2026-05-17T09:07:57+02:00</time>
      </trkpt>
      <trkpt lat="47.8487" lon="5.92044">
        <ele>218</ele>
        <time>2026-05-17T09:07:58+02:00</time>
      </trkpt>
      <trkpt lat="47.84876" lon="5.92048">
        <ele>216.5</ele>
        <time>2026-05-17T09:07:59+02:00</time>
      </trkpt>
      <trkpt lat="47.84883" lon="5.92053">
        <ele>217.90039</ele>
        <time>2026-05-17T09:08:00+02:00</time>
      </trkpt>
      <trkpt lat="47.84889" lon="5.92058">
        <ele>217.90039</ele>
        <time>2026-05-17T09:08:01+02:00</time>
      </trkpt>
      <trkpt lat="47.84896" lon="5.92062">
        <ele>219.7998</ele>
        <time>2026-05-17T09:08:02+02:00</time>
      </trkpt>
      <trkpt lat="47.84903" lon="5.92067">
        <ele>219.10059</ele>
        <time>2026-05-17T09:08:03+02:00</time>
      </trkpt>
      <trkpt lat="47.84909" lon="5.92071">
        <ele>219.2002</ele>
        <time>2026-05-17T09:08:04+02:00</time>
      </trkpt>
      <trkpt lat="47.84916" lon="5.92076">
        <ele>217.40039</ele>
        <time>2026-05-17T09:08:05+02:00</time>
      </trkpt>
      <trkpt lat="47.84922" lon="5.92081">
        <ele>217.10059</ele>
        <time>2026-05-17T09:08:06+02:00</time>
      </trkpt>
      <trkpt lat="47.84928" lon="5.92085">
        <ele>216.40039</ele>
        <time>2026-05-17T09:08:07+02:00</time>
      </trkpt>
      <trkpt lat="47.84935" lon="5.9209">
        <ele>216.10059</ele>
        <time>2026-05-17T09:08:08+02:00</time>
      </trkpt>
      <trkpt lat="47.84941" lon="5.92095">
        <ele>215.7002</ele>
        <time>2026-05-17T09:08:09+02:00</time>
      </trkpt>
      <trkpt lat="47.84947" lon="5.921">
        <ele>215.2998</ele>
        <time>2026-05-17T09:08:10+02:00</time>
      </trkpt>
      <trkpt lat="47.84953" lon="5.92106">
        <ele>215.60059</ele>
        <time>2026-05-17T09:08:11+02:00</time>
      </trkpt>
      <trkpt lat="47.84959" lon="5.92112">
        <ele>216</ele>
        <time>2026-05-17T09:08:12+02:00</time>
      </trkpt>
      <trkpt lat="47.84965" lon="5.92118">
        <ele>215.90039</ele>
        <time>2026-05-17T09:08:13+02:00</time>
      </trkpt>
      <trkpt lat="47.84971" lon="5.92125">
        <ele>215.2998</ele>
        <time>2026-05-17T09:08:14+02:00</time>
      </trkpt>
      <trkpt lat="47.84976" lon="5.92131">
        <ele>215.10059</ele>
        <time>2026-05-17T09:08:15+02:00</time>
      </trkpt>
      <trkpt lat="47.84982" lon="5.92137">
        <ele>215.40039</ele>
        <time>2026-05-17T09:08:16+02:00</time>
      </trkpt>
      <trkpt lat="47.84988" lon="5.92143">
        <ele>216.60059</ele>
        <time>2026-05-17T09:08:17+02:00</time>
      </trkpt>
      <trkpt lat="47.84993" lon="5.9215">
        <ele>218.10059</ele>
        <time>2026-05-17T09:08:18+02:00</time>
      </trkpt>
      <trkpt lat="47.85" lon="5.92156">
        <ele>218.60059</ele>
        <time>2026-05-17T09:08:19+02:00</time>
      </trkpt>
      <trkpt lat="47.85005" lon="5.92162">
        <ele>217.5</ele>
        <time>2026-05-17T09:08:20+02:00</time>
      </trkpt>
      <trkpt lat="47.85011" lon="5.92168">
        <ele>216.5</ele>
        <time>2026-05-17T09:08:21+02:00</time>
      </trkpt>
      <trkpt lat="47.85016" lon="5.92174">
        <ele>216.40039</ele>
        <time>2026-05-17T09:08:22+02:00</time>
      </trkpt>
      <trkpt lat="47.85022" lon="5.92181">
        <ele>216.90039</ele>
        <time>2026-05-17T09:08:23+02:00</time>
      </trkpt>
      <trkpt lat="47.85027" lon="5.92187">
        <ele>215.7998</ele>
        <time>2026-05-17T09:08:24+02:00</time>
      </trkpt>
      <trkpt lat="47.85033" lon="5.92194">
        <ele>215.7998</ele>
        <time>2026-05-17T09:08:25+02:00</time>
      </trkpt>
      <trkpt lat="47.85039" lon="5.922">
        <ele>216</ele>
        <time>2026-05-17T09:08:26+02:00</time>
      </trkpt>
      <trkpt lat="47.85045" lon="5.92206">
        <ele>216.40039</ele>
        <time>2026-05-17T09:08:27+02:00</time>
      </trkpt>
      <trkpt lat="47.8505" lon="5.92212">
        <ele>215.60059</ele>
        <time>2026-05-17T09:08:28+02:00</time>
      </trkpt>
      <trkpt lat="47.85056" lon="5.92219">
        <ele>215.2002</ele>
        <time>2026-05-17T09:08:29+02:00</time>
      </trkpt>
      <trkpt lat="47.85062" lon="5.92225">
        <ele>215.2002</ele>
        <time>2026-05-17T09:08:30+02:00</time>
      </trkpt>
      <trkpt lat="47.85068" lon="5.92231">
        <ele>214.90039</ele>
        <time>2026-05-17T09:08:31+02:00</time>
      </trkpt>
      <trkpt lat="47.85074" lon="5.92236">
        <ele>216.2998</ele>
        <time>2026-05-17T09:08:32+02:00</time>
      </trkpt>
      <trkpt lat="47.8508" lon="5.92242">
        <ele>219</ele>
        <time>2026-05-17T09:08:33+02:00</time>
      </trkpt>
      <trkpt lat="47.85086" lon="5.92247">
        <ele>219</ele>
        <time>2026-05-17T09:08:34+02:00</time>
      </trkpt>
      <trkpt lat="47.85092" lon="5.92253">
        <ele>220</ele>
        <time>2026-05-17T09:08:35+02:00</time>
      </trkpt>
      <trkpt lat="47.85098" lon="5.92258">
        <ele>218.7998</ele>
        <time>2026-05-17T09:08:36+02:00</time>
      </trkpt>
      <trkpt lat="47.85104" lon="5.92264">
        <ele>216.7998</ele>
        <time>2026-05-17T09:08:37+02:00</time>
      </trkpt>
      <trkpt lat="47.8511" lon="5.92269">
        <ele>218.2998</ele>
        <time>2026-05-17T09:08:38+02:00</time>
      </trkpt>
      <trkpt lat="47.85116" lon="5.92274">
        <ele>218.60059</ele>
        <time>2026-05-17T09:08:39+02:00</time>
      </trkpt>
      <trkpt lat="47.85122" lon="5.9228">
        <ele>219.10059</ele>
        <time>2026-05-17T09:08:40+02:00</time>
      </trkpt>
      <trkpt lat="47.85128" lon="5.92285">
        <ele>217.5</ele>
        <time>2026-05-17T09:08:41+02:00</time>
      </trkpt>
      <trkpt lat="47.85134" lon="5.92291">
        <ele>216.2998</ele>
        <time>2026-05-17T09:08:42+02:00</time>
      </trkpt>
      <trkpt lat="47.8514" lon="5.92296">
        <ele>215.7998</ele>
        <time>2026-05-17T09:08:43+02:00</time>
      </trkpt>
      <trkpt lat="47.85146" lon="5.92301">
        <ele>216</ele>
        <time>2026-05-17T09:08:44+02:00</time>
      </trkpt>
      <trkpt lat="47.85152" lon="5.92306">
        <ele>215.2998</ele>
        <time>2026-05-17T09:08:45+02:00</time>
      </trkpt>
      <trkpt lat="47.85158" lon="5.92311">
        <ele>214.7002</ele>
        <time>2026-05-17T09:08:46+02:00</time>
      </trkpt>
      <trkpt lat="47.85164" lon="5.92317">
        <ele>214.5</ele>
        <time>2026-05-17T09:08:47+02:00</time>
      </trkpt>
      <trkpt lat="47.8517" lon="5.92322">
        <ele>216</ele>
        <time>2026-05-17T09:08:48+02:00</time>
      </trkpt>
      <trkpt lat="47.85177" lon="5.92327">
        <ele>217.2998</ele>
        <time>2026-05-17T09:08:49+02:00</time>
      </trkpt>
      <trkpt lat="47.85183" lon="5.92333">
        <ele>216.7998</ele>
        <time>2026-05-17T09:08:50+02:00</time>
      </trkpt>
      <trkpt lat="47.85189" lon="5.92338">
        <ele>216.90039</ele>
        <time>2026-05-17T09:08:51+02:00</time>
      </trkpt>
      <trkpt lat="47.85195" lon="5.92343">
        <ele>215.7002</ele>
        <time>2026-05-17T09:08:52+02:00</time>
      </trkpt>
      <trkpt lat="47.85201" lon="5.92349">
        <ele>215.5</ele>
        <time>2026-05-17T09:08:53+02:00</time>
      </trkpt>
      <trkpt lat="47.85207" lon="5.92354">
        <ele>216.10059</ele>
        <time>2026-05-17T09:08:54+02:00</time>
      </trkpt>
      <trkpt lat="47.85213" lon="5.92359">
        <ele>216</ele>
        <time>2026-05-17T09:08:55+02:00</time>
      </trkpt>
      <trkpt lat="47.85219" lon="5.92364">
        <ele>216.10059</ele>
        <time>2026-05-17T09:08:56+02:00</time>
      </trkpt>
      <trkpt lat="47.85225" lon="5.9237">
        <ele>215.5</ele>
        <time>2026-05-17T09:08:57+02:00</time>
      </trkpt>
      <trkpt lat="47.85231" lon="5.92376">
        <ele>215.60059</ele>
        <time>2026-05-17T09:08:58+02:00</time>
      </trkpt>
      <trkpt lat="47.85237" lon="5.92381">
        <ele>216.10059</ele>
        <time>2026-05-17T09:08:59+02:00</time>
      </trkpt>
      <trkpt lat="47.85243" lon="5.92386">
        <ele>216.10059</ele>
        <time>2026-05-17T09:09:00+02:00</time>
      </trkpt>
      <trkpt lat="47.85249" lon="5.92392">
        <ele>217.10059</ele>
        <time>2026-05-17T09:09:01+02:00</time>
      </trkpt>
      <trkpt lat="47.85256" lon="5.92397">
        <ele>217.90039</ele>
        <time>2026-05-17T09:09:02+02:00</time>
      </trkpt>
      <trkpt lat="47.85262" lon="5.92402">
        <ele>216.90039</ele>
        <time>2026-05-17T09:09:03+02:00</time>
      </trkpt>
      <trkpt lat="47.85268" lon="5.92407">
        <ele>216.5</ele>
        <time>2026-05-17T09:09:04+02:00</time>
      </trkpt>
      <trkpt lat="47.85274" lon="5.92413">
        <ele>215.90039</ele>
        <time>2026-05-17T09:09:05+02:00</time>
      </trkpt>
      <trkpt lat="47.8528" lon="5.92418">
        <ele>215.90039</ele>
        <time>2026-05-17T09:09:06+02:00</time>
      </trkpt>
      <trkpt lat="47.85286" lon="5.92423">
        <ele>216.2002</ele>
        <time>2026-05-17T09:09:07+02:00</time>
      </trkpt>
      <trkpt lat="47.85292" lon="5.92429">
        <ele>216</ele>
        <time>2026-05-17T09:09:08+02:00</time>
      </trkpt>
      <trkpt lat="47.85298" lon="5.92434">
        <ele>215.60059</ele>
        <time>2026-05-17T09:09:09+02:00</time>
      </trkpt>
      <trkpt lat="47.85304" lon="5.92439">
        <ele>215.2998</ele>
        <time>2026-05-17T09:09:10+02:00</time>
      </trkpt>
      <trkpt lat="47.8531" lon="5.92445">
        <ele>215.7998</ele>
        <time>2026-05-17T09:09:11+02:00</time>
      </trkpt>
      <trkpt lat="47.85316" lon="5.9245">
        <ele>216.7002</ele>
        <time>2026-05-17T09:09:12+02:00</time>
      </trkpt>
      <trkpt lat="47.85322" lon="5.92455">
        <ele>217.40039</ele>
        <time>2026-05-17T09:09:13+02:00</time>
      </trkpt>
      <trkpt lat="47.85328" lon="5.92461">
        <ele>217.10059</ele>
        <time>2026-05-17T09:09:14+02:00</time>
      </trkpt>
      <trkpt lat="47.85334" lon="5.92466">
        <ele>216.7002</ele>
        <time>2026-05-17T09:09:15+02:00</time>
      </trkpt>
      <trkpt lat="47.8534" lon="5.92472">
        <ele>216.2002</ele>
        <time>2026-05-17T09:09:16+02:00</time>
      </trkpt>
      <trkpt lat="47.85346" lon="5.92477">
        <ele>216.2002</ele>
        <time>2026-05-17T09:09:17+02:00</time>
      </trkpt>
      <trkpt lat="47.85352" lon="5.92483">
        <ele>216.2002</ele>
        <time>2026-05-17T09:09:18+02:00</time>
      </trkpt>
      <trkpt lat="47.85357" lon="5.92488">
        <ele>216.2002</ele>
        <time>2026-05-17T09:09:19+02:00</time>
      </trkpt>
      <trkpt lat="47.85363" lon="5.92494">
        <ele>216</ele>
        <time>2026-05-17T09:09:20+02:00</time>
      </trkpt>
      <trkpt lat="47.85369" lon="5.925">
        <ele>216</ele>
        <time>2026-05-17T09:09:21+02:00</time>
      </trkpt>
      <trkpt lat="47.85375" lon="5.92506">
        <ele>216</ele>
        <time>2026-05-17T09:09:22+02:00</time>
      </trkpt>
      <trkpt lat="47.8538" lon="5.92513">
        <ele>216.2998</ele>
        <time>2026-05-17T09:09:23+02:00</time>
      </trkpt>
      <trkpt lat="47.85386" lon="5.92519">
        <ele>217</ele>
        <time>2026-05-17T09:09:24+02:00</time>
      </trkpt>
      <trkpt lat="47.85392" lon="5.92525">
        <ele>217.2998</ele>
        <time>2026-05-17T09:09:25+02:00</time>
      </trkpt>
      <trkpt lat="47.85397" lon="5.92532">
        <ele>216.90039</ele>
        <time>2026-05-17T09:09:26+02:00</time>
      </trkpt>
      <trkpt lat="47.85402" lon="5.92538">
        <ele>216.7002</ele>
        <time>2026-05-17T09:09:27+02:00</time>
      </trkpt>
      <trkpt lat="47.85408" lon="5.92545">
        <ele>216.7002</ele>
        <time>2026-05-17T09:09:28+02:00</time>
      </trkpt>
      <trkpt lat="47.85413" lon="5.92552">
        <ele>216.90039</ele>
        <time>2026-05-17T09:09:29+02:00</time>
      </trkpt>
      <trkpt lat="47.85418" lon="5.92558">
        <ele>217.10059</ele>
        <time>2026-05-17T09:09:30+02:00</time>
      </trkpt>
      <trkpt lat="47.85423" lon="5.92565">
        <ele>217.10059</ele>
        <time>2026-05-17T09:09:31+02:00</time>
      </trkpt>
      <trkpt lat="47.85428" lon="5.92572">
        <ele>216.90039</ele>
        <time>2026-05-17T09:09:32+02:00</time>
      </trkpt>
      <trkpt lat="47.85433" lon="5.92579">
        <ele>216.5</ele>
        <time>2026-05-17T09:09:33+02:00</time>
      </trkpt>
      <trkpt lat="47.85438" lon="5.92586">
        <ele>216.2002</ele>
        <time>2026-05-17T09:09:34+02:00</time>
      </trkpt>
      <trkpt lat="47.85443" lon="5.92594">
        <ele>216</ele>
        <time>2026-05-17T09:09:35+02:00</time>
      </trkpt>
      <trkpt lat="47.85448" lon="5.92601">
        <ele>216.2002</ele>
        <time>2026-05-17T09:09:36+02:00</time>
      </trkpt>
      <trkpt lat="47.85453" lon="5.92609">
        <ele>216.2998</ele>
        <time>2026-05-17T09:09:37+02:00</time>
      </trkpt>
      <trkpt lat="47.85458" lon="5.92616">
        <ele>216.2998</ele>
        <time>2026-05-17T09:09:38+02:00</time>
      </trkpt>
      <trkpt lat="47.85462" lon="5.92624">
        <ele>216.10059</ele>
        <time>2026-05-17T09:09:39+02:00</time>
      </trkpt>
      <trkpt lat="47.85467" lon="5.92632">
        <ele>216.10059</ele>
        <time>2026-05-17T09:09:40+02:00</time>
      </trkpt>
      <trkpt lat="47.85471" lon="5.9264">
        <ele>216.10059</ele>
        <time>2026-05-17T09:09:41+02:00</time>
      </trkpt>
      <trkpt lat="47.85476" lon="5.92647">
        <ele>215.90039</ele>
        <time>2026-05-17T09:09:42+02:00</time>
      </trkpt>
      <trkpt lat="47.8548" lon="5.92655">
        <ele>215.7998</ele>
        <time>2026-05-17T09:09:43+02:00</time>
      </trkpt>
      <trkpt lat="47.85485" lon="5.92662">
        <ele>215.7002</ele>
        <time>2026-05-17T09:09:44+02:00</time>
      </trkpt>
      <trkpt lat="47.85489" lon="5.92669">
        <ele>215.7002</ele>
        <time>2026-05-17T09:09:45+02:00</time>
      </trkpt>
      <trkpt lat="47.85494" lon="5.92677">
        <ele>215.7002</ele>
        <time>2026-05-17T09:09:46+02:00</time>
      </trkpt>
      <trkpt lat="47.85498" lon="5.92685">
        <ele>215.7998</ele>
        <time>2026-05-17T09:09:47+02:00</time>
      </trkpt>
      <trkpt lat="47.85503" lon="5.92692">
        <ele>215.60059</ele>
        <time>2026-05-17T09:09:48+02:00</time>
      </trkpt>
      <trkpt lat="47.85507" lon="5.927">
        <ele>215.5</ele>
        <time>2026-05-17T09:09:49+02:00</time>
      </trkpt>
      <trkpt lat="47.85512" lon="5.92707">
        <ele>215.60059</ele>
        <time>2026-05-17T09:09:50+02:00</time>
      </trkpt>
      <trkpt lat="47.85516" lon="5.92714">
        <ele>215.60059</ele>
        <time>2026-05-17T09:09:51+02:00</time>
      </trkpt>
      <trkpt lat="47.85521" lon="5.92722">
        <ele>215.7998</ele>
        <time>2026-05-17T09:09:52+02:00</time>
      </trkpt>
      <trkpt lat="47.85526" lon="5.92729">
        <ele>215.5</ele>
        <time>2026-05-17T09:09:53+02:00</time>
      </trkpt>
      <trkpt lat="47.85529" lon="5.92737">
        <ele>215.40039</ele>
        <time>2026-05-17T09:09:54+02:00</time>
      </trkpt>
      <trkpt lat="47.85534" lon="5.92744">
        <ele>215.60059</ele>
        <time>2026-05-17T09:09:55+02:00</time>
      </trkpt>
      <trkpt lat="47.85538" lon="5.92751">
        <ele>215.7002</ele>
        <time>2026-05-17T09:09:56+02:00</time>
      </trkpt>
      <trkpt lat="47.85542" lon="5.92759">
        <ele>215.7998</ele>
        <time>2026-05-17T09:09:57+02:00</time>
      </trkpt>
      <trkpt lat="47.85547" lon="5.92766">
        <ele>215.90039</ele>
        <time>2026-05-17T09:09:58+02:00</time>
      </trkpt>
      <trkpt lat="47.85552" lon="5.92773">
        <ele>216</ele>
        <time>2026-05-17T09:09:59+02:00</time>
      </trkpt>
      <trkpt lat="47.85556" lon="5.92781">
        <ele>216</ele>
        <time>2026-05-17T09:10:00+02:00</time>
      </trkpt>
      <trkpt lat="47.8556" lon="5.92788">
        <ele>216.2002</ele>
        <time>2026-05-17T09:10:01+02:00</time>
      </trkpt>
      <trkpt lat="47.85565" lon="5.92795">
        <ele>216.2998</ele>
        <time>2026-05-17T09:10:02+02:00</time>
      </trkpt>
      <trkpt lat="47.85569" lon="5.92803">
        <ele>216.40039</ele>
        <time>2026-05-17T09:10:03+02:00</time>
      </trkpt>
      <trkpt lat="47.85574" lon="5.9281">
        <ele>216.2998</ele>
        <time>2026-05-17T09:10:04+02:00</time>
      </trkpt>
      <trkpt lat="47.85578" lon="5.92818">
        <ele>216.2998</ele>
        <time>2026-05-17T09:10:05+02:00</time>
      </trkpt>
      <trkpt lat="47.85582" lon="5.92826">
        <ele>216.40039</ele>
        <time>2026-05-17T09:10:06+02:00</time>
      </trkpt>
      <trkpt lat="47.85587" lon="5.92833">
        <ele>216.5</ele>
        <time>2026-05-17T09:10:07+02:00</time>
      </trkpt>
      <trkpt lat="47.85592" lon="5.9284">
        <ele>216.5</ele>
        <time>2026-05-17T09:10:08+02:00</time>
      </trkpt>
      <trkpt lat="47.85596" lon="5.92848">
        <ele>216.5</ele>
        <time>2026-05-17T09:10:09+02:00</time>
      </trkpt>
      <trkpt lat="47.856" lon="5.92855">
        <ele>216.40039</ele>
        <time>2026-05-17T09:10:10+02:00</time>
      </trkpt>
      <trkpt lat="47.85605" lon="5.92862">
        <ele>216.2998</ele>
        <time>2026-05-17T09:10:11+02:00</time>
      </trkpt>
      <trkpt lat="47.8561" lon="5.9287">
        <ele>216.2998</ele>
        <time>2026-05-17T09:10:12+02:00</time>
      </trkpt>
      <trkpt lat="47.85614" lon="5.92877">
        <ele>216.2998</ele>
        <time>2026-05-17T09:10:13+02:00</time>
      </trkpt>
      <trkpt lat="47.85618" lon="5.92884">
        <ele>216.2998</ele>
        <time>2026-05-17T09:10:14+02:00</time>
      </trkpt>
      <trkpt lat="47.85623" lon="5.92892">
        <ele>216.2998</ele>
        <time>2026-05-17T09:10:15+02:00</time>
      </trkpt>
      <trkpt lat="47.85627" lon="5.92899">
        <ele>216.2998</ele>
        <time>2026-05-17T09:10:16+02:00</time>
      </trkpt>
      <trkpt lat="47.85632" lon="5.92907">
        <ele>216.2998</ele>
        <time>2026-05-17T09:10:17+02:00</time>
      </trkpt>
      <trkpt lat="47.85636" lon="5.92914">
        <ele>216.2002</ele>
        <time>2026-05-17T09:10:18+02:00</time>
      </trkpt>
      <trkpt lat="47.8564" lon="5.92922">
        <ele>216.2998</ele>
        <time>2026-05-17T09:10:19+02:00</time>
      </trkpt>
      <trkpt lat="47.85645" lon="5.92929">
        <ele>216.2998</ele>
        <time>2026-05-17T09:10:20+02:00</time>
      </trkpt>
      <trkpt lat="47.85649" lon="5.92937">
        <ele>216.2998</ele>
        <time>2026-05-17T09:10:21+02:00</time>
      </trkpt>
      <trkpt lat="47.85654" lon="5.92945">
        <ele>216.2002</ele>
        <time>2026-05-17T09:10:22+02:00</time>
      </trkpt>
      <trkpt lat="47.85658" lon="5.92952">
        <ele>216.2002</ele>
        <time>2026-05-17T09:10:23+02:00</time>
      </trkpt>
      <trkpt lat="47.85663" lon="5.9296">
        <ele>216.2998</ele>
        <time>2026-05-17T09:10:24+02:00</time>
      </trkpt>
      <trkpt lat="47.85667" lon="5.92967">
        <ele>216.2998</ele>
        <time>2026-05-17T09:10:25+02:00</time>
      </trkpt>
      <trkpt lat="47.85672" lon="5.92974">
        <ele>216.2998</ele>
        <time>2026-05-17T09:10:26+02:00</time>
      </trkpt>
      <trkpt lat="47.85676" lon="5.92982">
        <ele>216.40039</ele>
        <time>2026-05-17T09:10:27+02:00</time>
      </trkpt>
      <trkpt lat="47.85681" lon="5.92989">
        <ele>216.2998</ele>
        <time>2026-05-17T09:10:28+02:00</time>
      </trkpt>
      <trkpt lat="47.85685" lon="5.92997">
        <ele>216.40039</ele>
        <time>2026-05-17T09:10:29+02:00</time>
      </trkpt>
      <trkpt lat="47.85689" lon="5.93004">
        <ele>216.40039</ele>
        <time>2026-05-17T09:10:30+02:00</time>
      </trkpt>
      <trkpt lat="47.85693" lon="5.93011">
        <ele>216.40039</ele>
        <time>2026-05-17T09:10:31+02:00</time>
      </trkpt>
      <trkpt lat="47.85698" lon="5.93019">
        <ele>216.40039</ele>
        <time>2026-05-17T09:10:32+02:00</time>
      </trkpt>
      <trkpt lat="47.85702" lon="5.93026">
        <ele>216.2998</ele>
        <time>2026-05-17T09:10:33+02:00</time>
      </trkpt>
      <trkpt lat="47.85707" lon="5.93034">
        <ele>216.2998</ele>
        <time>2026-05-17T09:10:34+02:00</time>
      </trkpt>
      <trkpt lat="47.85711" lon="5.93041">
        <ele>216.2998</ele>
        <time>2026-05-17T09:10:35+02:00</time>
      </trkpt>
      <trkpt lat="47.85716" lon="5.93049">
        <ele>216.2998</ele>
        <time>2026-05-17T09:10:36+02:00</time>
      </trkpt>
      <trkpt lat="47.85721" lon="5.93056">
        <ele>216.2998</ele>
        <time>2026-05-17T09:10:37+02:00</time>
      </trkpt>
      <trkpt lat="47.85725" lon="5.93064">
        <ele>216.40039</ele>
        <time>2026-05-17T09:10:38+02:00</time>
      </trkpt>
      <trkpt lat="47.85729" lon="5.93071">
        <ele>216.40039</ele>
        <time>2026-05-17T09:10:39+02:00</time>
      </trkpt>
      <trkpt lat="47.85734" lon="5.93079">
        <ele>216.2998</ele>
        <time>2026-05-17T09:10:40+02:00</time>
      </trkpt>
      <trkpt lat="47.85738" lon="5.93086">
        <ele>216.2998</ele>
        <time>2026-05-17T09:10:41+02:00</time>
      </trkpt>
      <trkpt lat="47.85742" lon="5.93094">
        <ele>216.40039</ele>
        <time>2026-05-17T09:10:42+02:00</time>
      </trkpt>
      <trkpt lat="47.85747" lon="5.93101">
        <ele>216.2998</ele>
        <time>2026-05-17T09:10:43+02:00</time>
      </trkpt>
      <trkpt lat="47.85751" lon="5.93108">
        <ele>216.2998</ele>
        <time>2026-05-17T09:10:44+02:00</time>
      </trkpt>
      <trkpt lat="47.85756" lon="5.93116">
        <ele>216.40039</ele>
        <time>2026-05-17T09:10:45+02:00</time>
      </trkpt>
      <trkpt lat="47.8576" lon="5.93123">
        <ele>216.40039</ele>
        <time>2026-05-17T09:10:46+02:00</time>
      </trkpt>
      <trkpt lat="47.85764" lon="5.9313">
        <ele>216.40039</ele>
        <time>2026-05-17T09:10:47+02:00</time>
      </trkpt>
      <trkpt lat="47.85769" lon="5.93137">
        <ele>216.40039</ele>
        <time>2026-05-17T09:10:48+02:00</time>
      </trkpt>
      <trkpt lat="47.85774" lon="5.93145">
        <ele>216.40039</ele>
        <time>2026-05-17T09:10:49+02:00</time>
      </trkpt>
      <trkpt lat="47.85778" lon="5.93152">
        <ele>216.5</ele>
        <time>2026-05-17T09:10:50+02:00</time>
      </trkpt>
      <trkpt lat="47.85782" lon="5.93159">
        <ele>216.5</ele>
        <time>2026-05-17T09:10:51+02:00</time>
      </trkpt>
      <trkpt lat="47.85787" lon="5.93166">
        <ele>216.40039</ele>
        <time>2026-05-17T09:10:52+02:00</time>
      </trkpt>
      <trkpt lat="47.85791" lon="5.93174">
        <ele>216.40039</ele>
        <time>2026-05-17T09:10:53+02:00</time>
      </trkpt>
      <trkpt lat="47.85796" lon="5.93181">
        <ele>216.40039</ele>
        <time>2026-05-17T09:10:54+02:00</time>
      </trkpt>
      <trkpt lat="47.858" lon="5.93188">
        <ele>216.5</ele>
        <time>2026-05-17T09:10:55+02:00</time>
      </trkpt>
      <trkpt lat="47.85804" lon="5.93195">
        <ele>216.5</ele>
        <time>2026-05-17T09:10:56+02:00</time>
      </trkpt>
      <trkpt lat="47.85808" lon="5.93202">
        <ele>216.5</ele>
        <time>2026-05-17T09:10:57+02:00</time>
      </trkpt>
      <trkpt lat="47.85812" lon="5.93208">
        <ele>216.40039</ele>
        <time>2026-05-17T09:10:58+02:00</time>
      </trkpt>
      <trkpt lat="47.85816" lon="5.93215">
        <ele>216.40039</ele>
        <time>2026-05-17T09:10:59+02:00</time>
      </trkpt>
      <trkpt lat="47.8582" lon="5.93221">
        <ele>216.5</ele>
        <time>2026-05-17T09:11:00+02:00</time>
      </trkpt>
      <trkpt lat="47.85823" lon="5.93226">
        <ele>216.5</ele>
        <time>2026-05-17T09:11:01+02:00</time>
      </trkpt>
      <trkpt lat="47.85826" lon="5.93231">
        <ele>216.5</ele>
        <time>2026-05-17T09:11:02+02:00</time>
      </trkpt>
      <trkpt lat="47.85828" lon="5.93236">
        <ele>216.5</ele>
        <time>2026-05-17T09:11:03+02:00</time>
      </trkpt>
      <trkpt lat="47.85829" lon="5.93241">
        <ele>216.5</ele>
        <time>2026-05-17T09:11:04+02:00</time>
      </trkpt>
      <trkpt lat="47.85828" lon="5.93245">
        <ele>216.5</ele>
        <time>2026-05-17T09:11:05+02:00</time>
      </trkpt>
      <trkpt lat="47.85826" lon="5.93247">
        <ele>216.60059</ele>
        <time>2026-05-17T09:11:06+02:00</time>
      </trkpt>
      <trkpt lat="47.85824" lon="5.9325">
        <ele>216.60059</ele>
        <time>2026-05-17T09:11:07+02:00</time>
      </trkpt>
      <trkpt lat="47.85821" lon="5.93252">
        <ele>216.60059</ele>
        <time>2026-05-17T09:11:08+02:00</time>
      </trkpt>
      <trkpt lat="47.85819" lon="5.93256">
        <ele>216.60059</ele>
        <time>2026-05-17T09:11:09+02:00</time>
      </trkpt>
      <trkpt lat="47.85817" lon="5.9326">
        <ele>216.60059</ele>
        <time>2026-05-17T09:11:10+02:00</time>
      </trkpt>
      <trkpt lat="47.85816" lon="5.93266">
        <ele>216.5</ele>
        <time>2026-05-17T09:11:11+02:00</time>
      </trkpt>
      <trkpt lat="47.85818" lon="5.93272">
        <ele>216.5</ele>
        <time>2026-05-17T09:11:12+02:00</time>
      </trkpt>
      <trkpt lat="47.85821" lon="5.93278">
        <ele>216.5</ele>
        <time>2026-05-17T09:11:13+02:00</time>
      </trkpt>
      <trkpt lat="47.85825" lon="5.93285">
        <ele>216.40039</ele>
        <time>2026-05-17T09:11:14+02:00</time>
      </trkpt>
      <trkpt lat="47.85829" lon="5.93292">
        <ele>216.40039</ele>
        <time>2026-05-17T09:11:15+02:00</time>
      </trkpt>
      <trkpt lat="47.85834" lon="5.93299">
        <ele>216.40039</ele>
        <time>2026-05-17T09:11:16+02:00</time>
      </trkpt>
      <trkpt lat="47.85837" lon="5.93307">
        <ele>216.40039</ele>
        <time>2026-05-17T09:11:17+02:00</time>
      </trkpt>
      <trkpt lat="47.85838" lon="5.93315">
        <ele>216.40039</ele>
        <time>2026-05-17T09:11:18+02:00</time>
      </trkpt>
      <trkpt lat="47.85836" lon="5.93323">
        <ele>216.2998</ele>
        <time>2026-05-17T09:11:19+02:00</time>
      </trkpt>
      <trkpt lat="47.85832" lon="5.9333">
        <ele>216.2002</ele>
        <time>2026-05-17T09:11:20+02:00</time>
      </trkpt>
      <trkpt lat="47.85827" lon="5.93337">
        <ele>216.10059</ele>
        <time>2026-05-17T09:11:21+02:00</time>
      </trkpt>
      <trkpt lat="47.85822" lon="5.93343">
        <ele>215.90039</ele>
        <time>2026-05-17T09:11:22+02:00</time>
      </trkpt>
      <trkpt lat="47.85817" lon="5.9335">
        <ele>215.90039</ele>
        <time>2026-05-17T09:11:23+02:00</time>
      </trkpt>
      <trkpt lat="47.85813" lon="5.93356">
        <ele>215.7998</ele>
        <time>2026-05-17T09:11:24+02:00</time>
      </trkpt>
      <trkpt lat="47.85808" lon="5.93362">
        <ele>215.90039</ele>
        <time>2026-05-17T09:11:25+02:00</time>
      </trkpt>
      <trkpt lat="47.85803" lon="5.93369">
        <ele>216</ele>
        <time>2026-05-17T09:11:26+02:00</time>
      </trkpt>
      <trkpt lat="47.85798" lon="5.93375">
        <ele>216</ele>
        <time>2026-05-17T09:11:27+02:00</time>
      </trkpt>
      <trkpt lat="47.85793" lon="5.93382">
        <ele>216.10059</ele>
        <time>2026-05-17T09:11:28+02:00</time>
      </trkpt>
      <trkpt lat="47.85788" lon="5.93388">
        <ele>216.10059</ele>
        <time>2026-05-17T09:11:29+02:00</time>
      </trkpt>
      <trkpt lat="47.85784" lon="5.93395">
        <ele>216.2002</ele>
        <time>2026-05-17T09:11:30+02:00</time>
      </trkpt>
      <trkpt lat="47.85779" lon="5.93401">
        <ele>216.2998</ele>
        <time>2026-05-17T09:11:31+02:00</time>
      </trkpt>
      <trkpt lat="47.85774" lon="5.93407">
        <ele>216.2998</ele>
        <time>2026-05-17T09:11:32+02:00</time>
      </trkpt>
      <trkpt lat="47.85769" lon="5.93414">
        <ele>216.40039</ele>
        <time>2026-05-17T09:11:33+02:00</time>
      </trkpt>
      <trkpt lat="47.85765" lon="5.9342">
        <ele>216.5</ele>
        <time>2026-05-17T09:11:34+02:00</time>
      </trkpt>
      <trkpt lat="47.8576" lon="5.93426">
        <ele>216.60059</ele>
        <time>2026-05-17T09:11:35+02:00</time>
      </trkpt>
      <trkpt lat="47.85756" lon="5.93432">
        <ele>216.7002</ele>
        <time>2026-05-17T09:11:36+02:00</time>
      </trkpt>
      <trkpt lat="47.85752" lon="5.93438">
        <ele>216.7998</ele>
        <time>2026-05-17T09:11:37+02:00</time>
      </trkpt>
      <trkpt lat="47.85748" lon="5.93442">
        <ele>217.10059</ele>
        <time>2026-05-17T09:11:38+02:00</time>
      </trkpt>
      <trkpt lat="47.85743" lon="5.93446">
        <ele>217.2002</ele>
        <time>2026-05-17T09:11:39+02:00</time>
      </trkpt>
      <trkpt lat="47.8574" lon="5.9345">
        <ele>217.5</ele>
        <time>2026-05-17T09:11:40+02:00</time>
      </trkpt>
      <trkpt lat="47.85736" lon="5.93453">
        <ele>217.7002</ele>
        <time>2026-05-17T09:11:41+02:00</time>
      </trkpt>
      <trkpt lat="47.85734" lon="5.93458">
        <ele>218</ele>
        <time>2026-05-17T09:11:42+02:00</time>
      </trkpt>
      <trkpt lat="47.85732" lon="5.93463">
        <ele>218.40039</ele>
        <time>2026-05-17T09:11:43+02:00</time>
      </trkpt>
      <trkpt lat="47.85733" lon="5.93467">
        <ele>218.40039</ele>
        <time>2026-05-17T09:11:44+02:00</time>
      </trkpt>
      <trkpt lat="47.85735" lon="5.9347">
        <ele>218.40039</ele>
        <time>2026-05-17T09:11:45+02:00</time>
      </trkpt>
      <trkpt lat="47.85738" lon="5.93473">
        <ele>218.40039</ele>
        <time>2026-05-17T09:11:46+02:00</time>
      </trkpt>
      <trkpt lat="47.85741" lon="5.93478">
        <ele>218.40039</ele>
        <time>2026-05-17T09:11:47+02:00</time>
      </trkpt>
      <trkpt lat="47.85744" lon="5.93483">
        <ele>218.40039</ele>
        <time>2026-05-17T09:11:48+02:00</time>
      </trkpt>
      <trkpt lat="47.85748" lon="5.93488">
        <ele>218.5</ele>
        <time>2026-05-17T09:11:49+02:00</time>
      </trkpt>
      <trkpt lat="47.85751" lon="5.93494">
        <ele>218.90039</ele>
        <time>2026-05-17T09:11:50+02:00</time>
      </trkpt>
      <trkpt lat="47.85755" lon="5.93499">
        <ele>218.7002</ele>
        <time>2026-05-17T09:11:51+02:00</time>
      </trkpt>
      <trkpt lat="47.85759" lon="5.93506">
        <ele>218.90039</ele>
        <time>2026-05-17T09:11:52+02:00</time>
      </trkpt>
      <trkpt lat="47.85763" lon="5.93512">
        <ele>219.2998</ele>
        <time>2026-05-17T09:11:53+02:00</time>
      </trkpt>
      <trkpt lat="47.85768" lon="5.93518">
        <ele>219.10059</ele>
        <time>2026-05-17T09:11:54+02:00</time>
      </trkpt>
      <trkpt lat="47.85772" lon="5.93524">
        <ele>219.2998</ele>
        <time>2026-05-17T09:11:55+02:00</time>
      </trkpt>
      <trkpt lat="47.85777" lon="5.9353">
        <ele>219.5</ele>
        <time>2026-05-17T09:11:56+02:00</time>
      </trkpt>
      <trkpt lat="47.85781" lon="5.93537">
        <ele>219.7998</ele>
        <time>2026-05-17T09:11:57+02:00</time>
      </trkpt>
      <trkpt lat="47.85785" lon="5.93543">
        <ele>219.7998</ele>
        <time>2026-05-17T09:11:58+02:00</time>
      </trkpt>
      <trkpt lat="47.8579" lon="5.9355">
        <ele>220.10059</ele>
        <time>2026-05-17T09:11:59+02:00</time>
      </trkpt>
      <trkpt lat="47.85794" lon="5.93556">
        <ele>220.60059</ele>
        <time>2026-05-17T09:12:00+02:00</time>
      </trkpt>
      <trkpt lat="47.85799" lon="5.93563">
        <ele>221.2002</ele>
        <time>2026-05-17T09:12:01+02:00</time>
      </trkpt>
      <trkpt lat="47.85803" lon="5.93569">
        <ele>221.2002</ele>
        <time>2026-05-17T09:12:02+02:00</time>
      </trkpt>
      <trkpt lat="47.85808" lon="5.93576">
        <ele>221.7998</ele>
        <time>2026-05-17T09:12:03+02:00</time>
      </trkpt>
      <trkpt lat="47.85813" lon="5.93582">
        <ele>222.40039</ele>
        <time>2026-05-17T09:12:04+02:00</time>
      </trkpt>
      <trkpt lat="47.85817" lon="5.93589">
        <ele>222.90039</ele>
        <time>2026-05-17T09:12:05+02:00</time>
      </trkpt>
      <trkpt lat="47.85822" lon="5.93595">
        <ele>222.90039</ele>
        <time>2026-05-17T09:12:06+02:00</time>
      </trkpt>
      <trkpt lat="47.85827" lon="5.93601">
        <ele>223.5</ele>
        <time>2026-05-17T09:12:07+02:00</time>
      </trkpt>
      <trkpt lat="47.85832" lon="5.93607">
        <ele>224.10059</ele>
        <time>2026-05-17T09:12:08+02:00</time>
      </trkpt>
      <trkpt lat="47.85837" lon="5.93613">
        <ele>224.10059</ele>
        <time>2026-05-17T09:12:09+02:00</time>
      </trkpt>
      <trkpt lat="47.85842" lon="5.93619">
        <ele>224.40039</ele>
        <time>2026-05-17T09:12:10+02:00</time>
      </trkpt>
      <trkpt lat="47.85848" lon="5.93625">
        <ele>224.60059</ele>
        <time>2026-05-17T09:12:11+02:00</time>
      </trkpt>
      <trkpt lat="47.85853" lon="5.93631">
        <ele>224.7998</ele>
        <time>2026-05-17T09:12:12+02:00</time>
      </trkpt>
      <trkpt lat="47.85858" lon="5.93637">
        <ele>224.5</ele>
        <time>2026-05-17T09:12:13+02:00</time>
      </trkpt>
      <trkpt lat="47.85863" lon="5.93643">
        <ele>224.60059</ele>
        <time>2026-05-17T09:12:14+02:00</time>
      </trkpt>
      <trkpt lat="47.85868" lon="5.93649">
        <ele>224.5</ele>
        <time>2026-05-17T09:12:15+02:00</time>
      </trkpt>
      <trkpt lat="47.85873" lon="5.93656">
        <ele>224.10059</ele>
        <time>2026-05-17T09:12:16+02:00</time>
      </trkpt>
      <trkpt lat="47.85878" lon="5.93663">
        <ele>224.5</ele>
        <time>2026-05-17T09:12:17+02:00</time>
      </trkpt>
      <trkpt lat="47.85883" lon="5.93669">
        <ele>224.60059</ele>
        <time>2026-05-17T09:12:18+02:00</time>
      </trkpt>
      <trkpt lat="47.85888" lon="5.93676">
        <ele>224.60059</ele>
        <time>2026-05-17T09:12:19+02:00</time>
      </trkpt>
      <trkpt lat="47.85893" lon="5.93682">
        <ele>224.2998</ele>
        <time>2026-05-17T09:12:20+02:00</time>
      </trkpt>
      <trkpt lat="47.85898" lon="5.93689">
        <ele>224.2002</ele>
        <time>2026-05-17T09:12:21+02:00</time>
      </trkpt>
      <trkpt lat="47.85903" lon="5.93695">
        <ele>223.90039</ele>
        <time>2026-05-17T09:12:22+02:00</time>
      </trkpt>
      <trkpt lat="47.85907" lon="5.93702">
        <ele>223.90039</ele>
        <time>2026-05-17T09:12:23+02:00</time>
      </trkpt>
      <trkpt lat="47.85912" lon="5.93708">
        <ele>223.5</ele>
        <time>2026-05-17T09:12:24+02:00</time>
      </trkpt>
      <trkpt lat="47.85917" lon="5.93715">
        <ele>222.7998</ele>
        <time>2026-05-17T09:12:25+02:00</time>
      </trkpt>
      <trkpt lat="47.85922" lon="5.93722">
        <ele>222</ele>
        <time>2026-05-17T09:12:26+02:00</time>
      </trkpt>
      <trkpt lat="47.85927" lon="5.93728">
        <ele>221.2998</ele>
        <time>2026-05-17T09:12:27+02:00</time>
      </trkpt>
      <trkpt lat="47.85932" lon="5.93735">
        <ele>220.7002</ele>
        <time>2026-05-17T09:12:28+02:00</time>
      </trkpt>
      <trkpt lat="47.85936" lon="5.93741">
        <ele>220.7002</ele>
        <time>2026-05-17T09:12:29+02:00</time>
      </trkpt>
      <trkpt lat="47.85941" lon="5.93748">
        <ele>220.2998</ele>
        <time>2026-05-17T09:12:30+02:00</time>
      </trkpt>
      <trkpt lat="47.85945" lon="5.93754">
        <ele>220</ele>
        <time>2026-05-17T09:12:31+02:00</time>
      </trkpt>
      <trkpt lat="47.8595" lon="5.93761">
        <ele>219.7002</ele>
        <time>2026-05-17T09:12:32+02:00</time>
      </trkpt>
      <trkpt lat="47.85954" lon="5.93768">
        <ele>219.5</ele>
        <time>2026-05-17T09:12:33+02:00</time>
      </trkpt>
      <trkpt lat="47.85958" lon="5.93775">
        <ele>219.7002</ele>
        <time>2026-05-17T09:12:34+02:00</time>
      </trkpt>
      <trkpt lat="47.85962" lon="5.93783">
        <ele>219.7002</ele>
        <time>2026-05-17T09:12:35+02:00</time>
      </trkpt>
      <trkpt lat="47.85967" lon="5.93791">
        <ele>219.7002</ele>
        <time>2026-05-17T09:12:36+02:00</time>
      </trkpt>
      <trkpt lat="47.8597" lon="5.93799">
        <ele>220.10059</ele>
        <time>2026-05-17T09:12:37+02:00</time>
      </trkpt>
      <trkpt lat="47.85974" lon="5.93807">
        <ele>220.2998</ele>
        <time>2026-05-17T09:12:38+02:00</time>
      </trkpt>
      <trkpt lat="47.85978" lon="5.93816">
        <ele>220.40039</ele>
        <time>2026-05-17T09:12:39+02:00</time>
      </trkpt>
      <trkpt lat="47.85982" lon="5.93824">
        <ele>220.90039</ele>
        <time>2026-05-17T09:12:40+02:00</time>
      </trkpt>
      <trkpt lat="47.85986" lon="5.93832">
        <ele>220.90039</ele>
        <time>2026-05-17T09:12:41+02:00</time>
      </trkpt>
      <trkpt lat="47.8599" lon="5.9384">
        <ele>220.7998</ele>
        <time>2026-05-17T09:12:42+02:00</time>
      </trkpt>
      <trkpt lat="47.85993" lon="5.93848">
        <ele>221.2998</ele>
        <time>2026-05-17T09:12:43+02:00</time>
      </trkpt>
      <trkpt lat="47.85997" lon="5.93856">
        <ele>221.40039</ele>
        <time>2026-05-17T09:12:44+02:00</time>
      </trkpt>
      <trkpt lat="47.86001" lon="5.93864">
        <ele>221.5</ele>
        <time>2026-05-17T09:12:45+02:00</time>
      </trkpt>
      <trkpt lat="47.86004" lon="5.93872">
        <ele>222</ele>
        <time>2026-05-17T09:12:46+02:00</time>
      </trkpt>
      <trkpt lat="47.86008" lon="5.93881">
        <ele>222</ele>
        <time>2026-05-17T09:12:47+02:00</time>
      </trkpt>
      <trkpt lat="47.86012" lon="5.93889">
        <ele>222</ele>
        <time>2026-05-17T09:12:48+02:00</time>
      </trkpt>
      <trkpt lat="47.86015" lon="5.93896">
        <ele>222</ele>
        <time>2026-05-17T09:12:49+02:00</time>
      </trkpt>
      <trkpt lat="47.86019" lon="5.93904">
        <ele>222.10059</ele>
        <time>2026-05-17T09:12:50+02:00</time>
      </trkpt>
      <trkpt lat="47.86023" lon="5.93912">
        <ele>222.2998</ele>
        <time>2026-05-17T09:12:51+02:00</time>
      </trkpt>
      <trkpt lat="47.86027" lon="5.93919">
        <ele>223</ele>
        <time>2026-05-17T09:12:52+02:00</time>
      </trkpt>
      <trkpt lat="47.8603" lon="5.93926">
        <ele>223.2002</ele>
        <time>2026-05-17T09:12:53+02:00</time>
      </trkpt>
      <trkpt lat="47.86035" lon="5.93933">
        <ele>223.60059</ele>
        <time>2026-05-17T09:12:54+02:00</time>
      </trkpt>
      <trkpt lat="47.86039" lon="5.93939">
        <ele>223.60059</ele>
        <time>2026-05-17T09:12:55+02:00</time>
      </trkpt>
      <trkpt lat="47.86044" lon="5.93946">
        <ele>223.7998</ele>
        <time>2026-05-17T09:12:56+02:00</time>
      </trkpt>
      <trkpt lat="47.86049" lon="5.93952">
        <ele>224</ele>
        <time>2026-05-17T09:12:57+02:00</time>
      </trkpt>
      <trkpt lat="47.86054" lon="5.93959">
        <ele>224.2002</ele>
        <time>2026-05-17T09:12:58+02:00</time>
      </trkpt>
      <trkpt lat="47.86059" lon="5.93965">
        <ele>224</ele>
        <time>2026-05-17T09:12:59+02:00</time>
      </trkpt>
      <trkpt lat="47.86064" lon="5.93972">
        <ele>224.40039</ele>
        <time>2026-05-17T09:13:00+02:00</time>
      </trkpt>
      <trkpt lat="47.86069" lon="5.93978">
        <ele>224.7002</ele>
        <time>2026-05-17T09:13:01+02:00</time>
      </trkpt>
      <trkpt lat="47.86074" lon="5.93985">
        <ele>225.2998</ele>
        <time>2026-05-17T09:13:02+02:00</time>
      </trkpt>
      <trkpt lat="47.86079" lon="5.93992">
        <ele>225.40039</ele>
        <time>2026-05-17T09:13:03+02:00</time>
      </trkpt>
      <trkpt lat="47.86084" lon="5.93999">
        <ele>224.7998</ele>
        <time>2026-05-17T09:13:04+02:00</time>
      </trkpt>
      <trkpt lat="47.86089" lon="5.94006">
        <ele>224.7998</ele>
        <time>2026-05-17T09:13:05+02:00</time>
      </trkpt>
      <trkpt lat="47.86093" lon="5.94013">
        <ele>224.7002</ele>
        <time>2026-05-17T09:13:06+02:00</time>
      </trkpt>
      <trkpt lat="47.86098" lon="5.9402">
        <ele>224.60059</ele>
        <time>2026-05-17T09:13:07+02:00</time>
      </trkpt>
      <trkpt lat="47.86103" lon="5.94027">
        <ele>225</ele>
        <time>2026-05-17T09:13:08+02:00</time>
      </trkpt>
      <trkpt lat="47.86108" lon="5.94034">
        <ele>224.2998</ele>
        <time>2026-05-17T09:13:09+02:00</time>
      </trkpt>
      <trkpt lat="47.86112" lon="5.94041">
        <ele>223.90039</ele>
        <time>2026-05-17T09:13:10+02:00</time>
      </trkpt>
      <trkpt lat="47.86117" lon="5.94048">
        <ele>223.5</ele>
        <time>2026-05-17T09:13:11+02:00</time>
      </trkpt>
      <trkpt lat="47.86122" lon="5.94054">
        <ele>223.2002</ele>
        <time>2026-05-17T09:13:12+02:00</time>
      </trkpt>
      <trkpt lat="47.86126" lon="5.94061">
        <ele>223.7002</ele>
        <time>2026-05-17T09:13:13+02:00</time>
      </trkpt>
      <trkpt lat="47.86131" lon="5.94068">
        <ele>223</ele>
        <time>2026-05-17T09:13:14+02:00</time>
      </trkpt>
      <trkpt lat="47.86136" lon="5.94074">
        <ele>222.7998</ele>
        <time>2026-05-17T09:13:15+02:00</time>
      </trkpt>
      <trkpt lat="47.8614" lon="5.94081">
        <ele>222.5</ele>
        <time>2026-05-17T09:13:16+02:00</time>
      </trkpt>
      <trkpt lat="47.86144" lon="5.94088">
        <ele>222.2002</ele>
        <time>2026-05-17T09:13:17+02:00</time>
      </trkpt>
      <trkpt lat="47.86149" lon="5.94095">
        <ele>222.7002</ele>
        <time>2026-05-17T09:13:18+02:00</time>
      </trkpt>
      <trkpt lat="47.86153" lon="5.94102">
        <ele>221.7998</ele>
        <time>2026-05-17T09:13:19+02:00</time>
      </trkpt>
      <trkpt lat="47.86158" lon="5.94108">
        <ele>221.60059</ele>
        <time>2026-05-17T09:13:20+02:00</time>
      </trkpt>
      <trkpt lat="47.86162" lon="5.94115">
        <ele>221.40039</ele>
        <time>2026-05-17T09:13:21+02:00</time>
      </trkpt>
      <trkpt lat="47.86167" lon="5.94122">
        <ele>221.2998</ele>
        <time>2026-05-17T09:13:22+02:00</time>
      </trkpt>
      <trkpt lat="47.86171" lon="5.94129">
        <ele>222.10059</ele>
        <time>2026-05-17T09:13:23+02:00</time>
      </trkpt>
      <trkpt lat="47.86175" lon="5.94135">
        <ele>221.2002</ele>
        <time>2026-05-17T09:13:24+02:00</time>
      </trkpt>
      <trkpt lat="47.8618" lon="5.94142">
        <ele>221</ele>
        <time>2026-05-17T09:13:25+02:00</time>
      </trkpt>
      <trkpt lat="47.86184" lon="5.94148">
        <ele>220.90039</ele>
        <time>2026-05-17T09:13:26+02:00</time>
      </trkpt>
      <trkpt lat="47.86189" lon="5.94154">
        <ele>220.90039</ele>
        <time>2026-05-17T09:13:27+02:00</time>
      </trkpt>
      <trkpt lat="47.86194" lon="5.9416">
        <ele>221</ele>
        <time>2026-05-17T09:13:28+02:00</time>
      </trkpt>
      <trkpt lat="47.86198" lon="5.94166">
        <ele>221.10059</ele>
        <time>2026-05-17T09:13:29+02:00</time>
      </trkpt>
      <trkpt lat="47.86203" lon="5.94173">
        <ele>221.2998</ele>
        <time>2026-05-17T09:13:30+02:00</time>
      </trkpt>
      <trkpt lat="47.86207" lon="5.94179">
        <ele>221.10059</ele>
        <time>2026-05-17T09:13:31+02:00</time>
      </trkpt>
      <trkpt lat="47.86212" lon="5.94185">
        <ele>221.5</ele>
        <time>2026-05-17T09:13:32+02:00</time>
      </trkpt>
      <trkpt lat="47.86217" lon="5.94191">
        <ele>221.7002</ele>
        <time>2026-05-17T09:13:33+02:00</time>
      </trkpt>
      <trkpt lat="47.86221" lon="5.94197">
        <ele>221.60059</ele>
        <time>2026-05-17T09:13:34+02:00</time>
      </trkpt>
      <trkpt lat="47.86226" lon="5.94204">
        <ele>221.60059</ele>
        <time>2026-05-17T09:13:35+02:00</time>
      </trkpt>
      <trkpt lat="47.86231" lon="5.9421">
        <ele>221.2998</ele>
        <time>2026-05-17T09:13:36+02:00</time>
      </trkpt>
      <trkpt lat="47.86236" lon="5.94216">
        <ele>221.2002</ele>
        <time>2026-05-17T09:13:37+02:00</time>
      </trkpt>
      <trkpt lat="47.86241" lon="5.94222">
        <ele>221.2002</ele>
        <time>2026-05-17T09:13:38+02:00</time>
      </trkpt>
      <trkpt lat="47.86245" lon="5.94228">
        <ele>221.10059</ele>
        <time>2026-05-17T09:13:39+02:00</time>
      </trkpt>
      <trkpt lat="47.8625" lon="5.94234">
        <ele>221.10059</ele>
        <time>2026-05-17T09:13:40+02:00</time>
      </trkpt>
      <trkpt lat="47.86255" lon="5.9424">
        <ele>220.40039</ele>
        <time>2026-05-17T09:13:41+02:00</time>
      </trkpt>
      <trkpt lat="47.8626" lon="5.94246">
        <ele>220.7002</ele>
        <time>2026-05-17T09:13:42+02:00</time>
      </trkpt>
      <trkpt lat="47.86264" lon="5.94251">
        <ele>221.7998</ele>
        <time>2026-05-17T09:13:43+02:00</time>
      </trkpt>
      <trkpt lat="47.86269" lon="5.94257">
        <ele>221.10059</ele>
        <time>2026-05-17T09:13:44+02:00</time>
      </trkpt>
      <trkpt lat="47.86274" lon="5.94262">
        <ele>221.7002</ele>
        <time>2026-05-17T09:13:45+02:00</time>
      </trkpt>
      <trkpt lat="47.86278" lon="5.94268">
        <ele>222.5</ele>
        <time>2026-05-17T09:13:46+02:00</time>
      </trkpt>
      <trkpt lat="47.86283" lon="5.94273">
        <ele>222</ele>
        <time>2026-05-17T09:13:47+02:00</time>
      </trkpt>
      <trkpt lat="47.86287" lon="5.94279">
        <ele>223.40039</ele>
        <time>2026-05-17T09:13:48+02:00</time>
      </trkpt>
      <trkpt lat="47.86292" lon="5.94284">
        <ele>224.2998</ele>
        <time>2026-05-17T09:13:49+02:00</time>
      </trkpt>
      <trkpt lat="47.86297" lon="5.94289">
        <ele>223.7998</ele>
        <time>2026-05-17T09:13:50+02:00</time>
      </trkpt>
      <trkpt lat="47.86302" lon="5.94294">
        <ele>224.7998</ele>
        <time>2026-05-17T09:13:51+02:00</time>
      </trkpt>
      <trkpt lat="47.86307" lon="5.94299">
        <ele>224.5</ele>
        <time>2026-05-17T09:13:52+02:00</time>
      </trkpt>
      <trkpt lat="47.86312" lon="5.94304">
        <ele>225.40039</ele>
        <time>2026-05-17T09:13:53+02:00</time>
      </trkpt>
      <trkpt lat="47.86317" lon="5.94309">
        <ele>226.2002</ele>
        <time>2026-05-17T09:13:54+02:00</time>
      </trkpt>
      <trkpt lat="47.86322" lon="5.94314">
        <ele>225.7998</ele>
        <time>2026-05-17T09:13:55+02:00</time>
      </trkpt>
      <trkpt lat="47.86327" lon="5.94318">
        <ele>226.7002</ele>
        <time>2026-05-17T09:13:56+02:00</time>
      </trkpt>
      <trkpt lat="47.86332" lon="5.94323">
        <ele>226.2002</ele>
        <time>2026-05-17T09:13:57+02:00</time>
      </trkpt>
      <trkpt lat="47.86337" lon="5.94329">
        <ele>226.2998</ele>
        <time>2026-05-17T09:13:58+02:00</time>
      </trkpt>
      <trkpt lat="47.86342" lon="5.94334">
        <ele>225.5</ele>
        <time>2026-05-17T09:13:59+02:00</time>
      </trkpt>
      <trkpt lat="47.86348" lon="5.9434">
        <ele>225.40039</ele>
        <time>2026-05-17T09:14:00+02:00</time>
      </trkpt>
      <trkpt lat="47.86353" lon="5.94345">
        <ele>225.5</ele>
        <time>2026-05-17T09:14:01+02:00</time>
      </trkpt>
      <trkpt lat="47.86358" lon="5.94351">
        <ele>224.7998</ele>
        <time>2026-05-17T09:14:02+02:00</time>
      </trkpt>
      <trkpt lat="47.86364" lon="5.94357">
        <ele>224.7998</ele>
        <time>2026-05-17T09:14:03+02:00</time>
      </trkpt>
      <trkpt lat="47.86368" lon="5.94364">
        <ele>224.7002</ele>
        <time>2026-05-17T09:14:04+02:00</time>
      </trkpt>
      <trkpt lat="47.86374" lon="5.94371">
        <ele>224.5</ele>
        <time>2026-05-17T09:14:05+02:00</time>
      </trkpt>
      <trkpt lat="47.86378" lon="5.94378">
        <ele>225.10059</ele>
        <time>2026-05-17T09:14:06+02:00</time>
      </trkpt>
      <trkpt lat="47.86382" lon="5.94386">
        <ele>224.2998</ele>
        <time>2026-05-17T09:14:07+02:00</time>
      </trkpt>
      <trkpt lat="47.86386" lon="5.94394">
        <ele>224.10059</ele>
        <time>2026-05-17T09:14:08+02:00</time>
      </trkpt>
      <trkpt lat="47.8639" lon="5.94402">
        <ele>224.60059</ele>
        <time>2026-05-17T09:14:09+02:00</time>
      </trkpt>
      <trkpt lat="47.86394" lon="5.9441">
        <ele>224.2998</ele>
        <time>2026-05-17T09:14:10+02:00</time>
      </trkpt>
      <trkpt lat="47.86398" lon="5.94418">
        <ele>223.90039</ele>
        <time>2026-05-17T09:14:11+02:00</time>
      </trkpt>
      <trkpt lat="47.86403" lon="5.94425">
        <ele>223.40039</ele>
        <time>2026-05-17T09:14:12+02:00</time>
      </trkpt>
      <trkpt lat="47.86407" lon="5.94432">
        <ele>223.7998</ele>
        <time>2026-05-17T09:14:13+02:00</time>
      </trkpt>
      <trkpt lat="47.86411" lon="5.94438">
        <ele>223.5</ele>
        <time>2026-05-17T09:14:14+02:00</time>
      </trkpt>
      <trkpt lat="47.86416" lon="5.94445">
        <ele>222.90039</ele>
        <time>2026-05-17T09:14:15+02:00</time>
      </trkpt>
      <trkpt lat="47.86421" lon="5.94451">
        <ele>222.90039</ele>
        <time>2026-05-17T09:14:16+02:00</time>
      </trkpt>
      <trkpt lat="47.86427" lon="5.94456">
        <ele>223</ele>
        <time>2026-05-17T09:14:17+02:00</time>
      </trkpt>
      <trkpt lat="47.86432" lon="5.94462">
        <ele>222.7002</ele>
        <time>2026-05-17T09:14:18+02:00</time>
      </trkpt>
      <trkpt lat="47.86438" lon="5.94467">
        <ele>223</ele>
        <time>2026-05-17T09:14:19+02:00</time>
      </trkpt>
      <trkpt lat="47.86443" lon="5.94473">
        <ele>223.2002</ele>
        <time>2026-05-17T09:14:20+02:00</time>
      </trkpt>
      <trkpt lat="47.86449" lon="5.94478">
        <ele>222.7998</ele>
        <time>2026-05-17T09:14:21+02:00</time>
      </trkpt>
      <trkpt lat="47.86455" lon="5.94483">
        <ele>222.90039</ele>
        <time>2026-05-17T09:14:22+02:00</time>
      </trkpt>
      <trkpt lat="47.8646" lon="5.94488">
        <ele>222.90039</ele>
        <time>2026-05-17T09:14:23+02:00</time>
      </trkpt>
      <trkpt lat="47.86466" lon="5.94492">
        <ele>222.7002</ele>
        <time>2026-05-17T09:14:24+02:00</time>
      </trkpt>
      <trkpt lat="47.86472" lon="5.94497">
        <ele>221.90039</ele>
        <time>2026-05-17T09:14:25+02:00</time>
      </trkpt>
      <trkpt lat="47.86478" lon="5.94501">
        <ele>221.5</ele>
        <time>2026-05-17T09:14:26+02:00</time>
      </trkpt>
      <trkpt lat="47.86484" lon="5.94506">
        <ele>221.10059</ele>
        <time>2026-05-17T09:14:27+02:00</time>
      </trkpt>
      <trkpt lat="47.8649" lon="5.9451">
        <ele>220.60059</ele>
        <time>2026-05-17T09:14:28+02:00</time>
      </trkpt>
      <trkpt lat="47.86496" lon="5.94514">
        <ele>220.2998</ele>
        <time>2026-05-17T09:14:29+02:00</time>
      </trkpt>
      <trkpt lat="47.86502" lon="5.94518">
        <ele>220.10059</ele>
        <time>2026-05-17T09:14:30+02:00</time>
      </trkpt>
      <trkpt lat="47.86508" lon="5.94522">
        <ele>220</ele>
        <time>2026-05-17T09:14:31+02:00</time>
      </trkpt>
      <trkpt lat="47.86513" lon="5.94526">
        <ele>220.10059</ele>
        <time>2026-05-17T09:14:32+02:00</time>
      </trkpt>
      <trkpt lat="47.86519" lon="5.9453">
        <ele>220.10059</ele>
        <time>2026-05-17T09:14:33+02:00</time>
      </trkpt>
      <trkpt lat="47.86524" lon="5.94534">
        <ele>220.40039</ele>
        <time>2026-05-17T09:14:34+02:00</time>
      </trkpt>
      <trkpt lat="47.8653" lon="5.94539">
        <ele>220.2998</ele>
        <time>2026-05-17T09:14:35+02:00</time>
      </trkpt>
      <trkpt lat="47.86535" lon="5.94543">
        <ele>220.7002</ele>
        <time>2026-05-17T09:14:36+02:00</time>
      </trkpt>
      <trkpt lat="47.86541" lon="5.94548">
        <ele>220.7002</ele>
        <time>2026-05-17T09:14:37+02:00</time>
      </trkpt>
      <trkpt lat="47.86546" lon="5.94553">
        <ele>221.2002</ele>
        <time>2026-05-17T09:14:38+02:00</time>
      </trkpt>
      <trkpt lat="47.86553" lon="5.94558">
        <ele>221.40039</ele>
        <time>2026-05-17T09:14:39+02:00</time>
      </trkpt>
      <trkpt lat="47.86558" lon="5.94563">
        <ele>221.10059</ele>
        <time>2026-05-17T09:14:40+02:00</time>
      </trkpt>
      <trkpt lat="47.86564" lon="5.94568">
        <ele>221.2002</ele>
        <time>2026-05-17T09:14:41+02:00</time>
      </trkpt>
      <trkpt lat="47.8657" lon="5.94573">
        <ele>220.7998</ele>
        <time>2026-05-17T09:14:42+02:00</time>
      </trkpt>
      <trkpt lat="47.86576" lon="5.94578">
        <ele>220.7002</ele>
        <time>2026-05-17T09:14:43+02:00</time>
      </trkpt>
      <trkpt lat="47.86581" lon="5.94584">
        <ele>220.90039</ele>
        <time>2026-05-17T09:14:44+02:00</time>
      </trkpt>
      <trkpt lat="47.86587" lon="5.9459">
        <ele>220.2998</ele>
        <time>2026-05-17T09:14:45+02:00</time>
      </trkpt>
      <trkpt lat="47.86592" lon="5.94596">
        <ele>220.60059</ele>
        <time>2026-05-17T09:14:46+02:00</time>
      </trkpt>
      <trkpt lat="47.86597" lon="5.94602">
        <ele>220.7998</ele>
        <time>2026-05-17T09:14:47+02:00</time>
      </trkpt>
      <trkpt lat="47.86603" lon="5.94608">
        <ele>220.7998</ele>
        <time>2026-05-17T09:14:48+02:00</time>
      </trkpt>
      <trkpt lat="47.86607" lon="5.94614">
        <ele>221.10059</ele>
        <time>2026-05-17T09:14:49+02:00</time>
      </trkpt>
      <trkpt lat="47.86612" lon="5.94621">
        <ele>221.60059</ele>
        <time>2026-05-17T09:14:50+02:00</time>
      </trkpt>
      <trkpt lat="47.86617" lon="5.94628">
        <ele>222.10059</ele>
        <time>2026-05-17T09:14:51+02:00</time>
      </trkpt>
      <trkpt lat="47.86622" lon="5.94634">
        <ele>222</ele>
        <time>2026-05-17T09:14:52+02:00</time>
      </trkpt>
      <trkpt lat="47.86627" lon="5.94641">
        <ele>222.60059</ele>
        <time>2026-05-17T09:14:53+02:00</time>
      </trkpt>
      <trkpt lat="47.86632" lon="5.94648">
        <ele>223.10059</ele>
        <time>2026-05-17T09:14:54+02:00</time>
      </trkpt>
      <trkpt lat="47.86636" lon="5.94656">
        <ele>223.60059</ele>
        <time>2026-05-17T09:14:55+02:00</time>
      </trkpt>
      <trkpt lat="47.86641" lon="5.94662">
        <ele>224.10059</ele>
        <time>2026-05-17T09:14:56+02:00</time>
      </trkpt>
      <trkpt lat="47.86645" lon="5.94669">
        <ele>223.90039</ele>
        <time>2026-05-17T09:14:57+02:00</time>
      </trkpt>
      <trkpt lat="47.86649" lon="5.94676">
        <ele>224.60059</ele>
        <time>2026-05-17T09:14:58+02:00</time>
      </trkpt>
      <trkpt lat="47.86654" lon="5.94682">
        <ele>225</ele>
        <time>2026-05-17T09:14:59+02:00</time>
      </trkpt>
      <trkpt lat="47.86658" lon="5.94689">
        <ele>225.40039</ele>
        <time>2026-05-17T09:15:00+02:00</time>
      </trkpt>
      <trkpt lat="47.86663" lon="5.94695">
        <ele>225.10059</ele>
        <time>2026-05-17T09:15:01+02:00</time>
      </trkpt>
      <trkpt lat="47.86667" lon="5.94701">
        <ele>225.7998</ele>
        <time>2026-05-17T09:15:02+02:00</time>
      </trkpt>
      <trkpt lat="47.86671" lon="5.94708">
        <ele>226</ele>
        <time>2026-05-17T09:15:03+02:00</time>
      </trkpt>
      <trkpt lat="47.86675" lon="5.94714">
        <ele>226.2002</ele>
        <time>2026-05-17T09:15:04+02:00</time>
      </trkpt>
      <trkpt lat="47.8668" lon="5.9472">
        <ele>225.60059</ele>
        <time>2026-05-17T09:15:05+02:00</time>
      </trkpt>
      <trkpt lat="47.86685" lon="5.94726">
        <ele>225.7002</ele>
        <time>2026-05-17T09:15:06+02:00</time>
      </trkpt>
      <trkpt lat="47.8669" lon="5.94732">
        <ele>226.2998</ele>
        <time>2026-05-17T09:15:07+02:00</time>
      </trkpt>
      <trkpt lat="47.86694" lon="5.94738">
        <ele>226.2002</ele>
        <time>2026-05-17T09:15:08+02:00</time>
      </trkpt>
      <trkpt lat="47.86699" lon="5.94744">
        <ele>225.40039</ele>
        <time>2026-05-17T09:15:09+02:00</time>
      </trkpt>
      <trkpt lat="47.86704" lon="5.94749">
        <ele>225.10059</ele>
        <time>2026-05-17T09:15:10+02:00</time>
      </trkpt>
      <trkpt lat="47.86709" lon="5.94753">
        <ele>224.2998</ele>
        <time>2026-05-17T09:15:11+02:00</time>
      </trkpt>
      <trkpt lat="47.86713" lon="5.94757">
        <ele>224.90039</ele>
        <time>2026-05-17T09:15:12+02:00</time>
      </trkpt>
      <trkpt lat="47.86717" lon="5.94759">
        <ele>224.10059</ele>
        <time>2026-05-17T09:15:13+02:00</time>
      </trkpt>
      <trkpt lat="47.86721" lon="5.94759">
        <ele>223.2002</ele>
        <time>2026-05-17T09:15:14+02:00</time>
      </trkpt>
      <trkpt lat="47.86725" lon="5.94756">
        <ele>223.2002</ele>
        <time>2026-05-17T09:15:15+02:00</time>
      </trkpt>
      <trkpt lat="47.86727" lon="5.94751">
        <ele>221.7998</ele>
        <time>2026-05-17T09:15:16+02:00</time>
      </trkpt>
      <trkpt lat="47.86731" lon="5.94746">
        <ele>220.60059</ele>
        <time>2026-05-17T09:15:17+02:00</time>
      </trkpt>
      <trkpt lat="47.86735" lon="5.94741">
        <ele>220.60059</ele>
        <time>2026-05-17T09:15:18+02:00</time>
      </trkpt>
      <trkpt lat="47.86738" lon="5.94734">
        <ele>219.7002</ele>
        <time>2026-05-17T09:15:19+02:00</time>
      </trkpt>
      <trkpt lat="47.86742" lon="5.94728">
        <ele>219.5</ele>
        <time>2026-05-17T09:15:20+02:00</time>
      </trkpt>
      <trkpt lat="47.86746" lon="5.94721">
        <ele>219.10059</ele>
        <time>2026-05-17T09:15:21+02:00</time>
      </trkpt>
      <trkpt lat="47.86749" lon="5.94714">
        <ele>218.60059</ele>
        <time>2026-05-17T09:15:22+02:00</time>
      </trkpt>
      <trkpt lat="47.86754" lon="5.94707">
        <ele>218.2998</ele>
        <time>2026-05-17T09:15:23+02:00</time>
      </trkpt>
      <trkpt lat="47.86758" lon="5.947">
        <ele>218.2002</ele>
        <time>2026-05-17T09:15:24+02:00</time>
      </trkpt>
      <trkpt lat="47.86762" lon="5.94693">
        <ele>218</ele>
        <time>2026-05-17T09:15:25+02:00</time>
      </trkpt>
      <trkpt lat="47.86766" lon="5.94685">
        <ele>217.7998</ele>
        <time>2026-05-17T09:15:26+02:00</time>
      </trkpt>
      <trkpt lat="47.8677" lon="5.94677">
        <ele>217.7998</ele>
        <time>2026-05-17T09:15:27+02:00</time>
      </trkpt>
      <trkpt lat="47.86774" lon="5.9467">
        <ele>217.7998</ele>
        <time>2026-05-17T09:15:28+02:00</time>
      </trkpt>
      <trkpt lat="47.86779" lon="5.94663">
        <ele>217.7002</ele>
        <time>2026-05-17T09:15:29+02:00</time>
      </trkpt>
      <trkpt lat="47.86784" lon="5.94657">
        <ele>217.60059</ele>
        <time>2026-05-17T09:15:30+02:00</time>
      </trkpt>
      <trkpt lat="47.86789" lon="5.94656">
        <ele>217.60059</ele>
        <time>2026-05-17T09:15:31+02:00</time>
      </trkpt>
      <trkpt lat="47.86794" lon="5.9466">
        <ele>217.60059</ele>
        <time>2026-05-17T09:15:32+02:00</time>
      </trkpt>
      <trkpt lat="47.86797" lon="5.94666">
        <ele>217.60059</ele>
        <time>2026-05-17T09:15:33+02:00</time>
      </trkpt>
      <trkpt lat="47.868" lon="5.94673">
        <ele>217.60059</ele>
        <time>2026-05-17T09:15:34+02:00</time>
      </trkpt>
      <trkpt lat="47.86804" lon="5.94679">
        <ele>217.60059</ele>
        <time>2026-05-17T09:15:35+02:00</time>
      </trkpt>
      <trkpt lat="47.86807" lon="5.94687">
        <ele>217.60059</ele>
        <time>2026-05-17T09:15:36+02:00</time>
      </trkpt>
      <trkpt lat="47.8681" lon="5.94694">
        <ele>217.60059</ele>
        <time>2026-05-17T09:15:37+02:00</time>
      </trkpt>
      <trkpt lat="47.86815" lon="5.94701">
        <ele>217.60059</ele>
        <time>2026-05-17T09:15:38+02:00</time>
      </trkpt>
      <trkpt lat="47.86818" lon="5.94709">
        <ele>217.5</ele>
        <time>2026-05-17T09:15:39+02:00</time>
      </trkpt>
      <trkpt lat="47.86822" lon="5.94717">
        <ele>217.5</ele>
        <time>2026-05-17T09:15:40+02:00</time>
      </trkpt>
      <trkpt lat="47.86826" lon="5.94725">
        <ele>217.5</ele>
        <time>2026-05-17T09:15:41+02:00</time>
      </trkpt>
      <trkpt lat="47.8683" lon="5.94734">
        <ele>217.5</ele>
        <time>2026-05-17T09:15:42+02:00</time>
      </trkpt>
      <trkpt lat="47.86833" lon="5.94742">
        <ele>217.5</ele>
        <time>2026-05-17T09:15:43+02:00</time>
      </trkpt>
      <trkpt lat="47.86837" lon="5.94752">
        <ele>217.60059</ele>
        <time>2026-05-17T09:15:44+02:00</time>
      </trkpt>
      <trkpt lat="47.8684" lon="5.94761">
        <ele>217.60059</ele>
        <time>2026-05-17T09:15:45+02:00</time>
      </trkpt>
      <trkpt lat="47.86844" lon="5.9477">
        <ele>217.7002</ele>
        <time>2026-05-17T09:15:46+02:00</time>
      </trkpt>
      <trkpt lat="47.86847" lon="5.94779">
        <ele>217.7998</ele>
        <time>2026-05-17T09:15:47+02:00</time>
      </trkpt>
      <trkpt lat="47.8685" lon="5.94787">
        <ele>217.90039</ele>
        <time>2026-05-17T09:15:48+02:00</time>
      </trkpt>
      <trkpt lat="47.86854" lon="5.94796">
        <ele>218.10059</ele>
        <time>2026-05-17T09:15:49+02:00</time>
      </trkpt>
      <trkpt lat="47.86858" lon="5.94805">
        <ele>218.40039</ele>
        <time>2026-05-17T09:15:50+02:00</time>
      </trkpt>
      <trkpt lat="47.86862" lon="5.94814">
        <ele>218.60059</ele>
        <time>2026-05-17T09:15:51+02:00</time>
      </trkpt>
      <trkpt lat="47.86865" lon="5.94822">
        <ele>218.90039</ele>
        <time>2026-05-17T09:15:52+02:00</time>
      </trkpt>
      <trkpt lat="47.86869" lon="5.94831">
        <ele>219.5</ele>
        <time>2026-05-17T09:15:53+02:00</time>
      </trkpt>
      <trkpt lat="47.86873" lon="5.94838">
        <ele>220</ele>
        <time>2026-05-17T09:15:54+02:00</time>
      </trkpt>
      <trkpt lat="47.86877" lon="5.94846">
        <ele>220.5</ele>
        <time>2026-05-17T09:15:55+02:00</time>
      </trkpt>
      <trkpt lat="47.86881" lon="5.94854">
        <ele>221</ele>
        <time>2026-05-17T09:15:56+02:00</time>
      </trkpt>
      <trkpt lat="47.86884" lon="5.94862">
        <ele>221.60059</ele>
        <time>2026-05-17T09:15:57+02:00</time>
      </trkpt>
      <trkpt lat="47.86888" lon="5.9487">
        <ele>222.10059</ele>
        <time>2026-05-17T09:15:58+02:00</time>
      </trkpt>
      <trkpt lat="47.86892" lon="5.94878">
        <ele>222.7998</ele>
        <time>2026-05-17T09:15:59+02:00</time>
      </trkpt>
      <trkpt lat="47.86896" lon="5.94886">
        <ele>223.40039</ele>
        <time>2026-05-17T09:16:00+02:00</time>
      </trkpt>
      <trkpt lat="47.869" lon="5.94894">
        <ele>224</ele>
        <time>2026-05-17T09:16:01+02:00</time>
      </trkpt>
      <trkpt lat="47.86904" lon="5.94901">
        <ele>223.90039</ele>
        <time>2026-05-17T09:16:02+02:00</time>
      </trkpt>
      <trkpt lat="47.86908" lon="5.94909">
        <ele>224.7002</ele>
        <time>2026-05-17T09:16:03+02:00</time>
      </trkpt>
      <trkpt lat="47.86913" lon="5.94916">
        <ele>225.2002</ele>
        <time>2026-05-17T09:16:04+02:00</time>
      </trkpt>
      <trkpt lat="47.86917" lon="5.94924">
        <ele>225.60059</ele>
        <time>2026-05-17T09:16:05+02:00</time>
      </trkpt>
      <trkpt lat="47.86922" lon="5.94932">
        <ele>226</ele>
        <time>2026-05-17T09:16:06+02:00</time>
      </trkpt>
      <trkpt lat="47.86927" lon="5.94939">
        <ele>226.2998</ele>
        <time>2026-05-17T09:16:07+02:00</time>
      </trkpt>
      <trkpt lat="47.86933" lon="5.94946">
        <ele>226.60059</ele>
        <time>2026-05-17T09:16:08+02:00</time>
      </trkpt>
      <trkpt lat="47.86938" lon="5.94952">
        <ele>226.2002</ele>
        <time>2026-05-17T09:16:09+02:00</time>
      </trkpt>
      <trkpt lat="47.86943" lon="5.94959">
        <ele>226.7002</ele>
        <time>2026-05-17T09:16:10+02:00</time>
      </trkpt>
      <trkpt lat="47.86949" lon="5.94965">
        <ele>226.90039</ele>
        <time>2026-05-17T09:16:11+02:00</time>
      </trkpt>
      <trkpt lat="47.86955" lon="5.94971">
        <ele>227.10059</ele>
        <time>2026-05-17T09:16:12+02:00</time>
      </trkpt>
      <trkpt lat="47.8696" lon="5.94977">
        <ele>226.7002</ele>
        <time>2026-05-17T09:16:13+02:00</time>
      </trkpt>
      <trkpt lat="47.86966" lon="5.94982">
        <ele>226.7998</ele>
        <time>2026-05-17T09:16:14+02:00</time>
      </trkpt>
      <trkpt lat="47.86972" lon="5.94987">
        <ele>227.10059</ele>
        <time>2026-05-17T09:16:15+02:00</time>
      </trkpt>
      <trkpt lat="47.86978" lon="5.94992">
        <ele>226.90039</ele>
        <time>2026-05-17T09:16:16+02:00</time>
      </trkpt>
      <trkpt lat="47.86984" lon="5.94998">
        <ele>227.60059</ele>
        <time>2026-05-17T09:16:17+02:00</time>
      </trkpt>
      <trkpt lat="47.8699" lon="5.95004">
        <ele>226.90039</ele>
        <time>2026-05-17T09:16:18+02:00</time>
      </trkpt>
      <trkpt lat="47.86995" lon="5.9501">
        <ele>227.7998</ele>
        <time>2026-05-17T09:16:19+02:00</time>
      </trkpt>
      <trkpt lat="47.87" lon="5.95015">
        <ele>227.7002</ele>
        <time>2026-05-17T09:16:20+02:00</time>
      </trkpt>
      <trkpt lat="47.87006" lon="5.95021">
        <ele>226.7998</ele>
        <time>2026-05-17T09:16:21+02:00</time>
      </trkpt>
      <trkpt lat="47.87011" lon="5.95027">
        <ele>226.2998</ele>
        <time>2026-05-17T09:16:22+02:00</time>
      </trkpt>
      <trkpt lat="47.87016" lon="5.95033">
        <ele>225.7002</ele>
        <time>2026-05-17T09:16:23+02:00</time>
      </trkpt>
      <trkpt lat="47.87022" lon="5.9504">
        <ele>225.10059</ele>
        <time>2026-05-17T09:16:24+02:00</time>
      </trkpt>
      <trkpt lat="47.87027" lon="5.95047">
        <ele>224.2998</ele>
        <time>2026-05-17T09:16:25+02:00</time>
      </trkpt>
      <trkpt lat="47.87033" lon="5.95054">
        <ele>224</ele>
        <time>2026-05-17T09:16:26+02:00</time>
      </trkpt>
      <trkpt lat="47.87038" lon="5.95061">
        <ele>223.60059</ele>
        <time>2026-05-17T09:16:27+02:00</time>
      </trkpt>
      <trkpt lat="47.87044" lon="5.95068">
        <ele>223.10059</ele>
        <time>2026-05-17T09:16:28+02:00</time>
      </trkpt>
      <trkpt lat="47.87048" lon="5.95076">
        <ele>222.2998</ele>
        <time>2026-05-17T09:16:29+02:00</time>
      </trkpt>
      <trkpt lat="47.87053" lon="5.95084">
        <ele>222.10059</ele>
        <time>2026-05-17T09:16:30+02:00</time>
      </trkpt>
      <trkpt lat="47.87058" lon="5.95092">
        <ele>221.40039</ele>
        <time>2026-05-17T09:16:31+02:00</time>
      </trkpt>
      <trkpt lat="47.87063" lon="5.951">
        <ele>220.90039</ele>
        <time>2026-05-17T09:16:32+02:00</time>
      </trkpt>
      <trkpt lat="47.87068" lon="5.95108">
        <ele>220.5</ele>
        <time>2026-05-17T09:16:33+02:00</time>
      </trkpt>
      <trkpt lat="47.87072" lon="5.95116">
        <ele>220.2002</ele>
        <time>2026-05-17T09:16:34+02:00</time>
      </trkpt>
      <trkpt lat="47.87076" lon="5.95124">
        <ele>220.2002</ele>
        <time>2026-05-17T09:16:35+02:00</time>
      </trkpt>
      <trkpt lat="47.87081" lon="5.95132">
        <ele>220</ele>
        <time>2026-05-17T09:16:36+02:00</time>
      </trkpt>
      <trkpt lat="47.87085" lon="5.9514">
        <ele>220</ele>
        <time>2026-05-17T09:16:37+02:00</time>
      </trkpt>
      <trkpt lat="47.8709" lon="5.95148">
        <ele>220</ele>
        <time>2026-05-17T09:16:38+02:00</time>
      </trkpt>
      <trkpt lat="47.87095" lon="5.95155">
        <ele>220.10059</ele>
        <time>2026-05-17T09:16:39+02:00</time>
      </trkpt>
      <trkpt lat="47.871" lon="5.95163">
        <ele>220.2002</ele>
        <time>2026-05-17T09:16:40+02:00</time>
      </trkpt>
      <trkpt lat="47.87104" lon="5.9517">
        <ele>220.7002</ele>
        <time>2026-05-17T09:16:41+02:00</time>
      </trkpt>
      <trkpt lat="47.87109" lon="5.95178">
        <ele>220.7998</ele>
        <time>2026-05-17T09:16:42+02:00</time>
      </trkpt>
      <trkpt lat="47.87114" lon="5.95185">
        <ele>220.90039</ele>
        <time>2026-05-17T09:16:43+02:00</time>
      </trkpt>
      <trkpt lat="47.87119" lon="5.95192">
        <ele>220.5</ele>
        <time>2026-05-17T09:16:44+02:00</time>
      </trkpt>
      <trkpt lat="47.87124" lon="5.95199">
        <ele>220.7002</ele>
        <time>2026-05-17T09:16:45+02:00</time>
      </trkpt>
      <trkpt lat="47.87129" lon="5.95206">
        <ele>220.7998</ele>
        <time>2026-05-17T09:16:46+02:00</time>
      </trkpt>
      <trkpt lat="47.87134" lon="5.95213">
        <ele>221</ele>
        <time>2026-05-17T09:16:47+02:00</time>
      </trkpt>
      <trkpt lat="47.87139" lon="5.9522">
        <ele>221.60059</ele>
        <time>2026-05-17T09:16:48+02:00</time>
      </trkpt>
      <trkpt lat="47.87144" lon="5.95227">
        <ele>221.2998</ele>
        <time>2026-05-17T09:16:49+02:00</time>
      </trkpt>
      <trkpt lat="47.8715" lon="5.95234">
        <ele>221.5</ele>
        <time>2026-05-17T09:16:50+02:00</time>
      </trkpt>
      <trkpt lat="47.87155" lon="5.95241">
        <ele>221.7998</ele>
        <time>2026-05-17T09:16:51+02:00</time>
      </trkpt>
      <trkpt lat="47.8716" lon="5.95247">
        <ele>222.2002</ele>
        <time>2026-05-17T09:16:52+02:00</time>
      </trkpt>
      <trkpt lat="47.87166" lon="5.95254">
        <ele>222.60059</ele>
        <time>2026-05-17T09:16:53+02:00</time>
      </trkpt>
      <trkpt lat="47.87171" lon="5.9526">
        <ele>222.2002</ele>
        <time>2026-05-17T09:16:54+02:00</time>
      </trkpt>
      <trkpt lat="47.87176" lon="5.95267">
        <ele>222.5</ele>
        <time>2026-05-17T09:16:55+02:00</time>
      </trkpt>
      <trkpt lat="47.87182" lon="5.95274">
        <ele>222.7998</ele>
        <time>2026-05-17T09:16:56+02:00</time>
      </trkpt>
      <trkpt lat="47.87187" lon="5.9528">
        <ele>223.40039</ele>
        <time>2026-05-17T09:16:57+02:00</time>
      </trkpt>
      <trkpt lat="47.87192" lon="5.95286">
        <ele>223.10059</ele>
        <time>2026-05-17T09:16:58+02:00</time>
      </trkpt>
      <trkpt lat="47.87196" lon="5.95292">
        <ele>224</ele>
        <time>2026-05-17T09:16:59+02:00</time>
      </trkpt>
      <trkpt lat="47.87201" lon="5.95298">
        <ele>224.7002</ele>
        <time>2026-05-17T09:17:00+02:00</time>
      </trkpt>
      <trkpt lat="47.87206" lon="5.95303">
        <ele>224.5</ele>
        <time>2026-05-17T09:17:01+02:00</time>
      </trkpt>
      <trkpt lat="47.8721" lon="5.9531">
        <ele>225.40039</ele>
        <time>2026-05-17T09:17:02+02:00</time>
      </trkpt>
      <trkpt lat="47.87214" lon="5.95316">
        <ele>226.5</ele>
        <time>2026-05-17T09:17:03+02:00</time>
      </trkpt>
      <trkpt lat="47.87219" lon="5.95323">
        <ele>227.40039</ele>
        <time>2026-05-17T09:17:04+02:00</time>
      </trkpt>
      <trkpt lat="47.87223" lon="5.9533">
        <ele>227.10059</ele>
        <time>2026-05-17T09:17:05+02:00</time>
      </trkpt>
      <trkpt lat="47.87228" lon="5.95337">
        <ele>227.7002</ele>
        <time>2026-05-17T09:17:06+02:00</time>
      </trkpt>
      <trkpt lat="47.87232" lon="5.95344">
        <ele>228</ele>
        <time>2026-05-17T09:17:07+02:00</time>
      </trkpt>
      <trkpt lat="47.87237" lon="5.95352">
        <ele>228.7002</ele>
        <time>2026-05-17T09:17:08+02:00</time>
      </trkpt>
      <trkpt lat="47.87241" lon="5.95359">
        <ele>228.5</ele>
        <time>2026-05-17T09:17:09+02:00</time>
      </trkpt>
      <trkpt lat="47.87245" lon="5.95366">
        <ele>228.2002</ele>
        <time>2026-05-17T09:17:10+02:00</time>
      </trkpt>
      <trkpt lat="47.8725" lon="5.95373">
        <ele>227.2998</ele>
        <time>2026-05-17T09:17:11+02:00</time>
      </trkpt>
      <trkpt lat="47.87254" lon="5.9538">
        <ele>227.60059</ele>
        <time>2026-05-17T09:17:12+02:00</time>
      </trkpt>
      <trkpt lat="47.87259" lon="5.95387">
        <ele>226.90039</ele>
        <time>2026-05-17T09:17:13+02:00</time>
      </trkpt>
      <trkpt lat="47.87264" lon="5.95393">
        <ele>226.2998</ele>
        <time>2026-05-17T09:17:14+02:00</time>
      </trkpt>
      <trkpt lat="47.87269" lon="5.954">
        <ele>225.7002</ele>
        <time>2026-05-17T09:17:15+02:00</time>
      </trkpt>
      <trkpt lat="47.87274" lon="5.95406">
        <ele>224.7998</ele>
        <time>2026-05-17T09:17:16+02:00</time>
      </trkpt>
      <trkpt lat="47.87279" lon="5.95413">
        <ele>224.10059</ele>
        <time>2026-05-17T09:17:17+02:00</time>
      </trkpt>
      <trkpt lat="47.87285" lon="5.9542">
        <ele>223.60059</ele>
        <time>2026-05-17T09:17:18+02:00</time>
      </trkpt>
      <trkpt lat="47.8729" lon="5.95426">
        <ele>223.2998</ele>
        <time>2026-05-17T09:17:19+02:00</time>
      </trkpt>
      <trkpt lat="47.87295" lon="5.95432">
        <ele>222.7002</ele>
        <time>2026-05-17T09:17:20+02:00</time>
      </trkpt>
      <trkpt lat="47.87301" lon="5.95437">
        <ele>222.60059</ele>
        <time>2026-05-17T09:17:21+02:00</time>
      </trkpt>
      <trkpt lat="47.87306" lon="5.95442">
        <ele>223.2998</ele>
        <time>2026-05-17T09:17:22+02:00</time>
      </trkpt>
      <trkpt lat="47.87311" lon="5.95447">
        <ele>222.7002</ele>
        <time>2026-05-17T09:17:23+02:00</time>
      </trkpt>
      <trkpt lat="47.87317" lon="5.95451">
        <ele>223</ele>
        <time>2026-05-17T09:17:24+02:00</time>
      </trkpt>
      <trkpt lat="47.87323" lon="5.95455">
        <ele>222.60059</ele>
        <time>2026-05-17T09:17:25+02:00</time>
      </trkpt>
      <trkpt lat="47.87329" lon="5.95459">
        <ele>223.10059</ele>
        <time>2026-05-17T09:17:26+02:00</time>
      </trkpt>
      <trkpt lat="47.87335" lon="5.95462">
        <ele>222.60059</ele>
        <time>2026-05-17T09:17:27+02:00</time>
      </trkpt>
      <trkpt lat="47.87342" lon="5.95465">
        <ele>221.90039</ele>
        <time>2026-05-17T09:17:28+02:00</time>
      </trkpt>
      <trkpt lat="47.87348" lon="5.95468">
        <ele>222.5</ele>
        <time>2026-05-17T09:17:29+02:00</time>
      </trkpt>
      <trkpt lat="47.87355" lon="5.95471">
        <ele>222.2998</ele>
        <time>2026-05-17T09:17:30+02:00</time>
      </trkpt>
      <trkpt lat="47.87362" lon="5.95473">
        <ele>222.10059</ele>
        <time>2026-05-17T09:17:31+02:00</time>
      </trkpt>
      <trkpt lat="47.87369" lon="5.95475">
        <ele>221.90039</ele>
        <time>2026-05-17T09:17:32+02:00</time>
      </trkpt>
      <trkpt lat="47.87375" lon="5.95477">
        <ele>222.5</ele>
        <time>2026-05-17T09:17:33+02:00</time>
      </trkpt>
      <trkpt lat="47.87383" lon="5.95479">
        <ele>222.10059</ele>
        <time>2026-05-17T09:17:34+02:00</time>
      </trkpt>
      <trkpt lat="47.8739" lon="5.95481">
        <ele>221.90039</ele>
        <time>2026-05-17T09:17:35+02:00</time>
      </trkpt>
      <trkpt lat="47.87397" lon="5.95483">
        <ele>221.7998</ele>
        <time>2026-05-17T09:17:36+02:00</time>
      </trkpt>
      <trkpt lat="47.87404" lon="5.95485">
        <ele>222</ele>
        <time>2026-05-17T09:17:37+02:00</time>
      </trkpt>
      <trkpt lat="47.87411" lon="5.95487">
        <ele>221.7998</ele>
        <time>2026-05-17T09:17:38+02:00</time>
      </trkpt>
      <trkpt lat="47.87418" lon="5.95489">
        <ele>221.7002</ele>
        <time>2026-05-17T09:17:39+02:00</time>
      </trkpt>
      <trkpt lat="47.87426" lon="5.9549">
        <ele>221.60059</ele>
        <time>2026-05-17T09:17:40+02:00</time>
      </trkpt>
      <trkpt lat="47.87434" lon="5.95492">
        <ele>221.5</ele>
        <time>2026-05-17T09:17:41+02:00</time>
      </trkpt>
      <trkpt lat="47.87441" lon="5.95495">
        <ele>221.7002</ele>
        <time>2026-05-17T09:17:42+02:00</time>
      </trkpt>
      <trkpt lat="47.87448" lon="5.95498">
        <ele>221.5</ele>
        <time>2026-05-17T09:17:43+02:00</time>
      </trkpt>
      <trkpt lat="47.87456" lon="5.95501">
        <ele>221.40039</ele>
        <time>2026-05-17T09:17:44+02:00</time>
      </trkpt>
      <trkpt lat="47.87463" lon="5.95504">
        <ele>221.10059</ele>
        <time>2026-05-17T09:17:45+02:00</time>
      </trkpt>
      <trkpt lat="47.87469" lon="5.95508">
        <ele>220.7998</ele>
        <time>2026-05-17T09:17:46+02:00</time>
      </trkpt>
      <trkpt lat="47.87476" lon="5.95513">
        <ele>220.40039</ele>
        <time>2026-05-17T09:17:47+02:00</time>
      </trkpt>
      <trkpt lat="47.87482" lon="5.95518">
        <ele>220.10059</ele>
        <time>2026-05-17T09:17:48+02:00</time>
      </trkpt>
      <trkpt lat="47.87488" lon="5.95524">
        <ele>219.7998</ele>
        <time>2026-05-17T09:17:49+02:00</time>
      </trkpt>
      <trkpt lat="47.87494" lon="5.9553">
        <ele>219.5</ele>
        <time>2026-05-17T09:17:50+02:00</time>
      </trkpt>
      <trkpt lat="47.875" lon="5.95537">
        <ele>219.2998</ele>
        <time>2026-05-17T09:17:51+02:00</time>
      </trkpt>
      <trkpt lat="47.87505" lon="5.95543">
        <ele>219.2998</ele>
        <time>2026-05-17T09:17:52+02:00</time>
      </trkpt>
      <trkpt lat="47.87512" lon="5.95549">
        <ele>219.10059</ele>
        <time>2026-05-17T09:17:53+02:00</time>
      </trkpt>
      <trkpt lat="47.87517" lon="5.95555">
        <ele>219</ele>
        <time>2026-05-17T09:17:54+02:00</time>
      </trkpt>
      <trkpt lat="47.87523" lon="5.95561">
        <ele>218.90039</ele>
        <time>2026-05-17T09:17:55+02:00</time>
      </trkpt>
      <trkpt lat="47.87528" lon="5.95568">
        <ele>218.7998</ele>
        <time>2026-05-17T09:17:56+02:00</time>
      </trkpt>
      <trkpt lat="47.87534" lon="5.95574">
        <ele>218.7998</ele>
        <time>2026-05-17T09:17:57+02:00</time>
      </trkpt>
      <trkpt lat="47.87539" lon="5.95581">
        <ele>219</ele>
        <time>2026-05-17T09:17:58+02:00</time>
      </trkpt>
      <trkpt lat="47.87545" lon="5.95588">
        <ele>219.2998</ele>
        <time>2026-05-17T09:17:59+02:00</time>
      </trkpt>
      <trkpt lat="47.8755" lon="5.95595">
        <ele>219.2998</ele>
        <time>2026-05-17T09:18:00+02:00</time>
      </trkpt>
      <trkpt lat="47.87555" lon="5.95602">
        <ele>219.60059</ele>
        <time>2026-05-17T09:18:01+02:00</time>
      </trkpt>
      <trkpt lat="47.87561" lon="5.95609">
        <ele>219.7002</ele>
        <time>2026-05-17T09:18:02+02:00</time>
      </trkpt>
      <trkpt lat="47.87566" lon="5.95616">
        <ele>219.90039</ele>
        <time>2026-05-17T09:18:03+02:00</time>
      </trkpt>
      <trkpt lat="47.87571" lon="5.95623">
        <ele>220.10059</ele>
        <time>2026-05-17T09:18:04+02:00</time>
      </trkpt>
      <trkpt lat="47.87577" lon="5.95629">
        <ele>220.10059</ele>
        <time>2026-05-17T09:18:05+02:00</time>
      </trkpt>
      <trkpt lat="47.87583" lon="5.95636">
        <ele>220.10059</ele>
        <time>2026-05-17T09:18:06+02:00</time>
      </trkpt>
      <trkpt lat="47.87588" lon="5.95642">
        <ele>220.5</ele>
        <time>2026-05-17T09:18:07+02:00</time>
      </trkpt>
      <trkpt lat="47.87594" lon="5.95648">
        <ele>220.60059</ele>
        <time>2026-05-17T09:18:08+02:00</time>
      </trkpt>
      <trkpt lat="47.87599" lon="5.95654">
        <ele>220.40039</ele>
        <time>2026-05-17T09:18:09+02:00</time>
      </trkpt>
      <trkpt lat="47.87604" lon="5.95661">
        <ele>220.60059</ele>
        <time>2026-05-17T09:18:10+02:00</time>
      </trkpt>
      <trkpt lat="47.8761" lon="5.95668">
        <ele>220.60059</ele>
        <time>2026-05-17T09:18:11+02:00</time>
      </trkpt>
      <trkpt lat="47.87615" lon="5.95675">
        <ele>220.40039</ele>
        <time>2026-05-17T09:18:12+02:00</time>
      </trkpt>
      <trkpt lat="47.8762" lon="5.95682">
        <ele>219.90039</ele>
        <time>2026-05-17T09:18:13+02:00</time>
      </trkpt>
      <trkpt lat="47.87625" lon="5.95689">
        <ele>219.7002</ele>
        <time>2026-05-17T09:18:14+02:00</time>
      </trkpt>
      <trkpt lat="47.87631" lon="5.95696">
        <ele>219.60059</ele>
        <time>2026-05-17T09:18:15+02:00</time>
      </trkpt>
      <trkpt lat="47.87636" lon="5.95703">
        <ele>219.40039</ele>
        <time>2026-05-17T09:18:16+02:00</time>
      </trkpt>
      <trkpt lat="47.87641" lon="5.95709">
        <ele>219.2998</ele>
        <time>2026-05-17T09:18:17+02:00</time>
      </trkpt>
      <trkpt lat="47.87646" lon="5.95716">
        <ele>219.2998</ele>
        <time>2026-05-17T09:18:18+02:00</time>
      </trkpt>
      <trkpt lat="47.87651" lon="5.95723">
        <ele>219.2998</ele>
        <time>2026-05-17T09:18:19+02:00</time>
      </trkpt>
      <trkpt lat="47.87656" lon="5.9573">
        <ele>219.2002</ele>
        <time>2026-05-17T09:18:20+02:00</time>
      </trkpt>
      <trkpt lat="47.87661" lon="5.95736">
        <ele>219</ele>
        <time>2026-05-17T09:18:21+02:00</time>
      </trkpt>
      <trkpt lat="47.87667" lon="5.95742">
        <ele>218.60059</ele>
        <time>2026-05-17T09:18:22+02:00</time>
      </trkpt>
      <trkpt lat="47.87673" lon="5.95748">
        <ele>218.40039</ele>
        <time>2026-05-17T09:18:23+02:00</time>
      </trkpt>
      <trkpt lat="47.87679" lon="5.95753">
        <ele>218.2998</ele>
        <time>2026-05-17T09:18:24+02:00</time>
      </trkpt>
      <trkpt lat="47.87685" lon="5.95758">
        <ele>218.10059</ele>
        <time>2026-05-17T09:18:25+02:00</time>
      </trkpt>
      <trkpt lat="47.87692" lon="5.95762">
        <ele>218</ele>
        <time>2026-05-17T09:18:26+02:00</time>
      </trkpt>
      <trkpt lat="47.87698" lon="5.95766">
        <ele>217.7998</ele>
        <time>2026-05-17T09:18:27+02:00</time>
      </trkpt>
      <trkpt lat="47.87704" lon="5.9577">
        <ele>217.7002</ele>
        <time>2026-05-17T09:18:28+02:00</time>
      </trkpt>
      <trkpt lat="47.87711" lon="5.95774">
        <ele>217.60059</ele>
        <time>2026-05-17T09:18:29+02:00</time>
      </trkpt>
      <trkpt lat="47.87717" lon="5.95777">
        <ele>217.60059</ele>
        <time>2026-05-17T09:18:30+02:00</time>
      </trkpt>
      <trkpt lat="47.87724" lon="5.95781">
        <ele>217.60059</ele>
        <time>2026-05-17T09:18:31+02:00</time>
      </trkpt>
      <trkpt lat="47.8773" lon="5.95783">
        <ele>217.60059</ele>
        <time>2026-05-17T09:18:32+02:00</time>
      </trkpt>
      <trkpt lat="47.87737" lon="5.95785">
        <ele>217.60059</ele>
        <time>2026-05-17T09:18:33+02:00</time>
      </trkpt>
      <trkpt lat="47.87744" lon="5.95786">
        <ele>217.5</ele>
        <time>2026-05-17T09:18:34+02:00</time>
      </trkpt>
      <trkpt lat="47.87751" lon="5.95787">
        <ele>217.5</ele>
        <time>2026-05-17T09:18:35+02:00</time>
      </trkpt>
      <trkpt lat="47.87757" lon="5.95787">
        <ele>217.5</ele>
        <time>2026-05-17T09:18:36+02:00</time>
      </trkpt>
      <trkpt lat="47.87764" lon="5.95787">
        <ele>217.5</ele>
        <time>2026-05-17T09:18:37+02:00</time>
      </trkpt>
      <trkpt lat="47.87771" lon="5.95786">
        <ele>217.5</ele>
        <time>2026-05-17T09:18:38+02:00</time>
      </trkpt>
      <trkpt lat="47.87778" lon="5.95783">
        <ele>217.5</ele>
        <time>2026-05-17T09:18:39+02:00</time>
      </trkpt>
      <trkpt lat="47.87784" lon="5.9578">
        <ele>217.5</ele>
        <time>2026-05-17T09:18:40+02:00</time>
      </trkpt>
      <trkpt lat="47.87789" lon="5.95776">
        <ele>217.60059</ele>
        <time>2026-05-17T09:18:41+02:00</time>
      </trkpt>
      <trkpt lat="47.87795" lon="5.95772">
        <ele>217.60059</ele>
        <time>2026-05-17T09:18:42+02:00</time>
      </trkpt>
      <trkpt lat="47.87801" lon="5.95769">
        <ele>217.60059</ele>
        <time>2026-05-17T09:18:43+02:00</time>
      </trkpt>
      <trkpt lat="47.87806" lon="5.95765">
        <ele>217.7002</ele>
        <time>2026-05-17T09:18:44+02:00</time>
      </trkpt>
      <trkpt lat="47.87812" lon="5.95762">
        <ele>217.7002</ele>
        <time>2026-05-17T09:18:45+02:00</time>
      </trkpt>
      <trkpt lat="47.87818" lon="5.95759">
        <ele>217.7002</ele>
        <time>2026-05-17T09:18:46+02:00</time>
      </trkpt>
      <trkpt lat="47.87823" lon="5.95757">
        <ele>217.7998</ele>
        <time>2026-05-17T09:18:47+02:00</time>
      </trkpt>
      <trkpt lat="47.87829" lon="5.95757">
        <ele>217.7998</ele>
        <time>2026-05-17T09:18:48+02:00</time>
      </trkpt>
      <trkpt lat="47.87835" lon="5.95758">
        <ele>217.7998</ele>
        <time>2026-05-17T09:18:49+02:00</time>
      </trkpt>
      <trkpt lat="47.8784" lon="5.95759">
        <ele>217.7998</ele>
        <time>2026-05-17T09:18:50+02:00</time>
      </trkpt>
      <trkpt lat="47.87845" lon="5.9576">
        <ele>217.7002</ele>
        <time>2026-05-17T09:18:51+02:00</time>
      </trkpt>
      <trkpt lat="47.87849" lon="5.9576">
        <ele>217.7002</ele>
        <time>2026-05-17T09:18:52+02:00</time>
      </trkpt>
      <trkpt lat="47.87852" lon="5.95757">
        <ele>217.7002</ele>
        <time>2026-05-17T09:18:53+02:00</time>
      </trkpt>
      <trkpt lat="47.87854" lon="5.95753">
        <ele>217.7002</ele>
        <time>2026-05-17T09:18:54+02:00</time>
      </trkpt>
      <trkpt lat="47.87856" lon="5.95747">
        <ele>217.7002</ele>
        <time>2026-05-17T09:18:55+02:00</time>
      </trkpt>
      <trkpt lat="47.87858" lon="5.9574">
        <ele>217.7998</ele>
        <time>2026-05-17T09:18:56+02:00</time>
      </trkpt>
      <trkpt lat="47.87862" lon="5.95734">
        <ele>217.7002</ele>
        <time>2026-05-17T09:18:57+02:00</time>
      </trkpt>
      <trkpt lat="47.87867" lon="5.9573">
        <ele>217.60059</ele>
        <time>2026-05-17T09:18:58+02:00</time>
      </trkpt>
      <trkpt lat="47.87872" lon="5.95726">
        <ele>217.60059</ele>
        <time>2026-05-17T09:18:59+02:00</time>
      </trkpt>
      <trkpt lat="47.87877" lon="5.95722">
        <ele>217.5</ele>
        <time>2026-05-17T09:19:00+02:00</time>
      </trkpt>
      <trkpt lat="47.87883" lon="5.95719">
        <ele>217.5</ele>
        <time>2026-05-17T09:19:01+02:00</time>
      </trkpt>
      <trkpt lat="47.87889" lon="5.95715">
        <ele>217.5</ele>
        <time>2026-05-17T09:19:02+02:00</time>
      </trkpt>
      <trkpt lat="47.87895" lon="5.95712">
        <ele>217.40039</ele>
        <time>2026-05-17T09:19:03+02:00</time>
      </trkpt>
      <trkpt lat="47.879" lon="5.95708">
        <ele>217.40039</ele>
        <time>2026-05-17T09:19:04+02:00</time>
      </trkpt>
      <trkpt lat="47.87906" lon="5.95704">
        <ele>217.40039</ele>
        <time>2026-05-17T09:19:05+02:00</time>
      </trkpt>
      <trkpt lat="47.87912" lon="5.957">
        <ele>217.40039</ele>
        <time>2026-05-17T09:19:06+02:00</time>
      </trkpt>
      <trkpt lat="47.87917" lon="5.95697">
        <ele>217.5</ele>
        <time>2026-05-17T09:19:07+02:00</time>
      </trkpt>
      <trkpt lat="47.87924" lon="5.95694">
        <ele>217.5</ele>
        <time>2026-05-17T09:19:08+02:00</time>
      </trkpt>
      <trkpt lat="47.8793" lon="5.95691">
        <ele>217.60059</ele>
        <time>2026-05-17T09:19:09+02:00</time>
      </trkpt>
      <trkpt lat="47.87936" lon="5.95689">
        <ele>217.7998</ele>
        <time>2026-05-17T09:19:10+02:00</time>
      </trkpt>
      <trkpt lat="47.87942" lon="5.95687">
        <ele>217.7998</ele>
        <time>2026-05-17T09:19:11+02:00</time>
      </trkpt>
      <trkpt lat="47.87948" lon="5.95685">
        <ele>217.90039</ele>
        <time>2026-05-17T09:19:12+02:00</time>
      </trkpt>
      <trkpt lat="47.87955" lon="5.95685">
        <ele>218</ele>
        <time>2026-05-17T09:19:13+02:00</time>
      </trkpt>
      <trkpt lat="47.87961" lon="5.95685">
        <ele>218</ele>
        <time>2026-05-17T09:19:14+02:00</time>
      </trkpt>
      <trkpt lat="47.87968" lon="5.95685">
        <ele>218.10059</ele>
        <time>2026-05-17T09:19:15+02:00</time>
      </trkpt>
      <trkpt lat="47.87974" lon="5.95686">
        <ele>218.2002</ele>
        <time>2026-05-17T09:19:16+02:00</time>
      </trkpt>
      <trkpt lat="47.87981" lon="5.95687">
        <ele>218.2002</ele>
        <time>2026-05-17T09:19:17+02:00</time>
      </trkpt>
      <trkpt lat="47.87987" lon="5.95688">
        <ele>218.2002</ele>
        <time>2026-05-17T09:19:18+02:00</time>
      </trkpt>
      <trkpt lat="47.87994" lon="5.9569">
        <ele>218.10059</ele>
        <time>2026-05-17T09:19:19+02:00</time>
      </trkpt>
      <trkpt lat="47.88" lon="5.95692">
        <ele>217.90039</ele>
        <time>2026-05-17T09:19:20+02:00</time>
      </trkpt>
      <trkpt lat="47.88007" lon="5.95694">
        <ele>217.90039</ele>
        <time>2026-05-17T09:19:21+02:00</time>
      </trkpt>
      <trkpt lat="47.88014" lon="5.95697">
        <ele>217.90039</ele>
        <time>2026-05-17T09:19:22+02:00</time>
      </trkpt>
      <trkpt lat="47.8802" lon="5.95701">
        <ele>217.7002</ele>
        <time>2026-05-17T09:19:23+02:00</time>
      </trkpt>
      <trkpt lat="47.88025" lon="5.95706">
        <ele>217.7002</ele>
        <time>2026-05-17T09:19:24+02:00</time>
      </trkpt>
      <trkpt lat="47.88031" lon="5.95711">
        <ele>217.60059</ele>
        <time>2026-05-17T09:19:25+02:00</time>
      </trkpt>
      <trkpt lat="47.88037" lon="5.95716">
        <ele>217.60059</ele>
        <time>2026-05-17T09:19:26+02:00</time>
      </trkpt>
      <trkpt lat="47.88043" lon="5.95722">
        <ele>217.40039</ele>
        <time>2026-05-17T09:19:27+02:00</time>
      </trkpt>
      <trkpt lat="47.88048" lon="5.95727">
        <ele>217.2998</ele>
        <time>2026-05-17T09:19:28+02:00</time>
      </trkpt>
      <trkpt lat="47.88054" lon="5.95733">
        <ele>217.2998</ele>
        <time>2026-05-17T09:19:29+02:00</time>
      </trkpt>
      <trkpt lat="47.88061" lon="5.95738">
        <ele>217.5</ele>
        <time>2026-05-17T09:19:30+02:00</time>
      </trkpt>
      <trkpt lat="47.88066" lon="5.95743">
        <ele>217.5</ele>
        <time>2026-05-17T09:19:31+02:00</time>
      </trkpt>
      <trkpt lat="47.88073" lon="5.95748">
        <ele>217.7998</ele>
        <time>2026-05-17T09:19:32+02:00</time>
      </trkpt>
      <trkpt lat="47.88078" lon="5.95754">
        <ele>217.90039</ele>
        <time>2026-05-17T09:19:33+02:00</time>
      </trkpt>
      <trkpt lat="47.88084" lon="5.9576">
        <ele>218.2002</ele>
        <time>2026-05-17T09:19:34+02:00</time>
      </trkpt>
      <trkpt lat="47.8809" lon="5.95766">
        <ele>218.2002</ele>
        <time>2026-05-17T09:19:35+02:00</time>
      </trkpt>
      <trkpt lat="47.88095" lon="5.95772">
        <ele>218.40039</ele>
        <time>2026-05-17T09:19:36+02:00</time>
      </trkpt>
      <trkpt lat="47.88101" lon="5.95778">
        <ele>218.60059</ele>
        <time>2026-05-17T09:19:37+02:00</time>
      </trkpt>
      <trkpt lat="47.88106" lon="5.95784">
        <ele>218.60059</ele>
        <time>2026-05-17T09:19:38+02:00</time>
      </trkpt>
      <trkpt lat="47.88112" lon="5.9579">
        <ele>218.7998</ele>
        <time>2026-05-17T09:19:39+02:00</time>
      </trkpt>
      <trkpt lat="47.88117" lon="5.95796">
        <ele>218.90039</ele>
        <time>2026-05-17T09:19:40+02:00</time>
      </trkpt>
      <trkpt lat="47.88123" lon="5.95803">
        <ele>219</ele>
        <time>2026-05-17T09:19:41+02:00</time>
      </trkpt>
      <trkpt lat="47.88128" lon="5.95809">
        <ele>219</ele>
        <time>2026-05-17T09:19:42+02:00</time>
      </trkpt>
      <trkpt lat="47.88134" lon="5.95816">
        <ele>219.10059</ele>
        <time>2026-05-17T09:19:43+02:00</time>
      </trkpt>
      <trkpt lat="47.88139" lon="5.95823">
        <ele>219.10059</ele>
        <time>2026-05-17T09:19:44+02:00</time>
      </trkpt>
      <trkpt lat="47.88144" lon="5.9583">
        <ele>219.2002</ele>
        <time>2026-05-17T09:19:45+02:00</time>
      </trkpt>
      <trkpt lat="47.88149" lon="5.95838">
        <ele>219.2998</ele>
        <time>2026-05-17T09:19:46+02:00</time>
      </trkpt>
      <trkpt lat="47.88154" lon="5.95845">
        <ele>219.2002</ele>
        <time>2026-05-17T09:19:47+02:00</time>
      </trkpt>
      <trkpt lat="47.88159" lon="5.95852">
        <ele>219.2002</ele>
        <time>2026-05-17T09:19:48+02:00</time>
      </trkpt>
      <trkpt lat="47.88164" lon="5.9586">
        <ele>219.2998</ele>
        <time>2026-05-17T09:19:49+02:00</time>
      </trkpt>
      <trkpt lat="47.88169" lon="5.95867">
        <ele>219.10059</ele>
        <time>2026-05-17T09:19:50+02:00</time>
      </trkpt>
      <trkpt lat="47.88173" lon="5.95875">
        <ele>219.10059</ele>
        <time>2026-05-17T09:19:51+02:00</time>
      </trkpt>
      <trkpt lat="47.88178" lon="5.95883">
        <ele>219</ele>
        <time>2026-05-17T09:19:52+02:00</time>
      </trkpt>
      <trkpt lat="47.88182" lon="5.95891">
        <ele>218.90039</ele>
        <time>2026-05-17T09:19:53+02:00</time>
      </trkpt>
      <trkpt lat="47.88186" lon="5.959">
        <ele>218.90039</ele>
        <time>2026-05-17T09:19:54+02:00</time>
      </trkpt>
      <trkpt lat="47.8819" lon="5.95909">
        <ele>218.7002</ele>
        <time>2026-05-17T09:19:55+02:00</time>
      </trkpt>
      <trkpt lat="47.88194" lon="5.95918">
        <ele>218.5</ele>
        <time>2026-05-17T09:19:56+02:00</time>
      </trkpt>
      <trkpt lat="47.88198" lon="5.95926">
        <ele>218.5</ele>
        <time>2026-05-17T09:19:57+02:00</time>
      </trkpt>
      <trkpt lat="47.88202" lon="5.95935">
        <ele>218.5</ele>
        <time>2026-05-17T09:19:58+02:00</time>
      </trkpt>
      <trkpt lat="47.88206" lon="5.95943">
        <ele>218.40039</ele>
        <time>2026-05-17T09:19:59+02:00</time>
      </trkpt>
      <trkpt lat="47.8821" lon="5.95952">
        <ele>218.40039</ele>
        <time>2026-05-17T09:20:00+02:00</time>
      </trkpt>
      <trkpt lat="47.88213" lon="5.95961">
        <ele>218.40039</ele>
        <time>2026-05-17T09:20:01+02:00</time>
      </trkpt>
      <trkpt lat="47.88217" lon="5.9597">
        <ele>218.40039</ele>
        <time>2026-05-17T09:20:02+02:00</time>
      </trkpt>
      <trkpt lat="47.88221" lon="5.95979">
        <ele>218.40039</ele>
        <time>2026-05-17T09:20:03+02:00</time>
      </trkpt>
      <trkpt lat="47.88224" lon="5.95988">
        <ele>218.40039</ele>
        <time>2026-05-17T09:20:04+02:00</time>
      </trkpt>
      <trkpt lat="47.88227" lon="5.95997">
        <ele>218.40039</ele>
        <time>2026-05-17T09:20:05+02:00</time>
      </trkpt>
      <trkpt lat="47.8823" lon="5.96007">
        <ele>218.5</ele>
        <time>2026-05-17T09:20:06+02:00</time>
      </trkpt>
      <trkpt lat="47.88233" lon="5.96016">
        <ele>218.60059</ele>
        <time>2026-05-17T09:20:07+02:00</time>
      </trkpt>
      <trkpt lat="47.88236" lon="5.96026">
        <ele>218.7998</ele>
        <time>2026-05-17T09:20:08+02:00</time>
      </trkpt>
      <trkpt lat="47.88239" lon="5.96035">
        <ele>218.90039</ele>
        <time>2026-05-17T09:20:09+02:00</time>
      </trkpt>
      <trkpt lat="47.88241" lon="5.96045">
        <ele>218.90039</ele>
        <time>2026-05-17T09:20:10+02:00</time>
      </trkpt>
      <trkpt lat="47.88244" lon="5.96055">
        <ele>219.10059</ele>
        <time>2026-05-17T09:20:11+02:00</time>
      </trkpt>
      <trkpt lat="47.88247" lon="5.96064">
        <ele>219.10059</ele>
        <time>2026-05-17T09:20:12+02:00</time>
      </trkpt>
      <trkpt lat="47.8825" lon="5.96074">
        <ele>219.2998</ele>
        <time>2026-05-17T09:20:13+02:00</time>
      </trkpt>
      <trkpt lat="47.88252" lon="5.96084">
        <ele>219.2998</ele>
        <time>2026-05-17T09:20:14+02:00</time>
      </trkpt>
      <trkpt lat="47.88255" lon="5.96094">
        <ele>219.40039</ele>
        <time>2026-05-17T09:20:15+02:00</time>
      </trkpt>
      <trkpt lat="47.88258" lon="5.96103">
        <ele>219.2002</ele>
        <time>2026-05-17T09:20:16+02:00</time>
      </trkpt>
      <trkpt lat="47.8826" lon="5.96113">
        <ele>219.10059</ele>
        <time>2026-05-17T09:20:17+02:00</time>
      </trkpt>
      <trkpt lat="47.88262" lon="5.96124">
        <ele>218.7998</ele>
        <time>2026-05-17T09:20:18+02:00</time>
      </trkpt>
      <trkpt lat="47.88264" lon="5.96134">
        <ele>218.7998</ele>
        <time>2026-05-17T09:20:19+02:00</time>
      </trkpt>
      <trkpt lat="47.88266" lon="5.96144">
        <ele>218.7998</ele>
        <time>2026-05-17T09:20:20+02:00</time>
      </trkpt>
      <trkpt lat="47.88268" lon="5.96154">
        <ele>218.5</ele>
        <time>2026-05-17T09:20:21+02:00</time>
      </trkpt>
      <trkpt lat="47.88269" lon="5.96164">
        <ele>218.5</ele>
        <time>2026-05-17T09:20:22+02:00</time>
      </trkpt>
      <trkpt lat="47.8827" lon="5.96175">
        <ele>218.5</ele>
        <time>2026-05-17T09:20:23+02:00</time>
      </trkpt>
      <trkpt lat="47.88271" lon="5.96185">
        <ele>218.5</ele>
        <time>2026-05-17T09:20:24+02:00</time>
      </trkpt>
      <trkpt lat="47.88271" lon="5.96196">
        <ele>218.5</ele>
        <time>2026-05-17T09:20:25+02:00</time>
      </trkpt>
      <trkpt lat="47.88271" lon="5.96207">
        <ele>218.5</ele>
        <time>2026-05-17T09:20:26+02:00</time>
      </trkpt>
      <trkpt lat="47.88271" lon="5.96217">
        <ele>218.5</ele>
        <time>2026-05-17T09:20:27+02:00</time>
      </trkpt>
      <trkpt lat="47.88271" lon="5.96227">
        <ele>218.60059</ele>
        <time>2026-05-17T09:20:28+02:00</time>
      </trkpt>
      <trkpt lat="47.88271" lon="5.96238">
        <ele>218.60059</ele>
        <time>2026-05-17T09:20:29+02:00</time>
      </trkpt>
      <trkpt lat="47.8827" lon="5.96248">
        <ele>218.60059</ele>
        <time>2026-05-17T09:20:30+02:00</time>
      </trkpt>
      <trkpt lat="47.88269" lon="5.96258">
        <ele>218.60059</ele>
        <time>2026-05-17T09:20:31+02:00</time>
      </trkpt>
      <trkpt lat="47.88268" lon="5.96269">
        <ele>218.60059</ele>
        <time>2026-05-17T09:20:32+02:00</time>
      </trkpt>
      <trkpt lat="47.88267" lon="5.96279">
        <ele>218.7998</ele>
        <time>2026-05-17T09:20:33+02:00</time>
      </trkpt>
      <trkpt lat="47.88266" lon="5.96289">
        <ele>218.7998</ele>
        <time>2026-05-17T09:20:34+02:00</time>
      </trkpt>
      <trkpt lat="47.88265" lon="5.96299">
        <ele>218.7002</ele>
        <time>2026-05-17T09:20:35+02:00</time>
      </trkpt>
      <trkpt lat="47.88263" lon="5.9631">
        <ele>218.5</ele>
        <time>2026-05-17T09:20:36+02:00</time>
      </trkpt>
      <trkpt lat="47.88262" lon="5.9632">
        <ele>218.40039</ele>
        <time>2026-05-17T09:20:37+02:00</time>
      </trkpt>
      <trkpt lat="47.8826" lon="5.9633">
        <ele>218.7002</ele>
        <time>2026-05-17T09:20:38+02:00</time>
      </trkpt>
      <trkpt lat="47.88259" lon="5.9634">
        <ele>218.60059</ele>
        <time>2026-05-17T09:20:39+02:00</time>
      </trkpt>
      <trkpt lat="47.88257" lon="5.9635">
        <ele>218.60059</ele>
        <time>2026-05-17T09:20:40+02:00</time>
      </trkpt>
      <trkpt lat="47.88255" lon="5.9636">
        <ele>218.7998</ele>
        <time>2026-05-17T09:20:41+02:00</time>
      </trkpt>
      <trkpt lat="47.88254" lon="5.9637">
        <ele>218.7002</ele>
        <time>2026-05-17T09:20:42+02:00</time>
      </trkpt>
      <trkpt lat="47.88252" lon="5.9638">
        <ele>218.7002</ele>
        <time>2026-05-17T09:20:43+02:00</time>
      </trkpt>
      <trkpt lat="47.8825" lon="5.9639">
        <ele>218.7998</ele>
        <time>2026-05-17T09:20:44+02:00</time>
      </trkpt>
      <trkpt lat="47.88248" lon="5.964">
        <ele>218.7002</ele>
        <time>2026-05-17T09:20:45+02:00</time>
      </trkpt>
      <trkpt lat="47.88246" lon="5.96411">
        <ele>218.60059</ele>
        <time>2026-05-17T09:20:46+02:00</time>
      </trkpt>
      <trkpt lat="47.88244" lon="5.96421">
        <ele>218.60059</ele>
        <time>2026-05-17T09:20:47+02:00</time>
      </trkpt>
      <trkpt lat="47.88242" lon="5.96432">
        <ele>218.5</ele>
        <time>2026-05-17T09:20:48+02:00</time>
      </trkpt>
      <trkpt lat="47.8824" lon="5.96442">
        <ele>218.40039</ele>
        <time>2026-05-17T09:20:49+02:00</time>
      </trkpt>
      <trkpt lat="47.88238" lon="5.96452">
        <ele>218.40039</ele>
        <time>2026-05-17T09:20:50+02:00</time>
      </trkpt>
      <trkpt lat="47.88236" lon="5.96463">
        <ele>218.2998</ele>
        <time>2026-05-17T09:20:51+02:00</time>
      </trkpt>
      <trkpt lat="47.88234" lon="5.96473">
        <ele>218.2002</ele>
        <time>2026-05-17T09:20:52+02:00</time>
      </trkpt>
      <trkpt lat="47.88232" lon="5.96483">
        <ele>218.2002</ele>
        <time>2026-05-17T09:20:53+02:00</time>
      </trkpt>
      <trkpt lat="47.88231" lon="5.96493">
        <ele>218.2002</ele>
        <time>2026-05-17T09:20:54+02:00</time>
      </trkpt>
      <trkpt lat="47.88229" lon="5.96503">
        <ele>218.10059</ele>
        <time>2026-05-17T09:20:55+02:00</time>
      </trkpt>
      <trkpt lat="47.88227" lon="5.96513">
        <ele>218.2002</ele>
        <time>2026-05-17T09:20:56+02:00</time>
      </trkpt>
      <trkpt lat="47.88225" lon="5.96523">
        <ele>218.2002</ele>
        <time>2026-05-17T09:20:57+02:00</time>
      </trkpt>
      <trkpt lat="47.88222" lon="5.96533">
        <ele>218.2002</ele>
        <time>2026-05-17T09:20:58+02:00</time>
      </trkpt>
      <trkpt lat="47.8822" lon="5.96543">
        <ele>218.2998</ele>
        <time>2026-05-17T09:20:59+02:00</time>
      </trkpt>
      <trkpt lat="47.88218" lon="5.96553">
        <ele>218.2998</ele>
        <time>2026-05-17T09:21:00+02:00</time>
      </trkpt>
      <trkpt lat="47.88216" lon="5.96563">
        <ele>218.5</ele>
        <time>2026-05-17T09:21:01+02:00</time>
      </trkpt>
      <trkpt lat="47.88214" lon="5.96574">
        <ele>218.5</ele>
        <time>2026-05-17T09:21:02+02:00</time>
      </trkpt>
      <trkpt lat="47.88212" lon="5.96584">
        <ele>218.5</ele>
        <time>2026-05-17T09:21:03+02:00</time>
      </trkpt>
      <trkpt lat="47.8821" lon="5.96594">
        <ele>218.7998</ele>
        <time>2026-05-17T09:21:04+02:00</time>
      </trkpt>
      <trkpt lat="47.88209" lon="5.96605">
        <ele>218.7998</ele>
        <time>2026-05-17T09:21:05+02:00</time>
      </trkpt>
      <trkpt lat="47.88207" lon="5.96615">
        <ele>218.7002</ele>
        <time>2026-05-17T09:21:06+02:00</time>
      </trkpt>
      <trkpt lat="47.88205" lon="5.96625">
        <ele>218.7002</ele>
        <time>2026-05-17T09:21:07+02:00</time>
      </trkpt>
      <trkpt lat="47.88203" lon="5.96636">
        <ele>219.10059</ele>
        <time>2026-05-17T09:21:08+02:00</time>
      </trkpt>
      <trkpt lat="47.88202" lon="5.96646">
        <ele>219.10059</ele>
        <time>2026-05-17T09:21:09+02:00</time>
      </trkpt>
      <trkpt lat="47.882" lon="5.96656">
        <ele>219.10059</ele>
        <time>2026-05-17T09:21:10+02:00</time>
      </trkpt>
      <trkpt lat="47.88198" lon="5.96667">
        <ele>219.7002</ele>
        <time>2026-05-17T09:21:11+02:00</time>
      </trkpt>
      <trkpt lat="47.88197" lon="5.96677">
        <ele>219.7002</ele>
        <time>2026-05-17T09:21:12+02:00</time>
      </trkpt>
      <trkpt lat="47.88195" lon="5.96687">
        <ele>219.90039</ele>
        <time>2026-05-17T09:21:13+02:00</time>
      </trkpt>
      <trkpt lat="47.88194" lon="5.96697">
        <ele>219.90039</ele>
        <time>2026-05-17T09:21:14+02:00</time>
      </trkpt>
      <trkpt lat="47.88192" lon="5.96706">
        <ele>220.5</ele>
        <time>2026-05-17T09:21:15+02:00</time>
      </trkpt>
      <trkpt lat="47.88191" lon="5.96716">
        <ele>220.40039</ele>
        <time>2026-05-17T09:21:16+02:00</time>
      </trkpt>
      <trkpt lat="47.88189" lon="5.96726">
        <ele>220.2998</ele>
        <time>2026-05-17T09:21:17+02:00</time>
      </trkpt>
      <trkpt lat="47.88188" lon="5.96736">
        <ele>220.2002</ele>
        <time>2026-05-17T09:21:18+02:00</time>
      </trkpt>
      <trkpt lat="47.88186" lon="5.96746">
        <ele>220.5</ele>
        <time>2026-05-17T09:21:19+02:00</time>
      </trkpt>
      <trkpt lat="47.88184" lon="5.96757">
        <ele>220.2002</ele>
        <time>2026-05-17T09:21:20+02:00</time>
      </trkpt>
      <trkpt lat="47.88183" lon="5.96766">
        <ele>220</ele>
        <time>2026-05-17T09:21:21+02:00</time>
      </trkpt>
      <trkpt lat="47.88181" lon="5.96776">
        <ele>220.5</ele>
        <time>2026-05-17T09:21:22+02:00</time>
      </trkpt>
      <trkpt lat="47.88181" lon="5.96786">
        <ele>220.2998</ele>
        <time>2026-05-17T09:21:23+02:00</time>
      </trkpt>
      <trkpt lat="47.8818" lon="5.96796">
        <ele>220.10059</ele>
        <time>2026-05-17T09:21:24+02:00</time>
      </trkpt>
      <trkpt lat="47.8818" lon="5.96807">
        <ele>219.90039</ele>
        <time>2026-05-17T09:21:25+02:00</time>
      </trkpt>
      <trkpt lat="47.8818" lon="5.96817">
        <ele>219.90039</ele>
        <time>2026-05-17T09:21:26+02:00</time>
      </trkpt>
      <trkpt lat="47.88181" lon="5.96827">
        <ele>219.7998</ele>
        <time>2026-05-17T09:21:27+02:00</time>
      </trkpt>
      <trkpt lat="47.88181" lon="5.96837">
        <ele>219.7998</ele>
        <time>2026-05-17T09:21:28+02:00</time>
      </trkpt>
      <trkpt lat="47.88183" lon="5.96847">
        <ele>219.40039</ele>
        <time>2026-05-17T09:21:29+02:00</time>
      </trkpt>
      <trkpt lat="47.88184" lon="5.96857">
        <ele>219.2998</ele>
        <time>2026-05-17T09:21:30+02:00</time>
      </trkpt>
      <trkpt lat="47.88186" lon="5.96866">
        <ele>219.2002</ele>
        <time>2026-05-17T09:21:31+02:00</time>
      </trkpt>
      <trkpt lat="47.88188" lon="5.96876">
        <ele>218.7002</ele>
        <time>2026-05-17T09:21:32+02:00</time>
      </trkpt>
      <trkpt lat="47.8819" lon="5.96885">
        <ele>218.5</ele>
        <time>2026-05-17T09:21:33+02:00</time>
      </trkpt>
      <trkpt lat="47.88192" lon="5.96894">
        <ele>218.2998</ele>
        <time>2026-05-17T09:21:34+02:00</time>
      </trkpt>
      <trkpt lat="47.88194" lon="5.96904">
        <ele>218.2998</ele>
        <time>2026-05-17T09:21:35+02:00</time>
      </trkpt>
      <trkpt lat="47.88197" lon="5.96913">
        <ele>218.2002</ele>
        <time>2026-05-17T09:21:36+02:00</time>
      </trkpt>
      <trkpt lat="47.88199" lon="5.96923">
        <ele>218.2998</ele>
        <time>2026-05-17T09:21:37+02:00</time>
      </trkpt>
      <trkpt lat="47.88202" lon="5.96932">
        <ele>218.2998</ele>
        <time>2026-05-17T09:21:38+02:00</time>
      </trkpt>
      <trkpt lat="47.88204" lon="5.96942">
        <ele>218.40039</ele>
        <time>2026-05-17T09:21:39+02:00</time>
      </trkpt>
      <trkpt lat="47.88207" lon="5.96951">
        <ele>218.5</ele>
        <time>2026-05-17T09:21:40+02:00</time>
      </trkpt>
      <trkpt lat="47.88209" lon="5.96961">
        <ele>218.7002</ele>
        <time>2026-05-17T09:21:41+02:00</time>
      </trkpt>
      <trkpt lat="47.88212" lon="5.9697">
        <ele>218.7002</ele>
        <time>2026-05-17T09:21:42+02:00</time>
      </trkpt>
      <trkpt lat="47.88214" lon="5.9698">
        <ele>218.7998</ele>
        <time>2026-05-17T09:21:43+02:00</time>
      </trkpt>
      <trkpt lat="47.88216" lon="5.9699">
        <ele>219</ele>
        <time>2026-05-17T09:21:44+02:00</time>
      </trkpt>
      <trkpt lat="47.88219" lon="5.96999">
        <ele>219</ele>
        <time>2026-05-17T09:21:45+02:00</time>
      </trkpt>
      <trkpt lat="47.88221" lon="5.97009">
        <ele>219.10059</ele>
        <time>2026-05-17T09:21:46+02:00</time>
      </trkpt>
      <trkpt lat="47.88223" lon="5.97019">
        <ele>219.2002</ele>
        <time>2026-05-17T09:21:47+02:00</time>
      </trkpt>
      <trkpt lat="47.88234" lon="5.97056">
        <ele>219.7998</ele>
        <time>2026-05-17T09:21:48+02:00</time>
      </trkpt>
      <trkpt lat="47.88236" lon="5.97065">
        <ele>219.90039</ele>
        <time>2026-05-17T09:21:49+02:00</time>
      </trkpt>
      <trkpt lat="47.88239" lon="5.97074">
        <ele>220.10059</ele>
        <time>2026-05-17T09:21:50+02:00</time>
      </trkpt>
      <trkpt lat="47.88241" lon="5.97083">
        <ele>220.2002</ele>
        <time>2026-05-17T09:21:51+02:00</time>
      </trkpt>
      <trkpt lat="47.88244" lon="5.97092">
        <ele>220.40039</ele>
        <time>2026-05-17T09:21:52+02:00</time>
      </trkpt>
      <trkpt lat="47.88246" lon="5.971">
        <ele>220.60059</ele>
        <time>2026-05-17T09:21:53+02:00</time>
      </trkpt>
      <trkpt lat="47.88248" lon="5.97105">
        <ele>220.60059</ele>
        <time>2026-05-17T09:21:54+02:00</time>
      </trkpt>
      <trkpt lat="47.8825" lon="5.97109">
        <ele>220.7998</ele>
        <time>2026-05-17T09:21:55+02:00</time>
      </trkpt>
      <trkpt lat="47.88251" lon="5.97113">
        <ele>220.7002</ele>
        <time>2026-05-17T09:21:56+02:00</time>
      </trkpt>
      <trkpt lat="47.88252" lon="5.97117">
        <ele>220.90039</ele>
        <time>2026-05-17T09:21:57+02:00</time>
      </trkpt>
      <trkpt lat="47.88253" lon="5.97122">
        <ele>220.90039</ele>
        <time>2026-05-17T09:21:58+02:00</time>
      </trkpt>
      <trkpt lat="47.88254" lon="5.97127">
        <ele>221.10059</ele>
        <time>2026-05-17T09:21:59+02:00</time>
      </trkpt>
      <trkpt lat="47.88255" lon="5.97133">
        <ele>221.2998</ele>
        <time>2026-05-17T09:22:00+02:00</time>
      </trkpt>
      <trkpt lat="47.88257" lon="5.97139">
        <ele>221.2002</ele>
        <time>2026-05-17T09:22:01+02:00</time>
      </trkpt>
      <trkpt lat="47.88258" lon="5.97145">
        <ele>221.2998</ele>
        <time>2026-05-17T09:22:02+02:00</time>
      </trkpt>
      <trkpt lat="47.8826" lon="5.97152">
        <ele>221.40039</ele>
        <time>2026-05-17T09:22:03+02:00</time>
      </trkpt>
      <trkpt lat="47.88262" lon="5.97159">
        <ele>221.5</ele>
        <time>2026-05-17T09:22:04+02:00</time>
      </trkpt>
      <trkpt lat="47.88264" lon="5.97166">
        <ele>221.5</ele>
        <time>2026-05-17T09:22:05+02:00</time>
      </trkpt>
      <trkpt lat="47.88266" lon="5.97174">
        <ele>221.60059</ele>
        <time>2026-05-17T09:22:06+02:00</time>
      </trkpt>
      <trkpt lat="47.88268" lon="5.97182">
        <ele>221.60059</ele>
        <time>2026-05-17T09:22:07+02:00</time>
      </trkpt>
      <trkpt lat="47.88269" lon="5.9719">
        <ele>221.60059</ele>
        <time>2026-05-17T09:22:08+02:00</time>
      </trkpt>
      <trkpt lat="47.8827" lon="5.97198">
        <ele>221.60059</ele>
        <time>2026-05-17T09:22:09+02:00</time>
      </trkpt>
      <trkpt lat="47.88271" lon="5.97207">
        <ele>221.5</ele>
        <time>2026-05-17T09:22:10+02:00</time>
      </trkpt>
      <trkpt lat="47.88273" lon="5.97216">
        <ele>221.5</ele>
        <time>2026-05-17T09:22:11+02:00</time>
      </trkpt>
      <trkpt lat="47.88275" lon="5.97226">
        <ele>221.40039</ele>
        <time>2026-05-17T09:22:12+02:00</time>
      </trkpt>
      <trkpt lat="47.88276" lon="5.97235">
        <ele>221.2998</ele>
        <time>2026-05-17T09:22:13+02:00</time>
      </trkpt>
      <trkpt lat="47.88278" lon="5.97245">
        <ele>221.10059</ele>
        <time>2026-05-17T09:22:14+02:00</time>
      </trkpt>
      <trkpt lat="47.8828" lon="5.97254">
        <ele>221</ele>
        <time>2026-05-17T09:22:15+02:00</time>
      </trkpt>
      <trkpt lat="47.88283" lon="5.97264">
        <ele>220.7998</ele>
        <time>2026-05-17T09:22:16+02:00</time>
      </trkpt>
      <trkpt lat="47.88285" lon="5.97274">
        <ele>220.60059</ele>
        <time>2026-05-17T09:22:17+02:00</time>
      </trkpt>
      <trkpt lat="47.88287" lon="5.97283">
        <ele>220.5</ele>
        <time>2026-05-17T09:22:18+02:00</time>
      </trkpt>
      <trkpt lat="47.8829" lon="5.97292">
        <ele>220.2998</ele>
        <time>2026-05-17T09:22:19+02:00</time>
      </trkpt>
      <trkpt lat="47.88293" lon="5.97302">
        <ele>220.10059</ele>
        <time>2026-05-17T09:22:20+02:00</time>
      </trkpt>
      <trkpt lat="47.88297" lon="5.97311">
        <ele>220</ele>
        <time>2026-05-17T09:22:21+02:00</time>
      </trkpt>
      <trkpt lat="47.88301" lon="5.97319">
        <ele>219.7002</ele>
        <time>2026-05-17T09:22:22+02:00</time>
      </trkpt>
      <trkpt lat="47.88305" lon="5.97327">
        <ele>219.60059</ele>
        <time>2026-05-17T09:22:23+02:00</time>
      </trkpt>
      <trkpt lat="47.8831" lon="5.97335">
        <ele>219.5</ele>
        <time>2026-05-17T09:22:24+02:00</time>
      </trkpt>
      <trkpt lat="47.88314" lon="5.97343">
        <ele>219.40039</ele>
        <time>2026-05-17T09:22:25+02:00</time>
      </trkpt>
      <trkpt lat="47.88318" lon="5.9735">
        <ele>219.2002</ele>
        <time>2026-05-17T09:22:26+02:00</time>
      </trkpt>
      <trkpt lat="47.88323" lon="5.97357">
        <ele>219.10059</ele>
        <time>2026-05-17T09:22:27+02:00</time>
      </trkpt>
      <trkpt lat="47.88328" lon="5.97364">
        <ele>219.10059</ele>
        <time>2026-05-17T09:22:28+02:00</time>
      </trkpt>
      <trkpt lat="47.88332" lon="5.97371">
        <ele>219</ele>
        <time>2026-05-17T09:22:29+02:00</time>
      </trkpt>
      <trkpt lat="47.88337" lon="5.97378">
        <ele>218.90039</ele>
        <time>2026-05-17T09:22:30+02:00</time>
      </trkpt>
      <trkpt lat="47.88342" lon="5.97384">
        <ele>218.7998</ele>
        <time>2026-05-17T09:22:31+02:00</time>
      </trkpt>
      <trkpt lat="47.88348" lon="5.97391">
        <ele>218.7002</ele>
        <time>2026-05-17T09:22:32+02:00</time>
      </trkpt>
      <trkpt lat="47.88353" lon="5.97396">
        <ele>218.7002</ele>
        <time>2026-05-17T09:22:33+02:00</time>
      </trkpt>
      <trkpt lat="47.88359" lon="5.97402">
        <ele>218.7002</ele>
        <time>2026-05-17T09:22:34+02:00</time>
      </trkpt>
      <trkpt lat="47.88365" lon="5.97408">
        <ele>218.60059</ele>
        <time>2026-05-17T09:22:35+02:00</time>
      </trkpt>
      <trkpt lat="47.88371" lon="5.97413">
        <ele>218.60059</ele>
        <time>2026-05-17T09:22:36+02:00</time>
      </trkpt>
      <trkpt lat="47.88377" lon="5.97417">
        <ele>218.5</ele>
        <time>2026-05-17T09:22:37+02:00</time>
      </trkpt>
      <trkpt lat="47.88383" lon="5.97422">
        <ele>218.5</ele>
        <time>2026-05-17T09:22:38+02:00</time>
      </trkpt>
      <trkpt lat="47.8839" lon="5.97426">
        <ele>218.5</ele>
        <time>2026-05-17T09:22:39+02:00</time>
      </trkpt>
      <trkpt lat="47.88396" lon="5.9743">
        <ele>218.5</ele>
        <time>2026-05-17T09:22:40+02:00</time>
      </trkpt>
      <trkpt lat="47.88402" lon="5.97434">
        <ele>218.5</ele>
        <time>2026-05-17T09:22:41+02:00</time>
      </trkpt>
      <trkpt lat="47.88409" lon="5.97438">
        <ele>218.5</ele>
        <time>2026-05-17T09:22:42+02:00</time>
      </trkpt>
      <trkpt lat="47.88416" lon="5.9744">
        <ele>218.5</ele>
        <time>2026-05-17T09:22:43+02:00</time>
      </trkpt>
      <trkpt lat="47.88423" lon="5.97443">
        <ele>218.5</ele>
        <time>2026-05-17T09:22:44+02:00</time>
      </trkpt>
      <trkpt lat="47.88429" lon="5.97445">
        <ele>218.60059</ele>
        <time>2026-05-17T09:22:45+02:00</time>
      </trkpt>
      <trkpt lat="47.88436" lon="5.97446">
        <ele>218.60059</ele>
        <time>2026-05-17T09:22:46+02:00</time>
      </trkpt>
      <trkpt lat="47.88443" lon="5.97448">
        <ele>218.60059</ele>
        <time>2026-05-17T09:22:47+02:00</time>
      </trkpt>
      <trkpt lat="47.8845" lon="5.97449">
        <ele>218.60059</ele>
        <time>2026-05-17T09:22:48+02:00</time>
      </trkpt>
      <trkpt lat="47.88457" lon="5.97449">
        <ele>218.7002</ele>
        <time>2026-05-17T09:22:49+02:00</time>
      </trkpt>
      <trkpt lat="47.88464" lon="5.9745">
        <ele>218.7002</ele>
        <time>2026-05-17T09:22:50+02:00</time>
      </trkpt>
      <trkpt lat="47.88471" lon="5.9745">
        <ele>218.7998</ele>
        <time>2026-05-17T09:22:51+02:00</time>
      </trkpt>
      <trkpt lat="47.88477" lon="5.97451">
        <ele>218.90039</ele>
        <time>2026-05-17T09:22:52+02:00</time>
      </trkpt>
      <trkpt lat="47.88484" lon="5.97453">
        <ele>218.90039</ele>
        <time>2026-05-17T09:22:53+02:00</time>
      </trkpt>
      <trkpt lat="47.88491" lon="5.97455">
        <ele>219</ele>
        <time>2026-05-17T09:22:54+02:00</time>
      </trkpt>
      <trkpt lat="47.88498" lon="5.97458">
        <ele>219.10059</ele>
        <time>2026-05-17T09:22:55+02:00</time>
      </trkpt>
      <trkpt lat="47.88504" lon="5.97461">
        <ele>219.2998</ele>
        <time>2026-05-17T09:22:56+02:00</time>
      </trkpt>
      <trkpt lat="47.88511" lon="5.97464">
        <ele>219.40039</ele>
        <time>2026-05-17T09:22:57+02:00</time>
      </trkpt>
      <trkpt lat="47.88517" lon="5.97468">
        <ele>219.5</ele>
        <time>2026-05-17T09:22:58+02:00</time>
      </trkpt>
      <trkpt lat="47.88524" lon="5.97471">
        <ele>219.5</ele>
        <time>2026-05-17T09:22:59+02:00</time>
      </trkpt>
      <trkpt lat="47.8853" lon="5.97474">
        <ele>219.60059</ele>
        <time>2026-05-17T09:23:00+02:00</time>
      </trkpt>
      <trkpt lat="47.88537" lon="5.97478">
        <ele>219.7002</ele>
        <time>2026-05-17T09:23:01+02:00</time>
      </trkpt>
      <trkpt lat="47.88543" lon="5.97481">
        <ele>219.7002</ele>
        <time>2026-05-17T09:23:02+02:00</time>
      </trkpt>
      <trkpt lat="47.8855" lon="5.97485">
        <ele>219.90039</ele>
        <time>2026-05-17T09:23:03+02:00</time>
      </trkpt>
      <trkpt lat="47.88556" lon="5.97488">
        <ele>219.90039</ele>
        <time>2026-05-17T09:23:04+02:00</time>
      </trkpt>
      <trkpt lat="47.88562" lon="5.97491">
        <ele>220</ele>
        <time>2026-05-17T09:23:05+02:00</time>
      </trkpt>
      <trkpt lat="47.88568" lon="5.97495">
        <ele>220.10059</ele>
        <time>2026-05-17T09:23:06+02:00</time>
      </trkpt>
      <trkpt lat="47.88574" lon="5.97498">
        <ele>220.10059</ele>
        <time>2026-05-17T09:23:07+02:00</time>
      </trkpt>
      <trkpt lat="47.8858" lon="5.97501">
        <ele>220.2002</ele>
        <time>2026-05-17T09:23:08+02:00</time>
      </trkpt>
      <trkpt lat="47.88585" lon="5.97504">
        <ele>220.2002</ele>
        <time>2026-05-17T09:23:09+02:00</time>
      </trkpt>
      <trkpt lat="47.88591" lon="5.97506">
        <ele>220.2002</ele>
        <time>2026-05-17T09:23:10+02:00</time>
      </trkpt>
      <trkpt lat="47.88596" lon="5.97509">
        <ele>220.2002</ele>
        <time>2026-05-17T09:23:11+02:00</time>
      </trkpt>
      <trkpt lat="47.88601" lon="5.97512">
        <ele>220.2998</ele>
        <time>2026-05-17T09:23:12+02:00</time>
      </trkpt>
      <trkpt lat="47.88605" lon="5.97515">
        <ele>220.2998</ele>
        <time>2026-05-17T09:23:13+02:00</time>
      </trkpt>
      <trkpt lat="47.88609" lon="5.97518">
        <ele>220.2998</ele>
        <time>2026-05-17T09:23:14+02:00</time>
      </trkpt>
      <trkpt lat="47.88612" lon="5.9752">
        <ele>220.2998</ele>
        <time>2026-05-17T09:23:15+02:00</time>
      </trkpt>
      <trkpt lat="47.88614" lon="5.97522">
        <ele>220.2998</ele>
        <time>2026-05-17T09:23:16+02:00</time>
      </trkpt>
      <trkpt lat="47.88616" lon="5.97523">
        <ele>220.2998</ele>
        <time>2026-05-17T09:23:17+02:00</time>
      </trkpt>
      <trkpt lat="47.88617" lon="5.97523">
        <ele>220.2998</ele>
        <time>2026-05-17T09:23:18+02:00</time>
      </trkpt>
      <trkpt lat="47.88617" lon="5.97523">
        <ele>220.2998</ele>
        <time>2026-05-17T09:23:19+02:00</time>
      </trkpt>
      <trkpt lat="47.88617" lon="5.97523">
        <ele>220.2998</ele>
        <time>2026-05-17T09:23:20+02:00</time>
      </trkpt>
      <trkpt lat="47.88617" lon="5.97523">
        <ele>220.2998</ele>
        <time>2026-05-17T09:23:21+02:00</time>
      </trkpt>
      <trkpt lat="47.88617" lon="5.97523">
        <ele>220.2998</ele>
        <time>2026-05-17T09:23:22+02:00</time>
      </trkpt>
      <trkpt lat="47.88617" lon="5.97523">
        <ele>220.2998</ele>
        <time>2026-05-17T09:23:23+02:00</time>
      </trkpt>
      <trkpt lat="47.88661" lon="5.97545">
        <ele>220.5</ele>
        <time>2026-05-17T09:25:34+02:00</time>
      </trkpt>
      <trkpt lat="47.88664" lon="5.97547">
        <ele>220.5</ele>
        <time>2026-05-17T09:25:35+02:00</time>
      </trkpt>
      <trkpt lat="47.88669" lon="5.9755">
        <ele>220.5</ele>
        <time>2026-05-17T09:25:36+02:00</time>
      </trkpt>
      <trkpt lat="47.88673" lon="5.97552">
        <ele>220.60059</ele>
        <time>2026-05-17T09:25:37+02:00</time>
      </trkpt>
      <trkpt lat="47.88677" lon="5.97554">
        <ele>220.7002</ele>
        <time>2026-05-17T09:25:38+02:00</time>
      </trkpt>
      <trkpt lat="47.88682" lon="5.97557">
        <ele>220.7002</ele>
        <time>2026-05-17T09:25:39+02:00</time>
      </trkpt>
      <trkpt lat="47.88687" lon="5.97559">
        <ele>220.7998</ele>
        <time>2026-05-17T09:25:40+02:00</time>
      </trkpt>
      <trkpt lat="47.88691" lon="5.97562">
        <ele>221</ele>
        <time>2026-05-17T09:25:41+02:00</time>
      </trkpt>
      <trkpt lat="47.88696" lon="5.97565">
        <ele>221.10059</ele>
        <time>2026-05-17T09:25:42+02:00</time>
      </trkpt>
      <trkpt lat="47.887" lon="5.97567">
        <ele>221.2002</ele>
        <time>2026-05-17T09:25:43+02:00</time>
      </trkpt>
      <trkpt lat="47.88705" lon="5.9757">
        <ele>221.2002</ele>
        <time>2026-05-17T09:25:44+02:00</time>
      </trkpt>
      <trkpt lat="47.8871" lon="5.97573">
        <ele>221.40039</ele>
        <time>2026-05-17T09:25:45+02:00</time>
      </trkpt>
      <trkpt lat="47.88715" lon="5.97576">
        <ele>221.5</ele>
        <time>2026-05-17T09:25:46+02:00</time>
      </trkpt>
      <trkpt lat="47.8872" lon="5.97579">
        <ele>221.7002</ele>
        <time>2026-05-17T09:25:47+02:00</time>
      </trkpt>
      <trkpt lat="47.88725" lon="5.97582">
        <ele>221.7998</ele>
        <time>2026-05-17T09:25:48+02:00</time>
      </trkpt>
      <trkpt lat="47.8873" lon="5.97585">
        <ele>221.90039</ele>
        <time>2026-05-17T09:25:49+02:00</time>
      </trkpt>
      <trkpt lat="47.88735" lon="5.97588">
        <ele>222</ele>
        <time>2026-05-17T09:25:50+02:00</time>
      </trkpt>
      <trkpt lat="47.88741" lon="5.9759">
        <ele>222.10059</ele>
        <time>2026-05-17T09:25:51+02:00</time>
      </trkpt>
      <trkpt lat="47.88746" lon="5.97592">
        <ele>222.10059</ele>
        <time>2026-05-17T09:25:52+02:00</time>
      </trkpt>
      <trkpt lat="47.88752" lon="5.97592">
        <ele>222.2002</ele>
        <time>2026-05-17T09:25:53+02:00</time>
      </trkpt>
      <trkpt lat="47.88757" lon="5.97592">
        <ele>222.2002</ele>
        <time>2026-05-17T09:25:54+02:00</time>
      </trkpt>
      <trkpt lat="47.88763" lon="5.97592">
        <ele>222.2998</ele>
        <time>2026-05-17T09:25:55+02:00</time>
      </trkpt>
      <trkpt lat="47.88769" lon="5.9759">
        <ele>222.2998</ele>
        <time>2026-05-17T09:25:56+02:00</time>
      </trkpt>
      <trkpt lat="47.88775" lon="5.97589">
        <ele>222.2998</ele>
        <time>2026-05-17T09:25:57+02:00</time>
      </trkpt>
      <trkpt lat="47.8878" lon="5.97588">
        <ele>222.2998</ele>
        <time>2026-05-17T09:25:58+02:00</time>
      </trkpt>
      <trkpt lat="47.88786" lon="5.97587">
        <ele>222.2002</ele>
        <time>2026-05-17T09:25:59+02:00</time>
      </trkpt>
      <trkpt lat="47.88791" lon="5.97585">
        <ele>222.2002</ele>
        <time>2026-05-17T09:26:00+02:00</time>
      </trkpt>
      <trkpt lat="47.88797" lon="5.97584">
        <ele>222.2002</ele>
        <time>2026-05-17T09:26:01+02:00</time>
      </trkpt>
      <trkpt lat="47.88803" lon="5.97583">
        <ele>222.2002</ele>
        <time>2026-05-17T09:26:02+02:00</time>
      </trkpt>
      <trkpt lat="47.88808" lon="5.97581">
        <ele>222.2998</ele>
        <time>2026-05-17T09:26:03+02:00</time>
      </trkpt>
      <trkpt lat="47.88813" lon="5.9758">
        <ele>222.2998</ele>
        <time>2026-05-17T09:26:04+02:00</time>
      </trkpt>
      <trkpt lat="47.88818" lon="5.97579">
        <ele>222.2998</ele>
        <time>2026-05-17T09:26:05+02:00</time>
      </trkpt>
      <trkpt lat="47.88823" lon="5.97577">
        <ele>222.2002</ele>
        <time>2026-05-17T09:26:06+02:00</time>
      </trkpt>
      <trkpt lat="47.88828" lon="5.97576">
        <ele>222.2998</ele>
        <time>2026-05-17T09:26:07+02:00</time>
      </trkpt>
      <trkpt lat="47.88833" lon="5.97574">
        <ele>222.2998</ele>
        <time>2026-05-17T09:26:08+02:00</time>
      </trkpt>
      <trkpt lat="47.88838" lon="5.97572">
        <ele>222.2998</ele>
        <time>2026-05-17T09:26:09+02:00</time>
      </trkpt>
      <trkpt lat="47.88843" lon="5.97571">
        <ele>222.2998</ele>
        <time>2026-05-17T09:26:10+02:00</time>
      </trkpt>
      <trkpt lat="47.88849" lon="5.9757">
        <ele>222.2998</ele>
        <time>2026-05-17T09:26:11+02:00</time>
      </trkpt>
      <trkpt lat="47.88854" lon="5.97569">
        <ele>222.2998</ele>
        <time>2026-05-17T09:26:12+02:00</time>
      </trkpt>
      <trkpt lat="47.88859" lon="5.97568">
        <ele>222.40039</ele>
        <time>2026-05-17T09:26:13+02:00</time>
      </trkpt>
      <trkpt lat="47.88864" lon="5.97567">
        <ele>222.5</ele>
        <time>2026-05-17T09:26:14+02:00</time>
      </trkpt>
      <trkpt lat="47.88868" lon="5.97566">
        <ele>222.5</ele>
        <time>2026-05-17T09:26:15+02:00</time>
      </trkpt>
      <trkpt lat="47.88873" lon="5.97565">
        <ele>222.60059</ele>
        <time>2026-05-17T09:26:16+02:00</time>
      </trkpt>
      <trkpt lat="47.88878" lon="5.97564">
        <ele>222.60059</ele>
        <time>2026-05-17T09:26:17+02:00</time>
      </trkpt>
      <trkpt lat="47.88883" lon="5.97563">
        <ele>222.60059</ele>
        <time>2026-05-17T09:26:18+02:00</time>
      </trkpt>
      <trkpt lat="47.88888" lon="5.97562">
        <ele>222.7002</ele>
        <time>2026-05-17T09:26:19+02:00</time>
      </trkpt>
      <trkpt lat="47.88892" lon="5.97561">
        <ele>222.60059</ele>
        <time>2026-05-17T09:26:20+02:00</time>
      </trkpt>
      <trkpt lat="47.88897" lon="5.9756">
        <ele>222.60059</ele>
        <time>2026-05-17T09:26:21+02:00</time>
      </trkpt>
      <trkpt lat="47.88902" lon="5.97559">
        <ele>222.60059</ele>
        <time>2026-05-17T09:26:22+02:00</time>
      </trkpt>
      <trkpt lat="47.88907" lon="5.97558">
        <ele>222.60059</ele>
        <time>2026-05-17T09:26:23+02:00</time>
      </trkpt>
      <trkpt lat="47.88911" lon="5.97558">
        <ele>222.60059</ele>
        <time>2026-05-17T09:26:24+02:00</time>
      </trkpt>
      <trkpt lat="47.88915" lon="5.97557">
        <ele>222.60059</ele>
        <time>2026-05-17T09:26:25+02:00</time>
      </trkpt>
      <trkpt lat="47.8892" lon="5.97556">
        <ele>222.5</ele>
        <time>2026-05-17T09:26:26+02:00</time>
      </trkpt>
      <trkpt lat="47.88925" lon="5.97555">
        <ele>222.5</ele>
        <time>2026-05-17T09:26:27+02:00</time>
      </trkpt>
      <trkpt lat="47.88929" lon="5.97554">
        <ele>222.5</ele>
        <time>2026-05-17T09:26:28+02:00</time>
      </trkpt>
      <trkpt lat="47.88933" lon="5.97554">
        <ele>222.5</ele>
        <time>2026-05-17T09:26:29+02:00</time>
      </trkpt>
      <trkpt lat="47.88938" lon="5.97557">
        <ele>222.40039</ele>
        <time>2026-05-17T09:26:30+02:00</time>
      </trkpt>
      <trkpt lat="47.88942" lon="5.9756">
        <ele>222.40039</ele>
        <time>2026-05-17T09:26:31+02:00</time>
      </trkpt>
      <trkpt lat="47.88945" lon="5.97565">
        <ele>222.60059</ele>
        <time>2026-05-17T09:26:32+02:00</time>
      </trkpt>
      <trkpt lat="47.88947" lon="5.97572">
        <ele>222.7998</ele>
        <time>2026-05-17T09:26:33+02:00</time>
      </trkpt>
      <trkpt lat="47.88949" lon="5.97579">
        <ele>222.90039</ele>
        <time>2026-05-17T09:26:34+02:00</time>
      </trkpt>
      <trkpt lat="47.88951" lon="5.97586">
        <ele>222.90039</ele>
        <time>2026-05-17T09:26:35+02:00</time>
      </trkpt>
      <trkpt lat="47.88953" lon="5.97593">
        <ele>223</ele>
        <time>2026-05-17T09:26:36+02:00</time>
      </trkpt>
      <trkpt lat="47.88955" lon="5.976">
        <ele>223.2002</ele>
        <time>2026-05-17T09:26:37+02:00</time>
      </trkpt>
      <trkpt lat="47.88957" lon="5.97608">
        <ele>223.40039</ele>
        <time>2026-05-17T09:26:38+02:00</time>
      </trkpt>
      <trkpt lat="47.88959" lon="5.97615">
        <ele>223.40039</ele>
        <time>2026-05-17T09:26:39+02:00</time>
      </trkpt>
      <trkpt lat="47.88961" lon="5.97623">
        <ele>223.60059</ele>
        <time>2026-05-17T09:26:40+02:00</time>
      </trkpt>
      <trkpt lat="47.88963" lon="5.9763">
        <ele>223.60059</ele>
        <time>2026-05-17T09:26:41+02:00</time>
      </trkpt>
      <trkpt lat="47.88964" lon="5.97637">
        <ele>223.7998</ele>
        <time>2026-05-17T09:26:42+02:00</time>
      </trkpt>
      <trkpt lat="47.88966" lon="5.97644">
        <ele>223.7998</ele>
        <time>2026-05-17T09:26:43+02:00</time>
      </trkpt>
      <trkpt lat="47.88968" lon="5.97651">
        <ele>224</ele>
        <time>2026-05-17T09:26:44+02:00</time>
      </trkpt>
      <trkpt lat="47.88969" lon="5.97658">
        <ele>224.2002</ele>
        <time>2026-05-17T09:26:45+02:00</time>
      </trkpt>
      <trkpt lat="47.8897" lon="5.97664">
        <ele>224</ele>
        <time>2026-05-17T09:26:46+02:00</time>
      </trkpt>
      <trkpt lat="47.88972" lon="5.9767">
        <ele>224.2002</ele>
        <time>2026-05-17T09:26:47+02:00</time>
      </trkpt>
      <trkpt lat="47.88973" lon="5.97675">
        <ele>224.40039</ele>
        <time>2026-05-17T09:26:48+02:00</time>
      </trkpt>
      <trkpt lat="47.88974" lon="5.97681">
        <ele>224.40039</ele>
        <time>2026-05-17T09:26:49+02:00</time>
      </trkpt>
      <trkpt lat="47.88975" lon="5.97687">
        <ele>224.5</ele>
        <time>2026-05-17T09:26:50+02:00</time>
      </trkpt>
      <trkpt lat="47.88976" lon="5.97693">
        <ele>224.40039</ele>
        <time>2026-05-17T09:26:51+02:00</time>
      </trkpt>
      <trkpt lat="47.88977" lon="5.97699">
        <ele>224.40039</ele>
        <time>2026-05-17T09:26:52+02:00</time>
      </trkpt>
      <trkpt lat="47.88978" lon="5.97706">
        <ele>224.5</ele>
        <time>2026-05-17T09:26:53+02:00</time>
      </trkpt>
      <trkpt lat="47.88979" lon="5.97712">
        <ele>224.60059</ele>
        <time>2026-05-17T09:26:54+02:00</time>
      </trkpt>
      <trkpt lat="47.8898" lon="5.97718">
        <ele>224.60059</ele>
        <time>2026-05-17T09:26:55+02:00</time>
      </trkpt>
      <trkpt lat="47.88981" lon="5.97724">
        <ele>224.60059</ele>
        <time>2026-05-17T09:26:56+02:00</time>
      </trkpt>
      <trkpt lat="47.88982" lon="5.97731">
        <ele>224.5</ele>
        <time>2026-05-17T09:26:57+02:00</time>
      </trkpt>
      <trkpt lat="47.88983" lon="5.97737">
        <ele>224.60059</ele>
        <time>2026-05-17T09:26:58+02:00</time>
      </trkpt>
      <trkpt lat="47.88984" lon="5.97743">
        <ele>224.7002</ele>
        <time>2026-05-17T09:26:59+02:00</time>
      </trkpt>
      <trkpt lat="47.88984" lon="5.9775">
        <ele>224.7002</ele>
        <time>2026-05-17T09:27:00+02:00</time>
      </trkpt>
      <trkpt lat="47.88985" lon="5.97756">
        <ele>224.90039</ele>
        <time>2026-05-17T09:27:01+02:00</time>
      </trkpt>
      <trkpt lat="47.88986" lon="5.97763">
        <ele>225</ele>
        <time>2026-05-17T09:27:02+02:00</time>
      </trkpt>
      <trkpt lat="47.88987" lon="5.97769">
        <ele>225.2002</ele>
        <time>2026-05-17T09:27:03+02:00</time>
      </trkpt>
      <trkpt lat="47.88988" lon="5.97776">
        <ele>225</ele>
        <time>2026-05-17T09:27:04+02:00</time>
      </trkpt>
      <trkpt lat="47.88988" lon="5.97782">
        <ele>225.2002</ele>
        <time>2026-05-17T09:27:05+02:00</time>
      </trkpt>
      <trkpt lat="47.88989" lon="5.97788">
        <ele>225.2998</ele>
        <time>2026-05-17T09:27:06+02:00</time>
      </trkpt>
      <trkpt lat="47.8899" lon="5.97794">
        <ele>225.5</ele>
        <time>2026-05-17T09:27:07+02:00</time>
      </trkpt>
      <trkpt lat="47.88991" lon="5.97801">
        <ele>225.5</ele>
        <time>2026-05-17T09:27:08+02:00</time>
      </trkpt>
      <trkpt lat="47.88991" lon="5.97807">
        <ele>225.7002</ele>
        <time>2026-05-17T09:27:09+02:00</time>
      </trkpt>
      <trkpt lat="47.88992" lon="5.97813">
        <ele>225.90039</ele>
        <time>2026-05-17T09:27:10+02:00</time>
      </trkpt>
      <trkpt lat="47.88993" lon="5.9782">
        <ele>226.10059</ele>
        <time>2026-05-17T09:27:11+02:00</time>
      </trkpt>
      <trkpt lat="47.88994" lon="5.97826">
        <ele>226</ele>
        <time>2026-05-17T09:27:12+02:00</time>
      </trkpt>
      <trkpt lat="47.88994" lon="5.97832">
        <ele>226.2002</ele>
        <time>2026-05-17T09:27:13+02:00</time>
      </trkpt>
      <trkpt lat="47.88994" lon="5.97839">
        <ele>226.40039</ele>
        <time>2026-05-17T09:27:14+02:00</time>
      </trkpt>
      <trkpt lat="47.88994" lon="5.97845">
        <ele>226.40039</ele>
        <time>2026-05-17T09:27:15+02:00</time>
      </trkpt>
      <trkpt lat="47.88995" lon="5.97852">
        <ele>226.7002</ele>
        <time>2026-05-17T09:27:16+02:00</time>
      </trkpt>
      <trkpt lat="47.88995" lon="5.97858">
        <ele>227</ele>
        <time>2026-05-17T09:27:17+02:00</time>
      </trkpt>
      <trkpt lat="47.88995" lon="5.97866">
        <ele>227.2998</ele>
        <time>2026-05-17T09:27:18+02:00</time>
      </trkpt>
      <trkpt lat="47.88995" lon="5.97873">
        <ele>227.60059</ele>
        <time>2026-05-17T09:27:19+02:00</time>
      </trkpt>
      <trkpt lat="47.88996" lon="5.97879">
        <ele>227.60059</ele>
        <time>2026-05-17T09:27:20+02:00</time>
      </trkpt>
      <trkpt lat="47.88996" lon="5.97886">
        <ele>228</ele>
        <time>2026-05-17T09:27:21+02:00</time>
      </trkpt>
      <trkpt lat="47.88996" lon="5.97893">
        <ele>228.2998</ele>
        <time>2026-05-17T09:27:22+02:00</time>
      </trkpt>
      <trkpt lat="47.88996" lon="5.979">
        <ele>228.7002</ele>
        <time>2026-05-17T09:27:23+02:00</time>
      </trkpt>
      <trkpt lat="47.88997" lon="5.97908">
        <ele>229</ele>
        <time>2026-05-17T09:27:24+02:00</time>
      </trkpt>
      <trkpt lat="47.88997" lon="5.97915">
        <ele>229.2998</ele>
        <time>2026-05-17T09:27:25+02:00</time>
      </trkpt>
      <trkpt lat="47.88997" lon="5.97922">
        <ele>229.2998</ele>
        <time>2026-05-17T09:27:26+02:00</time>
      </trkpt>
      <trkpt lat="47.88997" lon="5.97929">
        <ele>229.60059</ele>
        <time>2026-05-17T09:27:27+02:00</time>
      </trkpt>
      <trkpt lat="47.88997" lon="5.97937">
        <ele>229.90039</ele>
        <time>2026-05-17T09:27:28+02:00</time>
      </trkpt>
      <trkpt lat="47.88998" lon="5.97944">
        <ele>230.10059</ele>
        <time>2026-05-17T09:27:29+02:00</time>
      </trkpt>
      <trkpt lat="47.88998" lon="5.97951">
        <ele>230.2002</ele>
        <time>2026-05-17T09:27:30+02:00</time>
      </trkpt>
      <trkpt lat="47.88998" lon="5.97958">
        <ele>230.40039</ele>
        <time>2026-05-17T09:27:31+02:00</time>
      </trkpt>
      <trkpt lat="47.88998" lon="5.97965">
        <ele>230.40039</ele>
        <time>2026-05-17T09:27:32+02:00</time>
      </trkpt>
      <trkpt lat="47.88999" lon="5.97972">
        <ele>230.40039</ele>
        <time>2026-05-17T09:27:33+02:00</time>
      </trkpt>
      <trkpt lat="47.88999" lon="5.97979">
        <ele>230.5</ele>
        <time>2026-05-17T09:27:34+02:00</time>
      </trkpt>
      <trkpt lat="47.88999" lon="5.97986">
        <ele>230.7002</ele>
        <time>2026-05-17T09:27:35+02:00</time>
      </trkpt>
      <trkpt lat="47.89" lon="5.97992">
        <ele>230.90039</ele>
        <time>2026-05-17T09:27:36+02:00</time>
      </trkpt>
      <trkpt lat="47.89003" lon="5.97997">
        <ele>230.90039</ele>
        <time>2026-05-17T09:27:37+02:00</time>
      </trkpt>
      <trkpt lat="47.89005" lon="5.98001">
        <ele>230.90039</ele>
        <time>2026-05-17T09:27:38+02:00</time>
      </trkpt>
      <trkpt lat="47.89009" lon="5.98003">
        <ele>230.90039</ele>
        <time>2026-05-17T09:27:39+02:00</time>
      </trkpt>
      <trkpt lat="47.89012" lon="5.98005">
        <ele>230.60059</ele>
        <time>2026-05-17T09:27:40+02:00</time>
      </trkpt>
      <trkpt lat="47.89016" lon="5.98008">
        <ele>230.60059</ele>
        <time>2026-05-17T09:27:41+02:00</time>
      </trkpt>
      <trkpt lat="47.89019" lon="5.9801">
        <ele>230.60059</ele>
        <time>2026-05-17T09:27:42+02:00</time>
      </trkpt>
      <trkpt lat="47.89022" lon="5.98012">
        <ele>230.40039</ele>
        <time>2026-05-17T09:27:43+02:00</time>
      </trkpt>
      <trkpt lat="47.89025" lon="5.98013">
        <ele>230.40039</ele>
        <time>2026-05-17T09:27:44+02:00</time>
      </trkpt>
      <trkpt lat="47.89028" lon="5.98014">
        <ele>230.2002</ele>
        <time>2026-05-17T09:27:45+02:00</time>
      </trkpt>
      <trkpt lat="47.89031" lon="5.98014">
        <ele>230.2002</ele>
        <time>2026-05-17T09:27:46+02:00</time>
      </trkpt>
      <trkpt lat="47.89034" lon="5.98014">
        <ele>229.90039</ele>
        <time>2026-05-17T09:27:47+02:00</time>
      </trkpt>
      <trkpt lat="47.89037" lon="5.98013">
        <ele>229.90039</ele>
        <time>2026-05-17T09:27:48+02:00</time>
      </trkpt>
      <trkpt lat="47.89041" lon="5.98011">
        <ele>229.7002</ele>
        <time>2026-05-17T09:27:49+02:00</time>
      </trkpt>
      <trkpt lat="47.89044" lon="5.98009">
        <ele>229.7002</ele>
        <time>2026-05-17T09:27:50+02:00</time>
      </trkpt>
      <trkpt lat="47.89048" lon="5.98007">
        <ele>229</ele>
        <time>2026-05-17T09:27:51+02:00</time>
      </trkpt>
      <trkpt lat="47.89052" lon="5.98004">
        <ele>228.7998</ele>
        <time>2026-05-17T09:27:52+02:00</time>
      </trkpt>
      <trkpt lat="47.89057" lon="5.98002">
        <ele>228.5</ele>
        <time>2026-05-17T09:27:53+02:00</time>
      </trkpt>
      <trkpt lat="47.89061" lon="5.98">
        <ele>228.5</ele>
        <time>2026-05-17T09:27:54+02:00</time>
      </trkpt>
      <trkpt lat="47.89066" lon="5.97997">
        <ele>227.7998</ele>
        <time>2026-05-17T09:27:55+02:00</time>
      </trkpt>
      <trkpt lat="47.89071" lon="5.97996">
        <ele>227.5</ele>
        <time>2026-05-17T09:27:56+02:00</time>
      </trkpt>
      <trkpt lat="47.89077" lon="5.97996">
        <ele>227.2002</ele>
        <time>2026-05-17T09:27:57+02:00</time>
      </trkpt>
      <trkpt lat="47.89082" lon="5.98">
        <ele>227.2002</ele>
        <time>2026-05-17T09:27:58+02:00</time>
      </trkpt>
      <trkpt lat="47.89088" lon="5.98006">
        <ele>226.7002</ele>
        <time>2026-05-17T09:27:59+02:00</time>
      </trkpt>
      <trkpt lat="47.89093" lon="5.98012">
        <ele>226.60059</ele>
        <time>2026-05-17T09:28:00+02:00</time>
      </trkpt>
      <trkpt lat="47.89098" lon="5.9802">
        <ele>226.7998</ele>
        <time>2026-05-17T09:28:01+02:00</time>
      </trkpt>
      <trkpt lat="47.89103" lon="5.98028">
        <ele>226.90039</ele>
        <time>2026-05-17T09:28:02+02:00</time>
      </trkpt>
      <trkpt lat="47.8911" lon="5.98036">
        <ele>227</ele>
        <time>2026-05-17T09:28:03+02:00</time>
      </trkpt>
      <trkpt lat="47.89115" lon="5.98044">
        <ele>227.10059</ele>
        <time>2026-05-17T09:28:04+02:00</time>
      </trkpt>
      <trkpt lat="47.89119" lon="5.98053">
        <ele>227.60059</ele>
        <time>2026-05-17T09:28:05+02:00</time>
      </trkpt>
      <trkpt lat="47.89124" lon="5.9806">
        <ele>228</ele>
        <time>2026-05-17T09:28:06+02:00</time>
      </trkpt>
      <trkpt lat="47.89128" lon="5.98068">
        <ele>227.7002</ele>
        <time>2026-05-17T09:28:07+02:00</time>
      </trkpt>
      <trkpt lat="47.89132" lon="5.98074">
        <ele>227.90039</ele>
        <time>2026-05-17T09:28:08+02:00</time>
      </trkpt>
      <trkpt lat="47.89137" lon="5.98079">
        <ele>228.60059</ele>
        <time>2026-05-17T09:28:09+02:00</time>
      </trkpt>
      <trkpt lat="47.89142" lon="5.98081">
        <ele>228.2002</ele>
        <time>2026-05-17T09:28:10+02:00</time>
      </trkpt>
      <trkpt lat="47.89147" lon="5.9808">
        <ele>227.90039</ele>
        <time>2026-05-17T09:28:11+02:00</time>
      </trkpt>
      <trkpt lat="47.89152" lon="5.9808">
        <ele>227.5</ele>
        <time>2026-05-17T09:28:12+02:00</time>
      </trkpt>
      <trkpt lat="47.89156" lon="5.98081">
        <ele>227</ele>
        <time>2026-05-17T09:28:13+02:00</time>
      </trkpt>
      <trkpt lat="47.8916" lon="5.98084">
        <ele>226.5</ele>
        <time>2026-05-17T09:28:14+02:00</time>
      </trkpt>
      <trkpt lat="47.89164" lon="5.98087">
        <ele>227.2998</ele>
        <time>2026-05-17T09:28:15+02:00</time>
      </trkpt>
      <trkpt lat="47.89168" lon="5.98091">
        <ele>226.5</ele>
        <time>2026-05-17T09:28:16+02:00</time>
      </trkpt>
      <trkpt lat="47.89171" lon="5.98095">
        <ele>227.2998</ele>
        <time>2026-05-17T09:28:17+02:00</time>
      </trkpt>
      <trkpt lat="47.89174" lon="5.98099">
        <ele>226.60059</ele>
        <time>2026-05-17T09:28:18+02:00</time>
      </trkpt>
      <trkpt lat="47.89177" lon="5.98104">
        <ele>227.5</ele>
        <time>2026-05-17T09:28:19+02:00</time>
      </trkpt>
      <trkpt lat="47.89181" lon="5.98109">
        <ele>226.90039</ele>
        <time>2026-05-17T09:28:20+02:00</time>
      </trkpt>
      <trkpt lat="47.89185" lon="5.98115">
        <ele>227.10059</ele>
        <time>2026-05-17T09:28:21+02:00</time>
      </trkpt>
      <trkpt lat="47.8919" lon="5.98122">
        <ele>226.90039</ele>
        <time>2026-05-17T09:28:22+02:00</time>
      </trkpt>
      <trkpt lat="47.89196" lon="5.98129">
        <ele>226.5</ele>
        <time>2026-05-17T09:28:23+02:00</time>
      </trkpt>
      <trkpt lat="47.89201" lon="5.98136">
        <ele>225.2002</ele>
        <time>2026-05-17T09:28:24+02:00</time>
      </trkpt>
      <trkpt lat="47.89207" lon="5.98143">
        <ele>224.90039</ele>
        <time>2026-05-17T09:28:25+02:00</time>
      </trkpt>
      <trkpt lat="47.89212" lon="5.98151">
        <ele>225.5</ele>
        <time>2026-05-17T09:28:26+02:00</time>
      </trkpt>
      <trkpt lat="47.89217" lon="5.98158">
        <ele>227</ele>
        <time>2026-05-17T09:28:27+02:00</time>
      </trkpt>
      <trkpt lat="47.89222" lon="5.98166">
        <ele>228</ele>
        <time>2026-05-17T09:28:28+02:00</time>
      </trkpt>
      <trkpt lat="47.89226" lon="5.98173">
        <ele>228.7998</ele>
        <time>2026-05-17T09:28:29+02:00</time>
      </trkpt>
      <trkpt lat="47.89231" lon="5.9818">
        <ele>229.2998</ele>
        <time>2026-05-17T09:28:30+02:00</time>
      </trkpt>
      <trkpt lat="47.89236" lon="5.98187">
        <ele>228.2002</ele>
        <time>2026-05-17T09:28:31+02:00</time>
      </trkpt>
      <trkpt lat="47.89241" lon="5.98193">
        <ele>228.2002</ele>
        <time>2026-05-17T09:28:32+02:00</time>
      </trkpt>
      <trkpt lat="47.89246" lon="5.982">
        <ele>229.2998</ele>
        <time>2026-05-17T09:28:33+02:00</time>
      </trkpt>
      <trkpt lat="47.8925" lon="5.98206">
        <ele>229.7002</ele>
        <time>2026-05-17T09:28:34+02:00</time>
      </trkpt>
      <trkpt lat="47.89255" lon="5.98212">
        <ele>228.7998</ele>
        <time>2026-05-17T09:28:35+02:00</time>
      </trkpt>
      <trkpt lat="47.8926" lon="5.98218">
        <ele>229</ele>
        <time>2026-05-17T09:28:36+02:00</time>
      </trkpt>
      <trkpt lat="47.89265" lon="5.98224">
        <ele>228.90039</ele>
        <time>2026-05-17T09:28:37+02:00</time>
      </trkpt>
      <trkpt lat="47.8927" lon="5.98229">
        <ele>228.10059</ele>
        <time>2026-05-17T09:28:38+02:00</time>
      </trkpt>
      <trkpt lat="47.89275" lon="5.98235">
        <ele>229.2998</ele>
        <time>2026-05-17T09:28:39+02:00</time>
      </trkpt>
      <trkpt lat="47.8928" lon="5.9824">
        <ele>229.60059</ele>
        <time>2026-05-17T09:28:40+02:00</time>
      </trkpt>
      <trkpt lat="47.89285" lon="5.98245">
        <ele>228.40039</ele>
        <time>2026-05-17T09:28:41+02:00</time>
      </trkpt>
      <trkpt lat="47.89291" lon="5.98251">
        <ele>228</ele>
        <time>2026-05-17T09:28:42+02:00</time>
      </trkpt>
      <trkpt lat="47.89296" lon="5.98256">
        <ele>227</ele>
        <time>2026-05-17T09:28:43+02:00</time>
      </trkpt>
      <trkpt lat="47.89301" lon="5.9826">
        <ele>227</ele>
        <time>2026-05-17T09:28:44+02:00</time>
      </trkpt>
      <trkpt lat="47.89307" lon="5.98265">
        <ele>225.90039</ele>
        <time>2026-05-17T09:28:45+02:00</time>
      </trkpt>
      <trkpt lat="47.89312" lon="5.98269">
        <ele>225.40039</ele>
        <time>2026-05-17T09:28:46+02:00</time>
      </trkpt>
      <trkpt lat="47.89318" lon="5.98274">
        <ele>224.2998</ele>
        <time>2026-05-17T09:28:47+02:00</time>
      </trkpt>
      <trkpt lat="47.89323" lon="5.98278">
        <ele>223.90039</ele>
        <time>2026-05-17T09:28:48+02:00</time>
      </trkpt>
      <trkpt lat="47.89329" lon="5.98282">
        <ele>223.2002</ele>
        <time>2026-05-17T09:28:49+02:00</time>
      </trkpt>
      <trkpt lat="47.89334" lon="5.98286">
        <ele>223</ele>
        <time>2026-05-17T09:28:50+02:00</time>
      </trkpt>
      <trkpt lat="47.8934" lon="5.98289">
        <ele>222.5</ele>
        <time>2026-05-17T09:28:51+02:00</time>
      </trkpt>
      <trkpt lat="47.89345" lon="5.98293">
        <ele>222.2002</ele>
        <time>2026-05-17T09:28:52+02:00</time>
      </trkpt>
      <trkpt lat="47.89351" lon="5.98296">
        <ele>221.7998</ele>
        <time>2026-05-17T09:28:53+02:00</time>
      </trkpt>
      <trkpt lat="47.89357" lon="5.983">
        <ele>221.5</ele>
        <time>2026-05-17T09:28:54+02:00</time>
      </trkpt>
      <trkpt lat="47.89362" lon="5.98303">
        <ele>221.2998</ele>
        <time>2026-05-17T09:28:55+02:00</time>
      </trkpt>
      <trkpt lat="47.89368" lon="5.98306">
        <ele>221.2998</ele>
        <time>2026-05-17T09:28:56+02:00</time>
      </trkpt>
      <trkpt lat="47.89374" lon="5.9831">
        <ele>221.2002</ele>
        <time>2026-05-17T09:28:57+02:00</time>
      </trkpt>
      <trkpt lat="47.89379" lon="5.98313">
        <ele>221.2002</ele>
        <time>2026-05-17T09:28:58+02:00</time>
      </trkpt>
      <trkpt lat="47.89385" lon="5.98316">
        <ele>221.10059</ele>
        <time>2026-05-17T09:28:59+02:00</time>
      </trkpt>
      <trkpt lat="47.89391" lon="5.98318">
        <ele>221.10059</ele>
        <time>2026-05-17T09:29:00+02:00</time>
      </trkpt>
      <trkpt lat="47.89398" lon="5.98321">
        <ele>221</ele>
        <time>2026-05-17T09:29:01+02:00</time>
      </trkpt>
      <trkpt lat="47.89404" lon="5.98324">
        <ele>220.90039</ele>
        <time>2026-05-17T09:29:02+02:00</time>
      </trkpt>
      <trkpt lat="47.8941" lon="5.98327">
        <ele>220.90039</ele>
        <time>2026-05-17T09:29:03+02:00</time>
      </trkpt>
      <trkpt lat="47.89416" lon="5.98329">
        <ele>220.7998</ele>
        <time>2026-05-17T09:29:04+02:00</time>
      </trkpt>
      <trkpt lat="47.89423" lon="5.98331">
        <ele>220.7002</ele>
        <time>2026-05-17T09:29:05+02:00</time>
      </trkpt>
      <trkpt lat="47.89429" lon="5.98333">
        <ele>220.60059</ele>
        <time>2026-05-17T09:29:06+02:00</time>
      </trkpt>
      <trkpt lat="47.89436" lon="5.98335">
        <ele>220.7002</ele>
        <time>2026-05-17T09:29:07+02:00</time>
      </trkpt>
      <trkpt lat="47.89442" lon="5.98337">
        <ele>220.60059</ele>
        <time>2026-05-17T09:29:08+02:00</time>
      </trkpt>
      <trkpt lat="47.89448" lon="5.98339">
        <ele>220.60059</ele>
        <time>2026-05-17T09:29:09+02:00</time>
      </trkpt>
      <trkpt lat="47.89455" lon="5.98341">
        <ele>220.60059</ele>
        <time>2026-05-17T09:29:10+02:00</time>
      </trkpt>
      <trkpt lat="47.89461" lon="5.98343">
        <ele>220.7002</ele>
        <time>2026-05-17T09:29:11+02:00</time>
      </trkpt>
      <trkpt lat="47.89468" lon="5.98344">
        <ele>220.7002</ele>
        <time>2026-05-17T09:29:12+02:00</time>
      </trkpt>
      <trkpt lat="47.89474" lon="5.98345">
        <ele>220.7998</ele>
        <time>2026-05-17T09:29:13+02:00</time>
      </trkpt>
      <trkpt lat="47.8948" lon="5.98346">
        <ele>220.7998</ele>
        <time>2026-05-17T09:29:14+02:00</time>
      </trkpt>
      <trkpt lat="47.89487" lon="5.98347">
        <ele>220.7998</ele>
        <time>2026-05-17T09:29:15+02:00</time>
      </trkpt>
      <trkpt lat="47.89493" lon="5.98348">
        <ele>220.7998</ele>
        <time>2026-05-17T09:29:16+02:00</time>
      </trkpt>
      <trkpt lat="47.89499" lon="5.98348">
        <ele>220.90039</ele>
        <time>2026-05-17T09:29:17+02:00</time>
      </trkpt>
      <trkpt lat="47.89506" lon="5.98349">
        <ele>220.90039</ele>
        <time>2026-05-17T09:29:18+02:00</time>
      </trkpt>
      <trkpt lat="47.89512" lon="5.98349">
        <ele>220.90039</ele>
        <time>2026-05-17T09:29:19+02:00</time>
      </trkpt>
      <trkpt lat="47.89518" lon="5.98349">
        <ele>220.90039</ele>
        <time>2026-05-17T09:29:20+02:00</time>
      </trkpt>
      <trkpt lat="47.89525" lon="5.98348">
        <ele>220.90039</ele>
        <time>2026-05-17T09:29:21+02:00</time>
      </trkpt>
      <trkpt lat="47.89531" lon="5.98348">
        <ele>220.90039</ele>
        <time>2026-05-17T09:29:22+02:00</time>
      </trkpt>
      <trkpt lat="47.89538" lon="5.98348">
        <ele>220.90039</ele>
        <time>2026-05-17T09:29:23+02:00</time>
      </trkpt>
      <trkpt lat="47.89543" lon="5.98348">
        <ele>221</ele>
        <time>2026-05-17T09:29:24+02:00</time>
      </trkpt>
      <trkpt lat="47.8955" lon="5.98348">
        <ele>221</ele>
        <time>2026-05-17T09:29:25+02:00</time>
      </trkpt>
      <trkpt lat="47.89556" lon="5.98348">
        <ele>221</ele>
        <time>2026-05-17T09:29:26+02:00</time>
      </trkpt>
      <trkpt lat="47.89562" lon="5.98347">
        <ele>221</ele>
        <time>2026-05-17T09:29:27+02:00</time>
      </trkpt>
      <trkpt lat="47.89568" lon="5.98347">
        <ele>221</ele>
        <time>2026-05-17T09:29:28+02:00</time>
      </trkpt>
      <trkpt lat="47.89575" lon="5.98346">
        <ele>221.10059</ele>
        <time>2026-05-17T09:29:29+02:00</time>
      </trkpt>
      <trkpt lat="47.89581" lon="5.98345">
        <ele>221.2002</ele>
        <time>2026-05-17T09:29:30+02:00</time>
      </trkpt>
      <trkpt lat="47.89587" lon="5.98343">
        <ele>221.2998</ele>
        <time>2026-05-17T09:29:31+02:00</time>
      </trkpt>
      <trkpt lat="47.89593" lon="5.98341">
        <ele>221.10059</ele>
        <time>2026-05-17T09:29:32+02:00</time>
      </trkpt>
      <trkpt lat="47.896" lon="5.9834">
        <ele>221.10059</ele>
        <time>2026-05-17T09:29:33+02:00</time>
      </trkpt>
      <trkpt lat="47.89606" lon="5.98338">
        <ele>221.2002</ele>
        <time>2026-05-17T09:29:34+02:00</time>
      </trkpt>
      <trkpt lat="47.89613" lon="5.98337">
        <ele>221.2002</ele>
        <time>2026-05-17T09:29:35+02:00</time>
      </trkpt>
      <trkpt lat="47.89619" lon="5.98336">
        <ele>221.2998</ele>
        <time>2026-05-17T09:29:36+02:00</time>
      </trkpt>
      <trkpt lat="47.89625" lon="5.98335">
        <ele>221.40039</ele>
        <time>2026-05-17T09:29:37+02:00</time>
      </trkpt>
      <trkpt lat="47.89632" lon="5.98333">
        <ele>221.2002</ele>
        <time>2026-05-17T09:29:38+02:00</time>
      </trkpt>
      <trkpt lat="47.89638" lon="5.98331">
        <ele>221.2002</ele>
        <time>2026-05-17T09:29:39+02:00</time>
      </trkpt>
      <trkpt lat="47.89645" lon="5.9833">
        <ele>221.2998</ele>
        <time>2026-05-17T09:29:40+02:00</time>
      </trkpt>
      <trkpt lat="47.89651" lon="5.98329">
        <ele>221.2998</ele>
        <time>2026-05-17T09:29:41+02:00</time>
      </trkpt>
      <trkpt lat="47.89657" lon="5.98327">
        <ele>221.40039</ele>
        <time>2026-05-17T09:29:42+02:00</time>
      </trkpt>
      <trkpt lat="47.89663" lon="5.98326">
        <ele>221.40039</ele>
        <time>2026-05-17T09:29:43+02:00</time>
      </trkpt>
      <trkpt lat="47.8967" lon="5.98325">
        <ele>221.10059</ele>
        <time>2026-05-17T09:29:44+02:00</time>
      </trkpt>
      <trkpt lat="47.89676" lon="5.98324">
        <ele>221.2002</ele>
        <time>2026-05-17T09:29:45+02:00</time>
      </trkpt>
      <trkpt lat="47.89683" lon="5.98322">
        <ele>221.2002</ele>
        <time>2026-05-17T09:29:46+02:00</time>
      </trkpt>
      <trkpt lat="47.89689" lon="5.98321">
        <ele>221.2002</ele>
        <time>2026-05-17T09:29:47+02:00</time>
      </trkpt>
      <trkpt lat="47.89696" lon="5.9832">
        <ele>221.2998</ele>
        <time>2026-05-17T09:29:48+02:00</time>
      </trkpt>
      <trkpt lat="47.89703" lon="5.98319">
        <ele>221.2998</ele>
        <time>2026-05-17T09:29:49+02:00</time>
      </trkpt>
      <trkpt lat="47.89709" lon="5.98317">
        <ele>221</ele>
        <time>2026-05-17T09:29:50+02:00</time>
      </trkpt>
      <trkpt lat="47.89716" lon="5.98316">
        <ele>221</ele>
        <time>2026-05-17T09:29:51+02:00</time>
      </trkpt>
      <trkpt lat="47.89723" lon="5.98315">
        <ele>221.10059</ele>
        <time>2026-05-17T09:29:52+02:00</time>
      </trkpt>
      <trkpt lat="47.89729" lon="5.98314">
        <ele>221.10059</ele>
        <time>2026-05-17T09:29:53+02:00</time>
      </trkpt>
      <trkpt lat="47.89736" lon="5.98312">
        <ele>221</ele>
        <time>2026-05-17T09:29:54+02:00</time>
      </trkpt>
      <trkpt lat="47.89742" lon="5.98311">
        <ele>221</ele>
        <time>2026-05-17T09:29:55+02:00</time>
      </trkpt>
      <trkpt lat="47.89749" lon="5.98309">
        <ele>221</ele>
        <time>2026-05-17T09:29:56+02:00</time>
      </trkpt>
      <trkpt lat="47.89755" lon="5.98308">
        <ele>220.7002</ele>
        <time>2026-05-17T09:29:57+02:00</time>
      </trkpt>
      <trkpt lat="47.89762" lon="5.98307">
        <ele>220.7002</ele>
        <time>2026-05-17T09:29:58+02:00</time>
      </trkpt>
      <trkpt lat="47.89769" lon="5.98306">
        <ele>220.7002</ele>
        <time>2026-05-17T09:29:59+02:00</time>
      </trkpt>
      <trkpt lat="47.89775" lon="5.98306">
        <ele>220.7002</ele>
        <time>2026-05-17T09:30:00+02:00</time>
      </trkpt>
      <trkpt lat="47.89782" lon="5.98304">
        <ele>220.60059</ele>
        <time>2026-05-17T09:30:01+02:00</time>
      </trkpt>
      <trkpt lat="47.89788" lon="5.98303">
        <ele>220.5</ele>
        <time>2026-05-17T09:30:02+02:00</time>
      </trkpt>
      <trkpt lat="47.89794" lon="5.98302">
        <ele>220.5</ele>
        <time>2026-05-17T09:30:03+02:00</time>
      </trkpt>
      <trkpt lat="47.89801" lon="5.98301">
        <ele>220.5</ele>
        <time>2026-05-17T09:30:04+02:00</time>
      </trkpt>
      <trkpt lat="47.89807" lon="5.98299">
        <ele>220.2998</ele>
        <time>2026-05-17T09:30:05+02:00</time>
      </trkpt>
      <trkpt lat="47.89813" lon="5.98298">
        <ele>220.2998</ele>
        <time>2026-05-17T09:30:06+02:00</time>
      </trkpt>
      <trkpt lat="47.89819" lon="5.98297">
        <ele>220.2998</ele>
        <time>2026-05-17T09:30:07+02:00</time>
      </trkpt>
      <trkpt lat="47.89826" lon="5.98296">
        <ele>220.2998</ele>
        <time>2026-05-17T09:30:08+02:00</time>
      </trkpt>
      <trkpt lat="47.89832" lon="5.98295">
        <ele>220.2998</ele>
        <time>2026-05-17T09:30:09+02:00</time>
      </trkpt>
      <trkpt lat="47.89838" lon="5.98294">
        <ele>220.2998</ele>
        <time>2026-05-17T09:30:10+02:00</time>
      </trkpt>
      <trkpt lat="47.89844" lon="5.98293">
        <ele>220.2998</ele>
        <time>2026-05-17T09:30:11+02:00</time>
      </trkpt>
      <trkpt lat="47.8985" lon="5.98292">
        <ele>220.2998</ele>
        <time>2026-05-17T09:30:12+02:00</time>
      </trkpt>
      <trkpt lat="47.89856" lon="5.98291">
        <ele>220.2002</ele>
        <time>2026-05-17T09:30:13+02:00</time>
      </trkpt>
      <trkpt lat="47.89863" lon="5.98291">
        <ele>220.10059</ele>
        <time>2026-05-17T09:30:14+02:00</time>
      </trkpt>
      <trkpt lat="47.89869" lon="5.98291">
        <ele>220.10059</ele>
        <time>2026-05-17T09:30:15+02:00</time>
      </trkpt>
      <trkpt lat="47.89875" lon="5.98292">
        <ele>220.10059</ele>
        <time>2026-05-17T09:30:16+02:00</time>
      </trkpt>
      <trkpt lat="47.89881" lon="5.98293">
        <ele>220.10059</ele>
        <time>2026-05-17T09:30:17+02:00</time>
      </trkpt>
      <trkpt lat="47.89887" lon="5.98293">
        <ele>220</ele>
        <time>2026-05-17T09:30:18+02:00</time>
      </trkpt>
      <trkpt lat="47.89893" lon="5.98294">
        <ele>220</ele>
        <time>2026-05-17T09:30:19+02:00</time>
      </trkpt>
      <trkpt lat="47.899" lon="5.98295">
        <ele>220</ele>
        <time>2026-05-17T09:30:20+02:00</time>
      </trkpt>
      <trkpt lat="47.89906" lon="5.98296">
        <ele>220</ele>
        <time>2026-05-17T09:30:21+02:00</time>
      </trkpt>
      <trkpt lat="47.89912" lon="5.98298">
        <ele>220</ele>
        <time>2026-05-17T09:30:22+02:00</time>
      </trkpt>
      <trkpt lat="47.89918" lon="5.98299">
        <ele>220.10059</ele>
        <time>2026-05-17T09:30:23+02:00</time>
      </trkpt>
      <trkpt lat="47.89924" lon="5.98301">
        <ele>220.2002</ele>
        <time>2026-05-17T09:30:24+02:00</time>
      </trkpt>
      <trkpt lat="47.8993" lon="5.98303">
        <ele>220.2002</ele>
        <time>2026-05-17T09:30:25+02:00</time>
      </trkpt>
      <trkpt lat="47.89935" lon="5.98305">
        <ele>220.2998</ele>
        <time>2026-05-17T09:30:26+02:00</time>
      </trkpt>
      <trkpt lat="47.89942" lon="5.98307">
        <ele>220.2998</ele>
        <time>2026-05-17T09:30:27+02:00</time>
      </trkpt>
      <trkpt lat="47.89948" lon="5.98309">
        <ele>220.5</ele>
        <time>2026-05-17T09:30:28+02:00</time>
      </trkpt>
      <trkpt lat="47.89954" lon="5.98311">
        <ele>220.5</ele>
        <time>2026-05-17T09:30:29+02:00</time>
      </trkpt>
      <trkpt lat="47.8996" lon="5.98313">
        <ele>220.60059</ele>
        <time>2026-05-17T09:30:30+02:00</time>
      </trkpt>
      <trkpt lat="47.89966" lon="5.98316">
        <ele>220.7002</ele>
        <time>2026-05-17T09:30:31+02:00</time>
      </trkpt>
      <trkpt lat="47.89971" lon="5.98318">
        <ele>220.7998</ele>
        <time>2026-05-17T09:30:32+02:00</time>
      </trkpt>
      <trkpt lat="47.89977" lon="5.9832">
        <ele>220.90039</ele>
        <time>2026-05-17T09:30:33+02:00</time>
      </trkpt>
      <trkpt lat="47.89982" lon="5.98322">
        <ele>220.90039</ele>
        <time>2026-05-17T09:30:34+02:00</time>
      </trkpt>
      <trkpt lat="47.89988" lon="5.98324">
        <ele>220.90039</ele>
        <time>2026-05-17T09:30:35+02:00</time>
      </trkpt>
      <trkpt lat="47.89993" lon="5.98327">
        <ele>221</ele>
        <time>2026-05-17T09:30:36+02:00</time>
      </trkpt>
      <trkpt lat="47.89999" lon="5.98329">
        <ele>221</ele>
        <time>2026-05-17T09:30:37+02:00</time>
      </trkpt>
      <trkpt lat="47.90005" lon="5.98331">
        <ele>221</ele>
        <time>2026-05-17T09:30:38+02:00</time>
      </trkpt>
      <trkpt lat="47.90011" lon="5.98333">
        <ele>220.90039</ele>
        <time>2026-05-17T09:30:39+02:00</time>
      </trkpt>
      <trkpt lat="47.90016" lon="5.98335">
        <ele>221</ele>
        <time>2026-05-17T09:30:40+02:00</time>
      </trkpt>
      <trkpt lat="47.90022" lon="5.98337">
        <ele>221</ele>
        <time>2026-05-17T09:30:41+02:00</time>
      </trkpt>
      <trkpt lat="47.90027" lon="5.98339">
        <ele>220.90039</ele>
        <time>2026-05-17T09:30:42+02:00</time>
      </trkpt>
      <trkpt lat="47.90033" lon="5.98342">
        <ele>220.90039</ele>
        <time>2026-05-17T09:30:43+02:00</time>
      </trkpt>
      <trkpt lat="47.90039" lon="5.98344">
        <ele>220.90039</ele>
        <time>2026-05-17T09:30:44+02:00</time>
      </trkpt>
      <trkpt lat="47.90045" lon="5.98346">
        <ele>220.90039</ele>
        <time>2026-05-17T09:30:45+02:00</time>
      </trkpt>
      <trkpt lat="47.9005" lon="5.98348">
        <ele>220.7998</ele>
        <time>2026-05-17T09:30:46+02:00</time>
      </trkpt>
      <trkpt lat="47.90056" lon="5.9835">
        <ele>220.7002</ele>
        <time>2026-05-17T09:30:47+02:00</time>
      </trkpt>
      <trkpt lat="47.90062" lon="5.98353">
        <ele>220.7998</ele>
        <time>2026-05-17T09:30:48+02:00</time>
      </trkpt>
      <trkpt lat="47.90067" lon="5.98355">
        <ele>220.7002</ele>
        <time>2026-05-17T09:30:49+02:00</time>
      </trkpt>
      <trkpt lat="47.90073" lon="5.98357">
        <ele>220.60059</ele>
        <time>2026-05-17T09:30:50+02:00</time>
      </trkpt>
      <trkpt lat="47.90078" lon="5.98359">
        <ele>220.60059</ele>
        <time>2026-05-17T09:30:51+02:00</time>
      </trkpt>
      <trkpt lat="47.90084" lon="5.98362">
        <ele>220.60059</ele>
        <time>2026-05-17T09:30:52+02:00</time>
      </trkpt>
      <trkpt lat="47.9009" lon="5.98364">
        <ele>220.5</ele>
        <time>2026-05-17T09:30:53+02:00</time>
      </trkpt>
      <trkpt lat="47.90095" lon="5.98366">
        <ele>220.40039</ele>
        <time>2026-05-17T09:30:54+02:00</time>
      </trkpt>
      <trkpt lat="47.90101" lon="5.98369">
        <ele>220.5</ele>
        <time>2026-05-17T09:30:55+02:00</time>
      </trkpt>
      <trkpt lat="47.90107" lon="5.98371">
        <ele>220.40039</ele>
        <time>2026-05-17T09:30:56+02:00</time>
      </trkpt>
      <trkpt lat="47.90112" lon="5.98374">
        <ele>220.2998</ele>
        <time>2026-05-17T09:30:57+02:00</time>
      </trkpt>
      <trkpt lat="47.90118" lon="5.98376">
        <ele>220.2998</ele>
        <time>2026-05-17T09:30:58+02:00</time>
      </trkpt>
      <trkpt lat="47.90124" lon="5.98378">
        <ele>220.2998</ele>
        <time>2026-05-17T09:30:59+02:00</time>
      </trkpt>
      <trkpt lat="47.9013" lon="5.9838">
        <ele>220.2998</ele>
        <time>2026-05-17T09:31:00+02:00</time>
      </trkpt>
      <trkpt lat="47.90135" lon="5.98382">
        <ele>220.2002</ele>
        <time>2026-05-17T09:31:01+02:00</time>
      </trkpt>
      <trkpt lat="47.90141" lon="5.98385">
        <ele>220.2002</ele>
        <time>2026-05-17T09:31:02+02:00</time>
      </trkpt>
      <trkpt lat="47.90146" lon="5.98388">
        <ele>220.2998</ele>
        <time>2026-05-17T09:31:03+02:00</time>
      </trkpt>
      <trkpt lat="47.90152" lon="5.9839">
        <ele>220.2998</ele>
        <time>2026-05-17T09:31:04+02:00</time>
      </trkpt>
      <trkpt lat="47.90157" lon="5.98393">
        <ele>220.2998</ele>
        <time>2026-05-17T09:31:05+02:00</time>
      </trkpt>
      <trkpt lat="47.90162" lon="5.98396">
        <ele>220.40039</ele>
        <time>2026-05-17T09:31:06+02:00</time>
      </trkpt>
      <trkpt lat="47.90168" lon="5.98401">
        <ele>220.40039</ele>
        <time>2026-05-17T09:31:07+02:00</time>
      </trkpt>
      <trkpt lat="47.90173" lon="5.98405">
        <ele>220.60059</ele>
        <time>2026-05-17T09:31:08+02:00</time>
      </trkpt>
      <trkpt lat="47.90177" lon="5.98411">
        <ele>220.60059</ele>
        <time>2026-05-17T09:31:09+02:00</time>
      </trkpt>
      <trkpt lat="47.90182" lon="5.98416">
        <ele>220.7002</ele>
        <time>2026-05-17T09:31:10+02:00</time>
      </trkpt>
      <trkpt lat="47.90187" lon="5.98422">
        <ele>220.90039</ele>
        <time>2026-05-17T09:31:11+02:00</time>
      </trkpt>
      <trkpt lat="47.90191" lon="5.98428">
        <ele>220.90039</ele>
        <time>2026-05-17T09:31:12+02:00</time>
      </trkpt>
      <trkpt lat="47.90195" lon="5.98435">
        <ele>221</ele>
        <time>2026-05-17T09:31:13+02:00</time>
      </trkpt>
      <trkpt lat="47.90199" lon="5.98442">
        <ele>221.10059</ele>
        <time>2026-05-17T09:31:14+02:00</time>
      </trkpt>
      <trkpt lat="47.90202" lon="5.9845">
        <ele>221.2002</ele>
        <time>2026-05-17T09:31:15+02:00</time>
      </trkpt>
      <trkpt lat="47.90205" lon="5.98458">
        <ele>221.2998</ele>
        <time>2026-05-17T09:31:16+02:00</time>
      </trkpt>
      <trkpt lat="47.90208" lon="5.98466">
        <ele>221.40039</ele>
        <time>2026-05-17T09:31:17+02:00</time>
      </trkpt>
      <trkpt lat="47.9021" lon="5.98474">
        <ele>221.5</ele>
        <time>2026-05-17T09:31:18+02:00</time>
      </trkpt>
      <trkpt lat="47.90212" lon="5.98483">
        <ele>221.5</ele>
        <time>2026-05-17T09:31:19+02:00</time>
      </trkpt>
      <trkpt lat="47.90214" lon="5.98491">
        <ele>221.60059</ele>
        <time>2026-05-17T09:31:20+02:00</time>
      </trkpt>
      <trkpt lat="47.90215" lon="5.985">
        <ele>221.7002</ele>
        <time>2026-05-17T09:31:21+02:00</time>
      </trkpt>
      <trkpt lat="47.90217" lon="5.98508">
        <ele>221.7002</ele>
        <time>2026-05-17T09:31:22+02:00</time>
      </trkpt>
      <trkpt lat="47.90217" lon="5.98517">
        <ele>221.90039</ele>
        <time>2026-05-17T09:31:23+02:00</time>
      </trkpt>
      <trkpt lat="47.90218" lon="5.98525">
        <ele>222</ele>
        <time>2026-05-17T09:31:24+02:00</time>
      </trkpt>
      <trkpt lat="47.90218" lon="5.98534">
        <ele>222.10059</ele>
        <time>2026-05-17T09:31:25+02:00</time>
      </trkpt>
      <trkpt lat="47.90217" lon="5.98543">
        <ele>222.2998</ele>
        <time>2026-05-17T09:31:26+02:00</time>
      </trkpt>
      <trkpt lat="47.90217" lon="5.98551">
        <ele>222.40039</ele>
        <time>2026-05-17T09:31:27+02:00</time>
      </trkpt>
      <trkpt lat="47.90215" lon="5.9856">
        <ele>222.5</ele>
        <time>2026-05-17T09:31:28+02:00</time>
      </trkpt>
      <trkpt lat="47.90214" lon="5.98568">
        <ele>222.60059</ele>
        <time>2026-05-17T09:31:29+02:00</time>
      </trkpt>
      <trkpt lat="47.90212" lon="5.98577">
        <ele>223</ele>
        <time>2026-05-17T09:31:30+02:00</time>
      </trkpt>
      <trkpt lat="47.90211" lon="5.98585">
        <ele>223.10059</ele>
        <time>2026-05-17T09:31:31+02:00</time>
      </trkpt>
      <trkpt lat="47.90209" lon="5.98593">
        <ele>223.2002</ele>
        <time>2026-05-17T09:31:32+02:00</time>
      </trkpt>
      <trkpt lat="47.90207" lon="5.98602">
        <ele>223.60059</ele>
        <time>2026-05-17T09:31:33+02:00</time>
      </trkpt>
      <trkpt lat="47.90205" lon="5.9861">
        <ele>223.7002</ele>
        <time>2026-05-17T09:31:34+02:00</time>
      </trkpt>
      <trkpt lat="47.90203" lon="5.98618">
        <ele>223.7002</ele>
        <time>2026-05-17T09:31:35+02:00</time>
      </trkpt>
      <trkpt lat="47.90201" lon="5.98625">
        <ele>224.10059</ele>
        <time>2026-05-17T09:31:36+02:00</time>
      </trkpt>
      <trkpt lat="47.90199" lon="5.98633">
        <ele>224.2002</ele>
        <time>2026-05-17T09:31:37+02:00</time>
      </trkpt>
      <trkpt lat="47.90197" lon="5.9864">
        <ele>224.2998</ele>
        <time>2026-05-17T09:31:38+02:00</time>
      </trkpt>
      <trkpt lat="47.90196" lon="5.98647">
        <ele>224.7998</ele>
        <time>2026-05-17T09:31:39+02:00</time>
      </trkpt>
      <trkpt lat="47.90193" lon="5.98654">
        <ele>224.7002</ele>
        <time>2026-05-17T09:31:40+02:00</time>
      </trkpt>
      <trkpt lat="47.90191" lon="5.98661">
        <ele>224.60059</ele>
        <time>2026-05-17T09:31:41+02:00</time>
      </trkpt>
      <trkpt lat="47.90189" lon="5.98667">
        <ele>224.90039</ele>
        <time>2026-05-17T09:31:42+02:00</time>
      </trkpt>
      <trkpt lat="47.90187" lon="5.98674">
        <ele>224.7002</ele>
        <time>2026-05-17T09:31:43+02:00</time>
      </trkpt>
      <trkpt lat="47.90186" lon="5.9868">
        <ele>224.5</ele>
        <time>2026-05-17T09:31:44+02:00</time>
      </trkpt>
      <trkpt lat="47.90184" lon="5.98686">
        <ele>224.7998</ele>
        <time>2026-05-17T09:31:45+02:00</time>
      </trkpt>
      <trkpt lat="47.90183" lon="5.98693">
        <ele>224.60059</ele>
        <time>2026-05-17T09:31:46+02:00</time>
      </trkpt>
      <trkpt lat="47.90181" lon="5.98699">
        <ele>224.40039</ele>
        <time>2026-05-17T09:31:47+02:00</time>
      </trkpt>
      <trkpt lat="47.90179" lon="5.98706">
        <ele>224.10059</ele>
        <time>2026-05-17T09:31:48+02:00</time>
      </trkpt>
      <trkpt lat="47.90177" lon="5.98712">
        <ele>224.2002</ele>
        <time>2026-05-17T09:31:49+02:00</time>
      </trkpt>
      <trkpt lat="47.90175" lon="5.98719">
        <ele>224.2002</ele>
        <time>2026-05-17T09:31:50+02:00</time>
      </trkpt>
      <trkpt lat="47.90173" lon="5.98725">
        <ele>224.10059</ele>
        <time>2026-05-17T09:31:51+02:00</time>
      </trkpt>
      <trkpt lat="47.90172" lon="5.98732">
        <ele>224.2002</ele>
        <time>2026-05-17T09:31:52+02:00</time>
      </trkpt>
      <trkpt lat="47.90169" lon="5.98739">
        <ele>224.10059</ele>
        <time>2026-05-17T09:31:53+02:00</time>
      </trkpt>
      <trkpt lat="47.90167" lon="5.98746">
        <ele>224.40039</ele>
        <time>2026-05-17T09:31:54+02:00</time>
      </trkpt>
      <trkpt lat="47.90165" lon="5.98754">
        <ele>224.2002</ele>
        <time>2026-05-17T09:31:55+02:00</time>
      </trkpt>
      <trkpt lat="47.90163" lon="5.98761">
        <ele>224.10059</ele>
        <time>2026-05-17T09:31:56+02:00</time>
      </trkpt>
      <trkpt lat="47.90161" lon="5.98768">
        <ele>224.2002</ele>
        <time>2026-05-17T09:31:57+02:00</time>
      </trkpt>
      <trkpt lat="47.90159" lon="5.98775">
        <ele>224.10059</ele>
        <time>2026-05-17T09:31:58+02:00</time>
      </trkpt>
      <trkpt lat="47.90157" lon="5.98782">
        <ele>223.90039</ele>
        <time>2026-05-17T09:31:59+02:00</time>
      </trkpt>
      <trkpt lat="47.90155" lon="5.98789">
        <ele>224.2998</ele>
        <time>2026-05-17T09:32:00+02:00</time>
      </trkpt>
      <trkpt lat="47.90153" lon="5.98796">
        <ele>224.10059</ele>
        <time>2026-05-17T09:32:01+02:00</time>
      </trkpt>
      <trkpt lat="47.90151" lon="5.98803">
        <ele>223.90039</ele>
        <time>2026-05-17T09:32:02+02:00</time>
      </trkpt>
      <trkpt lat="47.90149" lon="5.9881">
        <ele>224</ele>
        <time>2026-05-17T09:32:03+02:00</time>
      </trkpt>
      <trkpt lat="47.90148" lon="5.98817">
        <ele>223.7002</ele>
        <time>2026-05-17T09:32:04+02:00</time>
      </trkpt>
      <trkpt lat="47.90145" lon="5.98824">
        <ele>223.60059</ele>
        <time>2026-05-17T09:32:05+02:00</time>
      </trkpt>
      <trkpt lat="47.90143" lon="5.98831">
        <ele>223.90039</ele>
        <time>2026-05-17T09:32:06+02:00</time>
      </trkpt>
      <trkpt lat="47.9014" lon="5.98838">
        <ele>223.7002</ele>
        <time>2026-05-17T09:32:07+02:00</time>
      </trkpt>
      <trkpt lat="47.90138" lon="5.98846">
        <ele>223.90039</ele>
        <time>2026-05-17T09:32:08+02:00</time>
      </trkpt>
      <trkpt lat="47.90136" lon="5.98854">
        <ele>223.7998</ele>
        <time>2026-05-17T09:32:09+02:00</time>
      </trkpt>
      <trkpt lat="47.90134" lon="5.98861">
        <ele>223.7002</ele>
        <time>2026-05-17T09:32:10+02:00</time>
      </trkpt>
      <trkpt lat="47.90132" lon="5.98869">
        <ele>223.90039</ele>
        <time>2026-05-17T09:32:11+02:00</time>
      </trkpt>
      <trkpt lat="47.90129" lon="5.98877">
        <ele>223.7998</ele>
        <time>2026-05-17T09:32:12+02:00</time>
      </trkpt>
      <trkpt lat="47.90127" lon="5.98885">
        <ele>223.7002</ele>
        <time>2026-05-17T09:32:13+02:00</time>
      </trkpt>
      <trkpt lat="47.90124" lon="5.98893">
        <ele>223.90039</ele>
        <time>2026-05-17T09:32:14+02:00</time>
      </trkpt>
      <trkpt lat="47.90122" lon="5.98901">
        <ele>223.90039</ele>
        <time>2026-05-17T09:32:15+02:00</time>
      </trkpt>
      <trkpt lat="47.90119" lon="5.98908">
        <ele>224.40039</ele>
        <time>2026-05-17T09:32:16+02:00</time>
      </trkpt>
      <trkpt lat="47.90116" lon="5.98916">
        <ele>224.2998</ele>
        <time>2026-05-17T09:32:17+02:00</time>
      </trkpt>
      <trkpt lat="47.90114" lon="5.98924">
        <ele>224.7998</ele>
        <time>2026-05-17T09:32:18+02:00</time>
      </trkpt>
      <trkpt lat="47.90112" lon="5.98932">
        <ele>224.60059</ele>
        <time>2026-05-17T09:32:19+02:00</time>
      </trkpt>
      <trkpt lat="47.9011" lon="5.9894">
        <ele>224.2998</ele>
        <time>2026-05-17T09:32:20+02:00</time>
      </trkpt>
      <trkpt lat="47.90108" lon="5.98949">
        <ele>224.5</ele>
        <time>2026-05-17T09:32:21+02:00</time>
      </trkpt>
      <trkpt lat="47.90106" lon="5.98957">
        <ele>224.2002</ele>
        <time>2026-05-17T09:32:22+02:00</time>
      </trkpt>
      <trkpt lat="47.90104" lon="5.98966">
        <ele>224.10059</ele>
        <time>2026-05-17T09:32:23+02:00</time>
      </trkpt>
      <trkpt lat="47.90101" lon="5.98974">
        <ele>224.2998</ele>
        <time>2026-05-17T09:32:24+02:00</time>
      </trkpt>
      <trkpt lat="47.90099" lon="5.98981">
        <ele>224.2002</ele>
        <time>2026-05-17T09:32:25+02:00</time>
      </trkpt>
      <trkpt lat="47.90098" lon="5.98989">
        <ele>224</ele>
        <time>2026-05-17T09:32:26+02:00</time>
      </trkpt>
      <trkpt lat="47.90095" lon="5.98997">
        <ele>224.2002</ele>
        <time>2026-05-17T09:32:27+02:00</time>
      </trkpt>
      <trkpt lat="47.90093" lon="5.99005">
        <ele>223.90039</ele>
        <time>2026-05-17T09:32:28+02:00</time>
      </trkpt>
      <trkpt lat="47.90091" lon="5.99013">
        <ele>224</ele>
        <time>2026-05-17T09:32:29+02:00</time>
      </trkpt>
      <trkpt lat="47.9009" lon="5.9902">
        <ele>224</ele>
        <time>2026-05-17T09:32:30+02:00</time>
      </trkpt>
      <trkpt lat="47.90087" lon="5.99028">
        <ele>223.7002</ele>
        <time>2026-05-17T09:32:31+02:00</time>
      </trkpt>
      <trkpt lat="47.90085" lon="5.99036">
        <ele>223.90039</ele>
        <time>2026-05-17T09:32:32+02:00</time>
      </trkpt>
      <trkpt lat="47.90083" lon="5.99044">
        <ele>223.7998</ele>
        <time>2026-05-17T09:32:33+02:00</time>
      </trkpt>
      <trkpt lat="47.90082" lon="5.99051">
        <ele>223.7002</ele>
        <time>2026-05-17T09:32:34+02:00</time>
      </trkpt>
      <trkpt lat="47.9008" lon="5.99058">
        <ele>223.90039</ele>
        <time>2026-05-17T09:32:35+02:00</time>
      </trkpt>
      <trkpt lat="47.90078" lon="5.99065">
        <ele>223.7002</ele>
        <time>2026-05-17T09:32:36+02:00</time>
      </trkpt>
      <trkpt lat="47.90075" lon="5.99072">
        <ele>224.10059</ele>
        <time>2026-05-17T09:32:37+02:00</time>
      </trkpt>
      <trkpt lat="47.90073" lon="5.99079">
        <ele>223.7998</ele>
        <time>2026-05-17T09:32:38+02:00</time>
      </trkpt>
      <trkpt lat="47.90071" lon="5.99086">
        <ele>223.5</ele>
        <time>2026-05-17T09:32:39+02:00</time>
      </trkpt>
      <trkpt lat="47.90069" lon="5.99094">
        <ele>223.60059</ele>
        <time>2026-05-17T09:32:40+02:00</time>
      </trkpt>
      <trkpt lat="47.90066" lon="5.99101">
        <ele>223.5</ele>
        <time>2026-05-17T09:32:41+02:00</time>
      </trkpt>
      <trkpt lat="47.90064" lon="5.99109">
        <ele>223.40039</ele>
        <time>2026-05-17T09:32:42+02:00</time>
      </trkpt>
      <trkpt lat="47.90061" lon="5.99117">
        <ele>223.7002</ele>
        <time>2026-05-17T09:32:43+02:00</time>
      </trkpt>
      <trkpt lat="47.90059" lon="5.99126">
        <ele>223.7002</ele>
        <time>2026-05-17T09:32:44+02:00</time>
      </trkpt>
      <trkpt lat="47.90056" lon="5.99135">
        <ele>223.90039</ele>
        <time>2026-05-17T09:32:45+02:00</time>
      </trkpt>
      <trkpt lat="47.90054" lon="5.99143">
        <ele>223.7998</ele>
        <time>2026-05-17T09:32:46+02:00</time>
      </trkpt>
      <trkpt lat="47.90051" lon="5.99152">
        <ele>224.10059</ele>
        <time>2026-05-17T09:32:47+02:00</time>
      </trkpt>
      <trkpt lat="47.9005" lon="5.99161">
        <ele>224.10059</ele>
        <time>2026-05-17T09:32:48+02:00</time>
      </trkpt>
      <trkpt lat="47.90048" lon="5.9917">
        <ele>224.10059</ele>
        <time>2026-05-17T09:32:49+02:00</time>
      </trkpt>
      <trkpt lat="47.90047" lon="5.99179">
        <ele>224.10059</ele>
        <time>2026-05-17T09:32:50+02:00</time>
      </trkpt>
      <trkpt lat="47.90046" lon="5.99188">
        <ele>224.7998</ele>
        <time>2026-05-17T09:32:51+02:00</time>
      </trkpt>
      <trkpt lat="47.90045" lon="5.99197">
        <ele>224.90039</ele>
        <time>2026-05-17T09:32:52+02:00</time>
      </trkpt>
      <trkpt lat="47.90045" lon="5.99206">
        <ele>225</ele>
        <time>2026-05-17T09:32:53+02:00</time>
      </trkpt>
      <trkpt lat="47.90046" lon="5.99216">
        <ele>225.10059</ele>
        <time>2026-05-17T09:32:54+02:00</time>
      </trkpt>
      <trkpt lat="47.90047" lon="5.99226">
        <ele>224.5</ele>
        <time>2026-05-17T09:32:55+02:00</time>
      </trkpt>
      <trkpt lat="47.90048" lon="5.99235">
        <ele>224.60059</ele>
        <time>2026-05-17T09:32:56+02:00</time>
      </trkpt>
      <trkpt lat="47.90049" lon="5.99244">
        <ele>224.7002</ele>
        <time>2026-05-17T09:32:57+02:00</time>
      </trkpt>
      <trkpt lat="47.90049" lon="5.99254">
        <ele>224.90039</ele>
        <time>2026-05-17T09:32:58+02:00</time>
      </trkpt>
      <trkpt lat="47.9005" lon="5.99263">
        <ele>225</ele>
        <time>2026-05-17T09:32:59+02:00</time>
      </trkpt>
      <trkpt lat="47.90051" lon="5.99272">
        <ele>225.2002</ele>
        <time>2026-05-17T09:33:00+02:00</time>
      </trkpt>
      <trkpt lat="47.90051" lon="5.99281">
        <ele>225.5</ele>
        <time>2026-05-17T09:33:01+02:00</time>
      </trkpt>
      <trkpt lat="47.90053" lon="5.9929">
        <ele>225.10059</ele>
        <time>2026-05-17T09:33:02+02:00</time>
      </trkpt>
      <trkpt lat="47.90053" lon="5.99298">
        <ele>225.2998</ele>
        <time>2026-05-17T09:33:03+02:00</time>
      </trkpt>
      <trkpt lat="47.90054" lon="5.99306">
        <ele>225.40039</ele>
        <time>2026-05-17T09:33:04+02:00</time>
      </trkpt>
      <trkpt lat="47.90055" lon="5.99315">
        <ele>225.40039</ele>
        <time>2026-05-17T09:33:05+02:00</time>
      </trkpt>
      <trkpt lat="47.90055" lon="5.99323">
        <ele>225.5</ele>
        <time>2026-05-17T09:33:06+02:00</time>
      </trkpt>
      <trkpt lat="47.90056" lon="5.99331">
        <ele>225.60059</ele>
        <time>2026-05-17T09:33:07+02:00</time>
      </trkpt>
      <trkpt lat="47.90056" lon="5.9934">
        <ele>225.7002</ele>
        <time>2026-05-17T09:33:08+02:00</time>
      </trkpt>
      <trkpt lat="47.90056" lon="5.99348">
        <ele>225.7998</ele>
        <time>2026-05-17T09:33:09+02:00</time>
      </trkpt>
      <trkpt lat="47.90055" lon="5.99357">
        <ele>225.7998</ele>
        <time>2026-05-17T09:33:10+02:00</time>
      </trkpt>
      <trkpt lat="47.90054" lon="5.99366">
        <ele>225.7998</ele>
        <time>2026-05-17T09:33:11+02:00</time>
      </trkpt>
      <trkpt lat="47.90054" lon="5.99374">
        <ele>225.7002</ele>
        <time>2026-05-17T09:33:12+02:00</time>
      </trkpt>
      <trkpt lat="47.90053" lon="5.99383">
        <ele>225.60059</ele>
        <time>2026-05-17T09:33:13+02:00</time>
      </trkpt>
      <trkpt lat="47.90053" lon="5.99391">
        <ele>225.5</ele>
        <time>2026-05-17T09:33:14+02:00</time>
      </trkpt>
      <trkpt lat="47.90052" lon="5.99399">
        <ele>225.5</ele>
        <time>2026-05-17T09:33:15+02:00</time>
      </trkpt>
      <trkpt lat="47.90051" lon="5.99407">
        <ele>226.40039</ele>
        <time>2026-05-17T09:33:16+02:00</time>
      </trkpt>
      <trkpt lat="47.9005" lon="5.99417">
        <ele>226.60059</ele>
        <time>2026-05-17T09:33:17+02:00</time>
      </trkpt>
      <trkpt lat="47.90049" lon="5.99426">
        <ele>226.60059</ele>
        <time>2026-05-17T09:33:18+02:00</time>
      </trkpt>
      <trkpt lat="47.90049" lon="5.99435">
        <ele>226.7002</ele>
        <time>2026-05-17T09:33:19+02:00</time>
      </trkpt>
      <trkpt lat="47.90048" lon="5.99444">
        <ele>226.90039</ele>
        <time>2026-05-17T09:33:20+02:00</time>
      </trkpt>
      <trkpt lat="47.90048" lon="5.99453">
        <ele>227</ele>
        <time>2026-05-17T09:33:21+02:00</time>
      </trkpt>
      <trkpt lat="47.90047" lon="5.99462">
        <ele>227.2002</ele>
        <time>2026-05-17T09:33:22+02:00</time>
      </trkpt>
      <trkpt lat="47.90047" lon="5.99471">
        <ele>227.2998</ele>
        <time>2026-05-17T09:33:23+02:00</time>
      </trkpt>
      <trkpt lat="47.90048" lon="5.9948">
        <ele>227.40039</ele>
        <time>2026-05-17T09:33:24+02:00</time>
      </trkpt>
      <trkpt lat="47.90048" lon="5.9949">
        <ele>227.5</ele>
        <time>2026-05-17T09:33:25+02:00</time>
      </trkpt>
      <trkpt lat="47.90048" lon="5.99499">
        <ele>227.7002</ele>
        <time>2026-05-17T09:33:26+02:00</time>
      </trkpt>
      <trkpt lat="47.90048" lon="5.99508">
        <ele>227.90039</ele>
        <time>2026-05-17T09:33:27+02:00</time>
      </trkpt>
      <trkpt lat="47.90048" lon="5.99517">
        <ele>228.10059</ele>
        <time>2026-05-17T09:33:28+02:00</time>
      </trkpt>
      <trkpt lat="47.90048" lon="5.99526">
        <ele>228.40039</ele>
        <time>2026-05-17T09:33:29+02:00</time>
      </trkpt>
      <trkpt lat="47.90048" lon="5.99535">
        <ele>228.7002</ele>
        <time>2026-05-17T09:33:30+02:00</time>
      </trkpt>
      <trkpt lat="47.90049" lon="5.99544">
        <ele>229</ele>
        <time>2026-05-17T09:33:31+02:00</time>
      </trkpt>
      <trkpt lat="47.90049" lon="5.99554">
        <ele>229.60059</ele>
        <time>2026-05-17T09:33:32+02:00</time>
      </trkpt>
      <trkpt lat="47.90049" lon="5.99563">
        <ele>229.90039</ele>
        <time>2026-05-17T09:33:33+02:00</time>
      </trkpt>
      <trkpt lat="47.9005" lon="5.99572">
        <ele>230.10059</ele>
        <time>2026-05-17T09:33:34+02:00</time>
      </trkpt>
      <trkpt lat="47.9005" lon="5.99581">
        <ele>230.40039</ele>
        <time>2026-05-17T09:33:35+02:00</time>
      </trkpt>
      <trkpt lat="47.9005" lon="5.99591">
        <ele>230.60059</ele>
        <time>2026-05-17T09:33:36+02:00</time>
      </trkpt>
      <trkpt lat="47.9005" lon="5.996">
        <ele>230.90039</ele>
        <time>2026-05-17T09:33:37+02:00</time>
      </trkpt>
      <trkpt lat="47.90051" lon="5.99609">
        <ele>231.2998</ele>
        <time>2026-05-17T09:33:38+02:00</time>
      </trkpt>
      <trkpt lat="47.90051" lon="5.99618">
        <ele>231.60059</ele>
        <time>2026-05-17T09:33:39+02:00</time>
      </trkpt>
      <trkpt lat="47.90051" lon="5.99627">
        <ele>232</ele>
        <time>2026-05-17T09:33:40+02:00</time>
      </trkpt>
      <trkpt lat="47.90052" lon="5.99636">
        <ele>230.2998</ele>
        <time>2026-05-17T09:33:41+02:00</time>
      </trkpt>
      <trkpt lat="47.90053" lon="5.99644">
        <ele>230.60059</ele>
        <time>2026-05-17T09:33:42+02:00</time>
      </trkpt>
      <trkpt lat="47.90054" lon="5.99653">
        <ele>231</ele>
        <time>2026-05-17T09:33:43+02:00</time>
      </trkpt>
      <trkpt lat="47.90055" lon="5.99661">
        <ele>231.2998</ele>
        <time>2026-05-17T09:33:44+02:00</time>
      </trkpt>
      <trkpt lat="47.90056" lon="5.9967">
        <ele>231.60059</ele>
        <time>2026-05-17T09:33:45+02:00</time>
      </trkpt>
      <trkpt lat="47.90057" lon="5.9968">
        <ele>232</ele>
        <time>2026-05-17T09:33:46+02:00</time>
      </trkpt>
      <trkpt lat="47.90059" lon="5.99689">
        <ele>230.10059</ele>
        <time>2026-05-17T09:33:47+02:00</time>
      </trkpt>
      <trkpt lat="47.9006" lon="5.99698">
        <ele>230.40039</ele>
        <time>2026-05-17T09:33:48+02:00</time>
      </trkpt>
      <trkpt lat="47.90061" lon="5.99708">
        <ele>231</ele>
        <time>2026-05-17T09:33:49+02:00</time>
      </trkpt>
      <trkpt lat="47.90062" lon="5.99717">
        <ele>231.2998</ele>
        <time>2026-05-17T09:33:50+02:00</time>
      </trkpt>
      <trkpt lat="47.90063" lon="5.99727">
        <ele>231.7002</ele>
        <time>2026-05-17T09:33:51+02:00</time>
      </trkpt>
      <trkpt lat="47.90064" lon="5.99736">
        <ele>229.90039</ele>
        <time>2026-05-17T09:33:52+02:00</time>
      </trkpt>
      <trkpt lat="47.90066" lon="5.99745">
        <ele>230.5</ele>
        <time>2026-05-17T09:33:53+02:00</time>
      </trkpt>
      <trkpt lat="47.90067" lon="5.99754">
        <ele>231.2002</ele>
        <time>2026-05-17T09:33:54+02:00</time>
      </trkpt>
      <trkpt lat="47.90068" lon="5.99763">
        <ele>231.90039</ele>
        <time>2026-05-17T09:33:55+02:00</time>
      </trkpt>
      <trkpt lat="47.90069" lon="5.99772">
        <ele>232.7002</ele>
        <time>2026-05-17T09:33:56+02:00</time>
      </trkpt>
      <trkpt lat="47.9007" lon="5.99781">
        <ele>231.7002</ele>
        <time>2026-05-17T09:33:57+02:00</time>
      </trkpt>
      <trkpt lat="47.9007" lon="5.9979">
        <ele>232.5</ele>
        <time>2026-05-17T09:33:58+02:00</time>
      </trkpt>
      <trkpt lat="47.90071" lon="5.99799">
        <ele>233.2998</ele>
        <time>2026-05-17T09:33:59+02:00</time>
      </trkpt>
      <trkpt lat="47.90072" lon="5.99808">
        <ele>234.2998</ele>
        <time>2026-05-17T09:34:00+02:00</time>
      </trkpt>
      <trkpt lat="47.90074" lon="5.99817">
        <ele>235.2998</ele>
        <time>2026-05-17T09:34:01+02:00</time>
      </trkpt>
      <trkpt lat="47.90075" lon="5.99826">
        <ele>236.2002</ele>
        <time>2026-05-17T09:34:02+02:00</time>
      </trkpt>
      <trkpt lat="47.90076" lon="5.99834">
        <ele>235</ele>
        <time>2026-05-17T09:34:03+02:00</time>
      </trkpt>
      <trkpt lat="47.90077" lon="5.99843">
        <ele>235.5</ele>
        <time>2026-05-17T09:34:04+02:00</time>
      </trkpt>
      <trkpt lat="47.90079" lon="5.99852">
        <ele>235.90039</ele>
        <time>2026-05-17T09:34:05+02:00</time>
      </trkpt>
      <trkpt lat="47.9008" lon="5.9986">
        <ele>236.2002</ele>
        <time>2026-05-17T09:34:06+02:00</time>
      </trkpt>
      <trkpt lat="47.90082" lon="5.99868">
        <ele>234</ele>
        <time>2026-05-17T09:34:07+02:00</time>
      </trkpt>
      <trkpt lat="47.90082" lon="5.99875">
        <ele>234.2998</ele>
        <time>2026-05-17T09:34:08+02:00</time>
      </trkpt>
      <trkpt lat="47.90083" lon="5.99883">
        <ele>234.7002</ele>
        <time>2026-05-17T09:34:09+02:00</time>
      </trkpt>
      <trkpt lat="47.90085" lon="5.99891">
        <ele>235.10059</ele>
        <time>2026-05-17T09:34:10+02:00</time>
      </trkpt>
      <trkpt lat="47.90086" lon="5.999">
        <ele>235.5</ele>
        <time>2026-05-17T09:34:11+02:00</time>
      </trkpt>
      <trkpt lat="47.90087" lon="5.99909">
        <ele>233.40039</ele>
        <time>2026-05-17T09:34:12+02:00</time>
      </trkpt>
      <trkpt lat="47.90089" lon="5.99917">
        <ele>234.2002</ele>
        <time>2026-05-17T09:34:13+02:00</time>
      </trkpt>
      <trkpt lat="47.90091" lon="5.99926">
        <ele>235</ele>
        <time>2026-05-17T09:34:14+02:00</time>
      </trkpt>
      <trkpt lat="47.90092" lon="5.99934">
        <ele>235.90039</ele>
        <time>2026-05-17T09:34:15+02:00</time>
      </trkpt>
      <trkpt lat="47.90093" lon="5.99942">
        <ele>234.7002</ele>
        <time>2026-05-17T09:34:16+02:00</time>
      </trkpt>
      <trkpt lat="47.90094" lon="5.9995">
        <ele>235.7998</ele>
        <time>2026-05-17T09:34:17+02:00</time>
      </trkpt>
      <trkpt lat="47.90096" lon="5.99959">
        <ele>236.90039</ele>
        <time>2026-05-17T09:34:18+02:00</time>
      </trkpt>
      <trkpt lat="47.90098" lon="5.99968">
        <ele>236.2002</ele>
        <time>2026-05-17T09:34:19+02:00</time>
      </trkpt>
      <trkpt lat="47.901" lon="5.99976">
        <ele>237.60059</ele>
        <time>2026-05-17T09:34:20+02:00</time>
      </trkpt>
      <trkpt lat="47.90102" lon="5.99984">
        <ele>238.90039</ele>
        <time>2026-05-17T09:34:21+02:00</time>
      </trkpt>
      <trkpt lat="47.90104" lon="5.99993">
        <ele>238.2002</ele>
        <time>2026-05-17T09:34:22+02:00</time>
      </trkpt>
      <trkpt lat="47.90106" lon="6.00001">
        <ele>239.10059</ele>
        <time>2026-05-17T09:34:23+02:00</time>
      </trkpt>
      <trkpt lat="47.90109" lon="6.0001">
        <ele>240</ele>
        <time>2026-05-17T09:34:24+02:00</time>
      </trkpt>
      <trkpt lat="47.90111" lon="6.00018">
        <ele>238.40039</ele>
        <time>2026-05-17T09:34:25+02:00</time>
      </trkpt>
      <trkpt lat="47.90114" lon="6.00026">
        <ele>239</ele>
        <time>2026-05-17T09:34:26+02:00</time>
      </trkpt>
      <trkpt lat="47.90117" lon="6.00035">
        <ele>238</ele>
        <time>2026-05-17T09:34:27+02:00</time>
      </trkpt>
      <trkpt lat="47.90122" lon="6.00043">
        <ele>237.5</ele>
        <time>2026-05-17T09:34:28+02:00</time>
      </trkpt>
      <trkpt lat="47.90127" lon="6.0005">
        <ele>235.90039</ele>
        <time>2026-05-17T09:34:29+02:00</time>
      </trkpt>
      <trkpt lat="47.90132" lon="6.00057">
        <ele>236.90039</ele>
        <time>2026-05-17T09:34:30+02:00</time>
      </trkpt>
      <trkpt lat="47.90137" lon="6.00063">
        <ele>235.60059</ele>
        <time>2026-05-17T09:34:31+02:00</time>
      </trkpt>
      <trkpt lat="47.90144" lon="6.00069">
        <ele>234.40039</ele>
        <time>2026-05-17T09:34:32+02:00</time>
      </trkpt>
      <trkpt lat="47.90151" lon="6.00074">
        <ele>231.5</ele>
        <time>2026-05-17T09:34:33+02:00</time>
      </trkpt>
      <trkpt lat="47.90157" lon="6.00079">
        <ele>230.7002</ele>
        <time>2026-05-17T09:34:34+02:00</time>
      </trkpt>
      <trkpt lat="47.90163" lon="6.00084">
        <ele>229.40039</ele>
        <time>2026-05-17T09:34:35+02:00</time>
      </trkpt>
      <trkpt lat="47.90169" lon="6.00088">
        <ele>228.5</ele>
        <time>2026-05-17T09:34:36+02:00</time>
      </trkpt>
      <trkpt lat="47.90175" lon="6.00093">
        <ele>227.2998</ele>
        <time>2026-05-17T09:34:37+02:00</time>
      </trkpt>
      <trkpt lat="47.90181" lon="6.00096">
        <ele>226.60059</ele>
        <time>2026-05-17T09:34:38+02:00</time>
      </trkpt>
      <trkpt lat="47.90187" lon="6.00099">
        <ele>225.7998</ele>
        <time>2026-05-17T09:34:39+02:00</time>
      </trkpt>
      <trkpt lat="47.90193" lon="6.00102">
        <ele>225</ele>
        <time>2026-05-17T09:34:40+02:00</time>
      </trkpt>
      <trkpt lat="47.90198" lon="6.00105">
        <ele>224.7002</ele>
        <time>2026-05-17T09:34:41+02:00</time>
      </trkpt>
      <trkpt lat="47.90204" lon="6.00107">
        <ele>224.2002</ele>
        <time>2026-05-17T09:34:42+02:00</time>
      </trkpt>
      <trkpt lat="47.90209" lon="6.0011">
        <ele>223.7002</ele>
        <time>2026-05-17T09:34:43+02:00</time>
      </trkpt>
      <trkpt lat="47.90214" lon="6.00112">
        <ele>223.60059</ele>
        <time>2026-05-17T09:34:44+02:00</time>
      </trkpt>
      <trkpt lat="47.90219" lon="6.00115">
        <ele>223.2998</ele>
        <time>2026-05-17T09:34:45+02:00</time>
      </trkpt>
      <trkpt lat="47.90224" lon="6.00116">
        <ele>223.2998</ele>
        <time>2026-05-17T09:34:46+02:00</time>
      </trkpt>
      <trkpt lat="47.90229" lon="6.00118">
        <ele>223.10059</ele>
        <time>2026-05-17T09:34:47+02:00</time>
      </trkpt>
      <trkpt lat="47.90233" lon="6.00119">
        <ele>222.90039</ele>
        <time>2026-05-17T09:34:48+02:00</time>
      </trkpt>
      <trkpt lat="47.90238" lon="6.0012">
        <ele>222.7998</ele>
        <time>2026-05-17T09:34:49+02:00</time>
      </trkpt>
      <trkpt lat="47.90242" lon="6.0012">
        <ele>222.7002</ele>
        <time>2026-05-17T09:34:50+02:00</time>
      </trkpt>
      <trkpt lat="47.90246" lon="6.00121">
        <ele>222.7002</ele>
        <time>2026-05-17T09:34:51+02:00</time>
      </trkpt>
      <trkpt lat="47.9025" lon="6.00122">
        <ele>222.7002</ele>
        <time>2026-05-17T09:34:52+02:00</time>
      </trkpt>
      <trkpt lat="47.90254" lon="6.00123">
        <ele>222.60059</ele>
        <time>2026-05-17T09:34:53+02:00</time>
      </trkpt>
      <trkpt lat="47.90259" lon="6.00124">
        <ele>222.60059</ele>
        <time>2026-05-17T09:34:54+02:00</time>
      </trkpt>
      <trkpt lat="47.90263" lon="6.00124">
        <ele>222.60059</ele>
        <time>2026-05-17T09:34:55+02:00</time>
      </trkpt>
      <trkpt lat="47.90268" lon="6.00125">
        <ele>222.60059</ele>
        <time>2026-05-17T09:34:56+02:00</time>
      </trkpt>
      <trkpt lat="47.90272" lon="6.00125">
        <ele>222.60059</ele>
        <time>2026-05-17T09:34:57+02:00</time>
      </trkpt>
      <trkpt lat="47.90276" lon="6.00125">
        <ele>222.60059</ele>
        <time>2026-05-17T09:34:58+02:00</time>
      </trkpt>
      <trkpt lat="47.90281" lon="6.00125">
        <ele>222.60059</ele>
        <time>2026-05-17T09:34:59+02:00</time>
      </trkpt>
      <trkpt lat="47.90285" lon="6.00125">
        <ele>222.5</ele>
        <time>2026-05-17T09:35:00+02:00</time>
      </trkpt>
      <trkpt lat="47.90289" lon="6.00124">
        <ele>222.5</ele>
        <time>2026-05-17T09:35:01+02:00</time>
      </trkpt>
      <trkpt lat="47.90293" lon="6.00123">
        <ele>222.5</ele>
        <time>2026-05-17T09:35:02+02:00</time>
      </trkpt>
      <trkpt lat="47.90297" lon="6.00123">
        <ele>222.5</ele>
        <time>2026-05-17T09:35:03+02:00</time>
      </trkpt>
      <trkpt lat="47.90302" lon="6.00122">
        <ele>222.5</ele>
        <time>2026-05-17T09:35:04+02:00</time>
      </trkpt>
      <trkpt lat="47.90306" lon="6.00121">
        <ele>222.40039</ele>
        <time>2026-05-17T09:35:05+02:00</time>
      </trkpt>
      <trkpt lat="47.9031" lon="6.0012">
        <ele>222.40039</ele>
        <time>2026-05-17T09:35:06+02:00</time>
      </trkpt>
      <trkpt lat="47.90314" lon="6.00119">
        <ele>222.40039</ele>
        <time>2026-05-17T09:35:07+02:00</time>
      </trkpt>
      <trkpt lat="47.90318" lon="6.00118">
        <ele>222.2998</ele>
        <time>2026-05-17T09:35:08+02:00</time>
      </trkpt>
      <trkpt lat="47.90323" lon="6.00116">
        <ele>222.2998</ele>
        <time>2026-05-17T09:35:09+02:00</time>
      </trkpt>
      <trkpt lat="47.90327" lon="6.00114">
        <ele>222.2998</ele>
        <time>2026-05-17T09:35:10+02:00</time>
      </trkpt>
      <trkpt lat="47.9033" lon="6.00112">
        <ele>222.2002</ele>
        <time>2026-05-17T09:35:11+02:00</time>
      </trkpt>
      <trkpt lat="47.90334" lon="6.0011">
        <ele>222.2002</ele>
        <time>2026-05-17T09:35:12+02:00</time>
      </trkpt>
      <trkpt lat="47.90338" lon="6.00109">
        <ele>222.10059</ele>
        <time>2026-05-17T09:35:13+02:00</time>
      </trkpt>
      <trkpt lat="47.90342" lon="6.00107">
        <ele>222.10059</ele>
        <time>2026-05-17T09:35:14+02:00</time>
      </trkpt>
      <trkpt lat="47.90346" lon="6.00105">
        <ele>222</ele>
        <time>2026-05-17T09:35:15+02:00</time>
      </trkpt>
      <trkpt lat="47.90349" lon="6.00103">
        <ele>222</ele>
        <time>2026-05-17T09:35:16+02:00</time>
      </trkpt>
      <trkpt lat="47.90353" lon="6.00101">
        <ele>221.90039</ele>
        <time>2026-05-17T09:35:17+02:00</time>
      </trkpt>
      <trkpt lat="47.90357" lon="6.00099">
        <ele>221.90039</ele>
        <time>2026-05-17T09:35:18+02:00</time>
      </trkpt>
      <trkpt lat="47.90361" lon="6.00097">
        <ele>221.7998</ele>
        <time>2026-05-17T09:35:19+02:00</time>
      </trkpt>
      <trkpt lat="47.90365" lon="6.00095">
        <ele>221.7002</ele>
        <time>2026-05-17T09:35:20+02:00</time>
      </trkpt>
      <trkpt lat="47.90369" lon="6.00093">
        <ele>221.60059</ele>
        <time>2026-05-17T09:35:21+02:00</time>
      </trkpt>
      <trkpt lat="47.90373" lon="6.00091">
        <ele>221.60059</ele>
        <time>2026-05-17T09:35:22+02:00</time>
      </trkpt>
      <trkpt lat="47.90377" lon="6.00089">
        <ele>221.5</ele>
        <time>2026-05-17T09:35:23+02:00</time>
      </trkpt>
      <trkpt lat="47.90381" lon="6.00086">
        <ele>221.5</ele>
        <time>2026-05-17T09:35:24+02:00</time>
      </trkpt>
      <trkpt lat="47.90384" lon="6.00084">
        <ele>221.60059</ele>
        <time>2026-05-17T09:35:25+02:00</time>
      </trkpt>
      <trkpt lat="47.90388" lon="6.00082">
        <ele>221.5</ele>
        <time>2026-05-17T09:35:26+02:00</time>
      </trkpt>
      <trkpt lat="47.90392" lon="6.0008">
        <ele>221.5</ele>
        <time>2026-05-17T09:35:27+02:00</time>
      </trkpt>
      <trkpt lat="47.90395" lon="6.00077">
        <ele>221.5</ele>
        <time>2026-05-17T09:35:28+02:00</time>
      </trkpt>
      <trkpt lat="47.90399" lon="6.00074">
        <ele>221.60059</ele>
        <time>2026-05-17T09:35:29+02:00</time>
      </trkpt>
      <trkpt lat="47.90403" lon="6.00072">
        <ele>221.60059</ele>
        <time>2026-05-17T09:35:30+02:00</time>
      </trkpt>
      <trkpt lat="47.90407" lon="6.0007">
        <ele>221.5</ele>
        <time>2026-05-17T09:35:31+02:00</time>
      </trkpt>
      <trkpt lat="47.90411" lon="6.00067">
        <ele>221.60059</ele>
        <time>2026-05-17T09:35:32+02:00</time>
      </trkpt>
      <trkpt lat="47.90415" lon="6.00065">
        <ele>221.7002</ele>
        <time>2026-05-17T09:35:33+02:00</time>
      </trkpt>
      <trkpt lat="47.90418" lon="6.00062">
        <ele>221.7002</ele>
        <time>2026-05-17T09:35:34+02:00</time>
      </trkpt>
      <trkpt lat="47.90422" lon="6.0006">
        <ele>221.7002</ele>
        <time>2026-05-17T09:35:35+02:00</time>
      </trkpt>
      <trkpt lat="47.90426" lon="6.00059">
        <ele>221.7998</ele>
        <time>2026-05-17T09:35:36+02:00</time>
      </trkpt>
      <trkpt lat="47.90429" lon="6.00057">
        <ele>221.7998</ele>
        <time>2026-05-17T09:35:37+02:00</time>
      </trkpt>
      <trkpt lat="47.90433" lon="6.00055">
        <ele>221.90039</ele>
        <time>2026-05-17T09:35:38+02:00</time>
      </trkpt>
      <trkpt lat="47.90437" lon="6.00053">
        <ele>221.90039</ele>
        <time>2026-05-17T09:35:39+02:00</time>
      </trkpt>
      <trkpt lat="47.90441" lon="6.0005">
        <ele>222</ele>
        <time>2026-05-17T09:35:40+02:00</time>
      </trkpt>
      <trkpt lat="47.90445" lon="6.00048">
        <ele>222.10059</ele>
        <time>2026-05-17T09:35:41+02:00</time>
      </trkpt>
      <trkpt lat="47.90449" lon="6.00046">
        <ele>222.2002</ele>
        <time>2026-05-17T09:35:42+02:00</time>
      </trkpt>
      <trkpt lat="47.90453" lon="6.00043">
        <ele>222.2002</ele>
        <time>2026-05-17T09:35:43+02:00</time>
      </trkpt>
      <trkpt lat="47.90458" lon="6.0004">
        <ele>222.2998</ele>
        <time>2026-05-17T09:35:44+02:00</time>
      </trkpt>
      <trkpt lat="47.90463" lon="6.00038">
        <ele>222.40039</ele>
        <time>2026-05-17T09:35:45+02:00</time>
      </trkpt>
      <trkpt lat="47.90468" lon="6.00035">
        <ele>222.40039</ele>
        <time>2026-05-17T09:35:46+02:00</time>
      </trkpt>
      <trkpt lat="47.90473" lon="6.00032">
        <ele>222.40039</ele>
        <time>2026-05-17T09:35:47+02:00</time>
      </trkpt>
      <trkpt lat="47.90477" lon="6.00029">
        <ele>222.40039</ele>
        <time>2026-05-17T09:35:48+02:00</time>
      </trkpt>
      <trkpt lat="47.90481" lon="6.00026">
        <ele>222.5</ele>
        <time>2026-05-17T09:35:49+02:00</time>
      </trkpt>
      <trkpt lat="47.90486" lon="6.00024">
        <ele>222.40039</ele>
        <time>2026-05-17T09:35:50+02:00</time>
      </trkpt>
      <trkpt lat="47.9049" lon="6.00022">
        <ele>222.40039</ele>
        <time>2026-05-17T09:35:51+02:00</time>
      </trkpt>
      <trkpt lat="47.90495" lon="6.0002">
        <ele>222.40039</ele>
        <time>2026-05-17T09:35:52+02:00</time>
      </trkpt>
      <trkpt lat="47.90499" lon="6.00018">
        <ele>222.40039</ele>
        <time>2026-05-17T09:35:53+02:00</time>
      </trkpt>
      <trkpt lat="47.90504" lon="6.00017">
        <ele>222.2998</ele>
        <time>2026-05-17T09:35:54+02:00</time>
      </trkpt>
      <trkpt lat="47.90509" lon="6.00017">
        <ele>222.2998</ele>
        <time>2026-05-17T09:35:55+02:00</time>
      </trkpt>
      <trkpt lat="47.90514" lon="6.00017">
        <ele>222.2998</ele>
        <time>2026-05-17T09:35:56+02:00</time>
      </trkpt>
      <trkpt lat="47.90519" lon="6.00017">
        <ele>222.2998</ele>
        <time>2026-05-17T09:35:57+02:00</time>
      </trkpt>
      <trkpt lat="47.90523" lon="6.00018">
        <ele>222.2998</ele>
        <time>2026-05-17T09:35:58+02:00</time>
      </trkpt>
      <trkpt lat="47.90528" lon="6.00018">
        <ele>222.2998</ele>
        <time>2026-05-17T09:35:59+02:00</time>
      </trkpt>
      <trkpt lat="47.90533" lon="6.00019">
        <ele>222.2002</ele>
        <time>2026-05-17T09:36:00+02:00</time>
      </trkpt>
      <trkpt lat="47.90538" lon="6.0002">
        <ele>222.10059</ele>
        <time>2026-05-17T09:36:01+02:00</time>
      </trkpt>
      <trkpt lat="47.90543" lon="6.00021">
        <ele>222</ele>
        <time>2026-05-17T09:36:02+02:00</time>
      </trkpt>
      <trkpt lat="47.90547" lon="6.00023">
        <ele>221.90039</ele>
        <time>2026-05-17T09:36:03+02:00</time>
      </trkpt>
      <trkpt lat="47.90552" lon="6.00024">
        <ele>221.90039</ele>
        <time>2026-05-17T09:36:04+02:00</time>
      </trkpt>
      <trkpt lat="47.90557" lon="6.00026">
        <ele>222.10059</ele>
        <time>2026-05-17T09:36:05+02:00</time>
      </trkpt>
      <trkpt lat="47.90561" lon="6.00028">
        <ele>222.10059</ele>
        <time>2026-05-17T09:36:06+02:00</time>
      </trkpt>
      <trkpt lat="47.90566" lon="6.0003">
        <ele>222.10059</ele>
        <time>2026-05-17T09:36:07+02:00</time>
      </trkpt>
      <trkpt lat="47.90571" lon="6.00032">
        <ele>222.10059</ele>
        <time>2026-05-17T09:36:08+02:00</time>
      </trkpt>
      <trkpt lat="47.90575" lon="6.00034">
        <ele>222.2998</ele>
        <time>2026-05-17T09:36:09+02:00</time>
      </trkpt>
      <trkpt lat="47.9058" lon="6.00036">
        <ele>222.2998</ele>
        <time>2026-05-17T09:36:10+02:00</time>
      </trkpt>
      <trkpt lat="47.90585" lon="6.00038">
        <ele>222.2998</ele>
        <time>2026-05-17T09:36:11+02:00</time>
      </trkpt>
      <trkpt lat="47.9059" lon="6.00039">
        <ele>222.2998</ele>
        <time>2026-05-17T09:36:12+02:00</time>
      </trkpt>
      <trkpt lat="47.90594" lon="6.00039">
        <ele>222.2998</ele>
        <time>2026-05-17T09:36:13+02:00</time>
      </trkpt>
      <trkpt lat="47.90599" lon="6.00039">
        <ele>222.2002</ele>
        <time>2026-05-17T09:36:14+02:00</time>
      </trkpt>
      <trkpt lat="47.90604" lon="6.00039">
        <ele>222.2002</ele>
        <time>2026-05-17T09:36:15+02:00</time>
      </trkpt>
      <trkpt lat="47.90609" lon="6.00038">
        <ele>222.2002</ele>
        <time>2026-05-17T09:36:16+02:00</time>
      </trkpt>
      <trkpt lat="47.90614" lon="6.00037">
        <ele>222.10059</ele>
        <time>2026-05-17T09:36:17+02:00</time>
      </trkpt>
      <trkpt lat="47.90619" lon="6.00035">
        <ele>222.10059</ele>
        <time>2026-05-17T09:36:18+02:00</time>
      </trkpt>
      <trkpt lat="47.90623" lon="6.00033">
        <ele>222.10059</ele>
        <time>2026-05-17T09:36:19+02:00</time>
      </trkpt>
      <trkpt lat="47.90628" lon="6.00031">
        <ele>222</ele>
        <time>2026-05-17T09:36:20+02:00</time>
      </trkpt>
      <trkpt lat="47.90632" lon="6.00028">
        <ele>222</ele>
        <time>2026-05-17T09:36:21+02:00</time>
      </trkpt>
      <trkpt lat="47.90637" lon="6.00025">
        <ele>222</ele>
        <time>2026-05-17T09:36:22+02:00</time>
      </trkpt>
      <trkpt lat="47.90642" lon="6.00022">
        <ele>222</ele>
        <time>2026-05-17T09:36:23+02:00</time>
      </trkpt>
      <trkpt lat="47.90646" lon="6.00019">
        <ele>221.90039</ele>
        <time>2026-05-17T09:36:24+02:00</time>
      </trkpt>
      <trkpt lat="47.9065" lon="6.00016">
        <ele>222</ele>
        <time>2026-05-17T09:36:25+02:00</time>
      </trkpt>
      <trkpt lat="47.90655" lon="6.00013">
        <ele>221.90039</ele>
        <time>2026-05-17T09:36:26+02:00</time>
      </trkpt>
      <trkpt lat="47.90659" lon="6.0001">
        <ele>221.7998</ele>
        <time>2026-05-17T09:36:27+02:00</time>
      </trkpt>
      <trkpt lat="47.90663" lon="6.00006">
        <ele>221.7998</ele>
        <time>2026-05-17T09:36:28+02:00</time>
      </trkpt>
      <trkpt lat="47.90667" lon="6.00003">
        <ele>221.7998</ele>
        <time>2026-05-17T09:36:29+02:00</time>
      </trkpt>
      <trkpt lat="47.90671" lon="5.99998">
        <ele>221.7998</ele>
        <time>2026-05-17T09:36:30+02:00</time>
      </trkpt>
      <trkpt lat="47.90674" lon="5.99994">
        <ele>221.7002</ele>
        <time>2026-05-17T09:36:31+02:00</time>
      </trkpt>
      <trkpt lat="47.90678" lon="5.99989">
        <ele>221.7998</ele>
        <time>2026-05-17T09:36:32+02:00</time>
      </trkpt>
      <trkpt lat="47.90681" lon="5.99984">
        <ele>221.7998</ele>
        <time>2026-05-17T09:36:33+02:00</time>
      </trkpt>
      <trkpt lat="47.90685" lon="5.99979">
        <ele>221.90039</ele>
        <time>2026-05-17T09:36:34+02:00</time>
      </trkpt>
      <trkpt lat="47.90688" lon="5.99974">
        <ele>221.7998</ele>
        <time>2026-05-17T09:36:35+02:00</time>
      </trkpt>
      <trkpt lat="47.90691" lon="5.99968">
        <ele>221.7998</ele>
        <time>2026-05-17T09:36:36+02:00</time>
      </trkpt>
      <trkpt lat="47.90694" lon="5.99963">
        <ele>221.90039</ele>
        <time>2026-05-17T09:36:37+02:00</time>
      </trkpt>
      <trkpt lat="47.90697" lon="5.99957">
        <ele>221.7998</ele>
        <time>2026-05-17T09:36:38+02:00</time>
      </trkpt>
      <trkpt lat="47.907" lon="5.99951">
        <ele>222</ele>
        <time>2026-05-17T09:36:39+02:00</time>
      </trkpt>
      <trkpt lat="47.90703" lon="5.99945">
        <ele>222.10059</ele>
        <time>2026-05-17T09:36:40+02:00</time>
      </trkpt>
      <trkpt lat="47.90706" lon="5.99939">
        <ele>222.5</ele>
        <time>2026-05-17T09:36:41+02:00</time>
      </trkpt>
      <trkpt lat="47.90709" lon="5.99932">
        <ele>222.5</ele>
        <time>2026-05-17T09:36:42+02:00</time>
      </trkpt>
      <trkpt lat="47.90712" lon="5.99926">
        <ele>222.90039</ele>
        <time>2026-05-17T09:36:43+02:00</time>
      </trkpt>
      <trkpt lat="47.90715" lon="5.9992">
        <ele>223.2998</ele>
        <time>2026-05-17T09:36:44+02:00</time>
      </trkpt>
      <trkpt lat="47.90718" lon="5.99915">
        <ele>223.2998</ele>
        <time>2026-05-17T09:36:45+02:00</time>
      </trkpt>
      <trkpt lat="47.90721" lon="5.99909">
        <ele>223.7002</ele>
        <time>2026-05-17T09:36:46+02:00</time>
      </trkpt>
      <trkpt lat="47.90724" lon="5.99904">
        <ele>224.10059</ele>
        <time>2026-05-17T09:36:47+02:00</time>
      </trkpt>
      <trkpt lat="47.90727" lon="5.99898">
        <ele>224.10059</ele>
        <time>2026-05-17T09:36:48+02:00</time>
      </trkpt>
      <trkpt lat="47.9073" lon="5.99893">
        <ele>224.5</ele>
        <time>2026-05-17T09:36:49+02:00</time>
      </trkpt>
      <trkpt lat="47.90733" lon="5.99888">
        <ele>224.5</ele>
        <time>2026-05-17T09:36:50+02:00</time>
      </trkpt>
      <trkpt lat="47.90737" lon="5.99882">
        <ele>225</ele>
        <time>2026-05-17T09:36:51+02:00</time>
      </trkpt>
      <trkpt lat="47.9074" lon="5.99877">
        <ele>225.2998</ele>
        <time>2026-05-17T09:36:52+02:00</time>
      </trkpt>
      <trkpt lat="47.90743" lon="5.99871">
        <ele>225.2998</ele>
        <time>2026-05-17T09:36:53+02:00</time>
      </trkpt>
      <trkpt lat="47.90746" lon="5.99865">
        <ele>225.60059</ele>
        <time>2026-05-17T09:36:54+02:00</time>
      </trkpt>
      <trkpt lat="47.90749" lon="5.9986">
        <ele>225.90039</ele>
        <time>2026-05-17T09:36:55+02:00</time>
      </trkpt>
      <trkpt lat="47.90753" lon="5.99854">
        <ele>225.90039</ele>
        <time>2026-05-17T09:36:56+02:00</time>
      </trkpt>
      <trkpt lat="47.90756" lon="5.99849">
        <ele>226.10059</ele>
        <time>2026-05-17T09:36:57+02:00</time>
      </trkpt>
      <trkpt lat="47.90759" lon="5.99843">
        <ele>226.40039</ele>
        <time>2026-05-17T09:36:58+02:00</time>
      </trkpt>
      <trkpt lat="47.90762" lon="5.99838">
        <ele>226.2998</ele>
        <time>2026-05-17T09:36:59+02:00</time>
      </trkpt>
      <trkpt lat="47.90766" lon="5.99833">
        <ele>226.5</ele>
        <time>2026-05-17T09:37:00+02:00</time>
      </trkpt>
      <trkpt lat="47.90769" lon="5.99827">
        <ele>226.7998</ele>
        <time>2026-05-17T09:37:01+02:00</time>
      </trkpt>
      <trkpt lat="47.90772" lon="5.99823">
        <ele>226.7002</ele>
        <time>2026-05-17T09:37:02+02:00</time>
      </trkpt>
      <trkpt lat="47.90775" lon="5.99818">
        <ele>227</ele>
        <time>2026-05-17T09:37:03+02:00</time>
      </trkpt>
      <trkpt lat="47.90778" lon="5.99813">
        <ele>226.90039</ele>
        <time>2026-05-17T09:37:04+02:00</time>
      </trkpt>
      <trkpt lat="47.90782" lon="5.99809">
        <ele>227.2002</ele>
        <time>2026-05-17T09:37:05+02:00</time>
      </trkpt>
      <trkpt lat="47.90785" lon="5.99804">
        <ele>227.10059</ele>
        <time>2026-05-17T09:37:06+02:00</time>
      </trkpt>
      <trkpt lat="47.90788" lon="5.99799">
        <ele>227.40039</ele>
        <time>2026-05-17T09:37:07+02:00</time>
      </trkpt>
      <trkpt lat="47.90791" lon="5.99794">
        <ele>227.2998</ele>
        <time>2026-05-17T09:37:08+02:00</time>
      </trkpt>
      <trkpt lat="47.90795" lon="5.99789">
        <ele>227.60059</ele>
        <time>2026-05-17T09:37:09+02:00</time>
      </trkpt>
      <trkpt lat="47.90799" lon="5.99784">
        <ele>227.90039</ele>
        <time>2026-05-17T09:37:10+02:00</time>
      </trkpt>
      <trkpt lat="47.90802" lon="5.99779">
        <ele>227.7998</ele>
        <time>2026-05-17T09:37:11+02:00</time>
      </trkpt>
      <trkpt lat="47.90806" lon="5.99774">
        <ele>228</ele>
        <time>2026-05-17T09:37:12+02:00</time>
      </trkpt>
      <trkpt lat="47.90809" lon="5.99769">
        <ele>228</ele>
        <time>2026-05-17T09:37:13+02:00</time>
      </trkpt>
      <trkpt lat="47.90812" lon="5.99764">
        <ele>228.2002</ele>
        <time>2026-05-17T09:37:14+02:00</time>
      </trkpt>
      <trkpt lat="47.90815" lon="5.99759">
        <ele>228.40039</ele>
        <time>2026-05-17T09:37:15+02:00</time>
      </trkpt>
      <trkpt lat="47.90819" lon="5.99754">
        <ele>228.2998</ele>
        <time>2026-05-17T09:37:16+02:00</time>
      </trkpt>
      <trkpt lat="47.90822" lon="5.99749">
        <ele>228.60059</ele>
        <time>2026-05-17T09:37:17+02:00</time>
      </trkpt>
      <trkpt lat="47.90826" lon="5.99744">
        <ele>228.5</ele>
        <time>2026-05-17T09:37:18+02:00</time>
      </trkpt>
      <trkpt lat="47.90829" lon="5.99739">
        <ele>228.60059</ele>
        <time>2026-05-17T09:37:19+02:00</time>
      </trkpt>
      <trkpt lat="47.90833" lon="5.99734">
        <ele>228.60059</ele>
        <time>2026-05-17T09:37:20+02:00</time>
      </trkpt>
      <trkpt lat="47.90836" lon="5.99728">
        <ele>228.7002</ele>
        <time>2026-05-17T09:37:21+02:00</time>
      </trkpt>
      <trkpt lat="47.9084" lon="5.99723">
        <ele>228.7998</ele>
        <time>2026-05-17T09:37:22+02:00</time>
      </trkpt>
      <trkpt lat="47.90843" lon="5.99718">
        <ele>228.7002</ele>
        <time>2026-05-17T09:37:23+02:00</time>
      </trkpt>
      <trkpt lat="47.90847" lon="5.99713">
        <ele>228.7998</ele>
        <time>2026-05-17T09:37:24+02:00</time>
      </trkpt>
      <trkpt lat="47.90851" lon="5.99708">
        <ele>228.7998</ele>
        <time>2026-05-17T09:37:25+02:00</time>
      </trkpt>
      <trkpt lat="47.90854" lon="5.99703">
        <ele>228.7998</ele>
        <time>2026-05-17T09:37:26+02:00</time>
      </trkpt>
      <trkpt lat="47.90858" lon="5.99697">
        <ele>228.90039</ele>
        <time>2026-05-17T09:37:27+02:00</time>
      </trkpt>
      <trkpt lat="47.90861" lon="5.99692">
        <ele>228.90039</ele>
        <time>2026-05-17T09:37:28+02:00</time>
      </trkpt>
      <trkpt lat="47.90865" lon="5.99686">
        <ele>229</ele>
        <time>2026-05-17T09:37:29+02:00</time>
      </trkpt>
      <trkpt lat="47.90869" lon="5.99681">
        <ele>229.10059</ele>
        <time>2026-05-17T09:37:30+02:00</time>
      </trkpt>
      <trkpt lat="47.90872" lon="5.99675">
        <ele>229.10059</ele>
        <time>2026-05-17T09:37:31+02:00</time>
      </trkpt>
      <trkpt lat="47.90876" lon="5.9967">
        <ele>229.2002</ele>
        <time>2026-05-17T09:37:32+02:00</time>
      </trkpt>
      <trkpt lat="47.9088" lon="5.99664">
        <ele>229.2998</ele>
        <time>2026-05-17T09:37:33+02:00</time>
      </trkpt>
      <trkpt lat="47.90883" lon="5.99658">
        <ele>229.2002</ele>
        <time>2026-05-17T09:37:34+02:00</time>
      </trkpt>
      <trkpt lat="47.90887" lon="5.99653">
        <ele>229.2998</ele>
        <time>2026-05-17T09:37:35+02:00</time>
      </trkpt>
      <trkpt lat="47.90891" lon="5.99647">
        <ele>229.40039</ele>
        <time>2026-05-17T09:37:36+02:00</time>
      </trkpt>
      <trkpt lat="47.90894" lon="5.99641">
        <ele>229.2998</ele>
        <time>2026-05-17T09:37:37+02:00</time>
      </trkpt>
      <trkpt lat="47.90898" lon="5.99635">
        <ele>229.2998</ele>
        <time>2026-05-17T09:37:38+02:00</time>
      </trkpt>
      <trkpt lat="47.90902" lon="5.9963">
        <ele>229.2998</ele>
        <time>2026-05-17T09:37:39+02:00</time>
      </trkpt>
      <trkpt lat="47.90906" lon="5.99624">
        <ele>229.2002</ele>
        <time>2026-05-17T09:37:40+02:00</time>
      </trkpt>
      <trkpt lat="47.90909" lon="5.99618">
        <ele>229.2002</ele>
        <time>2026-05-17T09:37:41+02:00</time>
      </trkpt>
      <trkpt lat="47.90913" lon="5.99612">
        <ele>229</ele>
        <time>2026-05-17T09:37:42+02:00</time>
      </trkpt>
      <trkpt lat="47.90917" lon="5.99607">
        <ele>228.90039</ele>
        <time>2026-05-17T09:37:43+02:00</time>
      </trkpt>
      <trkpt lat="47.90922" lon="5.99602">
        <ele>228.60059</ele>
        <time>2026-05-17T09:37:44+02:00</time>
      </trkpt>
      <trkpt lat="47.90926" lon="5.99598">
        <ele>228.60059</ele>
        <time>2026-05-17T09:37:45+02:00</time>
      </trkpt>
      <trkpt lat="47.90931" lon="5.99594">
        <ele>228.2998</ele>
        <time>2026-05-17T09:37:46+02:00</time>
      </trkpt>
      <trkpt lat="47.90936" lon="5.99591">
        <ele>227.90039</ele>
        <time>2026-05-17T09:37:47+02:00</time>
      </trkpt>
      <trkpt lat="47.90942" lon="5.99589">
        <ele>227.60059</ele>
        <time>2026-05-17T09:37:48+02:00</time>
      </trkpt>
      <trkpt lat="47.90947" lon="5.99587">
        <ele>227.2002</ele>
        <time>2026-05-17T09:37:49+02:00</time>
      </trkpt>
      <trkpt lat="47.90952" lon="5.99585">
        <ele>226.7998</ele>
        <time>2026-05-17T09:37:50+02:00</time>
      </trkpt>
      <trkpt lat="47.90957" lon="5.99584">
        <ele>226.40039</ele>
        <time>2026-05-17T09:37:51+02:00</time>
      </trkpt>
      <trkpt lat="47.90963" lon="5.99583">
        <ele>226</ele>
        <time>2026-05-17T09:37:52+02:00</time>
      </trkpt>
      <trkpt lat="47.90968" lon="5.99582">
        <ele>225.60059</ele>
        <time>2026-05-17T09:37:53+02:00</time>
      </trkpt>
      <trkpt lat="47.90973" lon="5.99581">
        <ele>225.2002</ele>
        <time>2026-05-17T09:37:54+02:00</time>
      </trkpt>
      <trkpt lat="47.90995" lon="5.99576">
        <ele>224</ele>
        <time>2026-05-17T09:37:55+02:00</time>
      </trkpt>
      <trkpt lat="47.91" lon="5.99575">
        <ele>223.7002</ele>
        <time>2026-05-17T09:37:56+02:00</time>
      </trkpt>
      <trkpt lat="47.91005" lon="5.99574">
        <ele>223.2998</ele>
        <time>2026-05-17T09:37:57+02:00</time>
      </trkpt>
      <trkpt lat="47.91011" lon="5.99572">
        <ele>222.90039</ele>
        <time>2026-05-17T09:37:58+02:00</time>
      </trkpt>
      <trkpt lat="47.91016" lon="5.9957">
        <ele>223</ele>
        <time>2026-05-17T09:37:59+02:00</time>
      </trkpt>
      <trkpt lat="47.91021" lon="5.99568">
        <ele>222.7998</ele>
        <time>2026-05-17T09:38:00+02:00</time>
      </trkpt>
      <trkpt lat="47.91027" lon="5.99565">
        <ele>222.60059</ele>
        <time>2026-05-17T09:38:01+02:00</time>
      </trkpt>
      <trkpt lat="47.91032" lon="5.99563">
        <ele>222.40039</ele>
        <time>2026-05-17T09:38:02+02:00</time>
      </trkpt>
      <trkpt lat="47.91038" lon="5.9956">
        <ele>222.60059</ele>
        <time>2026-05-17T09:38:03+02:00</time>
      </trkpt>
      <trkpt lat="47.91043" lon="5.99556">
        <ele>222.40039</ele>
        <time>2026-05-17T09:38:04+02:00</time>
      </trkpt>
      <trkpt lat="47.91048" lon="5.99553">
        <ele>222.5</ele>
        <time>2026-05-17T09:38:05+02:00</time>
      </trkpt>
      <trkpt lat="47.91053" lon="5.99549">
        <ele>222.5</ele>
        <time>2026-05-17T09:38:06+02:00</time>
      </trkpt>
      <trkpt lat="47.91058" lon="5.99545">
        <ele>222.2998</ele>
        <time>2026-05-17T09:38:07+02:00</time>
      </trkpt>
      <trkpt lat="47.91063" lon="5.9954">
        <ele>222.2998</ele>
        <time>2026-05-17T09:38:08+02:00</time>
      </trkpt>
      <trkpt lat="47.91068" lon="5.99537">
        <ele>222.2002</ele>
        <time>2026-05-17T09:38:09+02:00</time>
      </trkpt>
      <trkpt lat="47.91073" lon="5.99533">
        <ele>222.2998</ele>
        <time>2026-05-17T09:38:10+02:00</time>
      </trkpt>
      <trkpt lat="47.91078" lon="5.9953">
        <ele>222.2002</ele>
        <time>2026-05-17T09:38:11+02:00</time>
      </trkpt>
      <trkpt lat="47.91084" lon="5.99528">
        <ele>222.10059</ele>
        <time>2026-05-17T09:38:12+02:00</time>
      </trkpt>
      <trkpt lat="47.91089" lon="5.99525">
        <ele>222.2002</ele>
        <time>2026-05-17T09:38:13+02:00</time>
      </trkpt>
      <trkpt lat="47.91094" lon="5.99523">
        <ele>222.2002</ele>
        <time>2026-05-17T09:38:14+02:00</time>
      </trkpt>
      <trkpt lat="47.91099" lon="5.9952">
        <ele>222.2002</ele>
        <time>2026-05-17T09:38:15+02:00</time>
      </trkpt>
      <trkpt lat="47.91105" lon="5.99518">
        <ele>222.2002</ele>
        <time>2026-05-17T09:38:16+02:00</time>
      </trkpt>
      <trkpt lat="47.9111" lon="5.99516">
        <ele>222.2002</ele>
        <time>2026-05-17T09:38:17+02:00</time>
      </trkpt>
      <trkpt lat="47.91115" lon="5.99514">
        <ele>222.2002</ele>
        <time>2026-05-17T09:38:18+02:00</time>
      </trkpt>
      <trkpt lat="47.9112" lon="5.99512">
        <ele>222.2002</ele>
        <time>2026-05-17T09:38:19+02:00</time>
      </trkpt>
      <trkpt lat="47.91126" lon="5.9951">
        <ele>222.2002</ele>
        <time>2026-05-17T09:38:20+02:00</time>
      </trkpt>
      <trkpt lat="47.91131" lon="5.99509">
        <ele>222.2002</ele>
        <time>2026-05-17T09:38:21+02:00</time>
      </trkpt>
      <trkpt lat="47.91137" lon="5.99508">
        <ele>222.2998</ele>
        <time>2026-05-17T09:38:22+02:00</time>
      </trkpt>
      <trkpt lat="47.91142" lon="5.99507">
        <ele>222.2998</ele>
        <time>2026-05-17T09:38:23+02:00</time>
      </trkpt>
      <trkpt lat="47.91147" lon="5.99506">
        <ele>222.2998</ele>
        <time>2026-05-17T09:38:24+02:00</time>
      </trkpt>
      <trkpt lat="47.91153" lon="5.99506">
        <ele>222.2998</ele>
        <time>2026-05-17T09:38:25+02:00</time>
      </trkpt>
      <trkpt lat="47.91158" lon="5.99506">
        <ele>222.40039</ele>
        <time>2026-05-17T09:38:26+02:00</time>
      </trkpt>
      <trkpt lat="47.91163" lon="5.99507">
        <ele>222.40039</ele>
        <time>2026-05-17T09:38:27+02:00</time>
      </trkpt>
      <trkpt lat="47.91168" lon="5.99509">
        <ele>222.40039</ele>
        <time>2026-05-17T09:38:28+02:00</time>
      </trkpt>
      <trkpt lat="47.91174" lon="5.9951">
        <ele>222.40039</ele>
        <time>2026-05-17T09:38:29+02:00</time>
      </trkpt>
      <trkpt lat="47.91178" lon="5.99511">
        <ele>222.5</ele>
        <time>2026-05-17T09:38:30+02:00</time>
      </trkpt>
      <trkpt lat="47.91183" lon="5.99512">
        <ele>222.5</ele>
        <time>2026-05-17T09:38:31+02:00</time>
      </trkpt>
      <trkpt lat="47.91187" lon="5.99514">
        <ele>222.5</ele>
        <time>2026-05-17T09:38:32+02:00</time>
      </trkpt>
      <trkpt lat="47.91191" lon="5.99515">
        <ele>222.5</ele>
        <time>2026-05-17T09:38:33+02:00</time>
      </trkpt>
      <trkpt lat="47.91195" lon="5.99518">
        <ele>222.5</ele>
        <time>2026-05-17T09:38:34+02:00</time>
      </trkpt>
      <trkpt lat="47.91198" lon="5.99521">
        <ele>222.60059</ele>
        <time>2026-05-17T09:38:35+02:00</time>
      </trkpt>
      <trkpt lat="47.91202" lon="5.99525">
        <ele>222.60059</ele>
        <time>2026-05-17T09:38:36+02:00</time>
      </trkpt>
      <trkpt lat="47.91205" lon="5.99528">
        <ele>222.7002</ele>
        <time>2026-05-17T09:38:37+02:00</time>
      </trkpt>
      <trkpt lat="47.91207" lon="5.9953">
        <ele>222.7002</ele>
        <time>2026-05-17T09:38:38+02:00</time>
      </trkpt>
      <trkpt lat="47.9121" lon="5.99531">
        <ele>222.7002</ele>
        <time>2026-05-17T09:38:39+02:00</time>
      </trkpt>
      <trkpt lat="47.91212" lon="5.99531">
        <ele>222.7002</ele>
        <time>2026-05-17T09:38:40+02:00</time>
      </trkpt>
      <trkpt lat="47.91214" lon="5.9953">
        <ele>222.7002</ele>
        <time>2026-05-17T09:38:41+02:00</time>
      </trkpt>
      <trkpt lat="47.91216" lon="5.99529">
        <ele>222.7002</ele>
        <time>2026-05-17T09:38:42+02:00</time>
      </trkpt>
      <trkpt lat="47.91219" lon="5.99526">
        <ele>222.60059</ele>
        <time>2026-05-17T09:38:43+02:00</time>
      </trkpt>
      <trkpt lat="47.91222" lon="5.99523">
        <ele>222.60059</ele>
        <time>2026-05-17T09:38:44+02:00</time>
      </trkpt>
      <trkpt lat="47.91225" lon="5.9952">
        <ele>222.60059</ele>
        <time>2026-05-17T09:38:45+02:00</time>
      </trkpt>
      <trkpt lat="47.91228" lon="5.99517">
        <ele>222.5</ele>
        <time>2026-05-17T09:38:46+02:00</time>
      </trkpt>
      <trkpt lat="47.91232" lon="5.99514">
        <ele>222.5</ele>
        <time>2026-05-17T09:38:47+02:00</time>
      </trkpt>
      <trkpt lat="47.91235" lon="5.9951">
        <ele>222.40039</ele>
        <time>2026-05-17T09:38:48+02:00</time>
      </trkpt>
      <trkpt lat="47.91239" lon="5.99507">
        <ele>222.2998</ele>
        <time>2026-05-17T09:38:49+02:00</time>
      </trkpt>
      <trkpt lat="47.91242" lon="5.99506">
        <ele>222.2998</ele>
        <time>2026-05-17T09:38:50+02:00</time>
      </trkpt>
      <trkpt lat="47.91246" lon="5.99505">
        <ele>222.2998</ele>
        <time>2026-05-17T09:38:51+02:00</time>
      </trkpt>
      <trkpt lat="47.91251" lon="5.99504">
        <ele>222.2998</ele>
        <time>2026-05-17T09:38:52+02:00</time>
      </trkpt>
      <trkpt lat="47.91256" lon="5.99504">
        <ele>222.2998</ele>
        <time>2026-05-17T09:38:53+02:00</time>
      </trkpt>
      <trkpt lat="47.91261" lon="5.99503">
        <ele>222.2998</ele>
        <time>2026-05-17T09:38:54+02:00</time>
      </trkpt>
      <trkpt lat="47.91268" lon="5.99503">
        <ele>222.2998</ele>
        <time>2026-05-17T09:38:55+02:00</time>
      </trkpt>
      <trkpt lat="47.91273" lon="5.99503">
        <ele>222.2002</ele>
        <time>2026-05-17T09:38:56+02:00</time>
      </trkpt>
      <trkpt lat="47.91279" lon="5.99502">
        <ele>222.2002</ele>
        <time>2026-05-17T09:38:57+02:00</time>
      </trkpt>
      <trkpt lat="47.91285" lon="5.99502">
        <ele>222.2002</ele>
        <time>2026-05-17T09:38:58+02:00</time>
      </trkpt>
      <trkpt lat="47.9129" lon="5.99502">
        <ele>222.2002</ele>
        <time>2026-05-17T09:38:59+02:00</time>
      </trkpt>
      <trkpt lat="47.91295" lon="5.99502">
        <ele>222.2002</ele>
        <time>2026-05-17T09:39:00+02:00</time>
      </trkpt>
      <trkpt lat="47.91301" lon="5.99503">
        <ele>222.2002</ele>
        <time>2026-05-17T09:39:01+02:00</time>
      </trkpt>
      <trkpt lat="47.91306" lon="5.99503">
        <ele>222.2002</ele>
        <time>2026-05-17T09:39:02+02:00</time>
      </trkpt>
      <trkpt lat="47.91312" lon="5.99503">
        <ele>222.2002</ele>
        <time>2026-05-17T09:39:03+02:00</time>
      </trkpt>
      <trkpt lat="47.91317" lon="5.99503">
        <ele>222.2002</ele>
        <time>2026-05-17T09:39:04+02:00</time>
      </trkpt>
      <trkpt lat="47.91322" lon="5.99503">
        <ele>222.2002</ele>
        <time>2026-05-17T09:39:05+02:00</time>
      </trkpt>
      <trkpt lat="47.91328" lon="5.99502">
        <ele>222.2002</ele>
        <time>2026-05-17T09:39:06+02:00</time>
      </trkpt>
      <trkpt lat="47.91333" lon="5.99503">
        <ele>222.2002</ele>
        <time>2026-05-17T09:39:07+02:00</time>
      </trkpt>
      <trkpt lat="47.91338" lon="5.99502">
        <ele>222.2002</ele>
        <time>2026-05-17T09:39:08+02:00</time>
      </trkpt>
      <trkpt lat="47.91343" lon="5.99502">
        <ele>222.2002</ele>
        <time>2026-05-17T09:39:09+02:00</time>
      </trkpt>
      <trkpt lat="47.91348" lon="5.99503">
        <ele>222.2002</ele>
        <time>2026-05-17T09:39:10+02:00</time>
      </trkpt>
      <trkpt lat="47.91353" lon="5.99503">
        <ele>222.2002</ele>
        <time>2026-05-17T09:39:11+02:00</time>
      </trkpt>
      <trkpt lat="47.91359" lon="5.99503">
        <ele>222.2002</ele>
        <time>2026-05-17T09:39:12+02:00</time>
      </trkpt>
      <trkpt lat="47.91364" lon="5.99503">
        <ele>222.2002</ele>
        <time>2026-05-17T09:39:13+02:00</time>
      </trkpt>
      <trkpt lat="47.9137" lon="5.99503">
        <ele>222.2002</ele>
        <time>2026-05-17T09:39:14+02:00</time>
      </trkpt>
      <trkpt lat="47.91375" lon="5.99503">
        <ele>222.2002</ele>
        <time>2026-05-17T09:39:15+02:00</time>
      </trkpt>
      <trkpt lat="47.9138" lon="5.99503">
        <ele>222.2002</ele>
        <time>2026-05-17T09:39:16+02:00</time>
      </trkpt>
      <trkpt lat="47.91385" lon="5.99503">
        <ele>222.2002</ele>
        <time>2026-05-17T09:39:17+02:00</time>
      </trkpt>
      <trkpt lat="47.91391" lon="5.99503">
        <ele>222.10059</ele>
        <time>2026-05-17T09:39:18+02:00</time>
      </trkpt>
      <trkpt lat="47.91396" lon="5.99503">
        <ele>222.10059</ele>
        <time>2026-05-17T09:39:19+02:00</time>
      </trkpt>
      <trkpt lat="47.91401" lon="5.99503">
        <ele>222</ele>
        <time>2026-05-17T09:39:20+02:00</time>
      </trkpt>
      <trkpt lat="47.91406" lon="5.99503">
        <ele>221.90039</ele>
        <time>2026-05-17T09:39:21+02:00</time>
      </trkpt>
      <trkpt lat="47.91412" lon="5.99503">
        <ele>221.90039</ele>
        <time>2026-05-17T09:39:22+02:00</time>
      </trkpt>
      <trkpt lat="47.91417" lon="5.99503">
        <ele>221.7002</ele>
        <time>2026-05-17T09:39:23+02:00</time>
      </trkpt>
      <trkpt lat="47.91422" lon="5.99503">
        <ele>221.60059</ele>
        <time>2026-05-17T09:39:24+02:00</time>
      </trkpt>
      <trkpt lat="47.91428" lon="5.99503">
        <ele>221.40039</ele>
        <time>2026-05-17T09:39:25+02:00</time>
      </trkpt>
      <trkpt lat="47.91433" lon="5.99503">
        <ele>221.40039</ele>
        <time>2026-05-17T09:39:26+02:00</time>
      </trkpt>
      <trkpt lat="47.91439" lon="5.99502">
        <ele>221.2998</ele>
        <time>2026-05-17T09:39:27+02:00</time>
      </trkpt>
      <trkpt lat="47.91444" lon="5.99502">
        <ele>221.2998</ele>
        <time>2026-05-17T09:39:28+02:00</time>
      </trkpt>
      <trkpt lat="47.91449" lon="5.99502">
        <ele>221.2998</ele>
        <time>2026-05-17T09:39:29+02:00</time>
      </trkpt>
      <trkpt lat="47.91454" lon="5.99502">
        <ele>221.2998</ele>
        <time>2026-05-17T09:39:30+02:00</time>
      </trkpt>
      <trkpt lat="47.91459" lon="5.99502">
        <ele>221.2998</ele>
        <time>2026-05-17T09:39:31+02:00</time>
      </trkpt>
      <trkpt lat="47.91464" lon="5.99501">
        <ele>221.2998</ele>
        <time>2026-05-17T09:39:32+02:00</time>
      </trkpt>
      <trkpt lat="47.9147" lon="5.99501">
        <ele>221.2998</ele>
        <time>2026-05-17T09:39:33+02:00</time>
      </trkpt>
      <trkpt lat="47.91475" lon="5.99501">
        <ele>221.40039</ele>
        <time>2026-05-17T09:39:34+02:00</time>
      </trkpt>
      <trkpt lat="47.9148" lon="5.99502">
        <ele>221.60059</ele>
        <time>2026-05-17T09:39:35+02:00</time>
      </trkpt>
      <trkpt lat="47.91485" lon="5.99502">
        <ele>221.7998</ele>
        <time>2026-05-17T09:39:36+02:00</time>
      </trkpt>
      <trkpt lat="47.9149" lon="5.99502">
        <ele>221.7998</ele>
        <time>2026-05-17T09:39:37+02:00</time>
      </trkpt>
      <trkpt lat="47.91495" lon="5.99502">
        <ele>221.90039</ele>
        <time>2026-05-17T09:39:38+02:00</time>
      </trkpt>
      <trkpt lat="47.91501" lon="5.99502">
        <ele>222.10059</ele>
        <time>2026-05-17T09:39:39+02:00</time>
      </trkpt>
      <trkpt lat="47.91506" lon="5.99502">
        <ele>222.2998</ele>
        <time>2026-05-17T09:39:40+02:00</time>
      </trkpt>
      <trkpt lat="47.91511" lon="5.99502">
        <ele>222.5</ele>
        <time>2026-05-17T09:39:41+02:00</time>
      </trkpt>
      <trkpt lat="47.91516" lon="5.99502">
        <ele>222.7002</ele>
        <time>2026-05-17T09:39:42+02:00</time>
      </trkpt>
      <trkpt lat="47.91522" lon="5.99502">
        <ele>222.90039</ele>
        <time>2026-05-17T09:39:43+02:00</time>
      </trkpt>
      <trkpt lat="47.91527" lon="5.99502">
        <ele>223.10059</ele>
        <time>2026-05-17T09:39:44+02:00</time>
      </trkpt>
      <trkpt lat="47.91532" lon="5.99503">
        <ele>223.2998</ele>
        <time>2026-05-17T09:39:45+02:00</time>
      </trkpt>
      <trkpt lat="47.91538" lon="5.99504">
        <ele>223.5</ele>
        <time>2026-05-17T09:39:46+02:00</time>
      </trkpt>
      <trkpt lat="47.91543" lon="5.99504">
        <ele>223.7002</ele>
        <time>2026-05-17T09:39:47+02:00</time>
      </trkpt>
      <trkpt lat="47.91549" lon="5.99504">
        <ele>223.90039</ele>
        <time>2026-05-17T09:39:48+02:00</time>
      </trkpt>
      <trkpt lat="47.91555" lon="5.99504">
        <ele>224.10059</ele>
        <time>2026-05-17T09:39:49+02:00</time>
      </trkpt>
      <trkpt lat="47.9156" lon="5.99504">
        <ele>224.2998</ele>
        <time>2026-05-17T09:39:50+02:00</time>
      </trkpt>
      <trkpt lat="47.91566" lon="5.99504">
        <ele>224.5</ele>
        <time>2026-05-17T09:39:51+02:00</time>
      </trkpt>
      <trkpt lat="47.91572" lon="5.99504">
        <ele>224.60059</ele>
        <time>2026-05-17T09:39:52+02:00</time>
      </trkpt>
      <trkpt lat="47.91577" lon="5.99504">
        <ele>224.7998</ele>
        <time>2026-05-17T09:39:53+02:00</time>
      </trkpt>
      <trkpt lat="47.91583" lon="5.99505">
        <ele>224.90039</ele>
        <time>2026-05-17T09:39:54+02:00</time>
      </trkpt>
      <trkpt lat="47.91588" lon="5.99505">
        <ele>224.90039</ele>
        <time>2026-05-17T09:39:55+02:00</time>
      </trkpt>
      <trkpt lat="47.91594" lon="5.99506">
        <ele>225</ele>
        <time>2026-05-17T09:39:56+02:00</time>
      </trkpt>
      <trkpt lat="47.91599" lon="5.99506">
        <ele>225.10059</ele>
        <time>2026-05-17T09:39:57+02:00</time>
      </trkpt>
      <trkpt lat="47.91605" lon="5.99507">
        <ele>225.2002</ele>
        <time>2026-05-17T09:39:58+02:00</time>
      </trkpt>
      <trkpt lat="47.91611" lon="5.99508">
        <ele>225.2002</ele>
        <time>2026-05-17T09:39:59+02:00</time>
      </trkpt>
      <trkpt lat="47.91617" lon="5.99509">
        <ele>225.2002</ele>
        <time>2026-05-17T09:40:00+02:00</time>
      </trkpt>
      <trkpt lat="47.91622" lon="5.9951">
        <ele>225.10059</ele>
        <time>2026-05-17T09:40:01+02:00</time>
      </trkpt>
      <trkpt lat="47.91628" lon="5.99511">
        <ele>225</ele>
        <time>2026-05-17T09:40:02+02:00</time>
      </trkpt>
      <trkpt lat="47.91633" lon="5.99512">
        <ele>224.90039</ele>
        <time>2026-05-17T09:40:03+02:00</time>
      </trkpt>
      <trkpt lat="47.91639" lon="5.99513">
        <ele>224.90039</ele>
        <time>2026-05-17T09:40:04+02:00</time>
      </trkpt>
      <trkpt lat="47.91644" lon="5.99515">
        <ele>224.7998</ele>
        <time>2026-05-17T09:40:05+02:00</time>
      </trkpt>
      <trkpt lat="47.91649" lon="5.99516">
        <ele>224.7002</ele>
        <time>2026-05-17T09:40:06+02:00</time>
      </trkpt>
      <trkpt lat="47.91655" lon="5.99518">
        <ele>224.7002</ele>
        <time>2026-05-17T09:40:07+02:00</time>
      </trkpt>
      <trkpt lat="47.9166" lon="5.99519">
        <ele>224.60059</ele>
        <time>2026-05-17T09:40:08+02:00</time>
      </trkpt>
      <trkpt lat="47.91665" lon="5.99521">
        <ele>224.60059</ele>
        <time>2026-05-17T09:40:09+02:00</time>
      </trkpt>
      <trkpt lat="47.91671" lon="5.99522">
        <ele>224.60059</ele>
        <time>2026-05-17T09:40:10+02:00</time>
      </trkpt>
      <trkpt lat="47.91676" lon="5.99523">
        <ele>224.60059</ele>
        <time>2026-05-17T09:40:11+02:00</time>
      </trkpt>
      <trkpt lat="47.91681" lon="5.99524">
        <ele>224.60059</ele>
        <time>2026-05-17T09:40:12+02:00</time>
      </trkpt>
      <trkpt lat="47.91686" lon="5.99525">
        <ele>224.60059</ele>
        <time>2026-05-17T09:40:13+02:00</time>
      </trkpt>
      <trkpt lat="47.91691" lon="5.99525">
        <ele>224.7002</ele>
        <time>2026-05-17T09:40:14+02:00</time>
      </trkpt>
      <trkpt lat="47.91696" lon="5.99526">
        <ele>224.7002</ele>
        <time>2026-05-17T09:40:15+02:00</time>
      </trkpt>
      <trkpt lat="47.91701" lon="5.99528">
        <ele>224.60059</ele>
        <time>2026-05-17T09:40:16+02:00</time>
      </trkpt>
      <trkpt lat="47.91706" lon="5.99529">
        <ele>224.60059</ele>
        <time>2026-05-17T09:40:17+02:00</time>
      </trkpt>
      <trkpt lat="47.9171" lon="5.9953">
        <ele>224.60059</ele>
        <time>2026-05-17T09:40:18+02:00</time>
      </trkpt>
      <trkpt lat="47.91715" lon="5.99532">
        <ele>224.60059</ele>
        <time>2026-05-17T09:40:19+02:00</time>
      </trkpt>
      <trkpt lat="47.91721" lon="5.99533">
        <ele>224.5</ele>
        <time>2026-05-17T09:40:20+02:00</time>
      </trkpt>
      <trkpt lat="47.91725" lon="5.99535">
        <ele>224.5</ele>
        <time>2026-05-17T09:40:21+02:00</time>
      </trkpt>
      <trkpt lat="47.9173" lon="5.99537">
        <ele>224.40039</ele>
        <time>2026-05-17T09:40:22+02:00</time>
      </trkpt>
      <trkpt lat="47.91733" lon="5.9954">
        <ele>224.2998</ele>
        <time>2026-05-17T09:40:23+02:00</time>
      </trkpt>
      <trkpt lat="47.91737" lon="5.99542">
        <ele>224.2998</ele>
        <time>2026-05-17T09:40:24+02:00</time>
      </trkpt>
      <trkpt lat="47.91741" lon="5.99545">
        <ele>224.2002</ele>
        <time>2026-05-17T09:40:25+02:00</time>
      </trkpt>
      <trkpt lat="47.91745" lon="5.99547">
        <ele>224.10059</ele>
        <time>2026-05-17T09:40:26+02:00</time>
      </trkpt>
      <trkpt lat="47.91749" lon="5.9955">
        <ele>224.10059</ele>
        <time>2026-05-17T09:40:27+02:00</time>
      </trkpt>
      <trkpt lat="47.91753" lon="5.99552">
        <ele>224</ele>
        <time>2026-05-17T09:40:28+02:00</time>
      </trkpt>
      <trkpt lat="47.91758" lon="5.99554">
        <ele>223.7998</ele>
        <time>2026-05-17T09:40:29+02:00</time>
      </trkpt>
      <trkpt lat="47.91763" lon="5.99557">
        <ele>223.60059</ele>
        <time>2026-05-17T09:40:30+02:00</time>
      </trkpt>
      <trkpt lat="47.91767" lon="5.9956">
        <ele>223.5</ele>
        <time>2026-05-17T09:40:31+02:00</time>
      </trkpt>
      <trkpt lat="47.91773" lon="5.99563">
        <ele>223.2002</ele>
        <time>2026-05-17T09:40:32+02:00</time>
      </trkpt>
      <trkpt lat="47.91777" lon="5.99566">
        <ele>223.2002</ele>
        <time>2026-05-17T09:40:33+02:00</time>
      </trkpt>
      <trkpt lat="47.91782" lon="5.99569">
        <ele>223.2002</ele>
        <time>2026-05-17T09:40:34+02:00</time>
      </trkpt>
      <trkpt lat="47.91787" lon="5.99573">
        <ele>223</ele>
        <time>2026-05-17T09:40:35+02:00</time>
      </trkpt>
      <trkpt lat="47.91792" lon="5.99576">
        <ele>222.90039</ele>
        <time>2026-05-17T09:40:36+02:00</time>
      </trkpt>
      <trkpt lat="47.91797" lon="5.99579">
        <ele>222.7002</ele>
        <time>2026-05-17T09:40:37+02:00</time>
      </trkpt>
      <trkpt lat="47.91802" lon="5.99583">
        <ele>222.5</ele>
        <time>2026-05-17T09:40:38+02:00</time>
      </trkpt>
      <trkpt lat="47.91807" lon="5.99587">
        <ele>222.2998</ele>
        <time>2026-05-17T09:40:39+02:00</time>
      </trkpt>
      <trkpt lat="47.91812" lon="5.9959">
        <ele>222.10059</ele>
        <time>2026-05-17T09:40:40+02:00</time>
      </trkpt>
      <trkpt lat="47.91816" lon="5.99594">
        <ele>221.90039</ele>
        <time>2026-05-17T09:40:41+02:00</time>
      </trkpt>
      <trkpt lat="47.91821" lon="5.99597">
        <ele>221.60059</ele>
        <time>2026-05-17T09:40:42+02:00</time>
      </trkpt>
      <trkpt lat="47.91826" lon="5.99601">
        <ele>221.60059</ele>
        <time>2026-05-17T09:40:43+02:00</time>
      </trkpt>
      <trkpt lat="47.91831" lon="5.99604">
        <ele>221.60059</ele>
        <time>2026-05-17T09:40:44+02:00</time>
      </trkpt>
      <trkpt lat="47.91836" lon="5.99608">
        <ele>221.60059</ele>
        <time>2026-05-17T09:40:45+02:00</time>
      </trkpt>
      <trkpt lat="47.9184" lon="5.99611">
        <ele>221.60059</ele>
        <time>2026-05-17T09:40:46+02:00</time>
      </trkpt>
      <trkpt lat="47.91844" lon="5.99615">
        <ele>221.7002</ele>
        <time>2026-05-17T09:40:47+02:00</time>
      </trkpt>
      <trkpt lat="47.91849" lon="5.99618">
        <ele>221.7998</ele>
        <time>2026-05-17T09:40:48+02:00</time>
      </trkpt>
      <trkpt lat="47.91853" lon="5.99621">
        <ele>221.90039</ele>
        <time>2026-05-17T09:40:49+02:00</time>
      </trkpt>
      <trkpt lat="47.91857" lon="5.99624">
        <ele>222</ele>
        <time>2026-05-17T09:40:50+02:00</time>
      </trkpt>
      <trkpt lat="47.91861" lon="5.99627">
        <ele>222.10059</ele>
        <time>2026-05-17T09:40:51+02:00</time>
      </trkpt>
      <trkpt lat="47.91866" lon="5.99631">
        <ele>222.40039</ele>
        <time>2026-05-17T09:40:52+02:00</time>
      </trkpt>
      <trkpt lat="47.9187" lon="5.99634">
        <ele>222.60059</ele>
        <time>2026-05-17T09:40:53+02:00</time>
      </trkpt>
      <trkpt lat="47.91874" lon="5.99638">
        <ele>222.60059</ele>
        <time>2026-05-17T09:40:54+02:00</time>
      </trkpt>
      <trkpt lat="47.91878" lon="5.99641">
        <ele>222.90039</ele>
        <time>2026-05-17T09:40:55+02:00</time>
      </trkpt>
      <trkpt lat="47.91882" lon="5.99645">
        <ele>223</ele>
        <time>2026-05-17T09:40:56+02:00</time>
      </trkpt>
      <trkpt lat="47.91887" lon="5.99649">
        <ele>223</ele>
        <time>2026-05-17T09:40:57+02:00</time>
      </trkpt>
      <trkpt lat="47.91891" lon="5.99652">
        <ele>223</ele>
        <time>2026-05-17T09:40:58+02:00</time>
      </trkpt>
      <trkpt lat="47.91895" lon="5.99656">
        <ele>222.90039</ele>
        <time>2026-05-17T09:40:59+02:00</time>
      </trkpt>
      <trkpt lat="47.91899" lon="5.99659">
        <ele>222.60059</ele>
        <time>2026-05-17T09:41:00+02:00</time>
      </trkpt>
      <trkpt lat="47.91903" lon="5.99662">
        <ele>222.60059</ele>
        <time>2026-05-17T09:41:01+02:00</time>
      </trkpt>
      <trkpt lat="47.91906" lon="5.99664">
        <ele>222.40039</ele>
        <time>2026-05-17T09:41:02+02:00</time>
      </trkpt>
      <trkpt lat="47.9191" lon="5.99664">
        <ele>222.40039</ele>
        <time>2026-05-17T09:41:03+02:00</time>
      </trkpt>
      <trkpt lat="47.91913" lon="5.99662">
        <ele>222.2998</ele>
        <time>2026-05-17T09:41:04+02:00</time>
      </trkpt>
      <trkpt lat="47.91915" lon="5.99658">
        <ele>222.2998</ele>
        <time>2026-05-17T09:41:05+02:00</time>
      </trkpt>
      <trkpt lat="47.91917" lon="5.99654">
        <ele>222.2002</ele>
        <time>2026-05-17T09:41:06+02:00</time>
      </trkpt>
      <trkpt lat="47.91918" lon="5.9965">
        <ele>222.2002</ele>
        <time>2026-05-17T09:41:07+02:00</time>
      </trkpt>
      <trkpt lat="47.9192" lon="5.99645">
        <ele>222.40039</ele>
        <time>2026-05-17T09:41:08+02:00</time>
      </trkpt>
      <trkpt lat="47.91922" lon="5.99639">
        <ele>222.40039</ele>
        <time>2026-05-17T09:41:09+02:00</time>
      </trkpt>
      <trkpt lat="47.91924" lon="5.99633">
        <ele>222.90039</ele>
        <time>2026-05-17T09:41:10+02:00</time>
      </trkpt>
      <trkpt lat="47.91926" lon="5.99627">
        <ele>223.2998</ele>
        <time>2026-05-17T09:41:11+02:00</time>
      </trkpt>
      <trkpt lat="47.91928" lon="5.99619">
        <ele>223.5</ele>
        <time>2026-05-17T09:41:12+02:00</time>
      </trkpt>
      <trkpt lat="47.91931" lon="5.99611">
        <ele>223.60059</ele>
        <time>2026-05-17T09:41:13+02:00</time>
      </trkpt>
      <trkpt lat="47.91933" lon="5.99603">
        <ele>223.7002</ele>
        <time>2026-05-17T09:41:14+02:00</time>
      </trkpt>
      <trkpt lat="47.91936" lon="5.99595">
        <ele>223.90039</ele>
        <time>2026-05-17T09:41:15+02:00</time>
      </trkpt>
      <trkpt lat="47.91938" lon="5.99586">
        <ele>223.90039</ele>
        <time>2026-05-17T09:41:16+02:00</time>
      </trkpt>
      <trkpt lat="47.9194" lon="5.99578">
        <ele>224</ele>
        <time>2026-05-17T09:41:17+02:00</time>
      </trkpt>
      <trkpt lat="47.91943" lon="5.99571">
        <ele>224</ele>
        <time>2026-05-17T09:41:18+02:00</time>
      </trkpt>
      <trkpt lat="47.91945" lon="5.99566">
        <ele>224.10059</ele>
        <time>2026-05-17T09:41:19+02:00</time>
      </trkpt>
      <trkpt lat="47.91946" lon="5.99562">
        <ele>224.10059</ele>
        <time>2026-05-17T09:41:20+02:00</time>
      </trkpt>
      <trkpt lat="47.91947" lon="5.99558">
        <ele>224</ele>
        <time>2026-05-17T09:41:21+02:00</time>
      </trkpt>
      <trkpt lat="47.91947" lon="5.99556">
        <ele>224</ele>
        <time>2026-05-17T09:41:22+02:00</time>
      </trkpt>
      <trkpt lat="47.91947" lon="5.99555">
        <ele>224</ele>
        <time>2026-05-17T09:41:23+02:00</time>
      </trkpt>
      <trkpt lat="47.91947" lon="5.99554">
        <ele>224</ele>
        <time>2026-05-17T09:41:24+02:00</time>
      </trkpt>
      <trkpt lat="47.91948" lon="5.99553">
        <ele>224</ele>
        <time>2026-05-17T09:41:25+02:00</time>
      </trkpt>
      <trkpt lat="47.91948" lon="5.99553">
        <ele>224</ele>
        <time>2026-05-17T09:41:26+02:00</time>
      </trkpt>
      <trkpt lat="47.91942" lon="5.99537">
        <ele>224</ele>
        <time>2026-05-17T09:41:31+02:00</time>
      </trkpt>
      <trkpt lat="47.91939" lon="5.99535">
        <ele>224.10059</ele>
        <time>2026-05-17T09:41:32+02:00</time>
      </trkpt>
      <trkpt lat="47.91936" lon="5.99532">
        <ele>224</ele>
        <time>2026-05-17T09:41:33+02:00</time>
      </trkpt>
      <trkpt lat="47.91932" lon="5.99529">
        <ele>224</ele>
        <time>2026-05-17T09:41:34+02:00</time>
      </trkpt>
      <trkpt lat="47.91928" lon="5.99526">
        <ele>224.10059</ele>
        <time>2026-05-17T09:41:35+02:00</time>
      </trkpt>
      <trkpt lat="47.91924" lon="5.99522">
        <ele>224</ele>
        <time>2026-05-17T09:41:36+02:00</time>
      </trkpt>
      <trkpt lat="47.91919" lon="5.99518">
        <ele>224.10059</ele>
        <time>2026-05-17T09:41:37+02:00</time>
      </trkpt>
      <trkpt lat="47.91915" lon="5.99515">
        <ele>224.10059</ele>
        <time>2026-05-17T09:41:38+02:00</time>
      </trkpt>
      <trkpt lat="47.91911" lon="5.99512">
        <ele>224.10059</ele>
        <time>2026-05-17T09:41:39+02:00</time>
      </trkpt>
      <trkpt lat="47.91906" lon="5.99509">
        <ele>224.2998</ele>
        <time>2026-05-17T09:41:40+02:00</time>
      </trkpt>
      <trkpt lat="47.91902" lon="5.99507">
        <ele>224.2998</ele>
        <time>2026-05-17T09:41:41+02:00</time>
      </trkpt>
      <trkpt lat="47.91898" lon="5.99504">
        <ele>224.2998</ele>
        <time>2026-05-17T09:41:42+02:00</time>
      </trkpt>
      <trkpt lat="47.91894" lon="5.99501">
        <ele>224.5</ele>
        <time>2026-05-17T09:41:43+02:00</time>
      </trkpt>
      <trkpt lat="47.91889" lon="5.99499">
        <ele>224.5</ele>
        <time>2026-05-17T09:41:44+02:00</time>
      </trkpt>
      <trkpt lat="47.91885" lon="5.99497">
        <ele>224.60059</ele>
        <time>2026-05-17T09:41:45+02:00</time>
      </trkpt>
      <trkpt lat="47.91881" lon="5.99495">
        <ele>224.7002</ele>
        <time>2026-05-17T09:41:46+02:00</time>
      </trkpt>
      <trkpt lat="47.91876" lon="5.99493">
        <ele>224.7998</ele>
        <time>2026-05-17T09:41:47+02:00</time>
      </trkpt>
      <trkpt lat="47.91871" lon="5.99491">
        <ele>224.90039</ele>
        <time>2026-05-17T09:41:48+02:00</time>
      </trkpt>
      <trkpt lat="47.91866" lon="5.99489">
        <ele>224.90039</ele>
        <time>2026-05-17T09:41:49+02:00</time>
      </trkpt>
      <trkpt lat="47.91862" lon="5.99487">
        <ele>225</ele>
        <time>2026-05-17T09:41:50+02:00</time>
      </trkpt>
      <trkpt lat="47.91857" lon="5.99485">
        <ele>225</ele>
        <time>2026-05-17T09:41:51+02:00</time>
      </trkpt>
      <trkpt lat="47.91853" lon="5.99483">
        <ele>225.2002</ele>
        <time>2026-05-17T09:41:52+02:00</time>
      </trkpt>
      <trkpt lat="47.91849" lon="5.99482">
        <ele>225.2002</ele>
        <time>2026-05-17T09:41:53+02:00</time>
      </trkpt>
      <trkpt lat="47.91844" lon="5.99481">
        <ele>225.2998</ele>
        <time>2026-05-17T09:41:54+02:00</time>
      </trkpt>
      <trkpt lat="47.91839" lon="5.9948">
        <ele>225.2998</ele>
        <time>2026-05-17T09:41:55+02:00</time>
      </trkpt>
      <trkpt lat="47.91835" lon="5.99478">
        <ele>225.40039</ele>
        <time>2026-05-17T09:41:56+02:00</time>
      </trkpt>
      <trkpt lat="47.9183" lon="5.99476">
        <ele>225.40039</ele>
        <time>2026-05-17T09:41:57+02:00</time>
      </trkpt>
      <trkpt lat="47.91825" lon="5.99474">
        <ele>225.5</ele>
        <time>2026-05-17T09:41:58+02:00</time>
      </trkpt>
      <trkpt lat="47.91821" lon="5.99471">
        <ele>225.60059</ele>
        <time>2026-05-17T09:41:59+02:00</time>
      </trkpt>
      <trkpt lat="47.91816" lon="5.99469">
        <ele>225.60059</ele>
        <time>2026-05-17T09:42:00+02:00</time>
      </trkpt>
      <trkpt lat="47.91812" lon="5.99466">
        <ele>225.7002</ele>
        <time>2026-05-17T09:42:01+02:00</time>
      </trkpt>
      <trkpt lat="47.91807" lon="5.99463">
        <ele>225.7002</ele>
        <time>2026-05-17T09:42:02+02:00</time>
      </trkpt>
      <trkpt lat="47.91802" lon="5.99461">
        <ele>225.7002</ele>
        <time>2026-05-17T09:42:03+02:00</time>
      </trkpt>
      <trkpt lat="47.91797" lon="5.99458">
        <ele>225.7998</ele>
        <time>2026-05-17T09:42:04+02:00</time>
      </trkpt>
      <trkpt lat="47.91792" lon="5.99455">
        <ele>225.7998</ele>
        <time>2026-05-17T09:42:05+02:00</time>
      </trkpt>
      <trkpt lat="47.91788" lon="5.99451">
        <ele>225.7998</ele>
        <time>2026-05-17T09:42:06+02:00</time>
      </trkpt>
      <trkpt lat="47.91783" lon="5.99449">
        <ele>225.90039</ele>
        <time>2026-05-17T09:42:07+02:00</time>
      </trkpt>
      <trkpt lat="47.91778" lon="5.99446">
        <ele>225.90039</ele>
        <time>2026-05-17T09:42:08+02:00</time>
      </trkpt>
      <trkpt lat="47.91773" lon="5.99443">
        <ele>225.90039</ele>
        <time>2026-05-17T09:42:09+02:00</time>
      </trkpt>
      <trkpt lat="47.91769" lon="5.99441">
        <ele>226</ele>
        <time>2026-05-17T09:42:10+02:00</time>
      </trkpt>
      <trkpt lat="47.91765" lon="5.99438">
        <ele>226</ele>
        <time>2026-05-17T09:42:11+02:00</time>
      </trkpt>
      <trkpt lat="47.9176" lon="5.99435">
        <ele>226</ele>
        <time>2026-05-17T09:42:12+02:00</time>
      </trkpt>
      <trkpt lat="47.91757" lon="5.99432">
        <ele>226.10059</ele>
        <time>2026-05-17T09:42:13+02:00</time>
      </trkpt>
      <trkpt lat="47.91754" lon="5.99427">
        <ele>226.10059</ele>
        <time>2026-05-17T09:42:14+02:00</time>
      </trkpt>
      <trkpt lat="47.91752" lon="5.99422">
        <ele>226.2002</ele>
        <time>2026-05-17T09:42:15+02:00</time>
      </trkpt>
      <trkpt lat="47.91752" lon="5.99415">
        <ele>226.2998</ele>
        <time>2026-05-17T09:42:16+02:00</time>
      </trkpt>
      <trkpt lat="47.91754" lon="5.99409">
        <ele>226.2998</ele>
        <time>2026-05-17T09:42:17+02:00</time>
      </trkpt>
      <trkpt lat="47.91756" lon="5.99404">
        <ele>226.5</ele>
        <time>2026-05-17T09:42:18+02:00</time>
      </trkpt>
      <trkpt lat="47.91759" lon="5.99398">
        <ele>226.60059</ele>
        <time>2026-05-17T09:42:19+02:00</time>
      </trkpt>
      <trkpt lat="47.91762" lon="5.99393">
        <ele>226.60059</ele>
        <time>2026-05-17T09:42:20+02:00</time>
      </trkpt>
      <trkpt lat="47.91765" lon="5.99387">
        <ele>226.7998</ele>
        <time>2026-05-17T09:42:21+02:00</time>
      </trkpt>
      <trkpt lat="47.91768" lon="5.9938">
        <ele>226.90039</ele>
        <time>2026-05-17T09:42:22+02:00</time>
      </trkpt>
      <trkpt lat="47.91771" lon="5.99374">
        <ele>226.90039</ele>
        <time>2026-05-17T09:42:23+02:00</time>
      </trkpt>
      <trkpt lat="47.91774" lon="5.99368">
        <ele>227</ele>
        <time>2026-05-17T09:42:24+02:00</time>
      </trkpt>
      <trkpt lat="47.91776" lon="5.99361">
        <ele>227.10059</ele>
        <time>2026-05-17T09:42:25+02:00</time>
      </trkpt>
      <trkpt lat="47.91779" lon="5.99354">
        <ele>227.2002</ele>
        <time>2026-05-17T09:42:26+02:00</time>
      </trkpt>
      <trkpt lat="47.91783" lon="5.99348">
        <ele>227.2002</ele>
        <time>2026-05-17T09:42:27+02:00</time>
      </trkpt>
      <trkpt lat="47.91786" lon="5.99341">
        <ele>227.10059</ele>
        <time>2026-05-17T09:42:28+02:00</time>
      </trkpt>
      <trkpt lat="47.91789" lon="5.99335">
        <ele>227.2002</ele>
        <time>2026-05-17T09:42:29+02:00</time>
      </trkpt>
      <trkpt lat="47.91792" lon="5.99328">
        <ele>227.10059</ele>
        <time>2026-05-17T09:42:30+02:00</time>
      </trkpt>
      <trkpt lat="47.91795" lon="5.99322">
        <ele>227.10059</ele>
        <time>2026-05-17T09:42:31+02:00</time>
      </trkpt>
      <trkpt lat="47.91799" lon="5.99316">
        <ele>227</ele>
        <time>2026-05-17T09:42:32+02:00</time>
      </trkpt>
      <trkpt lat="47.91802" lon="5.9931">
        <ele>226.90039</ele>
        <time>2026-05-17T09:42:33+02:00</time>
      </trkpt>
      <trkpt lat="47.91805" lon="5.99304">
        <ele>226.90039</ele>
        <time>2026-05-17T09:42:34+02:00</time>
      </trkpt>
      <trkpt lat="47.91809" lon="5.99298">
        <ele>226.7998</ele>
        <time>2026-05-17T09:42:35+02:00</time>
      </trkpt>
      <trkpt lat="47.91813" lon="5.99291">
        <ele>226.7002</ele>
        <time>2026-05-17T09:42:36+02:00</time>
      </trkpt>
      <trkpt lat="47.91816" lon="5.99285">
        <ele>226.7002</ele>
        <time>2026-05-17T09:42:37+02:00</time>
      </trkpt>
      <trkpt lat="47.91819" lon="5.99279">
        <ele>226.60059</ele>
        <time>2026-05-17T09:42:38+02:00</time>
      </trkpt>
      <trkpt lat="47.91823" lon="5.99274">
        <ele>226.60059</ele>
        <time>2026-05-17T09:42:39+02:00</time>
      </trkpt>
      <trkpt lat="47.91826" lon="5.99268">
        <ele>226.5</ele>
        <time>2026-05-17T09:42:40+02:00</time>
      </trkpt>
      <trkpt lat="47.91829" lon="5.99261">
        <ele>226.5</ele>
        <time>2026-05-17T09:42:41+02:00</time>
      </trkpt>
      <trkpt lat="47.91831" lon="5.99254">
        <ele>226.5</ele>
        <time>2026-05-17T09:42:42+02:00</time>
      </trkpt>
      <trkpt lat="47.91832" lon="5.99247">
        <ele>226.5</ele>
        <time>2026-05-17T09:42:43+02:00</time>
      </trkpt>
      <trkpt lat="47.91833" lon="5.99239">
        <ele>226.5</ele>
        <time>2026-05-17T09:42:44+02:00</time>
      </trkpt>
      <trkpt lat="47.91833" lon="5.99231">
        <ele>226.60059</ele>
        <time>2026-05-17T09:42:45+02:00</time>
      </trkpt>
      <trkpt lat="47.91832" lon="5.99223">
        <ele>226.7002</ele>
        <time>2026-05-17T09:42:46+02:00</time>
      </trkpt>
      <trkpt lat="47.91832" lon="5.99215">
        <ele>226.7998</ele>
        <time>2026-05-17T09:42:47+02:00</time>
      </trkpt>
      <trkpt lat="47.91831" lon="5.99208">
        <ele>226.7998</ele>
        <time>2026-05-17T09:42:48+02:00</time>
      </trkpt>
      <trkpt lat="47.91829" lon="5.992">
        <ele>226.90039</ele>
        <time>2026-05-17T09:42:49+02:00</time>
      </trkpt>
      <trkpt lat="47.91828" lon="5.99193">
        <ele>226.90039</ele>
        <time>2026-05-17T09:42:50+02:00</time>
      </trkpt>
      <trkpt lat="47.91826" lon="5.99185">
        <ele>227</ele>
        <time>2026-05-17T09:42:51+02:00</time>
      </trkpt>
      <trkpt lat="47.91824" lon="5.99178">
        <ele>227</ele>
        <time>2026-05-17T09:42:52+02:00</time>
      </trkpt>
      <trkpt lat="47.91823" lon="5.9917">
        <ele>227.10059</ele>
        <time>2026-05-17T09:42:53+02:00</time>
      </trkpt>
      <trkpt lat="47.91821" lon="5.99162">
        <ele>227.10059</ele>
        <time>2026-05-17T09:42:54+02:00</time>
      </trkpt>
      <trkpt lat="47.9182" lon="5.99155">
        <ele>227.10059</ele>
        <time>2026-05-17T09:42:55+02:00</time>
      </trkpt>
      <trkpt lat="47.91818" lon="5.99147">
        <ele>227.10059</ele>
        <time>2026-05-17T09:42:56+02:00</time>
      </trkpt>
      <trkpt lat="47.91816" lon="5.99139">
        <ele>227.10059</ele>
        <time>2026-05-17T09:42:57+02:00</time>
      </trkpt>
      <trkpt lat="47.91815" lon="5.99132">
        <ele>227.10059</ele>
        <time>2026-05-17T09:42:58+02:00</time>
      </trkpt>
      <trkpt lat="47.91813" lon="5.99125">
        <ele>227.10059</ele>
        <time>2026-05-17T09:42:59+02:00</time>
      </trkpt>
      <trkpt lat="47.91811" lon="5.99118">
        <ele>227.10059</ele>
        <time>2026-05-17T09:43:00+02:00</time>
      </trkpt>
      <trkpt lat="47.9181" lon="5.99111">
        <ele>227.10059</ele>
        <time>2026-05-17T09:43:01+02:00</time>
      </trkpt>
      <trkpt lat="47.91808" lon="5.99104">
        <ele>227.10059</ele>
        <time>2026-05-17T09:43:02+02:00</time>
      </trkpt>
      <trkpt lat="47.91807" lon="5.99097">
        <ele>227</ele>
        <time>2026-05-17T09:43:03+02:00</time>
      </trkpt>
      <trkpt lat="47.91805" lon="5.99091">
        <ele>227</ele>
        <time>2026-05-17T09:43:04+02:00</time>
      </trkpt>
      <trkpt lat="47.91803" lon="5.99084">
        <ele>226.90039</ele>
        <time>2026-05-17T09:43:05+02:00</time>
      </trkpt>
      <trkpt lat="47.91802" lon="5.99078">
        <ele>226.90039</ele>
        <time>2026-05-17T09:43:06+02:00</time>
      </trkpt>
      <trkpt lat="47.918" lon="5.99073">
        <ele>226.7998</ele>
        <time>2026-05-17T09:43:07+02:00</time>
      </trkpt>
      <trkpt lat="47.91799" lon="5.99069">
        <ele>226.7998</ele>
        <time>2026-05-17T09:43:08+02:00</time>
      </trkpt>
      <trkpt lat="47.91798" lon="5.99067">
        <ele>226.7998</ele>
        <time>2026-05-17T09:43:09+02:00</time>
      </trkpt>
      <trkpt lat="47.91797" lon="5.99065">
        <ele>226.7998</ele>
        <time>2026-05-17T09:43:10+02:00</time>
      </trkpt>
      <trkpt lat="47.91797" lon="5.99064">
        <ele>226.7998</ele>
        <time>2026-05-17T09:43:11+02:00</time>
      </trkpt>
      <trkpt lat="47.91796" lon="5.99064">
        <ele>226.7998</ele>
        <time>2026-05-17T09:43:12+02:00</time>
      </trkpt>
      <trkpt lat="47.91796" lon="5.99063">
        <ele>226.7002</ele>
        <time>2026-05-17T09:43:13+02:00</time>
      </trkpt>
      <trkpt lat="47.91795" lon="5.99062">
        <ele>226.60059</ele>
        <time>2026-05-17T09:43:14+02:00</time>
      </trkpt>
      <trkpt lat="47.9182" lon="5.99146">
        <ele>227.2002</ele>
        <time>2026-05-17T09:50:22+02:00</time>
      </trkpt>
      <trkpt lat="47.91821" lon="5.99152">
        <ele>227.10059</ele>
        <time>2026-05-17T09:50:23+02:00</time>
      </trkpt>
      <trkpt lat="47.91823" lon="5.99159">
        <ele>227.10059</ele>
        <time>2026-05-17T09:50:24+02:00</time>
      </trkpt>
      <trkpt lat="47.91824" lon="5.99167">
        <ele>227.10059</ele>
        <time>2026-05-17T09:50:25+02:00</time>
      </trkpt>
      <trkpt lat="47.91825" lon="5.99174">
        <ele>227.10059</ele>
        <time>2026-05-17T09:50:26+02:00</time>
      </trkpt>
      <trkpt lat="47.91827" lon="5.99181">
        <ele>227.10059</ele>
        <time>2026-05-17T09:50:27+02:00</time>
      </trkpt>
      <trkpt lat="47.91827" lon="5.99188">
        <ele>227</ele>
        <time>2026-05-17T09:50:28+02:00</time>
      </trkpt>
      <trkpt lat="47.91828" lon="5.99195">
        <ele>226.90039</ele>
        <time>2026-05-17T09:50:29+02:00</time>
      </trkpt>
      <trkpt lat="47.91829" lon="5.99202">
        <ele>226.90039</ele>
        <time>2026-05-17T09:50:30+02:00</time>
      </trkpt>
      <trkpt lat="47.9183" lon="5.99209">
        <ele>226.7998</ele>
        <time>2026-05-17T09:50:31+02:00</time>
      </trkpt>
      <trkpt lat="47.91831" lon="5.99217">
        <ele>226.7998</ele>
        <time>2026-05-17T09:50:32+02:00</time>
      </trkpt>
      <trkpt lat="47.91832" lon="5.99224">
        <ele>226.7002</ele>
        <time>2026-05-17T09:50:33+02:00</time>
      </trkpt>
      <trkpt lat="47.91832" lon="5.99232">
        <ele>226.60059</ele>
        <time>2026-05-17T09:50:34+02:00</time>
      </trkpt>
      <trkpt lat="47.91831" lon="5.9924">
        <ele>226.5</ele>
        <time>2026-05-17T09:50:35+02:00</time>
      </trkpt>
      <trkpt lat="47.91831" lon="5.99247">
        <ele>226.5</ele>
        <time>2026-05-17T09:50:36+02:00</time>
      </trkpt>
      <trkpt lat="47.91829" lon="5.99255">
        <ele>226.5</ele>
        <time>2026-05-17T09:50:37+02:00</time>
      </trkpt>
      <trkpt lat="47.91826" lon="5.99262">
        <ele>226.5</ele>
        <time>2026-05-17T09:50:38+02:00</time>
      </trkpt>
      <trkpt lat="47.91823" lon="5.99268">
        <ele>226.60059</ele>
        <time>2026-05-17T09:50:39+02:00</time>
      </trkpt>
      <trkpt lat="47.9182" lon="5.99275">
        <ele>226.60059</ele>
        <time>2026-05-17T09:50:40+02:00</time>
      </trkpt>
      <trkpt lat="47.91816" lon="5.99281">
        <ele>226.7002</ele>
        <time>2026-05-17T09:50:41+02:00</time>
      </trkpt>
      <trkpt lat="47.91812" lon="5.99287">
        <ele>226.7998</ele>
        <time>2026-05-17T09:50:42+02:00</time>
      </trkpt>
      <trkpt lat="47.91809" lon="5.99293">
        <ele>226.7998</ele>
        <time>2026-05-17T09:50:43+02:00</time>
      </trkpt>
      <trkpt lat="47.91805" lon="5.99298">
        <ele>226.90039</ele>
        <time>2026-05-17T09:50:44+02:00</time>
      </trkpt>
      <trkpt lat="47.91802" lon="5.99304">
        <ele>226.90039</ele>
        <time>2026-05-17T09:50:45+02:00</time>
      </trkpt>
      <trkpt lat="47.91799" lon="5.99311">
        <ele>227.10059</ele>
        <time>2026-05-17T09:50:46+02:00</time>
      </trkpt>
      <trkpt lat="47.91795" lon="5.99317">
        <ele>227.2002</ele>
        <time>2026-05-17T09:50:47+02:00</time>
      </trkpt>
      <trkpt lat="47.91792" lon="5.99323">
        <ele>227.10059</ele>
        <time>2026-05-17T09:50:48+02:00</time>
      </trkpt>
      <trkpt lat="47.91789" lon="5.99329">
        <ele>227.2998</ele>
        <time>2026-05-17T09:50:49+02:00</time>
      </trkpt>
      <trkpt lat="47.91786" lon="5.99335">
        <ele>227.2002</ele>
        <time>2026-05-17T09:50:50+02:00</time>
      </trkpt>
      <trkpt lat="47.91782" lon="5.99341">
        <ele>227.2002</ele>
        <time>2026-05-17T09:50:51+02:00</time>
      </trkpt>
      <trkpt lat="47.91779" lon="5.99348">
        <ele>227.2002</ele>
        <time>2026-05-17T09:50:52+02:00</time>
      </trkpt>
      <trkpt lat="47.91776" lon="5.99354">
        <ele>227.2002</ele>
        <time>2026-05-17T09:50:53+02:00</time>
      </trkpt>
      <trkpt lat="47.91773" lon="5.99361">
        <ele>227.10059</ele>
        <time>2026-05-17T09:50:54+02:00</time>
      </trkpt>
      <trkpt lat="47.91771" lon="5.99367">
        <ele>227.10059</ele>
        <time>2026-05-17T09:50:55+02:00</time>
      </trkpt>
      <trkpt lat="47.91768" lon="5.99374">
        <ele>226.90039</ele>
        <time>2026-05-17T09:50:56+02:00</time>
      </trkpt>
      <trkpt lat="47.91765" lon="5.99381">
        <ele>227</ele>
        <time>2026-05-17T09:50:57+02:00</time>
      </trkpt>
      <trkpt lat="47.91762" lon="5.99387">
        <ele>226.7998</ele>
        <time>2026-05-17T09:50:58+02:00</time>
      </trkpt>
      <trkpt lat="47.91758" lon="5.99393">
        <ele>226.60059</ele>
        <time>2026-05-17T09:50:59+02:00</time>
      </trkpt>
      <trkpt lat="47.91755" lon="5.994">
        <ele>226.5</ele>
        <time>2026-05-17T09:51:00+02:00</time>
      </trkpt>
      <trkpt lat="47.91753" lon="5.99406">
        <ele>226.5</ele>
        <time>2026-05-17T09:51:01+02:00</time>
      </trkpt>
      <trkpt lat="47.9175" lon="5.99412">
        <ele>226.2998</ele>
        <time>2026-05-17T09:51:02+02:00</time>
      </trkpt>
      <trkpt lat="47.91748" lon="5.99418">
        <ele>226.2002</ele>
        <time>2026-05-17T09:51:03+02:00</time>
      </trkpt>
      <trkpt lat="47.91747" lon="5.99425">
        <ele>226.10059</ele>
        <time>2026-05-17T09:51:04+02:00</time>
      </trkpt>
      <trkpt lat="47.91749" lon="5.99431">
        <ele>226.10059</ele>
        <time>2026-05-17T09:51:05+02:00</time>
      </trkpt>
      <trkpt lat="47.91751" lon="5.99436">
        <ele>226</ele>
        <time>2026-05-17T09:51:06+02:00</time>
      </trkpt>
      <trkpt lat="47.91754" lon="5.9944">
        <ele>226</ele>
        <time>2026-05-17T09:51:07+02:00</time>
      </trkpt>
      <trkpt lat="47.91758" lon="5.99442">
        <ele>225.90039</ele>
        <time>2026-05-17T09:51:08+02:00</time>
      </trkpt>
      <trkpt lat="47.91763" lon="5.99445">
        <ele>225.90039</ele>
        <time>2026-05-17T09:51:09+02:00</time>
      </trkpt>
      <trkpt lat="47.91767" lon="5.99447">
        <ele>225.90039</ele>
        <time>2026-05-17T09:51:10+02:00</time>
      </trkpt>
      <trkpt lat="47.91771" lon="5.9945">
        <ele>225.90039</ele>
        <time>2026-05-17T09:51:11+02:00</time>
      </trkpt>
      <trkpt lat="47.91776" lon="5.99453">
        <ele>225.7998</ele>
        <time>2026-05-17T09:51:12+02:00</time>
      </trkpt>
      <trkpt lat="47.91781" lon="5.99455">
        <ele>225.7998</ele>
        <time>2026-05-17T09:51:13+02:00</time>
      </trkpt>
      <trkpt lat="47.91786" lon="5.99458">
        <ele>225.7998</ele>
        <time>2026-05-17T09:51:14+02:00</time>
      </trkpt>
      <trkpt lat="47.9179" lon="5.99461">
        <ele>225.7002</ele>
        <time>2026-05-17T09:51:15+02:00</time>
      </trkpt>
      <trkpt lat="47.91795" lon="5.99464">
        <ele>225.7002</ele>
        <time>2026-05-17T09:51:16+02:00</time>
      </trkpt>
      <trkpt lat="47.918" lon="5.99466">
        <ele>225.7002</ele>
        <time>2026-05-17T09:51:17+02:00</time>
      </trkpt>
      <trkpt lat="47.91804" lon="5.99469">
        <ele>225.60059</ele>
        <time>2026-05-17T09:51:18+02:00</time>
      </trkpt>
      <trkpt lat="47.91809" lon="5.99472">
        <ele>225.60059</ele>
        <time>2026-05-17T09:51:19+02:00</time>
      </trkpt>
      <trkpt lat="47.91814" lon="5.99474">
        <ele>225.60059</ele>
        <time>2026-05-17T09:51:20+02:00</time>
      </trkpt>
      <trkpt lat="47.91819" lon="5.99477">
        <ele>225.40039</ele>
        <time>2026-05-17T09:51:21+02:00</time>
      </trkpt>
      <trkpt lat="47.91824" lon="5.99479">
        <ele>225.40039</ele>
        <time>2026-05-17T09:51:22+02:00</time>
      </trkpt>
      <trkpt lat="47.91829" lon="5.99481">
        <ele>225.40039</ele>
        <time>2026-05-17T09:51:23+02:00</time>
      </trkpt>
      <trkpt lat="47.91834" lon="5.99482">
        <ele>225.40039</ele>
        <time>2026-05-17T09:51:24+02:00</time>
      </trkpt>
      <trkpt lat="47.91839" lon="5.99484">
        <ele>225.2998</ele>
        <time>2026-05-17T09:51:25+02:00</time>
      </trkpt>
      <trkpt lat="47.91844" lon="5.99486">
        <ele>225.10059</ele>
        <time>2026-05-17T09:51:26+02:00</time>
      </trkpt>
      <trkpt lat="47.91849" lon="5.99488">
        <ele>225.10059</ele>
        <time>2026-05-17T09:51:27+02:00</time>
      </trkpt>
      <trkpt lat="47.91853" lon="5.99489">
        <ele>225</ele>
        <time>2026-05-17T09:51:28+02:00</time>
      </trkpt>
      <trkpt lat="47.91858" lon="5.99491">
        <ele>225</ele>
        <time>2026-05-17T09:51:29+02:00</time>
      </trkpt>
      <trkpt lat="47.91863" lon="5.99492">
        <ele>225</ele>
        <time>2026-05-17T09:51:30+02:00</time>
      </trkpt>
      <trkpt lat="47.91868" lon="5.99494">
        <ele>224.7998</ele>
        <time>2026-05-17T09:51:31+02:00</time>
      </trkpt>
      <trkpt lat="47.91873" lon="5.99496">
        <ele>224.7002</ele>
        <time>2026-05-17T09:51:32+02:00</time>
      </trkpt>
      <trkpt lat="47.91877" lon="5.99498">
        <ele>224.7002</ele>
        <time>2026-05-17T09:51:33+02:00</time>
      </trkpt>
      <trkpt lat="47.91882" lon="5.99501">
        <ele>224.60059</ele>
        <time>2026-05-17T09:51:34+02:00</time>
      </trkpt>
      <trkpt lat="47.91887" lon="5.99504">
        <ele>224.40039</ele>
        <time>2026-05-17T09:51:35+02:00</time>
      </trkpt>
      <trkpt lat="47.91892" lon="5.99507">
        <ele>224.40039</ele>
        <time>2026-05-17T09:51:36+02:00</time>
      </trkpt>
      <trkpt lat="47.91897" lon="5.9951">
        <ele>224.2998</ele>
        <time>2026-05-17T09:51:37+02:00</time>
      </trkpt>
      <trkpt lat="47.91903" lon="5.99513">
        <ele>224.10059</ele>
        <time>2026-05-17T09:51:38+02:00</time>
      </trkpt>
      <trkpt lat="47.91908" lon="5.99516">
        <ele>224.10059</ele>
        <time>2026-05-17T09:51:39+02:00</time>
      </trkpt>
      <trkpt lat="47.91913" lon="5.99519">
        <ele>224</ele>
        <time>2026-05-17T09:51:40+02:00</time>
      </trkpt>
      <trkpt lat="47.91918" lon="5.99523">
        <ele>224</ele>
        <time>2026-05-17T09:51:41+02:00</time>
      </trkpt>
      <trkpt lat="47.91923" lon="5.99526">
        <ele>224</ele>
        <time>2026-05-17T09:51:42+02:00</time>
      </trkpt>
      <trkpt lat="47.91928" lon="5.9953">
        <ele>224</ele>
        <time>2026-05-17T09:51:43+02:00</time>
      </trkpt>
      <trkpt lat="47.91934" lon="5.99534">
        <ele>224</ele>
        <time>2026-05-17T09:51:44+02:00</time>
      </trkpt>
      <trkpt lat="47.91939" lon="5.99538">
        <ele>224</ele>
        <time>2026-05-17T09:51:45+02:00</time>
      </trkpt>
      <trkpt lat="47.91944" lon="5.99543">
        <ele>224</ele>
        <time>2026-05-17T09:51:46+02:00</time>
      </trkpt>
      <trkpt lat="47.91949" lon="5.99547">
        <ele>224</ele>
        <time>2026-05-17T09:51:47+02:00</time>
      </trkpt>
      <trkpt lat="47.91954" lon="5.99551">
        <ele>224.2002</ele>
        <time>2026-05-17T09:51:48+02:00</time>
      </trkpt>
      <trkpt lat="47.91957" lon="5.99555">
        <ele>224.2998</ele>
        <time>2026-05-17T09:51:49+02:00</time>
      </trkpt>
      <trkpt lat="47.9196" lon="5.99559">
        <ele>224.2998</ele>
        <time>2026-05-17T09:51:50+02:00</time>
      </trkpt>
      <trkpt lat="47.91962" lon="5.99559">
        <ele>224.2998</ele>
        <time>2026-05-17T09:51:51+02:00</time>
      </trkpt>
      <trkpt lat="47.91963" lon="5.99556">
        <ele>224.5</ele>
        <time>2026-05-17T09:51:52+02:00</time>
      </trkpt>
      <trkpt lat="47.91961" lon="5.99554">
        <ele>224.2998</ele>
        <time>2026-05-17T09:51:53+02:00</time>
      </trkpt>
      <trkpt lat="47.91959" lon="5.99552">
        <ele>224.2998</ele>
        <time>2026-05-17T09:51:54+02:00</time>
      </trkpt>
      <trkpt lat="47.91956" lon="5.99551">
        <ele>224.2002</ele>
        <time>2026-05-17T09:51:55+02:00</time>
      </trkpt>
      <trkpt lat="47.91954" lon="5.9955">
        <ele>224.2002</ele>
        <time>2026-05-17T09:51:56+02:00</time>
      </trkpt>
      <trkpt lat="47.91951" lon="5.9955">
        <ele>224.2002</ele>
        <time>2026-05-17T09:51:57+02:00</time>
      </trkpt>
      <trkpt lat="47.9195" lon="5.99552">
        <ele>224</ele>
        <time>2026-05-17T09:51:58+02:00</time>
      </trkpt>
      <trkpt lat="47.91949" lon="5.99554">
        <ele>224</ele>
        <time>2026-05-17T09:51:59+02:00</time>
      </trkpt>
      <trkpt lat="47.91948" lon="5.99557">
        <ele>224</ele>
        <time>2026-05-17T09:52:00+02:00</time>
      </trkpt>
      <trkpt lat="47.91947" lon="5.9956">
        <ele>224</ele>
        <time>2026-05-17T09:52:01+02:00</time>
      </trkpt>
      <trkpt lat="47.91946" lon="5.99564">
        <ele>224.10059</ele>
        <time>2026-05-17T09:52:02+02:00</time>
      </trkpt>
      <trkpt lat="47.91945" lon="5.99568">
        <ele>224.10059</ele>
        <time>2026-05-17T09:52:03+02:00</time>
      </trkpt>
      <trkpt lat="47.91944" lon="5.99573">
        <ele>224</ele>
        <time>2026-05-17T09:52:04+02:00</time>
      </trkpt>
      <trkpt lat="47.91943" lon="5.99578">
        <ele>224</ele>
        <time>2026-05-17T09:52:05+02:00</time>
      </trkpt>
      <trkpt lat="47.91941" lon="5.99583">
        <ele>224.10059</ele>
        <time>2026-05-17T09:52:06+02:00</time>
      </trkpt>
      <trkpt lat="47.9194" lon="5.99588">
        <ele>224</ele>
        <time>2026-05-17T09:52:07+02:00</time>
      </trkpt>
      <trkpt lat="47.91939" lon="5.99593">
        <ele>224</ele>
        <time>2026-05-17T09:52:08+02:00</time>
      </trkpt>
      <trkpt lat="47.91938" lon="5.99598">
        <ele>223.7998</ele>
        <time>2026-05-17T09:52:09+02:00</time>
      </trkpt>
      <trkpt lat="47.91936" lon="5.99603">
        <ele>223.7998</ele>
        <time>2026-05-17T09:52:10+02:00</time>
      </trkpt>
      <trkpt lat="47.91934" lon="5.99608">
        <ele>223.7002</ele>
        <time>2026-05-17T09:52:11+02:00</time>
      </trkpt>
      <trkpt lat="47.91933" lon="5.99612">
        <ele>223.60059</ele>
        <time>2026-05-17T09:52:12+02:00</time>
      </trkpt>
      <trkpt lat="47.91931" lon="5.99617">
        <ele>223.5</ele>
        <time>2026-05-17T09:52:13+02:00</time>
      </trkpt>
      <trkpt lat="47.9193" lon="5.99622">
        <ele>223.2002</ele>
        <time>2026-05-17T09:52:14+02:00</time>
      </trkpt>
      <trkpt lat="47.91928" lon="5.99627">
        <ele>223.2002</ele>
        <time>2026-05-17T09:52:15+02:00</time>
      </trkpt>
      <trkpt lat="47.91927" lon="5.99632">
        <ele>222.90039</ele>
        <time>2026-05-17T09:52:16+02:00</time>
      </trkpt>
      <trkpt lat="47.91925" lon="5.99636">
        <ele>222.90039</ele>
        <time>2026-05-17T09:52:17+02:00</time>
      </trkpt>
      <trkpt lat="47.91923" lon="5.99641">
        <ele>222.40039</ele>
        <time>2026-05-17T09:52:18+02:00</time>
      </trkpt>
      <trkpt lat="47.91922" lon="5.99646">
        <ele>222.40039</ele>
        <time>2026-05-17T09:52:19+02:00</time>
      </trkpt>
      <trkpt lat="47.91921" lon="5.99651">
        <ele>222.2002</ele>
        <time>2026-05-17T09:52:20+02:00</time>
      </trkpt>
      <trkpt lat="47.91919" lon="5.99656">
        <ele>222.2002</ele>
        <time>2026-05-17T09:52:21+02:00</time>
      </trkpt>
      <trkpt lat="47.91917" lon="5.9966">
        <ele>222.2998</ele>
        <time>2026-05-17T09:52:22+02:00</time>
      </trkpt>
      <trkpt lat="47.91916" lon="5.99666">
        <ele>222.60059</ele>
        <time>2026-05-17T09:52:23+02:00</time>
      </trkpt>
      <trkpt lat="47.91917" lon="5.99672">
        <ele>222.60059</ele>
        <time>2026-05-17T09:52:24+02:00</time>
      </trkpt>
      <trkpt lat="47.9192" lon="5.99677">
        <ele>223</ele>
        <time>2026-05-17T09:52:25+02:00</time>
      </trkpt>
      <trkpt lat="47.91924" lon="5.99679">
        <ele>223.10059</ele>
        <time>2026-05-17T09:52:26+02:00</time>
      </trkpt>
      <trkpt lat="47.91929" lon="5.99681">
        <ele>223.10059</ele>
        <time>2026-05-17T09:52:27+02:00</time>
      </trkpt>
      <trkpt lat="47.91934" lon="5.99683">
        <ele>223.40039</ele>
        <time>2026-05-17T09:52:28+02:00</time>
      </trkpt>
      <trkpt lat="47.91939" lon="5.99686">
        <ele>223.2002</ele>
        <time>2026-05-17T09:52:29+02:00</time>
      </trkpt>
      <trkpt lat="47.91943" lon="5.99689">
        <ele>223.2002</ele>
        <time>2026-05-17T09:52:30+02:00</time>
      </trkpt>
      <trkpt lat="47.91948" lon="5.99692">
        <ele>223.10059</ele>
        <time>2026-05-17T09:52:31+02:00</time>
      </trkpt>
      <trkpt lat="47.91953" lon="5.99695">
        <ele>222.7998</ele>
        <time>2026-05-17T09:52:32+02:00</time>
      </trkpt>
      <trkpt lat="47.91958" lon="5.99699">
        <ele>222.60059</ele>
        <time>2026-05-17T09:52:33+02:00</time>
      </trkpt>
      <trkpt lat="47.91963" lon="5.99702">
        <ele>223</ele>
        <time>2026-05-17T09:52:34+02:00</time>
      </trkpt>
      <trkpt lat="47.91967" lon="5.99706">
        <ele>223</ele>
        <time>2026-05-17T09:52:35+02:00</time>
      </trkpt>
      <trkpt lat="47.91971" lon="5.9971">
        <ele>223.40039</ele>
        <time>2026-05-17T09:52:36+02:00</time>
      </trkpt>
      <trkpt lat="47.91976" lon="5.99714">
        <ele>223.2998</ele>
        <time>2026-05-17T09:52:37+02:00</time>
      </trkpt>
      <trkpt lat="47.9198" lon="5.99718">
        <ele>223.40039</ele>
        <time>2026-05-17T09:52:38+02:00</time>
      </trkpt>
      <trkpt lat="47.91985" lon="5.99722">
        <ele>223.40039</ele>
        <time>2026-05-17T09:52:39+02:00</time>
      </trkpt>
      <trkpt lat="47.91989" lon="5.99726">
        <ele>223.5</ele>
        <time>2026-05-17T09:52:40+02:00</time>
      </trkpt>
      <trkpt lat="47.91994" lon="5.9973">
        <ele>223.2998</ele>
        <time>2026-05-17T09:52:41+02:00</time>
      </trkpt>
      <trkpt lat="47.91998" lon="5.99735">
        <ele>223.60059</ele>
        <time>2026-05-17T09:52:42+02:00</time>
      </trkpt>
      <trkpt lat="47.92003" lon="5.9974">
        <ele>223.5</ele>
        <time>2026-05-17T09:52:43+02:00</time>
      </trkpt>
      <trkpt lat="47.92008" lon="5.99744">
        <ele>223.90039</ele>
        <time>2026-05-17T09:52:44+02:00</time>
      </trkpt>
      <trkpt lat="47.92012" lon="5.99749">
        <ele>223.90039</ele>
        <time>2026-05-17T09:52:45+02:00</time>
      </trkpt>
      <trkpt lat="47.92017" lon="5.99754">
        <ele>224.2002</ele>
        <time>2026-05-17T09:52:46+02:00</time>
      </trkpt>
      <trkpt lat="47.92021" lon="5.99759">
        <ele>224.10059</ele>
        <time>2026-05-17T09:52:47+02:00</time>
      </trkpt>
      <trkpt lat="47.92026" lon="5.99764">
        <ele>224.10059</ele>
        <time>2026-05-17T09:52:48+02:00</time>
      </trkpt>
      <trkpt lat="47.9203" lon="5.99768">
        <ele>224.2002</ele>
        <time>2026-05-17T09:52:49+02:00</time>
      </trkpt>
      <trkpt lat="47.92035" lon="5.99773">
        <ele>224.10059</ele>
        <time>2026-05-17T09:52:50+02:00</time>
      </trkpt>
      <trkpt lat="47.92039" lon="5.99777">
        <ele>224.10059</ele>
        <time>2026-05-17T09:52:51+02:00</time>
      </trkpt>
      <trkpt lat="47.92044" lon="5.99782">
        <ele>224</ele>
        <time>2026-05-17T09:52:52+02:00</time>
      </trkpt>
      <trkpt lat="47.92048" lon="5.99786">
        <ele>224.10059</ele>
        <time>2026-05-17T09:52:53+02:00</time>
      </trkpt>
      <trkpt lat="47.92053" lon="5.99791">
        <ele>224</ele>
        <time>2026-05-17T09:52:54+02:00</time>
      </trkpt>
      <trkpt lat="47.92058" lon="5.99796">
        <ele>224</ele>
        <time>2026-05-17T09:52:55+02:00</time>
      </trkpt>
      <trkpt lat="47.92063" lon="5.99801">
        <ele>223.7998</ele>
        <time>2026-05-17T09:52:56+02:00</time>
      </trkpt>
      <trkpt lat="47.92067" lon="5.99806">
        <ele>224.10059</ele>
        <time>2026-05-17T09:52:57+02:00</time>
      </trkpt>
      <trkpt lat="47.92072" lon="5.99811">
        <ele>224.2998</ele>
        <time>2026-05-17T09:52:58+02:00</time>
      </trkpt>
      <trkpt lat="47.92076" lon="5.99815">
        <ele>224.2998</ele>
        <time>2026-05-17T09:52:59+02:00</time>
      </trkpt>
      <trkpt lat="47.92081" lon="5.9982">
        <ele>224.7002</ele>
        <time>2026-05-17T09:53:00+02:00</time>
      </trkpt>
      <trkpt lat="47.92086" lon="5.99825">
        <ele>224.60059</ele>
        <time>2026-05-17T09:53:01+02:00</time>
      </trkpt>
      <trkpt lat="47.9209" lon="5.9983">
        <ele>224.60059</ele>
        <time>2026-05-17T09:53:02+02:00</time>
      </trkpt>
      <trkpt lat="47.92095" lon="5.99835">
        <ele>224.5</ele>
        <time>2026-05-17T09:53:03+02:00</time>
      </trkpt>
      <trkpt lat="47.921" lon="5.99839">
        <ele>224.5</ele>
        <time>2026-05-17T09:53:04+02:00</time>
      </trkpt>
      <trkpt lat="47.92104" lon="5.99844">
        <ele>224.5</ele>
        <time>2026-05-17T09:53:05+02:00</time>
      </trkpt>
      <trkpt lat="47.92109" lon="5.99849">
        <ele>224.5</ele>
        <time>2026-05-17T09:53:06+02:00</time>
      </trkpt>
      <trkpt lat="47.92114" lon="5.99854">
        <ele>224.5</ele>
        <time>2026-05-17T09:53:07+02:00</time>
      </trkpt>
      <trkpt lat="47.92119" lon="5.99858">
        <ele>224.40039</ele>
        <time>2026-05-17T09:53:08+02:00</time>
      </trkpt>
      <trkpt lat="47.92123" lon="5.99863">
        <ele>224.5</ele>
        <time>2026-05-17T09:53:09+02:00</time>
      </trkpt>
      <trkpt lat="47.92128" lon="5.99868">
        <ele>224.40039</ele>
        <time>2026-05-17T09:53:10+02:00</time>
      </trkpt>
      <trkpt lat="47.92132" lon="5.99873">
        <ele>224.40039</ele>
        <time>2026-05-17T09:53:11+02:00</time>
      </trkpt>
      <trkpt lat="47.92137" lon="5.99877">
        <ele>224.2998</ele>
        <time>2026-05-17T09:53:12+02:00</time>
      </trkpt>
      <trkpt lat="47.92141" lon="5.99882">
        <ele>224.2998</ele>
        <time>2026-05-17T09:53:13+02:00</time>
      </trkpt>
      <trkpt lat="47.92146" lon="5.99886">
        <ele>224.2998</ele>
        <time>2026-05-17T09:53:14+02:00</time>
      </trkpt>
      <trkpt lat="47.92151" lon="5.99891">
        <ele>224.2002</ele>
        <time>2026-05-17T09:53:15+02:00</time>
      </trkpt>
      <trkpt lat="47.92156" lon="5.99896">
        <ele>224</ele>
        <time>2026-05-17T09:53:16+02:00</time>
      </trkpt>
      <trkpt lat="47.9216" lon="5.999">
        <ele>224.2002</ele>
        <time>2026-05-17T09:53:17+02:00</time>
      </trkpt>
      <trkpt lat="47.92164" lon="5.99904">
        <ele>224.10059</ele>
        <time>2026-05-17T09:53:18+02:00</time>
      </trkpt>
      <trkpt lat="47.92169" lon="5.99909">
        <ele>224.2998</ele>
        <time>2026-05-17T09:53:19+02:00</time>
      </trkpt>
      <trkpt lat="47.92174" lon="5.99914">
        <ele>224.5</ele>
        <time>2026-05-17T09:53:20+02:00</time>
      </trkpt>
      <trkpt lat="47.92178" lon="5.99919">
        <ele>224.40039</ele>
        <time>2026-05-17T09:53:21+02:00</time>
      </trkpt>
      <trkpt lat="47.92183" lon="5.99923">
        <ele>224.2998</ele>
        <time>2026-05-17T09:53:22+02:00</time>
      </trkpt>
      <trkpt lat="47.92187" lon="5.99928">
        <ele>224.2002</ele>
        <time>2026-05-17T09:53:23+02:00</time>
      </trkpt>
      <trkpt lat="47.92192" lon="5.99933">
        <ele>224.2002</ele>
        <time>2026-05-17T09:53:24+02:00</time>
      </trkpt>
      <trkpt lat="47.92196" lon="5.99937">
        <ele>224.10059</ele>
        <time>2026-05-17T09:53:25+02:00</time>
      </trkpt>
      <trkpt lat="47.92201" lon="5.99942">
        <ele>224.10059</ele>
        <time>2026-05-17T09:53:26+02:00</time>
      </trkpt>
      <trkpt lat="47.92205" lon="5.99947">
        <ele>224</ele>
        <time>2026-05-17T09:53:27+02:00</time>
      </trkpt>
      <trkpt lat="47.9221" lon="5.99951">
        <ele>224</ele>
        <time>2026-05-17T09:53:28+02:00</time>
      </trkpt>
      <trkpt lat="47.92214" lon="5.99956">
        <ele>224</ele>
        <time>2026-05-17T09:53:29+02:00</time>
      </trkpt>
      <trkpt lat="47.92219" lon="5.99961">
        <ele>223.90039</ele>
        <time>2026-05-17T09:53:30+02:00</time>
      </trkpt>
      <trkpt lat="47.92223" lon="5.99966">
        <ele>224</ele>
        <time>2026-05-17T09:53:31+02:00</time>
      </trkpt>
      <trkpt lat="47.92228" lon="5.99971">
        <ele>223.90039</ele>
        <time>2026-05-17T09:53:32+02:00</time>
      </trkpt>
      <trkpt lat="47.92232" lon="5.99976">
        <ele>224.10059</ele>
        <time>2026-05-17T09:53:33+02:00</time>
      </trkpt>
      <trkpt lat="47.92237" lon="5.9998">
        <ele>224</ele>
        <time>2026-05-17T09:53:34+02:00</time>
      </trkpt>
      <trkpt lat="47.92242" lon="5.99985">
        <ele>224.10059</ele>
        <time>2026-05-17T09:53:35+02:00</time>
      </trkpt>
      <trkpt lat="47.92246" lon="5.99989">
        <ele>224</ele>
        <time>2026-05-17T09:53:36+02:00</time>
      </trkpt>
      <trkpt lat="47.92251" lon="5.99993">
        <ele>224.10059</ele>
        <time>2026-05-17T09:53:37+02:00</time>
      </trkpt>
      <trkpt lat="47.92256" lon="5.99998">
        <ele>224</ele>
        <time>2026-05-17T09:53:38+02:00</time>
      </trkpt>
      <trkpt lat="47.9226" lon="6.00002">
        <ele>224.2002</ele>
        <time>2026-05-17T09:53:39+02:00</time>
      </trkpt>
      <trkpt lat="47.92265" lon="6.00007">
        <ele>224</ele>
        <time>2026-05-17T09:53:40+02:00</time>
      </trkpt>
      <trkpt lat="47.92269" lon="6.00012">
        <ele>224</ele>
        <time>2026-05-17T09:53:41+02:00</time>
      </trkpt>
      <trkpt lat="47.92274" lon="6.00018">
        <ele>224.10059</ele>
        <time>2026-05-17T09:53:42+02:00</time>
      </trkpt>
      <trkpt lat="47.92278" lon="6.00023">
        <ele>224.10059</ele>
        <time>2026-05-17T09:53:43+02:00</time>
      </trkpt>
      <trkpt lat="47.92283" lon="6.00028">
        <ele>224.2002</ele>
        <time>2026-05-17T09:53:44+02:00</time>
      </trkpt>
      <trkpt lat="47.92287" lon="6.00034">
        <ele>224.2002</ele>
        <time>2026-05-17T09:53:45+02:00</time>
      </trkpt>
      <trkpt lat="47.92291" lon="6.00039">
        <ele>224</ele>
        <time>2026-05-17T09:53:46+02:00</time>
      </trkpt>
      <trkpt lat="47.92296" lon="6.00045">
        <ele>223.90039</ele>
        <time>2026-05-17T09:53:47+02:00</time>
      </trkpt>
      <trkpt lat="47.923" lon="6.0005">
        <ele>223.90039</ele>
        <time>2026-05-17T09:53:48+02:00</time>
      </trkpt>
      <trkpt lat="47.92304" lon="6.00056">
        <ele>224</ele>
        <time>2026-05-17T09:53:49+02:00</time>
      </trkpt>
      <trkpt lat="47.92308" lon="6.00062">
        <ele>224</ele>
        <time>2026-05-17T09:53:50+02:00</time>
      </trkpt>
      <trkpt lat="47.92312" lon="6.00068">
        <ele>224</ele>
        <time>2026-05-17T09:53:51+02:00</time>
      </trkpt>
      <trkpt lat="47.92317" lon="6.00074">
        <ele>224</ele>
        <time>2026-05-17T09:53:52+02:00</time>
      </trkpt>
      <trkpt lat="47.9232" lon="6.0008">
        <ele>224</ele>
        <time>2026-05-17T09:53:53+02:00</time>
      </trkpt>
      <trkpt lat="47.92324" lon="6.00086">
        <ele>224.10059</ele>
        <time>2026-05-17T09:53:54+02:00</time>
      </trkpt>
      <trkpt lat="47.92328" lon="6.00092">
        <ele>224</ele>
        <time>2026-05-17T09:53:55+02:00</time>
      </trkpt>
      <trkpt lat="47.92331" lon="6.00098">
        <ele>224</ele>
        <time>2026-05-17T09:53:56+02:00</time>
      </trkpt>
      <trkpt lat="47.92334" lon="6.00104">
        <ele>224.10059</ele>
        <time>2026-05-17T09:53:57+02:00</time>
      </trkpt>
      <trkpt lat="47.92338" lon="6.0011">
        <ele>224</ele>
        <time>2026-05-17T09:53:58+02:00</time>
      </trkpt>
      <trkpt lat="47.92341" lon="6.00116">
        <ele>224</ele>
        <time>2026-05-17T09:53:59+02:00</time>
      </trkpt>
      <trkpt lat="47.92344" lon="6.00122">
        <ele>224</ele>
        <time>2026-05-17T09:54:00+02:00</time>
      </trkpt>
      <trkpt lat="47.92347" lon="6.00128">
        <ele>224</ele>
        <time>2026-05-17T09:54:01+02:00</time>
      </trkpt>
      <trkpt lat="47.92351" lon="6.00134">
        <ele>224</ele>
        <time>2026-05-17T09:54:02+02:00</time>
      </trkpt>
      <trkpt lat="47.92354" lon="6.0014">
        <ele>224</ele>
        <time>2026-05-17T09:54:03+02:00</time>
      </trkpt>
      <trkpt lat="47.92358" lon="6.00147">
        <ele>224</ele>
        <time>2026-05-17T09:54:04+02:00</time>
      </trkpt>
      <trkpt lat="47.92361" lon="6.00153">
        <ele>224</ele>
        <time>2026-05-17T09:54:05+02:00</time>
      </trkpt>
      <trkpt lat="47.92364" lon="6.0016">
        <ele>223.90039</ele>
        <time>2026-05-17T09:54:06+02:00</time>
      </trkpt>
      <trkpt lat="47.92368" lon="6.00167">
        <ele>223.90039</ele>
        <time>2026-05-17T09:54:07+02:00</time>
      </trkpt>
      <trkpt lat="47.92371" lon="6.00174">
        <ele>223.90039</ele>
        <time>2026-05-17T09:54:08+02:00</time>
      </trkpt>
      <trkpt lat="47.92375" lon="6.0018">
        <ele>223.90039</ele>
        <time>2026-05-17T09:54:09+02:00</time>
      </trkpt>
      <trkpt lat="47.92378" lon="6.00187">
        <ele>223.90039</ele>
        <time>2026-05-17T09:54:10+02:00</time>
      </trkpt>
      <trkpt lat="47.92381" lon="6.00194">
        <ele>223.90039</ele>
        <time>2026-05-17T09:54:11+02:00</time>
      </trkpt>
      <trkpt lat="47.92385" lon="6.00201">
        <ele>224</ele>
        <time>2026-05-17T09:54:12+02:00</time>
      </trkpt>
      <trkpt lat="47.92388" lon="6.00208">
        <ele>224</ele>
        <time>2026-05-17T09:54:13+02:00</time>
      </trkpt>
      <trkpt lat="47.92392" lon="6.00214">
        <ele>224</ele>
        <time>2026-05-17T09:54:14+02:00</time>
      </trkpt>
      <trkpt lat="47.92395" lon="6.0022">
        <ele>224</ele>
        <time>2026-05-17T09:54:15+02:00</time>
      </trkpt>
      <trkpt lat="47.92398" lon="6.00227">
        <ele>224</ele>
        <time>2026-05-17T09:54:16+02:00</time>
      </trkpt>
      <trkpt lat="47.92401" lon="6.00233">
        <ele>224.10059</ele>
        <time>2026-05-17T09:54:17+02:00</time>
      </trkpt>
      <trkpt lat="47.92404" lon="6.00239">
        <ele>224.10059</ele>
        <time>2026-05-17T09:54:18+02:00</time>
      </trkpt>
      <trkpt lat="47.92407" lon="6.00245">
        <ele>224.2002</ele>
        <time>2026-05-17T09:54:19+02:00</time>
      </trkpt>
      <trkpt lat="47.9241" lon="6.0025">
        <ele>224.2002</ele>
        <time>2026-05-17T09:54:20+02:00</time>
      </trkpt>
      <trkpt lat="47.92413" lon="6.00256">
        <ele>224.2002</ele>
        <time>2026-05-17T09:54:21+02:00</time>
      </trkpt>
      <trkpt lat="47.92416" lon="6.00261">
        <ele>224.2002</ele>
        <time>2026-05-17T09:54:22+02:00</time>
      </trkpt>
      <trkpt lat="47.92419" lon="6.00267">
        <ele>224.2998</ele>
        <time>2026-05-17T09:54:23+02:00</time>
      </trkpt>
      <trkpt lat="47.92422" lon="6.00272">
        <ele>224.2998</ele>
        <time>2026-05-17T09:54:24+02:00</time>
      </trkpt>
      <trkpt lat="47.92426" lon="6.00278">
        <ele>224.40039</ele>
        <time>2026-05-17T09:54:25+02:00</time>
      </trkpt>
      <trkpt lat="47.92429" lon="6.00284">
        <ele>224.5</ele>
        <time>2026-05-17T09:54:26+02:00</time>
      </trkpt>
      <trkpt lat="47.92433" lon="6.00291">
        <ele>224.5</ele>
        <time>2026-05-17T09:54:27+02:00</time>
      </trkpt>
      <trkpt lat="47.92436" lon="6.00297">
        <ele>224.60059</ele>
        <time>2026-05-17T09:54:28+02:00</time>
      </trkpt>
      <trkpt lat="47.92439" lon="6.00303">
        <ele>224.60059</ele>
        <time>2026-05-17T09:54:29+02:00</time>
      </trkpt>
      <trkpt lat="47.92443" lon="6.0031">
        <ele>224.7998</ele>
        <time>2026-05-17T09:54:30+02:00</time>
      </trkpt>
      <trkpt lat="47.92446" lon="6.00317">
        <ele>224.90039</ele>
        <time>2026-05-17T09:54:31+02:00</time>
      </trkpt>
      <trkpt lat="47.92449" lon="6.00324">
        <ele>225</ele>
        <time>2026-05-17T09:54:32+02:00</time>
      </trkpt>
      <trkpt lat="47.92452" lon="6.0033">
        <ele>225.10059</ele>
        <time>2026-05-17T09:54:33+02:00</time>
      </trkpt>
      <trkpt lat="47.92456" lon="6.00337">
        <ele>225.2002</ele>
        <time>2026-05-17T09:54:34+02:00</time>
      </trkpt>
      <trkpt lat="47.92459" lon="6.00344">
        <ele>225.40039</ele>
        <time>2026-05-17T09:54:35+02:00</time>
      </trkpt>
      <trkpt lat="47.92463" lon="6.0035">
        <ele>225.40039</ele>
        <time>2026-05-17T09:54:36+02:00</time>
      </trkpt>
      <trkpt lat="47.92466" lon="6.00357">
        <ele>225.5</ele>
        <time>2026-05-17T09:54:37+02:00</time>
      </trkpt>
      <trkpt lat="47.9247" lon="6.00364">
        <ele>225.60059</ele>
        <time>2026-05-17T09:54:38+02:00</time>
      </trkpt>
      <trkpt lat="47.92473" lon="6.00371">
        <ele>225.7002</ele>
        <time>2026-05-17T09:54:39+02:00</time>
      </trkpt>
      <trkpt lat="47.92476" lon="6.00377">
        <ele>225.7998</ele>
        <time>2026-05-17T09:54:40+02:00</time>
      </trkpt>
      <trkpt lat="47.9248" lon="6.00384">
        <ele>225.90039</ele>
        <time>2026-05-17T09:54:41+02:00</time>
      </trkpt>
      <trkpt lat="47.92483" lon="6.00391">
        <ele>226</ele>
        <time>2026-05-17T09:54:42+02:00</time>
      </trkpt>
      <trkpt lat="47.92487" lon="6.00397">
        <ele>226.2002</ele>
        <time>2026-05-17T09:54:43+02:00</time>
      </trkpt>
      <trkpt lat="47.92491" lon="6.00404">
        <ele>226.2998</ele>
        <time>2026-05-17T09:54:44+02:00</time>
      </trkpt>
      <trkpt lat="47.92494" lon="6.0041">
        <ele>226.40039</ele>
        <time>2026-05-17T09:54:45+02:00</time>
      </trkpt>
      <trkpt lat="47.92497" lon="6.00417">
        <ele>226.5</ele>
        <time>2026-05-17T09:54:46+02:00</time>
      </trkpt>
      <trkpt lat="47.92499" lon="6.00423">
        <ele>226.60059</ele>
        <time>2026-05-17T09:54:47+02:00</time>
      </trkpt>
      <trkpt lat="47.92502" lon="6.00429">
        <ele>226.60059</ele>
        <time>2026-05-17T09:54:48+02:00</time>
      </trkpt>
      <trkpt lat="47.92505" lon="6.00435">
        <ele>226.7002</ele>
        <time>2026-05-17T09:54:49+02:00</time>
      </trkpt>
      <trkpt lat="47.92509" lon="6.00441">
        <ele>226.90039</ele>
        <time>2026-05-17T09:54:50+02:00</time>
      </trkpt>
      <trkpt lat="47.92512" lon="6.00448">
        <ele>227</ele>
        <time>2026-05-17T09:54:51+02:00</time>
      </trkpt>
      <trkpt lat="47.92516" lon="6.00454">
        <ele>227.10059</ele>
        <time>2026-05-17T09:54:52+02:00</time>
      </trkpt>
      <trkpt lat="47.92519" lon="6.00461">
        <ele>227.2998</ele>
        <time>2026-05-17T09:54:53+02:00</time>
      </trkpt>
      <trkpt lat="47.92523" lon="6.00468">
        <ele>227.5</ele>
        <time>2026-05-17T09:54:54+02:00</time>
      </trkpt>
      <trkpt lat="47.92526" lon="6.00475">
        <ele>227.7002</ele>
        <time>2026-05-17T09:54:55+02:00</time>
      </trkpt>
      <trkpt lat="47.92529" lon="6.00482">
        <ele>227.7998</ele>
        <time>2026-05-17T09:54:56+02:00</time>
      </trkpt>
      <trkpt lat="47.92533" lon="6.00489">
        <ele>227.90039</ele>
        <time>2026-05-17T09:54:57+02:00</time>
      </trkpt>
      <trkpt lat="47.92536" lon="6.00496">
        <ele>227.90039</ele>
        <time>2026-05-17T09:54:58+02:00</time>
      </trkpt>
      <trkpt lat="47.9254" lon="6.00503">
        <ele>228</ele>
        <time>2026-05-17T09:54:59+02:00</time>
      </trkpt>
      <trkpt lat="47.92544" lon="6.0051">
        <ele>228</ele>
        <time>2026-05-17T09:55:00+02:00</time>
      </trkpt>
      <trkpt lat="47.92547" lon="6.00516">
        <ele>228</ele>
        <time>2026-05-17T09:55:01+02:00</time>
      </trkpt>
      <trkpt lat="47.9255" lon="6.00523">
        <ele>227.90039</ele>
        <time>2026-05-17T09:55:02+02:00</time>
      </trkpt>
      <trkpt lat="47.92553" lon="6.0053">
        <ele>227.90039</ele>
        <time>2026-05-17T09:55:03+02:00</time>
      </trkpt>
      <trkpt lat="47.92557" lon="6.00537">
        <ele>227.90039</ele>
        <time>2026-05-17T09:55:04+02:00</time>
      </trkpt>
      <trkpt lat="47.9256" lon="6.00544">
        <ele>227.90039</ele>
        <time>2026-05-17T09:55:05+02:00</time>
      </trkpt>
      <trkpt lat="47.92563" lon="6.00551">
        <ele>227.90039</ele>
        <time>2026-05-17T09:55:06+02:00</time>
      </trkpt>
      <trkpt lat="47.92567" lon="6.00557">
        <ele>227.90039</ele>
        <time>2026-05-17T09:55:07+02:00</time>
      </trkpt>
      <trkpt lat="47.9257" lon="6.00564">
        <ele>227.90039</ele>
        <time>2026-05-17T09:55:08+02:00</time>
      </trkpt>
      <trkpt lat="47.92573" lon="6.00571">
        <ele>228</ele>
        <time>2026-05-17T09:55:09+02:00</time>
      </trkpt>
      <trkpt lat="47.92577" lon="6.00578">
        <ele>228</ele>
        <time>2026-05-17T09:55:10+02:00</time>
      </trkpt>
      <trkpt lat="47.92579" lon="6.00584">
        <ele>228</ele>
        <time>2026-05-17T09:55:11+02:00</time>
      </trkpt>
      <trkpt lat="47.92582" lon="6.0059">
        <ele>228</ele>
        <time>2026-05-17T09:55:12+02:00</time>
      </trkpt>
      <trkpt lat="47.92584" lon="6.00595">
        <ele>228.10059</ele>
        <time>2026-05-17T09:55:13+02:00</time>
      </trkpt>
      <trkpt lat="47.92586" lon="6.00598">
        <ele>228.10059</ele>
        <time>2026-05-17T09:55:14+02:00</time>
      </trkpt>
      <trkpt lat="47.92587" lon="6.00602">
        <ele>228.10059</ele>
        <time>2026-05-17T09:55:15+02:00</time>
      </trkpt>
      <trkpt lat="47.92589" lon="6.00605">
        <ele>228.10059</ele>
        <time>2026-05-17T09:55:16+02:00</time>
      </trkpt>
      <trkpt lat="47.9259" lon="6.00609">
        <ele>228.2002</ele>
        <time>2026-05-17T09:55:17+02:00</time>
      </trkpt>
      <trkpt lat="47.92591" lon="6.00613">
        <ele>228.2002</ele>
        <time>2026-05-17T09:55:18+02:00</time>
      </trkpt>
      <trkpt lat="47.92593" lon="6.00618">
        <ele>228.2998</ele>
        <time>2026-05-17T09:55:19+02:00</time>
      </trkpt>
      <trkpt lat="47.92594" lon="6.00624">
        <ele>228.2998</ele>
        <time>2026-05-17T09:55:20+02:00</time>
      </trkpt>
      <trkpt lat="47.92596" lon="6.0063">
        <ele>228.40039</ele>
        <time>2026-05-17T09:55:21+02:00</time>
      </trkpt>
      <trkpt lat="47.92598" lon="6.00636">
        <ele>228.5</ele>
        <time>2026-05-17T09:55:22+02:00</time>
      </trkpt>
      <trkpt lat="47.92601" lon="6.00642">
        <ele>228.5</ele>
        <time>2026-05-17T09:55:23+02:00</time>
      </trkpt>
      <trkpt lat="47.92603" lon="6.00649">
        <ele>228.60059</ele>
        <time>2026-05-17T09:55:24+02:00</time>
      </trkpt>
      <trkpt lat="47.92605" lon="6.00655">
        <ele>228.7002</ele>
        <time>2026-05-17T09:55:25+02:00</time>
      </trkpt>
      <trkpt lat="47.92607" lon="6.00663">
        <ele>228.7998</ele>
        <time>2026-05-17T09:55:26+02:00</time>
      </trkpt>
      <trkpt lat="47.92609" lon="6.0067">
        <ele>228.90039</ele>
        <time>2026-05-17T09:55:27+02:00</time>
      </trkpt>
      <trkpt lat="47.92611" lon="6.00677">
        <ele>228.90039</ele>
        <time>2026-05-17T09:55:28+02:00</time>
      </trkpt>
      <trkpt lat="47.92613" lon="6.00685">
        <ele>229</ele>
        <time>2026-05-17T09:55:29+02:00</time>
      </trkpt>
      <trkpt lat="47.92615" lon="6.00693">
        <ele>229.10059</ele>
        <time>2026-05-17T09:55:30+02:00</time>
      </trkpt>
      <trkpt lat="47.92617" lon="6.007">
        <ele>229.2998</ele>
        <time>2026-05-17T09:55:31+02:00</time>
      </trkpt>
      <trkpt lat="47.92619" lon="6.00708">
        <ele>229.2002</ele>
        <time>2026-05-17T09:55:32+02:00</time>
      </trkpt>
      <trkpt lat="47.92621" lon="6.00716">
        <ele>229.2998</ele>
        <time>2026-05-17T09:55:33+02:00</time>
      </trkpt>
      <trkpt lat="47.92623" lon="6.00724">
        <ele>229.40039</ele>
        <time>2026-05-17T09:55:34+02:00</time>
      </trkpt>
      <trkpt lat="47.92625" lon="6.00731">
        <ele>229.2002</ele>
        <time>2026-05-17T09:55:35+02:00</time>
      </trkpt>
      <trkpt lat="47.92627" lon="6.00739">
        <ele>229.2998</ele>
        <time>2026-05-17T09:55:36+02:00</time>
      </trkpt>
      <trkpt lat="47.92629" lon="6.00747">
        <ele>229.2998</ele>
        <time>2026-05-17T09:55:37+02:00</time>
      </trkpt>
      <trkpt lat="47.92631" lon="6.00755">
        <ele>229.10059</ele>
        <time>2026-05-17T09:55:38+02:00</time>
      </trkpt>
      <trkpt lat="47.92632" lon="6.00763">
        <ele>229.10059</ele>
        <time>2026-05-17T09:55:39+02:00</time>
      </trkpt>
      <trkpt lat="47.92634" lon="6.00771">
        <ele>229.2002</ele>
        <time>2026-05-17T09:55:40+02:00</time>
      </trkpt>
      <trkpt lat="47.92635" lon="6.0078">
        <ele>229.40039</ele>
        <time>2026-05-17T09:55:41+02:00</time>
      </trkpt>
      <trkpt lat="47.92637" lon="6.00788">
        <ele>229.10059</ele>
        <time>2026-05-17T09:55:42+02:00</time>
      </trkpt>
      <trkpt lat="47.92638" lon="6.00796">
        <ele>229.2998</ele>
        <time>2026-05-17T09:55:43+02:00</time>
      </trkpt>
      <trkpt lat="47.92639" lon="6.00804">
        <ele>229.5</ele>
        <time>2026-05-17T09:55:44+02:00</time>
      </trkpt>
      <trkpt lat="47.92641" lon="6.00813">
        <ele>229.2002</ele>
        <time>2026-05-17T09:55:45+02:00</time>
      </trkpt>
      <trkpt lat="47.92642" lon="6.00821">
        <ele>229.7002</ele>
        <time>2026-05-17T09:55:46+02:00</time>
      </trkpt>
      <trkpt lat="47.92643" lon="6.00829">
        <ele>230.2002</ele>
        <time>2026-05-17T09:55:47+02:00</time>
      </trkpt>
      <trkpt lat="47.92644" lon="6.00838">
        <ele>230.5</ele>
        <time>2026-05-17T09:55:48+02:00</time>
      </trkpt>
      <trkpt lat="47.92645" lon="6.00846">
        <ele>230.90039</ele>
        <time>2026-05-17T09:55:49+02:00</time>
      </trkpt>
      <trkpt lat="47.92646" lon="6.00854">
        <ele>231.2002</ele>
        <time>2026-05-17T09:55:50+02:00</time>
      </trkpt>
      <trkpt lat="47.92646" lon="6.00863">
        <ele>231.5</ele>
        <time>2026-05-17T09:55:51+02:00</time>
      </trkpt>
      <trkpt lat="47.92647" lon="6.00871">
        <ele>231.10059</ele>
        <time>2026-05-17T09:55:52+02:00</time>
      </trkpt>
      <trkpt lat="47.92647" lon="6.00879">
        <ele>231.2002</ele>
        <time>2026-05-17T09:55:53+02:00</time>
      </trkpt>
      <trkpt lat="47.92648" lon="6.00887">
        <ele>231.2998</ele>
        <time>2026-05-17T09:55:54+02:00</time>
      </trkpt>
      <trkpt lat="47.92649" lon="6.00896">
        <ele>231.40039</ele>
        <time>2026-05-17T09:55:55+02:00</time>
      </trkpt>
      <trkpt lat="47.92649" lon="6.00904">
        <ele>231.40039</ele>
        <time>2026-05-17T09:55:56+02:00</time>
      </trkpt>
      <trkpt lat="47.9265" lon="6.00913">
        <ele>231.5</ele>
        <time>2026-05-17T09:55:57+02:00</time>
      </trkpt>
      <trkpt lat="47.9265" lon="6.00921">
        <ele>231.5</ele>
        <time>2026-05-17T09:55:58+02:00</time>
      </trkpt>
      <trkpt lat="47.92651" lon="6.0093">
        <ele>231.5</ele>
        <time>2026-05-17T09:55:59+02:00</time>
      </trkpt>
      <trkpt lat="47.92652" lon="6.00938">
        <ele>231.5</ele>
        <time>2026-05-17T09:56:00+02:00</time>
      </trkpt>
      <trkpt lat="47.92653" lon="6.00947">
        <ele>230.90039</ele>
        <time>2026-05-17T09:56:01+02:00</time>
      </trkpt>
      <trkpt lat="47.92653" lon="6.00955">
        <ele>230.90039</ele>
        <time>2026-05-17T09:56:02+02:00</time>
      </trkpt>
      <trkpt lat="47.92654" lon="6.00964">
        <ele>230.90039</ele>
        <time>2026-05-17T09:56:03+02:00</time>
      </trkpt>
      <trkpt lat="47.92655" lon="6.00972">
        <ele>230.90039</ele>
        <time>2026-05-17T09:56:04+02:00</time>
      </trkpt>
      <trkpt lat="47.92656" lon="6.00981">
        <ele>230.90039</ele>
        <time>2026-05-17T09:56:05+02:00</time>
      </trkpt>
      <trkpt lat="47.92656" lon="6.0099">
        <ele>231</ele>
        <time>2026-05-17T09:56:06+02:00</time>
      </trkpt>
      <trkpt lat="47.92657" lon="6.00998">
        <ele>231</ele>
        <time>2026-05-17T09:56:07+02:00</time>
      </trkpt>
      <trkpt lat="47.92658" lon="6.01007">
        <ele>231</ele>
        <time>2026-05-17T09:56:08+02:00</time>
      </trkpt>
      <trkpt lat="47.92659" lon="6.01016">
        <ele>230.40039</ele>
        <time>2026-05-17T09:56:09+02:00</time>
      </trkpt>
      <trkpt lat="47.9266" lon="6.01024">
        <ele>230.40039</ele>
        <time>2026-05-17T09:56:10+02:00</time>
      </trkpt>
      <trkpt lat="47.9266" lon="6.01032">
        <ele>230.5</ele>
        <time>2026-05-17T09:56:11+02:00</time>
      </trkpt>
      <trkpt lat="47.92661" lon="6.01041">
        <ele>230.7002</ele>
        <time>2026-05-17T09:56:12+02:00</time>
      </trkpt>
      <trkpt lat="47.92661" lon="6.01049">
        <ele>230.90039</ele>
        <time>2026-05-17T09:56:13+02:00</time>
      </trkpt>
      <trkpt lat="47.92662" lon="6.01057">
        <ele>231.10059</ele>
        <time>2026-05-17T09:56:14+02:00</time>
      </trkpt>
      <trkpt lat="47.92663" lon="6.01066">
        <ele>231.40039</ele>
        <time>2026-05-17T09:56:15+02:00</time>
      </trkpt>
      <trkpt lat="47.92664" lon="6.01074">
        <ele>230.90039</ele>
        <time>2026-05-17T09:56:16+02:00</time>
      </trkpt>
      <trkpt lat="47.92665" lon="6.01082">
        <ele>231.2998</ele>
        <time>2026-05-17T09:56:17+02:00</time>
      </trkpt>
      <trkpt lat="47.92667" lon="6.0109">
        <ele>231.60059</ele>
        <time>2026-05-17T09:56:18+02:00</time>
      </trkpt>
      <trkpt lat="47.92668" lon="6.01098">
        <ele>231.60059</ele>
        <time>2026-05-17T09:56:19+02:00</time>
      </trkpt>
      <trkpt lat="47.92669" lon="6.01107">
        <ele>232.10059</ele>
        <time>2026-05-17T09:56:20+02:00</time>
      </trkpt>
      <trkpt lat="47.9267" lon="6.01115">
        <ele>231.7998</ele>
        <time>2026-05-17T09:56:21+02:00</time>
      </trkpt>
      <trkpt lat="47.92671" lon="6.01123">
        <ele>231.90039</ele>
        <time>2026-05-17T09:56:22+02:00</time>
      </trkpt>
      <trkpt lat="47.92672" lon="6.01131">
        <ele>232</ele>
        <time>2026-05-17T09:56:23+02:00</time>
      </trkpt>
      <trkpt lat="47.92674" lon="6.01139">
        <ele>231.90039</ele>
        <time>2026-05-17T09:56:24+02:00</time>
      </trkpt>
      <trkpt lat="47.92676" lon="6.01148">
        <ele>231.40039</ele>
        <time>2026-05-17T09:56:25+02:00</time>
      </trkpt>
      <trkpt lat="47.92677" lon="6.01155">
        <ele>231.2998</ele>
        <time>2026-05-17T09:56:26+02:00</time>
      </trkpt>
      <trkpt lat="47.92679" lon="6.01163">
        <ele>231.2998</ele>
        <time>2026-05-17T09:56:27+02:00</time>
      </trkpt>
      <trkpt lat="47.9268" lon="6.01171">
        <ele>231.2998</ele>
        <time>2026-05-17T09:56:28+02:00</time>
      </trkpt>
      <trkpt lat="47.92682" lon="6.01178">
        <ele>230.7002</ele>
        <time>2026-05-17T09:56:29+02:00</time>
      </trkpt>
      <trkpt lat="47.92684" lon="6.01186">
        <ele>230.60059</ele>
        <time>2026-05-17T09:56:30+02:00</time>
      </trkpt>
      <trkpt lat="47.92687" lon="6.01193">
        <ele>230.10059</ele>
        <time>2026-05-17T09:56:31+02:00</time>
      </trkpt>
      <trkpt lat="47.92689" lon="6.012">
        <ele>230.10059</ele>
        <time>2026-05-17T09:56:32+02:00</time>
      </trkpt>
      <trkpt lat="47.92692" lon="6.01207">
        <ele>230.2002</ele>
        <time>2026-05-17T09:56:33+02:00</time>
      </trkpt>
      <trkpt lat="47.92695" lon="6.01213">
        <ele>229.7002</ele>
        <time>2026-05-17T09:56:34+02:00</time>
      </trkpt>
      <trkpt lat="47.92697" lon="6.0122">
        <ele>229.7998</ele>
        <time>2026-05-17T09:56:35+02:00</time>
      </trkpt>
      <trkpt lat="47.927" lon="6.01226">
        <ele>229.2002</ele>
        <time>2026-05-17T09:56:36+02:00</time>
      </trkpt>
      <trkpt lat="47.92702" lon="6.01233">
        <ele>229.2998</ele>
        <time>2026-05-17T09:56:37+02:00</time>
      </trkpt>
      <trkpt lat="47.92705" lon="6.01239">
        <ele>229</ele>
        <time>2026-05-17T09:56:38+02:00</time>
      </trkpt>
      <trkpt lat="47.92708" lon="6.01247">
        <ele>229.5</ele>
        <time>2026-05-17T09:56:39+02:00</time>
      </trkpt>
      <trkpt lat="47.92711" lon="6.01254">
        <ele>229.60059</ele>
        <time>2026-05-17T09:56:40+02:00</time>
      </trkpt>
      <trkpt lat="47.92714" lon="6.01261">
        <ele>229.60059</ele>
        <time>2026-05-17T09:56:41+02:00</time>
      </trkpt>
      <trkpt lat="47.92717" lon="6.01267">
        <ele>229.7002</ele>
        <time>2026-05-17T09:56:42+02:00</time>
      </trkpt>
      <trkpt lat="47.92719" lon="6.01273">
        <ele>230</ele>
        <time>2026-05-17T09:56:43+02:00</time>
      </trkpt>
      <trkpt lat="47.92722" lon="6.0128">
        <ele>230</ele>
        <time>2026-05-17T09:56:44+02:00</time>
      </trkpt>
      <trkpt lat="47.92725" lon="6.01287">
        <ele>230.5</ele>
        <time>2026-05-17T09:56:45+02:00</time>
      </trkpt>
      <trkpt lat="47.92728" lon="6.01294">
        <ele>230.2998</ele>
        <time>2026-05-17T09:56:46+02:00</time>
      </trkpt>
      <trkpt lat="47.92731" lon="6.01301">
        <ele>230.60059</ele>
        <time>2026-05-17T09:56:47+02:00</time>
      </trkpt>
      <trkpt lat="47.92734" lon="6.01307">
        <ele>230.60059</ele>
        <time>2026-05-17T09:56:48+02:00</time>
      </trkpt>
      <trkpt lat="47.92736" lon="6.01314">
        <ele>230.7002</ele>
        <time>2026-05-17T09:56:49+02:00</time>
      </trkpt>
      <trkpt lat="47.92739" lon="6.01321">
        <ele>230.2998</ele>
        <time>2026-05-17T09:56:50+02:00</time>
      </trkpt>
      <trkpt lat="47.92742" lon="6.01328">
        <ele>230.40039</ele>
        <time>2026-05-17T09:56:51+02:00</time>
      </trkpt>
      <trkpt lat="47.92745" lon="6.01334">
        <ele>230</ele>
        <time>2026-05-17T09:56:52+02:00</time>
      </trkpt>
      <trkpt lat="47.92748" lon="6.01341">
        <ele>230.2998</ele>
        <time>2026-05-17T09:56:53+02:00</time>
      </trkpt>
      <trkpt lat="47.92751" lon="6.01348">
        <ele>230.40039</ele>
        <time>2026-05-17T09:56:54+02:00</time>
      </trkpt>
      <trkpt lat="47.92754" lon="6.01355">
        <ele>230.40039</ele>
        <time>2026-05-17T09:56:55+02:00</time>
      </trkpt>
      <trkpt lat="47.92758" lon="6.01362">
        <ele>230.7002</ele>
        <time>2026-05-17T09:56:56+02:00</time>
      </trkpt>
      <trkpt lat="47.92761" lon="6.01368">
        <ele>231.2002</ele>
        <time>2026-05-17T09:56:57+02:00</time>
      </trkpt>
      <trkpt lat="47.92763" lon="6.01375">
        <ele>231.2998</ele>
        <time>2026-05-17T09:56:58+02:00</time>
      </trkpt>
      <trkpt lat="47.92766" lon="6.01381">
        <ele>231.2998</ele>
        <time>2026-05-17T09:56:59+02:00</time>
      </trkpt>
      <trkpt lat="47.92769" lon="6.01388">
        <ele>231.2998</ele>
        <time>2026-05-17T09:57:00+02:00</time>
      </trkpt>
      <trkpt lat="47.92772" lon="6.01395">
        <ele>231.7998</ele>
        <time>2026-05-17T09:57:01+02:00</time>
      </trkpt>
      <trkpt lat="47.92775" lon="6.01401">
        <ele>232</ele>
        <time>2026-05-17T09:57:02+02:00</time>
      </trkpt>
      <trkpt lat="47.92777" lon="6.01408">
        <ele>232.2998</ele>
        <time>2026-05-17T09:57:03+02:00</time>
      </trkpt>
      <trkpt lat="47.9278" lon="6.01415">
        <ele>231.7998</ele>
        <time>2026-05-17T09:57:04+02:00</time>
      </trkpt>
      <trkpt lat="47.92783" lon="6.01422">
        <ele>231.90039</ele>
        <time>2026-05-17T09:57:05+02:00</time>
      </trkpt>
      <trkpt lat="47.92787" lon="6.01429">
        <ele>231.40039</ele>
        <time>2026-05-17T09:57:06+02:00</time>
      </trkpt>
      <trkpt lat="47.9279" lon="6.01435">
        <ele>231.60059</ele>
        <time>2026-05-17T09:57:07+02:00</time>
      </trkpt>
      <trkpt lat="47.92792" lon="6.01442">
        <ele>231.2002</ele>
        <time>2026-05-17T09:57:08+02:00</time>
      </trkpt>
      <trkpt lat="47.92795" lon="6.01449">
        <ele>231.2002</ele>
        <time>2026-05-17T09:57:09+02:00</time>
      </trkpt>
      <trkpt lat="47.92798" lon="6.01456">
        <ele>231.2002</ele>
        <time>2026-05-17T09:57:10+02:00</time>
      </trkpt>
      <trkpt lat="47.92801" lon="6.01462">
        <ele>231.5</ele>
        <time>2026-05-17T09:57:11+02:00</time>
      </trkpt>
      <trkpt lat="47.92804" lon="6.01469">
        <ele>231.40039</ele>
        <time>2026-05-17T09:57:12+02:00</time>
      </trkpt>
      <trkpt lat="47.92807" lon="6.01476">
        <ele>231.5</ele>
        <time>2026-05-17T09:57:13+02:00</time>
      </trkpt>
      <trkpt lat="47.92809" lon="6.01483">
        <ele>231.10059</ele>
        <time>2026-05-17T09:57:14+02:00</time>
      </trkpt>
      <trkpt lat="47.92812" lon="6.0149">
        <ele>231.10059</ele>
        <time>2026-05-17T09:57:15+02:00</time>
      </trkpt>
      <trkpt lat="47.92815" lon="6.01497">
        <ele>230.7002</ele>
        <time>2026-05-17T09:57:16+02:00</time>
      </trkpt>
      <trkpt lat="47.92818" lon="6.01504">
        <ele>230.7998</ele>
        <time>2026-05-17T09:57:17+02:00</time>
      </trkpt>
      <trkpt lat="47.92821" lon="6.0151">
        <ele>230.2998</ele>
        <time>2026-05-17T09:57:18+02:00</time>
      </trkpt>
      <trkpt lat="47.92824" lon="6.01517">
        <ele>230.7002</ele>
        <time>2026-05-17T09:57:19+02:00</time>
      </trkpt>
      <trkpt lat="47.92828" lon="6.01524">
        <ele>230.90039</ele>
        <time>2026-05-17T09:57:20+02:00</time>
      </trkpt>
      <trkpt lat="47.92831" lon="6.0153">
        <ele>230.7998</ele>
        <time>2026-05-17T09:57:21+02:00</time>
      </trkpt>
      <trkpt lat="47.92833" lon="6.01537">
        <ele>230.7002</ele>
        <time>2026-05-17T09:57:22+02:00</time>
      </trkpt>
      <trkpt lat="47.92836" lon="6.01544">
        <ele>230.7002</ele>
        <time>2026-05-17T09:57:23+02:00</time>
      </trkpt>
      <trkpt lat="47.92839" lon="6.01551">
        <ele>230.10059</ele>
        <time>2026-05-17T09:57:24+02:00</time>
      </trkpt>
      <trkpt lat="47.92842" lon="6.01558">
        <ele>229.5</ele>
        <time>2026-05-17T09:57:25+02:00</time>
      </trkpt>
      <trkpt lat="47.92845" lon="6.01565">
        <ele>229.60059</ele>
        <time>2026-05-17T09:57:26+02:00</time>
      </trkpt>
      <trkpt lat="47.92848" lon="6.01572">
        <ele>229.7998</ele>
        <time>2026-05-17T09:57:27+02:00</time>
      </trkpt>
      <trkpt lat="47.9285" lon="6.01579">
        <ele>229.2998</ele>
        <time>2026-05-17T09:57:28+02:00</time>
      </trkpt>
      <trkpt lat="47.92853" lon="6.01586">
        <ele>229.2998</ele>
        <time>2026-05-17T09:57:29+02:00</time>
      </trkpt>
      <trkpt lat="47.92856" lon="6.01594">
        <ele>228.7998</ele>
        <time>2026-05-17T09:57:30+02:00</time>
      </trkpt>
      <trkpt lat="47.92859" lon="6.01601">
        <ele>229.2998</ele>
        <time>2026-05-17T09:57:31+02:00</time>
      </trkpt>
      <trkpt lat="47.92861" lon="6.01608">
        <ele>229.40039</ele>
        <time>2026-05-17T09:57:32+02:00</time>
      </trkpt>
      <trkpt lat="47.92864" lon="6.01616">
        <ele>229.90039</ele>
        <time>2026-05-17T09:57:33+02:00</time>
      </trkpt>
      <trkpt lat="47.92867" lon="6.01624">
        <ele>229.7998</ele>
        <time>2026-05-17T09:57:34+02:00</time>
      </trkpt>
      <trkpt lat="47.92869" lon="6.01631">
        <ele>230.10059</ele>
        <time>2026-05-17T09:57:35+02:00</time>
      </trkpt>
      <trkpt lat="47.92872" lon="6.01639">
        <ele>229.5</ele>
        <time>2026-05-17T09:57:36+02:00</time>
      </trkpt>
      <trkpt lat="47.92875" lon="6.01647">
        <ele>229.5</ele>
        <time>2026-05-17T09:57:37+02:00</time>
      </trkpt>
      <trkpt lat="47.92877" lon="6.01654">
        <ele>228.7998</ele>
        <time>2026-05-17T09:57:38+02:00</time>
      </trkpt>
      <trkpt lat="47.92879" lon="6.01662">
        <ele>229.2002</ele>
        <time>2026-05-17T09:57:39+02:00</time>
      </trkpt>
      <trkpt lat="47.92882" lon="6.0167">
        <ele>230.10059</ele>
        <time>2026-05-17T09:57:40+02:00</time>
      </trkpt>
      <trkpt lat="47.92883" lon="6.01678">
        <ele>230.60059</ele>
        <time>2026-05-17T09:57:41+02:00</time>
      </trkpt>
      <trkpt lat="47.92885" lon="6.01685">
        <ele>231.10059</ele>
        <time>2026-05-17T09:57:42+02:00</time>
      </trkpt>
      <trkpt lat="47.92887" lon="6.01693">
        <ele>231.2998</ele>
        <time>2026-05-17T09:57:43+02:00</time>
      </trkpt>
      <trkpt lat="47.92889" lon="6.01701">
        <ele>230.7002</ele>
        <time>2026-05-17T09:57:44+02:00</time>
      </trkpt>
      <trkpt lat="47.92891" lon="6.01709">
        <ele>230.5</ele>
        <time>2026-05-17T09:57:45+02:00</time>
      </trkpt>
      <trkpt lat="47.92893" lon="6.01717">
        <ele>230.40039</ele>
        <time>2026-05-17T09:57:46+02:00</time>
      </trkpt>
      <trkpt lat="47.92895" lon="6.01724">
        <ele>229.60059</ele>
        <time>2026-05-17T09:57:47+02:00</time>
      </trkpt>
      <trkpt lat="47.92897" lon="6.01732">
        <ele>229.60059</ele>
        <time>2026-05-17T09:57:48+02:00</time>
      </trkpt>
      <trkpt lat="47.92899" lon="6.0174">
        <ele>229.60059</ele>
        <time>2026-05-17T09:57:49+02:00</time>
      </trkpt>
      <trkpt lat="47.92901" lon="6.01748">
        <ele>229</ele>
        <time>2026-05-17T09:57:50+02:00</time>
      </trkpt>
      <trkpt lat="47.92903" lon="6.01756">
        <ele>229</ele>
        <time>2026-05-17T09:57:51+02:00</time>
      </trkpt>
      <trkpt lat="47.92904" lon="6.01764">
        <ele>229.10059</ele>
        <time>2026-05-17T09:57:52+02:00</time>
      </trkpt>
      <trkpt lat="47.92906" lon="6.01772">
        <ele>228.7002</ele>
        <time>2026-05-17T09:57:53+02:00</time>
      </trkpt>
      <trkpt lat="47.92907" lon="6.0178">
        <ele>228.7998</ele>
        <time>2026-05-17T09:57:54+02:00</time>
      </trkpt>
      <trkpt lat="47.92908" lon="6.01788">
        <ele>228.90039</ele>
        <time>2026-05-17T09:57:55+02:00</time>
      </trkpt>
      <trkpt lat="47.92909" lon="6.01796">
        <ele>229.2998</ele>
        <time>2026-05-17T09:57:56+02:00</time>
      </trkpt>
      <trkpt lat="47.92911" lon="6.01804">
        <ele>229.40039</ele>
        <time>2026-05-17T09:57:57+02:00</time>
      </trkpt>
      <trkpt lat="47.92912" lon="6.01811">
        <ele>229.90039</ele>
        <time>2026-05-17T09:57:58+02:00</time>
      </trkpt>
      <trkpt lat="47.92913" lon="6.01819">
        <ele>229.90039</ele>
        <time>2026-05-17T09:57:59+02:00</time>
      </trkpt>
      <trkpt lat="47.92914" lon="6.01826">
        <ele>230.10059</ele>
        <time>2026-05-17T09:58:00+02:00</time>
      </trkpt>
      <trkpt lat="47.92915" lon="6.01834">
        <ele>230.2998</ele>
        <time>2026-05-17T09:58:01+02:00</time>
      </trkpt>
      <trkpt lat="47.92915" lon="6.01842">
        <ele>230.5</ele>
        <time>2026-05-17T09:58:02+02:00</time>
      </trkpt>
      <trkpt lat="47.92916" lon="6.0185">
        <ele>230.5</ele>
        <time>2026-05-17T09:58:03+02:00</time>
      </trkpt>
      <trkpt lat="47.92917" lon="6.01858">
        <ele>230</ele>
        <time>2026-05-17T09:58:04+02:00</time>
      </trkpt>
      <trkpt lat="47.92918" lon="6.01866">
        <ele>230</ele>
        <time>2026-05-17T09:58:05+02:00</time>
      </trkpt>
      <trkpt lat="47.92918" lon="6.01874">
        <ele>230</ele>
        <time>2026-05-17T09:58:06+02:00</time>
      </trkpt>
      <trkpt lat="47.92919" lon="6.01882">
        <ele>230</ele>
        <time>2026-05-17T09:58:07+02:00</time>
      </trkpt>
      <trkpt lat="47.9292" lon="6.01891">
        <ele>230</ele>
        <time>2026-05-17T09:58:08+02:00</time>
      </trkpt>
      <trkpt lat="47.9292" lon="6.01899">
        <ele>230</ele>
        <time>2026-05-17T09:58:09+02:00</time>
      </trkpt>
      <trkpt lat="47.9292" lon="6.01908">
        <ele>230.10059</ele>
        <time>2026-05-17T09:58:10+02:00</time>
      </trkpt>
      <trkpt lat="47.92921" lon="6.01916">
        <ele>230.10059</ele>
        <time>2026-05-17T09:58:11+02:00</time>
      </trkpt>
      <trkpt lat="47.92922" lon="6.01924">
        <ele>230.10059</ele>
        <time>2026-05-17T09:58:12+02:00</time>
      </trkpt>
      <trkpt lat="47.92922" lon="6.01932">
        <ele>230.10059</ele>
        <time>2026-05-17T09:58:13+02:00</time>
      </trkpt>
      <trkpt lat="47.92922" lon="6.0194">
        <ele>230</ele>
        <time>2026-05-17T09:58:14+02:00</time>
      </trkpt>
      <trkpt lat="47.92922" lon="6.01948">
        <ele>230</ele>
        <time>2026-05-17T09:58:15+02:00</time>
      </trkpt>
      <trkpt lat="47.92923" lon="6.01957">
        <ele>229.5</ele>
        <time>2026-05-17T09:58:16+02:00</time>
      </trkpt>
      <trkpt lat="47.92923" lon="6.01965">
        <ele>229.5</ele>
        <time>2026-05-17T09:58:17+02:00</time>
      </trkpt>
      <trkpt lat="47.92923" lon="6.01972">
        <ele>229.5</ele>
        <time>2026-05-17T09:58:18+02:00</time>
      </trkpt>
      <trkpt lat="47.92923" lon="6.01981">
        <ele>229.5</ele>
        <time>2026-05-17T09:58:19+02:00</time>
      </trkpt>
      <trkpt lat="47.92923" lon="6.01989">
        <ele>229.5</ele>
        <time>2026-05-17T09:58:20+02:00</time>
      </trkpt>
      <trkpt lat="47.92924" lon="6.01997">
        <ele>229.40039</ele>
        <time>2026-05-17T09:58:21+02:00</time>
      </trkpt>
      <trkpt lat="47.92924" lon="6.02005">
        <ele>229.40039</ele>
        <time>2026-05-17T09:58:22+02:00</time>
      </trkpt>
      <trkpt lat="47.92925" lon="6.02013">
        <ele>229.40039</ele>
        <time>2026-05-17T09:58:23+02:00</time>
      </trkpt>
      <trkpt lat="47.92925" lon="6.02021">
        <ele>229.2998</ele>
        <time>2026-05-17T09:58:24+02:00</time>
      </trkpt>
      <trkpt lat="47.92925" lon="6.02029">
        <ele>229.2998</ele>
        <time>2026-05-17T09:58:25+02:00</time>
      </trkpt>
      <trkpt lat="47.92925" lon="6.02037">
        <ele>229.2002</ele>
        <time>2026-05-17T09:58:26+02:00</time>
      </trkpt>
      <trkpt lat="47.92925" lon="6.02045">
        <ele>229.2002</ele>
        <time>2026-05-17T09:58:27+02:00</time>
      </trkpt>
      <trkpt lat="47.92926" lon="6.02053">
        <ele>229.2002</ele>
        <time>2026-05-17T09:58:28+02:00</time>
      </trkpt>
      <trkpt lat="47.92926" lon="6.02061">
        <ele>229.10059</ele>
        <time>2026-05-17T09:58:29+02:00</time>
      </trkpt>
      <trkpt lat="47.92926" lon="6.02069">
        <ele>229.10059</ele>
        <time>2026-05-17T09:58:30+02:00</time>
      </trkpt>
      <trkpt lat="47.92927" lon="6.02077">
        <ele>229.10059</ele>
        <time>2026-05-17T09:58:31+02:00</time>
      </trkpt>
      <trkpt lat="47.92927" lon="6.02085">
        <ele>229.10059</ele>
        <time>2026-05-17T09:58:32+02:00</time>
      </trkpt>
      <trkpt lat="47.92927" lon="6.02093">
        <ele>229.10059</ele>
        <time>2026-05-17T09:58:33+02:00</time>
      </trkpt>
      <trkpt lat="47.92927" lon="6.02101">
        <ele>229.10059</ele>
        <time>2026-05-17T09:58:34+02:00</time>
      </trkpt>
      <trkpt lat="47.92928" lon="6.02109">
        <ele>229.10059</ele>
        <time>2026-05-17T09:58:35+02:00</time>
      </trkpt>
      <trkpt lat="47.92928" lon="6.02117">
        <ele>229.10059</ele>
        <time>2026-05-17T09:58:36+02:00</time>
      </trkpt>
      <trkpt lat="47.92928" lon="6.02125">
        <ele>229.10059</ele>
        <time>2026-05-17T09:58:37+02:00</time>
      </trkpt>
      <trkpt lat="47.92928" lon="6.02134">
        <ele>229.10059</ele>
        <time>2026-05-17T09:58:38+02:00</time>
      </trkpt>
      <trkpt lat="47.92929" lon="6.02143">
        <ele>228.90039</ele>
        <time>2026-05-17T09:58:39+02:00</time>
      </trkpt>
      <trkpt lat="47.9293" lon="6.02151">
        <ele>229</ele>
        <time>2026-05-17T09:58:40+02:00</time>
      </trkpt>
      <trkpt lat="47.9293" lon="6.0216">
        <ele>229</ele>
        <time>2026-05-17T09:58:41+02:00</time>
      </trkpt>
      <trkpt lat="47.9293" lon="6.02168">
        <ele>229</ele>
        <time>2026-05-17T09:58:42+02:00</time>
      </trkpt>
      <trkpt lat="47.92931" lon="6.02177">
        <ele>229</ele>
        <time>2026-05-17T09:58:43+02:00</time>
      </trkpt>
      <trkpt lat="47.92931" lon="6.02185">
        <ele>229.10059</ele>
        <time>2026-05-17T09:58:44+02:00</time>
      </trkpt>
      <trkpt lat="47.92931" lon="6.02193">
        <ele>229.10059</ele>
        <time>2026-05-17T09:58:45+02:00</time>
      </trkpt>
      <trkpt lat="47.92931" lon="6.02201">
        <ele>229.10059</ele>
        <time>2026-05-17T09:58:46+02:00</time>
      </trkpt>
      <trkpt lat="47.92932" lon="6.02209">
        <ele>229.2002</ele>
        <time>2026-05-17T09:58:47+02:00</time>
      </trkpt>
      <trkpt lat="47.92932" lon="6.02218">
        <ele>229.2002</ele>
        <time>2026-05-17T09:58:48+02:00</time>
      </trkpt>
      <trkpt lat="47.92932" lon="6.02226">
        <ele>229.2002</ele>
        <time>2026-05-17T09:58:49+02:00</time>
      </trkpt>
      <trkpt lat="47.92932" lon="6.02234">
        <ele>229.2002</ele>
        <time>2026-05-17T09:58:50+02:00</time>
      </trkpt>
      <trkpt lat="47.92933" lon="6.02242">
        <ele>229.2002</ele>
        <time>2026-05-17T09:58:51+02:00</time>
      </trkpt>
      <trkpt lat="47.92933" lon="6.0225">
        <ele>229.2002</ele>
        <time>2026-05-17T09:58:52+02:00</time>
      </trkpt>
      <trkpt lat="47.92933" lon="6.02257">
        <ele>229.2002</ele>
        <time>2026-05-17T09:58:53+02:00</time>
      </trkpt>
      <trkpt lat="47.92933" lon="6.02265">
        <ele>229.2002</ele>
        <time>2026-05-17T09:58:54+02:00</time>
      </trkpt>
      <trkpt lat="47.92933" lon="6.02273">
        <ele>229.2002</ele>
        <time>2026-05-17T09:58:55+02:00</time>
      </trkpt>
      <trkpt lat="47.92934" lon="6.02281">
        <ele>229.10059</ele>
        <time>2026-05-17T09:58:56+02:00</time>
      </trkpt>
      <trkpt lat="47.92934" lon="6.02289">
        <ele>229.10059</ele>
        <time>2026-05-17T09:58:57+02:00</time>
      </trkpt>
      <trkpt lat="47.92935" lon="6.02297">
        <ele>229</ele>
        <time>2026-05-17T09:58:58+02:00</time>
      </trkpt>
      <trkpt lat="47.92935" lon="6.02305">
        <ele>229</ele>
        <time>2026-05-17T09:58:59+02:00</time>
      </trkpt>
      <trkpt lat="47.92935" lon="6.02313">
        <ele>229</ele>
        <time>2026-05-17T09:59:00+02:00</time>
      </trkpt>
      <trkpt lat="47.92935" lon="6.02322">
        <ele>229</ele>
        <time>2026-05-17T09:59:01+02:00</time>
      </trkpt>
      <trkpt lat="47.92935" lon="6.0233">
        <ele>229</ele>
        <time>2026-05-17T09:59:02+02:00</time>
      </trkpt>
      <trkpt lat="47.92936" lon="6.02362">
        <ele>229.10059</ele>
        <time>2026-05-17T09:59:03+02:00</time>
      </trkpt>
      <trkpt lat="47.92936" lon="6.0237">
        <ele>229.10059</ele>
        <time>2026-05-17T09:59:04+02:00</time>
      </trkpt>
      <trkpt lat="47.92936" lon="6.02378">
        <ele>229.10059</ele>
        <time>2026-05-17T09:59:05+02:00</time>
      </trkpt>
      <trkpt lat="47.92937" lon="6.02386">
        <ele>229.10059</ele>
        <time>2026-05-17T09:59:06+02:00</time>
      </trkpt>
      <trkpt lat="47.92937" lon="6.02394">
        <ele>229.10059</ele>
        <time>2026-05-17T09:59:07+02:00</time>
      </trkpt>
      <trkpt lat="47.92937" lon="6.02403">
        <ele>229.10059</ele>
        <time>2026-05-17T09:59:08+02:00</time>
      </trkpt>
      <trkpt lat="47.92938" lon="6.0241">
        <ele>229.10059</ele>
        <time>2026-05-17T09:59:09+02:00</time>
      </trkpt>
      <trkpt lat="47.92938" lon="6.02418">
        <ele>229.10059</ele>
        <time>2026-05-17T09:59:10+02:00</time>
      </trkpt>
      <trkpt lat="47.92938" lon="6.02426">
        <ele>229.10059</ele>
        <time>2026-05-17T09:59:11+02:00</time>
      </trkpt>
      <trkpt lat="47.92938" lon="6.02434">
        <ele>229.10059</ele>
        <time>2026-05-17T09:59:12+02:00</time>
      </trkpt>
      <trkpt lat="47.92939" lon="6.02442">
        <ele>229.10059</ele>
        <time>2026-05-17T09:59:13+02:00</time>
      </trkpt>
      <trkpt lat="47.92939" lon="6.0245">
        <ele>229.10059</ele>
        <time>2026-05-17T09:59:14+02:00</time>
      </trkpt>
      <trkpt lat="47.92939" lon="6.02458">
        <ele>229.10059</ele>
        <time>2026-05-17T09:59:15+02:00</time>
      </trkpt>
      <trkpt lat="47.9294" lon="6.02467">
        <ele>229.10059</ele>
        <time>2026-05-17T09:59:16+02:00</time>
      </trkpt>
      <trkpt lat="47.9294" lon="6.02475">
        <ele>229.10059</ele>
        <time>2026-05-17T09:59:17+02:00</time>
      </trkpt>
      <trkpt lat="47.9294" lon="6.02483">
        <ele>229.10059</ele>
        <time>2026-05-17T09:59:18+02:00</time>
      </trkpt>
      <trkpt lat="47.9294" lon="6.02491">
        <ele>229.2002</ele>
        <time>2026-05-17T09:59:19+02:00</time>
      </trkpt>
      <trkpt lat="47.92941" lon="6.02499">
        <ele>229.2002</ele>
        <time>2026-05-17T09:59:20+02:00</time>
      </trkpt>
      <trkpt lat="47.92941" lon="6.02508">
        <ele>229.2002</ele>
        <time>2026-05-17T09:59:21+02:00</time>
      </trkpt>
      <trkpt lat="47.92941" lon="6.02516">
        <ele>229.2998</ele>
        <time>2026-05-17T09:59:22+02:00</time>
      </trkpt>
      <trkpt lat="47.92941" lon="6.02524">
        <ele>229.2998</ele>
        <time>2026-05-17T09:59:23+02:00</time>
      </trkpt>
      <trkpt lat="47.92941" lon="6.02532">
        <ele>229.2998</ele>
        <time>2026-05-17T09:59:24+02:00</time>
      </trkpt>
      <trkpt lat="47.92941" lon="6.02541">
        <ele>229.40039</ele>
        <time>2026-05-17T09:59:25+02:00</time>
      </trkpt>
      <trkpt lat="47.92942" lon="6.02549">
        <ele>229.40039</ele>
        <time>2026-05-17T09:59:26+02:00</time>
      </trkpt>
      <trkpt lat="47.92942" lon="6.02557">
        <ele>229.40039</ele>
        <time>2026-05-17T09:59:27+02:00</time>
      </trkpt>
      <trkpt lat="47.92943" lon="6.02565">
        <ele>229.5</ele>
        <time>2026-05-17T09:59:28+02:00</time>
      </trkpt>
      <trkpt lat="47.92943" lon="6.02573">
        <ele>229.5</ele>
        <time>2026-05-17T09:59:29+02:00</time>
      </trkpt>
      <trkpt lat="47.92943" lon="6.02581">
        <ele>229.5</ele>
        <time>2026-05-17T09:59:30+02:00</time>
      </trkpt>
      <trkpt lat="47.92944" lon="6.02589">
        <ele>229.60059</ele>
        <time>2026-05-17T09:59:31+02:00</time>
      </trkpt>
      <trkpt lat="47.92944" lon="6.02597">
        <ele>229.60059</ele>
        <time>2026-05-17T09:59:32+02:00</time>
      </trkpt>
      <trkpt lat="47.92944" lon="6.02605">
        <ele>229.60059</ele>
        <time>2026-05-17T09:59:33+02:00</time>
      </trkpt>
      <trkpt lat="47.92945" lon="6.02613">
        <ele>229.60059</ele>
        <time>2026-05-17T09:59:34+02:00</time>
      </trkpt>
      <trkpt lat="47.92945" lon="6.02621">
        <ele>229.60059</ele>
        <time>2026-05-17T09:59:35+02:00</time>
      </trkpt>
      <trkpt lat="47.92946" lon="6.02629">
        <ele>229.40039</ele>
        <time>2026-05-17T09:59:36+02:00</time>
      </trkpt>
      <trkpt lat="47.92946" lon="6.02638">
        <ele>229.40039</ele>
        <time>2026-05-17T09:59:37+02:00</time>
      </trkpt>
      <trkpt lat="47.92947" lon="6.02646">
        <ele>229.40039</ele>
        <time>2026-05-17T09:59:38+02:00</time>
      </trkpt>
      <trkpt lat="47.92948" lon="6.02654">
        <ele>229.40039</ele>
        <time>2026-05-17T09:59:39+02:00</time>
      </trkpt>
      <trkpt lat="47.92949" lon="6.02661">
        <ele>229.40039</ele>
        <time>2026-05-17T09:59:40+02:00</time>
      </trkpt>
      <trkpt lat="47.9295" lon="6.02669">
        <ele>229.40039</ele>
        <time>2026-05-17T09:59:41+02:00</time>
      </trkpt>
      <trkpt lat="47.92951" lon="6.02677">
        <ele>229.40039</ele>
        <time>2026-05-17T09:59:42+02:00</time>
      </trkpt>
      <trkpt lat="47.92952" lon="6.02685">
        <ele>229.2998</ele>
        <time>2026-05-17T09:59:43+02:00</time>
      </trkpt>
      <trkpt lat="47.92953" lon="6.02693">
        <ele>229.2998</ele>
        <time>2026-05-17T09:59:44+02:00</time>
      </trkpt>
      <trkpt lat="47.92955" lon="6.02701">
        <ele>229.2998</ele>
        <time>2026-05-17T09:59:45+02:00</time>
      </trkpt>
      <trkpt lat="47.92957" lon="6.02709">
        <ele>229.2998</ele>
        <time>2026-05-17T09:59:46+02:00</time>
      </trkpt>
      <trkpt lat="47.92958" lon="6.02717">
        <ele>229.10059</ele>
        <time>2026-05-17T09:59:47+02:00</time>
      </trkpt>
      <trkpt lat="47.9296" lon="6.02725">
        <ele>229.10059</ele>
        <time>2026-05-17T09:59:48+02:00</time>
      </trkpt>
      <trkpt lat="47.92962" lon="6.02732">
        <ele>229.2002</ele>
        <time>2026-05-17T09:59:49+02:00</time>
      </trkpt>
      <trkpt lat="47.92964" lon="6.0274">
        <ele>229.10059</ele>
        <time>2026-05-17T09:59:50+02:00</time>
      </trkpt>
      <trkpt lat="47.92965" lon="6.02748">
        <ele>229.10059</ele>
        <time>2026-05-17T09:59:51+02:00</time>
      </trkpt>
      <trkpt lat="47.92967" lon="6.02756">
        <ele>229.2002</ele>
        <time>2026-05-17T09:59:52+02:00</time>
      </trkpt>
      <trkpt lat="47.92969" lon="6.02764">
        <ele>229.2002</ele>
        <time>2026-05-17T09:59:53+02:00</time>
      </trkpt>
      <trkpt lat="47.92971" lon="6.02773">
        <ele>229.2998</ele>
        <time>2026-05-17T09:59:54+02:00</time>
      </trkpt>
      <trkpt lat="47.92973" lon="6.02781">
        <ele>229.40039</ele>
        <time>2026-05-17T09:59:55+02:00</time>
      </trkpt>
      <trkpt lat="47.92975" lon="6.02789">
        <ele>229.40039</ele>
        <time>2026-05-17T09:59:56+02:00</time>
      </trkpt>
      <trkpt lat="47.92977" lon="6.02796">
        <ele>229.40039</ele>
        <time>2026-05-17T09:59:57+02:00</time>
      </trkpt>
      <trkpt lat="47.92979" lon="6.02804">
        <ele>229.5</ele>
        <time>2026-05-17T09:59:58+02:00</time>
      </trkpt>
      <trkpt lat="47.92981" lon="6.02812">
        <ele>229.5</ele>
        <time>2026-05-17T09:59:59+02:00</time>
      </trkpt>
      <trkpt lat="47.92984" lon="6.0282">
        <ele>229.60059</ele>
        <time>2026-05-17T10:00:00+02:00</time>
      </trkpt>
      <trkpt lat="47.92986" lon="6.02827">
        <ele>229.60059</ele>
        <time>2026-05-17T10:00:01+02:00</time>
      </trkpt>
      <trkpt lat="47.92988" lon="6.02835">
        <ele>229.60059</ele>
        <time>2026-05-17T10:00:02+02:00</time>
      </trkpt>
      <trkpt lat="47.92991" lon="6.02842">
        <ele>229.60059</ele>
        <time>2026-05-17T10:00:03+02:00</time>
      </trkpt>
      <trkpt lat="47.92993" lon="6.0285">
        <ele>229.5</ele>
        <time>2026-05-17T10:00:04+02:00</time>
      </trkpt>
      <trkpt lat="47.92996" lon="6.02857">
        <ele>229.5</ele>
        <time>2026-05-17T10:00:05+02:00</time>
      </trkpt>
      <trkpt lat="47.92998" lon="6.02865">
        <ele>229.40039</ele>
        <time>2026-05-17T10:00:06+02:00</time>
      </trkpt>
      <trkpt lat="47.93001" lon="6.02872">
        <ele>229.40039</ele>
        <time>2026-05-17T10:00:07+02:00</time>
      </trkpt>
      <trkpt lat="47.93004" lon="6.02879">
        <ele>229.2998</ele>
        <time>2026-05-17T10:00:08+02:00</time>
      </trkpt>
      <trkpt lat="47.93007" lon="6.02886">
        <ele>229.2998</ele>
        <time>2026-05-17T10:00:09+02:00</time>
      </trkpt>
      <trkpt lat="47.9301" lon="6.02893">
        <ele>229.2998</ele>
        <time>2026-05-17T10:00:10+02:00</time>
      </trkpt>
      <trkpt lat="47.93013" lon="6.029">
        <ele>229.2998</ele>
        <time>2026-05-17T10:00:11+02:00</time>
      </trkpt>
      <trkpt lat="47.93016" lon="6.02907">
        <ele>229.40039</ele>
        <time>2026-05-17T10:00:12+02:00</time>
      </trkpt>
      <trkpt lat="47.93019" lon="6.02914">
        <ele>229.5</ele>
        <time>2026-05-17T10:00:13+02:00</time>
      </trkpt>
      <trkpt lat="47.93022" lon="6.02921">
        <ele>229.60059</ele>
        <time>2026-05-17T10:00:14+02:00</time>
      </trkpt>
      <trkpt lat="47.93025" lon="6.02928">
        <ele>229.7002</ele>
        <time>2026-05-17T10:00:15+02:00</time>
      </trkpt>
      <trkpt lat="47.93028" lon="6.02934">
        <ele>229.60059</ele>
        <time>2026-05-17T10:00:16+02:00</time>
      </trkpt>
      <trkpt lat="47.93031" lon="6.02941">
        <ele>229.7002</ele>
        <time>2026-05-17T10:00:17+02:00</time>
      </trkpt>
      <trkpt lat="47.93035" lon="6.02948">
        <ele>229.7998</ele>
        <time>2026-05-17T10:00:18+02:00</time>
      </trkpt>
      <trkpt lat="47.93038" lon="6.02954">
        <ele>229.7998</ele>
        <time>2026-05-17T10:00:19+02:00</time>
      </trkpt>
      <trkpt lat="47.93041" lon="6.02961">
        <ele>230</ele>
        <time>2026-05-17T10:00:20+02:00</time>
      </trkpt>
      <trkpt lat="47.93044" lon="6.02968">
        <ele>229.90039</ele>
        <time>2026-05-17T10:00:21+02:00</time>
      </trkpt>
      <trkpt lat="47.93047" lon="6.02974">
        <ele>230</ele>
        <time>2026-05-17T10:00:22+02:00</time>
      </trkpt>
      <trkpt lat="47.9305" lon="6.02979">
        <ele>229.90039</ele>
        <time>2026-05-17T10:00:23+02:00</time>
      </trkpt>
      <trkpt lat="47.93052" lon="6.02984">
        <ele>229.90039</ele>
        <time>2026-05-17T10:00:24+02:00</time>
      </trkpt>
      <trkpt lat="47.93055" lon="6.02987">
        <ele>229.7998</ele>
        <time>2026-05-17T10:00:25+02:00</time>
      </trkpt>
      <trkpt lat="47.93057" lon="6.02991">
        <ele>229.7998</ele>
        <time>2026-05-17T10:00:26+02:00</time>
      </trkpt>
      <trkpt lat="47.93059" lon="6.02995">
        <ele>230.10059</ele>
        <time>2026-05-17T10:00:27+02:00</time>
      </trkpt>
      <trkpt lat="47.93061" lon="6.02999">
        <ele>229.90039</ele>
        <time>2026-05-17T10:00:28+02:00</time>
      </trkpt>
      <trkpt lat="47.93063" lon="6.03004">
        <ele>230.2998</ele>
        <time>2026-05-17T10:00:29+02:00</time>
      </trkpt>
      <trkpt lat="47.93066" lon="6.03008">
        <ele>230.2998</ele>
        <time>2026-05-17T10:00:30+02:00</time>
      </trkpt>
      <trkpt lat="47.93069" lon="6.03013">
        <ele>230.40039</ele>
        <time>2026-05-17T10:00:31+02:00</time>
      </trkpt>
      <trkpt lat="47.93071" lon="6.03018">
        <ele>230.40039</ele>
        <time>2026-05-17T10:00:32+02:00</time>
      </trkpt>
      <trkpt lat="47.93073" lon="6.03023">
        <ele>230.40039</ele>
        <time>2026-05-17T10:00:33+02:00</time>
      </trkpt>
      <trkpt lat="47.93076" lon="6.03029">
        <ele>230.40039</ele>
        <time>2026-05-17T10:00:34+02:00</time>
      </trkpt>
      <trkpt lat="47.93078" lon="6.03034">
        <ele>230.7002</ele>
        <time>2026-05-17T10:00:35+02:00</time>
      </trkpt>
      <trkpt lat="47.9308" lon="6.03037">
        <ele>230.5</ele>
        <time>2026-05-17T10:00:36+02:00</time>
      </trkpt>
      <trkpt lat="47.93081" lon="6.03041">
        <ele>230.7998</ele>
        <time>2026-05-17T10:00:37+02:00</time>
      </trkpt>
      <trkpt lat="47.93082" lon="6.03043">
        <ele>230.7998</ele>
        <time>2026-05-17T10:00:38+02:00</time>
      </trkpt>
      <trkpt lat="47.93083" lon="6.03044">
        <ele>230.7998</ele>
        <time>2026-05-17T10:00:39+02:00</time>
      </trkpt>
      <trkpt lat="47.93083" lon="6.03045">
        <ele>230.7998</ele>
        <time>2026-05-17T10:00:40+02:00</time>
      </trkpt>
      <trkpt lat="47.93083" lon="6.03045">
        <ele>230.7998</ele>
        <time>2026-05-17T10:00:41+02:00</time>
      </trkpt>
      <trkpt lat="47.93083" lon="6.03045">
        <ele>230.7998</ele>
        <time>2026-05-17T10:00:42+02:00</time>
      </trkpt>
      <trkpt lat="47.93083" lon="6.03045">
        <ele>230.7998</ele>
        <time>2026-05-17T10:00:43+02:00</time>
      </trkpt>
      <trkpt lat="47.93083" lon="6.03045">
        <ele>230.7998</ele>
        <time>2026-05-17T10:18:33+02:00</time>
      </trkpt>
      <trkpt lat="47.93083" lon="6.03045">
        <ele>230.7998</ele>
        <time>2026-05-17T10:18:34+02:00</time>
      </trkpt>
      <trkpt lat="47.93083" lon="6.03045">
        <ele>230.7998</ele>
        <time>2026-05-17T10:18:35+02:00</time>
      </trkpt>
      <trkpt lat="47.93083" lon="6.03045">
        <ele>230.7998</ele>
        <time>2026-05-17T10:18:36+02:00</time>
      </trkpt>
      <trkpt lat="47.93083" lon="6.03045">
        <ele>230.7998</ele>
        <time>2026-05-17T10:18:37+02:00</time>
      </trkpt>
      <trkpt lat="47.93083" lon="6.03045">
        <ele>230.7998</ele>
        <time>2026-05-17T10:18:38+02:00</time>
      </trkpt>
      <trkpt lat="47.93083" lon="6.03045">
        <ele>230.7998</ele>
        <time>2026-05-17T10:18:39+02:00</time>
      </trkpt>
      <trkpt lat="47.93083" lon="6.03045">
        <ele>230.7998</ele>
        <time>2026-05-17T10:18:40+02:00</time>
      </trkpt>
      <trkpt lat="47.93088" lon="6.03055">
        <ele>231.2002</ele>
        <time>2026-05-17T10:18:41+02:00</time>
      </trkpt>
      <trkpt lat="47.93089" lon="6.03057">
        <ele>231.2002</ele>
        <time>2026-05-17T10:18:42+02:00</time>
      </trkpt>
      <trkpt lat="47.9309" lon="6.0306">
        <ele>231</ele>
        <time>2026-05-17T10:18:43+02:00</time>
      </trkpt>
      <trkpt lat="47.93091" lon="6.03063">
        <ele>231</ele>
        <time>2026-05-17T10:18:44+02:00</time>
      </trkpt>
      <trkpt lat="47.93092" lon="6.03066">
        <ele>231.2998</ele>
        <time>2026-05-17T10:18:45+02:00</time>
      </trkpt>
      <trkpt lat="47.93094" lon="6.03069">
        <ele>231.2998</ele>
        <time>2026-05-17T10:18:46+02:00</time>
      </trkpt>
      <trkpt lat="47.93096" lon="6.03072">
        <ele>231.10059</ele>
        <time>2026-05-17T10:18:47+02:00</time>
      </trkpt>
      <trkpt lat="47.93097" lon="6.03076">
        <ele>231.2998</ele>
        <time>2026-05-17T10:18:48+02:00</time>
      </trkpt>
      <trkpt lat="47.93099" lon="6.0308">
        <ele>231.2998</ele>
        <time>2026-05-17T10:18:49+02:00</time>
      </trkpt>
      <trkpt lat="47.931" lon="6.03083">
        <ele>231.60059</ele>
        <time>2026-05-17T10:18:50+02:00</time>
      </trkpt>
      <trkpt lat="47.93102" lon="6.03088">
        <ele>231.40039</ele>
        <time>2026-05-17T10:18:51+02:00</time>
      </trkpt>
      <trkpt lat="47.93104" lon="6.03092">
        <ele>231.7002</ele>
        <time>2026-05-17T10:18:52+02:00</time>
      </trkpt>
      <trkpt lat="47.93107" lon="6.03096">
        <ele>231.40039</ele>
        <time>2026-05-17T10:18:53+02:00</time>
      </trkpt>
      <trkpt lat="47.93108" lon="6.03101">
        <ele>231.60059</ele>
        <time>2026-05-17T10:18:54+02:00</time>
      </trkpt>
      <trkpt lat="47.93111" lon="6.03105">
        <ele>231.60059</ele>
        <time>2026-05-17T10:18:55+02:00</time>
      </trkpt>
      <trkpt lat="47.93113" lon="6.0311">
        <ele>231.2998</ele>
        <time>2026-05-17T10:18:56+02:00</time>
      </trkpt>
      <trkpt lat="47.93115" lon="6.03115">
        <ele>231.2998</ele>
        <time>2026-05-17T10:18:57+02:00</time>
      </trkpt>
      <trkpt lat="47.93117" lon="6.0312">
        <ele>231.5</ele>
        <time>2026-05-17T10:18:58+02:00</time>
      </trkpt>
      <trkpt lat="47.9312" lon="6.03124">
        <ele>231.2998</ele>
        <time>2026-05-17T10:18:59+02:00</time>
      </trkpt>
      <trkpt lat="47.93123" lon="6.0313">
        <ele>231.2998</ele>
        <time>2026-05-17T10:19:00+02:00</time>
      </trkpt>
      <trkpt lat="47.93125" lon="6.03135">
        <ele>231.2002</ele>
        <time>2026-05-17T10:19:01+02:00</time>
      </trkpt>
      <trkpt lat="47.93128" lon="6.0314">
        <ele>231.2002</ele>
        <time>2026-05-17T10:19:02+02:00</time>
      </trkpt>
      <trkpt lat="47.93131" lon="6.03146">
        <ele>231.2998</ele>
        <time>2026-05-17T10:19:03+02:00</time>
      </trkpt>
      <trkpt lat="47.93134" lon="6.03151">
        <ele>231.5</ele>
        <time>2026-05-17T10:19:04+02:00</time>
      </trkpt>
      <trkpt lat="47.93137" lon="6.03157">
        <ele>231.2998</ele>
        <time>2026-05-17T10:19:05+02:00</time>
      </trkpt>
      <trkpt lat="47.93139" lon="6.03163">
        <ele>231.60059</ele>
        <time>2026-05-17T10:19:06+02:00</time>
      </trkpt>
      <trkpt lat="47.93142" lon="6.03169">
        <ele>231.60059</ele>
        <time>2026-05-17T10:19:07+02:00</time>
      </trkpt>
      <trkpt lat="47.93146" lon="6.03175">
        <ele>231.60059</ele>
        <time>2026-05-17T10:19:08+02:00</time>
      </trkpt>
      <trkpt lat="47.93148" lon="6.03181">
        <ele>231.7002</ele>
        <time>2026-05-17T10:19:09+02:00</time>
      </trkpt>
      <trkpt lat="47.93151" lon="6.03187">
        <ele>232</ele>
        <time>2026-05-17T10:19:10+02:00</time>
      </trkpt>
      <trkpt lat="47.93154" lon="6.03194">
        <ele>232</ele>
        <time>2026-05-17T10:19:11+02:00</time>
      </trkpt>
      <trkpt lat="47.93157" lon="6.032">
        <ele>232</ele>
        <time>2026-05-17T10:19:12+02:00</time>
      </trkpt>
      <trkpt lat="47.9316" lon="6.03206">
        <ele>231.7998</ele>
        <time>2026-05-17T10:19:13+02:00</time>
      </trkpt>
      <trkpt lat="47.93163" lon="6.03213">
        <ele>231.90039</ele>
        <time>2026-05-17T10:19:14+02:00</time>
      </trkpt>
      <trkpt lat="47.93165" lon="6.0322">
        <ele>231.7002</ele>
        <time>2026-05-17T10:19:15+02:00</time>
      </trkpt>
      <trkpt lat="47.93168" lon="6.03227">
        <ele>231.90039</ele>
        <time>2026-05-17T10:19:16+02:00</time>
      </trkpt>
      <trkpt lat="47.93171" lon="6.03234">
        <ele>231.60059</ele>
        <time>2026-05-17T10:19:17+02:00</time>
      </trkpt>
      <trkpt lat="47.93174" lon="6.03241">
        <ele>231.7998</ele>
        <time>2026-05-17T10:19:18+02:00</time>
      </trkpt>
      <trkpt lat="47.93177" lon="6.03248">
        <ele>231.90039</ele>
        <time>2026-05-17T10:19:19+02:00</time>
      </trkpt>
      <trkpt lat="47.93181" lon="6.03254">
        <ele>232.10059</ele>
        <time>2026-05-17T10:19:20+02:00</time>
      </trkpt>
      <trkpt lat="47.93184" lon="6.03261">
        <ele>232.10059</ele>
        <time>2026-05-17T10:19:21+02:00</time>
      </trkpt>
      <trkpt lat="47.93187" lon="6.03268">
        <ele>232.10059</ele>
        <time>2026-05-17T10:19:22+02:00</time>
      </trkpt>
      <trkpt lat="47.9319" lon="6.03275">
        <ele>232.2002</ele>
        <time>2026-05-17T10:19:23+02:00</time>
      </trkpt>
      <trkpt lat="47.93193" lon="6.03282">
        <ele>232.2002</ele>
        <time>2026-05-17T10:19:24+02:00</time>
      </trkpt>
      <trkpt lat="47.93196" lon="6.03289">
        <ele>232.40039</ele>
        <time>2026-05-17T10:19:25+02:00</time>
      </trkpt>
      <trkpt lat="47.932" lon="6.03296">
        <ele>232.2998</ele>
        <time>2026-05-17T10:19:26+02:00</time>
      </trkpt>
      <trkpt lat="47.93203" lon="6.03303">
        <ele>232.2998</ele>
        <time>2026-05-17T10:19:27+02:00</time>
      </trkpt>
      <trkpt lat="47.93206" lon="6.03311">
        <ele>232.10059</ele>
        <time>2026-05-17T10:19:28+02:00</time>
      </trkpt>
      <trkpt lat="47.9321" lon="6.03318">
        <ele>232.10059</ele>
        <time>2026-05-17T10:19:29+02:00</time>
      </trkpt>
      <trkpt lat="47.93213" lon="6.03326">
        <ele>231.7998</ele>
        <time>2026-05-17T10:19:30+02:00</time>
      </trkpt>
      <trkpt lat="47.93216" lon="6.03333">
        <ele>231.5</ele>
        <time>2026-05-17T10:19:31+02:00</time>
      </trkpt>
      <trkpt lat="47.9322" lon="6.0334">
        <ele>231.60059</ele>
        <time>2026-05-17T10:19:32+02:00</time>
      </trkpt>
      <trkpt lat="47.93223" lon="6.03348">
        <ele>231.60059</ele>
        <time>2026-05-17T10:19:33+02:00</time>
      </trkpt>
      <trkpt lat="47.93226" lon="6.03355">
        <ele>231.60059</ele>
        <time>2026-05-17T10:19:34+02:00</time>
      </trkpt>
      <trkpt lat="47.93229" lon="6.03362">
        <ele>231.5</ele>
        <time>2026-05-17T10:19:35+02:00</time>
      </trkpt>
      <trkpt lat="47.93232" lon="6.03369">
        <ele>231.60059</ele>
        <time>2026-05-17T10:19:36+02:00</time>
      </trkpt>
      <trkpt lat="47.93236" lon="6.03377">
        <ele>231.2998</ele>
        <time>2026-05-17T10:19:37+02:00</time>
      </trkpt>
      <trkpt lat="47.93239" lon="6.03384">
        <ele>231.2002</ele>
        <time>2026-05-17T10:19:38+02:00</time>
      </trkpt>
      <trkpt lat="47.93242" lon="6.03391">
        <ele>231.10059</ele>
        <time>2026-05-17T10:19:39+02:00</time>
      </trkpt>
      <trkpt lat="47.93245" lon="6.03398">
        <ele>231</ele>
        <time>2026-05-17T10:19:40+02:00</time>
      </trkpt>
      <trkpt lat="47.93248" lon="6.03405">
        <ele>231.10059</ele>
        <time>2026-05-17T10:19:41+02:00</time>
      </trkpt>
      <trkpt lat="47.93252" lon="6.03412">
        <ele>231.2002</ele>
        <time>2026-05-17T10:19:42+02:00</time>
      </trkpt>
      <trkpt lat="47.93255" lon="6.0342">
        <ele>231.2998</ele>
        <time>2026-05-17T10:19:43+02:00</time>
      </trkpt>
      <trkpt lat="47.93258" lon="6.03427">
        <ele>231.40039</ele>
        <time>2026-05-17T10:19:44+02:00</time>
      </trkpt>
      <trkpt lat="47.93261" lon="6.03434">
        <ele>231.5</ele>
        <time>2026-05-17T10:19:45+02:00</time>
      </trkpt>
      <trkpt lat="47.93265" lon="6.03441">
        <ele>231.60059</ele>
        <time>2026-05-17T10:19:46+02:00</time>
      </trkpt>
      <trkpt lat="47.93268" lon="6.03449">
        <ele>231.7998</ele>
        <time>2026-05-17T10:19:47+02:00</time>
      </trkpt>
      <trkpt lat="47.93271" lon="6.03456">
        <ele>232</ele>
        <time>2026-05-17T10:19:48+02:00</time>
      </trkpt>
      <trkpt lat="47.93274" lon="6.03464">
        <ele>232</ele>
        <time>2026-05-17T10:19:49+02:00</time>
      </trkpt>
      <trkpt lat="47.93277" lon="6.03471">
        <ele>232.10059</ele>
        <time>2026-05-17T10:19:50+02:00</time>
      </trkpt>
      <trkpt lat="47.9328" lon="6.03479">
        <ele>232</ele>
        <time>2026-05-17T10:19:51+02:00</time>
      </trkpt>
      <trkpt lat="47.93283" lon="6.03487">
        <ele>232</ele>
        <time>2026-05-17T10:19:52+02:00</time>
      </trkpt>
      <trkpt lat="47.93286" lon="6.03495">
        <ele>232</ele>
        <time>2026-05-17T10:19:53+02:00</time>
      </trkpt>
      <trkpt lat="47.93289" lon="6.03503">
        <ele>232.10059</ele>
        <time>2026-05-17T10:19:54+02:00</time>
      </trkpt>
      <trkpt lat="47.93292" lon="6.03511">
        <ele>232.2998</ele>
        <time>2026-05-17T10:19:55+02:00</time>
      </trkpt>
      <trkpt lat="47.93295" lon="6.03519">
        <ele>232.60059</ele>
        <time>2026-05-17T10:19:56+02:00</time>
      </trkpt>
      <trkpt lat="47.93298" lon="6.03527">
        <ele>232.5</ele>
        <time>2026-05-17T10:19:57+02:00</time>
      </trkpt>
      <trkpt lat="47.933" lon="6.03535">
        <ele>232.7998</ele>
        <time>2026-05-17T10:19:58+02:00</time>
      </trkpt>
      <trkpt lat="47.93303" lon="6.03544">
        <ele>232.60059</ele>
        <time>2026-05-17T10:19:59+02:00</time>
      </trkpt>
      <trkpt lat="47.93305" lon="6.03552">
        <ele>232.5</ele>
        <time>2026-05-17T10:20:00+02:00</time>
      </trkpt>
      <trkpt lat="47.93308" lon="6.0356">
        <ele>232.5</ele>
        <time>2026-05-17T10:20:01+02:00</time>
      </trkpt>
      <trkpt lat="47.9331" lon="6.03569">
        <ele>232.5</ele>
        <time>2026-05-17T10:20:02+02:00</time>
      </trkpt>
      <trkpt lat="47.93313" lon="6.03577">
        <ele>232.7002</ele>
        <time>2026-05-17T10:20:03+02:00</time>
      </trkpt>
      <trkpt lat="47.93315" lon="6.03585">
        <ele>232.90039</ele>
        <time>2026-05-17T10:20:04+02:00</time>
      </trkpt>
      <trkpt lat="47.93317" lon="6.03593">
        <ele>233.10059</ele>
        <time>2026-05-17T10:20:05+02:00</time>
      </trkpt>
      <trkpt lat="47.93319" lon="6.03602">
        <ele>233.2002</ele>
        <time>2026-05-17T10:20:06+02:00</time>
      </trkpt>
      <trkpt lat="47.93321" lon="6.0361">
        <ele>232.90039</ele>
        <time>2026-05-17T10:20:07+02:00</time>
      </trkpt>
      <trkpt lat="47.93323" lon="6.03618">
        <ele>232.7002</ele>
        <time>2026-05-17T10:20:08+02:00</time>
      </trkpt>
      <trkpt lat="47.93325" lon="6.03627">
        <ele>232.40039</ele>
        <time>2026-05-17T10:20:09+02:00</time>
      </trkpt>
      <trkpt lat="47.93327" lon="6.03636">
        <ele>231.90039</ele>
        <time>2026-05-17T10:20:10+02:00</time>
      </trkpt>
      <trkpt lat="47.93329" lon="6.03645">
        <ele>231.7002</ele>
        <time>2026-05-17T10:20:11+02:00</time>
      </trkpt>
      <trkpt lat="47.93331" lon="6.03653">
        <ele>231.10059</ele>
        <time>2026-05-17T10:20:12+02:00</time>
      </trkpt>
      <trkpt lat="47.93332" lon="6.03662">
        <ele>231</ele>
        <time>2026-05-17T10:20:13+02:00</time>
      </trkpt>
      <trkpt lat="47.93334" lon="6.03671">
        <ele>230.7998</ele>
        <time>2026-05-17T10:20:14+02:00</time>
      </trkpt>
      <trkpt lat="47.93335" lon="6.0368">
        <ele>230.7002</ele>
        <time>2026-05-17T10:20:15+02:00</time>
      </trkpt>
      <trkpt lat="47.93336" lon="6.03689">
        <ele>230.5</ele>
        <time>2026-05-17T10:20:16+02:00</time>
      </trkpt>
      <trkpt lat="47.93338" lon="6.03698">
        <ele>230.2002</ele>
        <time>2026-05-17T10:20:17+02:00</time>
      </trkpt>
      <trkpt lat="47.93339" lon="6.03707">
        <ele>230.10059</ele>
        <time>2026-05-17T10:20:18+02:00</time>
      </trkpt>
      <trkpt lat="47.9334" lon="6.03716">
        <ele>230</ele>
        <time>2026-05-17T10:20:19+02:00</time>
      </trkpt>
      <trkpt lat="47.93342" lon="6.03725">
        <ele>230</ele>
        <time>2026-05-17T10:20:20+02:00</time>
      </trkpt>
      <trkpt lat="47.93343" lon="6.03734">
        <ele>230</ele>
        <time>2026-05-17T10:20:21+02:00</time>
      </trkpt>
      <trkpt lat="47.93344" lon="6.03743">
        <ele>230</ele>
        <time>2026-05-17T10:20:22+02:00</time>
      </trkpt>
      <trkpt lat="47.93345" lon="6.03752">
        <ele>230</ele>
        <time>2026-05-17T10:20:23+02:00</time>
      </trkpt>
      <trkpt lat="47.93347" lon="6.03761">
        <ele>230</ele>
        <time>2026-05-17T10:20:24+02:00</time>
      </trkpt>
      <trkpt lat="47.93348" lon="6.0377">
        <ele>230.10059</ele>
        <time>2026-05-17T10:20:25+02:00</time>
      </trkpt>
      <trkpt lat="47.93349" lon="6.03778">
        <ele>230.2002</ele>
        <time>2026-05-17T10:20:26+02:00</time>
      </trkpt>
      <trkpt lat="47.9335" lon="6.03787">
        <ele>230.2002</ele>
        <time>2026-05-17T10:20:27+02:00</time>
      </trkpt>
      <trkpt lat="47.93351" lon="6.03796">
        <ele>230.2998</ele>
        <time>2026-05-17T10:20:28+02:00</time>
      </trkpt>
      <trkpt lat="47.93353" lon="6.03804">
        <ele>230.2998</ele>
        <time>2026-05-17T10:20:29+02:00</time>
      </trkpt>
      <trkpt lat="47.93354" lon="6.03813">
        <ele>230.40039</ele>
        <time>2026-05-17T10:20:30+02:00</time>
      </trkpt>
      <trkpt lat="47.93355" lon="6.03821">
        <ele>230.40039</ele>
        <time>2026-05-17T10:20:31+02:00</time>
      </trkpt>
      <trkpt lat="47.93357" lon="6.0383">
        <ele>230.5</ele>
        <time>2026-05-17T10:20:32+02:00</time>
      </trkpt>
      <trkpt lat="47.93358" lon="6.03838">
        <ele>230.5</ele>
        <time>2026-05-17T10:20:33+02:00</time>
      </trkpt>
      <trkpt lat="47.93359" lon="6.03847">
        <ele>230.60059</ele>
        <time>2026-05-17T10:20:34+02:00</time>
      </trkpt>
      <trkpt lat="47.9336" lon="6.03856">
        <ele>230.40039</ele>
        <time>2026-05-17T10:20:35+02:00</time>
      </trkpt>
      <trkpt lat="47.93361" lon="6.03865">
        <ele>230.5</ele>
        <time>2026-05-17T10:20:36+02:00</time>
      </trkpt>
      <trkpt lat="47.93363" lon="6.03873">
        <ele>230.5</ele>
        <time>2026-05-17T10:20:37+02:00</time>
      </trkpt>
      <trkpt lat="47.93364" lon="6.03882">
        <ele>230.5</ele>
        <time>2026-05-17T10:20:38+02:00</time>
      </trkpt>
      <trkpt lat="47.93364" lon="6.03891">
        <ele>230.5</ele>
        <time>2026-05-17T10:20:39+02:00</time>
      </trkpt>
      <trkpt lat="47.93366" lon="6.039">
        <ele>230.5</ele>
        <time>2026-05-17T10:20:40+02:00</time>
      </trkpt>
      <trkpt lat="47.93367" lon="6.03909">
        <ele>230.5</ele>
        <time>2026-05-17T10:20:41+02:00</time>
      </trkpt>
      <trkpt lat="47.93368" lon="6.03917">
        <ele>230.60059</ele>
        <time>2026-05-17T10:20:42+02:00</time>
      </trkpt>
      <trkpt lat="47.93369" lon="6.03926">
        <ele>230.7002</ele>
        <time>2026-05-17T10:20:43+02:00</time>
      </trkpt>
      <trkpt lat="47.93371" lon="6.03934">
        <ele>230.7998</ele>
        <time>2026-05-17T10:20:44+02:00</time>
      </trkpt>
      <trkpt lat="47.93372" lon="6.03943">
        <ele>230.7998</ele>
        <time>2026-05-17T10:20:45+02:00</time>
      </trkpt>
      <trkpt lat="47.93373" lon="6.03952">
        <ele>231.10059</ele>
        <time>2026-05-17T10:20:46+02:00</time>
      </trkpt>
      <trkpt lat="47.93375" lon="6.03961">
        <ele>231.2998</ele>
        <time>2026-05-17T10:20:47+02:00</time>
      </trkpt>
      <trkpt lat="47.93376" lon="6.0397">
        <ele>231.40039</ele>
        <time>2026-05-17T10:20:48+02:00</time>
      </trkpt>
      <trkpt lat="47.93378" lon="6.03979">
        <ele>231.40039</ele>
        <time>2026-05-17T10:20:49+02:00</time>
      </trkpt>
      <trkpt lat="47.9338" lon="6.03987">
        <ele>231.60059</ele>
        <time>2026-05-17T10:20:50+02:00</time>
      </trkpt>
      <trkpt lat="47.93382" lon="6.03996">
        <ele>232</ele>
        <time>2026-05-17T10:20:51+02:00</time>
      </trkpt>
      <trkpt lat="47.93384" lon="6.04004">
        <ele>232.2998</ele>
        <time>2026-05-17T10:20:52+02:00</time>
      </trkpt>
      <trkpt lat="47.93386" lon="6.04013">
        <ele>232.60059</ele>
        <time>2026-05-17T10:20:53+02:00</time>
      </trkpt>
      <trkpt lat="47.93389" lon="6.04021">
        <ele>232.7002</ele>
        <time>2026-05-17T10:20:54+02:00</time>
      </trkpt>
      <trkpt lat="47.93392" lon="6.04029">
        <ele>233</ele>
        <time>2026-05-17T10:20:55+02:00</time>
      </trkpt>
      <trkpt lat="47.93395" lon="6.04038">
        <ele>233</ele>
        <time>2026-05-17T10:20:56+02:00</time>
      </trkpt>
      <trkpt lat="47.93397" lon="6.04046">
        <ele>233.2002</ele>
        <time>2026-05-17T10:20:57+02:00</time>
      </trkpt>
      <trkpt lat="47.934" lon="6.04055">
        <ele>233.2998</ele>
        <time>2026-05-17T10:20:58+02:00</time>
      </trkpt>
      <trkpt lat="47.93403" lon="6.04063">
        <ele>233.90039</ele>
        <time>2026-05-17T10:20:59+02:00</time>
      </trkpt>
      <trkpt lat="47.93406" lon="6.04071">
        <ele>234.5</ele>
        <time>2026-05-17T10:21:00+02:00</time>
      </trkpt>
      <trkpt lat="47.9341" lon="6.04079">
        <ele>234.7998</ele>
        <time>2026-05-17T10:21:01+02:00</time>
      </trkpt>
      <trkpt lat="47.93413" lon="6.04086">
        <ele>234.90039</ele>
        <time>2026-05-17T10:21:02+02:00</time>
      </trkpt>
      <trkpt lat="47.93417" lon="6.04094">
        <ele>234.90039</ele>
        <time>2026-05-17T10:21:03+02:00</time>
      </trkpt>
      <trkpt lat="47.93421" lon="6.04101">
        <ele>234.5</ele>
        <time>2026-05-17T10:21:04+02:00</time>
      </trkpt>
      <trkpt lat="47.93424" lon="6.04108">
        <ele>234.10059</ele>
        <time>2026-05-17T10:21:05+02:00</time>
      </trkpt>
      <trkpt lat="47.93428" lon="6.04115">
        <ele>234.2998</ele>
        <time>2026-05-17T10:21:06+02:00</time>
      </trkpt>
      <trkpt lat="47.93432" lon="6.04122">
        <ele>234.5</ele>
        <time>2026-05-17T10:21:07+02:00</time>
      </trkpt>
      <trkpt lat="47.93436" lon="6.04129">
        <ele>234.7998</ele>
        <time>2026-05-17T10:21:08+02:00</time>
      </trkpt>
      <trkpt lat="47.9344" lon="6.04136">
        <ele>234.7998</ele>
        <time>2026-05-17T10:21:09+02:00</time>
      </trkpt>
      <trkpt lat="47.93444" lon="6.04143">
        <ele>235.10059</ele>
        <time>2026-05-17T10:21:10+02:00</time>
      </trkpt>
      <trkpt lat="47.93448" lon="6.04149">
        <ele>235.10059</ele>
        <time>2026-05-17T10:21:11+02:00</time>
      </trkpt>
      <trkpt lat="47.93453" lon="6.04156">
        <ele>235</ele>
        <time>2026-05-17T10:21:12+02:00</time>
      </trkpt>
      <trkpt lat="47.93457" lon="6.04162">
        <ele>235</ele>
        <time>2026-05-17T10:21:13+02:00</time>
      </trkpt>
      <trkpt lat="47.93462" lon="6.04168">
        <ele>235.10059</ele>
        <time>2026-05-17T10:21:14+02:00</time>
      </trkpt>
      <trkpt lat="47.93467" lon="6.04174">
        <ele>235</ele>
        <time>2026-05-17T10:21:15+02:00</time>
      </trkpt>
      <trkpt lat="47.93471" lon="6.0418">
        <ele>234.7002</ele>
        <time>2026-05-17T10:21:16+02:00</time>
      </trkpt>
      <trkpt lat="47.93476" lon="6.04185">
        <ele>234.40039</ele>
        <time>2026-05-17T10:21:17+02:00</time>
      </trkpt>
      <trkpt lat="47.93481" lon="6.04191">
        <ele>234.10059</ele>
        <time>2026-05-17T10:21:18+02:00</time>
      </trkpt>
      <trkpt lat="47.93486" lon="6.04196">
        <ele>234.10059</ele>
        <time>2026-05-17T10:21:19+02:00</time>
      </trkpt>
      <trkpt lat="47.93491" lon="6.04202">
        <ele>233.7998</ele>
        <time>2026-05-17T10:21:20+02:00</time>
      </trkpt>
      <trkpt lat="47.93495" lon="6.04206">
        <ele>233.5</ele>
        <time>2026-05-17T10:21:21+02:00</time>
      </trkpt>
      <trkpt lat="47.935" lon="6.0421">
        <ele>233.2998</ele>
        <time>2026-05-17T10:21:22+02:00</time>
      </trkpt>
      <trkpt lat="47.93504" lon="6.04215">
        <ele>233.10059</ele>
        <time>2026-05-17T10:21:23+02:00</time>
      </trkpt>
      <trkpt lat="47.93508" lon="6.04219">
        <ele>233.10059</ele>
        <time>2026-05-17T10:21:24+02:00</time>
      </trkpt>
      <trkpt lat="47.93512" lon="6.04223">
        <ele>232.90039</ele>
        <time>2026-05-17T10:21:25+02:00</time>
      </trkpt>
      <trkpt lat="47.93516" lon="6.04226">
        <ele>232.7998</ele>
        <time>2026-05-17T10:21:26+02:00</time>
      </trkpt>
      <trkpt lat="47.93519" lon="6.04229">
        <ele>232.7998</ele>
        <time>2026-05-17T10:21:27+02:00</time>
      </trkpt>
      <trkpt lat="47.93522" lon="6.04232">
        <ele>232.60059</ele>
        <time>2026-05-17T10:21:28+02:00</time>
      </trkpt>
      <trkpt lat="47.93526" lon="6.04235">
        <ele>232.60059</ele>
        <time>2026-05-17T10:21:29+02:00</time>
      </trkpt>
      <trkpt lat="47.93529" lon="6.04238">
        <ele>232.60059</ele>
        <time>2026-05-17T10:21:30+02:00</time>
      </trkpt>
      <trkpt lat="47.93533" lon="6.04242">
        <ele>232.5</ele>
        <time>2026-05-17T10:21:31+02:00</time>
      </trkpt>
      <trkpt lat="47.93537" lon="6.04246">
        <ele>232.5</ele>
        <time>2026-05-17T10:21:32+02:00</time>
      </trkpt>
      <trkpt lat="47.9354" lon="6.0425">
        <ele>232.5</ele>
        <time>2026-05-17T10:21:33+02:00</time>
      </trkpt>
      <trkpt lat="47.93544" lon="6.04254">
        <ele>232.5</ele>
        <time>2026-05-17T10:21:34+02:00</time>
      </trkpt>
      <trkpt lat="47.93548" lon="6.04259">
        <ele>232.40039</ele>
        <time>2026-05-17T10:21:35+02:00</time>
      </trkpt>
      <trkpt lat="47.93552" lon="6.04263">
        <ele>232.40039</ele>
        <time>2026-05-17T10:21:36+02:00</time>
      </trkpt>
      <trkpt lat="47.93556" lon="6.04268">
        <ele>232.2998</ele>
        <time>2026-05-17T10:21:37+02:00</time>
      </trkpt>
      <trkpt lat="47.9356" lon="6.04273">
        <ele>232.2998</ele>
        <time>2026-05-17T10:21:38+02:00</time>
      </trkpt>
      <trkpt lat="47.93565" lon="6.04278">
        <ele>232.2998</ele>
        <time>2026-05-17T10:21:39+02:00</time>
      </trkpt>
      <trkpt lat="47.93569" lon="6.04282">
        <ele>232.40039</ele>
        <time>2026-05-17T10:21:40+02:00</time>
      </trkpt>
      <trkpt lat="47.93573" lon="6.04287">
        <ele>232.5</ele>
        <time>2026-05-17T10:21:41+02:00</time>
      </trkpt>
      <trkpt lat="47.93578" lon="6.04292">
        <ele>232.60059</ele>
        <time>2026-05-17T10:21:42+02:00</time>
      </trkpt>
      <trkpt lat="47.93582" lon="6.04297">
        <ele>232.7002</ele>
        <time>2026-05-17T10:21:43+02:00</time>
      </trkpt>
      <trkpt lat="47.93587" lon="6.04302">
        <ele>232.90039</ele>
        <time>2026-05-17T10:21:44+02:00</time>
      </trkpt>
      <trkpt lat="47.93591" lon="6.04307">
        <ele>233</ele>
        <time>2026-05-17T10:21:45+02:00</time>
      </trkpt>
      <trkpt lat="47.93596" lon="6.04312">
        <ele>233.10059</ele>
        <time>2026-05-17T10:21:46+02:00</time>
      </trkpt>
      <trkpt lat="47.93601" lon="6.04317">
        <ele>233.2002</ele>
        <time>2026-05-17T10:21:47+02:00</time>
      </trkpt>
      <trkpt lat="47.93606" lon="6.04322">
        <ele>233.2002</ele>
        <time>2026-05-17T10:21:48+02:00</time>
      </trkpt>
      <trkpt lat="47.93611" lon="6.04327">
        <ele>233.2998</ele>
        <time>2026-05-17T10:21:49+02:00</time>
      </trkpt>
      <trkpt lat="47.93615" lon="6.04332">
        <ele>233.40039</ele>
        <time>2026-05-17T10:21:50+02:00</time>
      </trkpt>
      <trkpt lat="47.9362" lon="6.04337">
        <ele>233.60059</ele>
        <time>2026-05-17T10:21:51+02:00</time>
      </trkpt>
      <trkpt lat="47.93625" lon="6.04343">
        <ele>233.7002</ele>
        <time>2026-05-17T10:21:52+02:00</time>
      </trkpt>
      <trkpt lat="47.9363" lon="6.04348">
        <ele>233.7002</ele>
        <time>2026-05-17T10:21:53+02:00</time>
      </trkpt>
      <trkpt lat="47.93635" lon="6.04353">
        <ele>233.7998</ele>
        <time>2026-05-17T10:21:54+02:00</time>
      </trkpt>
      <trkpt lat="47.9364" lon="6.04358">
        <ele>233.90039</ele>
        <time>2026-05-17T10:21:55+02:00</time>
      </trkpt>
      <trkpt lat="47.93644" lon="6.04363">
        <ele>234</ele>
        <time>2026-05-17T10:21:56+02:00</time>
      </trkpt>
      <trkpt lat="47.93649" lon="6.04369">
        <ele>234.2998</ele>
        <time>2026-05-17T10:21:57+02:00</time>
      </trkpt>
      <trkpt lat="47.93654" lon="6.04375">
        <ele>234.60059</ele>
        <time>2026-05-17T10:21:58+02:00</time>
      </trkpt>
      <trkpt lat="47.93659" lon="6.0438">
        <ele>235</ele>
        <time>2026-05-17T10:21:59+02:00</time>
      </trkpt>
      <trkpt lat="47.93664" lon="6.04385">
        <ele>235</ele>
        <time>2026-05-17T10:22:00+02:00</time>
      </trkpt>
      <trkpt lat="47.93669" lon="6.04391">
        <ele>235.2998</ele>
        <time>2026-05-17T10:22:01+02:00</time>
      </trkpt>
      <trkpt lat="47.93675" lon="6.04396">
        <ele>235.7002</ele>
        <time>2026-05-17T10:22:02+02:00</time>
      </trkpt>
      <trkpt lat="47.9368" lon="6.04402">
        <ele>235.90039</ele>
        <time>2026-05-17T10:22:03+02:00</time>
      </trkpt>
      <trkpt lat="47.93685" lon="6.04407">
        <ele>236.5</ele>
        <time>2026-05-17T10:22:04+02:00</time>
      </trkpt>
      <trkpt lat="47.93689" lon="6.04413">
        <ele>237.5</ele>
        <time>2026-05-17T10:22:05+02:00</time>
      </trkpt>
      <trkpt lat="47.93694" lon="6.04418">
        <ele>238.10059</ele>
        <time>2026-05-17T10:22:06+02:00</time>
      </trkpt>
      <trkpt lat="47.937" lon="6.04423">
        <ele>239.7002</ele>
        <time>2026-05-17T10:22:07+02:00</time>
      </trkpt>
      <trkpt lat="47.93705" lon="6.04429">
        <ele>240.7998</ele>
        <time>2026-05-17T10:22:08+02:00</time>
      </trkpt>
      <trkpt lat="47.9371" lon="6.04434">
        <ele>240.7998</ele>
        <time>2026-05-17T10:22:09+02:00</time>
      </trkpt>
      <trkpt lat="47.93715" lon="6.0444">
        <ele>241.10059</ele>
        <time>2026-05-17T10:22:10+02:00</time>
      </trkpt>
      <trkpt lat="47.93721" lon="6.04445">
        <ele>241.10059</ele>
        <time>2026-05-17T10:22:11+02:00</time>
      </trkpt>
      <trkpt lat="47.93726" lon="6.04451">
        <ele>241.7998</ele>
        <time>2026-05-17T10:22:12+02:00</time>
      </trkpt>
      <trkpt lat="47.93731" lon="6.04456">
        <ele>242.60059</ele>
        <time>2026-05-17T10:22:13+02:00</time>
      </trkpt>
      <trkpt lat="47.93736" lon="6.04462">
        <ele>242.7002</ele>
        <time>2026-05-17T10:22:14+02:00</time>
      </trkpt>
      <trkpt lat="47.93741" lon="6.04467">
        <ele>242.60059</ele>
        <time>2026-05-17T10:22:15+02:00</time>
      </trkpt>
      <trkpt lat="47.93746" lon="6.04472">
        <ele>242.40039</ele>
        <time>2026-05-17T10:22:16+02:00</time>
      </trkpt>
      <trkpt lat="47.93751" lon="6.04478">
        <ele>242.40039</ele>
        <time>2026-05-17T10:22:17+02:00</time>
      </trkpt>
      <trkpt lat="47.93756" lon="6.04483">
        <ele>243</ele>
        <time>2026-05-17T10:22:18+02:00</time>
      </trkpt>
      <trkpt lat="47.93761" lon="6.04488">
        <ele>243.2998</ele>
        <time>2026-05-17T10:22:19+02:00</time>
      </trkpt>
      <trkpt lat="47.93766" lon="6.04494">
        <ele>243.2998</ele>
        <time>2026-05-17T10:22:20+02:00</time>
      </trkpt>
      <trkpt lat="47.93771" lon="6.045">
        <ele>242.60059</ele>
        <time>2026-05-17T10:22:21+02:00</time>
      </trkpt>
      <trkpt lat="47.93776" lon="6.04505">
        <ele>242.10059</ele>
        <time>2026-05-17T10:22:22+02:00</time>
      </trkpt>
      <trkpt lat="47.93781" lon="6.04511">
        <ele>242.2002</ele>
        <time>2026-05-17T10:22:23+02:00</time>
      </trkpt>
      <trkpt lat="47.93786" lon="6.04516">
        <ele>242.2998</ele>
        <time>2026-05-17T10:22:24+02:00</time>
      </trkpt>
      <trkpt lat="47.93791" lon="6.04522">
        <ele>242.2998</ele>
        <time>2026-05-17T10:22:25+02:00</time>
      </trkpt>
      <trkpt lat="47.93796" lon="6.04527">
        <ele>242.10059</ele>
        <time>2026-05-17T10:22:26+02:00</time>
      </trkpt>
      <trkpt lat="47.93796" lon="6.04527">
        <ele>242.10059</ele>
        <time>2026-05-17T10:22:27+02:00</time>
      </trkpt>
      <trkpt lat="47.93809" lon="6.04541">
        <ele>241.5</ele>
        <time>2026-05-17T10:22:28+02:00</time>
      </trkpt>
      <trkpt lat="47.93812" lon="6.04544">
        <ele>241.5</ele>
        <time>2026-05-17T10:22:29+02:00</time>
      </trkpt>
      <trkpt lat="47.93817" lon="6.0455">
        <ele>241.10059</ele>
        <time>2026-05-17T10:22:30+02:00</time>
      </trkpt>
      <trkpt lat="47.93822" lon="6.04555">
        <ele>240.5</ele>
        <time>2026-05-17T10:22:31+02:00</time>
      </trkpt>
      <trkpt lat="47.93828" lon="6.0456">
        <ele>240.40039</ele>
        <time>2026-05-17T10:22:32+02:00</time>
      </trkpt>
      <trkpt lat="47.93833" lon="6.04566">
        <ele>241</ele>
        <time>2026-05-17T10:22:33+02:00</time>
      </trkpt>
      <trkpt lat="47.93838" lon="6.04572">
        <ele>241.10059</ele>
        <time>2026-05-17T10:22:34+02:00</time>
      </trkpt>
      <trkpt lat="47.93843" lon="6.04577">
        <ele>242.2002</ele>
        <time>2026-05-17T10:22:35+02:00</time>
      </trkpt>
      <trkpt lat="47.93849" lon="6.04582">
        <ele>242.2002</ele>
        <time>2026-05-17T10:22:36+02:00</time>
      </trkpt>
      <trkpt lat="47.93854" lon="6.04587">
        <ele>242.2998</ele>
        <time>2026-05-17T10:22:37+02:00</time>
      </trkpt>
      <trkpt lat="47.93858" lon="6.04592">
        <ele>241.2998</ele>
        <time>2026-05-17T10:22:38+02:00</time>
      </trkpt>
      <trkpt lat="47.93864" lon="6.04596">
        <ele>240.5</ele>
        <time>2026-05-17T10:22:39+02:00</time>
      </trkpt>
      <trkpt lat="47.93869" lon="6.04601">
        <ele>239.5</ele>
        <time>2026-05-17T10:22:40+02:00</time>
      </trkpt>
      <trkpt lat="47.93874" lon="6.04605">
        <ele>239.10059</ele>
        <time>2026-05-17T10:22:41+02:00</time>
      </trkpt>
      <trkpt lat="47.9388" lon="6.04609">
        <ele>238.2998</ele>
        <time>2026-05-17T10:22:42+02:00</time>
      </trkpt>
      <trkpt lat="47.93885" lon="6.04613">
        <ele>237.7998</ele>
        <time>2026-05-17T10:22:43+02:00</time>
      </trkpt>
      <trkpt lat="47.93891" lon="6.04617">
        <ele>237.10059</ele>
        <time>2026-05-17T10:22:44+02:00</time>
      </trkpt>
      <trkpt lat="47.93896" lon="6.04621">
        <ele>235.90039</ele>
        <time>2026-05-17T10:22:45+02:00</time>
      </trkpt>
      <trkpt lat="47.93902" lon="6.04624">
        <ele>235.2002</ele>
        <time>2026-05-17T10:22:46+02:00</time>
      </trkpt>
      <trkpt lat="47.93908" lon="6.04627">
        <ele>234.60059</ele>
        <time>2026-05-17T10:22:47+02:00</time>
      </trkpt>
      <trkpt lat="47.93913" lon="6.0463">
        <ele>234.10059</ele>
        <time>2026-05-17T10:22:48+02:00</time>
      </trkpt>
      <trkpt lat="47.93919" lon="6.04633">
        <ele>233.60059</ele>
        <time>2026-05-17T10:22:49+02:00</time>
      </trkpt>
      <trkpt lat="47.93924" lon="6.04636">
        <ele>233.2002</ele>
        <time>2026-05-17T10:22:50+02:00</time>
      </trkpt>
      <trkpt lat="47.93931" lon="6.04638">
        <ele>232.7998</ele>
        <time>2026-05-17T10:22:51+02:00</time>
      </trkpt>
      <trkpt lat="47.93936" lon="6.0464">
        <ele>232.40039</ele>
        <time>2026-05-17T10:22:52+02:00</time>
      </trkpt>
      <trkpt lat="47.93942" lon="6.04642">
        <ele>232.2002</ele>
        <time>2026-05-17T10:22:53+02:00</time>
      </trkpt>
      <trkpt lat="47.93948" lon="6.04644">
        <ele>232.40039</ele>
        <time>2026-05-17T10:22:54+02:00</time>
      </trkpt>
      <trkpt lat="47.93953" lon="6.04646">
        <ele>232.2998</ele>
        <time>2026-05-17T10:22:55+02:00</time>
      </trkpt>
      <trkpt lat="47.9396" lon="6.04647">
        <ele>232.2002</ele>
        <time>2026-05-17T10:22:56+02:00</time>
      </trkpt>
      <trkpt lat="47.93965" lon="6.04648">
        <ele>232.2002</ele>
        <time>2026-05-17T10:22:57+02:00</time>
      </trkpt>
      <trkpt lat="47.93971" lon="6.04649">
        <ele>232.2002</ele>
        <time>2026-05-17T10:22:58+02:00</time>
      </trkpt>
      <trkpt lat="47.93977" lon="6.0465">
        <ele>232.2002</ele>
        <time>2026-05-17T10:22:59+02:00</time>
      </trkpt>
      <trkpt lat="47.93983" lon="6.04651">
        <ele>232.2002</ele>
        <time>2026-05-17T10:23:00+02:00</time>
      </trkpt>
      <trkpt lat="47.93989" lon="6.04651">
        <ele>232.2002</ele>
        <time>2026-05-17T10:23:01+02:00</time>
      </trkpt>
      <trkpt lat="47.93995" lon="6.04652">
        <ele>232.40039</ele>
        <time>2026-05-17T10:23:02+02:00</time>
      </trkpt>
      <trkpt lat="47.94002" lon="6.04652">
        <ele>232.5</ele>
        <time>2026-05-17T10:23:03+02:00</time>
      </trkpt>
      <trkpt lat="47.94008" lon="6.04651">
        <ele>232.2998</ele>
        <time>2026-05-17T10:23:04+02:00</time>
      </trkpt>
      <trkpt lat="47.94014" lon="6.04651">
        <ele>232.2998</ele>
        <time>2026-05-17T10:23:05+02:00</time>
      </trkpt>
      <trkpt lat="47.9402" lon="6.0465">
        <ele>232.40039</ele>
        <time>2026-05-17T10:23:06+02:00</time>
      </trkpt>
      <trkpt lat="47.94026" lon="6.04649">
        <ele>232.40039</ele>
        <time>2026-05-17T10:23:07+02:00</time>
      </trkpt>
      <trkpt lat="47.94032" lon="6.04649">
        <ele>232.5</ele>
        <time>2026-05-17T10:23:08+02:00</time>
      </trkpt>
      <trkpt lat="47.94038" lon="6.04648">
        <ele>232.60059</ele>
        <time>2026-05-17T10:23:09+02:00</time>
      </trkpt>
      <trkpt lat="47.94045" lon="6.04647">
        <ele>232.7002</ele>
        <time>2026-05-17T10:23:10+02:00</time>
      </trkpt>
      <trkpt lat="47.94051" lon="6.04646">
        <ele>232.7998</ele>
        <time>2026-05-17T10:23:11+02:00</time>
      </trkpt>
      <trkpt lat="47.94057" lon="6.04644">
        <ele>232.90039</ele>
        <time>2026-05-17T10:23:12+02:00</time>
      </trkpt>
      <trkpt lat="47.94063" lon="6.04643">
        <ele>233</ele>
        <time>2026-05-17T10:23:13+02:00</time>
      </trkpt>
      <trkpt lat="47.9407" lon="6.04642">
        <ele>232.7998</ele>
        <time>2026-05-17T10:23:14+02:00</time>
      </trkpt>
      <trkpt lat="47.94076" lon="6.04641">
        <ele>232.90039</ele>
        <time>2026-05-17T10:23:15+02:00</time>
      </trkpt>
      <trkpt lat="47.94082" lon="6.0464">
        <ele>233</ele>
        <time>2026-05-17T10:23:16+02:00</time>
      </trkpt>
      <trkpt lat="47.94089" lon="6.04639">
        <ele>233.10059</ele>
        <time>2026-05-17T10:23:17+02:00</time>
      </trkpt>
      <trkpt lat="47.94095" lon="6.04638">
        <ele>233.2002</ele>
        <time>2026-05-17T10:23:18+02:00</time>
      </trkpt>
      <trkpt lat="47.94101" lon="6.04636">
        <ele>233.2998</ele>
        <time>2026-05-17T10:23:19+02:00</time>
      </trkpt>
      <trkpt lat="47.94108" lon="6.04635">
        <ele>233.40039</ele>
        <time>2026-05-17T10:23:20+02:00</time>
      </trkpt>
      <trkpt lat="47.94114" lon="6.04634">
        <ele>232.90039</ele>
        <time>2026-05-17T10:23:21+02:00</time>
      </trkpt>
      <trkpt lat="47.9412" lon="6.04633">
        <ele>233</ele>
        <time>2026-05-17T10:23:22+02:00</time>
      </trkpt>
      <trkpt lat="47.94126" lon="6.04632">
        <ele>233.2002</ele>
        <time>2026-05-17T10:23:23+02:00</time>
      </trkpt>
      <trkpt lat="47.94132" lon="6.04631">
        <ele>233.40039</ele>
        <time>2026-05-17T10:23:24+02:00</time>
      </trkpt>
      <trkpt lat="47.94138" lon="6.0463">
        <ele>233.60059</ele>
        <time>2026-05-17T10:23:25+02:00</time>
      </trkpt>
      <trkpt lat="47.94144" lon="6.04629">
        <ele>233.7998</ele>
        <time>2026-05-17T10:23:26+02:00</time>
      </trkpt>
      <trkpt lat="47.9415" lon="6.04628">
        <ele>234.10059</ele>
        <time>2026-05-17T10:23:27+02:00</time>
      </trkpt>
      <trkpt lat="47.94156" lon="6.04627">
        <ele>234.5</ele>
        <time>2026-05-17T10:23:28+02:00</time>
      </trkpt>
      <trkpt lat="47.94162" lon="6.04625">
        <ele>234.40039</ele>
        <time>2026-05-17T10:23:29+02:00</time>
      </trkpt>
      <trkpt lat="47.94168" lon="6.04624">
        <ele>234.60059</ele>
        <time>2026-05-17T10:23:30+02:00</time>
      </trkpt>
      <trkpt lat="47.94174" lon="6.04623">
        <ele>234.7998</ele>
        <time>2026-05-17T10:23:31+02:00</time>
      </trkpt>
      <trkpt lat="47.9418" lon="6.04622">
        <ele>234.7998</ele>
        <time>2026-05-17T10:23:32+02:00</time>
      </trkpt>
      <trkpt lat="47.94187" lon="6.04621">
        <ele>234.90039</ele>
        <time>2026-05-17T10:23:33+02:00</time>
      </trkpt>
      <trkpt lat="47.94193" lon="6.0462">
        <ele>234.90039</ele>
        <time>2026-05-17T10:23:34+02:00</time>
      </trkpt>
      <trkpt lat="47.94199" lon="6.04619">
        <ele>234.90039</ele>
        <time>2026-05-17T10:23:35+02:00</time>
      </trkpt>
      <trkpt lat="47.94205" lon="6.04618">
        <ele>234.7998</ele>
        <time>2026-05-17T10:23:36+02:00</time>
      </trkpt>
      <trkpt lat="47.94211" lon="6.04617">
        <ele>234.2998</ele>
        <time>2026-05-17T10:23:37+02:00</time>
      </trkpt>
      <trkpt lat="47.94218" lon="6.04616">
        <ele>234.2998</ele>
        <time>2026-05-17T10:23:38+02:00</time>
      </trkpt>
      <trkpt lat="47.94224" lon="6.04615">
        <ele>234.2002</ele>
        <time>2026-05-17T10:23:39+02:00</time>
      </trkpt>
      <trkpt lat="47.94231" lon="6.04614">
        <ele>234.10059</ele>
        <time>2026-05-17T10:23:40+02:00</time>
      </trkpt>
      <trkpt lat="47.94238" lon="6.04613">
        <ele>234</ele>
        <time>2026-05-17T10:23:41+02:00</time>
      </trkpt>
      <trkpt lat="47.94244" lon="6.04612">
        <ele>233.90039</ele>
        <time>2026-05-17T10:23:42+02:00</time>
      </trkpt>
      <trkpt lat="47.94251" lon="6.04611">
        <ele>233.7998</ele>
        <time>2026-05-17T10:23:43+02:00</time>
      </trkpt>
      <trkpt lat="47.94257" lon="6.0461">
        <ele>233.5</ele>
        <time>2026-05-17T10:23:44+02:00</time>
      </trkpt>
      <trkpt lat="47.94264" lon="6.04609">
        <ele>233.2998</ele>
        <time>2026-05-17T10:23:45+02:00</time>
      </trkpt>
      <trkpt lat="47.9427" lon="6.04608">
        <ele>232.90039</ele>
        <time>2026-05-17T10:23:46+02:00</time>
      </trkpt>
      <trkpt lat="47.94276" lon="6.04607">
        <ele>232.7998</ele>
        <time>2026-05-17T10:23:47+02:00</time>
      </trkpt>
      <trkpt lat="47.94283" lon="6.04606">
        <ele>232.60059</ele>
        <time>2026-05-17T10:23:48+02:00</time>
      </trkpt>
      <trkpt lat="47.94289" lon="6.04605">
        <ele>232.5</ele>
        <time>2026-05-17T10:23:49+02:00</time>
      </trkpt>
      <trkpt lat="47.94296" lon="6.04603">
        <ele>232.40039</ele>
        <time>2026-05-17T10:23:50+02:00</time>
      </trkpt>
      <trkpt lat="47.94302" lon="6.04603">
        <ele>232.2998</ele>
        <time>2026-05-17T10:23:51+02:00</time>
      </trkpt>
      <trkpt lat="47.94308" lon="6.04602">
        <ele>232.2002</ele>
        <time>2026-05-17T10:23:52+02:00</time>
      </trkpt>
      <trkpt lat="47.94315" lon="6.04601">
        <ele>232</ele>
        <time>2026-05-17T10:23:53+02:00</time>
      </trkpt>
      <trkpt lat="47.94321" lon="6.046">
        <ele>231.90039</ele>
        <time>2026-05-17T10:23:54+02:00</time>
      </trkpt>
      <trkpt lat="47.94327" lon="6.04599">
        <ele>231.7998</ele>
        <time>2026-05-17T10:23:55+02:00</time>
      </trkpt>
      <trkpt lat="47.94334" lon="6.04597">
        <ele>231.7998</ele>
        <time>2026-05-17T10:23:56+02:00</time>
      </trkpt>
      <trkpt lat="47.9434" lon="6.04596">
        <ele>231.7998</ele>
        <time>2026-05-17T10:23:57+02:00</time>
      </trkpt>
      <trkpt lat="47.94347" lon="6.04595">
        <ele>231.90039</ele>
        <time>2026-05-17T10:23:58+02:00</time>
      </trkpt>
      <trkpt lat="47.94353" lon="6.04594">
        <ele>231.90039</ele>
        <time>2026-05-17T10:23:59+02:00</time>
      </trkpt>
      <trkpt lat="47.94359" lon="6.04593">
        <ele>232</ele>
        <time>2026-05-17T10:24:00+02:00</time>
      </trkpt>
      <trkpt lat="47.94366" lon="6.04591">
        <ele>232.10059</ele>
        <time>2026-05-17T10:24:01+02:00</time>
      </trkpt>
      <trkpt lat="47.94372" lon="6.0459">
        <ele>232.2002</ele>
        <time>2026-05-17T10:24:02+02:00</time>
      </trkpt>
      <trkpt lat="47.94378" lon="6.04589">
        <ele>232.40039</ele>
        <time>2026-05-17T10:24:03+02:00</time>
      </trkpt>
      <trkpt lat="47.94385" lon="6.04587">
        <ele>232.5</ele>
        <time>2026-05-17T10:24:04+02:00</time>
      </trkpt>
      <trkpt lat="47.94391" lon="6.04586">
        <ele>232.60059</ele>
        <time>2026-05-17T10:24:05+02:00</time>
      </trkpt>
      <trkpt lat="47.94397" lon="6.04585">
        <ele>232.7002</ele>
        <time>2026-05-17T10:24:06+02:00</time>
      </trkpt>
      <trkpt lat="47.94404" lon="6.04584">
        <ele>232.90039</ele>
        <time>2026-05-17T10:24:07+02:00</time>
      </trkpt>
      <trkpt lat="47.9441" lon="6.04583">
        <ele>233</ele>
        <time>2026-05-17T10:24:08+02:00</time>
      </trkpt>
      <trkpt lat="47.94417" lon="6.04581">
        <ele>233</ele>
        <time>2026-05-17T10:24:09+02:00</time>
      </trkpt>
      <trkpt lat="47.94423" lon="6.0458">
        <ele>233.10059</ele>
        <time>2026-05-17T10:24:10+02:00</time>
      </trkpt>
      <trkpt lat="47.9443" lon="6.04579">
        <ele>233.40039</ele>
        <time>2026-05-17T10:24:11+02:00</time>
      </trkpt>
      <trkpt lat="47.94436" lon="6.04579">
        <ele>233.5</ele>
        <time>2026-05-17T10:24:12+02:00</time>
      </trkpt>
      <trkpt lat="47.94442" lon="6.04577">
        <ele>233.7002</ele>
        <time>2026-05-17T10:24:13+02:00</time>
      </trkpt>
      <trkpt lat="47.94449" lon="6.04576">
        <ele>233.7998</ele>
        <time>2026-05-17T10:24:14+02:00</time>
      </trkpt>
      <trkpt lat="47.94455" lon="6.04575">
        <ele>233.90039</ele>
        <time>2026-05-17T10:24:15+02:00</time>
      </trkpt>
      <trkpt lat="47.94462" lon="6.04574">
        <ele>233.7998</ele>
        <time>2026-05-17T10:24:16+02:00</time>
      </trkpt>
      <trkpt lat="47.94468" lon="6.04572">
        <ele>233.90039</ele>
        <time>2026-05-17T10:24:17+02:00</time>
      </trkpt>
      <trkpt lat="47.94475" lon="6.04571">
        <ele>234</ele>
        <time>2026-05-17T10:24:18+02:00</time>
      </trkpt>
      <trkpt lat="47.94481" lon="6.0457">
        <ele>234</ele>
        <time>2026-05-17T10:24:19+02:00</time>
      </trkpt>
      <trkpt lat="47.94488" lon="6.04569">
        <ele>234</ele>
        <time>2026-05-17T10:24:20+02:00</time>
      </trkpt>
      <trkpt lat="47.94494" lon="6.04568">
        <ele>234</ele>
        <time>2026-05-17T10:24:21+02:00</time>
      </trkpt>
      <trkpt lat="47.945" lon="6.04567">
        <ele>233.90039</ele>
        <time>2026-05-17T10:24:22+02:00</time>
      </trkpt>
      <trkpt lat="47.94507" lon="6.04567">
        <ele>233.7002</ele>
        <time>2026-05-17T10:24:23+02:00</time>
      </trkpt>
      <trkpt lat="47.94513" lon="6.04567">
        <ele>233.5</ele>
        <time>2026-05-17T10:24:24+02:00</time>
      </trkpt>
      <trkpt lat="47.9452" lon="6.04566">
        <ele>233.40039</ele>
        <time>2026-05-17T10:24:25+02:00</time>
      </trkpt>
      <trkpt lat="47.94526" lon="6.04565">
        <ele>233.5</ele>
        <time>2026-05-17T10:24:26+02:00</time>
      </trkpt>
      <trkpt lat="47.94533" lon="6.04564">
        <ele>233.2002</ele>
        <time>2026-05-17T10:24:27+02:00</time>
      </trkpt>
      <trkpt lat="47.94539" lon="6.04564">
        <ele>233.2002</ele>
        <time>2026-05-17T10:24:28+02:00</time>
      </trkpt>
      <trkpt lat="47.94545" lon="6.04564">
        <ele>233.2002</ele>
        <time>2026-05-17T10:24:29+02:00</time>
      </trkpt>
      <trkpt lat="47.94552" lon="6.04564">
        <ele>233.2002</ele>
        <time>2026-05-17T10:24:30+02:00</time>
      </trkpt>
      <trkpt lat="47.94559" lon="6.04563">
        <ele>233.2998</ele>
        <time>2026-05-17T10:24:31+02:00</time>
      </trkpt>
      <trkpt lat="47.94565" lon="6.04563">
        <ele>233.2998</ele>
        <time>2026-05-17T10:24:32+02:00</time>
      </trkpt>
      <trkpt lat="47.94571" lon="6.04563">
        <ele>233.40039</ele>
        <time>2026-05-17T10:24:33+02:00</time>
      </trkpt>
      <trkpt lat="47.94578" lon="6.04563">
        <ele>233.40039</ele>
        <time>2026-05-17T10:24:34+02:00</time>
      </trkpt>
      <trkpt lat="47.94584" lon="6.04563">
        <ele>233.40039</ele>
        <time>2026-05-17T10:24:35+02:00</time>
      </trkpt>
      <trkpt lat="47.9459" lon="6.04563">
        <ele>233.40039</ele>
        <time>2026-05-17T10:24:36+02:00</time>
      </trkpt>
      <trkpt lat="47.94596" lon="6.04563">
        <ele>233.5</ele>
        <time>2026-05-17T10:24:37+02:00</time>
      </trkpt>
      <trkpt lat="47.94603" lon="6.04563">
        <ele>233.5</ele>
        <time>2026-05-17T10:24:38+02:00</time>
      </trkpt>
      <trkpt lat="47.9461" lon="6.04564">
        <ele>233.60059</ele>
        <time>2026-05-17T10:24:39+02:00</time>
      </trkpt>
      <trkpt lat="47.94616" lon="6.04564">
        <ele>233.60059</ele>
        <time>2026-05-17T10:24:40+02:00</time>
      </trkpt>
      <trkpt lat="47.94622" lon="6.04565">
        <ele>233.7002</ele>
        <time>2026-05-17T10:24:41+02:00</time>
      </trkpt>
      <trkpt lat="47.94629" lon="6.04565">
        <ele>233.7998</ele>
        <time>2026-05-17T10:24:42+02:00</time>
      </trkpt>
      <trkpt lat="47.94635" lon="6.04566">
        <ele>233.60059</ele>
        <time>2026-05-17T10:24:43+02:00</time>
      </trkpt>
      <trkpt lat="47.94642" lon="6.04566">
        <ele>233.7998</ele>
        <time>2026-05-17T10:24:44+02:00</time>
      </trkpt>
      <trkpt lat="47.94648" lon="6.04567">
        <ele>234</ele>
        <time>2026-05-17T10:24:45+02:00</time>
      </trkpt>
      <trkpt lat="47.94655" lon="6.04568">
        <ele>234.10059</ele>
        <time>2026-05-17T10:24:46+02:00</time>
      </trkpt>
      <trkpt lat="47.94661" lon="6.04568">
        <ele>234.2002</ele>
        <time>2026-05-17T10:24:47+02:00</time>
      </trkpt>
      <trkpt lat="47.94667" lon="6.04568">
        <ele>234.2998</ele>
        <time>2026-05-17T10:24:48+02:00</time>
      </trkpt>
      <trkpt lat="47.94673" lon="6.04569">
        <ele>234.40039</ele>
        <time>2026-05-17T10:24:49+02:00</time>
      </trkpt>
      <trkpt lat="47.9468" lon="6.0457">
        <ele>234.5</ele>
        <time>2026-05-17T10:24:50+02:00</time>
      </trkpt>
      <trkpt lat="47.94686" lon="6.0457">
        <ele>234.60059</ele>
        <time>2026-05-17T10:24:51+02:00</time>
      </trkpt>
      <trkpt lat="47.94692" lon="6.04571">
        <ele>234.7002</ele>
        <time>2026-05-17T10:24:52+02:00</time>
      </trkpt>
      <trkpt lat="47.94699" lon="6.04572">
        <ele>234.7998</ele>
        <time>2026-05-17T10:24:53+02:00</time>
      </trkpt>
      <trkpt lat="47.94705" lon="6.04573">
        <ele>234.7998</ele>
        <time>2026-05-17T10:24:54+02:00</time>
      </trkpt>
      <trkpt lat="47.94711" lon="6.04575">
        <ele>234</ele>
        <time>2026-05-17T10:24:55+02:00</time>
      </trkpt>
      <trkpt lat="47.94718" lon="6.04576">
        <ele>233.90039</ele>
        <time>2026-05-17T10:24:56+02:00</time>
      </trkpt>
      <trkpt lat="47.94724" lon="6.04577">
        <ele>233.7998</ele>
        <time>2026-05-17T10:24:57+02:00</time>
      </trkpt>
      <trkpt lat="47.9473" lon="6.04579">
        <ele>233.7998</ele>
        <time>2026-05-17T10:24:58+02:00</time>
      </trkpt>
      <trkpt lat="47.94736" lon="6.0458">
        <ele>233.90039</ele>
        <time>2026-05-17T10:24:59+02:00</time>
      </trkpt>
      <trkpt lat="47.94743" lon="6.04581">
        <ele>234</ele>
        <time>2026-05-17T10:25:00+02:00</time>
      </trkpt>
      <trkpt lat="47.94749" lon="6.04582">
        <ele>234</ele>
        <time>2026-05-17T10:25:01+02:00</time>
      </trkpt>
      <trkpt lat="47.94755" lon="6.04584">
        <ele>233.7002</ele>
        <time>2026-05-17T10:25:02+02:00</time>
      </trkpt>
      <trkpt lat="47.94761" lon="6.04585">
        <ele>233.7998</ele>
        <time>2026-05-17T10:25:03+02:00</time>
      </trkpt>
      <trkpt lat="47.94768" lon="6.04587">
        <ele>233.90039</ele>
        <time>2026-05-17T10:25:04+02:00</time>
      </trkpt>
      <trkpt lat="47.94773" lon="6.04589">
        <ele>234</ele>
        <time>2026-05-17T10:25:05+02:00</time>
      </trkpt>
      <trkpt lat="47.9478" lon="6.0459">
        <ele>234.2002</ele>
        <time>2026-05-17T10:25:06+02:00</time>
      </trkpt>
      <trkpt lat="47.94785" lon="6.04591">
        <ele>234.2002</ele>
        <time>2026-05-17T10:25:07+02:00</time>
      </trkpt>
      <trkpt lat="47.94792" lon="6.04593">
        <ele>233.7002</ele>
        <time>2026-05-17T10:25:08+02:00</time>
      </trkpt>
      <trkpt lat="47.94798" lon="6.04594">
        <ele>233.90039</ele>
        <time>2026-05-17T10:25:09+02:00</time>
      </trkpt>
      <trkpt lat="47.94805" lon="6.04596">
        <ele>234.10059</ele>
        <time>2026-05-17T10:25:10+02:00</time>
      </trkpt>
      <trkpt lat="47.94812" lon="6.04598">
        <ele>234.2998</ele>
        <time>2026-05-17T10:25:11+02:00</time>
      </trkpt>
      <trkpt lat="47.94818" lon="6.046">
        <ele>233.2998</ele>
        <time>2026-05-17T10:25:12+02:00</time>
      </trkpt>
      <trkpt lat="47.94825" lon="6.04602">
        <ele>233.60059</ele>
        <time>2026-05-17T10:25:13+02:00</time>
      </trkpt>
      <trkpt lat="47.94831" lon="6.04603">
        <ele>234</ele>
        <time>2026-05-17T10:25:14+02:00</time>
      </trkpt>
      <trkpt lat="47.94837" lon="6.04604">
        <ele>234.2998</ele>
        <time>2026-05-17T10:25:15+02:00</time>
      </trkpt>
      <trkpt lat="47.94843" lon="6.04605">
        <ele>234.60059</ele>
        <time>2026-05-17T10:25:16+02:00</time>
      </trkpt>
      <trkpt lat="47.94849" lon="6.04607">
        <ele>234.7998</ele>
        <time>2026-05-17T10:25:17+02:00</time>
      </trkpt>
      <trkpt lat="47.94856" lon="6.04608">
        <ele>235</ele>
        <time>2026-05-17T10:25:18+02:00</time>
      </trkpt>
      <trkpt lat="47.94862" lon="6.0461">
        <ele>234.7002</ele>
        <time>2026-05-17T10:25:19+02:00</time>
      </trkpt>
      <trkpt lat="47.94868" lon="6.04611">
        <ele>235</ele>
        <time>2026-05-17T10:25:20+02:00</time>
      </trkpt>
      <trkpt lat="47.94874" lon="6.04613">
        <ele>235.2002</ele>
        <time>2026-05-17T10:25:21+02:00</time>
      </trkpt>
      <trkpt lat="47.9488" lon="6.04614">
        <ele>235.40039</ele>
        <time>2026-05-17T10:25:22+02:00</time>
      </trkpt>
      <trkpt lat="47.94887" lon="6.04616">
        <ele>235.5</ele>
        <time>2026-05-17T10:25:23+02:00</time>
      </trkpt>
      <trkpt lat="47.94892" lon="6.04617">
        <ele>235.40039</ele>
        <time>2026-05-17T10:25:24+02:00</time>
      </trkpt>
      <trkpt lat="47.94898" lon="6.04619">
        <ele>234.40039</ele>
        <time>2026-05-17T10:25:25+02:00</time>
      </trkpt>
      <trkpt lat="47.94904" lon="6.0462">
        <ele>234.10059</ele>
        <time>2026-05-17T10:25:26+02:00</time>
      </trkpt>
      <trkpt lat="47.94911" lon="6.04622">
        <ele>234.10059</ele>
        <time>2026-05-17T10:25:27+02:00</time>
      </trkpt>
      <trkpt lat="47.94917" lon="6.04623">
        <ele>234.2998</ele>
        <time>2026-05-17T10:25:28+02:00</time>
      </trkpt>
      <trkpt lat="47.94923" lon="6.04624">
        <ele>234.5</ele>
        <time>2026-05-17T10:25:29+02:00</time>
      </trkpt>
      <trkpt lat="47.94929" lon="6.04626">
        <ele>234.5</ele>
        <time>2026-05-17T10:25:30+02:00</time>
      </trkpt>
      <trkpt lat="47.94934" lon="6.04627">
        <ele>234.7002</ele>
        <time>2026-05-17T10:25:31+02:00</time>
      </trkpt>
      <trkpt lat="47.9494" lon="6.04628">
        <ele>235</ele>
        <time>2026-05-17T10:25:32+02:00</time>
      </trkpt>
      <trkpt lat="47.94946" lon="6.04629">
        <ele>235.2002</ele>
        <time>2026-05-17T10:25:33+02:00</time>
      </trkpt>
      <trkpt lat="47.94953" lon="6.0463">
        <ele>235.5</ele>
        <time>2026-05-17T10:25:34+02:00</time>
      </trkpt>
      <trkpt lat="47.94958" lon="6.0463">
        <ele>235.5</ele>
        <time>2026-05-17T10:25:35+02:00</time>
      </trkpt>
      <trkpt lat="47.94964" lon="6.0463">
        <ele>235.2998</ele>
        <time>2026-05-17T10:25:36+02:00</time>
      </trkpt>
      <trkpt lat="47.94969" lon="6.0463">
        <ele>235.2998</ele>
        <time>2026-05-17T10:25:37+02:00</time>
      </trkpt>
      <trkpt lat="47.94975" lon="6.04631">
        <ele>235.2002</ele>
        <time>2026-05-17T10:25:38+02:00</time>
      </trkpt>
      <trkpt lat="47.9498" lon="6.04632">
        <ele>235.40039</ele>
        <time>2026-05-17T10:25:39+02:00</time>
      </trkpt>
      <trkpt lat="47.94985" lon="6.04634">
        <ele>235.60059</ele>
        <time>2026-05-17T10:25:40+02:00</time>
      </trkpt>
      <trkpt lat="47.9499" lon="6.04635">
        <ele>235.10059</ele>
        <time>2026-05-17T10:25:41+02:00</time>
      </trkpt>
      <trkpt lat="47.94995" lon="6.04637">
        <ele>235.5</ele>
        <time>2026-05-17T10:25:42+02:00</time>
      </trkpt>
      <trkpt lat="47.95001" lon="6.0464">
        <ele>235.7998</ele>
        <time>2026-05-17T10:25:43+02:00</time>
      </trkpt>
      <trkpt lat="47.95007" lon="6.04643">
        <ele>235.5</ele>
        <time>2026-05-17T10:25:44+02:00</time>
      </trkpt>
      <trkpt lat="47.95012" lon="6.04646">
        <ele>235.90039</ele>
        <time>2026-05-17T10:25:45+02:00</time>
      </trkpt>
      <trkpt lat="47.95018" lon="6.0465">
        <ele>236.2998</ele>
        <time>2026-05-17T10:25:46+02:00</time>
      </trkpt>
      <trkpt lat="47.95023" lon="6.04654">
        <ele>236</ele>
        <time>2026-05-17T10:25:47+02:00</time>
      </trkpt>
      <trkpt lat="47.95028" lon="6.04658">
        <ele>236.2002</ele>
        <time>2026-05-17T10:25:48+02:00</time>
      </trkpt>
      <trkpt lat="47.95034" lon="6.04662">
        <ele>235.60059</ele>
        <time>2026-05-17T10:25:49+02:00</time>
      </trkpt>
      <trkpt lat="47.95039" lon="6.04667">
        <ele>235.7998</ele>
        <time>2026-05-17T10:25:50+02:00</time>
      </trkpt>
      <trkpt lat="47.95044" lon="6.04672">
        <ele>235.2002</ele>
        <time>2026-05-17T10:25:51+02:00</time>
      </trkpt>
      <trkpt lat="47.9505" lon="6.04677">
        <ele>235.7002</ele>
        <time>2026-05-17T10:25:52+02:00</time>
      </trkpt>
      <trkpt lat="47.95055" lon="6.04682">
        <ele>236.5</ele>
        <time>2026-05-17T10:25:53+02:00</time>
      </trkpt>
      <trkpt lat="47.9506" lon="6.04687">
        <ele>237.2998</ele>
        <time>2026-05-17T10:25:54+02:00</time>
      </trkpt>
      <trkpt lat="47.95065" lon="6.04692">
        <ele>237.7998</ele>
        <time>2026-05-17T10:25:55+02:00</time>
      </trkpt>
      <trkpt lat="47.9507" lon="6.04697">
        <ele>237.60059</ele>
        <time>2026-05-17T10:25:56+02:00</time>
      </trkpt>
      <trkpt lat="47.95074" lon="6.04703">
        <ele>237.10059</ele>
        <time>2026-05-17T10:25:57+02:00</time>
      </trkpt>
      <trkpt lat="47.95079" lon="6.04709">
        <ele>236.60059</ele>
        <time>2026-05-17T10:25:58+02:00</time>
      </trkpt>
      <trkpt lat="47.95084" lon="6.04716">
        <ele>237.2002</ele>
        <time>2026-05-17T10:25:59+02:00</time>
      </trkpt>
      <trkpt lat="47.95089" lon="6.04723">
        <ele>238.10059</ele>
        <time>2026-05-17T10:26:00+02:00</time>
      </trkpt>
      <trkpt lat="47.95094" lon="6.04731">
        <ele>239.2002</ele>
        <time>2026-05-17T10:26:01+02:00</time>
      </trkpt>
      <trkpt lat="47.95098" lon="6.04739">
        <ele>239.90039</ele>
        <time>2026-05-17T10:26:02+02:00</time>
      </trkpt>
      <trkpt lat="47.95103" lon="6.04746">
        <ele>240.60059</ele>
        <time>2026-05-17T10:26:03+02:00</time>
      </trkpt>
      <trkpt lat="47.95107" lon="6.04754">
        <ele>240.60059</ele>
        <time>2026-05-17T10:26:04+02:00</time>
      </trkpt>
      <trkpt lat="47.95111" lon="6.04762">
        <ele>241.5</ele>
        <time>2026-05-17T10:26:05+02:00</time>
      </trkpt>
      <trkpt lat="47.95115" lon="6.04769">
        <ele>242.2002</ele>
        <time>2026-05-17T10:26:06+02:00</time>
      </trkpt>
      <trkpt lat="47.95118" lon="6.04776">
        <ele>242.5</ele>
        <time>2026-05-17T10:26:07+02:00</time>
      </trkpt>
      <trkpt lat="47.95121" lon="6.04784">
        <ele>243</ele>
        <time>2026-05-17T10:26:08+02:00</time>
      </trkpt>
      <trkpt lat="47.95123" lon="6.04792">
        <ele>243.2002</ele>
        <time>2026-05-17T10:26:09+02:00</time>
      </trkpt>
      <trkpt lat="47.95126" lon="6.04801">
        <ele>243.7998</ele>
        <time>2026-05-17T10:26:10+02:00</time>
      </trkpt>
      <trkpt lat="47.95128" lon="6.04809">
        <ele>244.10059</ele>
        <time>2026-05-17T10:26:11+02:00</time>
      </trkpt>
      <trkpt lat="47.95131" lon="6.04817">
        <ele>244.60059</ele>
        <time>2026-05-17T10:26:12+02:00</time>
      </trkpt>
      <trkpt lat="47.95133" lon="6.04826">
        <ele>244.7002</ele>
        <time>2026-05-17T10:26:13+02:00</time>
      </trkpt>
      <trkpt lat="47.95136" lon="6.04834">
        <ele>244.7998</ele>
        <time>2026-05-17T10:26:14+02:00</time>
      </trkpt>
      <trkpt lat="47.95139" lon="6.04843">
        <ele>244.90039</ele>
        <time>2026-05-17T10:26:15+02:00</time>
      </trkpt>
      <trkpt lat="47.95141" lon="6.04852">
        <ele>244.90039</ele>
        <time>2026-05-17T10:26:16+02:00</time>
      </trkpt>
      <trkpt lat="47.95144" lon="6.0486">
        <ele>244.7002</ele>
        <time>2026-05-17T10:26:17+02:00</time>
      </trkpt>
      <trkpt lat="47.95146" lon="6.04869">
        <ele>244.7002</ele>
        <time>2026-05-17T10:26:18+02:00</time>
      </trkpt>
      <trkpt lat="47.95148" lon="6.04877">
        <ele>244.7998</ele>
        <time>2026-05-17T10:26:19+02:00</time>
      </trkpt>
      <trkpt lat="47.95151" lon="6.04886">
        <ele>244.7998</ele>
        <time>2026-05-17T10:26:20+02:00</time>
      </trkpt>
      <trkpt lat="47.95153" lon="6.04893">
        <ele>244.7998</ele>
        <time>2026-05-17T10:26:21+02:00</time>
      </trkpt>
      <trkpt lat="47.95155" lon="6.04902">
        <ele>244.7998</ele>
        <time>2026-05-17T10:26:22+02:00</time>
      </trkpt>
      <trkpt lat="47.95157" lon="6.0491">
        <ele>244.7002</ele>
        <time>2026-05-17T10:26:23+02:00</time>
      </trkpt>
      <trkpt lat="47.9516" lon="6.04918">
        <ele>244.7998</ele>
        <time>2026-05-17T10:26:24+02:00</time>
      </trkpt>
      <trkpt lat="47.95163" lon="6.04926">
        <ele>244.7998</ele>
        <time>2026-05-17T10:26:25+02:00</time>
      </trkpt>
      <trkpt lat="47.95165" lon="6.04935">
        <ele>244.7998</ele>
        <time>2026-05-17T10:26:26+02:00</time>
      </trkpt>
      <trkpt lat="47.95168" lon="6.04943">
        <ele>245.2002</ele>
        <time>2026-05-17T10:26:27+02:00</time>
      </trkpt>
      <trkpt lat="47.95171" lon="6.04952">
        <ele>245.2998</ele>
        <time>2026-05-17T10:26:28+02:00</time>
      </trkpt>
      <trkpt lat="47.95174" lon="6.0496">
        <ele>245.2998</ele>
        <time>2026-05-17T10:26:29+02:00</time>
      </trkpt>
      <trkpt lat="47.95176" lon="6.04968">
        <ele>245.2998</ele>
        <time>2026-05-17T10:26:30+02:00</time>
      </trkpt>
      <trkpt lat="47.95179" lon="6.04977">
        <ele>245.10059</ele>
        <time>2026-05-17T10:26:31+02:00</time>
      </trkpt>
      <trkpt lat="47.95182" lon="6.04986">
        <ele>245</ele>
        <time>2026-05-17T10:26:32+02:00</time>
      </trkpt>
      <trkpt lat="47.95184" lon="6.04994">
        <ele>244.60059</ele>
        <time>2026-05-17T10:26:33+02:00</time>
      </trkpt>
      <trkpt lat="47.95186" lon="6.05003">
        <ele>244.5</ele>
        <time>2026-05-17T10:26:34+02:00</time>
      </trkpt>
      <trkpt lat="47.95188" lon="6.05011">
        <ele>244</ele>
        <time>2026-05-17T10:26:35+02:00</time>
      </trkpt>
      <trkpt lat="47.95191" lon="6.0502">
        <ele>243.7998</ele>
        <time>2026-05-17T10:26:36+02:00</time>
      </trkpt>
      <trkpt lat="47.95193" lon="6.05029">
        <ele>243.7002</ele>
        <time>2026-05-17T10:26:37+02:00</time>
      </trkpt>
      <trkpt lat="47.95195" lon="6.05038">
        <ele>242.7998</ele>
        <time>2026-05-17T10:26:38+02:00</time>
      </trkpt>
      <trkpt lat="47.95197" lon="6.05048">
        <ele>242.7002</ele>
        <time>2026-05-17T10:26:39+02:00</time>
      </trkpt>
      <trkpt lat="47.952" lon="6.05057">
        <ele>241.90039</ele>
        <time>2026-05-17T10:26:40+02:00</time>
      </trkpt>
      <trkpt lat="47.95202" lon="6.05065">
        <ele>241.90039</ele>
        <time>2026-05-17T10:26:41+02:00</time>
      </trkpt>
      <trkpt lat="47.95204" lon="6.05074">
        <ele>241.7998</ele>
        <time>2026-05-17T10:26:42+02:00</time>
      </trkpt>
      <trkpt lat="47.95205" lon="6.05082">
        <ele>241.7998</ele>
        <time>2026-05-17T10:26:43+02:00</time>
      </trkpt>
      <trkpt lat="47.95207" lon="6.0509">
        <ele>241.2002</ele>
        <time>2026-05-17T10:26:44+02:00</time>
      </trkpt>
      <trkpt lat="47.95207" lon="6.05098">
        <ele>241.10059</ele>
        <time>2026-05-17T10:26:45+02:00</time>
      </trkpt>
      <trkpt lat="47.95208" lon="6.05105">
        <ele>241.10059</ele>
        <time>2026-05-17T10:26:46+02:00</time>
      </trkpt>
      <trkpt lat="47.95208" lon="6.05113">
        <ele>241.10059</ele>
        <time>2026-05-17T10:26:47+02:00</time>
      </trkpt>
      <trkpt lat="47.95208" lon="6.0512">
        <ele>241.10059</ele>
        <time>2026-05-17T10:26:48+02:00</time>
      </trkpt>
      <trkpt lat="47.95209" lon="6.05126">
        <ele>241.10059</ele>
        <time>2026-05-17T10:26:49+02:00</time>
      </trkpt>
      <trkpt lat="47.95209" lon="6.05132">
        <ele>241.10059</ele>
        <time>2026-05-17T10:26:50+02:00</time>
      </trkpt>
      <trkpt lat="47.9521" lon="6.05139">
        <ele>241.2002</ele>
        <time>2026-05-17T10:26:51+02:00</time>
      </trkpt>
      <trkpt lat="47.9521" lon="6.05146">
        <ele>241.2002</ele>
        <time>2026-05-17T10:26:52+02:00</time>
      </trkpt>
      <trkpt lat="47.9521" lon="6.05154">
        <ele>241.2002</ele>
        <time>2026-05-17T10:26:53+02:00</time>
      </trkpt>
      <trkpt lat="47.9521" lon="6.05162">
        <ele>241.2002</ele>
        <time>2026-05-17T10:26:54+02:00</time>
      </trkpt>
      <trkpt lat="47.9521" lon="6.0517">
        <ele>241.2998</ele>
        <time>2026-05-17T10:26:55+02:00</time>
      </trkpt>
      <trkpt lat="47.95211" lon="6.05179">
        <ele>240.90039</ele>
        <time>2026-05-17T10:26:56+02:00</time>
      </trkpt>
      <trkpt lat="47.9521" lon="6.05188">
        <ele>241.2998</ele>
        <time>2026-05-17T10:26:57+02:00</time>
      </trkpt>
      <trkpt lat="47.9521" lon="6.05197">
        <ele>241.40039</ele>
        <time>2026-05-17T10:26:58+02:00</time>
      </trkpt>
      <trkpt lat="47.95209" lon="6.05205">
        <ele>241.40039</ele>
        <time>2026-05-17T10:26:59+02:00</time>
      </trkpt>
      <trkpt lat="47.95208" lon="6.05214">
        <ele>241.5</ele>
        <time>2026-05-17T10:27:00+02:00</time>
      </trkpt>
      <trkpt lat="47.95208" lon="6.05222">
        <ele>241.5</ele>
        <time>2026-05-17T10:27:01+02:00</time>
      </trkpt>
      <trkpt lat="47.95208" lon="6.05231">
        <ele>241.5</ele>
        <time>2026-05-17T10:27:02+02:00</time>
      </trkpt>
      <trkpt lat="47.95207" lon="6.05239">
        <ele>241.5</ele>
        <time>2026-05-17T10:27:03+02:00</time>
      </trkpt>
      <trkpt lat="47.95206" lon="6.05248">
        <ele>241.5</ele>
        <time>2026-05-17T10:27:04+02:00</time>
      </trkpt>
      <trkpt lat="47.95205" lon="6.05256">
        <ele>241.90039</ele>
        <time>2026-05-17T10:27:05+02:00</time>
      </trkpt>
      <trkpt lat="47.95204" lon="6.05265">
        <ele>241.7002</ele>
        <time>2026-05-17T10:27:06+02:00</time>
      </trkpt>
      <trkpt lat="47.95203" lon="6.05274">
        <ele>241.40039</ele>
        <time>2026-05-17T10:27:07+02:00</time>
      </trkpt>
      <trkpt lat="47.95201" lon="6.05283">
        <ele>241</ele>
        <time>2026-05-17T10:27:08+02:00</time>
      </trkpt>
      <trkpt lat="47.952" lon="6.05292">
        <ele>240.7998</ele>
        <time>2026-05-17T10:27:09+02:00</time>
      </trkpt>
      <trkpt lat="47.95197" lon="6.05301">
        <ele>241</ele>
        <time>2026-05-17T10:27:10+02:00</time>
      </trkpt>
      <trkpt lat="47.95196" lon="6.0531">
        <ele>240.90039</ele>
        <time>2026-05-17T10:27:11+02:00</time>
      </trkpt>
      <trkpt lat="47.95194" lon="6.05319">
        <ele>240.90039</ele>
        <time>2026-05-17T10:27:12+02:00</time>
      </trkpt>
      <trkpt lat="47.95193" lon="6.05328">
        <ele>241.2002</ele>
        <time>2026-05-17T10:27:13+02:00</time>
      </trkpt>
      <trkpt lat="47.95192" lon="6.05337">
        <ele>241.10059</ele>
        <time>2026-05-17T10:27:14+02:00</time>
      </trkpt>
      <trkpt lat="47.95191" lon="6.05346">
        <ele>241.10059</ele>
        <time>2026-05-17T10:27:15+02:00</time>
      </trkpt>
      <trkpt lat="47.9519" lon="6.05355">
        <ele>241.10059</ele>
        <time>2026-05-17T10:27:16+02:00</time>
      </trkpt>
      <trkpt lat="47.95189" lon="6.05364">
        <ele>240.90039</ele>
        <time>2026-05-17T10:27:17+02:00</time>
      </trkpt>
      <trkpt lat="47.95187" lon="6.05374">
        <ele>241.40039</ele>
        <time>2026-05-17T10:27:18+02:00</time>
      </trkpt>
      <trkpt lat="47.95186" lon="6.05383">
        <ele>241.40039</ele>
        <time>2026-05-17T10:27:19+02:00</time>
      </trkpt>
      <trkpt lat="47.95184" lon="6.05393">
        <ele>241.40039</ele>
        <time>2026-05-17T10:27:20+02:00</time>
      </trkpt>
      <trkpt lat="47.95182" lon="6.05402">
        <ele>241.40039</ele>
        <time>2026-05-17T10:27:21+02:00</time>
      </trkpt>
      <trkpt lat="47.95179" lon="6.05412">
        <ele>240.7002</ele>
        <time>2026-05-17T10:27:22+02:00</time>
      </trkpt>
      <trkpt lat="47.95177" lon="6.05421">
        <ele>240</ele>
        <time>2026-05-17T10:27:23+02:00</time>
      </trkpt>
      <trkpt lat="47.95175" lon="6.0543">
        <ele>239.7998</ele>
        <time>2026-05-17T10:27:24+02:00</time>
      </trkpt>
      <trkpt lat="47.95173" lon="6.05439">
        <ele>239.2998</ele>
        <time>2026-05-17T10:27:25+02:00</time>
      </trkpt>
      <trkpt lat="47.95172" lon="6.05448">
        <ele>238.90039</ele>
        <time>2026-05-17T10:27:26+02:00</time>
      </trkpt>
      <trkpt lat="47.95171" lon="6.05456">
        <ele>238.60059</ele>
        <time>2026-05-17T10:27:27+02:00</time>
      </trkpt>
      <trkpt lat="47.9517" lon="6.05464">
        <ele>238.40039</ele>
        <time>2026-05-17T10:27:28+02:00</time>
      </trkpt>
      <trkpt lat="47.9517" lon="6.05471">
        <ele>238.10059</ele>
        <time>2026-05-17T10:27:29+02:00</time>
      </trkpt>
      <trkpt lat="47.95169" lon="6.05478">
        <ele>237.90039</ele>
        <time>2026-05-17T10:27:30+02:00</time>
      </trkpt>
      <trkpt lat="47.95168" lon="6.05485">
        <ele>238</ele>
        <time>2026-05-17T10:27:31+02:00</time>
      </trkpt>
      <trkpt lat="47.95168" lon="6.05492">
        <ele>238</ele>
        <time>2026-05-17T10:27:32+02:00</time>
      </trkpt>
      <trkpt lat="47.95168" lon="6.055">
        <ele>238.40039</ele>
        <time>2026-05-17T10:27:33+02:00</time>
      </trkpt>
      <trkpt lat="47.95168" lon="6.05508">
        <ele>238.7998</ele>
        <time>2026-05-17T10:27:34+02:00</time>
      </trkpt>
      <trkpt lat="47.95168" lon="6.05517">
        <ele>239.2002</ele>
        <time>2026-05-17T10:27:35+02:00</time>
      </trkpt>
      <trkpt lat="47.95168" lon="6.05526">
        <ele>239.7002</ele>
        <time>2026-05-17T10:27:36+02:00</time>
      </trkpt>
      <trkpt lat="47.95168" lon="6.05536">
        <ele>240.5</ele>
        <time>2026-05-17T10:27:37+02:00</time>
      </trkpt>
      <trkpt lat="47.95168" lon="6.05546">
        <ele>240.7002</ele>
        <time>2026-05-17T10:27:38+02:00</time>
      </trkpt>
      <trkpt lat="47.95168" lon="6.05556">
        <ele>241</ele>
        <time>2026-05-17T10:27:39+02:00</time>
      </trkpt>
      <trkpt lat="47.95169" lon="6.05566">
        <ele>241.2998</ele>
        <time>2026-05-17T10:27:40+02:00</time>
      </trkpt>
      <trkpt lat="47.9517" lon="6.05577">
        <ele>241.60059</ele>
        <time>2026-05-17T10:27:41+02:00</time>
      </trkpt>
      <trkpt lat="47.9517" lon="6.05587">
        <ele>241.90039</ele>
        <time>2026-05-17T10:27:42+02:00</time>
      </trkpt>
      <trkpt lat="47.95171" lon="6.05596">
        <ele>243.10059</ele>
        <time>2026-05-17T10:27:43+02:00</time>
      </trkpt>
      <trkpt lat="47.95171" lon="6.05606">
        <ele>243.2998</ele>
        <time>2026-05-17T10:27:44+02:00</time>
      </trkpt>
      <trkpt lat="47.9517" lon="6.05615">
        <ele>242.90039</ele>
        <time>2026-05-17T10:27:45+02:00</time>
      </trkpt>
      <trkpt lat="47.9517" lon="6.05623">
        <ele>243.10059</ele>
        <time>2026-05-17T10:27:46+02:00</time>
      </trkpt>
      <trkpt lat="47.9517" lon="6.05632">
        <ele>243.2998</ele>
        <time>2026-05-17T10:27:47+02:00</time>
      </trkpt>
      <trkpt lat="47.9517" lon="6.0564">
        <ele>243.5</ele>
        <time>2026-05-17T10:27:48+02:00</time>
      </trkpt>
      <trkpt lat="47.9517" lon="6.05648">
        <ele>243.60059</ele>
        <time>2026-05-17T10:27:49+02:00</time>
      </trkpt>
      <trkpt lat="47.9517" lon="6.05656">
        <ele>243.7998</ele>
        <time>2026-05-17T10:27:50+02:00</time>
      </trkpt>
      <trkpt lat="47.9517" lon="6.05664">
        <ele>243.7998</ele>
        <time>2026-05-17T10:27:51+02:00</time>
      </trkpt>
      <trkpt lat="47.9517" lon="6.05672">
        <ele>244</ele>
        <time>2026-05-17T10:27:52+02:00</time>
      </trkpt>
      <trkpt lat="47.95171" lon="6.05681">
        <ele>244.7002</ele>
        <time>2026-05-17T10:27:53+02:00</time>
      </trkpt>
      <trkpt lat="47.95171" lon="6.0569">
        <ele>245.2002</ele>
        <time>2026-05-17T10:27:54+02:00</time>
      </trkpt>
      <trkpt lat="47.95172" lon="6.057">
        <ele>245.40039</ele>
        <time>2026-05-17T10:27:55+02:00</time>
      </trkpt>
      <trkpt lat="47.95172" lon="6.05709">
        <ele>245.60059</ele>
        <time>2026-05-17T10:27:56+02:00</time>
      </trkpt>
      <trkpt lat="47.95173" lon="6.05718">
        <ele>245.7998</ele>
        <time>2026-05-17T10:27:57+02:00</time>
      </trkpt>
      <trkpt lat="47.95174" lon="6.05727">
        <ele>246.10059</ele>
        <time>2026-05-17T10:27:58+02:00</time>
      </trkpt>
      <trkpt lat="47.95175" lon="6.05736">
        <ele>246.2998</ele>
        <time>2026-05-17T10:27:59+02:00</time>
      </trkpt>
      <trkpt lat="47.95176" lon="6.05745">
        <ele>246.60059</ele>
        <time>2026-05-17T10:28:00+02:00</time>
      </trkpt>
      <trkpt lat="47.95176" lon="6.05755">
        <ele>247</ele>
        <time>2026-05-17T10:28:01+02:00</time>
      </trkpt>
      <trkpt lat="47.95178" lon="6.05764">
        <ele>247.7002</ele>
        <time>2026-05-17T10:28:02+02:00</time>
      </trkpt>
      <trkpt lat="47.95178" lon="6.05773">
        <ele>247.90039</ele>
        <time>2026-05-17T10:28:03+02:00</time>
      </trkpt>
      <trkpt lat="47.95179" lon="6.05782">
        <ele>248.10059</ele>
        <time>2026-05-17T10:28:04+02:00</time>
      </trkpt>
      <trkpt lat="47.9518" lon="6.05791">
        <ele>248.2002</ele>
        <time>2026-05-17T10:28:05+02:00</time>
      </trkpt>
      <trkpt lat="47.95181" lon="6.05799">
        <ele>248.40039</ele>
        <time>2026-05-17T10:28:06+02:00</time>
      </trkpt>
      <trkpt lat="47.95183" lon="6.05808">
        <ele>248.90039</ele>
        <time>2026-05-17T10:28:07+02:00</time>
      </trkpt>
      <trkpt lat="47.95184" lon="6.05817">
        <ele>249</ele>
        <time>2026-05-17T10:28:08+02:00</time>
      </trkpt>
      <trkpt lat="47.95184" lon="6.05826">
        <ele>249</ele>
        <time>2026-05-17T10:28:09+02:00</time>
      </trkpt>
      <trkpt lat="47.95186" lon="6.05835">
        <ele>249</ele>
        <time>2026-05-17T10:28:10+02:00</time>
      </trkpt>
      <trkpt lat="47.95187" lon="6.05844">
        <ele>248.90039</ele>
        <time>2026-05-17T10:28:11+02:00</time>
      </trkpt>
      <trkpt lat="47.95188" lon="6.05852">
        <ele>249.10059</ele>
        <time>2026-05-17T10:28:12+02:00</time>
      </trkpt>
      <trkpt lat="47.9519" lon="6.05861">
        <ele>248.90039</ele>
        <time>2026-05-17T10:28:13+02:00</time>
      </trkpt>
      <trkpt lat="47.95192" lon="6.0587">
        <ele>248.40039</ele>
        <time>2026-05-17T10:28:14+02:00</time>
      </trkpt>
      <trkpt lat="47.95193" lon="6.05878">
        <ele>247.7002</ele>
        <time>2026-05-17T10:28:15+02:00</time>
      </trkpt>
      <trkpt lat="47.95195" lon="6.05888">
        <ele>246.60059</ele>
        <time>2026-05-17T10:28:16+02:00</time>
      </trkpt>
      <trkpt lat="47.95197" lon="6.05896">
        <ele>245.7002</ele>
        <time>2026-05-17T10:28:17+02:00</time>
      </trkpt>
      <trkpt lat="47.95199" lon="6.05905">
        <ele>244.90039</ele>
        <time>2026-05-17T10:28:18+02:00</time>
      </trkpt>
      <trkpt lat="47.95201" lon="6.05914">
        <ele>245.2998</ele>
        <time>2026-05-17T10:28:19+02:00</time>
      </trkpt>
      <trkpt lat="47.95203" lon="6.05922">
        <ele>244.7998</ele>
        <time>2026-05-17T10:28:20+02:00</time>
      </trkpt>
      <trkpt lat="47.95205" lon="6.05929">
        <ele>244.7998</ele>
        <time>2026-05-17T10:28:21+02:00</time>
      </trkpt>
      <trkpt lat="47.95207" lon="6.05937">
        <ele>246</ele>
        <time>2026-05-17T10:28:22+02:00</time>
      </trkpt>
      <trkpt lat="47.95209" lon="6.05945">
        <ele>246.2998</ele>
        <time>2026-05-17T10:28:23+02:00</time>
      </trkpt>
      <trkpt lat="47.9521" lon="6.05952">
        <ele>246.7998</ele>
        <time>2026-05-17T10:28:24+02:00</time>
      </trkpt>
      <trkpt lat="47.95212" lon="6.0596">
        <ele>247.5</ele>
        <time>2026-05-17T10:28:25+02:00</time>
      </trkpt>
      <trkpt lat="47.95215" lon="6.05968">
        <ele>247.40039</ele>
        <time>2026-05-17T10:28:26+02:00</time>
      </trkpt>
      <trkpt lat="47.95216" lon="6.05976">
        <ele>247.2002</ele>
        <time>2026-05-17T10:28:27+02:00</time>
      </trkpt>
      <trkpt lat="47.95218" lon="6.05984">
        <ele>247.40039</ele>
        <time>2026-05-17T10:28:28+02:00</time>
      </trkpt>
      <trkpt lat="47.9522" lon="6.05992">
        <ele>247.2002</ele>
        <time>2026-05-17T10:28:29+02:00</time>
      </trkpt>
      <trkpt lat="47.95222" lon="6.06">
        <ele>247</ele>
        <time>2026-05-17T10:28:30+02:00</time>
      </trkpt>
      <trkpt lat="47.95225" lon="6.06008">
        <ele>247.5</ele>
        <time>2026-05-17T10:28:31+02:00</time>
      </trkpt>
      <trkpt lat="47.95227" lon="6.06015">
        <ele>247.5</ele>
        <time>2026-05-17T10:28:32+02:00</time>
      </trkpt>
      <trkpt lat="47.95229" lon="6.06023">
        <ele>248</ele>
        <time>2026-05-17T10:28:33+02:00</time>
      </trkpt>
      <trkpt lat="47.95231" lon="6.06031">
        <ele>247.90039</ele>
        <time>2026-05-17T10:28:34+02:00</time>
      </trkpt>
      <trkpt lat="47.95233" lon="6.06039">
        <ele>247.7002</ele>
        <time>2026-05-17T10:28:35+02:00</time>
      </trkpt>
      <trkpt lat="47.95236" lon="6.06046">
        <ele>248</ele>
        <time>2026-05-17T10:28:36+02:00</time>
      </trkpt>
      <trkpt lat="47.95238" lon="6.06053">
        <ele>247.7002</ele>
        <time>2026-05-17T10:28:37+02:00</time>
      </trkpt>
      <trkpt lat="47.95241" lon="6.06061">
        <ele>247.90039</ele>
        <time>2026-05-17T10:28:38+02:00</time>
      </trkpt>
      <trkpt lat="47.95243" lon="6.06069">
        <ele>247.60059</ele>
        <time>2026-05-17T10:28:39+02:00</time>
      </trkpt>
      <trkpt lat="47.95245" lon="6.06076">
        <ele>247.60059</ele>
        <time>2026-05-17T10:28:40+02:00</time>
      </trkpt>
      <trkpt lat="47.95248" lon="6.06083">
        <ele>248.10059</ele>
        <time>2026-05-17T10:28:41+02:00</time>
      </trkpt>
      <trkpt lat="47.95251" lon="6.06091">
        <ele>248</ele>
        <time>2026-05-17T10:28:42+02:00</time>
      </trkpt>
      <trkpt lat="47.95253" lon="6.06098">
        <ele>248.40039</ele>
        <time>2026-05-17T10:28:43+02:00</time>
      </trkpt>
      <trkpt lat="47.95255" lon="6.06106">
        <ele>248</ele>
        <time>2026-05-17T10:28:44+02:00</time>
      </trkpt>
      <trkpt lat="47.95258" lon="6.06113">
        <ele>248.10059</ele>
        <time>2026-05-17T10:28:45+02:00</time>
      </trkpt>
      <trkpt lat="47.9526" lon="6.06121">
        <ele>247.60059</ele>
        <time>2026-05-17T10:28:46+02:00</time>
      </trkpt>
      <trkpt lat="47.95262" lon="6.06128">
        <ele>247.10059</ele>
        <time>2026-05-17T10:28:47+02:00</time>
      </trkpt>
      <trkpt lat="47.95265" lon="6.06135">
        <ele>247.60059</ele>
        <time>2026-05-17T10:28:48+02:00</time>
      </trkpt>
      <trkpt lat="47.95267" lon="6.06142">
        <ele>247.2002</ele>
        <time>2026-05-17T10:28:49+02:00</time>
      </trkpt>
      <trkpt lat="47.95269" lon="6.06149">
        <ele>247.2998</ele>
        <time>2026-05-17T10:28:50+02:00</time>
      </trkpt>
      <trkpt lat="47.95271" lon="6.06156">
        <ele>246.90039</ele>
        <time>2026-05-17T10:28:51+02:00</time>
      </trkpt>
      <trkpt lat="47.95274" lon="6.06163">
        <ele>246.40039</ele>
        <time>2026-05-17T10:28:52+02:00</time>
      </trkpt>
      <trkpt lat="47.95276" lon="6.06171">
        <ele>246.60059</ele>
        <time>2026-05-17T10:28:53+02:00</time>
      </trkpt>
      <trkpt lat="47.95278" lon="6.06178">
        <ele>246.60059</ele>
        <time>2026-05-17T10:28:54+02:00</time>
      </trkpt>
      <trkpt lat="47.95281" lon="6.06186">
        <ele>246.7002</ele>
        <time>2026-05-17T10:28:55+02:00</time>
      </trkpt>
      <trkpt lat="47.95283" lon="6.06193">
        <ele>246.2998</ele>
        <time>2026-05-17T10:28:56+02:00</time>
      </trkpt>
      <trkpt lat="47.95286" lon="6.06201">
        <ele>246.40039</ele>
        <time>2026-05-17T10:28:57+02:00</time>
      </trkpt>
      <trkpt lat="47.95288" lon="6.06209">
        <ele>246</ele>
        <time>2026-05-17T10:28:58+02:00</time>
      </trkpt>
      <trkpt lat="47.95291" lon="6.06216">
        <ele>245.60059</ele>
        <time>2026-05-17T10:28:59+02:00</time>
      </trkpt>
      <trkpt lat="47.95293" lon="6.06224">
        <ele>246</ele>
        <time>2026-05-17T10:29:00+02:00</time>
      </trkpt>
      <trkpt lat="47.95295" lon="6.06231">
        <ele>245.5</ele>
        <time>2026-05-17T10:29:01+02:00</time>
      </trkpt>
      <trkpt lat="47.95298" lon="6.06239">
        <ele>246.40039</ele>
        <time>2026-05-17T10:29:02+02:00</time>
      </trkpt>
      <trkpt lat="47.953" lon="6.06246">
        <ele>245.90039</ele>
        <time>2026-05-17T10:29:03+02:00</time>
      </trkpt>
      <trkpt lat="47.95302" lon="6.06254">
        <ele>245.2998</ele>
        <time>2026-05-17T10:29:04+02:00</time>
      </trkpt>
      <trkpt lat="47.95304" lon="6.06261">
        <ele>245.60059</ele>
        <time>2026-05-17T10:29:05+02:00</time>
      </trkpt>
      <trkpt lat="47.95307" lon="6.06269">
        <ele>245.10059</ele>
        <time>2026-05-17T10:29:06+02:00</time>
      </trkpt>
      <trkpt lat="47.95309" lon="6.06276">
        <ele>245.5</ele>
        <time>2026-05-17T10:29:07+02:00</time>
      </trkpt>
      <trkpt lat="47.95312" lon="6.06283">
        <ele>245.2002</ele>
        <time>2026-05-17T10:29:08+02:00</time>
      </trkpt>
      <trkpt lat="47.95314" lon="6.0629">
        <ele>245.2002</ele>
        <time>2026-05-17T10:29:09+02:00</time>
      </trkpt>
      <trkpt lat="47.95316" lon="6.06298">
        <ele>245.7998</ele>
        <time>2026-05-17T10:29:10+02:00</time>
      </trkpt>
      <trkpt lat="47.95318" lon="6.06305">
        <ele>245.40039</ele>
        <time>2026-05-17T10:29:11+02:00</time>
      </trkpt>
      <trkpt lat="47.95321" lon="6.06313">
        <ele>246.10059</ele>
        <time>2026-05-17T10:29:12+02:00</time>
      </trkpt>
      <trkpt lat="47.95323" lon="6.0632">
        <ele>245.7002</ele>
        <time>2026-05-17T10:29:13+02:00</time>
      </trkpt>
      <trkpt lat="47.95326" lon="6.06328">
        <ele>245.2998</ele>
        <time>2026-05-17T10:29:14+02:00</time>
      </trkpt>
      <trkpt lat="47.95329" lon="6.06335">
        <ele>245.90039</ele>
        <time>2026-05-17T10:29:15+02:00</time>
      </trkpt>
      <trkpt lat="47.95331" lon="6.06343">
        <ele>245.5</ele>
        <time>2026-05-17T10:29:16+02:00</time>
      </trkpt>
      <trkpt lat="47.95334" lon="6.0635">
        <ele>246.5</ele>
        <time>2026-05-17T10:29:17+02:00</time>
      </trkpt>
      <trkpt lat="47.95336" lon="6.06357">
        <ele>246.2002</ele>
        <time>2026-05-17T10:29:18+02:00</time>
      </trkpt>
      <trkpt lat="47.95339" lon="6.06365">
        <ele>246.90039</ele>
        <time>2026-05-17T10:29:19+02:00</time>
      </trkpt>
      <trkpt lat="47.95341" lon="6.06372">
        <ele>246.7002</ele>
        <time>2026-05-17T10:29:20+02:00</time>
      </trkpt>
      <trkpt lat="47.95344" lon="6.0638">
        <ele>247.40039</ele>
        <time>2026-05-17T10:29:21+02:00</time>
      </trkpt>
      <trkpt lat="47.95347" lon="6.06387">
        <ele>247.10059</ele>
        <time>2026-05-17T10:29:22+02:00</time>
      </trkpt>
      <trkpt lat="47.95349" lon="6.06395">
        <ele>247.60059</ele>
        <time>2026-05-17T10:29:23+02:00</time>
      </trkpt>
      <trkpt lat="47.95351" lon="6.06402">
        <ele>247.60059</ele>
        <time>2026-05-17T10:29:24+02:00</time>
      </trkpt>
      <trkpt lat="47.95354" lon="6.0641">
        <ele>247.2998</ele>
        <time>2026-05-17T10:29:25+02:00</time>
      </trkpt>
      <trkpt lat="47.95357" lon="6.06418">
        <ele>247.5</ele>
        <time>2026-05-17T10:29:26+02:00</time>
      </trkpt>
      <trkpt lat="47.95359" lon="6.06425">
        <ele>247.2002</ele>
        <time>2026-05-17T10:29:27+02:00</time>
      </trkpt>
      <trkpt lat="47.95361" lon="6.06433">
        <ele>247.60059</ele>
        <time>2026-05-17T10:29:28+02:00</time>
      </trkpt>
      <trkpt lat="47.95364" lon="6.0644">
        <ele>247.40039</ele>
        <time>2026-05-17T10:29:29+02:00</time>
      </trkpt>
      <trkpt lat="47.95367" lon="6.06448">
        <ele>248</ele>
        <time>2026-05-17T10:29:30+02:00</time>
      </trkpt>
      <trkpt lat="47.95369" lon="6.06456">
        <ele>247.7998</ele>
        <time>2026-05-17T10:29:31+02:00</time>
      </trkpt>
      <trkpt lat="47.95372" lon="6.06463">
        <ele>248.2998</ele>
        <time>2026-05-17T10:29:32+02:00</time>
      </trkpt>
      <trkpt lat="47.95374" lon="6.06471">
        <ele>248.2998</ele>
        <time>2026-05-17T10:29:33+02:00</time>
      </trkpt>
      <trkpt lat="47.95377" lon="6.06479">
        <ele>248.10059</ele>
        <time>2026-05-17T10:29:34+02:00</time>
      </trkpt>
      <trkpt lat="47.95379" lon="6.06486">
        <ele>248.40039</ele>
        <time>2026-05-17T10:29:35+02:00</time>
      </trkpt>
      <trkpt lat="47.95382" lon="6.06494">
        <ele>248.10059</ele>
        <time>2026-05-17T10:29:36+02:00</time>
      </trkpt>
      <trkpt lat="47.95384" lon="6.06502">
        <ele>248.2998</ele>
        <time>2026-05-17T10:29:37+02:00</time>
      </trkpt>
      <trkpt lat="47.95387" lon="6.0651">
        <ele>248.10059</ele>
        <time>2026-05-17T10:29:38+02:00</time>
      </trkpt>
      <trkpt lat="47.9539" lon="6.06517">
        <ele>248.40039</ele>
        <time>2026-05-17T10:29:39+02:00</time>
      </trkpt>
      <trkpt lat="47.95393" lon="6.06525">
        <ele>248.10059</ele>
        <time>2026-05-17T10:29:40+02:00</time>
      </trkpt>
      <trkpt lat="47.95395" lon="6.06532">
        <ele>247.7002</ele>
        <time>2026-05-17T10:29:41+02:00</time>
      </trkpt>
      <trkpt lat="47.95398" lon="6.06539">
        <ele>248.2998</ele>
        <time>2026-05-17T10:29:42+02:00</time>
      </trkpt>
      <trkpt lat="47.95401" lon="6.06547">
        <ele>248.40039</ele>
        <time>2026-05-17T10:29:43+02:00</time>
      </trkpt>
      <trkpt lat="47.95403" lon="6.06554">
        <ele>248.10059</ele>
        <time>2026-05-17T10:29:44+02:00</time>
      </trkpt>
      <trkpt lat="47.95406" lon="6.06562">
        <ele>247.7998</ele>
        <time>2026-05-17T10:29:45+02:00</time>
      </trkpt>
      <trkpt lat="47.95409" lon="6.0657">
        <ele>247.7998</ele>
        <time>2026-05-17T10:29:46+02:00</time>
      </trkpt>
      <trkpt lat="47.95411" lon="6.06578">
        <ele>247.5</ele>
        <time>2026-05-17T10:29:47+02:00</time>
      </trkpt>
      <trkpt lat="47.95414" lon="6.06587">
        <ele>247.60059</ele>
        <time>2026-05-17T10:29:48+02:00</time>
      </trkpt>
      <trkpt lat="47.95416" lon="6.06595">
        <ele>247.2998</ele>
        <time>2026-05-17T10:29:49+02:00</time>
      </trkpt>
      <trkpt lat="47.95419" lon="6.06603">
        <ele>247.40039</ele>
        <time>2026-05-17T10:29:50+02:00</time>
      </trkpt>
      <trkpt lat="47.95421" lon="6.06611">
        <ele>247.10059</ele>
        <time>2026-05-17T10:29:51+02:00</time>
      </trkpt>
      <trkpt lat="47.95423" lon="6.06619">
        <ele>246.7998</ele>
        <time>2026-05-17T10:29:52+02:00</time>
      </trkpt>
      <trkpt lat="47.95426" lon="6.06627">
        <ele>246.90039</ele>
        <time>2026-05-17T10:29:53+02:00</time>
      </trkpt>
      <trkpt lat="47.95428" lon="6.06634">
        <ele>246.90039</ele>
        <time>2026-05-17T10:29:54+02:00</time>
      </trkpt>
      <trkpt lat="47.95431" lon="6.06642">
        <ele>247</ele>
        <time>2026-05-17T10:29:55+02:00</time>
      </trkpt>
      <trkpt lat="47.95433" lon="6.0665">
        <ele>246.7998</ele>
        <time>2026-05-17T10:29:56+02:00</time>
      </trkpt>
      <trkpt lat="47.95435" lon="6.06658">
        <ele>246.60059</ele>
        <time>2026-05-17T10:29:57+02:00</time>
      </trkpt>
      <trkpt lat="47.95438" lon="6.06666">
        <ele>246.60059</ele>
        <time>2026-05-17T10:29:58+02:00</time>
      </trkpt>
      <trkpt lat="47.9544" lon="6.06674">
        <ele>246.40039</ele>
        <time>2026-05-17T10:29:59+02:00</time>
      </trkpt>
      <trkpt lat="47.95442" lon="6.06682">
        <ele>246.5</ele>
        <time>2026-05-17T10:30:00+02:00</time>
      </trkpt>
      <trkpt lat="47.95444" lon="6.0669">
        <ele>246.2998</ele>
        <time>2026-05-17T10:30:01+02:00</time>
      </trkpt>
      <trkpt lat="47.95447" lon="6.06698">
        <ele>246.40039</ele>
        <time>2026-05-17T10:30:02+02:00</time>
      </trkpt>
      <trkpt lat="47.95449" lon="6.06706">
        <ele>246.2002</ele>
        <time>2026-05-17T10:30:03+02:00</time>
      </trkpt>
      <trkpt lat="47.95451" lon="6.06713">
        <ele>246</ele>
        <time>2026-05-17T10:30:04+02:00</time>
      </trkpt>
      <trkpt lat="47.95453" lon="6.06721">
        <ele>246.2002</ele>
        <time>2026-05-17T10:30:05+02:00</time>
      </trkpt>
      <trkpt lat="47.95455" lon="6.06729">
        <ele>246</ele>
        <time>2026-05-17T10:30:06+02:00</time>
      </trkpt>
      <trkpt lat="47.95457" lon="6.06736">
        <ele>246</ele>
        <time>2026-05-17T10:30:07+02:00</time>
      </trkpt>
      <trkpt lat="47.95458" lon="6.06744">
        <ele>245.7998</ele>
        <time>2026-05-17T10:30:08+02:00</time>
      </trkpt>
      <trkpt lat="47.9546" lon="6.06752">
        <ele>245.7998</ele>
        <time>2026-05-17T10:30:09+02:00</time>
      </trkpt>
      <trkpt lat="47.95462" lon="6.06759">
        <ele>245.60059</ele>
        <time>2026-05-17T10:30:10+02:00</time>
      </trkpt>
      <trkpt lat="47.95463" lon="6.06767">
        <ele>245.40039</ele>
        <time>2026-05-17T10:30:11+02:00</time>
      </trkpt>
      <trkpt lat="47.95465" lon="6.06775">
        <ele>245.60059</ele>
        <time>2026-05-17T10:30:12+02:00</time>
      </trkpt>
      <trkpt lat="47.95467" lon="6.06783">
        <ele>245.2998</ele>
        <time>2026-05-17T10:30:13+02:00</time>
      </trkpt>
      <trkpt lat="47.95468" lon="6.06792">
        <ele>245</ele>
        <time>2026-05-17T10:30:14+02:00</time>
      </trkpt>
      <trkpt lat="47.95469" lon="6.068">
        <ele>244.60059</ele>
        <time>2026-05-17T10:30:15+02:00</time>
      </trkpt>
      <trkpt lat="47.95471" lon="6.06807">
        <ele>244.90039</ele>
        <time>2026-05-17T10:30:16+02:00</time>
      </trkpt>
      <trkpt lat="47.95472" lon="6.06815">
        <ele>244.60059</ele>
        <time>2026-05-17T10:30:17+02:00</time>
      </trkpt>
      <trkpt lat="47.95474" lon="6.06823">
        <ele>244.2998</ele>
        <time>2026-05-17T10:30:18+02:00</time>
      </trkpt>
      <trkpt lat="47.95475" lon="6.0683">
        <ele>244.2998</ele>
        <time>2026-05-17T10:30:19+02:00</time>
      </trkpt>
      <trkpt lat="47.95476" lon="6.06838">
        <ele>244.7002</ele>
        <time>2026-05-17T10:30:20+02:00</time>
      </trkpt>
      <trkpt lat="47.95477" lon="6.06846">
        <ele>244.40039</ele>
        <time>2026-05-17T10:30:21+02:00</time>
      </trkpt>
      <trkpt lat="47.95479" lon="6.06854">
        <ele>244.10059</ele>
        <time>2026-05-17T10:30:22+02:00</time>
      </trkpt>
      <trkpt lat="47.9548" lon="6.06862">
        <ele>243.7998</ele>
        <time>2026-05-17T10:30:23+02:00</time>
      </trkpt>
      <trkpt lat="47.95481" lon="6.0687">
        <ele>243.5</ele>
        <time>2026-05-17T10:30:24+02:00</time>
      </trkpt>
      <trkpt lat="47.95483" lon="6.06877">
        <ele>243.7002</ele>
        <time>2026-05-17T10:30:25+02:00</time>
      </trkpt>
      <trkpt lat="47.95484" lon="6.06886">
        <ele>243.40039</ele>
        <time>2026-05-17T10:30:26+02:00</time>
      </trkpt>
      <trkpt lat="47.95485" lon="6.06894">
        <ele>243.2002</ele>
        <time>2026-05-17T10:30:27+02:00</time>
      </trkpt>
      <trkpt lat="47.95485" lon="6.06902">
        <ele>243</ele>
        <time>2026-05-17T10:30:28+02:00</time>
      </trkpt>
      <trkpt lat="47.95487" lon="6.06909">
        <ele>242.7998</ele>
        <time>2026-05-17T10:30:29+02:00</time>
      </trkpt>
      <trkpt lat="47.95487" lon="6.06917">
        <ele>242.7998</ele>
        <time>2026-05-17T10:30:30+02:00</time>
      </trkpt>
      <trkpt lat="47.95488" lon="6.06925">
        <ele>242.90039</ele>
        <time>2026-05-17T10:30:31+02:00</time>
      </trkpt>
      <trkpt lat="47.9549" lon="6.06933">
        <ele>242.7998</ele>
        <time>2026-05-17T10:30:32+02:00</time>
      </trkpt>
      <trkpt lat="47.95491" lon="6.06941">
        <ele>242.7002</ele>
        <time>2026-05-17T10:30:33+02:00</time>
      </trkpt>
      <trkpt lat="47.95492" lon="6.06949">
        <ele>242.60059</ele>
        <time>2026-05-17T10:30:34+02:00</time>
      </trkpt>
      <trkpt lat="47.95493" lon="6.06956">
        <ele>242.7998</ele>
        <time>2026-05-17T10:30:35+02:00</time>
      </trkpt>
      <trkpt lat="47.95494" lon="6.06964">
        <ele>242.7998</ele>
        <time>2026-05-17T10:30:36+02:00</time>
      </trkpt>
      <trkpt lat="47.95495" lon="6.06971">
        <ele>242.7998</ele>
        <time>2026-05-17T10:30:37+02:00</time>
      </trkpt>
      <trkpt lat="47.95495" lon="6.06979">
        <ele>242.7998</ele>
        <time>2026-05-17T10:30:38+02:00</time>
      </trkpt>
      <trkpt lat="47.95496" lon="6.06987">
        <ele>242.7998</ele>
        <time>2026-05-17T10:30:39+02:00</time>
      </trkpt>
      <trkpt lat="47.95496" lon="6.06995">
        <ele>242.90039</ele>
        <time>2026-05-17T10:30:40+02:00</time>
      </trkpt>
      <trkpt lat="47.95497" lon="6.07003">
        <ele>242.90039</ele>
        <time>2026-05-17T10:30:41+02:00</time>
      </trkpt>
      <trkpt lat="47.95497" lon="6.07011">
        <ele>243</ele>
        <time>2026-05-17T10:30:42+02:00</time>
      </trkpt>
      <trkpt lat="47.95498" lon="6.07019">
        <ele>243</ele>
        <time>2026-05-17T10:30:43+02:00</time>
      </trkpt>
      <trkpt lat="47.95498" lon="6.07026">
        <ele>243.10059</ele>
        <time>2026-05-17T10:30:44+02:00</time>
      </trkpt>
      <trkpt lat="47.95498" lon="6.07034">
        <ele>243.2002</ele>
        <time>2026-05-17T10:30:45+02:00</time>
      </trkpt>
      <trkpt lat="47.95498" lon="6.07042">
        <ele>243.2002</ele>
        <time>2026-05-17T10:30:46+02:00</time>
      </trkpt>
      <trkpt lat="47.95499" lon="6.0705">
        <ele>243.40039</ele>
        <time>2026-05-17T10:30:47+02:00</time>
      </trkpt>
      <trkpt lat="47.95499" lon="6.07059">
        <ele>243.5</ele>
        <time>2026-05-17T10:30:48+02:00</time>
      </trkpt>
      <trkpt lat="47.95501" lon="6.07091">
        <ele>243.60059</ele>
        <time>2026-05-17T10:30:49+02:00</time>
      </trkpt>
      <trkpt lat="47.95502" lon="6.07099">
        <ele>243.60059</ele>
        <time>2026-05-17T10:30:50+02:00</time>
      </trkpt>
      <trkpt lat="47.95503" lon="6.07107">
        <ele>243.7002</ele>
        <time>2026-05-17T10:30:51+02:00</time>
      </trkpt>
      <trkpt lat="47.95503" lon="6.07115">
        <ele>243.7002</ele>
        <time>2026-05-17T10:30:52+02:00</time>
      </trkpt>
      <trkpt lat="47.95504" lon="6.07123">
        <ele>243.7002</ele>
        <time>2026-05-17T10:30:53+02:00</time>
      </trkpt>
      <trkpt lat="47.95504" lon="6.07132">
        <ele>243.7998</ele>
        <time>2026-05-17T10:30:54+02:00</time>
      </trkpt>
      <trkpt lat="47.95505" lon="6.0714">
        <ele>243.90039</ele>
        <time>2026-05-17T10:30:55+02:00</time>
      </trkpt>
      <trkpt lat="47.95505" lon="6.07148">
        <ele>243.90039</ele>
        <time>2026-05-17T10:30:56+02:00</time>
      </trkpt>
      <trkpt lat="47.95506" lon="6.07157">
        <ele>244</ele>
        <time>2026-05-17T10:30:57+02:00</time>
      </trkpt>
      <trkpt lat="47.95506" lon="6.07165">
        <ele>244</ele>
        <time>2026-05-17T10:30:58+02:00</time>
      </trkpt>
      <trkpt lat="47.95506" lon="6.07172">
        <ele>244</ele>
        <time>2026-05-17T10:30:59+02:00</time>
      </trkpt>
      <trkpt lat="47.95507" lon="6.0718">
        <ele>244.10059</ele>
        <time>2026-05-17T10:31:00+02:00</time>
      </trkpt>
      <trkpt lat="47.95507" lon="6.07188">
        <ele>244.10059</ele>
        <time>2026-05-17T10:31:01+02:00</time>
      </trkpt>
      <trkpt lat="47.95508" lon="6.07195">
        <ele>244</ele>
        <time>2026-05-17T10:31:02+02:00</time>
      </trkpt>
      <trkpt lat="47.95508" lon="6.07203">
        <ele>244</ele>
        <time>2026-05-17T10:31:03+02:00</time>
      </trkpt>
      <trkpt lat="47.95508" lon="6.0721">
        <ele>243.90039</ele>
        <time>2026-05-17T10:31:04+02:00</time>
      </trkpt>
      <trkpt lat="47.95508" lon="6.07218">
        <ele>243.7998</ele>
        <time>2026-05-17T10:31:05+02:00</time>
      </trkpt>
      <trkpt lat="47.95509" lon="6.07226">
        <ele>243.7998</ele>
        <time>2026-05-17T10:31:06+02:00</time>
      </trkpt>
      <trkpt lat="47.95509" lon="6.07234">
        <ele>243.7002</ele>
        <time>2026-05-17T10:31:07+02:00</time>
      </trkpt>
      <trkpt lat="47.95509" lon="6.07242">
        <ele>243.60059</ele>
        <time>2026-05-17T10:31:08+02:00</time>
      </trkpt>
      <trkpt lat="47.95509" lon="6.0725">
        <ele>243.2998</ele>
        <time>2026-05-17T10:31:09+02:00</time>
      </trkpt>
      <trkpt lat="47.9551" lon="6.07258">
        <ele>243.2002</ele>
        <time>2026-05-17T10:31:10+02:00</time>
      </trkpt>
      <trkpt lat="47.9551" lon="6.07266">
        <ele>242.7998</ele>
        <time>2026-05-17T10:31:11+02:00</time>
      </trkpt>
      <trkpt lat="47.95511" lon="6.07274">
        <ele>242.40039</ele>
        <time>2026-05-17T10:31:12+02:00</time>
      </trkpt>
      <trkpt lat="47.95511" lon="6.07281">
        <ele>242.10059</ele>
        <time>2026-05-17T10:31:13+02:00</time>
      </trkpt>
      <trkpt lat="47.95512" lon="6.07289">
        <ele>241.7998</ele>
        <time>2026-05-17T10:31:14+02:00</time>
      </trkpt>
      <trkpt lat="47.95513" lon="6.07297">
        <ele>241.5</ele>
        <time>2026-05-17T10:31:15+02:00</time>
      </trkpt>
      <trkpt lat="47.95513" lon="6.07305">
        <ele>241.10059</ele>
        <time>2026-05-17T10:31:16+02:00</time>
      </trkpt>
      <trkpt lat="47.95513" lon="6.07313">
        <ele>240.7998</ele>
        <time>2026-05-17T10:31:17+02:00</time>
      </trkpt>
      <trkpt lat="47.95514" lon="6.07321">
        <ele>240.5</ele>
        <time>2026-05-17T10:31:18+02:00</time>
      </trkpt>
      <trkpt lat="47.95514" lon="6.07329">
        <ele>240.5</ele>
        <time>2026-05-17T10:31:19+02:00</time>
      </trkpt>
      <trkpt lat="47.95514" lon="6.07336">
        <ele>240.2002</ele>
        <time>2026-05-17T10:31:20+02:00</time>
      </trkpt>
      <trkpt lat="47.95515" lon="6.07344">
        <ele>239.7998</ele>
        <time>2026-05-17T10:31:21+02:00</time>
      </trkpt>
      <trkpt lat="47.95516" lon="6.07351">
        <ele>239.60059</ele>
        <time>2026-05-17T10:31:22+02:00</time>
      </trkpt>
      <trkpt lat="47.95516" lon="6.07359">
        <ele>239.2002</ele>
        <time>2026-05-17T10:31:23+02:00</time>
      </trkpt>
      <trkpt lat="47.95516" lon="6.07366">
        <ele>239</ele>
        <time>2026-05-17T10:31:24+02:00</time>
      </trkpt>
      <trkpt lat="47.95517" lon="6.07374">
        <ele>238.7002</ele>
        <time>2026-05-17T10:31:25+02:00</time>
      </trkpt>
      <trkpt lat="47.95517" lon="6.07381">
        <ele>238.60059</ele>
        <time>2026-05-17T10:31:26+02:00</time>
      </trkpt>
      <trkpt lat="47.95517" lon="6.07388">
        <ele>238.60059</ele>
        <time>2026-05-17T10:31:27+02:00</time>
      </trkpt>
      <trkpt lat="47.95518" lon="6.07394">
        <ele>238.5</ele>
        <time>2026-05-17T10:31:28+02:00</time>
      </trkpt>
      <trkpt lat="47.95518" lon="6.07401">
        <ele>238.40039</ele>
        <time>2026-05-17T10:31:29+02:00</time>
      </trkpt>
      <trkpt lat="47.95519" lon="6.07408">
        <ele>238.2998</ele>
        <time>2026-05-17T10:31:30+02:00</time>
      </trkpt>
      <trkpt lat="47.9552" lon="6.07415">
        <ele>238.2998</ele>
        <time>2026-05-17T10:31:31+02:00</time>
      </trkpt>
      <trkpt lat="47.95521" lon="6.07423">
        <ele>238.2998</ele>
        <time>2026-05-17T10:31:32+02:00</time>
      </trkpt>
      <trkpt lat="47.95521" lon="6.07431">
        <ele>238.2002</ele>
        <time>2026-05-17T10:31:33+02:00</time>
      </trkpt>
      <trkpt lat="47.95522" lon="6.07439">
        <ele>238.10059</ele>
        <time>2026-05-17T10:31:34+02:00</time>
      </trkpt>
      <trkpt lat="47.95523" lon="6.07448">
        <ele>238</ele>
        <time>2026-05-17T10:31:35+02:00</time>
      </trkpt>
      <trkpt lat="47.95523" lon="6.07456">
        <ele>238</ele>
        <time>2026-05-17T10:31:36+02:00</time>
      </trkpt>
      <trkpt lat="47.95524" lon="6.07464">
        <ele>238</ele>
        <time>2026-05-17T10:31:37+02:00</time>
      </trkpt>
      <trkpt lat="47.95524" lon="6.07472">
        <ele>238.10059</ele>
        <time>2026-05-17T10:31:38+02:00</time>
      </trkpt>
      <trkpt lat="47.95525" lon="6.07481">
        <ele>238.10059</ele>
        <time>2026-05-17T10:31:39+02:00</time>
      </trkpt>
      <trkpt lat="47.95525" lon="6.07489">
        <ele>238.2002</ele>
        <time>2026-05-17T10:31:40+02:00</time>
      </trkpt>
      <trkpt lat="47.95525" lon="6.07497">
        <ele>238.2998</ele>
        <time>2026-05-17T10:31:41+02:00</time>
      </trkpt>
      <trkpt lat="47.95525" lon="6.07506">
        <ele>238.40039</ele>
        <time>2026-05-17T10:31:42+02:00</time>
      </trkpt>
      <trkpt lat="47.95525" lon="6.07514">
        <ele>238.5</ele>
        <time>2026-05-17T10:31:43+02:00</time>
      </trkpt>
      <trkpt lat="47.95525" lon="6.07522">
        <ele>238.60059</ele>
        <time>2026-05-17T10:31:44+02:00</time>
      </trkpt>
      <trkpt lat="47.95526" lon="6.07531">
        <ele>238.7998</ele>
        <time>2026-05-17T10:31:45+02:00</time>
      </trkpt>
      <trkpt lat="47.95526" lon="6.07539">
        <ele>238.90039</ele>
        <time>2026-05-17T10:31:46+02:00</time>
      </trkpt>
      <trkpt lat="47.95527" lon="6.07547">
        <ele>239.10059</ele>
        <time>2026-05-17T10:31:47+02:00</time>
      </trkpt>
      <trkpt lat="47.95527" lon="6.07556">
        <ele>239.2998</ele>
        <time>2026-05-17T10:31:48+02:00</time>
      </trkpt>
      <trkpt lat="47.95528" lon="6.07564">
        <ele>239.2002</ele>
        <time>2026-05-17T10:31:49+02:00</time>
      </trkpt>
      <trkpt lat="47.95529" lon="6.07573">
        <ele>239.40039</ele>
        <time>2026-05-17T10:31:50+02:00</time>
      </trkpt>
      <trkpt lat="47.9553" lon="6.07581">
        <ele>239.60059</ele>
        <time>2026-05-17T10:31:51+02:00</time>
      </trkpt>
      <trkpt lat="47.9553" lon="6.07589">
        <ele>239.7998</ele>
        <time>2026-05-17T10:31:52+02:00</time>
      </trkpt>
      <trkpt lat="47.95532" lon="6.07597">
        <ele>240</ele>
        <time>2026-05-17T10:31:53+02:00</time>
      </trkpt>
      <trkpt lat="47.95534" lon="6.07605">
        <ele>240</ele>
        <time>2026-05-17T10:31:54+02:00</time>
      </trkpt>
      <trkpt lat="47.95535" lon="6.07614">
        <ele>240.2002</ele>
        <time>2026-05-17T10:31:55+02:00</time>
      </trkpt>
      <trkpt lat="47.95537" lon="6.07622">
        <ele>240.40039</ele>
        <time>2026-05-17T10:31:56+02:00</time>
      </trkpt>
      <trkpt lat="47.9554" lon="6.0763">
        <ele>240.2002</ele>
        <time>2026-05-17T10:31:57+02:00</time>
      </trkpt>
      <trkpt lat="47.95542" lon="6.07638">
        <ele>240.2002</ele>
        <time>2026-05-17T10:31:58+02:00</time>
      </trkpt>
      <trkpt lat="47.95544" lon="6.07646">
        <ele>240.40039</ele>
        <time>2026-05-17T10:31:59+02:00</time>
      </trkpt>
      <trkpt lat="47.95546" lon="6.07654">
        <ele>240.10059</ele>
        <time>2026-05-17T10:32:00+02:00</time>
      </trkpt>
      <trkpt lat="47.95549" lon="6.07662">
        <ele>240.2998</ele>
        <time>2026-05-17T10:32:01+02:00</time>
      </trkpt>
      <trkpt lat="47.95551" lon="6.0767">
        <ele>240.10059</ele>
        <time>2026-05-17T10:32:02+02:00</time>
      </trkpt>
      <trkpt lat="47.95554" lon="6.07677">
        <ele>240.2998</ele>
        <time>2026-05-17T10:32:03+02:00</time>
      </trkpt>
      <trkpt lat="47.95557" lon="6.07685">
        <ele>240.10059</ele>
        <time>2026-05-17T10:32:04+02:00</time>
      </trkpt>
      <trkpt lat="47.9556" lon="6.07692">
        <ele>240.2002</ele>
        <time>2026-05-17T10:32:05+02:00</time>
      </trkpt>
      <trkpt lat="47.95563" lon="6.07699">
        <ele>240</ele>
        <time>2026-05-17T10:32:06+02:00</time>
      </trkpt>
      <trkpt lat="47.95566" lon="6.07707">
        <ele>240.2002</ele>
        <time>2026-05-17T10:32:07+02:00</time>
      </trkpt>
      <trkpt lat="47.9557" lon="6.07714">
        <ele>239.90039</ele>
        <time>2026-05-17T10:32:08+02:00</time>
      </trkpt>
      <trkpt lat="47.95574" lon="6.07721">
        <ele>239.90039</ele>
        <time>2026-05-17T10:32:09+02:00</time>
      </trkpt>
      <trkpt lat="47.95577" lon="6.07728">
        <ele>240</ele>
        <time>2026-05-17T10:32:10+02:00</time>
      </trkpt>
      <trkpt lat="47.9558" lon="6.07735">
        <ele>240</ele>
        <time>2026-05-17T10:32:11+02:00</time>
      </trkpt>
      <trkpt lat="47.95584" lon="6.07741">
        <ele>240</ele>
        <time>2026-05-17T10:32:12+02:00</time>
      </trkpt>
      <trkpt lat="47.95588" lon="6.07748">
        <ele>240</ele>
        <time>2026-05-17T10:32:13+02:00</time>
      </trkpt>
      <trkpt lat="47.95592" lon="6.07755">
        <ele>240</ele>
        <time>2026-05-17T10:32:14+02:00</time>
      </trkpt>
      <trkpt lat="47.95596" lon="6.07761">
        <ele>240</ele>
        <time>2026-05-17T10:32:15+02:00</time>
      </trkpt>
      <trkpt lat="47.956" lon="6.07767">
        <ele>240</ele>
        <time>2026-05-17T10:32:16+02:00</time>
      </trkpt>
      <trkpt lat="47.95604" lon="6.07773">
        <ele>240</ele>
        <time>2026-05-17T10:32:17+02:00</time>
      </trkpt>
      <trkpt lat="47.95608" lon="6.07779">
        <ele>240</ele>
        <time>2026-05-17T10:32:18+02:00</time>
      </trkpt>
      <trkpt lat="47.95612" lon="6.07785">
        <ele>240</ele>
        <time>2026-05-17T10:32:19+02:00</time>
      </trkpt>
      <trkpt lat="47.95617" lon="6.07791">
        <ele>240</ele>
        <time>2026-05-17T10:32:20+02:00</time>
      </trkpt>
      <trkpt lat="47.95621" lon="6.07796">
        <ele>240</ele>
        <time>2026-05-17T10:32:21+02:00</time>
      </trkpt>
      <trkpt lat="47.95625" lon="6.07802">
        <ele>239.90039</ele>
        <time>2026-05-17T10:32:22+02:00</time>
      </trkpt>
      <trkpt lat="47.9563" lon="6.07807">
        <ele>239.90039</ele>
        <time>2026-05-17T10:32:23+02:00</time>
      </trkpt>
      <trkpt lat="47.95635" lon="6.07812">
        <ele>239.90039</ele>
        <time>2026-05-17T10:32:24+02:00</time>
      </trkpt>
      <trkpt lat="47.95639" lon="6.07817">
        <ele>239.7998</ele>
        <time>2026-05-17T10:32:25+02:00</time>
      </trkpt>
      <trkpt lat="47.95644" lon="6.07822">
        <ele>239.7002</ele>
        <time>2026-05-17T10:32:26+02:00</time>
      </trkpt>
      <trkpt lat="47.95648" lon="6.07826">
        <ele>239.7002</ele>
        <time>2026-05-17T10:32:27+02:00</time>
      </trkpt>
      <trkpt lat="47.95653" lon="6.07831">
        <ele>239.5</ele>
        <time>2026-05-17T10:32:28+02:00</time>
      </trkpt>
      <trkpt lat="47.95657" lon="6.07836">
        <ele>239.2998</ele>
        <time>2026-05-17T10:32:29+02:00</time>
      </trkpt>
      <trkpt lat="47.95662" lon="6.07841">
        <ele>239.2002</ele>
        <time>2026-05-17T10:32:30+02:00</time>
      </trkpt>
      <trkpt lat="47.95667" lon="6.07845">
        <ele>239</ele>
        <time>2026-05-17T10:32:31+02:00</time>
      </trkpt>
      <trkpt lat="47.95671" lon="6.0785">
        <ele>238.90039</ele>
        <time>2026-05-17T10:32:32+02:00</time>
      </trkpt>
      <trkpt lat="47.95676" lon="6.07855">
        <ele>238.7002</ele>
        <time>2026-05-17T10:32:33+02:00</time>
      </trkpt>
      <trkpt lat="47.9568" lon="6.0786">
        <ele>238.60059</ele>
        <time>2026-05-17T10:32:34+02:00</time>
      </trkpt>
      <trkpt lat="47.95685" lon="6.07864">
        <ele>238.2998</ele>
        <time>2026-05-17T10:32:35+02:00</time>
      </trkpt>
      <trkpt lat="47.9569" lon="6.07869">
        <ele>238.2002</ele>
        <time>2026-05-17T10:32:36+02:00</time>
      </trkpt>
      <trkpt lat="47.95694" lon="6.07874">
        <ele>237.90039</ele>
        <time>2026-05-17T10:32:37+02:00</time>
      </trkpt>
      <trkpt lat="47.95699" lon="6.07878">
        <ele>237.90039</ele>
        <time>2026-05-17T10:32:38+02:00</time>
      </trkpt>
      <trkpt lat="47.95704" lon="6.07883">
        <ele>237.60059</ele>
        <time>2026-05-17T10:32:39+02:00</time>
      </trkpt>
      <trkpt lat="47.95708" lon="6.07888">
        <ele>237.2998</ele>
        <time>2026-05-17T10:32:40+02:00</time>
      </trkpt>
      <trkpt lat="47.95713" lon="6.07892">
        <ele>237.2002</ele>
        <time>2026-05-17T10:32:41+02:00</time>
      </trkpt>
      <trkpt lat="47.95717" lon="6.07897">
        <ele>237</ele>
        <time>2026-05-17T10:32:42+02:00</time>
      </trkpt>
      <trkpt lat="47.95722" lon="6.07902">
        <ele>237</ele>
        <time>2026-05-17T10:32:43+02:00</time>
      </trkpt>
      <trkpt lat="47.95727" lon="6.07907">
        <ele>236.7002</ele>
        <time>2026-05-17T10:32:44+02:00</time>
      </trkpt>
      <trkpt lat="47.95731" lon="6.07911">
        <ele>236.7002</ele>
        <time>2026-05-17T10:32:45+02:00</time>
      </trkpt>
      <trkpt lat="47.95736" lon="6.07916">
        <ele>236.60059</ele>
        <time>2026-05-17T10:32:46+02:00</time>
      </trkpt>
      <trkpt lat="47.95741" lon="6.07921">
        <ele>236.90039</ele>
        <time>2026-05-17T10:32:47+02:00</time>
      </trkpt>
      <trkpt lat="47.95746" lon="6.07926">
        <ele>237.10059</ele>
        <time>2026-05-17T10:32:48+02:00</time>
      </trkpt>
      <trkpt lat="47.9575" lon="6.0793">
        <ele>237.10059</ele>
        <time>2026-05-17T10:32:49+02:00</time>
      </trkpt>
      <trkpt lat="47.95755" lon="6.07935">
        <ele>237.40039</ele>
        <time>2026-05-17T10:32:50+02:00</time>
      </trkpt>
      <trkpt lat="47.95759" lon="6.0794">
        <ele>237.5</ele>
        <time>2026-05-17T10:32:51+02:00</time>
      </trkpt>
      <trkpt lat="47.95764" lon="6.07944">
        <ele>238</ele>
        <time>2026-05-17T10:32:52+02:00</time>
      </trkpt>
      <trkpt lat="47.95768" lon="6.07949">
        <ele>237.7002</ele>
        <time>2026-05-17T10:32:53+02:00</time>
      </trkpt>
      <trkpt lat="47.95773" lon="6.07954">
        <ele>238.10059</ele>
        <time>2026-05-17T10:32:54+02:00</time>
      </trkpt>
      <trkpt lat="47.95778" lon="6.07958">
        <ele>237.90039</ele>
        <time>2026-05-17T10:32:55+02:00</time>
      </trkpt>
      <trkpt lat="47.95783" lon="6.07963">
        <ele>238</ele>
        <time>2026-05-17T10:32:56+02:00</time>
      </trkpt>
      <trkpt lat="47.95787" lon="6.07968">
        <ele>237.7002</ele>
        <time>2026-05-17T10:32:57+02:00</time>
      </trkpt>
      <trkpt lat="47.95792" lon="6.07973">
        <ele>237.60059</ele>
        <time>2026-05-17T10:32:58+02:00</time>
      </trkpt>
      <trkpt lat="47.95797" lon="6.07977">
        <ele>237.60059</ele>
        <time>2026-05-17T10:32:59+02:00</time>
      </trkpt>
      <trkpt lat="47.95801" lon="6.07982">
        <ele>237.90039</ele>
        <time>2026-05-17T10:33:00+02:00</time>
      </trkpt>
      <trkpt lat="47.95806" lon="6.07987">
        <ele>238</ele>
        <time>2026-05-17T10:33:01+02:00</time>
      </trkpt>
      <trkpt lat="47.9581" lon="6.07992">
        <ele>238.7002</ele>
        <time>2026-05-17T10:33:02+02:00</time>
      </trkpt>
      <trkpt lat="47.95815" lon="6.07996">
        <ele>239.10059</ele>
        <time>2026-05-17T10:33:03+02:00</time>
      </trkpt>
      <trkpt lat="47.9582" lon="6.08001">
        <ele>239.5</ele>
        <time>2026-05-17T10:33:04+02:00</time>
      </trkpt>
      <trkpt lat="47.95824" lon="6.08006">
        <ele>240.10059</ele>
        <time>2026-05-17T10:33:05+02:00</time>
      </trkpt>
      <trkpt lat="47.95828" lon="6.0801">
        <ele>240.7998</ele>
        <time>2026-05-17T10:33:06+02:00</time>
      </trkpt>
      <trkpt lat="47.95833" lon="6.08015">
        <ele>241.2002</ele>
        <time>2026-05-17T10:33:07+02:00</time>
      </trkpt>
      <trkpt lat="47.95838" lon="6.0802">
        <ele>241.60059</ele>
        <time>2026-05-17T10:33:08+02:00</time>
      </trkpt>
      <trkpt lat="47.95842" lon="6.08024">
        <ele>241.60059</ele>
        <time>2026-05-17T10:33:09+02:00</time>
      </trkpt>
      <trkpt lat="47.95846" lon="6.08029">
        <ele>242.5</ele>
        <time>2026-05-17T10:33:10+02:00</time>
      </trkpt>
      <trkpt lat="47.95851" lon="6.08033">
        <ele>243.10059</ele>
        <time>2026-05-17T10:33:11+02:00</time>
      </trkpt>
      <trkpt lat="47.95856" lon="6.08038">
        <ele>243.60059</ele>
        <time>2026-05-17T10:33:12+02:00</time>
      </trkpt>
      <trkpt lat="47.9586" lon="6.08043">
        <ele>243.60059</ele>
        <time>2026-05-17T10:33:13+02:00</time>
      </trkpt>
      <trkpt lat="47.95865" lon="6.08047">
        <ele>243.40039</ele>
        <time>2026-05-17T10:33:14+02:00</time>
      </trkpt>
      <trkpt lat="47.9587" lon="6.08052">
        <ele>243.40039</ele>
        <time>2026-05-17T10:33:15+02:00</time>
      </trkpt>
      <trkpt lat="47.95874" lon="6.08057">
        <ele>243.10059</ele>
        <time>2026-05-17T10:33:16+02:00</time>
      </trkpt>
      <trkpt lat="47.95879" lon="6.08061">
        <ele>243.5</ele>
        <time>2026-05-17T10:33:17+02:00</time>
      </trkpt>
      <trkpt lat="47.95883" lon="6.08066">
        <ele>243.5</ele>
        <time>2026-05-17T10:33:18+02:00</time>
      </trkpt>
      <trkpt lat="47.95888" lon="6.08071">
        <ele>243.7998</ele>
        <time>2026-05-17T10:33:19+02:00</time>
      </trkpt>
      <trkpt lat="47.95892" lon="6.08075">
        <ele>242.7002</ele>
        <time>2026-05-17T10:33:20+02:00</time>
      </trkpt>
      <trkpt lat="47.95897" lon="6.0808">
        <ele>243.2998</ele>
        <time>2026-05-17T10:33:21+02:00</time>
      </trkpt>
      <trkpt lat="47.95902" lon="6.08085">
        <ele>243.7998</ele>
        <time>2026-05-17T10:33:22+02:00</time>
      </trkpt>
      <trkpt lat="47.95906" lon="6.08089">
        <ele>243.7998</ele>
        <time>2026-05-17T10:33:23+02:00</time>
      </trkpt>
      <trkpt lat="47.9591" lon="6.08094">
        <ele>243.90039</ele>
        <time>2026-05-17T10:33:24+02:00</time>
      </trkpt>
      <trkpt lat="47.95915" lon="6.08099">
        <ele>242.7998</ele>
        <time>2026-05-17T10:33:25+02:00</time>
      </trkpt>
      <trkpt lat="47.9592" lon="6.08103">
        <ele>242.90039</ele>
        <time>2026-05-17T10:33:26+02:00</time>
      </trkpt>
      <trkpt lat="47.95924" lon="6.08108">
        <ele>242</ele>
        <time>2026-05-17T10:33:27+02:00</time>
      </trkpt>
      <trkpt lat="47.95929" lon="6.08113">
        <ele>244</ele>
        <time>2026-05-17T10:33:28+02:00</time>
      </trkpt>
      <trkpt lat="47.95933" lon="6.08118">
        <ele>243.60059</ele>
        <time>2026-05-17T10:33:29+02:00</time>
      </trkpt>
      <trkpt lat="47.95938" lon="6.08122">
        <ele>245.10059</ele>
        <time>2026-05-17T10:33:30+02:00</time>
      </trkpt>
      <trkpt lat="47.95942" lon="6.08127">
        <ele>244.90039</ele>
        <time>2026-05-17T10:33:31+02:00</time>
      </trkpt>
      <trkpt lat="47.95947" lon="6.08132">
        <ele>245.40039</ele>
        <time>2026-05-17T10:33:32+02:00</time>
      </trkpt>
      <trkpt lat="47.95952" lon="6.08136">
        <ele>245.40039</ele>
        <time>2026-05-17T10:33:33+02:00</time>
      </trkpt>
      <trkpt lat="47.95956" lon="6.08141">
        <ele>245.10059</ele>
        <time>2026-05-17T10:33:34+02:00</time>
      </trkpt>
      <trkpt lat="47.95961" lon="6.08146">
        <ele>245.10059</ele>
        <time>2026-05-17T10:33:35+02:00</time>
      </trkpt>
      <trkpt lat="47.95966" lon="6.08151">
        <ele>244.90039</ele>
        <time>2026-05-17T10:33:36+02:00</time>
      </trkpt>
      <trkpt lat="47.9597" lon="6.08156">
        <ele>245.10059</ele>
        <time>2026-05-17T10:33:37+02:00</time>
      </trkpt>
      <trkpt lat="47.95975" lon="6.08161">
        <ele>245.10059</ele>
        <time>2026-05-17T10:33:38+02:00</time>
      </trkpt>
      <trkpt lat="47.95979" lon="6.08166">
        <ele>244.40039</ele>
        <time>2026-05-17T10:33:39+02:00</time>
      </trkpt>
      <trkpt lat="47.95984" lon="6.0817">
        <ele>243.5</ele>
        <time>2026-05-17T10:33:40+02:00</time>
      </trkpt>
      <trkpt lat="47.95989" lon="6.08175">
        <ele>243.2002</ele>
        <time>2026-05-17T10:33:41+02:00</time>
      </trkpt>
      <trkpt lat="47.95993" lon="6.08181">
        <ele>243.40039</ele>
        <time>2026-05-17T10:33:42+02:00</time>
      </trkpt>
      <trkpt lat="47.95998" lon="6.08186">
        <ele>243.40039</ele>
        <time>2026-05-17T10:33:43+02:00</time>
      </trkpt>
      <trkpt lat="47.96002" lon="6.08192">
        <ele>243.10059</ele>
        <time>2026-05-17T10:33:44+02:00</time>
      </trkpt>
      <trkpt lat="47.96007" lon="6.08197">
        <ele>242.10059</ele>
        <time>2026-05-17T10:33:45+02:00</time>
      </trkpt>
      <trkpt lat="47.96012" lon="6.08202">
        <ele>241.10059</ele>
        <time>2026-05-17T10:33:46+02:00</time>
      </trkpt>
      <trkpt lat="47.96016" lon="6.08207">
        <ele>240.7002</ele>
        <time>2026-05-17T10:33:47+02:00</time>
      </trkpt>
      <trkpt lat="47.96021" lon="6.08212">
        <ele>240.7002</ele>
        <time>2026-05-17T10:33:48+02:00</time>
      </trkpt>
      <trkpt lat="47.96026" lon="6.08217">
        <ele>240.5</ele>
        <time>2026-05-17T10:33:49+02:00</time>
      </trkpt>
      <trkpt lat="47.96029" lon="6.08223">
        <ele>240.2998</ele>
        <time>2026-05-17T10:33:50+02:00</time>
      </trkpt>
      <trkpt lat="47.96033" lon="6.08229">
        <ele>239.5</ele>
        <time>2026-05-17T10:33:51+02:00</time>
      </trkpt>
      <trkpt lat="47.96037" lon="6.08236">
        <ele>239.7998</ele>
        <time>2026-05-17T10:33:52+02:00</time>
      </trkpt>
      <trkpt lat="47.96041" lon="6.08242">
        <ele>239.2002</ele>
        <time>2026-05-17T10:33:53+02:00</time>
      </trkpt>
      <trkpt lat="47.96045" lon="6.08248">
        <ele>238.90039</ele>
        <time>2026-05-17T10:33:54+02:00</time>
      </trkpt>
      <trkpt lat="47.96048" lon="6.08254">
        <ele>238.90039</ele>
        <time>2026-05-17T10:33:55+02:00</time>
      </trkpt>
      <trkpt lat="47.96052" lon="6.08261">
        <ele>238.60059</ele>
        <time>2026-05-17T10:33:56+02:00</time>
      </trkpt>
      <trkpt lat="47.96055" lon="6.08267">
        <ele>238.7002</ele>
        <time>2026-05-17T10:33:57+02:00</time>
      </trkpt>
      <trkpt lat="47.96058" lon="6.08274">
        <ele>238.10059</ele>
        <time>2026-05-17T10:33:58+02:00</time>
      </trkpt>
      <trkpt lat="47.96062" lon="6.08281">
        <ele>237.2998</ele>
        <time>2026-05-17T10:33:59+02:00</time>
      </trkpt>
      <trkpt lat="47.96065" lon="6.08287">
        <ele>237.5</ele>
        <time>2026-05-17T10:34:00+02:00</time>
      </trkpt>
      <trkpt lat="47.96068" lon="6.08294">
        <ele>237.2998</ele>
        <time>2026-05-17T10:34:01+02:00</time>
      </trkpt>
      <trkpt lat="47.96072" lon="6.08301">
        <ele>237.60059</ele>
        <time>2026-05-17T10:34:02+02:00</time>
      </trkpt>
      <trkpt lat="47.96074" lon="6.08308">
        <ele>237.60059</ele>
        <time>2026-05-17T10:34:03+02:00</time>
      </trkpt>
      <trkpt lat="47.96077" lon="6.08314">
        <ele>237.60059</ele>
        <time>2026-05-17T10:34:04+02:00</time>
      </trkpt>
      <trkpt lat="47.9608" lon="6.08321">
        <ele>237.5</ele>
        <time>2026-05-17T10:34:05+02:00</time>
      </trkpt>
      <trkpt lat="47.96083" lon="6.08327">
        <ele>237.60059</ele>
        <time>2026-05-17T10:34:06+02:00</time>
      </trkpt>
      <trkpt lat="47.96086" lon="6.08334">
        <ele>237.2002</ele>
        <time>2026-05-17T10:34:07+02:00</time>
      </trkpt>
      <trkpt lat="47.96088" lon="6.08341">
        <ele>237.2002</ele>
        <time>2026-05-17T10:34:08+02:00</time>
      </trkpt>
      <trkpt lat="47.9609" lon="6.08348">
        <ele>237.40039</ele>
        <time>2026-05-17T10:34:09+02:00</time>
      </trkpt>
      <trkpt lat="47.96093" lon="6.08356">
        <ele>237.60059</ele>
        <time>2026-05-17T10:34:10+02:00</time>
      </trkpt>
      <trkpt lat="47.96095" lon="6.08363">
        <ele>238.10059</ele>
        <time>2026-05-17T10:34:11+02:00</time>
      </trkpt>
      <trkpt lat="47.96097" lon="6.08371">
        <ele>238.5</ele>
        <time>2026-05-17T10:34:12+02:00</time>
      </trkpt>
      <trkpt lat="47.961" lon="6.08378">
        <ele>238.60059</ele>
        <time>2026-05-17T10:34:13+02:00</time>
      </trkpt>
      <trkpt lat="47.96102" lon="6.08386">
        <ele>238.40039</ele>
        <time>2026-05-17T10:34:14+02:00</time>
      </trkpt>
      <trkpt lat="47.96104" lon="6.08393">
        <ele>238.40039</ele>
        <time>2026-05-17T10:34:15+02:00</time>
      </trkpt>
      <trkpt lat="47.96106" lon="6.08401">
        <ele>238.2998</ele>
        <time>2026-05-17T10:34:16+02:00</time>
      </trkpt>
      <trkpt lat="47.96108" lon="6.08409">
        <ele>238.10059</ele>
        <time>2026-05-17T10:34:17+02:00</time>
      </trkpt>
      <trkpt lat="47.9611" lon="6.08417">
        <ele>238.2002</ele>
        <time>2026-05-17T10:34:18+02:00</time>
      </trkpt>
      <trkpt lat="47.96112" lon="6.08425">
        <ele>238.40039</ele>
        <time>2026-05-17T10:34:19+02:00</time>
      </trkpt>
      <trkpt lat="47.96114" lon="6.08433">
        <ele>238.90039</ele>
        <time>2026-05-17T10:34:20+02:00</time>
      </trkpt>
      <trkpt lat="47.96116" lon="6.0844">
        <ele>239</ele>
        <time>2026-05-17T10:34:21+02:00</time>
      </trkpt>
      <trkpt lat="47.96118" lon="6.08448">
        <ele>239</ele>
        <time>2026-05-17T10:34:22+02:00</time>
      </trkpt>
      <trkpt lat="47.9612" lon="6.08456">
        <ele>239.40039</ele>
        <time>2026-05-17T10:34:23+02:00</time>
      </trkpt>
      <trkpt lat="47.96122" lon="6.08464">
        <ele>239.2998</ele>
        <time>2026-05-17T10:34:24+02:00</time>
      </trkpt>
      <trkpt lat="47.96123" lon="6.08472">
        <ele>239.2002</ele>
        <time>2026-05-17T10:34:25+02:00</time>
      </trkpt>
      <trkpt lat="47.96124" lon="6.0848">
        <ele>239.2002</ele>
        <time>2026-05-17T10:34:26+02:00</time>
      </trkpt>
      <trkpt lat="47.96126" lon="6.08488">
        <ele>239.7002</ele>
        <time>2026-05-17T10:34:27+02:00</time>
      </trkpt>
      <trkpt lat="47.96127" lon="6.08496">
        <ele>239.60059</ele>
        <time>2026-05-17T10:34:28+02:00</time>
      </trkpt>
      <trkpt lat="47.96128" lon="6.08503">
        <ele>239.5</ele>
        <time>2026-05-17T10:34:29+02:00</time>
      </trkpt>
      <trkpt lat="47.96129" lon="6.08511">
        <ele>239.40039</ele>
        <time>2026-05-17T10:34:30+02:00</time>
      </trkpt>
      <trkpt lat="47.96131" lon="6.08519">
        <ele>239.7998</ele>
        <time>2026-05-17T10:34:31+02:00</time>
      </trkpt>
      <trkpt lat="47.96132" lon="6.08527">
        <ele>239.60059</ele>
        <time>2026-05-17T10:34:32+02:00</time>
      </trkpt>
      <trkpt lat="47.96132" lon="6.08535">
        <ele>239.5</ele>
        <time>2026-05-17T10:34:33+02:00</time>
      </trkpt>
      <trkpt lat="47.96133" lon="6.08543">
        <ele>239.40039</ele>
        <time>2026-05-17T10:34:34+02:00</time>
      </trkpt>
      <trkpt lat="47.96134" lon="6.08551">
        <ele>239.40039</ele>
        <time>2026-05-17T10:34:35+02:00</time>
      </trkpt>
      <trkpt lat="47.96135" lon="6.0856">
        <ele>239.2998</ele>
        <time>2026-05-17T10:34:36+02:00</time>
      </trkpt>
      <trkpt lat="47.96136" lon="6.08568">
        <ele>239.2002</ele>
        <time>2026-05-17T10:34:37+02:00</time>
      </trkpt>
      <trkpt lat="47.96137" lon="6.08576">
        <ele>239.2998</ele>
        <time>2026-05-17T10:34:38+02:00</time>
      </trkpt>
      <trkpt lat="47.96138" lon="6.08584">
        <ele>239.10059</ele>
        <time>2026-05-17T10:34:39+02:00</time>
      </trkpt>
      <trkpt lat="47.96138" lon="6.08592">
        <ele>238.7002</ele>
        <time>2026-05-17T10:34:40+02:00</time>
      </trkpt>
      <trkpt lat="47.96139" lon="6.08601">
        <ele>238.7002</ele>
        <time>2026-05-17T10:34:41+02:00</time>
      </trkpt>
      <trkpt lat="47.9614" lon="6.08609">
        <ele>238.5</ele>
        <time>2026-05-17T10:34:42+02:00</time>
      </trkpt>
      <trkpt lat="47.9614" lon="6.08617">
        <ele>238.40039</ele>
        <time>2026-05-17T10:34:43+02:00</time>
      </trkpt>
      <trkpt lat="47.96142" lon="6.08625">
        <ele>238.40039</ele>
        <time>2026-05-17T10:34:44+02:00</time>
      </trkpt>
      <trkpt lat="47.96142" lon="6.08633">
        <ele>238.40039</ele>
        <time>2026-05-17T10:34:45+02:00</time>
      </trkpt>
      <trkpt lat="47.96143" lon="6.08641">
        <ele>238.7002</ele>
        <time>2026-05-17T10:34:46+02:00</time>
      </trkpt>
      <trkpt lat="47.96145" lon="6.08649">
        <ele>238.7002</ele>
        <time>2026-05-17T10:34:47+02:00</time>
      </trkpt>
      <trkpt lat="47.96145" lon="6.08656">
        <ele>238.7002</ele>
        <time>2026-05-17T10:34:48+02:00</time>
      </trkpt>
      <trkpt lat="47.96146" lon="6.08662">
        <ele>238.7002</ele>
        <time>2026-05-17T10:34:49+02:00</time>
      </trkpt>
      <trkpt lat="47.96146" lon="6.08669">
        <ele>238.60059</ele>
        <time>2026-05-17T10:34:50+02:00</time>
      </trkpt>
      <trkpt lat="47.96146" lon="6.08675">
        <ele>238.60059</ele>
        <time>2026-05-17T10:34:51+02:00</time>
      </trkpt>
      <trkpt lat="47.96146" lon="6.08681">
        <ele>238.60059</ele>
        <time>2026-05-17T10:34:52+02:00</time>
      </trkpt>
      <trkpt lat="47.96147" lon="6.08688">
        <ele>238.60059</ele>
        <time>2026-05-17T10:34:53+02:00</time>
      </trkpt>
      <trkpt lat="47.96147" lon="6.08695">
        <ele>238.60059</ele>
        <time>2026-05-17T10:34:54+02:00</time>
      </trkpt>
      <trkpt lat="47.96147" lon="6.08702">
        <ele>238.60059</ele>
        <time>2026-05-17T10:34:55+02:00</time>
      </trkpt>
      <trkpt lat="47.96148" lon="6.0871">
        <ele>238.7002</ele>
        <time>2026-05-17T10:34:56+02:00</time>
      </trkpt>
      <trkpt lat="47.96148" lon="6.08717">
        <ele>238.7002</ele>
        <time>2026-05-17T10:34:57+02:00</time>
      </trkpt>
      <trkpt lat="47.96149" lon="6.08724">
        <ele>238.40039</ele>
        <time>2026-05-17T10:34:58+02:00</time>
      </trkpt>
      <trkpt lat="47.9615" lon="6.08732">
        <ele>238.40039</ele>
        <time>2026-05-17T10:34:59+02:00</time>
      </trkpt>
      <trkpt lat="47.9615" lon="6.08739">
        <ele>238.40039</ele>
        <time>2026-05-17T10:35:00+02:00</time>
      </trkpt>
      <trkpt lat="47.9615" lon="6.08746">
        <ele>238.5</ele>
        <time>2026-05-17T10:35:01+02:00</time>
      </trkpt>
      <trkpt lat="47.96151" lon="6.08754">
        <ele>238.5</ele>
        <time>2026-05-17T10:35:02+02:00</time>
      </trkpt>
      <trkpt lat="47.96151" lon="6.08761">
        <ele>238.5</ele>
        <time>2026-05-17T10:35:03+02:00</time>
      </trkpt>
      <trkpt lat="47.96151" lon="6.08768">
        <ele>238.5</ele>
        <time>2026-05-17T10:35:04+02:00</time>
      </trkpt>
      <trkpt lat="47.96152" lon="6.08775">
        <ele>238.5</ele>
        <time>2026-05-17T10:35:05+02:00</time>
      </trkpt>
      <trkpt lat="47.96152" lon="6.08782">
        <ele>238.5</ele>
        <time>2026-05-17T10:35:06+02:00</time>
      </trkpt>
      <trkpt lat="47.96152" lon="6.0879">
        <ele>238.5</ele>
        <time>2026-05-17T10:35:07+02:00</time>
      </trkpt>
      <trkpt lat="47.96153" lon="6.08797">
        <ele>238.5</ele>
        <time>2026-05-17T10:35:08+02:00</time>
      </trkpt>
      <trkpt lat="47.96153" lon="6.08805">
        <ele>238.5</ele>
        <time>2026-05-17T10:35:09+02:00</time>
      </trkpt>
      <trkpt lat="47.96154" lon="6.08812">
        <ele>238.40039</ele>
        <time>2026-05-17T10:35:10+02:00</time>
      </trkpt>
      <trkpt lat="47.96154" lon="6.0882">
        <ele>238.40039</ele>
        <time>2026-05-17T10:35:11+02:00</time>
      </trkpt>
      <trkpt lat="47.96155" lon="6.08828">
        <ele>238.40039</ele>
        <time>2026-05-17T10:35:12+02:00</time>
      </trkpt>
      <trkpt lat="47.96155" lon="6.08835">
        <ele>238.40039</ele>
        <time>2026-05-17T10:35:13+02:00</time>
      </trkpt>
      <trkpt lat="47.96156" lon="6.08843">
        <ele>238.40039</ele>
        <time>2026-05-17T10:35:14+02:00</time>
      </trkpt>
      <trkpt lat="47.96156" lon="6.0885">
        <ele>238.5</ele>
        <time>2026-05-17T10:35:15+02:00</time>
      </trkpt>
      <trkpt lat="47.96157" lon="6.08858">
        <ele>238.5</ele>
        <time>2026-05-17T10:35:16+02:00</time>
      </trkpt>
      <trkpt lat="47.96157" lon="6.08865">
        <ele>238.5</ele>
        <time>2026-05-17T10:35:17+02:00</time>
      </trkpt>
      <trkpt lat="47.96158" lon="6.08873">
        <ele>238.5</ele>
        <time>2026-05-17T10:35:18+02:00</time>
      </trkpt>
      <trkpt lat="47.96158" lon="6.08881">
        <ele>238.5</ele>
        <time>2026-05-17T10:35:19+02:00</time>
      </trkpt>
      <trkpt lat="47.96159" lon="6.08888">
        <ele>238.5</ele>
        <time>2026-05-17T10:35:20+02:00</time>
      </trkpt>
      <trkpt lat="47.96159" lon="6.08896">
        <ele>238.5</ele>
        <time>2026-05-17T10:35:21+02:00</time>
      </trkpt>
      <trkpt lat="47.96159" lon="6.08904">
        <ele>238.5</ele>
        <time>2026-05-17T10:35:22+02:00</time>
      </trkpt>
      <trkpt lat="47.96159" lon="6.08911">
        <ele>238.60059</ele>
        <time>2026-05-17T10:35:23+02:00</time>
      </trkpt>
      <trkpt lat="47.96159" lon="6.08919">
        <ele>238.60059</ele>
        <time>2026-05-17T10:35:24+02:00</time>
      </trkpt>
      <trkpt lat="47.96159" lon="6.08927">
        <ele>238.7002</ele>
        <time>2026-05-17T10:35:25+02:00</time>
      </trkpt>
      <trkpt lat="47.9616" lon="6.08934">
        <ele>238.60059</ele>
        <time>2026-05-17T10:35:26+02:00</time>
      </trkpt>
      <trkpt lat="47.9616" lon="6.08942">
        <ele>238.60059</ele>
        <time>2026-05-17T10:35:27+02:00</time>
      </trkpt>
      <trkpt lat="47.9616" lon="6.0895">
        <ele>238.7002</ele>
        <time>2026-05-17T10:35:28+02:00</time>
      </trkpt>
      <trkpt lat="47.9616" lon="6.08957">
        <ele>238.7998</ele>
        <time>2026-05-17T10:35:29+02:00</time>
      </trkpt>
      <trkpt lat="47.96161" lon="6.08965">
        <ele>238.7998</ele>
        <time>2026-05-17T10:35:30+02:00</time>
      </trkpt>
      <trkpt lat="47.96161" lon="6.08973">
        <ele>238.90039</ele>
        <time>2026-05-17T10:35:31+02:00</time>
      </trkpt>
      <trkpt lat="47.96161" lon="6.08981">
        <ele>238.7998</ele>
        <time>2026-05-17T10:35:32+02:00</time>
      </trkpt>
      <trkpt lat="47.96161" lon="6.08989">
        <ele>238.7002</ele>
        <time>2026-05-17T10:35:33+02:00</time>
      </trkpt>
      <trkpt lat="47.96161" lon="6.08997">
        <ele>238.7002</ele>
        <time>2026-05-17T10:35:34+02:00</time>
      </trkpt>
      <trkpt lat="47.96161" lon="6.09005">
        <ele>238.7002</ele>
        <time>2026-05-17T10:35:35+02:00</time>
      </trkpt>
      <trkpt lat="47.9616" lon="6.09013">
        <ele>238.60059</ele>
        <time>2026-05-17T10:35:36+02:00</time>
      </trkpt>
      <trkpt lat="47.9616" lon="6.0902">
        <ele>238.60059</ele>
        <time>2026-05-17T10:35:37+02:00</time>
      </trkpt>
      <trkpt lat="47.9616" lon="6.09028">
        <ele>238.60059</ele>
        <time>2026-05-17T10:35:38+02:00</time>
      </trkpt>
      <trkpt lat="47.9616" lon="6.09036">
        <ele>238.5</ele>
        <time>2026-05-17T10:35:39+02:00</time>
      </trkpt>
      <trkpt lat="47.9616" lon="6.09044">
        <ele>238.5</ele>
        <time>2026-05-17T10:35:40+02:00</time>
      </trkpt>
      <trkpt lat="47.96159" lon="6.09052">
        <ele>238.60059</ele>
        <time>2026-05-17T10:35:41+02:00</time>
      </trkpt>
      <trkpt lat="47.96159" lon="6.09059">
        <ele>238.7002</ele>
        <time>2026-05-17T10:35:42+02:00</time>
      </trkpt>
      <trkpt lat="47.96159" lon="6.09067">
        <ele>238.7002</ele>
        <time>2026-05-17T10:35:43+02:00</time>
      </trkpt>
      <trkpt lat="47.96159" lon="6.09075">
        <ele>238.7002</ele>
        <time>2026-05-17T10:35:44+02:00</time>
      </trkpt>
      <trkpt lat="47.96158" lon="6.09083">
        <ele>238.7998</ele>
        <time>2026-05-17T10:35:45+02:00</time>
      </trkpt>
      <trkpt lat="47.96158" lon="6.09091">
        <ele>238.7998</ele>
        <time>2026-05-17T10:35:46+02:00</time>
      </trkpt>
      <trkpt lat="47.96157" lon="6.09099">
        <ele>238.90039</ele>
        <time>2026-05-17T10:35:47+02:00</time>
      </trkpt>
      <trkpt lat="47.96157" lon="6.09107">
        <ele>238.90039</ele>
        <time>2026-05-17T10:35:48+02:00</time>
      </trkpt>
      <trkpt lat="47.96156" lon="6.09115">
        <ele>238.90039</ele>
        <time>2026-05-17T10:35:49+02:00</time>
      </trkpt>
      <trkpt lat="47.96156" lon="6.09123">
        <ele>238.90039</ele>
        <time>2026-05-17T10:35:50+02:00</time>
      </trkpt>
      <trkpt lat="47.96155" lon="6.09131">
        <ele>239</ele>
        <time>2026-05-17T10:35:51+02:00</time>
      </trkpt>
      <trkpt lat="47.96155" lon="6.09139">
        <ele>239</ele>
        <time>2026-05-17T10:35:52+02:00</time>
      </trkpt>
      <trkpt lat="47.96154" lon="6.09147">
        <ele>239.10059</ele>
        <time>2026-05-17T10:35:53+02:00</time>
      </trkpt>
      <trkpt lat="47.96154" lon="6.09154">
        <ele>239.2002</ele>
        <time>2026-05-17T10:35:54+02:00</time>
      </trkpt>
      <trkpt lat="47.96153" lon="6.09162">
        <ele>239.7002</ele>
        <time>2026-05-17T10:35:55+02:00</time>
      </trkpt>
      <trkpt lat="47.96153" lon="6.0917">
        <ele>239.7998</ele>
        <time>2026-05-17T10:35:56+02:00</time>
      </trkpt>
      <trkpt lat="47.96152" lon="6.09179">
        <ele>239.7002</ele>
        <time>2026-05-17T10:35:57+02:00</time>
      </trkpt>
      <trkpt lat="47.96152" lon="6.09187">
        <ele>239.2998</ele>
        <time>2026-05-17T10:35:58+02:00</time>
      </trkpt>
      <trkpt lat="47.96151" lon="6.09195">
        <ele>238.7998</ele>
        <time>2026-05-17T10:35:59+02:00</time>
      </trkpt>
      <trkpt lat="47.96151" lon="6.09203">
        <ele>238.5</ele>
        <time>2026-05-17T10:36:00+02:00</time>
      </trkpt>
      <trkpt lat="47.9615" lon="6.09211">
        <ele>238.5</ele>
        <time>2026-05-17T10:36:01+02:00</time>
      </trkpt>
      <trkpt lat="47.96149" lon="6.09219">
        <ele>238.60059</ele>
        <time>2026-05-17T10:36:02+02:00</time>
      </trkpt>
      <trkpt lat="47.96148" lon="6.09227">
        <ele>238.60059</ele>
        <time>2026-05-17T10:36:03+02:00</time>
      </trkpt>
      <trkpt lat="47.96147" lon="6.09236">
        <ele>238.7002</ele>
        <time>2026-05-17T10:36:04+02:00</time>
      </trkpt>
      <trkpt lat="47.96147" lon="6.09244">
        <ele>238.7002</ele>
        <time>2026-05-17T10:36:05+02:00</time>
      </trkpt>
      <trkpt lat="47.96146" lon="6.09252">
        <ele>238.7998</ele>
        <time>2026-05-17T10:36:06+02:00</time>
      </trkpt>
      <trkpt lat="47.96145" lon="6.0926">
        <ele>238.7998</ele>
        <time>2026-05-17T10:36:07+02:00</time>
      </trkpt>
      <trkpt lat="47.96144" lon="6.09269">
        <ele>238.7998</ele>
        <time>2026-05-17T10:36:08+02:00</time>
      </trkpt>
      <trkpt lat="47.96143" lon="6.09277">
        <ele>238.90039</ele>
        <time>2026-05-17T10:36:09+02:00</time>
      </trkpt>
      <trkpt lat="47.96142" lon="6.09285">
        <ele>239.2002</ele>
        <time>2026-05-17T10:36:10+02:00</time>
      </trkpt>
      <trkpt lat="47.96141" lon="6.09293">
        <ele>239.40039</ele>
        <time>2026-05-17T10:36:11+02:00</time>
      </trkpt>
      <trkpt lat="47.9614" lon="6.09301">
        <ele>239.5</ele>
        <time>2026-05-17T10:36:12+02:00</time>
      </trkpt>
      <trkpt lat="47.96139" lon="6.0931">
        <ele>239.60059</ele>
        <time>2026-05-17T10:36:13+02:00</time>
      </trkpt>
      <trkpt lat="47.96138" lon="6.09318">
        <ele>239.7002</ele>
        <time>2026-05-17T10:36:14+02:00</time>
      </trkpt>
      <trkpt lat="47.96137" lon="6.09326">
        <ele>239.7998</ele>
        <time>2026-05-17T10:36:15+02:00</time>
      </trkpt>
      <trkpt lat="47.96136" lon="6.09335">
        <ele>240</ele>
        <time>2026-05-17T10:36:16+02:00</time>
      </trkpt>
      <trkpt lat="47.96135" lon="6.09343">
        <ele>240.10059</ele>
        <time>2026-05-17T10:36:17+02:00</time>
      </trkpt>
      <trkpt lat="47.96134" lon="6.09351">
        <ele>240.2998</ele>
        <time>2026-05-17T10:36:18+02:00</time>
      </trkpt>
      <trkpt lat="47.96133" lon="6.09359">
        <ele>240.60059</ele>
        <time>2026-05-17T10:36:19+02:00</time>
      </trkpt>
      <trkpt lat="47.96132" lon="6.09367">
        <ele>240.7998</ele>
        <time>2026-05-17T10:36:20+02:00</time>
      </trkpt>
      <trkpt lat="47.96132" lon="6.09375">
        <ele>241</ele>
        <time>2026-05-17T10:36:21+02:00</time>
      </trkpt>
      <trkpt lat="47.96131" lon="6.09383">
        <ele>240.7998</ele>
        <time>2026-05-17T10:36:22+02:00</time>
      </trkpt>
      <trkpt lat="47.9613" lon="6.09391">
        <ele>240.40039</ele>
        <time>2026-05-17T10:36:23+02:00</time>
      </trkpt>
      <trkpt lat="47.96129" lon="6.09399">
        <ele>240.2002</ele>
        <time>2026-05-17T10:36:24+02:00</time>
      </trkpt>
      <trkpt lat="47.96128" lon="6.09407">
        <ele>240.10059</ele>
        <time>2026-05-17T10:36:25+02:00</time>
      </trkpt>
      <trkpt lat="47.96127" lon="6.09415">
        <ele>240.10059</ele>
        <time>2026-05-17T10:36:26+02:00</time>
      </trkpt>
      <trkpt lat="47.96126" lon="6.09423">
        <ele>240.2002</ele>
        <time>2026-05-17T10:36:27+02:00</time>
      </trkpt>
      <trkpt lat="47.96125" lon="6.09431">
        <ele>240.40039</ele>
        <time>2026-05-17T10:36:28+02:00</time>
      </trkpt>
      <trkpt lat="47.96124" lon="6.09439">
        <ele>240.7002</ele>
        <time>2026-05-17T10:36:29+02:00</time>
      </trkpt>
      <trkpt lat="47.96123" lon="6.09447">
        <ele>240.7998</ele>
        <time>2026-05-17T10:36:30+02:00</time>
      </trkpt>
      <trkpt lat="47.96122" lon="6.09454">
        <ele>241</ele>
        <time>2026-05-17T10:36:31+02:00</time>
      </trkpt>
      <trkpt lat="47.96121" lon="6.09462">
        <ele>241.40039</ele>
        <time>2026-05-17T10:36:32+02:00</time>
      </trkpt>
      <trkpt lat="47.96121" lon="6.0947">
        <ele>241.7002</ele>
        <time>2026-05-17T10:36:33+02:00</time>
      </trkpt>
      <trkpt lat="47.9612" lon="6.09478">
        <ele>241.90039</ele>
        <time>2026-05-17T10:36:34+02:00</time>
      </trkpt>
      <trkpt lat="47.96119" lon="6.09485">
        <ele>241.90039</ele>
        <time>2026-05-17T10:36:35+02:00</time>
      </trkpt>
      <trkpt lat="47.96118" lon="6.09494">
        <ele>241.7998</ele>
        <time>2026-05-17T10:36:36+02:00</time>
      </trkpt>
      <trkpt lat="47.96118" lon="6.09502">
        <ele>241.7998</ele>
        <time>2026-05-17T10:36:37+02:00</time>
      </trkpt>
      <trkpt lat="47.96117" lon="6.0951">
        <ele>241.90039</ele>
        <time>2026-05-17T10:36:38+02:00</time>
      </trkpt>
      <trkpt lat="47.96116" lon="6.09518">
        <ele>241.90039</ele>
        <time>2026-05-17T10:36:39+02:00</time>
      </trkpt>
      <trkpt lat="47.96116" lon="6.09524">
        <ele>242</ele>
        <time>2026-05-17T10:36:40+02:00</time>
      </trkpt>
      <trkpt lat="47.96116" lon="6.09529">
        <ele>242.2002</ele>
        <time>2026-05-17T10:36:41+02:00</time>
      </trkpt>
      <trkpt lat="47.96115" lon="6.09535">
        <ele>242.2002</ele>
        <time>2026-05-17T10:36:42+02:00</time>
      </trkpt>
      <trkpt lat="47.96115" lon="6.0954">
        <ele>242.40039</ele>
        <time>2026-05-17T10:36:43+02:00</time>
      </trkpt>
      <trkpt lat="47.96114" lon="6.09546">
        <ele>242.5</ele>
        <time>2026-05-17T10:36:44+02:00</time>
      </trkpt>
      <trkpt lat="47.96114" lon="6.09552">
        <ele>242.5</ele>
        <time>2026-05-17T10:36:45+02:00</time>
      </trkpt>
      <trkpt lat="47.96113" lon="6.09559">
        <ele>242.5</ele>
        <time>2026-05-17T10:36:46+02:00</time>
      </trkpt>
      <trkpt lat="47.96113" lon="6.09565">
        <ele>242.60059</ele>
        <time>2026-05-17T10:36:47+02:00</time>
      </trkpt>
      <trkpt lat="47.96112" lon="6.09572">
        <ele>242.60059</ele>
        <time>2026-05-17T10:36:48+02:00</time>
      </trkpt>
      <trkpt lat="47.96111" lon="6.09578">
        <ele>242.60059</ele>
        <time>2026-05-17T10:36:49+02:00</time>
      </trkpt>
      <trkpt lat="47.9611" lon="6.09585">
        <ele>242.7002</ele>
        <time>2026-05-17T10:36:50+02:00</time>
      </trkpt>
      <trkpt lat="47.9611" lon="6.09592">
        <ele>242.7002</ele>
        <time>2026-05-17T10:36:51+02:00</time>
      </trkpt>
      <trkpt lat="47.96109" lon="6.09599">
        <ele>242.60059</ele>
        <time>2026-05-17T10:36:52+02:00</time>
      </trkpt>
      <trkpt lat="47.96108" lon="6.09606">
        <ele>242.60059</ele>
        <time>2026-05-17T10:36:53+02:00</time>
      </trkpt>
      <trkpt lat="47.96107" lon="6.09613">
        <ele>242.7002</ele>
        <time>2026-05-17T10:36:54+02:00</time>
      </trkpt>
      <trkpt lat="47.96106" lon="6.09621">
        <ele>242.7002</ele>
        <time>2026-05-17T10:36:55+02:00</time>
      </trkpt>
      <trkpt lat="47.96105" lon="6.09629">
        <ele>242.7002</ele>
        <time>2026-05-17T10:36:56+02:00</time>
      </trkpt>
      <trkpt lat="47.96104" lon="6.09636">
        <ele>242.7998</ele>
        <time>2026-05-17T10:36:57+02:00</time>
      </trkpt>
      <trkpt lat="47.96103" lon="6.09644">
        <ele>242.90039</ele>
        <time>2026-05-17T10:36:58+02:00</time>
      </trkpt>
      <trkpt lat="47.96102" lon="6.09651">
        <ele>242.90039</ele>
        <time>2026-05-17T10:36:59+02:00</time>
      </trkpt>
      <trkpt lat="47.96101" lon="6.09659">
        <ele>243</ele>
        <time>2026-05-17T10:37:00+02:00</time>
      </trkpt>
      <trkpt lat="47.961" lon="6.09667">
        <ele>243.10059</ele>
        <time>2026-05-17T10:37:01+02:00</time>
      </trkpt>
      <trkpt lat="47.961" lon="6.09674">
        <ele>243.10059</ele>
        <time>2026-05-17T10:37:02+02:00</time>
      </trkpt>
      <trkpt lat="47.96098" lon="6.09682">
        <ele>243.2002</ele>
        <time>2026-05-17T10:37:03+02:00</time>
      </trkpt>
      <trkpt lat="47.96098" lon="6.09689">
        <ele>243.2002</ele>
        <time>2026-05-17T10:37:04+02:00</time>
      </trkpt>
      <trkpt lat="47.96097" lon="6.09697">
        <ele>243.2002</ele>
        <time>2026-05-17T10:37:05+02:00</time>
      </trkpt>
      <trkpt lat="47.96096" lon="6.09704">
        <ele>243.2998</ele>
        <time>2026-05-17T10:37:06+02:00</time>
      </trkpt>
      <trkpt lat="47.96095" lon="6.09712">
        <ele>243.2998</ele>
        <time>2026-05-17T10:37:07+02:00</time>
      </trkpt>
      <trkpt lat="47.96094" lon="6.0972">
        <ele>243.2998</ele>
        <time>2026-05-17T10:37:08+02:00</time>
      </trkpt>
      <trkpt lat="47.96093" lon="6.09728">
        <ele>243.10059</ele>
        <time>2026-05-17T10:37:09+02:00</time>
      </trkpt>
      <trkpt lat="47.96092" lon="6.09736">
        <ele>242.90039</ele>
        <time>2026-05-17T10:37:10+02:00</time>
      </trkpt>
      <trkpt lat="47.96091" lon="6.09743">
        <ele>242.90039</ele>
        <time>2026-05-17T10:37:11+02:00</time>
      </trkpt>
      <trkpt lat="47.9609" lon="6.09751">
        <ele>243.10059</ele>
        <time>2026-05-17T10:37:12+02:00</time>
      </trkpt>
      <trkpt lat="47.96089" lon="6.09759">
        <ele>243.10059</ele>
        <time>2026-05-17T10:37:13+02:00</time>
      </trkpt>
      <trkpt lat="47.96088" lon="6.09767">
        <ele>243.2002</ele>
        <time>2026-05-17T10:37:14+02:00</time>
      </trkpt>
      <trkpt lat="47.96087" lon="6.09775">
        <ele>243.2002</ele>
        <time>2026-05-17T10:37:15+02:00</time>
      </trkpt>
      <trkpt lat="47.96086" lon="6.09783">
        <ele>243.2998</ele>
        <time>2026-05-17T10:37:16+02:00</time>
      </trkpt>
      <trkpt lat="47.96085" lon="6.09791">
        <ele>243.40039</ele>
        <time>2026-05-17T10:37:17+02:00</time>
      </trkpt>
      <trkpt lat="47.96084" lon="6.098">
        <ele>243.5</ele>
        <time>2026-05-17T10:37:18+02:00</time>
      </trkpt>
      <trkpt lat="47.96083" lon="6.09808">
        <ele>243.7002</ele>
        <time>2026-05-17T10:37:19+02:00</time>
      </trkpt>
      <trkpt lat="47.96081" lon="6.09816">
        <ele>243.7998</ele>
        <time>2026-05-17T10:37:20+02:00</time>
      </trkpt>
      <trkpt lat="47.9608" lon="6.09824">
        <ele>243.90039</ele>
        <time>2026-05-17T10:37:21+02:00</time>
      </trkpt>
      <trkpt lat="47.96078" lon="6.09832">
        <ele>243.7002</ele>
        <time>2026-05-17T10:37:22+02:00</time>
      </trkpt>
      <trkpt lat="47.96077" lon="6.0984">
        <ele>243.7002</ele>
        <time>2026-05-17T10:37:23+02:00</time>
      </trkpt>
      <trkpt lat="47.96075" lon="6.09848">
        <ele>243.7998</ele>
        <time>2026-05-17T10:37:24+02:00</time>
      </trkpt>
      <trkpt lat="47.96074" lon="6.09855">
        <ele>243.90039</ele>
        <time>2026-05-17T10:37:25+02:00</time>
      </trkpt>
      <trkpt lat="47.96072" lon="6.09863">
        <ele>244</ele>
        <time>2026-05-17T10:37:26+02:00</time>
      </trkpt>
      <trkpt lat="47.9607" lon="6.09871">
        <ele>244.2002</ele>
        <time>2026-05-17T10:37:27+02:00</time>
      </trkpt>
      <trkpt lat="47.96068" lon="6.09878">
        <ele>244.2002</ele>
        <time>2026-05-17T10:37:28+02:00</time>
      </trkpt>
      <trkpt lat="47.96066" lon="6.09886">
        <ele>244.2002</ele>
        <time>2026-05-17T10:37:29+02:00</time>
      </trkpt>
      <trkpt lat="47.96064" lon="6.09894">
        <ele>244.2998</ele>
        <time>2026-05-17T10:37:30+02:00</time>
      </trkpt>
      <trkpt lat="47.96062" lon="6.09901">
        <ele>244.40039</ele>
        <time>2026-05-17T10:37:31+02:00</time>
      </trkpt>
      <trkpt lat="47.9606" lon="6.09909">
        <ele>244.2998</ele>
        <time>2026-05-17T10:37:32+02:00</time>
      </trkpt>
      <trkpt lat="47.96058" lon="6.09916">
        <ele>244.5</ele>
        <time>2026-05-17T10:37:33+02:00</time>
      </trkpt>
      <trkpt lat="47.96056" lon="6.09923">
        <ele>244.5</ele>
        <time>2026-05-17T10:37:34+02:00</time>
      </trkpt>
      <trkpt lat="47.96054" lon="6.0993">
        <ele>244.5</ele>
        <time>2026-05-17T10:37:35+02:00</time>
      </trkpt>
      <trkpt lat="47.96052" lon="6.09938">
        <ele>244.60059</ele>
        <time>2026-05-17T10:37:36+02:00</time>
      </trkpt>
      <trkpt lat="47.96049" lon="6.09945">
        <ele>244.7998</ele>
        <time>2026-05-17T10:37:37+02:00</time>
      </trkpt>
      <trkpt lat="47.96047" lon="6.09953">
        <ele>244.90039</ele>
        <time>2026-05-17T10:37:38+02:00</time>
      </trkpt>
      <trkpt lat="47.96045" lon="6.09961">
        <ele>245.10059</ele>
        <time>2026-05-17T10:37:39+02:00</time>
      </trkpt>
      <trkpt lat="47.96042" lon="6.09968">
        <ele>245.40039</ele>
        <time>2026-05-17T10:37:40+02:00</time>
      </trkpt>
      <trkpt lat="47.9604" lon="6.09976">
        <ele>245.60059</ele>
        <time>2026-05-17T10:37:41+02:00</time>
      </trkpt>
      <trkpt lat="47.96037" lon="6.09984">
        <ele>245.90039</ele>
        <time>2026-05-17T10:37:42+02:00</time>
      </trkpt>
      <trkpt lat="47.96035" lon="6.09991">
        <ele>246</ele>
        <time>2026-05-17T10:37:43+02:00</time>
      </trkpt>
      <trkpt lat="47.96033" lon="6.09999">
        <ele>246.2002</ele>
        <time>2026-05-17T10:37:44+02:00</time>
      </trkpt>
      <trkpt lat="47.96031" lon="6.10006">
        <ele>246.2998</ele>
        <time>2026-05-17T10:37:45+02:00</time>
      </trkpt>
      <trkpt lat="47.96028" lon="6.10014">
        <ele>246.40039</ele>
        <time>2026-05-17T10:37:46+02:00</time>
      </trkpt>
      <trkpt lat="47.96026" lon="6.10021">
        <ele>246.7002</ele>
        <time>2026-05-17T10:37:47+02:00</time>
      </trkpt>
      <trkpt lat="47.96024" lon="6.10029">
        <ele>246.7998</ele>
        <time>2026-05-17T10:37:48+02:00</time>
      </trkpt>
      <trkpt lat="47.96021" lon="6.10036">
        <ele>247.10059</ele>
        <time>2026-05-17T10:37:49+02:00</time>
      </trkpt>
      <trkpt lat="47.96019" lon="6.10044">
        <ele>247.2998</ele>
        <time>2026-05-17T10:37:50+02:00</time>
      </trkpt>
      <trkpt lat="47.96017" lon="6.10051">
        <ele>247.40039</ele>
        <time>2026-05-17T10:37:51+02:00</time>
      </trkpt>
      <trkpt lat="47.96015" lon="6.10058">
        <ele>247.5</ele>
        <time>2026-05-17T10:37:52+02:00</time>
      </trkpt>
      <trkpt lat="47.96013" lon="6.10065">
        <ele>247.60059</ele>
        <time>2026-05-17T10:37:53+02:00</time>
      </trkpt>
      <trkpt lat="47.96011" lon="6.10072">
        <ele>247.7002</ele>
        <time>2026-05-17T10:37:54+02:00</time>
      </trkpt>
      <trkpt lat="47.96008" lon="6.10079">
        <ele>247.7998</ele>
        <time>2026-05-17T10:37:55+02:00</time>
      </trkpt>
      <trkpt lat="47.96006" lon="6.10086">
        <ele>247.90039</ele>
        <time>2026-05-17T10:37:56+02:00</time>
      </trkpt>
      <trkpt lat="47.96003" lon="6.10094">
        <ele>248.10059</ele>
        <time>2026-05-17T10:37:57+02:00</time>
      </trkpt>
      <trkpt lat="47.96002" lon="6.10101">
        <ele>248.10059</ele>
        <time>2026-05-17T10:37:58+02:00</time>
      </trkpt>
      <trkpt lat="47.95999" lon="6.10109">
        <ele>248.2002</ele>
        <time>2026-05-17T10:37:59+02:00</time>
      </trkpt>
      <trkpt lat="47.95997" lon="6.10117">
        <ele>248.2998</ele>
        <time>2026-05-17T10:38:00+02:00</time>
      </trkpt>
      <trkpt lat="47.95994" lon="6.10126">
        <ele>248.40039</ele>
        <time>2026-05-17T10:38:01+02:00</time>
      </trkpt>
      <trkpt lat="47.95992" lon="6.10134">
        <ele>248.5</ele>
        <time>2026-05-17T10:38:02+02:00</time>
      </trkpt>
      <trkpt lat="47.95989" lon="6.10142">
        <ele>248.60059</ele>
        <time>2026-05-17T10:38:03+02:00</time>
      </trkpt>
      <trkpt lat="47.95987" lon="6.10149">
        <ele>248.7998</ele>
        <time>2026-05-17T10:38:04+02:00</time>
      </trkpt>
      <trkpt lat="47.95986" lon="6.10156">
        <ele>248.90039</ele>
        <time>2026-05-17T10:38:05+02:00</time>
      </trkpt>
      <trkpt lat="47.95984" lon="6.10162">
        <ele>249</ele>
        <time>2026-05-17T10:38:06+02:00</time>
      </trkpt>
      <trkpt lat="47.95982" lon="6.10167">
        <ele>249</ele>
        <time>2026-05-17T10:38:07+02:00</time>
      </trkpt>
      <trkpt lat="47.95981" lon="6.10173">
        <ele>249.2002</ele>
        <time>2026-05-17T10:38:08+02:00</time>
      </trkpt>
      <trkpt lat="47.9598" lon="6.10178">
        <ele>249.2002</ele>
        <time>2026-05-17T10:38:09+02:00</time>
      </trkpt>
      <trkpt lat="47.95979" lon="6.10183">
        <ele>249.40039</ele>
        <time>2026-05-17T10:38:10+02:00</time>
      </trkpt>
      <trkpt lat="47.95978" lon="6.10189">
        <ele>249.5</ele>
        <time>2026-05-17T10:38:11+02:00</time>
      </trkpt>
      <trkpt lat="47.95976" lon="6.10194">
        <ele>249.5</ele>
        <time>2026-05-17T10:38:12+02:00</time>
      </trkpt>
      <trkpt lat="47.95975" lon="6.10199">
        <ele>249.7998</ele>
        <time>2026-05-17T10:38:13+02:00</time>
      </trkpt>
      <trkpt lat="47.95973" lon="6.10205">
        <ele>250</ele>
        <time>2026-05-17T10:38:14+02:00</time>
      </trkpt>
      <trkpt lat="47.95971" lon="6.1021">
        <ele>250</ele>
        <time>2026-05-17T10:38:15+02:00</time>
      </trkpt>
      <trkpt lat="47.9597" lon="6.10216">
        <ele>250.2002</ele>
        <time>2026-05-17T10:38:16+02:00</time>
      </trkpt>
      <trkpt lat="47.95968" lon="6.10222">
        <ele>250.5</ele>
        <time>2026-05-17T10:38:17+02:00</time>
      </trkpt>
      <trkpt lat="47.95966" lon="6.10228">
        <ele>250.5</ele>
        <time>2026-05-17T10:38:18+02:00</time>
      </trkpt>
      <trkpt lat="47.95964" lon="6.10235">
        <ele>250.7002</ele>
        <time>2026-05-17T10:38:19+02:00</time>
      </trkpt>
      <trkpt lat="47.95962" lon="6.10241">
        <ele>251</ele>
        <time>2026-05-17T10:38:20+02:00</time>
      </trkpt>
      <trkpt lat="47.9596" lon="6.10247">
        <ele>251</ele>
        <time>2026-05-17T10:38:21+02:00</time>
      </trkpt>
      <trkpt lat="47.95958" lon="6.10253">
        <ele>251.2002</ele>
        <time>2026-05-17T10:38:22+02:00</time>
      </trkpt>
      <trkpt lat="47.95956" lon="6.10259">
        <ele>251.2998</ele>
        <time>2026-05-17T10:38:23+02:00</time>
      </trkpt>
      <trkpt lat="47.95954" lon="6.10265">
        <ele>251.40039</ele>
        <time>2026-05-17T10:38:24+02:00</time>
      </trkpt>
      <trkpt lat="47.95952" lon="6.10272">
        <ele>251.5</ele>
        <time>2026-05-17T10:38:25+02:00</time>
      </trkpt>
      <trkpt lat="47.9595" lon="6.10278">
        <ele>251.60059</ele>
        <time>2026-05-17T10:38:26+02:00</time>
      </trkpt>
      <trkpt lat="47.95949" lon="6.10284">
        <ele>251.7002</ele>
        <time>2026-05-17T10:38:27+02:00</time>
      </trkpt>
      <trkpt lat="47.95947" lon="6.1029">
        <ele>251.7002</ele>
        <time>2026-05-17T10:38:28+02:00</time>
      </trkpt>
      <trkpt lat="47.95946" lon="6.10297">
        <ele>251.7002</ele>
        <time>2026-05-17T10:38:29+02:00</time>
      </trkpt>
      <trkpt lat="47.95944" lon="6.10303">
        <ele>251.7998</ele>
        <time>2026-05-17T10:38:30+02:00</time>
      </trkpt>
      <trkpt lat="47.95942" lon="6.1031">
        <ele>251.90039</ele>
        <time>2026-05-17T10:38:31+02:00</time>
      </trkpt>
      <trkpt lat="47.95941" lon="6.10317">
        <ele>252</ele>
        <time>2026-05-17T10:38:32+02:00</time>
      </trkpt>
      <trkpt lat="47.95939" lon="6.10323">
        <ele>252</ele>
        <time>2026-05-17T10:38:33+02:00</time>
      </trkpt>
      <trkpt lat="47.95938" lon="6.1033">
        <ele>252.10059</ele>
        <time>2026-05-17T10:38:34+02:00</time>
      </trkpt>
      <trkpt lat="47.95936" lon="6.10337">
        <ele>252.2002</ele>
        <time>2026-05-17T10:38:35+02:00</time>
      </trkpt>
      <trkpt lat="47.95935" lon="6.10344">
        <ele>252.2998</ele>
        <time>2026-05-17T10:38:36+02:00</time>
      </trkpt>
      <trkpt lat="47.95934" lon="6.1035">
        <ele>252.2998</ele>
        <time>2026-05-17T10:38:37+02:00</time>
      </trkpt>
      <trkpt lat="47.95933" lon="6.10357">
        <ele>252.5</ele>
        <time>2026-05-17T10:38:38+02:00</time>
      </trkpt>
      <trkpt lat="47.95932" lon="6.10364">
        <ele>252.60059</ele>
        <time>2026-05-17T10:38:39+02:00</time>
      </trkpt>
      <trkpt lat="47.95931" lon="6.1037">
        <ele>252.7002</ele>
        <time>2026-05-17T10:38:40+02:00</time>
      </trkpt>
      <trkpt lat="47.9593" lon="6.10377">
        <ele>252.90039</ele>
        <time>2026-05-17T10:38:41+02:00</time>
      </trkpt>
      <trkpt lat="47.95929" lon="6.10384">
        <ele>252.90039</ele>
        <time>2026-05-17T10:38:42+02:00</time>
      </trkpt>
      <trkpt lat="47.95928" lon="6.10391">
        <ele>253</ele>
        <time>2026-05-17T10:38:43+02:00</time>
      </trkpt>
      <trkpt lat="47.95927" lon="6.10398">
        <ele>253.10059</ele>
        <time>2026-05-17T10:38:44+02:00</time>
      </trkpt>
      <trkpt lat="47.95926" lon="6.10405">
        <ele>253.2002</ele>
        <time>2026-05-17T10:38:45+02:00</time>
      </trkpt>
      <trkpt lat="47.95925" lon="6.10412">
        <ele>253.40039</ele>
        <time>2026-05-17T10:38:46+02:00</time>
      </trkpt>
      <trkpt lat="47.95924" lon="6.10419">
        <ele>253.40039</ele>
        <time>2026-05-17T10:38:47+02:00</time>
      </trkpt>
      <trkpt lat="47.95923" lon="6.10426">
        <ele>253.5</ele>
        <time>2026-05-17T10:38:48+02:00</time>
      </trkpt>
      <trkpt lat="47.95922" lon="6.10433">
        <ele>253.60059</ele>
        <time>2026-05-17T10:38:49+02:00</time>
      </trkpt>
      <trkpt lat="47.95921" lon="6.1044">
        <ele>253.5</ele>
        <time>2026-05-17T10:38:50+02:00</time>
      </trkpt>
      <trkpt lat="47.9592" lon="6.10448">
        <ele>253.40039</ele>
        <time>2026-05-17T10:38:51+02:00</time>
      </trkpt>
      <trkpt lat="47.9592" lon="6.10455">
        <ele>253.2998</ele>
        <time>2026-05-17T10:38:52+02:00</time>
      </trkpt>
      <trkpt lat="47.95919" lon="6.10462">
        <ele>253.2998</ele>
        <time>2026-05-17T10:38:53+02:00</time>
      </trkpt>
      <trkpt lat="47.95918" lon="6.10469">
        <ele>253.5</ele>
        <time>2026-05-17T10:38:54+02:00</time>
      </trkpt>
      <trkpt lat="47.95917" lon="6.10476">
        <ele>253.40039</ele>
        <time>2026-05-17T10:38:55+02:00</time>
      </trkpt>
      <trkpt lat="47.95916" lon="6.10483">
        <ele>253.40039</ele>
        <time>2026-05-17T10:38:56+02:00</time>
      </trkpt>
      <trkpt lat="47.95915" lon="6.1049">
        <ele>253.40039</ele>
        <time>2026-05-17T10:38:57+02:00</time>
      </trkpt>
      <trkpt lat="47.95914" lon="6.10497">
        <ele>253.40039</ele>
        <time>2026-05-17T10:38:58+02:00</time>
      </trkpt>
      <trkpt lat="47.95913" lon="6.10505">
        <ele>253.40039</ele>
        <time>2026-05-17T10:38:59+02:00</time>
      </trkpt>
      <trkpt lat="47.95912" lon="6.10512">
        <ele>253.60059</ele>
        <time>2026-05-17T10:39:00+02:00</time>
      </trkpt>
      <trkpt lat="47.95911" lon="6.10519">
        <ele>253.60059</ele>
        <time>2026-05-17T10:39:01+02:00</time>
      </trkpt>
      <trkpt lat="47.9591" lon="6.10527">
        <ele>253.60059</ele>
        <time>2026-05-17T10:39:02+02:00</time>
      </trkpt>
      <trkpt lat="47.95909" lon="6.10534">
        <ele>253.60059</ele>
        <time>2026-05-17T10:39:03+02:00</time>
      </trkpt>
      <trkpt lat="47.95908" lon="6.10542">
        <ele>253.60059</ele>
        <time>2026-05-17T10:39:04+02:00</time>
      </trkpt>
      <trkpt lat="47.95908" lon="6.1055">
        <ele>253.60059</ele>
        <time>2026-05-17T10:39:05+02:00</time>
      </trkpt>
      <trkpt lat="47.95907" lon="6.10557">
        <ele>253.60059</ele>
        <time>2026-05-17T10:39:06+02:00</time>
      </trkpt>
      <trkpt lat="47.95906" lon="6.10565">
        <ele>253.7002</ele>
        <time>2026-05-17T10:39:07+02:00</time>
      </trkpt>
      <trkpt lat="47.95905" lon="6.10573">
        <ele>253.7002</ele>
        <time>2026-05-17T10:39:08+02:00</time>
      </trkpt>
      <trkpt lat="47.95904" lon="6.10581">
        <ele>253.60059</ele>
        <time>2026-05-17T10:39:09+02:00</time>
      </trkpt>
      <trkpt lat="47.95903" lon="6.10588">
        <ele>253.5</ele>
        <time>2026-05-17T10:39:10+02:00</time>
      </trkpt>
      <trkpt lat="47.95902" lon="6.10596">
        <ele>253.40039</ele>
        <time>2026-05-17T10:39:11+02:00</time>
      </trkpt>
      <trkpt lat="47.95901" lon="6.10604">
        <ele>253.2998</ele>
        <time>2026-05-17T10:39:12+02:00</time>
      </trkpt>
      <trkpt lat="47.959" lon="6.10612">
        <ele>253.5</ele>
        <time>2026-05-17T10:39:13+02:00</time>
      </trkpt>
      <trkpt lat="47.95899" lon="6.1062">
        <ele>253.5</ele>
        <time>2026-05-17T10:39:14+02:00</time>
      </trkpt>
      <trkpt lat="47.95898" lon="6.10628">
        <ele>253.5</ele>
        <time>2026-05-17T10:39:15+02:00</time>
      </trkpt>
      <trkpt lat="47.95897" lon="6.10636">
        <ele>253.5</ele>
        <time>2026-05-17T10:39:16+02:00</time>
      </trkpt>
      <trkpt lat="47.95896" lon="6.10644">
        <ele>253.5</ele>
        <time>2026-05-17T10:39:17+02:00</time>
      </trkpt>
      <trkpt lat="47.95895" lon="6.10652">
        <ele>253.7998</ele>
        <time>2026-05-17T10:39:18+02:00</time>
      </trkpt>
      <trkpt lat="47.95894" lon="6.10661">
        <ele>253.7002</ele>
        <time>2026-05-17T10:39:19+02:00</time>
      </trkpt>
      <trkpt lat="47.95893" lon="6.10669">
        <ele>253.7002</ele>
        <time>2026-05-17T10:39:20+02:00</time>
      </trkpt>
      <trkpt lat="47.95892" lon="6.10677">
        <ele>253.7002</ele>
        <time>2026-05-17T10:39:21+02:00</time>
      </trkpt>
      <trkpt lat="47.95891" lon="6.10685">
        <ele>253.7002</ele>
        <time>2026-05-17T10:39:22+02:00</time>
      </trkpt>
      <trkpt lat="47.95891" lon="6.10693">
        <ele>253.60059</ele>
        <time>2026-05-17T10:39:23+02:00</time>
      </trkpt>
      <trkpt lat="47.9589" lon="6.10701">
        <ele>253.60059</ele>
        <time>2026-05-17T10:39:24+02:00</time>
      </trkpt>
      <trkpt lat="47.95889" lon="6.10709">
        <ele>253.40039</ele>
        <time>2026-05-17T10:39:25+02:00</time>
      </trkpt>
      <trkpt lat="47.95889" lon="6.10717">
        <ele>253.2998</ele>
        <time>2026-05-17T10:39:26+02:00</time>
      </trkpt>
      <trkpt lat="47.95889" lon="6.10725">
        <ele>253.2998</ele>
        <time>2026-05-17T10:39:27+02:00</time>
      </trkpt>
      <trkpt lat="47.95889" lon="6.10733">
        <ele>253.2998</ele>
        <time>2026-05-17T10:39:28+02:00</time>
      </trkpt>
      <trkpt lat="47.95889" lon="6.1074">
        <ele>253.2002</ele>
        <time>2026-05-17T10:39:29+02:00</time>
      </trkpt>
      <trkpt lat="47.95889" lon="6.10748">
        <ele>253</ele>
        <time>2026-05-17T10:39:30+02:00</time>
      </trkpt>
      <trkpt lat="47.95889" lon="6.10756">
        <ele>252.90039</ele>
        <time>2026-05-17T10:39:31+02:00</time>
      </trkpt>
      <trkpt lat="47.95889" lon="6.10764">
        <ele>252.7998</ele>
        <time>2026-05-17T10:39:32+02:00</time>
      </trkpt>
      <trkpt lat="47.9589" lon="6.10772">
        <ele>252.60059</ele>
        <time>2026-05-17T10:39:33+02:00</time>
      </trkpt>
      <trkpt lat="47.95891" lon="6.1078">
        <ele>252.7002</ele>
        <time>2026-05-17T10:39:34+02:00</time>
      </trkpt>
      <trkpt lat="47.95891" lon="6.10787">
        <ele>252.7002</ele>
        <time>2026-05-17T10:39:35+02:00</time>
      </trkpt>
      <trkpt lat="47.95892" lon="6.10795">
        <ele>252.90039</ele>
        <time>2026-05-17T10:39:36+02:00</time>
      </trkpt>
      <trkpt lat="47.95893" lon="6.10803">
        <ele>253</ele>
        <time>2026-05-17T10:39:37+02:00</time>
      </trkpt>
      <trkpt lat="47.95894" lon="6.10811">
        <ele>253</ele>
        <time>2026-05-17T10:39:38+02:00</time>
      </trkpt>
      <trkpt lat="47.95895" lon="6.10819">
        <ele>253</ele>
        <time>2026-05-17T10:39:39+02:00</time>
      </trkpt>
      <trkpt lat="47.95896" lon="6.10826">
        <ele>252.7002</ele>
        <time>2026-05-17T10:39:40+02:00</time>
      </trkpt>
      <trkpt lat="47.95896" lon="6.10834">
        <ele>252.7002</ele>
        <time>2026-05-17T10:39:41+02:00</time>
      </trkpt>
      <trkpt lat="47.95897" lon="6.10842">
        <ele>252.60059</ele>
        <time>2026-05-17T10:39:42+02:00</time>
      </trkpt>
      <trkpt lat="47.95897" lon="6.10849">
        <ele>252.5</ele>
        <time>2026-05-17T10:39:43+02:00</time>
      </trkpt>
      <trkpt lat="47.95899" lon="6.10857">
        <ele>252.5</ele>
        <time>2026-05-17T10:39:44+02:00</time>
      </trkpt>
      <trkpt lat="47.95899" lon="6.10865">
        <ele>252.5</ele>
        <time>2026-05-17T10:39:45+02:00</time>
      </trkpt>
      <trkpt lat="47.959" lon="6.10873">
        <ele>252.40039</ele>
        <time>2026-05-17T10:39:46+02:00</time>
      </trkpt>
      <trkpt lat="47.95901" lon="6.10881">
        <ele>252</ele>
        <time>2026-05-17T10:39:47+02:00</time>
      </trkpt>
      <trkpt lat="47.95902" lon="6.10889">
        <ele>252</ele>
        <time>2026-05-17T10:39:48+02:00</time>
      </trkpt>
      <trkpt lat="47.95903" lon="6.10896">
        <ele>252</ele>
        <time>2026-05-17T10:39:49+02:00</time>
      </trkpt>
      <trkpt lat="47.95904" lon="6.10904">
        <ele>251.90039</ele>
        <time>2026-05-17T10:39:50+02:00</time>
      </trkpt>
      <trkpt lat="47.95905" lon="6.10912">
        <ele>251.90039</ele>
        <time>2026-05-17T10:39:51+02:00</time>
      </trkpt>
      <trkpt lat="47.95906" lon="6.10921">
        <ele>251.90039</ele>
        <time>2026-05-17T10:39:52+02:00</time>
      </trkpt>
      <trkpt lat="47.95907" lon="6.10929">
        <ele>251.60059</ele>
        <time>2026-05-17T10:39:53+02:00</time>
      </trkpt>
      <trkpt lat="47.95908" lon="6.10937">
        <ele>251.7002</ele>
        <time>2026-05-17T10:39:54+02:00</time>
      </trkpt>
      <trkpt lat="47.95909" lon="6.10945">
        <ele>251.7002</ele>
        <time>2026-05-17T10:39:55+02:00</time>
      </trkpt>
      <trkpt lat="47.9591" lon="6.10953">
        <ele>251.7998</ele>
        <time>2026-05-17T10:39:56+02:00</time>
      </trkpt>
      <trkpt lat="47.95911" lon="6.10961">
        <ele>251.7998</ele>
        <time>2026-05-17T10:39:57+02:00</time>
      </trkpt>
      <trkpt lat="47.95912" lon="6.10969">
        <ele>251.90039</ele>
        <time>2026-05-17T10:39:58+02:00</time>
      </trkpt>
      <trkpt lat="47.95913" lon="6.10978">
        <ele>251.7002</ele>
        <time>2026-05-17T10:39:59+02:00</time>
      </trkpt>
      <trkpt lat="47.95915" lon="6.10986">
        <ele>251.7002</ele>
        <time>2026-05-17T10:40:00+02:00</time>
      </trkpt>
      <trkpt lat="47.95916" lon="6.10994">
        <ele>251.7002</ele>
        <time>2026-05-17T10:40:01+02:00</time>
      </trkpt>
      <trkpt lat="47.95917" lon="6.11002">
        <ele>251.60059</ele>
        <time>2026-05-17T10:40:02+02:00</time>
      </trkpt>
      <trkpt lat="47.95918" lon="6.1101">
        <ele>251.5</ele>
        <time>2026-05-17T10:40:03+02:00</time>
      </trkpt>
      <trkpt lat="47.9592" lon="6.11018">
        <ele>251.2002</ele>
        <time>2026-05-17T10:40:04+02:00</time>
      </trkpt>
      <trkpt lat="47.9592" lon="6.11026">
        <ele>251.10059</ele>
        <time>2026-05-17T10:40:05+02:00</time>
      </trkpt>
      <trkpt lat="47.95921" lon="6.11034">
        <ele>250.90039</ele>
        <time>2026-05-17T10:40:06+02:00</time>
      </trkpt>
      <trkpt lat="47.95923" lon="6.11041">
        <ele>250.7998</ele>
        <time>2026-05-17T10:40:07+02:00</time>
      </trkpt>
      <trkpt lat="47.95923" lon="6.11048">
        <ele>250.7002</ele>
        <time>2026-05-17T10:40:08+02:00</time>
      </trkpt>
      <trkpt lat="47.95924" lon="6.11056">
        <ele>250.60059</ele>
        <time>2026-05-17T10:40:09+02:00</time>
      </trkpt>
      <trkpt lat="47.95925" lon="6.11064">
        <ele>250.5</ele>
        <time>2026-05-17T10:40:10+02:00</time>
      </trkpt>
      <trkpt lat="47.95926" lon="6.11072">
        <ele>250.5</ele>
        <time>2026-05-17T10:40:11+02:00</time>
      </trkpt>
      <trkpt lat="47.95927" lon="6.11081">
        <ele>250.5</ele>
        <time>2026-05-17T10:40:12+02:00</time>
      </trkpt>
      <trkpt lat="47.95928" lon="6.11088">
        <ele>250.5</ele>
        <time>2026-05-17T10:40:13+02:00</time>
      </trkpt>
      <trkpt lat="47.95929" lon="6.11096">
        <ele>250.60059</ele>
        <time>2026-05-17T10:40:14+02:00</time>
      </trkpt>
      <trkpt lat="47.9593" lon="6.11104">
        <ele>250.60059</ele>
        <time>2026-05-17T10:40:15+02:00</time>
      </trkpt>
      <trkpt lat="47.95931" lon="6.11112">
        <ele>250.60059</ele>
        <time>2026-05-17T10:40:16+02:00</time>
      </trkpt>
      <trkpt lat="47.95932" lon="6.11121">
        <ele>250.7002</ele>
        <time>2026-05-17T10:40:17+02:00</time>
      </trkpt>
      <trkpt lat="47.95933" lon="6.11129">
        <ele>250.7998</ele>
        <time>2026-05-17T10:40:18+02:00</time>
      </trkpt>
      <trkpt lat="47.95934" lon="6.11138">
        <ele>250.90039</ele>
        <time>2026-05-17T10:40:19+02:00</time>
      </trkpt>
      <trkpt lat="47.95936" lon="6.11146">
        <ele>250.90039</ele>
        <time>2026-05-17T10:40:20+02:00</time>
      </trkpt>
      <trkpt lat="47.95937" lon="6.11154">
        <ele>250.90039</ele>
        <time>2026-05-17T10:40:21+02:00</time>
      </trkpt>
      <trkpt lat="47.95938" lon="6.11162">
        <ele>251</ele>
        <time>2026-05-17T10:40:22+02:00</time>
      </trkpt>
      <trkpt lat="47.95939" lon="6.11171">
        <ele>251</ele>
        <time>2026-05-17T10:40:23+02:00</time>
      </trkpt>
      <trkpt lat="47.95941" lon="6.11179">
        <ele>250.7002</ele>
        <time>2026-05-17T10:40:24+02:00</time>
      </trkpt>
      <trkpt lat="47.95942" lon="6.11187">
        <ele>250.60059</ele>
        <time>2026-05-17T10:40:25+02:00</time>
      </trkpt>
      <trkpt lat="47.95943" lon="6.11196">
        <ele>250.40039</ele>
        <time>2026-05-17T10:40:26+02:00</time>
      </trkpt>
      <trkpt lat="47.95944" lon="6.11204">
        <ele>250.2998</ele>
        <time>2026-05-17T10:40:27+02:00</time>
      </trkpt>
      <trkpt lat="47.95945" lon="6.11212">
        <ele>250.10059</ele>
        <time>2026-05-17T10:40:28+02:00</time>
      </trkpt>
      <trkpt lat="47.95946" lon="6.1122">
        <ele>250</ele>
        <time>2026-05-17T10:40:29+02:00</time>
      </trkpt>
      <trkpt lat="47.95947" lon="6.11229">
        <ele>249.60059</ele>
        <time>2026-05-17T10:40:30+02:00</time>
      </trkpt>
      <trkpt lat="47.95947" lon="6.11237">
        <ele>249.5</ele>
        <time>2026-05-17T10:40:31+02:00</time>
      </trkpt>
      <trkpt lat="47.95948" lon="6.11246">
        <ele>249.40039</ele>
        <time>2026-05-17T10:40:32+02:00</time>
      </trkpt>
      <trkpt lat="47.95949" lon="6.11254">
        <ele>249.2998</ele>
        <time>2026-05-17T10:40:33+02:00</time>
      </trkpt>
      <trkpt lat="47.95949" lon="6.11263">
        <ele>249.2002</ele>
        <time>2026-05-17T10:40:34+02:00</time>
      </trkpt>
      <trkpt lat="47.95949" lon="6.11272">
        <ele>249.10059</ele>
        <time>2026-05-17T10:40:35+02:00</time>
      </trkpt>
      <trkpt lat="47.95949" lon="6.1128">
        <ele>249</ele>
        <time>2026-05-17T10:40:36+02:00</time>
      </trkpt>
      <trkpt lat="47.9595" lon="6.11289">
        <ele>249</ele>
        <time>2026-05-17T10:40:37+02:00</time>
      </trkpt>
      <trkpt lat="47.9595" lon="6.11297">
        <ele>248.90039</ele>
        <time>2026-05-17T10:40:38+02:00</time>
      </trkpt>
      <trkpt lat="47.9595" lon="6.11306">
        <ele>248.90039</ele>
        <time>2026-05-17T10:40:39+02:00</time>
      </trkpt>
      <trkpt lat="47.95951" lon="6.11314">
        <ele>248.90039</ele>
        <time>2026-05-17T10:40:40+02:00</time>
      </trkpt>
      <trkpt lat="47.95951" lon="6.11322">
        <ele>248.90039</ele>
        <time>2026-05-17T10:40:41+02:00</time>
      </trkpt>
      <trkpt lat="47.95952" lon="6.1133">
        <ele>248.90039</ele>
        <time>2026-05-17T10:40:42+02:00</time>
      </trkpt>
      <trkpt lat="47.95952" lon="6.11339">
        <ele>249</ele>
        <time>2026-05-17T10:40:43+02:00</time>
      </trkpt>
      <trkpt lat="47.95952" lon="6.11347">
        <ele>249.10059</ele>
        <time>2026-05-17T10:40:44+02:00</time>
      </trkpt>
      <trkpt lat="47.95952" lon="6.11355">
        <ele>249.2998</ele>
        <time>2026-05-17T10:40:45+02:00</time>
      </trkpt>
      <trkpt lat="47.95953" lon="6.11364">
        <ele>249.40039</ele>
        <time>2026-05-17T10:40:46+02:00</time>
      </trkpt>
      <trkpt lat="47.95953" lon="6.11372">
        <ele>249.40039</ele>
        <time>2026-05-17T10:40:47+02:00</time>
      </trkpt>
      <trkpt lat="47.95953" lon="6.1138">
        <ele>249.60059</ele>
        <time>2026-05-17T10:40:48+02:00</time>
      </trkpt>
      <trkpt lat="47.95953" lon="6.11388">
        <ele>249.7998</ele>
        <time>2026-05-17T10:40:49+02:00</time>
      </trkpt>
      <trkpt lat="47.95954" lon="6.11396">
        <ele>250</ele>
        <time>2026-05-17T10:40:50+02:00</time>
      </trkpt>
      <trkpt lat="47.95954" lon="6.11405">
        <ele>250.10059</ele>
        <time>2026-05-17T10:40:51+02:00</time>
      </trkpt>
      <trkpt lat="47.95954" lon="6.11413">
        <ele>250.2998</ele>
        <time>2026-05-17T10:40:52+02:00</time>
      </trkpt>
      <trkpt lat="47.95955" lon="6.11421">
        <ele>250.5</ele>
        <time>2026-05-17T10:40:53+02:00</time>
      </trkpt>
      <trkpt lat="47.95955" lon="6.11428">
        <ele>250.7002</ele>
        <time>2026-05-17T10:40:54+02:00</time>
      </trkpt>
      <trkpt lat="47.95956" lon="6.11436">
        <ele>250.7998</ele>
        <time>2026-05-17T10:40:55+02:00</time>
      </trkpt>
      <trkpt lat="47.95957" lon="6.11444">
        <ele>251</ele>
        <time>2026-05-17T10:40:56+02:00</time>
      </trkpt>
      <trkpt lat="47.95957" lon="6.11451">
        <ele>251.10059</ele>
        <time>2026-05-17T10:40:57+02:00</time>
      </trkpt>
      <trkpt lat="47.95958" lon="6.11459">
        <ele>251.2998</ele>
        <time>2026-05-17T10:40:58+02:00</time>
      </trkpt>
      <trkpt lat="47.95958" lon="6.11467">
        <ele>251.40039</ele>
        <time>2026-05-17T10:40:59+02:00</time>
      </trkpt>
      <trkpt lat="47.95958" lon="6.11474">
        <ele>251.40039</ele>
        <time>2026-05-17T10:41:00+02:00</time>
      </trkpt>
      <trkpt lat="47.95958" lon="6.11482">
        <ele>251.5</ele>
        <time>2026-05-17T10:41:01+02:00</time>
      </trkpt>
      <trkpt lat="47.95959" lon="6.1149">
        <ele>251</ele>
        <time>2026-05-17T10:41:02+02:00</time>
      </trkpt>
      <trkpt lat="47.9596" lon="6.11497">
        <ele>251</ele>
        <time>2026-05-17T10:41:03+02:00</time>
      </trkpt>
      <trkpt lat="47.9596" lon="6.11505">
        <ele>251.10059</ele>
        <time>2026-05-17T10:41:04+02:00</time>
      </trkpt>
      <trkpt lat="47.9596" lon="6.11514">
        <ele>251.10059</ele>
        <time>2026-05-17T10:41:05+02:00</time>
      </trkpt>
      <trkpt lat="47.9596" lon="6.11521">
        <ele>251.10059</ele>
        <time>2026-05-17T10:41:06+02:00</time>
      </trkpt>
      <trkpt lat="47.9596" lon="6.11529">
        <ele>251.10059</ele>
        <time>2026-05-17T10:41:07+02:00</time>
      </trkpt>
      <trkpt lat="47.9596" lon="6.11537">
        <ele>251.10059</ele>
        <time>2026-05-17T10:41:08+02:00</time>
      </trkpt>
      <trkpt lat="47.9596" lon="6.11545">
        <ele>251.10059</ele>
        <time>2026-05-17T10:41:09+02:00</time>
      </trkpt>
      <trkpt lat="47.95961" lon="6.11552">
        <ele>251.10059</ele>
        <time>2026-05-17T10:41:10+02:00</time>
      </trkpt>
      <trkpt lat="47.95961" lon="6.1156">
        <ele>251.10059</ele>
        <time>2026-05-17T10:41:11+02:00</time>
      </trkpt>
      <trkpt lat="47.95961" lon="6.11568">
        <ele>251</ele>
        <time>2026-05-17T10:41:12+02:00</time>
      </trkpt>
      <trkpt lat="47.95961" lon="6.11576">
        <ele>251</ele>
        <time>2026-05-17T10:41:13+02:00</time>
      </trkpt>
      <trkpt lat="47.95962" lon="6.11583">
        <ele>250.90039</ele>
        <time>2026-05-17T10:41:14+02:00</time>
      </trkpt>
      <trkpt lat="47.95962" lon="6.11591">
        <ele>250.90039</ele>
        <time>2026-05-17T10:41:15+02:00</time>
      </trkpt>
      <trkpt lat="47.95963" lon="6.11599">
        <ele>250.7998</ele>
        <time>2026-05-17T10:41:16+02:00</time>
      </trkpt>
      <trkpt lat="47.95963" lon="6.11606">
        <ele>250.7002</ele>
        <time>2026-05-17T10:41:17+02:00</time>
      </trkpt>
      <trkpt lat="47.95963" lon="6.11615">
        <ele>250.60059</ele>
        <time>2026-05-17T10:41:18+02:00</time>
      </trkpt>
      <trkpt lat="47.95963" lon="6.11622">
        <ele>250.5</ele>
        <time>2026-05-17T10:41:19+02:00</time>
      </trkpt>
      <trkpt lat="47.95963" lon="6.11631">
        <ele>250.40039</ele>
        <time>2026-05-17T10:41:20+02:00</time>
      </trkpt>
      <trkpt lat="47.95963" lon="6.11639">
        <ele>250.2002</ele>
        <time>2026-05-17T10:41:21+02:00</time>
      </trkpt>
      <trkpt lat="47.95963" lon="6.11648">
        <ele>250.10059</ele>
        <time>2026-05-17T10:41:22+02:00</time>
      </trkpt>
      <trkpt lat="47.95963" lon="6.11656">
        <ele>249.90039</ele>
        <time>2026-05-17T10:41:23+02:00</time>
      </trkpt>
      <trkpt lat="47.95962" lon="6.11665">
        <ele>249.7002</ele>
        <time>2026-05-17T10:41:24+02:00</time>
      </trkpt>
      <trkpt lat="47.95962" lon="6.11674">
        <ele>249.60059</ele>
        <time>2026-05-17T10:41:25+02:00</time>
      </trkpt>
      <trkpt lat="47.95962" lon="6.11682">
        <ele>249.40039</ele>
        <time>2026-05-17T10:41:26+02:00</time>
      </trkpt>
      <trkpt lat="47.95962" lon="6.11691">
        <ele>249.2998</ele>
        <time>2026-05-17T10:41:27+02:00</time>
      </trkpt>
      <trkpt lat="47.95962" lon="6.117">
        <ele>249.10059</ele>
        <time>2026-05-17T10:41:28+02:00</time>
      </trkpt>
      <trkpt lat="47.95962" lon="6.11709">
        <ele>249</ele>
        <time>2026-05-17T10:41:29+02:00</time>
      </trkpt>
      <trkpt lat="47.95962" lon="6.11717">
        <ele>248.7998</ele>
        <time>2026-05-17T10:41:30+02:00</time>
      </trkpt>
      <trkpt lat="47.95961" lon="6.11726">
        <ele>248.7002</ele>
        <time>2026-05-17T10:41:31+02:00</time>
      </trkpt>
      <trkpt lat="47.95961" lon="6.11734">
        <ele>248.60059</ele>
        <time>2026-05-17T10:41:32+02:00</time>
      </trkpt>
      <trkpt lat="47.95961" lon="6.11743">
        <ele>248.60059</ele>
        <time>2026-05-17T10:41:33+02:00</time>
      </trkpt>
      <trkpt lat="47.9596" lon="6.11751">
        <ele>248.60059</ele>
        <time>2026-05-17T10:41:34+02:00</time>
      </trkpt>
      <trkpt lat="47.9596" lon="6.11759">
        <ele>248.60059</ele>
        <time>2026-05-17T10:41:35+02:00</time>
      </trkpt>
      <trkpt lat="47.9596" lon="6.11768">
        <ele>248.60059</ele>
        <time>2026-05-17T10:41:36+02:00</time>
      </trkpt>
      <trkpt lat="47.95959" lon="6.11776">
        <ele>248.5</ele>
        <time>2026-05-17T10:41:37+02:00</time>
      </trkpt>
      <trkpt lat="47.95958" lon="6.11784">
        <ele>248.60059</ele>
        <time>2026-05-17T10:41:38+02:00</time>
      </trkpt>
      <trkpt lat="47.95958" lon="6.11792">
        <ele>248.60059</ele>
        <time>2026-05-17T10:41:39+02:00</time>
      </trkpt>
      <trkpt lat="47.95957" lon="6.11801">
        <ele>248.5</ele>
        <time>2026-05-17T10:41:40+02:00</time>
      </trkpt>
      <trkpt lat="47.95957" lon="6.11809">
        <ele>248.5</ele>
        <time>2026-05-17T10:41:41+02:00</time>
      </trkpt>
      <trkpt lat="47.95957" lon="6.11817">
        <ele>248.60059</ele>
        <time>2026-05-17T10:41:42+02:00</time>
      </trkpt>
      <trkpt lat="47.95956" lon="6.11824">
        <ele>248.60059</ele>
        <time>2026-05-17T10:41:43+02:00</time>
      </trkpt>
      <trkpt lat="47.95955" lon="6.11832">
        <ele>248.60059</ele>
        <time>2026-05-17T10:41:44+02:00</time>
      </trkpt>
      <trkpt lat="47.95954" lon="6.11841">
        <ele>248.60059</ele>
        <time>2026-05-17T10:41:45+02:00</time>
      </trkpt>
      <trkpt lat="47.95954" lon="6.11849">
        <ele>248.60059</ele>
        <time>2026-05-17T10:41:46+02:00</time>
      </trkpt>
      <trkpt lat="47.95953" lon="6.11857">
        <ele>248.7002</ele>
        <time>2026-05-17T10:41:47+02:00</time>
      </trkpt>
      <trkpt lat="47.95953" lon="6.11865">
        <ele>248.7002</ele>
        <time>2026-05-17T10:41:48+02:00</time>
      </trkpt>
      <trkpt lat="47.95952" lon="6.11873">
        <ele>248.7002</ele>
        <time>2026-05-17T10:41:49+02:00</time>
      </trkpt>
      <trkpt lat="47.95951" lon="6.11881">
        <ele>248.7002</ele>
        <time>2026-05-17T10:41:50+02:00</time>
      </trkpt>
      <trkpt lat="47.9595" lon="6.11889">
        <ele>248.7002</ele>
        <time>2026-05-17T10:41:51+02:00</time>
      </trkpt>
      <trkpt lat="47.95949" lon="6.11897">
        <ele>248.7002</ele>
        <time>2026-05-17T10:41:52+02:00</time>
      </trkpt>
      <trkpt lat="47.95948" lon="6.11905">
        <ele>248.60059</ele>
        <time>2026-05-17T10:41:53+02:00</time>
      </trkpt>
      <trkpt lat="47.95947" lon="6.11913">
        <ele>248.40039</ele>
        <time>2026-05-17T10:41:54+02:00</time>
      </trkpt>
      <trkpt lat="47.95946" lon="6.11921">
        <ele>248.40039</ele>
        <time>2026-05-17T10:41:55+02:00</time>
      </trkpt>
      <trkpt lat="47.95945" lon="6.11928">
        <ele>248.10059</ele>
        <time>2026-05-17T10:41:56+02:00</time>
      </trkpt>
      <trkpt lat="47.95944" lon="6.11936">
        <ele>247.90039</ele>
        <time>2026-05-17T10:41:57+02:00</time>
      </trkpt>
      <trkpt lat="47.95942" lon="6.11943">
        <ele>247.5</ele>
        <time>2026-05-17T10:41:58+02:00</time>
      </trkpt>
      <trkpt lat="47.95941" lon="6.11951">
        <ele>247</ele>
        <time>2026-05-17T10:41:59+02:00</time>
      </trkpt>
      <trkpt lat="47.9594" lon="6.11959">
        <ele>247</ele>
        <time>2026-05-17T10:42:00+02:00</time>
      </trkpt>
      <trkpt lat="47.95938" lon="6.11967">
        <ele>246.7998</ele>
        <time>2026-05-17T10:42:01+02:00</time>
      </trkpt>
      <trkpt lat="47.95937" lon="6.11974">
        <ele>246.60059</ele>
        <time>2026-05-17T10:42:02+02:00</time>
      </trkpt>
      <trkpt lat="47.95937" lon="6.11982">
        <ele>246.5</ele>
        <time>2026-05-17T10:42:03+02:00</time>
      </trkpt>
      <trkpt lat="47.95936" lon="6.11989">
        <ele>246.5</ele>
        <time>2026-05-17T10:42:04+02:00</time>
      </trkpt>
      <trkpt lat="47.95935" lon="6.11996">
        <ele>246.7998</ele>
        <time>2026-05-17T10:42:05+02:00</time>
      </trkpt>
      <trkpt lat="47.95934" lon="6.12003">
        <ele>246.7002</ele>
        <time>2026-05-17T10:42:06+02:00</time>
      </trkpt>
      <trkpt lat="47.95933" lon="6.12011">
        <ele>246.5</ele>
        <time>2026-05-17T10:42:07+02:00</time>
      </trkpt>
      <trkpt lat="47.95932" lon="6.12018">
        <ele>246.2998</ele>
        <time>2026-05-17T10:42:08+02:00</time>
      </trkpt>
      <trkpt lat="47.95931" lon="6.12026">
        <ele>246.10059</ele>
        <time>2026-05-17T10:42:09+02:00</time>
      </trkpt>
      <trkpt lat="47.95929" lon="6.12034">
        <ele>246</ele>
        <time>2026-05-17T10:42:10+02:00</time>
      </trkpt>
      <trkpt lat="47.95928" lon="6.12042">
        <ele>245.7998</ele>
        <time>2026-05-17T10:42:11+02:00</time>
      </trkpt>
      <trkpt lat="47.95927" lon="6.12049">
        <ele>245.7998</ele>
        <time>2026-05-17T10:42:12+02:00</time>
      </trkpt>
      <trkpt lat="47.95926" lon="6.12057">
        <ele>245.5</ele>
        <time>2026-05-17T10:42:13+02:00</time>
      </trkpt>
      <trkpt lat="47.95925" lon="6.12065">
        <ele>245.2998</ele>
        <time>2026-05-17T10:42:14+02:00</time>
      </trkpt>
      <trkpt lat="47.95924" lon="6.12073">
        <ele>245.10059</ele>
        <time>2026-05-17T10:42:15+02:00</time>
      </trkpt>
      <trkpt lat="47.95922" lon="6.12082">
        <ele>244.90039</ele>
        <time>2026-05-17T10:42:16+02:00</time>
      </trkpt>
      <trkpt lat="47.95921" lon="6.1209">
        <ele>244.7998</ele>
        <time>2026-05-17T10:42:17+02:00</time>
      </trkpt>
      <trkpt lat="47.95919" lon="6.12098">
        <ele>244.7002</ele>
        <time>2026-05-17T10:42:18+02:00</time>
      </trkpt>
      <trkpt lat="47.95918" lon="6.12105">
        <ele>244.60059</ele>
        <time>2026-05-17T10:42:19+02:00</time>
      </trkpt>
      <trkpt lat="47.95916" lon="6.12113">
        <ele>244.5</ele>
        <time>2026-05-17T10:42:20+02:00</time>
      </trkpt>
      <trkpt lat="47.95914" lon="6.12121">
        <ele>244.5</ele>
        <time>2026-05-17T10:42:21+02:00</time>
      </trkpt>
      <trkpt lat="47.95912" lon="6.12129">
        <ele>244.60059</ele>
        <time>2026-05-17T10:42:22+02:00</time>
      </trkpt>
      <trkpt lat="47.95911" lon="6.12136">
        <ele>244.60059</ele>
        <time>2026-05-17T10:42:23+02:00</time>
      </trkpt>
      <trkpt lat="47.95909" lon="6.12143">
        <ele>244.60059</ele>
        <time>2026-05-17T10:42:24+02:00</time>
      </trkpt>
      <trkpt lat="47.95907" lon="6.12151">
        <ele>244.7002</ele>
        <time>2026-05-17T10:42:25+02:00</time>
      </trkpt>
      <trkpt lat="47.95905" lon="6.12159">
        <ele>244.7998</ele>
        <time>2026-05-17T10:42:26+02:00</time>
      </trkpt>
      <trkpt lat="47.95903" lon="6.12166">
        <ele>244.90039</ele>
        <time>2026-05-17T10:42:27+02:00</time>
      </trkpt>
      <trkpt lat="47.95901" lon="6.12173">
        <ele>245</ele>
        <time>2026-05-17T10:42:28+02:00</time>
      </trkpt>
      <trkpt lat="47.95899" lon="6.12181">
        <ele>244.90039</ele>
        <time>2026-05-17T10:42:29+02:00</time>
      </trkpt>
      <trkpt lat="47.95897" lon="6.12188">
        <ele>244.7998</ele>
        <time>2026-05-17T10:42:30+02:00</time>
      </trkpt>
      <trkpt lat="47.95896" lon="6.12195">
        <ele>244.7998</ele>
        <time>2026-05-17T10:42:31+02:00</time>
      </trkpt>
      <trkpt lat="47.95894" lon="6.12203">
        <ele>244.7002</ele>
        <time>2026-05-17T10:42:32+02:00</time>
      </trkpt>
      <trkpt lat="47.95892" lon="6.1221">
        <ele>244.7002</ele>
        <time>2026-05-17T10:42:33+02:00</time>
      </trkpt>
      <trkpt lat="47.9589" lon="6.12217">
        <ele>245</ele>
        <time>2026-05-17T10:42:34+02:00</time>
      </trkpt>
      <trkpt lat="47.95888" lon="6.12225">
        <ele>245.40039</ele>
        <time>2026-05-17T10:42:35+02:00</time>
      </trkpt>
      <trkpt lat="47.95886" lon="6.12232">
        <ele>245.7998</ele>
        <time>2026-05-17T10:42:36+02:00</time>
      </trkpt>
      <trkpt lat="47.95884" lon="6.12239">
        <ele>245.90039</ele>
        <time>2026-05-17T10:42:37+02:00</time>
      </trkpt>
      <trkpt lat="47.95882" lon="6.12247">
        <ele>245.60059</ele>
        <time>2026-05-17T10:42:38+02:00</time>
      </trkpt>
      <trkpt lat="47.9588" lon="6.12254">
        <ele>245.7002</ele>
        <time>2026-05-17T10:42:39+02:00</time>
      </trkpt>
      <trkpt lat="47.95878" lon="6.12262">
        <ele>245.7002</ele>
        <time>2026-05-17T10:42:40+02:00</time>
      </trkpt>
      <trkpt lat="47.95875" lon="6.12269">
        <ele>245.5</ele>
        <time>2026-05-17T10:42:41+02:00</time>
      </trkpt>
      <trkpt lat="47.95873" lon="6.12277">
        <ele>245.5</ele>
        <time>2026-05-17T10:42:42+02:00</time>
      </trkpt>
      <trkpt lat="47.95871" lon="6.12285">
        <ele>245.2998</ele>
        <time>2026-05-17T10:42:43+02:00</time>
      </trkpt>
      <trkpt lat="47.95869" lon="6.12292">
        <ele>245.2002</ele>
        <time>2026-05-17T10:42:44+02:00</time>
      </trkpt>
      <trkpt lat="47.95867" lon="6.123">
        <ele>245.2002</ele>
        <time>2026-05-17T10:42:45+02:00</time>
      </trkpt>
      <trkpt lat="47.95865" lon="6.12308">
        <ele>244.90039</ele>
        <time>2026-05-17T10:42:46+02:00</time>
      </trkpt>
      <trkpt lat="47.95863" lon="6.12315">
        <ele>244.90039</ele>
        <time>2026-05-17T10:42:47+02:00</time>
      </trkpt>
      <trkpt lat="47.95861" lon="6.12323">
        <ele>244.90039</ele>
        <time>2026-05-17T10:42:48+02:00</time>
      </trkpt>
      <trkpt lat="47.95859" lon="6.12331">
        <ele>244.60059</ele>
        <time>2026-05-17T10:42:49+02:00</time>
      </trkpt>
      <trkpt lat="47.95857" lon="6.12338">
        <ele>244.60059</ele>
        <time>2026-05-17T10:42:50+02:00</time>
      </trkpt>
      <trkpt lat="47.95855" lon="6.12346">
        <ele>244.60059</ele>
        <time>2026-05-17T10:42:51+02:00</time>
      </trkpt>
      <trkpt lat="47.95853" lon="6.12354">
        <ele>244.10059</ele>
        <time>2026-05-17T10:42:52+02:00</time>
      </trkpt>
      <trkpt lat="47.95852" lon="6.12361">
        <ele>244.10059</ele>
        <time>2026-05-17T10:42:53+02:00</time>
      </trkpt>
      <trkpt lat="47.9585" lon="6.1237">
        <ele>244.10059</ele>
        <time>2026-05-17T10:42:54+02:00</time>
      </trkpt>
      <trkpt lat="47.95848" lon="6.12378">
        <ele>243.7998</ele>
        <time>2026-05-17T10:42:55+02:00</time>
      </trkpt>
      <trkpt lat="47.95846" lon="6.12386">
        <ele>243.90039</ele>
        <time>2026-05-17T10:42:56+02:00</time>
      </trkpt>
      <trkpt lat="47.95844" lon="6.12394">
        <ele>243.90039</ele>
        <time>2026-05-17T10:42:57+02:00</time>
      </trkpt>
      <trkpt lat="47.95843" lon="6.12402">
        <ele>243.7002</ele>
        <time>2026-05-17T10:42:58+02:00</time>
      </trkpt>
      <trkpt lat="47.95842" lon="6.1241">
        <ele>243.7002</ele>
        <time>2026-05-17T10:42:59+02:00</time>
      </trkpt>
      <trkpt lat="47.95841" lon="6.12419">
        <ele>243.7998</ele>
        <time>2026-05-17T10:43:00+02:00</time>
      </trkpt>
      <trkpt lat="47.9584" lon="6.12427">
        <ele>243.90039</ele>
        <time>2026-05-17T10:43:01+02:00</time>
      </trkpt>
      <trkpt lat="47.95839" lon="6.12436">
        <ele>244</ele>
        <time>2026-05-17T10:43:02+02:00</time>
      </trkpt>
      <trkpt lat="47.95839" lon="6.12444">
        <ele>244.2002</ele>
        <time>2026-05-17T10:43:03+02:00</time>
      </trkpt>
      <trkpt lat="47.95838" lon="6.12452">
        <ele>244.2998</ele>
        <time>2026-05-17T10:43:04+02:00</time>
      </trkpt>
      <trkpt lat="47.95836" lon="6.1246">
        <ele>244.2002</ele>
        <time>2026-05-17T10:43:05+02:00</time>
      </trkpt>
      <trkpt lat="47.95834" lon="6.12468">
        <ele>244.2998</ele>
        <time>2026-05-17T10:43:06+02:00</time>
      </trkpt>
      <trkpt lat="47.95832" lon="6.12475">
        <ele>244.40039</ele>
        <time>2026-05-17T10:43:07+02:00</time>
      </trkpt>
      <trkpt lat="47.9583" lon="6.12483">
        <ele>244.2998</ele>
        <time>2026-05-17T10:43:08+02:00</time>
      </trkpt>
      <trkpt lat="47.95828" lon="6.1249">
        <ele>244.40039</ele>
        <time>2026-05-17T10:43:09+02:00</time>
      </trkpt>
      <trkpt lat="47.95827" lon="6.12498">
        <ele>244.40039</ele>
        <time>2026-05-17T10:43:10+02:00</time>
      </trkpt>
      <trkpt lat="47.95826" lon="6.12505">
        <ele>244.2998</ele>
        <time>2026-05-17T10:43:11+02:00</time>
      </trkpt>
      <trkpt lat="47.95824" lon="6.12513">
        <ele>244.2998</ele>
        <time>2026-05-17T10:43:12+02:00</time>
      </trkpt>
      <trkpt lat="47.95823" lon="6.12521">
        <ele>244.40039</ele>
        <time>2026-05-17T10:43:13+02:00</time>
      </trkpt>
      <trkpt lat="47.95822" lon="6.12529">
        <ele>244.40039</ele>
        <time>2026-05-17T10:43:14+02:00</time>
      </trkpt>
      <trkpt lat="47.95821" lon="6.12536">
        <ele>244.2998</ele>
        <time>2026-05-17T10:43:15+02:00</time>
      </trkpt>
      <trkpt lat="47.95819" lon="6.12544">
        <ele>244.2002</ele>
        <time>2026-05-17T10:43:16+02:00</time>
      </trkpt>
      <trkpt lat="47.95818" lon="6.12551">
        <ele>244.2002</ele>
        <time>2026-05-17T10:43:17+02:00</time>
      </trkpt>
      <trkpt lat="47.95817" lon="6.12559">
        <ele>244.2002</ele>
        <time>2026-05-17T10:43:18+02:00</time>
      </trkpt>
      <trkpt lat="47.95815" lon="6.12567">
        <ele>244.2002</ele>
        <time>2026-05-17T10:43:19+02:00</time>
      </trkpt>
      <trkpt lat="47.95813" lon="6.12575">
        <ele>244</ele>
        <time>2026-05-17T10:43:20+02:00</time>
      </trkpt>
      <trkpt lat="47.95812" lon="6.12583">
        <ele>244</ele>
        <time>2026-05-17T10:43:21+02:00</time>
      </trkpt>
      <trkpt lat="47.9581" lon="6.12591">
        <ele>244</ele>
        <time>2026-05-17T10:43:22+02:00</time>
      </trkpt>
      <trkpt lat="47.95809" lon="6.12599">
        <ele>244</ele>
        <time>2026-05-17T10:43:23+02:00</time>
      </trkpt>
      <trkpt lat="47.95807" lon="6.12606">
        <ele>243.7998</ele>
        <time>2026-05-17T10:43:24+02:00</time>
      </trkpt>
      <trkpt lat="47.95806" lon="6.12614">
        <ele>243.7998</ele>
        <time>2026-05-17T10:43:25+02:00</time>
      </trkpt>
      <trkpt lat="47.95805" lon="6.12621">
        <ele>243.7998</ele>
        <time>2026-05-17T10:43:26+02:00</time>
      </trkpt>
      <trkpt lat="47.95803" lon="6.12629">
        <ele>243.60059</ele>
        <time>2026-05-17T10:43:27+02:00</time>
      </trkpt>
      <trkpt lat="47.95801" lon="6.12637">
        <ele>243.7002</ele>
        <time>2026-05-17T10:43:28+02:00</time>
      </trkpt>
      <trkpt lat="47.958" lon="6.12644">
        <ele>243.7998</ele>
        <time>2026-05-17T10:43:29+02:00</time>
      </trkpt>
      <trkpt lat="47.95799" lon="6.12652">
        <ele>243.90039</ele>
        <time>2026-05-17T10:43:30+02:00</time>
      </trkpt>
      <trkpt lat="47.95797" lon="6.12659">
        <ele>243.7002</ele>
        <time>2026-05-17T10:43:31+02:00</time>
      </trkpt>
      <trkpt lat="47.95796" lon="6.12666">
        <ele>243.7998</ele>
        <time>2026-05-17T10:43:32+02:00</time>
      </trkpt>
      <trkpt lat="47.95794" lon="6.12674">
        <ele>244</ele>
        <time>2026-05-17T10:43:33+02:00</time>
      </trkpt>
      <trkpt lat="47.95793" lon="6.12681">
        <ele>244.2002</ele>
        <time>2026-05-17T10:43:34+02:00</time>
      </trkpt>
      <trkpt lat="47.95792" lon="6.12689">
        <ele>244.5</ele>
        <time>2026-05-17T10:43:35+02:00</time>
      </trkpt>
      <trkpt lat="47.9579" lon="6.12697">
        <ele>244.40039</ele>
        <time>2026-05-17T10:43:36+02:00</time>
      </trkpt>
      <trkpt lat="47.95789" lon="6.12706">
        <ele>244.7002</ele>
        <time>2026-05-17T10:43:37+02:00</time>
      </trkpt>
      <trkpt lat="47.95788" lon="6.12714">
        <ele>244.90039</ele>
        <time>2026-05-17T10:43:38+02:00</time>
      </trkpt>
      <trkpt lat="47.95788" lon="6.12723">
        <ele>245.2002</ele>
        <time>2026-05-17T10:43:39+02:00</time>
      </trkpt>
      <trkpt lat="47.95786" lon="6.12731">
        <ele>245.40039</ele>
        <time>2026-05-17T10:43:40+02:00</time>
      </trkpt>
      <trkpt lat="47.95785" lon="6.1274">
        <ele>245.2998</ele>
        <time>2026-05-17T10:43:41+02:00</time>
      </trkpt>
      <trkpt lat="47.95785" lon="6.12748">
        <ele>245.5</ele>
        <time>2026-05-17T10:43:42+02:00</time>
      </trkpt>
      <trkpt lat="47.95784" lon="6.12756">
        <ele>245.7998</ele>
        <time>2026-05-17T10:43:43+02:00</time>
      </trkpt>
      <trkpt lat="47.95784" lon="6.12763">
        <ele>246.10059</ele>
        <time>2026-05-17T10:43:44+02:00</time>
      </trkpt>
      <trkpt lat="47.95783" lon="6.1277">
        <ele>246.10059</ele>
        <time>2026-05-17T10:43:45+02:00</time>
      </trkpt>
      <trkpt lat="47.95782" lon="6.12777">
        <ele>246.2998</ele>
        <time>2026-05-17T10:43:46+02:00</time>
      </trkpt>
      <trkpt lat="47.95782" lon="6.12783">
        <ele>246.60059</ele>
        <time>2026-05-17T10:43:47+02:00</time>
      </trkpt>
      <trkpt lat="47.95781" lon="6.12789">
        <ele>246.7998</ele>
        <time>2026-05-17T10:43:48+02:00</time>
      </trkpt>
      <trkpt lat="47.9578" lon="6.12794">
        <ele>246.7998</ele>
        <time>2026-05-17T10:43:49+02:00</time>
      </trkpt>
      <trkpt lat="47.95779" lon="6.12799">
        <ele>246.7002</ele>
        <time>2026-05-17T10:43:50+02:00</time>
      </trkpt>
      <trkpt lat="47.95778" lon="6.12804">
        <ele>246.7002</ele>
        <time>2026-05-17T10:43:51+02:00</time>
      </trkpt>
      <trkpt lat="47.95777" lon="6.12807">
        <ele>246.7998</ele>
        <time>2026-05-17T10:43:52+02:00</time>
      </trkpt>
      <trkpt lat="47.95776" lon="6.1281">
        <ele>246.7998</ele>
        <time>2026-05-17T10:43:53+02:00</time>
      </trkpt>
      <trkpt lat="47.95775" lon="6.12813">
        <ele>246.7998</ele>
        <time>2026-05-17T10:43:54+02:00</time>
      </trkpt>
      <trkpt lat="47.95774" lon="6.12815">
        <ele>246.7998</ele>
        <time>2026-05-17T10:43:55+02:00</time>
      </trkpt>
      <trkpt lat="47.95773" lon="6.12819">
        <ele>246.7998</ele>
        <time>2026-05-17T10:43:56+02:00</time>
      </trkpt>
      <trkpt lat="47.95772" lon="6.12823">
        <ele>246.90039</ele>
        <time>2026-05-17T10:43:57+02:00</time>
      </trkpt>
      <trkpt lat="47.95771" lon="6.12828">
        <ele>246.90039</ele>
        <time>2026-05-17T10:43:58+02:00</time>
      </trkpt>
      <trkpt lat="47.9577" lon="6.12834">
        <ele>247.10059</ele>
        <time>2026-05-17T10:43:59+02:00</time>
      </trkpt>
      <trkpt lat="47.95769" lon="6.12839">
        <ele>247.10059</ele>
        <time>2026-05-17T10:44:00+02:00</time>
      </trkpt>
      <trkpt lat="47.95768" lon="6.12845">
        <ele>247.10059</ele>
        <time>2026-05-17T10:44:01+02:00</time>
      </trkpt>
      <trkpt lat="47.95767" lon="6.12851">
        <ele>247.2998</ele>
        <time>2026-05-17T10:44:02+02:00</time>
      </trkpt>
      <trkpt lat="47.95766" lon="6.12856">
        <ele>247.2998</ele>
        <time>2026-05-17T10:44:03+02:00</time>
      </trkpt>
      <trkpt lat="47.95765" lon="6.12861">
        <ele>247.40039</ele>
        <time>2026-05-17T10:44:04+02:00</time>
      </trkpt>
      <trkpt lat="47.95764" lon="6.12866">
        <ele>247.5</ele>
        <time>2026-05-17T10:44:05+02:00</time>
      </trkpt>
      <trkpt lat="47.95764" lon="6.12871">
        <ele>247.5</ele>
        <time>2026-05-17T10:44:06+02:00</time>
      </trkpt>
      <trkpt lat="47.95763" lon="6.12876">
        <ele>247.60059</ele>
        <time>2026-05-17T10:44:07+02:00</time>
      </trkpt>
      <trkpt lat="47.95762" lon="6.12881">
        <ele>247.5</ele>
        <time>2026-05-17T10:44:08+02:00</time>
      </trkpt>
      <trkpt lat="47.95762" lon="6.12887">
        <ele>247.60059</ele>
        <time>2026-05-17T10:44:09+02:00</time>
      </trkpt>
      <trkpt lat="47.9576" lon="6.12893">
        <ele>247.60059</ele>
        <time>2026-05-17T10:44:10+02:00</time>
      </trkpt>
      <trkpt lat="47.9576" lon="6.12899">
        <ele>247.60059</ele>
        <time>2026-05-17T10:44:11+02:00</time>
      </trkpt>
      <trkpt lat="47.95759" lon="6.12906">
        <ele>247.60059</ele>
        <time>2026-05-17T10:44:12+02:00</time>
      </trkpt>
      <trkpt lat="47.95759" lon="6.12912">
        <ele>247.5</ele>
        <time>2026-05-17T10:44:13+02:00</time>
      </trkpt>
      <trkpt lat="47.95759" lon="6.12918">
        <ele>247.5</ele>
        <time>2026-05-17T10:44:14+02:00</time>
      </trkpt>
      <trkpt lat="47.95759" lon="6.12924">
        <ele>247.5</ele>
        <time>2026-05-17T10:44:15+02:00</time>
      </trkpt>
      <trkpt lat="47.95759" lon="6.1293">
        <ele>247.40039</ele>
        <time>2026-05-17T10:44:16+02:00</time>
      </trkpt>
      <trkpt lat="47.95759" lon="6.12937">
        <ele>247.40039</ele>
        <time>2026-05-17T10:44:17+02:00</time>
      </trkpt>
      <trkpt lat="47.95759" lon="6.12944">
        <ele>247.40039</ele>
        <time>2026-05-17T10:44:18+02:00</time>
      </trkpt>
      <trkpt lat="47.9576" lon="6.1295">
        <ele>247.40039</ele>
        <time>2026-05-17T10:44:19+02:00</time>
      </trkpt>
      <trkpt lat="47.9576" lon="6.12957">
        <ele>247.40039</ele>
        <time>2026-05-17T10:44:20+02:00</time>
      </trkpt>
      <trkpt lat="47.95761" lon="6.12964">
        <ele>247.40039</ele>
        <time>2026-05-17T10:44:21+02:00</time>
      </trkpt>
      <trkpt lat="47.95762" lon="6.12971">
        <ele>247.5</ele>
        <time>2026-05-17T10:44:22+02:00</time>
      </trkpt>
      <trkpt lat="47.95764" lon="6.12978">
        <ele>247.7998</ele>
        <time>2026-05-17T10:44:23+02:00</time>
      </trkpt>
      <trkpt lat="47.95764" lon="6.12984">
        <ele>247.7998</ele>
        <time>2026-05-17T10:44:24+02:00</time>
      </trkpt>
      <trkpt lat="47.95765" lon="6.12991">
        <ele>247.90039</ele>
        <time>2026-05-17T10:44:25+02:00</time>
      </trkpt>
      <trkpt lat="47.95766" lon="6.12997">
        <ele>248</ele>
        <time>2026-05-17T10:44:26+02:00</time>
      </trkpt>
      <trkpt lat="47.95767" lon="6.13004">
        <ele>248.10059</ele>
        <time>2026-05-17T10:44:27+02:00</time>
      </trkpt>
      <trkpt lat="47.95768" lon="6.1301">
        <ele>248.10059</ele>
        <time>2026-05-17T10:44:28+02:00</time>
      </trkpt>
      <trkpt lat="47.95768" lon="6.13017">
        <ele>248.2998</ele>
        <time>2026-05-17T10:44:29+02:00</time>
      </trkpt>
      <trkpt lat="47.95769" lon="6.13023">
        <ele>248.7002</ele>
        <time>2026-05-17T10:44:30+02:00</time>
      </trkpt>
      <trkpt lat="47.9577" lon="6.1303">
        <ele>248.7998</ele>
        <time>2026-05-17T10:44:31+02:00</time>
      </trkpt>
      <trkpt lat="47.95771" lon="6.13037">
        <ele>248.7998</ele>
        <time>2026-05-17T10:44:32+02:00</time>
      </trkpt>
      <trkpt lat="47.95771" lon="6.13044">
        <ele>248.7998</ele>
        <time>2026-05-17T10:44:33+02:00</time>
      </trkpt>
      <trkpt lat="47.95772" lon="6.13051">
        <ele>248.90039</ele>
        <time>2026-05-17T10:44:34+02:00</time>
      </trkpt>
      <trkpt lat="47.95772" lon="6.13059">
        <ele>248.7998</ele>
        <time>2026-05-17T10:44:35+02:00</time>
      </trkpt>
      <trkpt lat="47.95773" lon="6.13066">
        <ele>248.7002</ele>
        <time>2026-05-17T10:44:36+02:00</time>
      </trkpt>
      <trkpt lat="47.95773" lon="6.13073">
        <ele>248.5</ele>
        <time>2026-05-17T10:44:37+02:00</time>
      </trkpt>
      <trkpt lat="47.95773" lon="6.1308">
        <ele>248.5</ele>
        <time>2026-05-17T10:44:38+02:00</time>
      </trkpt>
      <trkpt lat="47.95772" lon="6.13087">
        <ele>248.2998</ele>
        <time>2026-05-17T10:44:39+02:00</time>
      </trkpt>
      <trkpt lat="47.95772" lon="6.13094">
        <ele>248.10059</ele>
        <time>2026-05-17T10:44:40+02:00</time>
      </trkpt>
      <trkpt lat="47.95772" lon="6.13102">
        <ele>248.10059</ele>
        <time>2026-05-17T10:44:41+02:00</time>
      </trkpt>
      <trkpt lat="47.95772" lon="6.13109">
        <ele>248</ele>
        <time>2026-05-17T10:44:42+02:00</time>
      </trkpt>
      <trkpt lat="47.95772" lon="6.13115">
        <ele>248</ele>
        <time>2026-05-17T10:44:43+02:00</time>
      </trkpt>
      <trkpt lat="47.95771" lon="6.13123">
        <ele>248.10059</ele>
        <time>2026-05-17T10:44:44+02:00</time>
      </trkpt>
      <trkpt lat="47.95771" lon="6.1313">
        <ele>248.10059</ele>
        <time>2026-05-17T10:44:45+02:00</time>
      </trkpt>
      <trkpt lat="47.9577" lon="6.13158">
        <ele>248.7002</ele>
        <time>2026-05-17T10:44:46+02:00</time>
      </trkpt>
      <trkpt lat="47.9577" lon="6.13165">
        <ele>248.7002</ele>
        <time>2026-05-17T10:44:47+02:00</time>
      </trkpt>
      <trkpt lat="47.9577" lon="6.13173">
        <ele>248.7998</ele>
        <time>2026-05-17T10:44:48+02:00</time>
      </trkpt>
      <trkpt lat="47.9577" lon="6.1318">
        <ele>248.90039</ele>
        <time>2026-05-17T10:44:49+02:00</time>
      </trkpt>
      <trkpt lat="47.9577" lon="6.13187">
        <ele>249</ele>
        <time>2026-05-17T10:44:50+02:00</time>
      </trkpt>
      <trkpt lat="47.9577" lon="6.13195">
        <ele>249</ele>
        <time>2026-05-17T10:44:51+02:00</time>
      </trkpt>
      <trkpt lat="47.9577" lon="6.13203">
        <ele>249</ele>
        <time>2026-05-17T10:44:52+02:00</time>
      </trkpt>
      <trkpt lat="47.9577" lon="6.13211">
        <ele>249</ele>
        <time>2026-05-17T10:44:53+02:00</time>
      </trkpt>
      <trkpt lat="47.9577" lon="6.13218">
        <ele>249</ele>
        <time>2026-05-17T10:44:54+02:00</time>
      </trkpt>
      <trkpt lat="47.9577" lon="6.13226">
        <ele>249.10059</ele>
        <time>2026-05-17T10:44:55+02:00</time>
      </trkpt>
      <trkpt lat="47.9577" lon="6.13234">
        <ele>249.10059</ele>
        <time>2026-05-17T10:44:56+02:00</time>
      </trkpt>
      <trkpt lat="47.9577" lon="6.13242">
        <ele>249.10059</ele>
        <time>2026-05-17T10:44:57+02:00</time>
      </trkpt>
      <trkpt lat="47.9577" lon="6.13249">
        <ele>249.2002</ele>
        <time>2026-05-17T10:44:58+02:00</time>
      </trkpt>
      <trkpt lat="47.9577" lon="6.13257">
        <ele>249.40039</ele>
        <time>2026-05-17T10:44:59+02:00</time>
      </trkpt>
      <trkpt lat="47.9577" lon="6.13265">
        <ele>249.5</ele>
        <time>2026-05-17T10:45:00+02:00</time>
      </trkpt>
      <trkpt lat="47.9577" lon="6.13273">
        <ele>249.7002</ele>
        <time>2026-05-17T10:45:01+02:00</time>
      </trkpt>
      <trkpt lat="47.9577" lon="6.13281">
        <ele>249.90039</ele>
        <time>2026-05-17T10:45:02+02:00</time>
      </trkpt>
      <trkpt lat="47.9577" lon="6.13289">
        <ele>250.10059</ele>
        <time>2026-05-17T10:45:03+02:00</time>
      </trkpt>
      <trkpt lat="47.9577" lon="6.13296">
        <ele>250.2998</ele>
        <time>2026-05-17T10:45:04+02:00</time>
      </trkpt>
      <trkpt lat="47.95771" lon="6.13304">
        <ele>250.5</ele>
        <time>2026-05-17T10:45:05+02:00</time>
      </trkpt>
      <trkpt lat="47.95771" lon="6.13311">
        <ele>250.5</ele>
        <time>2026-05-17T10:45:06+02:00</time>
      </trkpt>
      <trkpt lat="47.95771" lon="6.13319">
        <ele>250.60059</ele>
        <time>2026-05-17T10:45:07+02:00</time>
      </trkpt>
      <trkpt lat="47.95772" lon="6.13327">
        <ele>250.7002</ele>
        <time>2026-05-17T10:45:08+02:00</time>
      </trkpt>
      <trkpt lat="47.95772" lon="6.13335">
        <ele>250.7998</ele>
        <time>2026-05-17T10:45:09+02:00</time>
      </trkpt>
      <trkpt lat="47.95772" lon="6.13342">
        <ele>250.7002</ele>
        <time>2026-05-17T10:45:10+02:00</time>
      </trkpt>
      <trkpt lat="47.95773" lon="6.1335">
        <ele>250.7002</ele>
        <time>2026-05-17T10:45:11+02:00</time>
      </trkpt>
      <trkpt lat="47.95774" lon="6.13358">
        <ele>250.60059</ele>
        <time>2026-05-17T10:45:12+02:00</time>
      </trkpt>
      <trkpt lat="47.95775" lon="6.13366">
        <ele>250.40039</ele>
        <time>2026-05-17T10:45:13+02:00</time>
      </trkpt>
      <trkpt lat="47.95775" lon="6.13374">
        <ele>250.2998</ele>
        <time>2026-05-17T10:45:14+02:00</time>
      </trkpt>
      <trkpt lat="47.95776" lon="6.13381">
        <ele>250.10059</ele>
        <time>2026-05-17T10:45:15+02:00</time>
      </trkpt>
      <trkpt lat="47.95776" lon="6.13389">
        <ele>250.10059</ele>
        <time>2026-05-17T10:45:16+02:00</time>
      </trkpt>
      <trkpt lat="47.95777" lon="6.13397">
        <ele>250</ele>
        <time>2026-05-17T10:45:17+02:00</time>
      </trkpt>
      <trkpt lat="47.95777" lon="6.13405">
        <ele>249.90039</ele>
        <time>2026-05-17T10:45:18+02:00</time>
      </trkpt>
      <trkpt lat="47.95778" lon="6.13412">
        <ele>249.7998</ele>
        <time>2026-05-17T10:45:19+02:00</time>
      </trkpt>
      <trkpt lat="47.95778" lon="6.1342">
        <ele>249.7002</ele>
        <time>2026-05-17T10:45:20+02:00</time>
      </trkpt>
      <trkpt lat="47.95778" lon="6.13428">
        <ele>249.5</ele>
        <time>2026-05-17T10:45:21+02:00</time>
      </trkpt>
      <trkpt lat="47.95779" lon="6.13435">
        <ele>249.40039</ele>
        <time>2026-05-17T10:45:22+02:00</time>
      </trkpt>
      <trkpt lat="47.95779" lon="6.13443">
        <ele>249.2998</ele>
        <time>2026-05-17T10:45:23+02:00</time>
      </trkpt>
      <trkpt lat="47.9578" lon="6.13451">
        <ele>249.2002</ele>
        <time>2026-05-17T10:45:24+02:00</time>
      </trkpt>
      <trkpt lat="47.9578" lon="6.13459">
        <ele>249.10059</ele>
        <time>2026-05-17T10:45:25+02:00</time>
      </trkpt>
      <trkpt lat="47.95781" lon="6.13467">
        <ele>249</ele>
        <time>2026-05-17T10:45:26+02:00</time>
      </trkpt>
      <trkpt lat="47.95781" lon="6.13475">
        <ele>248.90039</ele>
        <time>2026-05-17T10:45:27+02:00</time>
      </trkpt>
      <trkpt lat="47.95782" lon="6.13483">
        <ele>248.90039</ele>
        <time>2026-05-17T10:45:28+02:00</time>
      </trkpt>
      <trkpt lat="47.95783" lon="6.13491">
        <ele>248.90039</ele>
        <time>2026-05-17T10:45:29+02:00</time>
      </trkpt>
      <trkpt lat="47.95785" lon="6.13499">
        <ele>248.90039</ele>
        <time>2026-05-17T10:45:30+02:00</time>
      </trkpt>
      <trkpt lat="47.95786" lon="6.13507">
        <ele>249.10059</ele>
        <time>2026-05-17T10:45:31+02:00</time>
      </trkpt>
      <trkpt lat="47.95787" lon="6.13515">
        <ele>249.10059</ele>
        <time>2026-05-17T10:45:32+02:00</time>
      </trkpt>
      <trkpt lat="47.95788" lon="6.13523">
        <ele>249.2002</ele>
        <time>2026-05-17T10:45:33+02:00</time>
      </trkpt>
      <trkpt lat="47.95789" lon="6.1353">
        <ele>249.2998</ele>
        <time>2026-05-17T10:45:34+02:00</time>
      </trkpt>
      <trkpt lat="47.95791" lon="6.13538">
        <ele>249.40039</ele>
        <time>2026-05-17T10:45:35+02:00</time>
      </trkpt>
      <trkpt lat="47.95792" lon="6.13545">
        <ele>249.7002</ele>
        <time>2026-05-17T10:45:36+02:00</time>
      </trkpt>
      <trkpt lat="47.95793" lon="6.13552">
        <ele>249.7002</ele>
        <time>2026-05-17T10:45:37+02:00</time>
      </trkpt>
      <trkpt lat="47.95794" lon="6.1356">
        <ele>249.90039</ele>
        <time>2026-05-17T10:45:38+02:00</time>
      </trkpt>
      <trkpt lat="47.95796" lon="6.13567">
        <ele>250</ele>
        <time>2026-05-17T10:45:39+02:00</time>
      </trkpt>
      <trkpt lat="47.95797" lon="6.13575">
        <ele>250.2002</ele>
        <time>2026-05-17T10:45:40+02:00</time>
      </trkpt>
      <trkpt lat="47.95798" lon="6.13583">
        <ele>250.5</ele>
        <time>2026-05-17T10:45:41+02:00</time>
      </trkpt>
      <trkpt lat="47.958" lon="6.13591">
        <ele>250.7002</ele>
        <time>2026-05-17T10:45:42+02:00</time>
      </trkpt>
      <trkpt lat="47.95802" lon="6.13598">
        <ele>251</ele>
        <time>2026-05-17T10:45:43+02:00</time>
      </trkpt>
      <trkpt lat="47.95804" lon="6.13606">
        <ele>251.5</ele>
        <time>2026-05-17T10:45:44+02:00</time>
      </trkpt>
      <trkpt lat="47.95806" lon="6.13614">
        <ele>251.7998</ele>
        <time>2026-05-17T10:45:45+02:00</time>
      </trkpt>
      <trkpt lat="47.95808" lon="6.13621">
        <ele>252.10059</ele>
        <time>2026-05-17T10:45:46+02:00</time>
      </trkpt>
      <trkpt lat="47.9581" lon="6.13629">
        <ele>252.2998</ele>
        <time>2026-05-17T10:45:47+02:00</time>
      </trkpt>
      <trkpt lat="47.95812" lon="6.13636">
        <ele>252.5</ele>
        <time>2026-05-17T10:45:48+02:00</time>
      </trkpt>
      <trkpt lat="47.95814" lon="6.13644">
        <ele>252.7002</ele>
        <time>2026-05-17T10:45:49+02:00</time>
      </trkpt>
      <trkpt lat="47.95817" lon="6.13652">
        <ele>253.2002</ele>
        <time>2026-05-17T10:45:50+02:00</time>
      </trkpt>
      <trkpt lat="47.95819" lon="6.1366">
        <ele>253.2002</ele>
        <time>2026-05-17T10:45:51+02:00</time>
      </trkpt>
      <trkpt lat="47.95821" lon="6.13668">
        <ele>253.5</ele>
        <time>2026-05-17T10:45:52+02:00</time>
      </trkpt>
      <trkpt lat="47.95824" lon="6.13676">
        <ele>253.5</ele>
        <time>2026-05-17T10:45:53+02:00</time>
      </trkpt>
      <trkpt lat="47.95826" lon="6.13683">
        <ele>253.40039</ele>
        <time>2026-05-17T10:45:54+02:00</time>
      </trkpt>
      <trkpt lat="47.95829" lon="6.13691">
        <ele>253.7002</ele>
        <time>2026-05-17T10:45:55+02:00</time>
      </trkpt>
      <trkpt lat="47.95831" lon="6.13698">
        <ele>253.7002</ele>
        <time>2026-05-17T10:45:56+02:00</time>
      </trkpt>
      <trkpt lat="47.95834" lon="6.13706">
        <ele>254</ele>
        <time>2026-05-17T10:45:57+02:00</time>
      </trkpt>
      <trkpt lat="47.95837" lon="6.13713">
        <ele>254</ele>
        <time>2026-05-17T10:45:58+02:00</time>
      </trkpt>
      <trkpt lat="47.9584" lon="6.1372">
        <ele>254.2998</ele>
        <time>2026-05-17T10:45:59+02:00</time>
      </trkpt>
      <trkpt lat="47.95843" lon="6.13728">
        <ele>254.2998</ele>
        <time>2026-05-17T10:46:00+02:00</time>
      </trkpt>
      <trkpt lat="47.95846" lon="6.13735">
        <ele>254.7002</ele>
        <time>2026-05-17T10:46:01+02:00</time>
      </trkpt>
      <trkpt lat="47.95849" lon="6.13742">
        <ele>254.7002</ele>
        <time>2026-05-17T10:46:02+02:00</time>
      </trkpt>
      <trkpt lat="47.95851" lon="6.13749">
        <ele>255.10059</ele>
        <time>2026-05-17T10:46:03+02:00</time>
      </trkpt>
      <trkpt lat="47.95854" lon="6.13756">
        <ele>255.10059</ele>
        <time>2026-05-17T10:46:04+02:00</time>
      </trkpt>
      <trkpt lat="47.95857" lon="6.13763">
        <ele>255.40039</ele>
        <time>2026-05-17T10:46:05+02:00</time>
      </trkpt>
      <trkpt lat="47.9586" lon="6.13769">
        <ele>255.2998</ele>
        <time>2026-05-17T10:46:06+02:00</time>
      </trkpt>
      <trkpt lat="47.95863" lon="6.13776">
        <ele>255.5</ele>
        <time>2026-05-17T10:46:07+02:00</time>
      </trkpt>
      <trkpt lat="47.95866" lon="6.13783">
        <ele>255.5</ele>
        <time>2026-05-17T10:46:08+02:00</time>
      </trkpt>
      <trkpt lat="47.95869" lon="6.1379">
        <ele>255.7002</ele>
        <time>2026-05-17T10:46:09+02:00</time>
      </trkpt>
      <trkpt lat="47.95871" lon="6.13797">
        <ele>255.60059</ele>
        <time>2026-05-17T10:46:10+02:00</time>
      </trkpt>
      <trkpt lat="47.95875" lon="6.13803">
        <ele>255.7002</ele>
        <time>2026-05-17T10:46:11+02:00</time>
      </trkpt>
      <trkpt lat="47.95877" lon="6.1381">
        <ele>255.5</ele>
        <time>2026-05-17T10:46:12+02:00</time>
      </trkpt>
      <trkpt lat="47.9588" lon="6.13817">
        <ele>255.7998</ele>
        <time>2026-05-17T10:46:13+02:00</time>
      </trkpt>
      <trkpt lat="47.95883" lon="6.13825">
        <ele>255.5</ele>
        <time>2026-05-17T10:46:14+02:00</time>
      </trkpt>
      <trkpt lat="47.95885" lon="6.13832">
        <ele>255.60059</ele>
        <time>2026-05-17T10:46:15+02:00</time>
      </trkpt>
      <trkpt lat="47.95888" lon="6.13839">
        <ele>255.2998</ele>
        <time>2026-05-17T10:46:16+02:00</time>
      </trkpt>
      <trkpt lat="47.95891" lon="6.13846">
        <ele>255.40039</ele>
        <time>2026-05-17T10:46:17+02:00</time>
      </trkpt>
      <trkpt lat="47.95893" lon="6.13853">
        <ele>255.2002</ele>
        <time>2026-05-17T10:46:18+02:00</time>
      </trkpt>
      <trkpt lat="47.95896" lon="6.1386">
        <ele>255.7002</ele>
        <time>2026-05-17T10:46:19+02:00</time>
      </trkpt>
      <trkpt lat="47.95899" lon="6.13867">
        <ele>255.40039</ele>
        <time>2026-05-17T10:46:20+02:00</time>
      </trkpt>
      <trkpt lat="47.95901" lon="6.13874">
        <ele>255.7002</ele>
        <time>2026-05-17T10:46:21+02:00</time>
      </trkpt>
      <trkpt lat="47.95904" lon="6.13882">
        <ele>255.40039</ele>
        <time>2026-05-17T10:46:22+02:00</time>
      </trkpt>
      <trkpt lat="47.95907" lon="6.13889">
        <ele>255.60059</ele>
        <time>2026-05-17T10:46:23+02:00</time>
      </trkpt>
      <trkpt lat="47.9591" lon="6.13896">
        <ele>255.40039</ele>
        <time>2026-05-17T10:46:24+02:00</time>
      </trkpt>
      <trkpt lat="47.95913" lon="6.13903">
        <ele>255.7002</ele>
        <time>2026-05-17T10:46:25+02:00</time>
      </trkpt>
      <trkpt lat="47.95915" lon="6.1391">
        <ele>255.40039</ele>
        <time>2026-05-17T10:46:26+02:00</time>
      </trkpt>
      <trkpt lat="47.95918" lon="6.13917">
        <ele>255.2002</ele>
        <time>2026-05-17T10:46:27+02:00</time>
      </trkpt>
      <trkpt lat="47.95921" lon="6.13924">
        <ele>255.5</ele>
        <time>2026-05-17T10:46:28+02:00</time>
      </trkpt>
      <trkpt lat="47.95923" lon="6.13931">
        <ele>255.2998</ele>
        <time>2026-05-17T10:46:29+02:00</time>
      </trkpt>
      <trkpt lat="47.95926" lon="6.13937">
        <ele>256</ele>
        <time>2026-05-17T10:46:30+02:00</time>
      </trkpt>
      <trkpt lat="47.95929" lon="6.13944">
        <ele>255.7998</ele>
        <time>2026-05-17T10:46:31+02:00</time>
      </trkpt>
      <trkpt lat="47.95931" lon="6.13951">
        <ele>256.2002</ele>
        <time>2026-05-17T10:46:32+02:00</time>
      </trkpt>
      <trkpt lat="47.95934" lon="6.13958">
        <ele>255.90039</ele>
        <time>2026-05-17T10:46:33+02:00</time>
      </trkpt>
      <trkpt lat="47.95936" lon="6.13965">
        <ele>256</ele>
        <time>2026-05-17T10:46:34+02:00</time>
      </trkpt>
      <trkpt lat="47.95939" lon="6.13972">
        <ele>256</ele>
        <time>2026-05-17T10:46:35+02:00</time>
      </trkpt>
      <trkpt lat="47.95942" lon="6.13979">
        <ele>255.90039</ele>
        <time>2026-05-17T10:46:36+02:00</time>
      </trkpt>
      <trkpt lat="47.95945" lon="6.13986">
        <ele>255.7002</ele>
        <time>2026-05-17T10:46:37+02:00</time>
      </trkpt>
      <trkpt lat="47.95947" lon="6.13994">
        <ele>255.7002</ele>
        <time>2026-05-17T10:46:38+02:00</time>
      </trkpt>
      <trkpt lat="47.9595" lon="6.14001">
        <ele>255.5</ele>
        <time>2026-05-17T10:46:39+02:00</time>
      </trkpt>
      <trkpt lat="47.95954" lon="6.14008">
        <ele>255.60059</ele>
        <time>2026-05-17T10:46:40+02:00</time>
      </trkpt>
      <trkpt lat="47.95957" lon="6.14016">
        <ele>255.40039</ele>
        <time>2026-05-17T10:46:41+02:00</time>
      </trkpt>
      <trkpt lat="47.95959" lon="6.14023">
        <ele>255.7998</ele>
        <time>2026-05-17T10:46:42+02:00</time>
      </trkpt>
      <trkpt lat="47.95962" lon="6.14031">
        <ele>255.40039</ele>
        <time>2026-05-17T10:46:43+02:00</time>
      </trkpt>
      <trkpt lat="47.95965" lon="6.14038">
        <ele>255.40039</ele>
        <time>2026-05-17T10:46:44+02:00</time>
      </trkpt>
      <trkpt lat="47.95968" lon="6.14045">
        <ele>255.10059</ele>
        <time>2026-05-17T10:46:45+02:00</time>
      </trkpt>
      <trkpt lat="47.95971" lon="6.14052">
        <ele>255.60059</ele>
        <time>2026-05-17T10:46:46+02:00</time>
      </trkpt>
      <trkpt lat="47.95974" lon="6.14059">
        <ele>255.40039</ele>
        <time>2026-05-17T10:46:47+02:00</time>
      </trkpt>
      <trkpt lat="47.95977" lon="6.14067">
        <ele>256</ele>
        <time>2026-05-17T10:46:48+02:00</time>
      </trkpt>
      <trkpt lat="47.9598" lon="6.14074">
        <ele>255.7002</ele>
        <time>2026-05-17T10:46:49+02:00</time>
      </trkpt>
      <trkpt lat="47.95983" lon="6.14082">
        <ele>256</ele>
        <time>2026-05-17T10:46:50+02:00</time>
      </trkpt>
      <trkpt lat="47.95986" lon="6.14089">
        <ele>255.90039</ele>
        <time>2026-05-17T10:46:51+02:00</time>
      </trkpt>
      <trkpt lat="47.95989" lon="6.14097">
        <ele>256.2002</ele>
        <time>2026-05-17T10:46:52+02:00</time>
      </trkpt>
      <trkpt lat="47.95992" lon="6.14104">
        <ele>256.2002</ele>
        <time>2026-05-17T10:46:53+02:00</time>
      </trkpt>
      <trkpt lat="47.95995" lon="6.14111">
        <ele>256.5</ele>
        <time>2026-05-17T10:46:54+02:00</time>
      </trkpt>
      <trkpt lat="47.95998" lon="6.14119">
        <ele>256.5</ele>
        <time>2026-05-17T10:46:55+02:00</time>
      </trkpt>
      <trkpt lat="47.96001" lon="6.14126">
        <ele>256.9004</ele>
        <time>2026-05-17T10:46:56+02:00</time>
      </trkpt>
      <trkpt lat="47.96004" lon="6.14133">
        <ele>256.9004</ele>
        <time>2026-05-17T10:46:57+02:00</time>
      </trkpt>
      <trkpt lat="47.96007" lon="6.14141">
        <ele>257.2002</ele>
        <time>2026-05-17T10:46:58+02:00</time>
      </trkpt>
      <trkpt lat="47.9601" lon="6.14148">
        <ele>257.2002</ele>
        <time>2026-05-17T10:46:59+02:00</time>
      </trkpt>
      <trkpt lat="47.96013" lon="6.14155">
        <ele>257.6006</ele>
        <time>2026-05-17T10:47:00+02:00</time>
      </trkpt>
      <trkpt lat="47.96016" lon="6.14162">
        <ele>257.9004</ele>
        <time>2026-05-17T10:47:01+02:00</time>
      </trkpt>
      <trkpt lat="47.96019" lon="6.14169">
        <ele>257.9004</ele>
        <time>2026-05-17T10:47:02+02:00</time>
      </trkpt>
      <trkpt lat="47.96022" lon="6.14176">
        <ele>258.2002</ele>
        <time>2026-05-17T10:47:03+02:00</time>
      </trkpt>
      <trkpt lat="47.96026" lon="6.14184">
        <ele>258.2998</ele>
        <time>2026-05-17T10:47:04+02:00</time>
      </trkpt>
      <trkpt lat="47.96028" lon="6.14191">
        <ele>258.7998</ele>
        <time>2026-05-17T10:47:05+02:00</time>
      </trkpt>
      <trkpt lat="47.96031" lon="6.14199">
        <ele>258.9004</ele>
        <time>2026-05-17T10:47:06+02:00</time>
      </trkpt>
      <trkpt lat="47.96034" lon="6.14206">
        <ele>259.2002</ele>
        <time>2026-05-17T10:47:07+02:00</time>
      </trkpt>
      <trkpt lat="47.96037" lon="6.14214">
        <ele>259.2998</ele>
        <time>2026-05-17T10:47:08+02:00</time>
      </trkpt>
      <trkpt lat="47.9604" lon="6.14221">
        <ele>259.6006</ele>
        <time>2026-05-17T10:47:09+02:00</time>
      </trkpt>
      <trkpt lat="47.96043" lon="6.14228">
        <ele>259.6006</ele>
        <time>2026-05-17T10:47:10+02:00</time>
      </trkpt>
      <trkpt lat="47.96046" lon="6.14236">
        <ele>259.7002</ele>
        <time>2026-05-17T10:47:11+02:00</time>
      </trkpt>
      <trkpt lat="47.96049" lon="6.14243">
        <ele>259.7002</ele>
        <time>2026-05-17T10:47:12+02:00</time>
      </trkpt>
      <trkpt lat="47.96052" lon="6.1425">
        <ele>260</ele>
        <time>2026-05-17T10:47:13+02:00</time>
      </trkpt>
      <trkpt lat="47.96055" lon="6.14257">
        <ele>260.2002</ele>
        <time>2026-05-17T10:47:14+02:00</time>
      </trkpt>
      <trkpt lat="47.96058" lon="6.14264">
        <ele>260.4004</ele>
        <time>2026-05-17T10:47:15+02:00</time>
      </trkpt>
      <trkpt lat="47.9606" lon="6.14272">
        <ele>260.5</ele>
        <time>2026-05-17T10:47:16+02:00</time>
      </trkpt>
      <trkpt lat="47.96063" lon="6.14279">
        <ele>260.7002</ele>
        <time>2026-05-17T10:47:17+02:00</time>
      </trkpt>
      <trkpt lat="47.96066" lon="6.14286">
        <ele>260.4004</ele>
        <time>2026-05-17T10:47:18+02:00</time>
      </trkpt>
      <trkpt lat="47.96069" lon="6.14294">
        <ele>260</ele>
        <time>2026-05-17T10:47:19+02:00</time>
      </trkpt>
      <trkpt lat="47.96072" lon="6.14301">
        <ele>259.6006</ele>
        <time>2026-05-17T10:47:20+02:00</time>
      </trkpt>
      <trkpt lat="47.96075" lon="6.14309">
        <ele>259.5</ele>
        <time>2026-05-17T10:47:21+02:00</time>
      </trkpt>
      <trkpt lat="47.96077" lon="6.14316">
        <ele>259.4004</ele>
        <time>2026-05-17T10:47:22+02:00</time>
      </trkpt>
      <trkpt lat="47.9608" lon="6.14323">
        <ele>259.7998</ele>
        <time>2026-05-17T10:47:23+02:00</time>
      </trkpt>
      <trkpt lat="47.96083" lon="6.14331">
        <ele>259.7998</ele>
        <time>2026-05-17T10:47:24+02:00</time>
      </trkpt>
      <trkpt lat="47.96086" lon="6.14338">
        <ele>260.1006</ele>
        <time>2026-05-17T10:47:25+02:00</time>
      </trkpt>
      <trkpt lat="47.96089" lon="6.14345">
        <ele>259.7002</ele>
        <time>2026-05-17T10:47:26+02:00</time>
      </trkpt>
      <trkpt lat="47.96092" lon="6.14353">
        <ele>259.2002</ele>
        <time>2026-05-17T10:47:27+02:00</time>
      </trkpt>
      <trkpt lat="47.96095" lon="6.1436">
        <ele>258.6006</ele>
        <time>2026-05-17T10:47:28+02:00</time>
      </trkpt>
      <trkpt lat="47.96098" lon="6.14367">
        <ele>258.6006</ele>
        <time>2026-05-17T10:47:29+02:00</time>
      </trkpt>
      <trkpt lat="47.96101" lon="6.14374">
        <ele>258.1006</ele>
        <time>2026-05-17T10:47:30+02:00</time>
      </trkpt>
      <trkpt lat="47.96104" lon="6.14381">
        <ele>257.5</ele>
        <time>2026-05-17T10:47:31+02:00</time>
      </trkpt>
      <trkpt lat="47.96107" lon="6.14388">
        <ele>256.9004</ele>
        <time>2026-05-17T10:47:32+02:00</time>
      </trkpt>
      <trkpt lat="47.9611" lon="6.14396">
        <ele>256.4004</ele>
        <time>2026-05-17T10:47:33+02:00</time>
      </trkpt>
      <trkpt lat="47.96112" lon="6.14403">
        <ele>255.7998</ele>
        <time>2026-05-17T10:47:34+02:00</time>
      </trkpt>
      <trkpt lat="47.96115" lon="6.14411">
        <ele>255.40039</ele>
        <time>2026-05-17T10:47:35+02:00</time>
      </trkpt>
      <trkpt lat="47.96118" lon="6.14418">
        <ele>255.40039</ele>
        <time>2026-05-17T10:47:36+02:00</time>
      </trkpt>
      <trkpt lat="47.9612" lon="6.14426">
        <ele>255.2998</ele>
        <time>2026-05-17T10:47:37+02:00</time>
      </trkpt>
      <trkpt lat="47.96122" lon="6.14433">
        <ele>254.7998</ele>
        <time>2026-05-17T10:47:38+02:00</time>
      </trkpt>
      <trkpt lat="47.96125" lon="6.14441">
        <ele>255.2998</ele>
        <time>2026-05-17T10:47:39+02:00</time>
      </trkpt>
      <trkpt lat="47.96127" lon="6.14448">
        <ele>255.10059</ele>
        <time>2026-05-17T10:47:40+02:00</time>
      </trkpt>
      <trkpt lat="47.9613" lon="6.14455">
        <ele>255</ele>
        <time>2026-05-17T10:47:41+02:00</time>
      </trkpt>
      <trkpt lat="47.96132" lon="6.14463">
        <ele>255.7002</ele>
        <time>2026-05-17T10:47:42+02:00</time>
      </trkpt>
      <trkpt lat="47.96134" lon="6.1447">
        <ele>255.7002</ele>
        <time>2026-05-17T10:47:43+02:00</time>
      </trkpt>
      <trkpt lat="47.96137" lon="6.14478">
        <ele>255.90039</ele>
        <time>2026-05-17T10:47:44+02:00</time>
      </trkpt>
      <trkpt lat="47.96139" lon="6.14485">
        <ele>255.5</ele>
        <time>2026-05-17T10:47:45+02:00</time>
      </trkpt>
      <trkpt lat="47.96141" lon="6.14493">
        <ele>255.2002</ele>
        <time>2026-05-17T10:47:46+02:00</time>
      </trkpt>
      <trkpt lat="47.96143" lon="6.145">
        <ele>255.2998</ele>
        <time>2026-05-17T10:47:47+02:00</time>
      </trkpt>
      <trkpt lat="47.96145" lon="6.14507">
        <ele>255.10059</ele>
        <time>2026-05-17T10:47:48+02:00</time>
      </trkpt>
      <trkpt lat="47.96147" lon="6.14515">
        <ele>255</ele>
        <time>2026-05-17T10:47:49+02:00</time>
      </trkpt>
      <trkpt lat="47.96148" lon="6.14522">
        <ele>255</ele>
        <time>2026-05-17T10:47:50+02:00</time>
      </trkpt>
      <trkpt lat="47.9615" lon="6.14529">
        <ele>255.5</ele>
        <time>2026-05-17T10:47:51+02:00</time>
      </trkpt>
      <trkpt lat="47.96151" lon="6.14537">
        <ele>255.40039</ele>
        <time>2026-05-17T10:47:52+02:00</time>
      </trkpt>
      <trkpt lat="47.96153" lon="6.14544">
        <ele>255.2002</ele>
        <time>2026-05-17T10:47:53+02:00</time>
      </trkpt>
      <trkpt lat="47.96155" lon="6.14551">
        <ele>255.60059</ele>
        <time>2026-05-17T10:47:54+02:00</time>
      </trkpt>
      <trkpt lat="47.96157" lon="6.14558">
        <ele>255.40039</ele>
        <time>2026-05-17T10:47:55+02:00</time>
      </trkpt>
      <trkpt lat="47.96159" lon="6.14565">
        <ele>255.2998</ele>
        <time>2026-05-17T10:47:56+02:00</time>
      </trkpt>
      <trkpt lat="47.96161" lon="6.14573">
        <ele>255.5</ele>
        <time>2026-05-17T10:47:57+02:00</time>
      </trkpt>
      <trkpt lat="47.96163" lon="6.1458">
        <ele>255.2998</ele>
        <time>2026-05-17T10:47:58+02:00</time>
      </trkpt>
      <trkpt lat="47.96166" lon="6.14586">
        <ele>255.10059</ele>
        <time>2026-05-17T10:47:59+02:00</time>
      </trkpt>
      <trkpt lat="47.96168" lon="6.14593">
        <ele>255</ele>
        <time>2026-05-17T10:48:00+02:00</time>
      </trkpt>
      <trkpt lat="47.9617" lon="6.146">
        <ele>254.90039</ele>
        <time>2026-05-17T10:48:01+02:00</time>
      </trkpt>
      <trkpt lat="47.96172" lon="6.14606">
        <ele>254.7998</ele>
        <time>2026-05-17T10:48:02+02:00</time>
      </trkpt>
      <trkpt lat="47.96174" lon="6.14613">
        <ele>254.7998</ele>
        <time>2026-05-17T10:48:03+02:00</time>
      </trkpt>
      <trkpt lat="47.96176" lon="6.14619">
        <ele>254.7998</ele>
        <time>2026-05-17T10:48:04+02:00</time>
      </trkpt>
      <trkpt lat="47.96177" lon="6.14625">
        <ele>254.90039</ele>
        <time>2026-05-17T10:48:05+02:00</time>
      </trkpt>
      <trkpt lat="47.9618" lon="6.1463">
        <ele>254.90039</ele>
        <time>2026-05-17T10:48:06+02:00</time>
      </trkpt>
      <trkpt lat="47.96182" lon="6.14637">
        <ele>254.90039</ele>
        <time>2026-05-17T10:48:07+02:00</time>
      </trkpt>
      <trkpt lat="47.96184" lon="6.14644">
        <ele>255.10059</ele>
        <time>2026-05-17T10:48:08+02:00</time>
      </trkpt>
      <trkpt lat="47.96186" lon="6.1465">
        <ele>255.10059</ele>
        <time>2026-05-17T10:48:09+02:00</time>
      </trkpt>
      <trkpt lat="47.96188" lon="6.14657">
        <ele>255.2002</ele>
        <time>2026-05-17T10:48:10+02:00</time>
      </trkpt>
      <trkpt lat="47.9619" lon="6.14664">
        <ele>255.2998</ele>
        <time>2026-05-17T10:48:11+02:00</time>
      </trkpt>
      <trkpt lat="47.96192" lon="6.14671">
        <ele>255.40039</ele>
        <time>2026-05-17T10:48:12+02:00</time>
      </trkpt>
      <trkpt lat="47.96194" lon="6.14678">
        <ele>255.5</ele>
        <time>2026-05-17T10:48:13+02:00</time>
      </trkpt>
      <trkpt lat="47.96196" lon="6.14685">
        <ele>255.5</ele>
        <time>2026-05-17T10:48:14+02:00</time>
      </trkpt>
      <trkpt lat="47.96198" lon="6.14693">
        <ele>255.60059</ele>
        <time>2026-05-17T10:48:15+02:00</time>
      </trkpt>
      <trkpt lat="47.962" lon="6.147">
        <ele>255.5</ele>
        <time>2026-05-17T10:48:16+02:00</time>
      </trkpt>
      <trkpt lat="47.96201" lon="6.14708">
        <ele>255.40039</ele>
        <time>2026-05-17T10:48:17+02:00</time>
      </trkpt>
      <trkpt lat="47.96203" lon="6.14716">
        <ele>255.2998</ele>
        <time>2026-05-17T10:48:18+02:00</time>
      </trkpt>
      <trkpt lat="47.96205" lon="6.14724">
        <ele>255.2002</ele>
        <time>2026-05-17T10:48:19+02:00</time>
      </trkpt>
      <trkpt lat="47.96206" lon="6.14732">
        <ele>254.7002</ele>
        <time>2026-05-17T10:48:20+02:00</time>
      </trkpt>
      <trkpt lat="47.96208" lon="6.14741">
        <ele>254.7002</ele>
        <time>2026-05-17T10:48:21+02:00</time>
      </trkpt>
      <trkpt lat="47.96208" lon="6.14749">
        <ele>254.60059</ele>
        <time>2026-05-17T10:48:22+02:00</time>
      </trkpt>
      <trkpt lat="47.9621" lon="6.14756">
        <ele>254.60059</ele>
        <time>2026-05-17T10:48:23+02:00</time>
      </trkpt>
      <trkpt lat="47.96212" lon="6.14764">
        <ele>254.40039</ele>
        <time>2026-05-17T10:48:24+02:00</time>
      </trkpt>
      <trkpt lat="47.96213" lon="6.14772">
        <ele>254.40039</ele>
        <time>2026-05-17T10:48:25+02:00</time>
      </trkpt>
      <trkpt lat="47.96214" lon="6.14779">
        <ele>254.40039</ele>
        <time>2026-05-17T10:48:26+02:00</time>
      </trkpt>
      <trkpt lat="47.96215" lon="6.14788">
        <ele>254.2998</ele>
        <time>2026-05-17T10:48:27+02:00</time>
      </trkpt>
      <trkpt lat="47.96217" lon="6.14796">
        <ele>254.2002</ele>
        <time>2026-05-17T10:48:28+02:00</time>
      </trkpt>
      <trkpt lat="47.96219" lon="6.14803">
        <ele>254.2002</ele>
        <time>2026-05-17T10:48:29+02:00</time>
      </trkpt>
      <trkpt lat="47.9622" lon="6.14811">
        <ele>254</ele>
        <time>2026-05-17T10:48:30+02:00</time>
      </trkpt>
      <trkpt lat="47.96221" lon="6.1482">
        <ele>253.60059</ele>
        <time>2026-05-17T10:48:31+02:00</time>
      </trkpt>
      <trkpt lat="47.96222" lon="6.14828">
        <ele>253.2998</ele>
        <time>2026-05-17T10:48:32+02:00</time>
      </trkpt>
      <trkpt lat="47.96222" lon="6.14836">
        <ele>253.2002</ele>
        <time>2026-05-17T10:48:33+02:00</time>
      </trkpt>
      <trkpt lat="47.96223" lon="6.14845">
        <ele>253.5</ele>
        <time>2026-05-17T10:48:34+02:00</time>
      </trkpt>
      <trkpt lat="47.96224" lon="6.14853">
        <ele>253.5</ele>
        <time>2026-05-17T10:48:35+02:00</time>
      </trkpt>
      <trkpt lat="47.96225" lon="6.14862">
        <ele>253.60059</ele>
        <time>2026-05-17T10:48:36+02:00</time>
      </trkpt>
      <trkpt lat="47.96225" lon="6.1487">
        <ele>253.7998</ele>
        <time>2026-05-17T10:48:37+02:00</time>
      </trkpt>
      <trkpt lat="47.96227" lon="6.14879">
        <ele>254</ele>
        <time>2026-05-17T10:48:38+02:00</time>
      </trkpt>
      <trkpt lat="47.96228" lon="6.14887">
        <ele>254.2002</ele>
        <time>2026-05-17T10:48:39+02:00</time>
      </trkpt>
      <trkpt lat="47.96229" lon="6.14895">
        <ele>254.5</ele>
        <time>2026-05-17T10:48:40+02:00</time>
      </trkpt>
      <trkpt lat="47.9623" lon="6.14904">
        <ele>254.60059</ele>
        <time>2026-05-17T10:48:41+02:00</time>
      </trkpt>
      <trkpt lat="47.96231" lon="6.14912">
        <ele>254.7002</ele>
        <time>2026-05-17T10:48:42+02:00</time>
      </trkpt>
      <trkpt lat="47.96232" lon="6.14921">
        <ele>254.7998</ele>
        <time>2026-05-17T10:48:43+02:00</time>
      </trkpt>
      <trkpt lat="47.96233" lon="6.14929">
        <ele>254.7998</ele>
        <time>2026-05-17T10:48:44+02:00</time>
      </trkpt>
      <trkpt lat="47.96235" lon="6.14937">
        <ele>254.90039</ele>
        <time>2026-05-17T10:48:45+02:00</time>
      </trkpt>
      <trkpt lat="47.96238" lon="6.14944">
        <ele>254.7998</ele>
        <time>2026-05-17T10:48:46+02:00</time>
      </trkpt>
      <trkpt lat="47.96241" lon="6.14952">
        <ele>254.7998</ele>
        <time>2026-05-17T10:48:47+02:00</time>
      </trkpt>
      <trkpt lat="47.96243" lon="6.14959">
        <ele>254.7998</ele>
        <time>2026-05-17T10:48:48+02:00</time>
      </trkpt>
      <trkpt lat="47.96246" lon="6.14966">
        <ele>254.90039</ele>
        <time>2026-05-17T10:48:49+02:00</time>
      </trkpt>
      <trkpt lat="47.96248" lon="6.14973">
        <ele>254.7998</ele>
        <time>2026-05-17T10:48:50+02:00</time>
      </trkpt>
      <trkpt lat="47.9625" lon="6.1498">
        <ele>254.7002</ele>
        <time>2026-05-17T10:48:51+02:00</time>
      </trkpt>
      <trkpt lat="47.96252" lon="6.14987">
        <ele>254.7998</ele>
        <time>2026-05-17T10:48:52+02:00</time>
      </trkpt>
      <trkpt lat="47.96253" lon="6.14994">
        <ele>254.7998</ele>
        <time>2026-05-17T10:48:53+02:00</time>
      </trkpt>
      <trkpt lat="47.96255" lon="6.15002">
        <ele>254.7002</ele>
        <time>2026-05-17T10:48:54+02:00</time>
      </trkpt>
      <trkpt lat="47.96257" lon="6.1501">
        <ele>254.7002</ele>
        <time>2026-05-17T10:48:55+02:00</time>
      </trkpt>
      <trkpt lat="47.96259" lon="6.15018">
        <ele>254.90039</ele>
        <time>2026-05-17T10:48:56+02:00</time>
      </trkpt>
      <trkpt lat="47.96261" lon="6.15027">
        <ele>254.90039</ele>
        <time>2026-05-17T10:48:57+02:00</time>
      </trkpt>
      <trkpt lat="47.96262" lon="6.15035">
        <ele>254.7998</ele>
        <time>2026-05-17T10:48:58+02:00</time>
      </trkpt>
      <trkpt lat="47.96265" lon="6.15043">
        <ele>255</ele>
        <time>2026-05-17T10:48:59+02:00</time>
      </trkpt>
      <trkpt lat="47.96267" lon="6.15052">
        <ele>255</ele>
        <time>2026-05-17T10:49:00+02:00</time>
      </trkpt>
      <trkpt lat="47.96269" lon="6.1506">
        <ele>255.10059</ele>
        <time>2026-05-17T10:49:01+02:00</time>
      </trkpt>
      <trkpt lat="47.96271" lon="6.15068">
        <ele>255.2002</ele>
        <time>2026-05-17T10:49:02+02:00</time>
      </trkpt>
      <trkpt lat="47.96272" lon="6.15076">
        <ele>255.2998</ele>
        <time>2026-05-17T10:49:03+02:00</time>
      </trkpt>
      <trkpt lat="47.96274" lon="6.15084">
        <ele>255.40039</ele>
        <time>2026-05-17T10:49:04+02:00</time>
      </trkpt>
      <trkpt lat="47.96277" lon="6.15092">
        <ele>255.2998</ele>
        <time>2026-05-17T10:49:05+02:00</time>
      </trkpt>
      <trkpt lat="47.96279" lon="6.151">
        <ele>255.40039</ele>
        <time>2026-05-17T10:49:06+02:00</time>
      </trkpt>
      <trkpt lat="47.9628" lon="6.15108">
        <ele>255.7002</ele>
        <time>2026-05-17T10:49:07+02:00</time>
      </trkpt>
      <trkpt lat="47.96282" lon="6.15116">
        <ele>256.1006</ele>
        <time>2026-05-17T10:49:08+02:00</time>
      </trkpt>
      <trkpt lat="47.96284" lon="6.15124">
        <ele>256.4004</ele>
        <time>2026-05-17T10:49:09+02:00</time>
      </trkpt>
      <trkpt lat="47.96286" lon="6.15132">
        <ele>256.7002</ele>
        <time>2026-05-17T10:49:10+02:00</time>
      </trkpt>
      <trkpt lat="47.96288" lon="6.1514">
        <ele>256.5</ele>
        <time>2026-05-17T10:49:11+02:00</time>
      </trkpt>
      <trkpt lat="47.9629" lon="6.15147">
        <ele>256.5</ele>
        <time>2026-05-17T10:49:12+02:00</time>
      </trkpt>
      <trkpt lat="47.96291" lon="6.15155">
        <ele>256.2002</ele>
        <time>2026-05-17T10:49:13+02:00</time>
      </trkpt>
      <trkpt lat="47.96293" lon="6.15162">
        <ele>256.7002</ele>
        <time>2026-05-17T10:49:14+02:00</time>
      </trkpt>
      <trkpt lat="47.96295" lon="6.15169">
        <ele>256.7002</ele>
        <time>2026-05-17T10:49:15+02:00</time>
      </trkpt>
      <trkpt lat="47.96296" lon="6.15177">
        <ele>256.7002</ele>
        <time>2026-05-17T10:49:16+02:00</time>
      </trkpt>
      <trkpt lat="47.96299" lon="6.15184">
        <ele>257</ele>
        <time>2026-05-17T10:49:17+02:00</time>
      </trkpt>
      <trkpt lat="47.96301" lon="6.15192">
        <ele>257</ele>
        <time>2026-05-17T10:49:18+02:00</time>
      </trkpt>
      <trkpt lat="47.96303" lon="6.152">
        <ele>257.2002</ele>
        <time>2026-05-17T10:49:19+02:00</time>
      </trkpt>
      <trkpt lat="47.96304" lon="6.15207">
        <ele>257</ele>
        <time>2026-05-17T10:49:20+02:00</time>
      </trkpt>
      <trkpt lat="47.96305" lon="6.15215">
        <ele>256.9004</ele>
        <time>2026-05-17T10:49:21+02:00</time>
      </trkpt>
      <trkpt lat="47.96307" lon="6.15222">
        <ele>256.7998</ele>
        <time>2026-05-17T10:49:22+02:00</time>
      </trkpt>
      <trkpt lat="47.96308" lon="6.15228">
        <ele>256.7998</ele>
        <time>2026-05-17T10:49:23+02:00</time>
      </trkpt>
      <trkpt lat="47.96309" lon="6.15235">
        <ele>256.6006</ele>
        <time>2026-05-17T10:49:24+02:00</time>
      </trkpt>
      <trkpt lat="47.9631" lon="6.15242">
        <ele>256.6006</ele>
        <time>2026-05-17T10:49:25+02:00</time>
      </trkpt>
      <trkpt lat="47.96311" lon="6.15248">
        <ele>256.7002</ele>
        <time>2026-05-17T10:49:26+02:00</time>
      </trkpt>
      <trkpt lat="47.96312" lon="6.15255">
        <ele>256.9004</ele>
        <time>2026-05-17T10:49:27+02:00</time>
      </trkpt>
      <trkpt lat="47.96313" lon="6.15262">
        <ele>257.2002</ele>
        <time>2026-05-17T10:49:28+02:00</time>
      </trkpt>
      <trkpt lat="47.96314" lon="6.15269">
        <ele>257.5</ele>
        <time>2026-05-17T10:49:29+02:00</time>
      </trkpt>
      <trkpt lat="47.96316" lon="6.15276">
        <ele>257.2002</ele>
        <time>2026-05-17T10:49:30+02:00</time>
      </trkpt>
      <trkpt lat="47.96317" lon="6.15284">
        <ele>257.5</ele>
        <time>2026-05-17T10:49:31+02:00</time>
      </trkpt>
      <trkpt lat="47.96318" lon="6.15291">
        <ele>257.9004</ele>
        <time>2026-05-17T10:49:32+02:00</time>
      </trkpt>
      <trkpt lat="47.9632" lon="6.15298">
        <ele>258.2002</ele>
        <time>2026-05-17T10:49:33+02:00</time>
      </trkpt>
      <trkpt lat="47.9632" lon="6.15306">
        <ele>258.6006</ele>
        <time>2026-05-17T10:49:34+02:00</time>
      </trkpt>
      <trkpt lat="47.96321" lon="6.15314">
        <ele>258.5</ele>
        <time>2026-05-17T10:49:35+02:00</time>
      </trkpt>
      <trkpt lat="47.96322" lon="6.15322">
        <ele>258.7002</ele>
        <time>2026-05-17T10:49:36+02:00</time>
      </trkpt>
      <trkpt lat="47.96323" lon="6.15329">
        <ele>258.7998</ele>
        <time>2026-05-17T10:49:37+02:00</time>
      </trkpt>
      <trkpt lat="47.96324" lon="6.15336">
        <ele>258.7998</ele>
        <time>2026-05-17T10:49:38+02:00</time>
      </trkpt>
      <trkpt lat="47.96324" lon="6.15342">
        <ele>258.6006</ele>
        <time>2026-05-17T10:49:39+02:00</time>
      </trkpt>
      <trkpt lat="47.96325" lon="6.15349">
        <ele>258.2998</ele>
        <time>2026-05-17T10:49:40+02:00</time>
      </trkpt>
      <trkpt lat="47.96326" lon="6.15356">
        <ele>258.2002</ele>
        <time>2026-05-17T10:49:41+02:00</time>
      </trkpt>
      <trkpt lat="47.96328" lon="6.15362">
        <ele>257.2998</ele>
        <time>2026-05-17T10:49:42+02:00</time>
      </trkpt>
      <trkpt lat="47.96329" lon="6.15369">
        <ele>257.2002</ele>
        <time>2026-05-17T10:49:43+02:00</time>
      </trkpt>
      <trkpt lat="47.96331" lon="6.15376">
        <ele>257.2002</ele>
        <time>2026-05-17T10:49:44+02:00</time>
      </trkpt>
      <trkpt lat="47.96333" lon="6.15383">
        <ele>256.4004</ele>
        <time>2026-05-17T10:49:45+02:00</time>
      </trkpt>
      <trkpt lat="47.96335" lon="6.15391">
        <ele>256.4004</ele>
        <time>2026-05-17T10:49:46+02:00</time>
      </trkpt>
      <trkpt lat="47.96337" lon="6.15398">
        <ele>256.7998</ele>
        <time>2026-05-17T10:49:47+02:00</time>
      </trkpt>
      <trkpt lat="47.9634" lon="6.15405">
        <ele>255.90039</ele>
        <time>2026-05-17T10:49:48+02:00</time>
      </trkpt>
      <trkpt lat="47.96341" lon="6.15412">
        <ele>256.5</ele>
        <time>2026-05-17T10:49:49+02:00</time>
      </trkpt>
      <trkpt lat="47.96344" lon="6.1542">
        <ele>256.4004</ele>
        <time>2026-05-17T10:49:50+02:00</time>
      </trkpt>
      <trkpt lat="47.96346" lon="6.15427">
        <ele>257.1006</ele>
        <time>2026-05-17T10:49:51+02:00</time>
      </trkpt>
      <trkpt lat="47.96349" lon="6.15435">
        <ele>257.7998</ele>
        <time>2026-05-17T10:49:52+02:00</time>
      </trkpt>
      <trkpt lat="47.96352" lon="6.15442">
        <ele>257.2998</ele>
        <time>2026-05-17T10:49:53+02:00</time>
      </trkpt>
      <trkpt lat="47.96354" lon="6.15449">
        <ele>258.2002</ele>
        <time>2026-05-17T10:49:54+02:00</time>
      </trkpt>
      <trkpt lat="47.96357" lon="6.15456">
        <ele>257.2998</ele>
        <time>2026-05-17T10:49:55+02:00</time>
      </trkpt>
      <trkpt lat="47.9636" lon="6.15463">
        <ele>258.2002</ele>
        <time>2026-05-17T10:49:56+02:00</time>
      </trkpt>
      <trkpt lat="47.96363" lon="6.1547">
        <ele>258.5</ele>
        <time>2026-05-17T10:49:57+02:00</time>
      </trkpt>
      <trkpt lat="47.96366" lon="6.15476">
        <ele>259.7998</ele>
        <time>2026-05-17T10:49:58+02:00</time>
      </trkpt>
      <trkpt lat="47.9637" lon="6.15483">
        <ele>258.4004</ele>
        <time>2026-05-17T10:49:59+02:00</time>
      </trkpt>
      <trkpt lat="47.96373" lon="6.15488">
        <ele>258</ele>
        <time>2026-05-17T10:50:00+02:00</time>
      </trkpt>
      <trkpt lat="47.96377" lon="6.15493">
        <ele>259.2002</ele>
        <time>2026-05-17T10:50:01+02:00</time>
      </trkpt>
      <trkpt lat="47.96381" lon="6.15497">
        <ele>258</ele>
        <time>2026-05-17T10:50:02+02:00</time>
      </trkpt>
      <trkpt lat="47.96386" lon="6.155">
        <ele>256.9004</ele>
        <time>2026-05-17T10:50:03+02:00</time>
      </trkpt>
      <trkpt lat="47.96391" lon="6.15503">
        <ele>256.4004</ele>
        <time>2026-05-17T10:50:04+02:00</time>
      </trkpt>
      <trkpt lat="47.96396" lon="6.15506">
        <ele>255.2998</ele>
        <time>2026-05-17T10:50:05+02:00</time>
      </trkpt>
      <trkpt lat="47.96401" lon="6.15508">
        <ele>254.40039</ele>
        <time>2026-05-17T10:50:06+02:00</time>
      </trkpt>
      <trkpt lat="47.96406" lon="6.1551">
        <ele>255.40039</ele>
        <time>2026-05-17T10:50:07+02:00</time>
      </trkpt>
      <trkpt lat="47.96411" lon="6.1551">
        <ele>255.10059</ele>
        <time>2026-05-17T10:50:08+02:00</time>
      </trkpt>
      <trkpt lat="47.96416" lon="6.1551">
        <ele>254.7998</ele>
        <time>2026-05-17T10:50:09+02:00</time>
      </trkpt>
      <trkpt lat="47.96421" lon="6.15509">
        <ele>253.60059</ele>
        <time>2026-05-17T10:50:10+02:00</time>
      </trkpt>
      <trkpt lat="47.96426" lon="6.15508">
        <ele>253.2998</ele>
        <time>2026-05-17T10:50:11+02:00</time>
      </trkpt>
      <trkpt lat="47.96431" lon="6.15506">
        <ele>252.90039</ele>
        <time>2026-05-17T10:50:12+02:00</time>
      </trkpt>
      <trkpt lat="47.96436" lon="6.15503">
        <ele>252.7002</ele>
        <time>2026-05-17T10:50:13+02:00</time>
      </trkpt>
      <trkpt lat="47.96441" lon="6.15499">
        <ele>252.10059</ele>
        <time>2026-05-17T10:50:14+02:00</time>
      </trkpt>
      <trkpt lat="47.96445" lon="6.15495">
        <ele>251.90039</ele>
        <time>2026-05-17T10:50:15+02:00</time>
      </trkpt>
      <trkpt lat="47.96449" lon="6.1549">
        <ele>251.5</ele>
        <time>2026-05-17T10:50:16+02:00</time>
      </trkpt>
      <trkpt lat="47.96453" lon="6.15485">
        <ele>251.5</ele>
        <time>2026-05-17T10:50:17+02:00</time>
      </trkpt>
      <trkpt lat="47.96457" lon="6.15479">
        <ele>251.40039</ele>
        <time>2026-05-17T10:50:18+02:00</time>
      </trkpt>
      <trkpt lat="47.9646" lon="6.15474">
        <ele>251.5</ele>
        <time>2026-05-17T10:50:19+02:00</time>
      </trkpt>
      <trkpt lat="47.96463" lon="6.15468">
        <ele>251.5</ele>
        <time>2026-05-17T10:50:20+02:00</time>
      </trkpt>
      <trkpt lat="47.96466" lon="6.1546">
        <ele>251.5</ele>
        <time>2026-05-17T10:50:21+02:00</time>
      </trkpt>
      <trkpt lat="47.96468" lon="6.15453">
        <ele>251.5</ele>
        <time>2026-05-17T10:50:22+02:00</time>
      </trkpt>
      <trkpt lat="47.9647" lon="6.15445">
        <ele>251.40039</ele>
        <time>2026-05-17T10:50:23+02:00</time>
      </trkpt>
      <trkpt lat="47.96472" lon="6.15437">
        <ele>251.5</ele>
        <time>2026-05-17T10:50:24+02:00</time>
      </trkpt>
      <trkpt lat="47.96473" lon="6.15429">
        <ele>251.5</ele>
        <time>2026-05-17T10:50:25+02:00</time>
      </trkpt>
      <trkpt lat="47.96473" lon="6.1542">
        <ele>251.5</ele>
        <time>2026-05-17T10:50:26+02:00</time>
      </trkpt>
      <trkpt lat="47.96474" lon="6.15412">
        <ele>251.40039</ele>
        <time>2026-05-17T10:50:27+02:00</time>
      </trkpt>
      <trkpt lat="47.96475" lon="6.15403">
        <ele>251.40039</ele>
        <time>2026-05-17T10:50:28+02:00</time>
      </trkpt>
      <trkpt lat="47.96476" lon="6.15395">
        <ele>251.40039</ele>
        <time>2026-05-17T10:50:29+02:00</time>
      </trkpt>
      <trkpt lat="47.96477" lon="6.15386">
        <ele>251.40039</ele>
        <time>2026-05-17T10:50:30+02:00</time>
      </trkpt>
      <trkpt lat="47.96478" lon="6.15378">
        <ele>251.60059</ele>
        <time>2026-05-17T10:50:31+02:00</time>
      </trkpt>
      <trkpt lat="47.96478" lon="6.1537">
        <ele>252</ele>
        <time>2026-05-17T10:50:32+02:00</time>
      </trkpt>
      <trkpt lat="47.96479" lon="6.15362">
        <ele>252.5</ele>
        <time>2026-05-17T10:50:33+02:00</time>
      </trkpt>
      <trkpt lat="47.9648" lon="6.15353">
        <ele>252.90039</ele>
        <time>2026-05-17T10:50:34+02:00</time>
      </trkpt>
      <trkpt lat="47.96481" lon="6.15345">
        <ele>253.2002</ele>
        <time>2026-05-17T10:50:35+02:00</time>
      </trkpt>
      <trkpt lat="47.96482" lon="6.15337">
        <ele>253</ele>
        <time>2026-05-17T10:50:36+02:00</time>
      </trkpt>
      <trkpt lat="47.96483" lon="6.15328">
        <ele>253.2002</ele>
        <time>2026-05-17T10:50:37+02:00</time>
      </trkpt>
      <trkpt lat="47.96484" lon="6.1532">
        <ele>253.2998</ele>
        <time>2026-05-17T10:50:38+02:00</time>
      </trkpt>
      <trkpt lat="47.96485" lon="6.15311">
        <ele>253.40039</ele>
        <time>2026-05-17T10:50:39+02:00</time>
      </trkpt>
      <trkpt lat="47.96485" lon="6.15303">
        <ele>253.5</ele>
        <time>2026-05-17T10:50:40+02:00</time>
      </trkpt>
      <trkpt lat="47.96486" lon="6.15295">
        <ele>253.5</ele>
        <time>2026-05-17T10:50:41+02:00</time>
      </trkpt>
      <trkpt lat="47.96486" lon="6.15286">
        <ele>253.60059</ele>
        <time>2026-05-17T10:50:42+02:00</time>
      </trkpt>
      <trkpt lat="47.96487" lon="6.15278">
        <ele>252.7002</ele>
        <time>2026-05-17T10:50:43+02:00</time>
      </trkpt>
      <trkpt lat="47.96488" lon="6.1527">
        <ele>252.7998</ele>
        <time>2026-05-17T10:50:44+02:00</time>
      </trkpt>
      <trkpt lat="47.96489" lon="6.15262">
        <ele>252.7998</ele>
        <time>2026-05-17T10:50:45+02:00</time>
      </trkpt>
      <trkpt lat="47.96489" lon="6.15254">
        <ele>252.7998</ele>
        <time>2026-05-17T10:50:46+02:00</time>
      </trkpt>
      <trkpt lat="47.9649" lon="6.15246">
        <ele>252.90039</ele>
        <time>2026-05-17T10:50:47+02:00</time>
      </trkpt>
      <trkpt lat="47.96491" lon="6.15238">
        <ele>252.90039</ele>
        <time>2026-05-17T10:50:48+02:00</time>
      </trkpt>
      <trkpt lat="47.96492" lon="6.1523">
        <ele>253</ele>
        <time>2026-05-17T10:50:49+02:00</time>
      </trkpt>
      <trkpt lat="47.96493" lon="6.15222">
        <ele>251.7998</ele>
        <time>2026-05-17T10:50:50+02:00</time>
      </trkpt>
      <trkpt lat="47.96493" lon="6.15214">
        <ele>252.10059</ele>
        <time>2026-05-17T10:50:51+02:00</time>
      </trkpt>
      <trkpt lat="47.96494" lon="6.15206">
        <ele>252.5</ele>
        <time>2026-05-17T10:50:52+02:00</time>
      </trkpt>
      <trkpt lat="47.96494" lon="6.15198">
        <ele>253.5</ele>
        <time>2026-05-17T10:50:53+02:00</time>
      </trkpt>
      <trkpt lat="47.96496" lon="6.15189">
        <ele>254.60059</ele>
        <time>2026-05-17T10:50:54+02:00</time>
      </trkpt>
      <trkpt lat="47.96496" lon="6.15181">
        <ele>255.40039</ele>
        <time>2026-05-17T10:50:55+02:00</time>
      </trkpt>
      <trkpt lat="47.96497" lon="6.15173">
        <ele>255.7998</ele>
        <time>2026-05-17T10:50:56+02:00</time>
      </trkpt>
      <trkpt lat="47.96498" lon="6.15166">
        <ele>255.7998</ele>
        <time>2026-05-17T10:50:57+02:00</time>
      </trkpt>
      <trkpt lat="47.96498" lon="6.15158">
        <ele>256.2002</ele>
        <time>2026-05-17T10:50:58+02:00</time>
      </trkpt>
      <trkpt lat="47.96499" lon="6.15149">
        <ele>255</ele>
        <time>2026-05-17T10:50:59+02:00</time>
      </trkpt>
      <trkpt lat="47.965" lon="6.15141">
        <ele>255.2002</ele>
        <time>2026-05-17T10:51:00+02:00</time>
      </trkpt>
      <trkpt lat="47.96501" lon="6.15133">
        <ele>255.2002</ele>
        <time>2026-05-17T10:51:01+02:00</time>
      </trkpt>
      <trkpt lat="47.96502" lon="6.15125">
        <ele>255.2998</ele>
        <time>2026-05-17T10:51:02+02:00</time>
      </trkpt>
      <trkpt lat="47.96504" lon="6.15117">
        <ele>255.2998</ele>
        <time>2026-05-17T10:51:03+02:00</time>
      </trkpt>
      <trkpt lat="47.96505" lon="6.15109">
        <ele>253.7002</ele>
        <time>2026-05-17T10:51:04+02:00</time>
      </trkpt>
      <trkpt lat="47.96506" lon="6.15101">
        <ele>253.7002</ele>
        <time>2026-05-17T10:51:05+02:00</time>
      </trkpt>
      <trkpt lat="47.96508" lon="6.15094">
        <ele>253.60059</ele>
        <time>2026-05-17T10:51:06+02:00</time>
      </trkpt>
      <trkpt lat="47.96509" lon="6.15086">
        <ele>253.60059</ele>
        <time>2026-05-17T10:51:07+02:00</time>
      </trkpt>
      <trkpt lat="47.9651" lon="6.15078">
        <ele>253.60059</ele>
        <time>2026-05-17T10:51:08+02:00</time>
      </trkpt>
      <trkpt lat="47.96512" lon="6.1507">
        <ele>251.90039</ele>
        <time>2026-05-17T10:51:09+02:00</time>
      </trkpt>
      <trkpt lat="47.96513" lon="6.15062">
        <ele>251.7002</ele>
        <time>2026-05-17T10:51:10+02:00</time>
      </trkpt>
      <trkpt lat="47.96514" lon="6.15054">
        <ele>251.7998</ele>
        <time>2026-05-17T10:51:11+02:00</time>
      </trkpt>
      <trkpt lat="47.96517" lon="6.15046">
        <ele>250.60059</ele>
        <time>2026-05-17T10:51:12+02:00</time>
      </trkpt>
      <trkpt lat="47.96518" lon="6.15038">
        <ele>251.2002</ele>
        <time>2026-05-17T10:51:13+02:00</time>
      </trkpt>
      <trkpt lat="47.9652" lon="6.1503">
        <ele>252.7002</ele>
        <time>2026-05-17T10:51:14+02:00</time>
      </trkpt>
      <trkpt lat="47.96522" lon="6.15023">
        <ele>253.10059</ele>
        <time>2026-05-17T10:51:15+02:00</time>
      </trkpt>
      <trkpt lat="47.96523" lon="6.15016">
        <ele>254.10059</ele>
        <time>2026-05-17T10:51:16+02:00</time>
      </trkpt>
      <trkpt lat="47.96526" lon="6.15008">
        <ele>254.7002</ele>
        <time>2026-05-17T10:51:17+02:00</time>
      </trkpt>
      <trkpt lat="47.96528" lon="6.15">
        <ele>252.60059</ele>
        <time>2026-05-17T10:51:18+02:00</time>
      </trkpt>
      <trkpt lat="47.96531" lon="6.14993">
        <ele>252.60059</ele>
        <time>2026-05-17T10:51:19+02:00</time>
      </trkpt>
      <trkpt lat="47.96534" lon="6.14986">
        <ele>250.7998</ele>
        <time>2026-05-17T10:51:20+02:00</time>
      </trkpt>
      <trkpt lat="47.96537" lon="6.14979">
        <ele>251</ele>
        <time>2026-05-17T10:51:21+02:00</time>
      </trkpt>
      <trkpt lat="47.96541" lon="6.14972">
        <ele>251.10059</ele>
        <time>2026-05-17T10:51:22+02:00</time>
      </trkpt>
      <trkpt lat="47.96545" lon="6.14967">
        <ele>251.40039</ele>
        <time>2026-05-17T10:51:23+02:00</time>
      </trkpt>
      <trkpt lat="47.9655" lon="6.14962">
        <ele>251.40039</ele>
        <time>2026-05-17T10:51:24+02:00</time>
      </trkpt>
      <trkpt lat="47.96554" lon="6.14957">
        <ele>251.2998</ele>
        <time>2026-05-17T10:51:25+02:00</time>
      </trkpt>
      <trkpt lat="47.96559" lon="6.14953">
        <ele>250.7998</ele>
        <time>2026-05-17T10:51:26+02:00</time>
      </trkpt>
      <trkpt lat="47.96564" lon="6.14949">
        <ele>250.10059</ele>
        <time>2026-05-17T10:51:27+02:00</time>
      </trkpt>
      <trkpt lat="47.96569" lon="6.14946">
        <ele>250.60059</ele>
        <time>2026-05-17T10:51:28+02:00</time>
      </trkpt>
      <trkpt lat="47.96574" lon="6.14944">
        <ele>251.40039</ele>
        <time>2026-05-17T10:51:29+02:00</time>
      </trkpt>
      <trkpt lat="47.96579" lon="6.14942">
        <ele>251.2998</ele>
        <time>2026-05-17T10:51:30+02:00</time>
      </trkpt>
      <trkpt lat="47.96584" lon="6.1494">
        <ele>251.5</ele>
        <time>2026-05-17T10:51:31+02:00</time>
      </trkpt>
      <trkpt lat="47.96589" lon="6.14938">
        <ele>251.90039</ele>
        <time>2026-05-17T10:51:32+02:00</time>
      </trkpt>
      <trkpt lat="47.96595" lon="6.14936">
        <ele>252.40039</ele>
        <time>2026-05-17T10:51:33+02:00</time>
      </trkpt>
      <trkpt lat="47.966" lon="6.14935">
        <ele>252.7002</ele>
        <time>2026-05-17T10:51:34+02:00</time>
      </trkpt>
      <trkpt lat="47.96605" lon="6.14932">
        <ele>252.40039</ele>
        <time>2026-05-17T10:51:35+02:00</time>
      </trkpt>
      <trkpt lat="47.9661" lon="6.14931">
        <ele>252.5</ele>
        <time>2026-05-17T10:51:36+02:00</time>
      </trkpt>
      <trkpt lat="47.96616" lon="6.1493">
        <ele>252.60059</ele>
        <time>2026-05-17T10:51:37+02:00</time>
      </trkpt>
      <trkpt lat="47.96621" lon="6.14929">
        <ele>252.7002</ele>
        <time>2026-05-17T10:51:38+02:00</time>
      </trkpt>
      <trkpt lat="47.96626" lon="6.14928">
        <ele>252.7002</ele>
        <time>2026-05-17T10:51:39+02:00</time>
      </trkpt>
      <trkpt lat="47.96632" lon="6.14927">
        <ele>252.7002</ele>
        <time>2026-05-17T10:51:40+02:00</time>
      </trkpt>
      <trkpt lat="47.96637" lon="6.14926">
        <ele>252.60059</ele>
        <time>2026-05-17T10:51:41+02:00</time>
      </trkpt>
      <trkpt lat="47.96642" lon="6.14926">
        <ele>252.60059</ele>
        <time>2026-05-17T10:51:42+02:00</time>
      </trkpt>
      <trkpt lat="47.96647" lon="6.14925">
        <ele>252</ele>
        <time>2026-05-17T10:51:43+02:00</time>
      </trkpt>
      <trkpt lat="47.96653" lon="6.14925">
        <ele>252</ele>
        <time>2026-05-17T10:51:44+02:00</time>
      </trkpt>
      <trkpt lat="47.96658" lon="6.14925">
        <ele>252</ele>
        <time>2026-05-17T10:51:45+02:00</time>
      </trkpt>
      <trkpt lat="47.96663" lon="6.14925">
        <ele>252</ele>
        <time>2026-05-17T10:51:46+02:00</time>
      </trkpt>
      <trkpt lat="47.96668" lon="6.14925">
        <ele>252</ele>
        <time>2026-05-17T10:51:47+02:00</time>
      </trkpt>
      <trkpt lat="47.96673" lon="6.14924">
        <ele>252</ele>
        <time>2026-05-17T10:51:48+02:00</time>
      </trkpt>
      <trkpt lat="47.96679" lon="6.14924">
        <ele>252</ele>
        <time>2026-05-17T10:51:49+02:00</time>
      </trkpt>
      <trkpt lat="47.96684" lon="6.14924">
        <ele>252</ele>
        <time>2026-05-17T10:51:50+02:00</time>
      </trkpt>
      <trkpt lat="47.9669" lon="6.14924">
        <ele>252</ele>
        <time>2026-05-17T10:51:51+02:00</time>
      </trkpt>
      <trkpt lat="47.96695" lon="6.14924">
        <ele>251.90039</ele>
        <time>2026-05-17T10:51:52+02:00</time>
      </trkpt>
      <trkpt lat="47.967" lon="6.14924">
        <ele>251.7998</ele>
        <time>2026-05-17T10:51:53+02:00</time>
      </trkpt>
      <trkpt lat="47.96706" lon="6.14924">
        <ele>251.60059</ele>
        <time>2026-05-17T10:51:54+02:00</time>
      </trkpt>
      <trkpt lat="47.96711" lon="6.14924">
        <ele>251.60059</ele>
        <time>2026-05-17T10:51:55+02:00</time>
      </trkpt>
      <trkpt lat="47.96716" lon="6.14924">
        <ele>251.2998</ele>
        <time>2026-05-17T10:51:56+02:00</time>
      </trkpt>
      <trkpt lat="47.96721" lon="6.14924">
        <ele>251.10059</ele>
        <time>2026-05-17T10:51:57+02:00</time>
      </trkpt>
      <trkpt lat="47.96726" lon="6.14924">
        <ele>250.7998</ele>
        <time>2026-05-17T10:51:58+02:00</time>
      </trkpt>
      <trkpt lat="47.96732" lon="6.14924">
        <ele>250.60059</ele>
        <time>2026-05-17T10:51:59+02:00</time>
      </trkpt>
      <trkpt lat="47.96737" lon="6.14924">
        <ele>250.2998</ele>
        <time>2026-05-17T10:52:00+02:00</time>
      </trkpt>
      <trkpt lat="47.96743" lon="6.14924">
        <ele>250.2002</ele>
        <time>2026-05-17T10:52:01+02:00</time>
      </trkpt>
      <trkpt lat="47.96748" lon="6.14924">
        <ele>250</ele>
        <time>2026-05-17T10:52:02+02:00</time>
      </trkpt>
      <trkpt lat="47.96754" lon="6.14925">
        <ele>249.90039</ele>
        <time>2026-05-17T10:52:03+02:00</time>
      </trkpt>
      <trkpt lat="47.9676" lon="6.14925">
        <ele>249.90039</ele>
        <time>2026-05-17T10:52:04+02:00</time>
      </trkpt>
      <trkpt lat="47.96765" lon="6.14925">
        <ele>249.90039</ele>
        <time>2026-05-17T10:52:05+02:00</time>
      </trkpt>
      <trkpt lat="47.96771" lon="6.14925">
        <ele>249.90039</ele>
        <time>2026-05-17T10:52:06+02:00</time>
      </trkpt>
      <trkpt lat="47.96776" lon="6.14925">
        <ele>250</ele>
        <time>2026-05-17T10:52:07+02:00</time>
      </trkpt>
      <trkpt lat="47.96782" lon="6.14925">
        <ele>250.2002</ele>
        <time>2026-05-17T10:52:08+02:00</time>
      </trkpt>
      <trkpt lat="47.96788" lon="6.14925">
        <ele>250.40039</ele>
        <time>2026-05-17T10:52:09+02:00</time>
      </trkpt>
      <trkpt lat="47.96794" lon="6.14925">
        <ele>250.60059</ele>
        <time>2026-05-17T10:52:10+02:00</time>
      </trkpt>
      <trkpt lat="47.968" lon="6.14925">
        <ele>250.7998</ele>
        <time>2026-05-17T10:52:11+02:00</time>
      </trkpt>
      <trkpt lat="47.96806" lon="6.14925">
        <ele>251.10059</ele>
        <time>2026-05-17T10:52:12+02:00</time>
      </trkpt>
      <trkpt lat="47.96811" lon="6.14925">
        <ele>251.40039</ele>
        <time>2026-05-17T10:52:13+02:00</time>
      </trkpt>
      <trkpt lat="47.96817" lon="6.14925">
        <ele>251.7002</ele>
        <time>2026-05-17T10:52:14+02:00</time>
      </trkpt>
      <trkpt lat="47.96822" lon="6.14925">
        <ele>252</ele>
        <time>2026-05-17T10:52:15+02:00</time>
      </trkpt>
      <trkpt lat="47.96828" lon="6.14925">
        <ele>252.2998</ele>
        <time>2026-05-17T10:52:16+02:00</time>
      </trkpt>
      <trkpt lat="47.96834" lon="6.14925">
        <ele>252.5</ele>
        <time>2026-05-17T10:52:17+02:00</time>
      </trkpt>
      <trkpt lat="47.9684" lon="6.14925">
        <ele>252.7002</ele>
        <time>2026-05-17T10:52:18+02:00</time>
      </trkpt>
      <trkpt lat="47.96845" lon="6.14925">
        <ele>252.90039</ele>
        <time>2026-05-17T10:52:19+02:00</time>
      </trkpt>
      <trkpt lat="47.96851" lon="6.14925">
        <ele>253.10059</ele>
        <time>2026-05-17T10:52:20+02:00</time>
      </trkpt>
      <trkpt lat="47.96858" lon="6.14926">
        <ele>253.7002</ele>
        <time>2026-05-17T10:52:21+02:00</time>
      </trkpt>
      <trkpt lat="47.96864" lon="6.14926">
        <ele>253.7998</ele>
        <time>2026-05-17T10:52:22+02:00</time>
      </trkpt>
      <trkpt lat="47.9687" lon="6.14927">
        <ele>253.7998</ele>
        <time>2026-05-17T10:52:23+02:00</time>
      </trkpt>
      <trkpt lat="47.96876" lon="6.14927">
        <ele>253.90039</ele>
        <time>2026-05-17T10:52:24+02:00</time>
      </trkpt>
      <trkpt lat="47.96883" lon="6.14928">
        <ele>253.90039</ele>
        <time>2026-05-17T10:52:25+02:00</time>
      </trkpt>
      <trkpt lat="47.96889" lon="6.14929">
        <ele>253.90039</ele>
        <time>2026-05-17T10:52:26+02:00</time>
      </trkpt>
      <trkpt lat="47.96895" lon="6.1493">
        <ele>253.7998</ele>
        <time>2026-05-17T10:52:27+02:00</time>
      </trkpt>
      <trkpt lat="47.96901" lon="6.14931">
        <ele>253.7998</ele>
        <time>2026-05-17T10:52:28+02:00</time>
      </trkpt>
      <trkpt lat="47.96907" lon="6.14932">
        <ele>253.7002</ele>
        <time>2026-05-17T10:52:29+02:00</time>
      </trkpt>
      <trkpt lat="47.96913" lon="6.14933">
        <ele>253.7002</ele>
        <time>2026-05-17T10:52:30+02:00</time>
      </trkpt>
      <trkpt lat="47.96919" lon="6.14935">
        <ele>253.90039</ele>
        <time>2026-05-17T10:52:31+02:00</time>
      </trkpt>
      <trkpt lat="47.96925" lon="6.14936">
        <ele>254</ele>
        <time>2026-05-17T10:52:32+02:00</time>
      </trkpt>
      <trkpt lat="47.9693" lon="6.14938">
        <ele>254.2998</ele>
        <time>2026-05-17T10:52:33+02:00</time>
      </trkpt>
      <trkpt lat="47.96936" lon="6.14941">
        <ele>254.5</ele>
        <time>2026-05-17T10:52:34+02:00</time>
      </trkpt>
      <trkpt lat="47.96942" lon="6.14943">
        <ele>254.60059</ele>
        <time>2026-05-17T10:52:35+02:00</time>
      </trkpt>
      <trkpt lat="47.96947" lon="6.14946">
        <ele>254.7002</ele>
        <time>2026-05-17T10:52:36+02:00</time>
      </trkpt>
      <trkpt lat="47.96952" lon="6.14948">
        <ele>254.7002</ele>
        <time>2026-05-17T10:52:37+02:00</time>
      </trkpt>
      <trkpt lat="47.96957" lon="6.1495">
        <ele>254.90039</ele>
        <time>2026-05-17T10:52:38+02:00</time>
      </trkpt>
      <trkpt lat="47.96962" lon="6.14952">
        <ele>255.5</ele>
        <time>2026-05-17T10:52:39+02:00</time>
      </trkpt>
      <trkpt lat="47.96966" lon="6.14955">
        <ele>256.1006</ele>
        <time>2026-05-17T10:52:40+02:00</time>
      </trkpt>
      <trkpt lat="47.96971" lon="6.14957">
        <ele>256.9004</ele>
        <time>2026-05-17T10:52:41+02:00</time>
      </trkpt>
      <trkpt lat="47.96975" lon="6.14959">
        <ele>256.9004</ele>
        <time>2026-05-17T10:52:42+02:00</time>
      </trkpt>
      <trkpt lat="47.9698" lon="6.14963">
        <ele>258.9004</ele>
        <time>2026-05-17T10:52:43+02:00</time>
      </trkpt>
      <trkpt lat="47.96984" lon="6.14966">
        <ele>260</ele>
        <time>2026-05-17T10:52:44+02:00</time>
      </trkpt>
      <trkpt lat="47.96988" lon="6.14969">
        <ele>260.9004</ele>
        <time>2026-05-17T10:52:45+02:00</time>
      </trkpt>
      <trkpt lat="47.96993" lon="6.14972">
        <ele>260.9004</ele>
        <time>2026-05-17T10:52:46+02:00</time>
      </trkpt>
      <trkpt lat="47.96996" lon="6.14975">
        <ele>260.9004</ele>
        <time>2026-05-17T10:52:47+02:00</time>
      </trkpt>
      <trkpt lat="47.97" lon="6.14978">
        <ele>261</ele>
        <time>2026-05-17T10:52:48+02:00</time>
      </trkpt>
      <trkpt lat="47.97004" lon="6.14982">
        <ele>261</ele>
        <time>2026-05-17T10:52:49+02:00</time>
      </trkpt>
      <trkpt lat="47.97009" lon="6.14987">
        <ele>261.4004</ele>
        <time>2026-05-17T10:52:50+02:00</time>
      </trkpt>
      <trkpt lat="47.97013" lon="6.14991">
        <ele>261.7998</ele>
        <time>2026-05-17T10:52:51+02:00</time>
      </trkpt>
      <trkpt lat="47.97017" lon="6.14995">
        <ele>262.1006</ele>
        <time>2026-05-17T10:52:52+02:00</time>
      </trkpt>
      <trkpt lat="47.97022" lon="6.15">
        <ele>261.7998</ele>
        <time>2026-05-17T10:52:53+02:00</time>
      </trkpt>
      <trkpt lat="47.97026" lon="6.15005">
        <ele>261.4004</ele>
        <time>2026-05-17T10:52:54+02:00</time>
      </trkpt>
      <trkpt lat="47.9703" lon="6.15011">
        <ele>260.9004</ele>
        <time>2026-05-17T10:52:55+02:00</time>
      </trkpt>
      <trkpt lat="47.97035" lon="6.15016">
        <ele>260.4004</ele>
        <time>2026-05-17T10:52:56+02:00</time>
      </trkpt>
      <trkpt lat="47.97039" lon="6.15021">
        <ele>260.4004</ele>
        <time>2026-05-17T10:52:57+02:00</time>
      </trkpt>
      <trkpt lat="47.97043" lon="6.15027">
        <ele>260.4004</ele>
        <time>2026-05-17T10:52:58+02:00</time>
      </trkpt>
      <trkpt lat="47.97048" lon="6.15032">
        <ele>260.2002</ele>
        <time>2026-05-17T10:52:59+02:00</time>
      </trkpt>
      <trkpt lat="47.97051" lon="6.15038">
        <ele>259.7998</ele>
        <time>2026-05-17T10:53:00+02:00</time>
      </trkpt>
      <trkpt lat="47.97055" lon="6.15044">
        <ele>259.7998</ele>
        <time>2026-05-17T10:53:01+02:00</time>
      </trkpt>
      <trkpt lat="47.97059" lon="6.15051">
        <ele>259.6006</ele>
        <time>2026-05-17T10:53:02+02:00</time>
      </trkpt>
      <trkpt lat="47.97062" lon="6.15058">
        <ele>259.6006</ele>
        <time>2026-05-17T10:53:03+02:00</time>
      </trkpt>
      <trkpt lat="47.97065" lon="6.15064">
        <ele>259.1006</ele>
        <time>2026-05-17T10:53:04+02:00</time>
      </trkpt>
      <trkpt lat="47.97069" lon="6.15071">
        <ele>259</ele>
        <time>2026-05-17T10:53:05+02:00</time>
      </trkpt>
      <trkpt lat="47.97073" lon="6.15079">
        <ele>258.9004</ele>
        <time>2026-05-17T10:53:06+02:00</time>
      </trkpt>
      <trkpt lat="47.97076" lon="6.15086">
        <ele>259.1006</ele>
        <time>2026-05-17T10:53:07+02:00</time>
      </trkpt>
      <trkpt lat="47.97079" lon="6.15094">
        <ele>259.7998</ele>
        <time>2026-05-17T10:53:08+02:00</time>
      </trkpt>
      <trkpt lat="47.97082" lon="6.15101">
        <ele>259.6006</ele>
        <time>2026-05-17T10:53:09+02:00</time>
      </trkpt>
      <trkpt lat="47.97086" lon="6.15108">
        <ele>259.9004</ele>
        <time>2026-05-17T10:53:10+02:00</time>
      </trkpt>
      <trkpt lat="47.97089" lon="6.15115">
        <ele>258.9004</ele>
        <time>2026-05-17T10:53:11+02:00</time>
      </trkpt>
      <trkpt lat="47.97093" lon="6.15122">
        <ele>259.7998</ele>
        <time>2026-05-17T10:53:12+02:00</time>
      </trkpt>
      <trkpt lat="47.97096" lon="6.15129">
        <ele>258.7998</ele>
        <time>2026-05-17T10:53:13+02:00</time>
      </trkpt>
      <trkpt lat="47.97099" lon="6.15136">
        <ele>259</ele>
        <time>2026-05-17T10:53:14+02:00</time>
      </trkpt>
      <trkpt lat="47.97102" lon="6.15142">
        <ele>259.2002</ele>
        <time>2026-05-17T10:53:15+02:00</time>
      </trkpt>
      <trkpt lat="47.97106" lon="6.15148">
        <ele>259.2002</ele>
        <time>2026-05-17T10:53:16+02:00</time>
      </trkpt>
      <trkpt lat="47.97108" lon="6.15154">
        <ele>258.9004</ele>
        <time>2026-05-17T10:53:17+02:00</time>
      </trkpt>
      <trkpt lat="47.97111" lon="6.15161">
        <ele>258.6006</ele>
        <time>2026-05-17T10:53:18+02:00</time>
      </trkpt>
      <trkpt lat="47.97114" lon="6.15167">
        <ele>258.2002</ele>
        <time>2026-05-17T10:53:19+02:00</time>
      </trkpt>
      <trkpt lat="47.97117" lon="6.15175">
        <ele>258</ele>
        <time>2026-05-17T10:53:20+02:00</time>
      </trkpt>
      <trkpt lat="47.9712" lon="6.15182">
        <ele>258.1006</ele>
        <time>2026-05-17T10:53:21+02:00</time>
      </trkpt>
      <trkpt lat="47.97123" lon="6.15189">
        <ele>258</ele>
        <time>2026-05-17T10:53:22+02:00</time>
      </trkpt>
      <trkpt lat="47.97125" lon="6.15197">
        <ele>257.9004</ele>
        <time>2026-05-17T10:53:23+02:00</time>
      </trkpt>
      <trkpt lat="47.97128" lon="6.15204">
        <ele>258</ele>
        <time>2026-05-17T10:53:24+02:00</time>
      </trkpt>
      <trkpt lat="47.97131" lon="6.15211">
        <ele>257.9004</ele>
        <time>2026-05-17T10:53:25+02:00</time>
      </trkpt>
      <trkpt lat="47.97134" lon="6.15219">
        <ele>257.6006</ele>
        <time>2026-05-17T10:53:26+02:00</time>
      </trkpt>
      <trkpt lat="47.97137" lon="6.15226">
        <ele>257.1006</ele>
        <time>2026-05-17T10:53:27+02:00</time>
      </trkpt>
      <trkpt lat="47.97139" lon="6.15234">
        <ele>257.1006</ele>
        <time>2026-05-17T10:53:28+02:00</time>
      </trkpt>
      <trkpt lat="47.97143" lon="6.15241">
        <ele>256.5</ele>
        <time>2026-05-17T10:53:29+02:00</time>
      </trkpt>
      <trkpt lat="47.97145" lon="6.15249">
        <ele>256.2998</ele>
        <time>2026-05-17T10:53:30+02:00</time>
      </trkpt>
      <trkpt lat="47.97148" lon="6.15257">
        <ele>255.90039</ele>
        <time>2026-05-17T10:53:31+02:00</time>
      </trkpt>
      <trkpt lat="47.97151" lon="6.15265">
        <ele>255.7998</ele>
        <time>2026-05-17T10:53:32+02:00</time>
      </trkpt>
      <trkpt lat="47.97154" lon="6.15272">
        <ele>255.7998</ele>
        <time>2026-05-17T10:53:33+02:00</time>
      </trkpt>
      <trkpt lat="47.97157" lon="6.1528">
        <ele>255.90039</ele>
        <time>2026-05-17T10:53:34+02:00</time>
      </trkpt>
      <trkpt lat="47.9716" lon="6.15288">
        <ele>255.7998</ele>
        <time>2026-05-17T10:53:35+02:00</time>
      </trkpt>
      <trkpt lat="47.97163" lon="6.15296">
        <ele>255.7002</ele>
        <time>2026-05-17T10:53:36+02:00</time>
      </trkpt>
      <trkpt lat="47.97166" lon="6.15304">
        <ele>255.2002</ele>
        <time>2026-05-17T10:53:37+02:00</time>
      </trkpt>
      <trkpt lat="47.97168" lon="6.15312">
        <ele>255.10059</ele>
        <time>2026-05-17T10:53:38+02:00</time>
      </trkpt>
      <trkpt lat="47.97171" lon="6.1532">
        <ele>254.60059</ele>
        <time>2026-05-17T10:53:39+02:00</time>
      </trkpt>
      <trkpt lat="47.97174" lon="6.15328">
        <ele>254.60059</ele>
        <time>2026-05-17T10:53:40+02:00</time>
      </trkpt>
      <trkpt lat="47.97176" lon="6.15337">
        <ele>254.5</ele>
        <time>2026-05-17T10:53:41+02:00</time>
      </trkpt>
      <trkpt lat="47.97179" lon="6.15345">
        <ele>254.2002</ele>
        <time>2026-05-17T10:53:42+02:00</time>
      </trkpt>
      <trkpt lat="47.97181" lon="6.15353">
        <ele>254.2998</ele>
        <time>2026-05-17T10:53:43+02:00</time>
      </trkpt>
      <trkpt lat="47.97184" lon="6.15361">
        <ele>254.10059</ele>
        <time>2026-05-17T10:53:44+02:00</time>
      </trkpt>
      <trkpt lat="47.97186" lon="6.15369">
        <ele>254.40039</ele>
        <time>2026-05-17T10:53:45+02:00</time>
      </trkpt>
      <trkpt lat="47.97189" lon="6.15377">
        <ele>254.2998</ele>
        <time>2026-05-17T10:53:46+02:00</time>
      </trkpt>
      <trkpt lat="47.97191" lon="6.15385">
        <ele>254.40039</ele>
        <time>2026-05-17T10:53:47+02:00</time>
      </trkpt>
      <trkpt lat="47.97193" lon="6.15393">
        <ele>254.40039</ele>
        <time>2026-05-17T10:53:48+02:00</time>
      </trkpt>
      <trkpt lat="47.97196" lon="6.154">
        <ele>254.10059</ele>
        <time>2026-05-17T10:53:49+02:00</time>
      </trkpt>
      <trkpt lat="47.97198" lon="6.15408">
        <ele>254.2002</ele>
        <time>2026-05-17T10:53:50+02:00</time>
      </trkpt>
      <trkpt lat="47.972" lon="6.15416">
        <ele>253.90039</ele>
        <time>2026-05-17T10:53:51+02:00</time>
      </trkpt>
      <trkpt lat="47.97202" lon="6.15424">
        <ele>254.10059</ele>
        <time>2026-05-17T10:53:52+02:00</time>
      </trkpt>
      <trkpt lat="47.97204" lon="6.15433">
        <ele>254.2002</ele>
        <time>2026-05-17T10:53:53+02:00</time>
      </trkpt>
      <trkpt lat="47.97206" lon="6.15441">
        <ele>254</ele>
        <time>2026-05-17T10:53:54+02:00</time>
      </trkpt>
      <trkpt lat="47.97208" lon="6.15449">
        <ele>254.2002</ele>
        <time>2026-05-17T10:53:55+02:00</time>
      </trkpt>
      <trkpt lat="47.9721" lon="6.15457">
        <ele>254.2002</ele>
        <time>2026-05-17T10:53:56+02:00</time>
      </trkpt>
      <trkpt lat="47.97212" lon="6.15465">
        <ele>254.2002</ele>
        <time>2026-05-17T10:53:57+02:00</time>
      </trkpt>
      <trkpt lat="47.97214" lon="6.15473">
        <ele>254.5</ele>
        <time>2026-05-17T10:53:58+02:00</time>
      </trkpt>
      <trkpt lat="47.97216" lon="6.15481">
        <ele>254.7998</ele>
        <time>2026-05-17T10:53:59+02:00</time>
      </trkpt>
      <trkpt lat="47.97218" lon="6.15489">
        <ele>254.60059</ele>
        <time>2026-05-17T10:54:00+02:00</time>
      </trkpt>
      <trkpt lat="47.9722" lon="6.15497">
        <ele>254.7998</ele>
        <time>2026-05-17T10:54:01+02:00</time>
      </trkpt>
      <trkpt lat="47.97222" lon="6.15505">
        <ele>255</ele>
        <time>2026-05-17T10:54:02+02:00</time>
      </trkpt>
      <trkpt lat="47.97224" lon="6.15514">
        <ele>254.7002</ele>
        <time>2026-05-17T10:54:03+02:00</time>
      </trkpt>
      <trkpt lat="47.97226" lon="6.15522">
        <ele>255</ele>
        <time>2026-05-17T10:54:04+02:00</time>
      </trkpt>
      <trkpt lat="47.97228" lon="6.1553">
        <ele>255.2002</ele>
        <time>2026-05-17T10:54:05+02:00</time>
      </trkpt>
      <trkpt lat="47.9723" lon="6.15538">
        <ele>255</ele>
        <time>2026-05-17T10:54:06+02:00</time>
      </trkpt>
      <trkpt lat="47.97232" lon="6.15547">
        <ele>255.2998</ele>
        <time>2026-05-17T10:54:07+02:00</time>
      </trkpt>
      <trkpt lat="47.97234" lon="6.15555">
        <ele>255.5</ele>
        <time>2026-05-17T10:54:08+02:00</time>
      </trkpt>
      <trkpt lat="47.97236" lon="6.15564">
        <ele>255.60059</ele>
        <time>2026-05-17T10:54:09+02:00</time>
      </trkpt>
      <trkpt lat="47.97238" lon="6.15572">
        <ele>256</ele>
        <time>2026-05-17T10:54:10+02:00</time>
      </trkpt>
      <trkpt lat="47.97241" lon="6.15581">
        <ele>256.2998</ele>
        <time>2026-05-17T10:54:11+02:00</time>
      </trkpt>
      <trkpt lat="47.97242" lon="6.15589">
        <ele>256.7002</ele>
        <time>2026-05-17T10:54:12+02:00</time>
      </trkpt>
      <trkpt lat="47.97245" lon="6.15597">
        <ele>256.7998</ele>
        <time>2026-05-17T10:54:13+02:00</time>
      </trkpt>
      <trkpt lat="47.97247" lon="6.15605">
        <ele>256.6006</ele>
        <time>2026-05-17T10:54:14+02:00</time>
      </trkpt>
      <trkpt lat="47.97249" lon="6.15613">
        <ele>256.6006</ele>
        <time>2026-05-17T10:54:15+02:00</time>
      </trkpt>
      <trkpt lat="47.97251" lon="6.15621">
        <ele>256.6006</ele>
        <time>2026-05-17T10:54:16+02:00</time>
      </trkpt>
      <trkpt lat="47.97253" lon="6.15629">
        <ele>256.7002</ele>
        <time>2026-05-17T10:54:17+02:00</time>
      </trkpt>
      <trkpt lat="47.97255" lon="6.15637">
        <ele>257</ele>
        <time>2026-05-17T10:54:18+02:00</time>
      </trkpt>
      <trkpt lat="47.97257" lon="6.15645">
        <ele>257.4004</ele>
        <time>2026-05-17T10:54:19+02:00</time>
      </trkpt>
      <trkpt lat="47.97259" lon="6.15653">
        <ele>257.9004</ele>
        <time>2026-05-17T10:54:20+02:00</time>
      </trkpt>
      <trkpt lat="47.97261" lon="6.15661">
        <ele>258.1006</ele>
        <time>2026-05-17T10:54:21+02:00</time>
      </trkpt>
      <trkpt lat="47.97263" lon="6.15669">
        <ele>257.6006</ele>
        <time>2026-05-17T10:54:22+02:00</time>
      </trkpt>
      <trkpt lat="47.97265" lon="6.15677">
        <ele>257.4004</ele>
        <time>2026-05-17T10:54:23+02:00</time>
      </trkpt>
      <trkpt lat="47.97267" lon="6.15685">
        <ele>257.1006</ele>
        <time>2026-05-17T10:54:24+02:00</time>
      </trkpt>
      <trkpt lat="47.97269" lon="6.15693">
        <ele>256.7002</ele>
        <time>2026-05-17T10:54:25+02:00</time>
      </trkpt>
      <trkpt lat="47.97271" lon="6.15701">
        <ele>256.4004</ele>
        <time>2026-05-17T10:54:26+02:00</time>
      </trkpt>
      <trkpt lat="47.97273" lon="6.1571">
        <ele>256.1006</ele>
        <time>2026-05-17T10:54:27+02:00</time>
      </trkpt>
      <trkpt lat="47.97275" lon="6.15718">
        <ele>256</ele>
        <time>2026-05-17T10:54:28+02:00</time>
      </trkpt>
      <trkpt lat="47.97277" lon="6.15725">
        <ele>256</ele>
        <time>2026-05-17T10:54:29+02:00</time>
      </trkpt>
      <trkpt lat="47.97279" lon="6.15733">
        <ele>255.90039</ele>
        <time>2026-05-17T10:54:30+02:00</time>
      </trkpt>
      <trkpt lat="47.97281" lon="6.15741">
        <ele>256.2998</ele>
        <time>2026-05-17T10:54:31+02:00</time>
      </trkpt>
      <trkpt lat="47.97283" lon="6.15749">
        <ele>256.2998</ele>
        <time>2026-05-17T10:54:32+02:00</time>
      </trkpt>
      <trkpt lat="47.97286" lon="6.15757">
        <ele>256.2998</ele>
        <time>2026-05-17T10:54:33+02:00</time>
      </trkpt>
      <trkpt lat="47.97288" lon="6.15765">
        <ele>256</ele>
        <time>2026-05-17T10:54:34+02:00</time>
      </trkpt>
      <trkpt lat="47.9729" lon="6.15773">
        <ele>255.7002</ele>
        <time>2026-05-17T10:54:35+02:00</time>
      </trkpt>
      <trkpt lat="47.97292" lon="6.15781">
        <ele>255.10059</ele>
        <time>2026-05-17T10:54:36+02:00</time>
      </trkpt>
      <trkpt lat="47.97294" lon="6.15789">
        <ele>254.7998</ele>
        <time>2026-05-17T10:54:37+02:00</time>
      </trkpt>
      <trkpt lat="47.97296" lon="6.15797">
        <ele>254.60059</ele>
        <time>2026-05-17T10:54:38+02:00</time>
      </trkpt>
      <trkpt lat="47.97299" lon="6.15805">
        <ele>254.10059</ele>
        <time>2026-05-17T10:54:39+02:00</time>
      </trkpt>
      <trkpt lat="47.973" lon="6.15813">
        <ele>253.90039</ele>
        <time>2026-05-17T10:54:40+02:00</time>
      </trkpt>
      <trkpt lat="47.97302" lon="6.15821">
        <ele>253.7998</ele>
        <time>2026-05-17T10:54:41+02:00</time>
      </trkpt>
      <trkpt lat="47.97305" lon="6.15828">
        <ele>253.5</ele>
        <time>2026-05-17T10:54:42+02:00</time>
      </trkpt>
      <trkpt lat="47.97307" lon="6.15836">
        <ele>253.60059</ele>
        <time>2026-05-17T10:54:43+02:00</time>
      </trkpt>
      <trkpt lat="47.97308" lon="6.15844">
        <ele>253.7002</ele>
        <time>2026-05-17T10:54:44+02:00</time>
      </trkpt>
      <trkpt lat="47.9731" lon="6.15852">
        <ele>253.5</ele>
        <time>2026-05-17T10:54:45+02:00</time>
      </trkpt>
      <trkpt lat="47.97312" lon="6.15859">
        <ele>253.60059</ele>
        <time>2026-05-17T10:54:46+02:00</time>
      </trkpt>
      <trkpt lat="47.97313" lon="6.15867">
        <ele>253.7998</ele>
        <time>2026-05-17T10:54:47+02:00</time>
      </trkpt>
      <trkpt lat="47.97315" lon="6.15875">
        <ele>253.90039</ele>
        <time>2026-05-17T10:54:48+02:00</time>
      </trkpt>
      <trkpt lat="47.97316" lon="6.15883">
        <ele>254.40039</ele>
        <time>2026-05-17T10:54:49+02:00</time>
      </trkpt>
      <trkpt lat="47.97318" lon="6.15891">
        <ele>254.60059</ele>
        <time>2026-05-17T10:54:50+02:00</time>
      </trkpt>
      <trkpt lat="47.97319" lon="6.15899">
        <ele>254.7002</ele>
        <time>2026-05-17T10:54:51+02:00</time>
      </trkpt>
      <trkpt lat="47.9732" lon="6.15907">
        <ele>254.60059</ele>
        <time>2026-05-17T10:54:52+02:00</time>
      </trkpt>
      <trkpt lat="47.97321" lon="6.15915">
        <ele>254.5</ele>
        <time>2026-05-17T10:54:53+02:00</time>
      </trkpt>
      <trkpt lat="47.97321" lon="6.15923">
        <ele>254.40039</ele>
        <time>2026-05-17T10:54:54+02:00</time>
      </trkpt>
      <trkpt lat="47.97321" lon="6.15931">
        <ele>254.40039</ele>
        <time>2026-05-17T10:54:55+02:00</time>
      </trkpt>
      <trkpt lat="47.97322" lon="6.15938">
        <ele>254.40039</ele>
        <time>2026-05-17T10:54:56+02:00</time>
      </trkpt>
      <trkpt lat="47.97323" lon="6.15946">
        <ele>254.40039</ele>
        <time>2026-05-17T10:54:57+02:00</time>
      </trkpt>
      <trkpt lat="47.97323" lon="6.15954">
        <ele>254.2998</ele>
        <time>2026-05-17T10:54:58+02:00</time>
      </trkpt>
      <trkpt lat="47.97324" lon="6.15963">
        <ele>254.2998</ele>
        <time>2026-05-17T10:54:59+02:00</time>
      </trkpt>
      <trkpt lat="47.97324" lon="6.15971">
        <ele>254.2998</ele>
        <time>2026-05-17T10:55:00+02:00</time>
      </trkpt>
      <trkpt lat="47.97325" lon="6.15979">
        <ele>254.2998</ele>
        <time>2026-05-17T10:55:01+02:00</time>
      </trkpt>
      <trkpt lat="47.97325" lon="6.15988">
        <ele>254.2998</ele>
        <time>2026-05-17T10:55:02+02:00</time>
      </trkpt>
      <trkpt lat="47.97326" lon="6.15996">
        <ele>254.2002</ele>
        <time>2026-05-17T10:55:03+02:00</time>
      </trkpt>
      <trkpt lat="47.97326" lon="6.16005">
        <ele>254.10059</ele>
        <time>2026-05-17T10:55:04+02:00</time>
      </trkpt>
      <trkpt lat="47.97326" lon="6.16013">
        <ele>254</ele>
        <time>2026-05-17T10:55:05+02:00</time>
      </trkpt>
      <trkpt lat="47.97326" lon="6.16022">
        <ele>253.90039</ele>
        <time>2026-05-17T10:55:06+02:00</time>
      </trkpt>
      <trkpt lat="47.97326" lon="6.1603">
        <ele>253.7002</ele>
        <time>2026-05-17T10:55:07+02:00</time>
      </trkpt>
      <trkpt lat="47.97327" lon="6.16039">
        <ele>253.40039</ele>
        <time>2026-05-17T10:55:08+02:00</time>
      </trkpt>
      <trkpt lat="47.97327" lon="6.16047">
        <ele>253.2998</ele>
        <time>2026-05-17T10:55:09+02:00</time>
      </trkpt>
      <trkpt lat="47.97327" lon="6.16056">
        <ele>253.2002</ele>
        <time>2026-05-17T10:55:10+02:00</time>
      </trkpt>
      <trkpt lat="47.97327" lon="6.16065">
        <ele>253</ele>
        <time>2026-05-17T10:55:11+02:00</time>
      </trkpt>
      <trkpt lat="47.97328" lon="6.16073">
        <ele>252.90039</ele>
        <time>2026-05-17T10:55:12+02:00</time>
      </trkpt>
      <trkpt lat="47.97328" lon="6.16082">
        <ele>252.7002</ele>
        <time>2026-05-17T10:55:13+02:00</time>
      </trkpt>
      <trkpt lat="47.97328" lon="6.1609">
        <ele>252.5</ele>
        <time>2026-05-17T10:55:14+02:00</time>
      </trkpt>
      <trkpt lat="47.97328" lon="6.16099">
        <ele>252.40039</ele>
        <time>2026-05-17T10:55:15+02:00</time>
      </trkpt>
      <trkpt lat="47.97328" lon="6.16107">
        <ele>252.2002</ele>
        <time>2026-05-17T10:55:16+02:00</time>
      </trkpt>
      <trkpt lat="47.97328" lon="6.16116">
        <ele>252.10059</ele>
        <time>2026-05-17T10:55:17+02:00</time>
      </trkpt>
      <trkpt lat="47.97329" lon="6.16124">
        <ele>252</ele>
        <time>2026-05-17T10:55:18+02:00</time>
      </trkpt>
      <trkpt lat="47.97329" lon="6.16133">
        <ele>251.7998</ele>
        <time>2026-05-17T10:55:19+02:00</time>
      </trkpt>
      <trkpt lat="47.97329" lon="6.16141">
        <ele>251.60059</ele>
        <time>2026-05-17T10:55:20+02:00</time>
      </trkpt>
      <trkpt lat="47.97329" lon="6.1615">
        <ele>251.40039</ele>
        <time>2026-05-17T10:55:21+02:00</time>
      </trkpt>
      <trkpt lat="47.9733" lon="6.16158">
        <ele>251.2998</ele>
        <time>2026-05-17T10:55:22+02:00</time>
      </trkpt>
      <trkpt lat="47.9733" lon="6.16167">
        <ele>251.10059</ele>
        <time>2026-05-17T10:55:23+02:00</time>
      </trkpt>
      <trkpt lat="47.9733" lon="6.16175">
        <ele>251</ele>
        <time>2026-05-17T10:55:24+02:00</time>
      </trkpt>
      <trkpt lat="47.9733" lon="6.16184">
        <ele>250.7002</ele>
        <time>2026-05-17T10:55:25+02:00</time>
      </trkpt>
      <trkpt lat="47.9733" lon="6.16192">
        <ele>250.60059</ele>
        <time>2026-05-17T10:55:26+02:00</time>
      </trkpt>
      <trkpt lat="47.97331" lon="6.16201">
        <ele>250.60059</ele>
        <time>2026-05-17T10:55:27+02:00</time>
      </trkpt>
      <trkpt lat="47.97331" lon="6.16209">
        <ele>250.60059</ele>
        <time>2026-05-17T10:55:28+02:00</time>
      </trkpt>
      <trkpt lat="47.97331" lon="6.16218">
        <ele>250.5</ele>
        <time>2026-05-17T10:55:29+02:00</time>
      </trkpt>
      <trkpt lat="47.97331" lon="6.16226">
        <ele>250.40039</ele>
        <time>2026-05-17T10:55:30+02:00</time>
      </trkpt>
      <trkpt lat="47.97331" lon="6.16234">
        <ele>250.40039</ele>
        <time>2026-05-17T10:55:31+02:00</time>
      </trkpt>
      <trkpt lat="47.97332" lon="6.16243">
        <ele>250.60059</ele>
        <time>2026-05-17T10:55:32+02:00</time>
      </trkpt>
      <trkpt lat="47.97332" lon="6.16251">
        <ele>250.60059</ele>
        <time>2026-05-17T10:55:33+02:00</time>
      </trkpt>
      <trkpt lat="47.97333" lon="6.16259">
        <ele>250.5</ele>
        <time>2026-05-17T10:55:34+02:00</time>
      </trkpt>
      <trkpt lat="47.97333" lon="6.16268">
        <ele>250.60059</ele>
        <time>2026-05-17T10:55:35+02:00</time>
      </trkpt>
      <trkpt lat="47.97333" lon="6.16276">
        <ele>250.7998</ele>
        <time>2026-05-17T10:55:36+02:00</time>
      </trkpt>
      <trkpt lat="47.97333" lon="6.16285">
        <ele>250.90039</ele>
        <time>2026-05-17T10:55:37+02:00</time>
      </trkpt>
      <trkpt lat="47.97333" lon="6.16293">
        <ele>250.90039</ele>
        <time>2026-05-17T10:55:38+02:00</time>
      </trkpt>
      <trkpt lat="47.97333" lon="6.16301">
        <ele>250.90039</ele>
        <time>2026-05-17T10:55:39+02:00</time>
      </trkpt>
      <trkpt lat="47.97334" lon="6.16308">
        <ele>250.90039</ele>
        <time>2026-05-17T10:55:40+02:00</time>
      </trkpt>
      <trkpt lat="47.97334" lon="6.16316">
        <ele>250.7998</ele>
        <time>2026-05-17T10:55:41+02:00</time>
      </trkpt>
      <trkpt lat="47.97333" lon="6.16323">
        <ele>250.7998</ele>
        <time>2026-05-17T10:55:42+02:00</time>
      </trkpt>
      <trkpt lat="47.97333" lon="6.16329">
        <ele>250.7998</ele>
        <time>2026-05-17T10:55:43+02:00</time>
      </trkpt>
      <trkpt lat="47.97333" lon="6.16335">
        <ele>250.7002</ele>
        <time>2026-05-17T10:55:44+02:00</time>
      </trkpt>
      <trkpt lat="47.97333" lon="6.16341">
        <ele>250.7002</ele>
        <time>2026-05-17T10:55:45+02:00</time>
      </trkpt>
      <trkpt lat="47.97333" lon="6.16345">
        <ele>250.7002</ele>
        <time>2026-05-17T10:55:46+02:00</time>
      </trkpt>
      <trkpt lat="47.97333" lon="6.1635">
        <ele>250.7002</ele>
        <time>2026-05-17T10:55:47+02:00</time>
      </trkpt>
      <trkpt lat="47.97333" lon="6.16355">
        <ele>250.7002</ele>
        <time>2026-05-17T10:55:48+02:00</time>
      </trkpt>
      <trkpt lat="47.97333" lon="6.16359">
        <ele>250.60059</ele>
        <time>2026-05-17T10:55:49+02:00</time>
      </trkpt>
      <trkpt lat="47.97334" lon="6.16362">
        <ele>250.60059</ele>
        <time>2026-05-17T10:55:50+02:00</time>
      </trkpt>
      <trkpt lat="47.97334" lon="6.16364">
        <ele>250.60059</ele>
        <time>2026-05-17T10:55:51+02:00</time>
      </trkpt>
      <trkpt lat="47.97334" lon="6.16367">
        <ele>250.60059</ele>
        <time>2026-05-17T10:55:52+02:00</time>
      </trkpt>
      <trkpt lat="47.97335" lon="6.16369">
        <ele>250.60059</ele>
        <time>2026-05-17T10:55:53+02:00</time>
      </trkpt>
      <trkpt lat="47.97335" lon="6.16371">
        <ele>250.60059</ele>
        <time>2026-05-17T10:55:54+02:00</time>
      </trkpt>
      <trkpt lat="47.97335" lon="6.16371">
        <ele>250.60059</ele>
        <time>2026-05-17T10:55:55+02:00</time>
      </trkpt>
      <trkpt lat="47.97335" lon="6.16371">
        <ele>250.60059</ele>
        <time>2026-05-17T10:55:56+02:00</time>
      </trkpt>
      <trkpt lat="47.97335" lon="6.16371">
        <ele>250.60059</ele>
        <time>2026-05-17T10:55:57+02:00</time>
      </trkpt>
      <trkpt lat="47.97335" lon="6.16371">
        <ele>250.60059</ele>
        <time>2026-05-17T10:55:58+02:00</time>
      </trkpt>
      <trkpt lat="47.97335" lon="6.16371">
        <ele>250.60059</ele>
        <time>2026-05-17T10:59:00+02:00</time>
      </trkpt>
      <trkpt lat="47.97335" lon="6.16371">
        <ele>250.60059</ele>
        <time>2026-05-17T10:59:01+02:00</time>
      </trkpt>
      <trkpt lat="47.97335" lon="6.16371">
        <ele>250.60059</ele>
        <time>2026-05-17T10:59:02+02:00</time>
      </trkpt>
      <trkpt lat="47.97335" lon="6.16371">
        <ele>250.60059</ele>
        <time>2026-05-17T10:59:03+02:00</time>
      </trkpt>
      <trkpt lat="47.97335" lon="6.16371">
        <ele>250.60059</ele>
        <time>2026-05-17T10:59:04+02:00</time>
      </trkpt>
      <trkpt lat="47.97335" lon="6.16371">
        <ele>250.60059</ele>
        <time>2026-05-17T10:59:05+02:00</time>
      </trkpt>
      <trkpt lat="47.97335" lon="6.16371">
        <ele>250.60059</ele>
        <time>2026-05-17T10:59:06+02:00</time>
      </trkpt>
      <trkpt lat="47.97335" lon="6.16371">
        <ele>250.60059</ele>
        <time>2026-05-17T10:59:07+02:00</time>
      </trkpt>
      <trkpt lat="47.97335" lon="6.16371">
        <ele>250.60059</ele>
        <time>2026-05-17T10:59:08+02:00</time>
      </trkpt>
      <trkpt lat="47.97335" lon="6.16371">
        <ele>250.60059</ele>
        <time>2026-05-17T10:59:09+02:00</time>
      </trkpt>
      <trkpt lat="47.97335" lon="6.16371">
        <ele>250.60059</ele>
        <time>2026-05-17T10:59:10+02:00</time>
      </trkpt>
      <trkpt lat="47.97335" lon="6.16371">
        <ele>250.60059</ele>
        <time>2026-05-17T10:59:11+02:00</time>
      </trkpt>
      <trkpt lat="47.97335" lon="6.16371">
        <ele>250.60059</ele>
        <time>2026-05-17T10:59:12+02:00</time>
      </trkpt>
      <trkpt lat="47.97335" lon="6.16371">
        <ele>250.60059</ele>
        <time>2026-05-17T10:59:13+02:00</time>
      </trkpt>
      <trkpt lat="47.97335" lon="6.16371">
        <ele>250.60059</ele>
        <time>2026-05-17T10:59:14+02:00</time>
      </trkpt>
      <trkpt lat="47.97335" lon="6.16371">
        <ele>250.60059</ele>
        <time>2026-05-17T10:59:15+02:00</time>
      </trkpt>
      <trkpt lat="47.97335" lon="6.16371">
        <ele>250.60059</ele>
        <time>2026-05-17T10:59:16+02:00</time>
      </trkpt>
      <trkpt lat="47.97335" lon="6.16371">
        <ele>250.60059</ele>
        <time>2026-05-17T10:59:17+02:00</time>
      </trkpt>
      <trkpt lat="47.97335" lon="6.16371">
        <ele>250.60059</ele>
        <time>2026-05-17T10:59:18+02:00</time>
      </trkpt>
      <trkpt lat="47.97335" lon="6.16371">
        <ele>250.60059</ele>
        <time>2026-05-17T10:59:19+02:00</time>
      </trkpt>
      <trkpt lat="47.97339" lon="6.16386">
        <ele>250.60059</ele>
        <time>2026-05-17T10:59:20+02:00</time>
      </trkpt>
      <trkpt lat="47.9734" lon="6.16388">
        <ele>250.60059</ele>
        <time>2026-05-17T10:59:21+02:00</time>
      </trkpt>
      <trkpt lat="47.9734" lon="6.16391">
        <ele>250.60059</ele>
        <time>2026-05-17T10:59:22+02:00</time>
      </trkpt>
      <trkpt lat="47.9734" lon="6.16394">
        <ele>250.5</ele>
        <time>2026-05-17T10:59:23+02:00</time>
      </trkpt>
      <trkpt lat="47.97341" lon="6.16398">
        <ele>250.5</ele>
        <time>2026-05-17T10:59:24+02:00</time>
      </trkpt>
      <trkpt lat="47.97341" lon="6.16402">
        <ele>250.2998</ele>
        <time>2026-05-17T10:59:25+02:00</time>
      </trkpt>
      <trkpt lat="47.97341" lon="6.16406">
        <ele>250.2998</ele>
        <time>2026-05-17T10:59:26+02:00</time>
      </trkpt>
      <trkpt lat="47.97341" lon="6.16411">
        <ele>250.2002</ele>
        <time>2026-05-17T10:59:27+02:00</time>
      </trkpt>
      <trkpt lat="47.97342" lon="6.16416">
        <ele>250.2002</ele>
        <time>2026-05-17T10:59:28+02:00</time>
      </trkpt>
      <trkpt lat="47.97342" lon="6.16421">
        <ele>250.2002</ele>
        <time>2026-05-17T10:59:29+02:00</time>
      </trkpt>
      <trkpt lat="47.97342" lon="6.16426">
        <ele>250.2002</ele>
        <time>2026-05-17T10:59:30+02:00</time>
      </trkpt>
      <trkpt lat="47.97342" lon="6.16431">
        <ele>250.2002</ele>
        <time>2026-05-17T10:59:31+02:00</time>
      </trkpt>
      <trkpt lat="47.97343" lon="6.16437">
        <ele>250.2002</ele>
        <time>2026-05-17T10:59:32+02:00</time>
      </trkpt>
      <trkpt lat="47.97344" lon="6.16443">
        <ele>250.2002</ele>
        <time>2026-05-17T10:59:33+02:00</time>
      </trkpt>
      <trkpt lat="47.97344" lon="6.16449">
        <ele>250.2002</ele>
        <time>2026-05-17T10:59:34+02:00</time>
      </trkpt>
      <trkpt lat="47.97344" lon="6.16455">
        <ele>250.2002</ele>
        <time>2026-05-17T10:59:35+02:00</time>
      </trkpt>
      <trkpt lat="47.97344" lon="6.16461">
        <ele>250.2002</ele>
        <time>2026-05-17T10:59:36+02:00</time>
      </trkpt>
      <trkpt lat="47.97344" lon="6.16468">
        <ele>250.2002</ele>
        <time>2026-05-17T10:59:37+02:00</time>
      </trkpt>
      <trkpt lat="47.97344" lon="6.16475">
        <ele>250.2002</ele>
        <time>2026-05-17T10:59:38+02:00</time>
      </trkpt>
      <trkpt lat="47.97344" lon="6.16482">
        <ele>250.2002</ele>
        <time>2026-05-17T10:59:39+02:00</time>
      </trkpt>
      <trkpt lat="47.97344" lon="6.16489">
        <ele>250.2002</ele>
        <time>2026-05-17T10:59:40+02:00</time>
      </trkpt>
      <trkpt lat="47.97344" lon="6.16496">
        <ele>250.2002</ele>
        <time>2026-05-17T10:59:41+02:00</time>
      </trkpt>
      <trkpt lat="47.97344" lon="6.16503">
        <ele>250.2002</ele>
        <time>2026-05-17T10:59:42+02:00</time>
      </trkpt>
      <trkpt lat="47.97344" lon="6.16511">
        <ele>250.2002</ele>
        <time>2026-05-17T10:59:43+02:00</time>
      </trkpt>
      <trkpt lat="47.97344" lon="6.16519">
        <ele>250.2002</ele>
        <time>2026-05-17T10:59:44+02:00</time>
      </trkpt>
      <trkpt lat="47.97343" lon="6.16526">
        <ele>250.2002</ele>
        <time>2026-05-17T10:59:45+02:00</time>
      </trkpt>
      <trkpt lat="47.97343" lon="6.16534">
        <ele>250.2002</ele>
        <time>2026-05-17T10:59:46+02:00</time>
      </trkpt>
      <trkpt lat="47.97342" lon="6.16541">
        <ele>250.2002</ele>
        <time>2026-05-17T10:59:47+02:00</time>
      </trkpt>
      <trkpt lat="47.97342" lon="6.16549">
        <ele>250.2002</ele>
        <time>2026-05-17T10:59:48+02:00</time>
      </trkpt>
      <trkpt lat="47.97342" lon="6.16556">
        <ele>250.2002</ele>
        <time>2026-05-17T10:59:49+02:00</time>
      </trkpt>
      <trkpt lat="47.97341" lon="6.16563">
        <ele>250.2002</ele>
        <time>2026-05-17T10:59:50+02:00</time>
      </trkpt>
      <trkpt lat="47.9734" lon="6.16571">
        <ele>250.2002</ele>
        <time>2026-05-17T10:59:51+02:00</time>
      </trkpt>
      <trkpt lat="47.97339" lon="6.16578">
        <ele>250.2002</ele>
        <time>2026-05-17T10:59:52+02:00</time>
      </trkpt>
      <trkpt lat="47.97337" lon="6.16585">
        <ele>250.2002</ele>
        <time>2026-05-17T10:59:53+02:00</time>
      </trkpt>
      <trkpt lat="47.97336" lon="6.16592">
        <ele>250.2002</ele>
        <time>2026-05-17T10:59:54+02:00</time>
      </trkpt>
      <trkpt lat="47.97335" lon="6.16599">
        <ele>250.2002</ele>
        <time>2026-05-17T10:59:55+02:00</time>
      </trkpt>
      <trkpt lat="47.97333" lon="6.16606">
        <ele>250.2002</ele>
        <time>2026-05-17T10:59:56+02:00</time>
      </trkpt>
      <trkpt lat="47.97331" lon="6.16613">
        <ele>250.10059</ele>
        <time>2026-05-17T10:59:57+02:00</time>
      </trkpt>
      <trkpt lat="47.97329" lon="6.1662">
        <ele>250</ele>
        <time>2026-05-17T10:59:58+02:00</time>
      </trkpt>
      <trkpt lat="47.97328" lon="6.16627">
        <ele>250.2002</ele>
        <time>2026-05-17T10:59:59+02:00</time>
      </trkpt>
      <trkpt lat="47.97325" lon="6.16633">
        <ele>250.10059</ele>
        <time>2026-05-17T11:00:00+02:00</time>
      </trkpt>
      <trkpt lat="47.97323" lon="6.1664">
        <ele>250.40039</ele>
        <time>2026-05-17T11:00:01+02:00</time>
      </trkpt>
      <trkpt lat="47.97321" lon="6.16646">
        <ele>250.7998</ele>
        <time>2026-05-17T11:00:02+02:00</time>
      </trkpt>
      <trkpt lat="47.97318" lon="6.16652">
        <ele>250.2998</ele>
        <time>2026-05-17T11:00:03+02:00</time>
      </trkpt>
      <trkpt lat="47.97316" lon="6.16658">
        <ele>250.2998</ele>
        <time>2026-05-17T11:00:04+02:00</time>
      </trkpt>
      <trkpt lat="47.97313" lon="6.16664">
        <ele>250.2002</ele>
        <time>2026-05-17T11:00:05+02:00</time>
      </trkpt>
      <trkpt lat="47.97311" lon="6.1667">
        <ele>251.40039</ele>
        <time>2026-05-17T11:00:06+02:00</time>
      </trkpt>
      <trkpt lat="47.97308" lon="6.16676">
        <ele>250.7002</ele>
        <time>2026-05-17T11:00:07+02:00</time>
      </trkpt>
      <trkpt lat="47.97305" lon="6.16681">
        <ele>251.60059</ele>
        <time>2026-05-17T11:00:08+02:00</time>
      </trkpt>
      <trkpt lat="47.97302" lon="6.16687">
        <ele>250.90039</ele>
        <time>2026-05-17T11:00:09+02:00</time>
      </trkpt>
      <trkpt lat="47.97299" lon="6.16692">
        <ele>250.90039</ele>
        <time>2026-05-17T11:00:10+02:00</time>
      </trkpt>
      <trkpt lat="47.97296" lon="6.16697">
        <ele>250.5</ele>
        <time>2026-05-17T11:00:11+02:00</time>
      </trkpt>
      <trkpt lat="47.97292" lon="6.16703">
        <ele>252</ele>
        <time>2026-05-17T11:00:12+02:00</time>
      </trkpt>
      <trkpt lat="47.97288" lon="6.16708">
        <ele>251.10059</ele>
        <time>2026-05-17T11:00:13+02:00</time>
      </trkpt>
      <trkpt lat="47.97284" lon="6.16713">
        <ele>251.2998</ele>
        <time>2026-05-17T11:00:14+02:00</time>
      </trkpt>
      <trkpt lat="47.9728" lon="6.16718">
        <ele>251.2998</ele>
        <time>2026-05-17T11:00:15+02:00</time>
      </trkpt>
      <trkpt lat="47.97275" lon="6.16722">
        <ele>250.60059</ele>
        <time>2026-05-17T11:00:16+02:00</time>
      </trkpt>
      <trkpt lat="47.97271" lon="6.16727">
        <ele>250.10059</ele>
        <time>2026-05-17T11:00:17+02:00</time>
      </trkpt>
      <trkpt lat="47.97267" lon="6.16732">
        <ele>249.90039</ele>
        <time>2026-05-17T11:00:18+02:00</time>
      </trkpt>
      <trkpt lat="47.97262" lon="6.16736">
        <ele>249.90039</ele>
        <time>2026-05-17T11:00:19+02:00</time>
      </trkpt>
      <trkpt lat="47.97257" lon="6.1674">
        <ele>250.2002</ele>
        <time>2026-05-17T11:00:20+02:00</time>
      </trkpt>
      <trkpt lat="47.97253" lon="6.16745">
        <ele>250.2998</ele>
        <time>2026-05-17T11:00:21+02:00</time>
      </trkpt>
      <trkpt lat="47.97248" lon="6.16749">
        <ele>250.10059</ele>
        <time>2026-05-17T11:00:22+02:00</time>
      </trkpt>
      <trkpt lat="47.97244" lon="6.16753">
        <ele>250</ele>
        <time>2026-05-17T11:00:23+02:00</time>
      </trkpt>
      <trkpt lat="47.97239" lon="6.16757">
        <ele>250</ele>
        <time>2026-05-17T11:00:24+02:00</time>
      </trkpt>
      <trkpt lat="47.97234" lon="6.16761">
        <ele>250.2002</ele>
        <time>2026-05-17T11:00:25+02:00</time>
      </trkpt>
      <trkpt lat="47.9723" lon="6.16765">
        <ele>250.2002</ele>
        <time>2026-05-17T11:00:26+02:00</time>
      </trkpt>
      <trkpt lat="47.97226" lon="6.16768">
        <ele>250.2002</ele>
        <time>2026-05-17T11:00:27+02:00</time>
      </trkpt>
      <trkpt lat="47.97221" lon="6.16772">
        <ele>250.7002</ele>
        <time>2026-05-17T11:00:28+02:00</time>
      </trkpt>
      <trkpt lat="47.97217" lon="6.16776">
        <ele>250.7002</ele>
        <time>2026-05-17T11:00:29+02:00</time>
      </trkpt>
      <trkpt lat="47.97212" lon="6.16779">
        <ele>250.60059</ele>
        <time>2026-05-17T11:00:30+02:00</time>
      </trkpt>
      <trkpt lat="47.97208" lon="6.16783">
        <ele>251.10059</ele>
        <time>2026-05-17T11:00:31+02:00</time>
      </trkpt>
      <trkpt lat="47.97204" lon="6.16786">
        <ele>250.7998</ele>
        <time>2026-05-17T11:00:32+02:00</time>
      </trkpt>
      <trkpt lat="47.97199" lon="6.1679">
        <ele>250.7998</ele>
        <time>2026-05-17T11:00:33+02:00</time>
      </trkpt>
      <trkpt lat="47.97194" lon="6.16794">
        <ele>250.7998</ele>
        <time>2026-05-17T11:00:34+02:00</time>
      </trkpt>
      <trkpt lat="47.9719" lon="6.16798">
        <ele>250.5</ele>
        <time>2026-05-17T11:00:35+02:00</time>
      </trkpt>
      <trkpt lat="47.97185" lon="6.16801">
        <ele>250.2002</ele>
        <time>2026-05-17T11:00:36+02:00</time>
      </trkpt>
      <trkpt lat="47.9718" lon="6.16805">
        <ele>250.10059</ele>
        <time>2026-05-17T11:00:37+02:00</time>
      </trkpt>
      <trkpt lat="47.97175" lon="6.16809">
        <ele>250.5</ele>
        <time>2026-05-17T11:00:38+02:00</time>
      </trkpt>
      <trkpt lat="47.9717" lon="6.16813">
        <ele>250.5</ele>
        <time>2026-05-17T11:00:39+02:00</time>
      </trkpt>
      <trkpt lat="47.97165" lon="6.16817">
        <ele>251.2002</ele>
        <time>2026-05-17T11:00:40+02:00</time>
      </trkpt>
      <trkpt lat="47.9716" lon="6.1682">
        <ele>251.2002</ele>
        <time>2026-05-17T11:00:41+02:00</time>
      </trkpt>
      <trkpt lat="47.97155" lon="6.16824">
        <ele>252.10059</ele>
        <time>2026-05-17T11:00:42+02:00</time>
      </trkpt>
      <trkpt lat="47.97149" lon="6.16827">
        <ele>252</ele>
        <time>2026-05-17T11:00:43+02:00</time>
      </trkpt>
      <trkpt lat="47.97144" lon="6.1683">
        <ele>251.90039</ele>
        <time>2026-05-17T11:00:44+02:00</time>
      </trkpt>
      <trkpt lat="47.97138" lon="6.16833">
        <ele>252.60059</ele>
        <time>2026-05-17T11:00:45+02:00</time>
      </trkpt>
      <trkpt lat="47.97133" lon="6.16836">
        <ele>252.5</ele>
        <time>2026-05-17T11:00:46+02:00</time>
      </trkpt>
      <trkpt lat="47.97127" lon="6.1684">
        <ele>252.90039</ele>
        <time>2026-05-17T11:00:47+02:00</time>
      </trkpt>
      <trkpt lat="47.97122" lon="6.16843">
        <ele>252.7998</ele>
        <time>2026-05-17T11:00:48+02:00</time>
      </trkpt>
      <trkpt lat="47.97116" lon="6.16846">
        <ele>252.90039</ele>
        <time>2026-05-17T11:00:49+02:00</time>
      </trkpt>
      <trkpt lat="47.97111" lon="6.16849">
        <ele>254</ele>
        <time>2026-05-17T11:00:50+02:00</time>
      </trkpt>
      <trkpt lat="47.97106" lon="6.16851">
        <ele>254.2998</ele>
        <time>2026-05-17T11:00:51+02:00</time>
      </trkpt>
      <trkpt lat="47.97101" lon="6.16853">
        <ele>254.60059</ele>
        <time>2026-05-17T11:00:52+02:00</time>
      </trkpt>
      <trkpt lat="47.97095" lon="6.16855">
        <ele>254.90039</ele>
        <time>2026-05-17T11:00:53+02:00</time>
      </trkpt>
      <trkpt lat="47.9709" lon="6.16857">
        <ele>256.9004</ele>
        <time>2026-05-17T11:00:54+02:00</time>
      </trkpt>
      <trkpt lat="47.97084" lon="6.16859">
        <ele>257.2998</ele>
        <time>2026-05-17T11:00:55+02:00</time>
      </trkpt>
      <trkpt lat="47.97078" lon="6.16861">
        <ele>257.7002</ele>
        <time>2026-05-17T11:00:56+02:00</time>
      </trkpt>
      <trkpt lat="47.97073" lon="6.16863">
        <ele>258</ele>
        <time>2026-05-17T11:00:57+02:00</time>
      </trkpt>
      <trkpt lat="47.97067" lon="6.16864">
        <ele>258.1006</ele>
        <time>2026-05-17T11:00:58+02:00</time>
      </trkpt>
      <trkpt lat="47.97061" lon="6.16866">
        <ele>260.7002</ele>
        <time>2026-05-17T11:00:59+02:00</time>
      </trkpt>
      <trkpt lat="47.97056" lon="6.16867">
        <ele>260.9004</ele>
        <time>2026-05-17T11:01:00+02:00</time>
      </trkpt>
      <trkpt lat="47.97051" lon="6.16869">
        <ele>260.9004</ele>
        <time>2026-05-17T11:01:01+02:00</time>
      </trkpt>
      <trkpt lat="47.97045" lon="6.1687">
        <ele>259.1006</ele>
        <time>2026-05-17T11:01:02+02:00</time>
      </trkpt>
      <trkpt lat="47.9704" lon="6.16871">
        <ele>256.1006</ele>
        <time>2026-05-17T11:01:03+02:00</time>
      </trkpt>
      <trkpt lat="47.97035" lon="6.16872">
        <ele>253.2998</ele>
        <time>2026-05-17T11:01:04+02:00</time>
      </trkpt>
      <trkpt lat="47.9703" lon="6.16873">
        <ele>252</ele>
        <time>2026-05-17T11:01:05+02:00</time>
      </trkpt>
      <trkpt lat="47.97025" lon="6.16874">
        <ele>251.60059</ele>
        <time>2026-05-17T11:01:06+02:00</time>
      </trkpt>
      <trkpt lat="47.9702" lon="6.16875">
        <ele>252.10059</ele>
        <time>2026-05-17T11:01:07+02:00</time>
      </trkpt>
      <trkpt lat="47.97014" lon="6.16876">
        <ele>252.90039</ele>
        <time>2026-05-17T11:01:08+02:00</time>
      </trkpt>
      <trkpt lat="47.97009" lon="6.16877">
        <ele>253.2002</ele>
        <time>2026-05-17T11:01:09+02:00</time>
      </trkpt>
      <trkpt lat="47.97004" lon="6.16878">
        <ele>253.10059</ele>
        <time>2026-05-17T11:01:10+02:00</time>
      </trkpt>
      <trkpt lat="47.96998" lon="6.16879">
        <ele>252.90039</ele>
        <time>2026-05-17T11:01:11+02:00</time>
      </trkpt>
      <trkpt lat="47.96993" lon="6.1688">
        <ele>252.90039</ele>
        <time>2026-05-17T11:01:12+02:00</time>
      </trkpt>
      <trkpt lat="47.96988" lon="6.16881">
        <ele>252.60059</ele>
        <time>2026-05-17T11:01:13+02:00</time>
      </trkpt>
      <trkpt lat="47.96982" lon="6.16882">
        <ele>252.5</ele>
        <time>2026-05-17T11:01:14+02:00</time>
      </trkpt>
      <trkpt lat="47.96977" lon="6.16883">
        <ele>253</ele>
        <time>2026-05-17T11:01:15+02:00</time>
      </trkpt>
      <trkpt lat="47.96972" lon="6.16884">
        <ele>252.90039</ele>
        <time>2026-05-17T11:01:16+02:00</time>
      </trkpt>
      <trkpt lat="47.96966" lon="6.16885">
        <ele>252.7998</ele>
        <time>2026-05-17T11:01:17+02:00</time>
      </trkpt>
      <trkpt lat="47.96961" lon="6.16886">
        <ele>252.7998</ele>
        <time>2026-05-17T11:01:18+02:00</time>
      </trkpt>
      <trkpt lat="47.96956" lon="6.16887">
        <ele>253</ele>
        <time>2026-05-17T11:01:19+02:00</time>
      </trkpt>
      <trkpt lat="47.96951" lon="6.16888">
        <ele>253.40039</ele>
        <time>2026-05-17T11:01:20+02:00</time>
      </trkpt>
      <trkpt lat="47.96946" lon="6.16889">
        <ele>253.7998</ele>
        <time>2026-05-17T11:01:21+02:00</time>
      </trkpt>
      <trkpt lat="47.96941" lon="6.1689">
        <ele>254.7002</ele>
        <time>2026-05-17T11:01:22+02:00</time>
      </trkpt>
      <trkpt lat="47.96936" lon="6.16891">
        <ele>255.60059</ele>
        <time>2026-05-17T11:01:23+02:00</time>
      </trkpt>
      <trkpt lat="47.96931" lon="6.16892">
        <ele>257.1006</ele>
        <time>2026-05-17T11:01:24+02:00</time>
      </trkpt>
      <trkpt lat="47.96926" lon="6.16893">
        <ele>258.9004</ele>
        <time>2026-05-17T11:01:25+02:00</time>
      </trkpt>
      <trkpt lat="47.96921" lon="6.16894">
        <ele>260.2002</ele>
        <time>2026-05-17T11:01:26+02:00</time>
      </trkpt>
      <trkpt lat="47.96916" lon="6.16895">
        <ele>260.9004</ele>
        <time>2026-05-17T11:01:27+02:00</time>
      </trkpt>
      <trkpt lat="47.96911" lon="6.16896">
        <ele>261.2002</ele>
        <time>2026-05-17T11:01:28+02:00</time>
      </trkpt>
      <trkpt lat="47.96906" lon="6.16897">
        <ele>261.2002</ele>
        <time>2026-05-17T11:01:29+02:00</time>
      </trkpt>
      <trkpt lat="47.96901" lon="6.16898">
        <ele>261.2002</ele>
        <time>2026-05-17T11:01:30+02:00</time>
      </trkpt>
      <trkpt lat="47.96896" lon="6.16899">
        <ele>261.1006</ele>
        <time>2026-05-17T11:01:31+02:00</time>
      </trkpt>
      <trkpt lat="47.96891" lon="6.16901">
        <ele>261.1006</ele>
        <time>2026-05-17T11:01:32+02:00</time>
      </trkpt>
      <trkpt lat="47.96886" lon="6.16902">
        <ele>261</ele>
        <time>2026-05-17T11:01:33+02:00</time>
      </trkpt>
      <trkpt lat="47.96881" lon="6.16903">
        <ele>260.7998</ele>
        <time>2026-05-17T11:01:34+02:00</time>
      </trkpt>
      <trkpt lat="47.96876" lon="6.16903">
        <ele>260.7002</ele>
        <time>2026-05-17T11:01:35+02:00</time>
      </trkpt>
      <trkpt lat="47.96871" lon="6.16904">
        <ele>260.6006</ele>
        <time>2026-05-17T11:01:36+02:00</time>
      </trkpt>
      <trkpt lat="47.96866" lon="6.16905">
        <ele>260.6006</ele>
        <time>2026-05-17T11:01:37+02:00</time>
      </trkpt>
      <trkpt lat="47.9686" lon="6.16907">
        <ele>260.6006</ele>
        <time>2026-05-17T11:01:38+02:00</time>
      </trkpt>
      <trkpt lat="47.96855" lon="6.16908">
        <ele>260.6006</ele>
        <time>2026-05-17T11:01:39+02:00</time>
      </trkpt>
      <trkpt lat="47.9685" lon="6.16909">
        <ele>260.6006</ele>
        <time>2026-05-17T11:01:40+02:00</time>
      </trkpt>
      <trkpt lat="47.96844" lon="6.1691">
        <ele>260.6006</ele>
        <time>2026-05-17T11:01:41+02:00</time>
      </trkpt>
      <trkpt lat="47.96839" lon="6.16911">
        <ele>260.5</ele>
        <time>2026-05-17T11:01:42+02:00</time>
      </trkpt>
      <trkpt lat="47.96834" lon="6.16912">
        <ele>260.4004</ele>
        <time>2026-05-17T11:01:43+02:00</time>
      </trkpt>
      <trkpt lat="47.96811" lon="6.16916">
        <ele>259.7002</ele>
        <time>2026-05-17T11:01:44+02:00</time>
      </trkpt>
      <trkpt lat="47.96806" lon="6.16917">
        <ele>259.6006</ele>
        <time>2026-05-17T11:01:45+02:00</time>
      </trkpt>
      <trkpt lat="47.96801" lon="6.16918">
        <ele>259.4004</ele>
        <time>2026-05-17T11:01:46+02:00</time>
      </trkpt>
      <trkpt lat="47.96795" lon="6.16918">
        <ele>259.2998</ele>
        <time>2026-05-17T11:01:47+02:00</time>
      </trkpt>
      <trkpt lat="47.9679" lon="6.16919">
        <ele>259.2002</ele>
        <time>2026-05-17T11:01:48+02:00</time>
      </trkpt>
      <trkpt lat="47.96785" lon="6.1692">
        <ele>259.1006</ele>
        <time>2026-05-17T11:01:49+02:00</time>
      </trkpt>
      <trkpt lat="47.96779" lon="6.16921">
        <ele>259.1006</ele>
        <time>2026-05-17T11:01:50+02:00</time>
      </trkpt>
      <trkpt lat="47.96774" lon="6.16922">
        <ele>259.1006</ele>
        <time>2026-05-17T11:01:51+02:00</time>
      </trkpt>
      <trkpt lat="47.96768" lon="6.16924">
        <ele>259.2002</ele>
        <time>2026-05-17T11:01:52+02:00</time>
      </trkpt>
      <trkpt lat="47.96763" lon="6.16925">
        <ele>259.4004</ele>
        <time>2026-05-17T11:01:53+02:00</time>
      </trkpt>
      <trkpt lat="47.96757" lon="6.16927">
        <ele>260</ele>
        <time>2026-05-17T11:01:54+02:00</time>
      </trkpt>
      <trkpt lat="47.96752" lon="6.16929">
        <ele>260</ele>
        <time>2026-05-17T11:01:55+02:00</time>
      </trkpt>
      <trkpt lat="47.96747" lon="6.16931">
        <ele>260.2002</ele>
        <time>2026-05-17T11:01:56+02:00</time>
      </trkpt>
      <trkpt lat="47.96741" lon="6.16933">
        <ele>260.5</ele>
        <time>2026-05-17T11:01:57+02:00</time>
      </trkpt>
      <trkpt lat="47.96736" lon="6.16935">
        <ele>261.2002</ele>
        <time>2026-05-17T11:01:58+02:00</time>
      </trkpt>
      <trkpt lat="47.9673" lon="6.16937">
        <ele>261.6006</ele>
        <time>2026-05-17T11:01:59+02:00</time>
      </trkpt>
      <trkpt lat="47.96725" lon="6.1694">
        <ele>262</ele>
        <time>2026-05-17T11:02:00+02:00</time>
      </trkpt>
      <trkpt lat="47.9672" lon="6.16943">
        <ele>262.7998</ele>
        <time>2026-05-17T11:02:01+02:00</time>
      </trkpt>
      <trkpt lat="47.96715" lon="6.16946">
        <ele>263.2998</ele>
        <time>2026-05-17T11:02:02+02:00</time>
      </trkpt>
      <trkpt lat="47.9671" lon="6.16949">
        <ele>263.7998</ele>
        <time>2026-05-17T11:02:03+02:00</time>
      </trkpt>
      <trkpt lat="47.96705" lon="6.16952">
        <ele>264.6006</ele>
        <time>2026-05-17T11:02:04+02:00</time>
      </trkpt>
      <trkpt lat="47.967" lon="6.16956">
        <ele>264.6006</ele>
        <time>2026-05-17T11:02:05+02:00</time>
      </trkpt>
      <trkpt lat="47.96695" lon="6.16959">
        <ele>265.1006</ele>
        <time>2026-05-17T11:02:06+02:00</time>
      </trkpt>
      <trkpt lat="47.9669" lon="6.16963">
        <ele>265.7998</ele>
        <time>2026-05-17T11:02:07+02:00</time>
      </trkpt>
      <trkpt lat="47.96686" lon="6.16967">
        <ele>266.1006</ele>
        <time>2026-05-17T11:02:08+02:00</time>
      </trkpt>
      <trkpt lat="47.96681" lon="6.16972">
        <ele>266.4004</ele>
        <time>2026-05-17T11:02:09+02:00</time>
      </trkpt>
      <trkpt lat="47.96677" lon="6.16976">
        <ele>266.4004</ele>
        <time>2026-05-17T11:02:10+02:00</time>
      </trkpt>
      <trkpt lat="47.96673" lon="6.1698">
        <ele>266.7002</ele>
        <time>2026-05-17T11:02:11+02:00</time>
      </trkpt>
      <trkpt lat="47.96668" lon="6.16985">
        <ele>267.1006</ele>
        <time>2026-05-17T11:02:12+02:00</time>
      </trkpt>
      <trkpt lat="47.96664" lon="6.1699">
        <ele>267.4004</ele>
        <time>2026-05-17T11:02:13+02:00</time>
      </trkpt>
      <trkpt lat="47.9666" lon="6.16994">
        <ele>267.2998</ele>
        <time>2026-05-17T11:02:14+02:00</time>
      </trkpt>
      <trkpt lat="47.96656" lon="6.16999">
        <ele>267.7002</ele>
        <time>2026-05-17T11:02:15+02:00</time>
      </trkpt>
      <trkpt lat="47.96652" lon="6.17004">
        <ele>267.7998</ele>
        <time>2026-05-17T11:02:16+02:00</time>
      </trkpt>
      <trkpt lat="47.96647" lon="6.17008">
        <ele>268</ele>
        <time>2026-05-17T11:02:17+02:00</time>
      </trkpt>
      <trkpt lat="47.96644" lon="6.17013">
        <ele>267.7998</ele>
        <time>2026-05-17T11:02:18+02:00</time>
      </trkpt>
      <trkpt lat="47.96639" lon="6.17018">
        <ele>268</ele>
        <time>2026-05-17T11:02:19+02:00</time>
      </trkpt>
      <trkpt lat="47.96636" lon="6.17023">
        <ele>268</ele>
        <time>2026-05-17T11:02:20+02:00</time>
      </trkpt>
      <trkpt lat="47.96631" lon="6.17028">
        <ele>268</ele>
        <time>2026-05-17T11:02:21+02:00</time>
      </trkpt>
      <trkpt lat="47.96627" lon="6.17033">
        <ele>268.1006</ele>
        <time>2026-05-17T11:02:22+02:00</time>
      </trkpt>
      <trkpt lat="47.96623" lon="6.17038">
        <ele>268</ele>
        <time>2026-05-17T11:02:23+02:00</time>
      </trkpt>
      <trkpt lat="47.96619" lon="6.17042">
        <ele>268.2002</ele>
        <time>2026-05-17T11:02:24+02:00</time>
      </trkpt>
      <trkpt lat="47.96615" lon="6.17047">
        <ele>267.7998</ele>
        <time>2026-05-17T11:02:25+02:00</time>
      </trkpt>
      <trkpt lat="47.96611" lon="6.17052">
        <ele>267.9004</ele>
        <time>2026-05-17T11:02:26+02:00</time>
      </trkpt>
      <trkpt lat="47.96607" lon="6.17057">
        <ele>267.7002</ele>
        <time>2026-05-17T11:02:27+02:00</time>
      </trkpt>
      <trkpt lat="47.96604" lon="6.17063">
        <ele>267.2998</ele>
        <time>2026-05-17T11:02:28+02:00</time>
      </trkpt>
      <trkpt lat="47.966" lon="6.17068">
        <ele>267.7998</ele>
        <time>2026-05-17T11:02:29+02:00</time>
      </trkpt>
      <trkpt lat="47.96597" lon="6.17074">
        <ele>267.5</ele>
        <time>2026-05-17T11:02:30+02:00</time>
      </trkpt>
      <trkpt lat="47.96594" lon="6.1708">
        <ele>267.9004</ele>
        <time>2026-05-17T11:02:31+02:00</time>
      </trkpt>
      <trkpt lat="47.96591" lon="6.17087">
        <ele>267.9004</ele>
        <time>2026-05-17T11:02:32+02:00</time>
      </trkpt>
      <trkpt lat="47.96589" lon="6.17094">
        <ele>268.1006</ele>
        <time>2026-05-17T11:02:33+02:00</time>
      </trkpt>
      <trkpt lat="47.96586" lon="6.171">
        <ele>267.6006</ele>
        <time>2026-05-17T11:02:34+02:00</time>
      </trkpt>
      <trkpt lat="47.96584" lon="6.17107">
        <ele>267.7002</ele>
        <time>2026-05-17T11:02:35+02:00</time>
      </trkpt>
      <trkpt lat="47.96581" lon="6.17115">
        <ele>267.4004</ele>
        <time>2026-05-17T11:02:36+02:00</time>
      </trkpt>
      <trkpt lat="47.96579" lon="6.17122">
        <ele>268</ele>
        <time>2026-05-17T11:02:37+02:00</time>
      </trkpt>
      <trkpt lat="47.96578" lon="6.1713">
        <ele>267.7002</ele>
        <time>2026-05-17T11:02:38+02:00</time>
      </trkpt>
      <trkpt lat="47.96575" lon="6.17138">
        <ele>267.5</ele>
        <time>2026-05-17T11:02:39+02:00</time>
      </trkpt>
      <trkpt lat="47.96573" lon="6.17145">
        <ele>267.9004</ele>
        <time>2026-05-17T11:02:40+02:00</time>
      </trkpt>
      <trkpt lat="47.96571" lon="6.17153">
        <ele>267.7002</ele>
        <time>2026-05-17T11:02:41+02:00</time>
      </trkpt>
      <trkpt lat="47.96568" lon="6.17161">
        <ele>267.5</ele>
        <time>2026-05-17T11:02:42+02:00</time>
      </trkpt>
      <trkpt lat="47.96566" lon="6.17168">
        <ele>268</ele>
        <time>2026-05-17T11:02:43+02:00</time>
      </trkpt>
      <trkpt lat="47.96564" lon="6.17176">
        <ele>267.7998</ele>
        <time>2026-05-17T11:02:44+02:00</time>
      </trkpt>
      <trkpt lat="47.96562" lon="6.17183">
        <ele>267.5</ele>
        <time>2026-05-17T11:02:45+02:00</time>
      </trkpt>
      <trkpt lat="47.96561" lon="6.17191">
        <ele>268.1006</ele>
        <time>2026-05-17T11:02:46+02:00</time>
      </trkpt>
      <trkpt lat="47.9656" lon="6.17198">
        <ele>267.7998</ele>
        <time>2026-05-17T11:02:47+02:00</time>
      </trkpt>
      <trkpt lat="47.96562" lon="6.17206">
        <ele>266.9004</ele>
        <time>2026-05-17T11:02:48+02:00</time>
      </trkpt>
      <trkpt lat="47.96563" lon="6.17213">
        <ele>266.6006</ele>
        <time>2026-05-17T11:02:49+02:00</time>
      </trkpt>
      <trkpt lat="47.96567" lon="6.1722">
        <ele>266.2002</ele>
        <time>2026-05-17T11:02:50+02:00</time>
      </trkpt>
      <trkpt lat="47.9657" lon="6.17226">
        <ele>265.2998</ele>
        <time>2026-05-17T11:02:51+02:00</time>
      </trkpt>
      <trkpt lat="47.96573" lon="6.17231">
        <ele>265.2998</ele>
        <time>2026-05-17T11:02:52+02:00</time>
      </trkpt>
      <trkpt lat="47.96577" lon="6.17236">
        <ele>264.2002</ele>
        <time>2026-05-17T11:02:53+02:00</time>
      </trkpt>
      <trkpt lat="47.9658" lon="6.1724">
        <ele>263.2002</ele>
        <time>2026-05-17T11:02:54+02:00</time>
      </trkpt>
      <trkpt lat="47.96584" lon="6.17244">
        <ele>263</ele>
        <time>2026-05-17T11:02:55+02:00</time>
      </trkpt>
      <trkpt lat="47.96587" lon="6.17248">
        <ele>262.1006</ele>
        <time>2026-05-17T11:02:56+02:00</time>
      </trkpt>
      <trkpt lat="47.96591" lon="6.17252">
        <ele>261.2002</ele>
        <time>2026-05-17T11:02:57+02:00</time>
      </trkpt>
      <trkpt lat="47.96594" lon="6.17257">
        <ele>261.2002</ele>
        <time>2026-05-17T11:02:58+02:00</time>
      </trkpt>
      <trkpt lat="47.96597" lon="6.17262">
        <ele>260.7002</ele>
        <time>2026-05-17T11:02:59+02:00</time>
      </trkpt>
      <trkpt lat="47.966" lon="6.17267">
        <ele>260.7002</ele>
        <time>2026-05-17T11:03:00+02:00</time>
      </trkpt>
      <trkpt lat="47.96603" lon="6.17272">
        <ele>260.2998</ele>
        <time>2026-05-17T11:03:01+02:00</time>
      </trkpt>
      <trkpt lat="47.96607" lon="6.17276">
        <ele>260.2998</ele>
        <time>2026-05-17T11:03:02+02:00</time>
      </trkpt>
      <trkpt lat="47.9661" lon="6.17281">
        <ele>259.9004</ele>
        <time>2026-05-17T11:03:03+02:00</time>
      </trkpt>
      <trkpt lat="47.96613" lon="6.17285">
        <ele>259.9004</ele>
        <time>2026-05-17T11:03:04+02:00</time>
      </trkpt>
      <trkpt lat="47.96616" lon="6.17288">
        <ele>259.5</ele>
        <time>2026-05-17T11:03:05+02:00</time>
      </trkpt>
      <trkpt lat="47.96619" lon="6.17291">
        <ele>259.5</ele>
        <time>2026-05-17T11:03:06+02:00</time>
      </trkpt>
      <trkpt lat="47.96623" lon="6.17293">
        <ele>259.2998</ele>
        <time>2026-05-17T11:03:07+02:00</time>
      </trkpt>
      <trkpt lat="47.96626" lon="6.17296">
        <ele>258.9004</ele>
        <time>2026-05-17T11:03:08+02:00</time>
      </trkpt>
      <trkpt lat="47.96629" lon="6.17297">
        <ele>258.9004</ele>
        <time>2026-05-17T11:03:09+02:00</time>
      </trkpt>
      <trkpt lat="47.96633" lon="6.17298">
        <ele>258.7002</ele>
        <time>2026-05-17T11:03:10+02:00</time>
      </trkpt>
      <trkpt lat="47.96637" lon="6.17299">
        <ele>258.5</ele>
        <time>2026-05-17T11:03:11+02:00</time>
      </trkpt>
      <trkpt lat="47.96642" lon="6.173">
        <ele>258.5</ele>
        <time>2026-05-17T11:03:12+02:00</time>
      </trkpt>
      <trkpt lat="47.96646" lon="6.17301">
        <ele>258.4004</ele>
        <time>2026-05-17T11:03:13+02:00</time>
      </trkpt>
      <trkpt lat="47.9665" lon="6.17302">
        <ele>258.2002</ele>
        <time>2026-05-17T11:03:14+02:00</time>
      </trkpt>
      <trkpt lat="47.96655" lon="6.17304">
        <ele>257.7002</ele>
        <time>2026-05-17T11:03:15+02:00</time>
      </trkpt>
      <trkpt lat="47.96661" lon="6.17305">
        <ele>257.5</ele>
        <time>2026-05-17T11:03:16+02:00</time>
      </trkpt>
      <trkpt lat="47.96667" lon="6.17308">
        <ele>257.4004</ele>
        <time>2026-05-17T11:03:17+02:00</time>
      </trkpt>
      <trkpt lat="47.96674" lon="6.17309">
        <ele>257.2002</ele>
        <time>2026-05-17T11:03:18+02:00</time>
      </trkpt>
      <trkpt lat="47.9668" lon="6.17309">
        <ele>257.1006</ele>
        <time>2026-05-17T11:03:19+02:00</time>
      </trkpt>
      <trkpt lat="47.96685" lon="6.1731">
        <ele>256.9004</ele>
        <time>2026-05-17T11:03:20+02:00</time>
      </trkpt>
      <trkpt lat="47.96691" lon="6.1731">
        <ele>256.9004</ele>
        <time>2026-05-17T11:03:21+02:00</time>
      </trkpt>
      <trkpt lat="47.96697" lon="6.17311">
        <ele>256.7998</ele>
        <time>2026-05-17T11:03:22+02:00</time>
      </trkpt>
      <trkpt lat="47.96703" lon="6.17311">
        <ele>256.7998</ele>
        <time>2026-05-17T11:03:23+02:00</time>
      </trkpt>
      <trkpt lat="47.9671" lon="6.17311">
        <ele>256.7998</ele>
        <time>2026-05-17T11:03:24+02:00</time>
      </trkpt>
      <trkpt lat="47.96715" lon="6.17311">
        <ele>256.7002</ele>
        <time>2026-05-17T11:03:25+02:00</time>
      </trkpt>
      <trkpt lat="47.96721" lon="6.1731">
        <ele>256.6006</ele>
        <time>2026-05-17T11:03:26+02:00</time>
      </trkpt>
      <trkpt lat="47.96727" lon="6.17309">
        <ele>256.5</ele>
        <time>2026-05-17T11:03:27+02:00</time>
      </trkpt>
      <trkpt lat="47.96733" lon="6.17308">
        <ele>256.4004</ele>
        <time>2026-05-17T11:03:28+02:00</time>
      </trkpt>
      <trkpt lat="47.96739" lon="6.17308">
        <ele>256.2002</ele>
        <time>2026-05-17T11:03:29+02:00</time>
      </trkpt>
      <trkpt lat="47.96745" lon="6.17307">
        <ele>256.1006</ele>
        <time>2026-05-17T11:03:30+02:00</time>
      </trkpt>
      <trkpt lat="47.96751" lon="6.17306">
        <ele>255.90039</ele>
        <time>2026-05-17T11:03:31+02:00</time>
      </trkpt>
      <trkpt lat="47.96756" lon="6.17305">
        <ele>255.7998</ele>
        <time>2026-05-17T11:03:32+02:00</time>
      </trkpt>
      <trkpt lat="47.96763" lon="6.17304">
        <ele>255.7002</ele>
        <time>2026-05-17T11:03:33+02:00</time>
      </trkpt>
      <trkpt lat="47.96768" lon="6.17302">
        <ele>256.1006</ele>
        <time>2026-05-17T11:03:34+02:00</time>
      </trkpt>
      <trkpt lat="47.96774" lon="6.17301">
        <ele>256</ele>
        <time>2026-05-17T11:03:35+02:00</time>
      </trkpt>
      <trkpt lat="47.96779" lon="6.173">
        <ele>255.7998</ele>
        <time>2026-05-17T11:03:36+02:00</time>
      </trkpt>
      <trkpt lat="47.96785" lon="6.17298">
        <ele>255.60059</ele>
        <time>2026-05-17T11:03:37+02:00</time>
      </trkpt>
      <trkpt lat="47.9679" lon="6.17297">
        <ele>255.2998</ele>
        <time>2026-05-17T11:03:38+02:00</time>
      </trkpt>
      <trkpt lat="47.96795" lon="6.17296">
        <ele>255.10059</ele>
        <time>2026-05-17T11:03:39+02:00</time>
      </trkpt>
      <trkpt lat="47.96801" lon="6.17295">
        <ele>255</ele>
        <time>2026-05-17T11:03:40+02:00</time>
      </trkpt>
      <trkpt lat="47.96807" lon="6.17294">
        <ele>255.7002</ele>
        <time>2026-05-17T11:03:41+02:00</time>
      </trkpt>
      <trkpt lat="47.96813" lon="6.17293">
        <ele>255.60059</ele>
        <time>2026-05-17T11:03:42+02:00</time>
      </trkpt>
      <trkpt lat="47.96818" lon="6.17292">
        <ele>255.60059</ele>
        <time>2026-05-17T11:03:43+02:00</time>
      </trkpt>
      <trkpt lat="47.96824" lon="6.17291">
        <ele>255.5</ele>
        <time>2026-05-17T11:03:44+02:00</time>
      </trkpt>
      <trkpt lat="47.96829" lon="6.1729">
        <ele>255.5</ele>
        <time>2026-05-17T11:03:45+02:00</time>
      </trkpt>
      <trkpt lat="47.96835" lon="6.17289">
        <ele>255.5</ele>
        <time>2026-05-17T11:03:46+02:00</time>
      </trkpt>
      <trkpt lat="47.96841" lon="6.17288">
        <ele>255.40039</ele>
        <time>2026-05-17T11:03:47+02:00</time>
      </trkpt>
      <trkpt lat="47.96847" lon="6.17286">
        <ele>255.2998</ele>
        <time>2026-05-17T11:03:48+02:00</time>
      </trkpt>
      <trkpt lat="47.96853" lon="6.17285">
        <ele>256</ele>
        <time>2026-05-17T11:03:49+02:00</time>
      </trkpt>
      <trkpt lat="47.96858" lon="6.17284">
        <ele>255.90039</ele>
        <time>2026-05-17T11:03:50+02:00</time>
      </trkpt>
      <trkpt lat="47.96864" lon="6.17283">
        <ele>255.7998</ele>
        <time>2026-05-17T11:03:51+02:00</time>
      </trkpt>
      <trkpt lat="47.96869" lon="6.17282">
        <ele>255.7002</ele>
        <time>2026-05-17T11:03:52+02:00</time>
      </trkpt>
      <trkpt lat="47.96875" lon="6.17281">
        <ele>255.60059</ele>
        <time>2026-05-17T11:03:53+02:00</time>
      </trkpt>
      <trkpt lat="47.96881" lon="6.1728">
        <ele>255.5</ele>
        <time>2026-05-17T11:03:54+02:00</time>
      </trkpt>
      <trkpt lat="47.96887" lon="6.17279">
        <ele>255.40039</ele>
        <time>2026-05-17T11:03:55+02:00</time>
      </trkpt>
      <trkpt lat="47.96892" lon="6.17279">
        <ele>255.2998</ele>
        <time>2026-05-17T11:03:56+02:00</time>
      </trkpt>
      <trkpt lat="47.96898" lon="6.17278">
        <ele>255.2002</ele>
        <time>2026-05-17T11:03:57+02:00</time>
      </trkpt>
      <trkpt lat="47.96904" lon="6.17277">
        <ele>256.2002</ele>
        <time>2026-05-17T11:03:58+02:00</time>
      </trkpt>
      <trkpt lat="47.96909" lon="6.17276">
        <ele>256.2002</ele>
        <time>2026-05-17T11:03:59+02:00</time>
      </trkpt>
      <trkpt lat="47.96915" lon="6.17276">
        <ele>256.1006</ele>
        <time>2026-05-17T11:04:00+02:00</time>
      </trkpt>
      <trkpt lat="47.96921" lon="6.17276">
        <ele>256.1006</ele>
        <time>2026-05-17T11:04:01+02:00</time>
      </trkpt>
      <trkpt lat="47.96927" lon="6.17277">
        <ele>256.2002</ele>
        <time>2026-05-17T11:04:02+02:00</time>
      </trkpt>
      <trkpt lat="47.96933" lon="6.17278">
        <ele>254.7998</ele>
        <time>2026-05-17T11:04:03+02:00</time>
      </trkpt>
      <trkpt lat="47.96938" lon="6.17279">
        <ele>254.90039</ele>
        <time>2026-05-17T11:04:04+02:00</time>
      </trkpt>
      <trkpt lat="47.96944" lon="6.1728">
        <ele>255</ele>
        <time>2026-05-17T11:04:05+02:00</time>
      </trkpt>
      <trkpt lat="47.9695" lon="6.17281">
        <ele>255.10059</ele>
        <time>2026-05-17T11:04:06+02:00</time>
      </trkpt>
      <trkpt lat="47.96955" lon="6.17283">
        <ele>255.2998</ele>
        <time>2026-05-17T11:04:07+02:00</time>
      </trkpt>
      <trkpt lat="47.96961" lon="6.17284">
        <ele>255.5</ele>
        <time>2026-05-17T11:04:08+02:00</time>
      </trkpt>
      <trkpt lat="47.96966" lon="6.17286">
        <ele>254.60059</ele>
        <time>2026-05-17T11:04:09+02:00</time>
      </trkpt>
      <trkpt lat="47.96972" lon="6.17289">
        <ele>254.90039</ele>
        <time>2026-05-17T11:04:10+02:00</time>
      </trkpt>
      <trkpt lat="47.96978" lon="6.17291">
        <ele>255.40039</ele>
        <time>2026-05-17T11:04:11+02:00</time>
      </trkpt>
      <trkpt lat="47.96983" lon="6.17294">
        <ele>256.1006</ele>
        <time>2026-05-17T11:04:12+02:00</time>
      </trkpt>
      <trkpt lat="47.96988" lon="6.17297">
        <ele>256</ele>
        <time>2026-05-17T11:04:13+02:00</time>
      </trkpt>
      <trkpt lat="47.96994" lon="6.173">
        <ele>256.7998</ele>
        <time>2026-05-17T11:04:14+02:00</time>
      </trkpt>
      <trkpt lat="47.96999" lon="6.17303">
        <ele>256.2002</ele>
        <time>2026-05-17T11:04:15+02:00</time>
      </trkpt>
      <trkpt lat="47.97004" lon="6.17306">
        <ele>256.2002</ele>
        <time>2026-05-17T11:04:16+02:00</time>
      </trkpt>
      <trkpt lat="47.97009" lon="6.1731">
        <ele>256.5</ele>
        <time>2026-05-17T11:04:17+02:00</time>
      </trkpt>
      <trkpt lat="47.97014" lon="6.17314">
        <ele>255.5</ele>
        <time>2026-05-17T11:04:18+02:00</time>
      </trkpt>
      <trkpt lat="47.97018" lon="6.17318">
        <ele>255.7998</ele>
        <time>2026-05-17T11:04:19+02:00</time>
      </trkpt>
      <trkpt lat="47.97023" lon="6.17323">
        <ele>255.60059</ele>
        <time>2026-05-17T11:04:20+02:00</time>
      </trkpt>
      <trkpt lat="47.97027" lon="6.17327">
        <ele>255.60059</ele>
        <time>2026-05-17T11:04:21+02:00</time>
      </trkpt>
      <trkpt lat="47.97032" lon="6.17332">
        <ele>255.60059</ele>
        <time>2026-05-17T11:04:22+02:00</time>
      </trkpt>
      <trkpt lat="47.97036" lon="6.17338">
        <ele>255.7002</ele>
        <time>2026-05-17T11:04:23+02:00</time>
      </trkpt>
      <trkpt lat="47.9704" lon="6.17343">
        <ele>256.5</ele>
        <time>2026-05-17T11:04:24+02:00</time>
      </trkpt>
      <trkpt lat="47.97045" lon="6.17349">
        <ele>256.2998</ele>
        <time>2026-05-17T11:04:25+02:00</time>
      </trkpt>
      <trkpt lat="47.97049" lon="6.17355">
        <ele>255.90039</ele>
        <time>2026-05-17T11:04:26+02:00</time>
      </trkpt>
      <trkpt lat="47.97053" lon="6.17362">
        <ele>257.1006</ele>
        <time>2026-05-17T11:04:27+02:00</time>
      </trkpt>
      <trkpt lat="47.97056" lon="6.17368">
        <ele>257</ele>
        <time>2026-05-17T11:04:28+02:00</time>
      </trkpt>
      <trkpt lat="47.9706" lon="6.17375">
        <ele>258.6006</ele>
        <time>2026-05-17T11:04:29+02:00</time>
      </trkpt>
      <trkpt lat="47.97063" lon="6.17382">
        <ele>260</ele>
        <time>2026-05-17T11:04:30+02:00</time>
      </trkpt>
      <trkpt lat="47.97066" lon="6.17389">
        <ele>259.7998</ele>
        <time>2026-05-17T11:04:31+02:00</time>
      </trkpt>
      <trkpt lat="47.97069" lon="6.17397">
        <ele>261</ele>
        <time>2026-05-17T11:04:32+02:00</time>
      </trkpt>
      <trkpt lat="47.97071" lon="6.17404">
        <ele>260.7002</ele>
        <time>2026-05-17T11:04:33+02:00</time>
      </trkpt>
      <trkpt lat="47.97074" lon="6.17412">
        <ele>261.6006</ele>
        <time>2026-05-17T11:04:34+02:00</time>
      </trkpt>
      <trkpt lat="47.97077" lon="6.1742">
        <ele>261.2998</ele>
        <time>2026-05-17T11:04:35+02:00</time>
      </trkpt>
      <trkpt lat="47.97079" lon="6.17428">
        <ele>262.1006</ele>
        <time>2026-05-17T11:04:36+02:00</time>
      </trkpt>
      <trkpt lat="47.97081" lon="6.17436">
        <ele>261.7998</ele>
        <time>2026-05-17T11:04:37+02:00</time>
      </trkpt>
      <trkpt lat="47.97083" lon="6.17444">
        <ele>261.5</ele>
        <time>2026-05-17T11:04:38+02:00</time>
      </trkpt>
      <trkpt lat="47.97085" lon="6.17452">
        <ele>262.2998</ele>
        <time>2026-05-17T11:04:39+02:00</time>
      </trkpt>
      <trkpt lat="47.97087" lon="6.1746">
        <ele>262.2002</ele>
        <time>2026-05-17T11:04:40+02:00</time>
      </trkpt>
      <trkpt lat="47.97089" lon="6.17468">
        <ele>262.1006</ele>
        <time>2026-05-17T11:04:41+02:00</time>
      </trkpt>
      <trkpt lat="47.97091" lon="6.17476">
        <ele>262.6006</ele>
        <time>2026-05-17T11:04:42+02:00</time>
      </trkpt>
      <trkpt lat="47.97093" lon="6.17484">
        <ele>262.4004</ele>
        <time>2026-05-17T11:04:43+02:00</time>
      </trkpt>
      <trkpt lat="47.97094" lon="6.17491">
        <ele>262.4004</ele>
        <time>2026-05-17T11:04:44+02:00</time>
      </trkpt>
      <trkpt lat="47.97096" lon="6.17499">
        <ele>262.1006</ele>
        <time>2026-05-17T11:04:45+02:00</time>
      </trkpt>
      <trkpt lat="47.97098" lon="6.17508">
        <ele>262.2998</ele>
        <time>2026-05-17T11:04:46+02:00</time>
      </trkpt>
      <trkpt lat="47.97099" lon="6.17516">
        <ele>262</ele>
        <time>2026-05-17T11:04:47+02:00</time>
      </trkpt>
      <trkpt lat="47.97101" lon="6.17524">
        <ele>261.6006</ele>
        <time>2026-05-17T11:04:48+02:00</time>
      </trkpt>
      <trkpt lat="47.97102" lon="6.17533">
        <ele>261.7998</ele>
        <time>2026-05-17T11:04:49+02:00</time>
      </trkpt>
      <trkpt lat="47.97103" lon="6.17541">
        <ele>261.5</ele>
        <time>2026-05-17T11:04:50+02:00</time>
      </trkpt>
      <trkpt lat="47.97104" lon="6.17549">
        <ele>261.1006</ele>
        <time>2026-05-17T11:04:51+02:00</time>
      </trkpt>
      <trkpt lat="47.97106" lon="6.17558">
        <ele>260.7002</ele>
        <time>2026-05-17T11:04:52+02:00</time>
      </trkpt>
      <trkpt lat="47.97107" lon="6.17566">
        <ele>260.2998</ele>
        <time>2026-05-17T11:04:53+02:00</time>
      </trkpt>
      <trkpt lat="47.97108" lon="6.17574">
        <ele>260.6006</ele>
        <time>2026-05-17T11:04:54+02:00</time>
      </trkpt>
      <trkpt lat="47.97109" lon="6.17582">
        <ele>260.4004</ele>
        <time>2026-05-17T11:04:55+02:00</time>
      </trkpt>
      <trkpt lat="47.9711" lon="6.1759">
        <ele>260.2002</ele>
        <time>2026-05-17T11:04:56+02:00</time>
      </trkpt>
      <trkpt lat="47.9711" lon="6.17599">
        <ele>260.1006</ele>
        <time>2026-05-17T11:04:57+02:00</time>
      </trkpt>
      <trkpt lat="47.9711" lon="6.17607">
        <ele>260.1006</ele>
        <time>2026-05-17T11:04:58+02:00</time>
      </trkpt>
      <trkpt lat="47.97111" lon="6.17615">
        <ele>260.1006</ele>
        <time>2026-05-17T11:04:59+02:00</time>
      </trkpt>
      <trkpt lat="47.97111" lon="6.17623">
        <ele>260</ele>
        <time>2026-05-17T11:05:00+02:00</time>
      </trkpt>
      <trkpt lat="47.97112" lon="6.1763">
        <ele>260.1006</ele>
        <time>2026-05-17T11:05:01+02:00</time>
      </trkpt>
      <trkpt lat="47.97112" lon="6.17639">
        <ele>260.1006</ele>
        <time>2026-05-17T11:05:02+02:00</time>
      </trkpt>
      <trkpt lat="47.97111" lon="6.17647">
        <ele>260.1006</ele>
        <time>2026-05-17T11:05:03+02:00</time>
      </trkpt>
      <trkpt lat="47.97112" lon="6.17655">
        <ele>260.1006</ele>
        <time>2026-05-17T11:05:04+02:00</time>
      </trkpt>
      <trkpt lat="47.97112" lon="6.17663">
        <ele>260.1006</ele>
        <time>2026-05-17T11:05:05+02:00</time>
      </trkpt>
      <trkpt lat="47.97112" lon="6.17671">
        <ele>260.1006</ele>
        <time>2026-05-17T11:05:06+02:00</time>
      </trkpt>
      <trkpt lat="47.97112" lon="6.17679">
        <ele>260.1006</ele>
        <time>2026-05-17T11:05:07+02:00</time>
      </trkpt>
      <trkpt lat="47.97112" lon="6.17686">
        <ele>260.1006</ele>
        <time>2026-05-17T11:05:08+02:00</time>
      </trkpt>
      <trkpt lat="47.97111" lon="6.17694">
        <ele>260.1006</ele>
        <time>2026-05-17T11:05:09+02:00</time>
      </trkpt>
      <trkpt lat="47.97112" lon="6.17702">
        <ele>260.2002</ele>
        <time>2026-05-17T11:05:10+02:00</time>
      </trkpt>
      <trkpt lat="47.97112" lon="6.1771">
        <ele>260.2998</ele>
        <time>2026-05-17T11:05:11+02:00</time>
      </trkpt>
      <trkpt lat="47.97112" lon="6.17718">
        <ele>260.4004</ele>
        <time>2026-05-17T11:05:12+02:00</time>
      </trkpt>
      <trkpt lat="47.97112" lon="6.17726">
        <ele>260.4004</ele>
        <time>2026-05-17T11:05:13+02:00</time>
      </trkpt>
      <trkpt lat="47.97112" lon="6.17734">
        <ele>260.5</ele>
        <time>2026-05-17T11:05:14+02:00</time>
      </trkpt>
      <trkpt lat="47.97112" lon="6.17742">
        <ele>260.5</ele>
        <time>2026-05-17T11:05:15+02:00</time>
      </trkpt>
      <trkpt lat="47.97112" lon="6.1775">
        <ele>260.6006</ele>
        <time>2026-05-17T11:05:16+02:00</time>
      </trkpt>
      <trkpt lat="47.97112" lon="6.17758">
        <ele>260.7998</ele>
        <time>2026-05-17T11:05:17+02:00</time>
      </trkpt>
      <trkpt lat="47.97112" lon="6.17766">
        <ele>260.7998</ele>
        <time>2026-05-17T11:05:18+02:00</time>
      </trkpt>
      <trkpt lat="47.97112" lon="6.17773">
        <ele>261</ele>
        <time>2026-05-17T11:05:19+02:00</time>
      </trkpt>
      <trkpt lat="47.97112" lon="6.17781">
        <ele>261.2002</ele>
        <time>2026-05-17T11:05:20+02:00</time>
      </trkpt>
      <trkpt lat="47.97113" lon="6.17788">
        <ele>261.2998</ele>
        <time>2026-05-17T11:05:21+02:00</time>
      </trkpt>
      <trkpt lat="47.97114" lon="6.17795">
        <ele>262.2002</ele>
        <time>2026-05-17T11:05:22+02:00</time>
      </trkpt>
      <trkpt lat="47.97115" lon="6.17801">
        <ele>262.2998</ele>
        <time>2026-05-17T11:05:23+02:00</time>
      </trkpt>
      <trkpt lat="47.97115" lon="6.17808">
        <ele>262.2998</ele>
        <time>2026-05-17T11:05:24+02:00</time>
      </trkpt>
      <trkpt lat="47.97116" lon="6.17816">
        <ele>262.2998</ele>
        <time>2026-05-17T11:05:25+02:00</time>
      </trkpt>
      <trkpt lat="47.97116" lon="6.17824">
        <ele>262.4004</ele>
        <time>2026-05-17T11:05:26+02:00</time>
      </trkpt>
      <trkpt lat="47.97116" lon="6.17831">
        <ele>262.4004</ele>
        <time>2026-05-17T11:05:27+02:00</time>
      </trkpt>
      <trkpt lat="47.97116" lon="6.17839">
        <ele>262.4004</ele>
        <time>2026-05-17T11:05:28+02:00</time>
      </trkpt>
      <trkpt lat="47.97116" lon="6.17847">
        <ele>262.4004</ele>
        <time>2026-05-17T11:05:29+02:00</time>
      </trkpt>
      <trkpt lat="47.97116" lon="6.17854">
        <ele>262.5</ele>
        <time>2026-05-17T11:05:30+02:00</time>
      </trkpt>
      <trkpt lat="47.97115" lon="6.17861">
        <ele>262.7002</ele>
        <time>2026-05-17T11:05:31+02:00</time>
      </trkpt>
      <trkpt lat="47.97115" lon="6.17868">
        <ele>262.7002</ele>
        <time>2026-05-17T11:05:32+02:00</time>
      </trkpt>
      <trkpt lat="47.97114" lon="6.17875">
        <ele>262.7998</ele>
        <time>2026-05-17T11:05:33+02:00</time>
      </trkpt>
      <trkpt lat="47.97114" lon="6.17883">
        <ele>262.9004</ele>
        <time>2026-05-17T11:05:34+02:00</time>
      </trkpt>
      <trkpt lat="47.97114" lon="6.17889">
        <ele>262.9004</ele>
        <time>2026-05-17T11:05:35+02:00</time>
      </trkpt>
      <trkpt lat="47.97114" lon="6.17894">
        <ele>262.9004</ele>
        <time>2026-05-17T11:05:36+02:00</time>
      </trkpt>
      <trkpt lat="47.97114" lon="6.17896">
        <ele>262.9004</ele>
        <time>2026-05-17T11:05:37+02:00</time>
      </trkpt>
      <trkpt lat="47.97114" lon="6.17896">
        <ele>262.9004</ele>
        <time>2026-05-17T11:05:38+02:00</time>
      </trkpt>
      <trkpt lat="47.97113" lon="6.17896">
        <ele>262.4004</ele>
        <time>2026-05-17T11:05:39+02:00</time>
      </trkpt>
      <trkpt lat="47.97113" lon="6.17896">
        <ele>262.4004</ele>
        <time>2026-05-17T11:05:40+02:00</time>
      </trkpt>
      <trkpt lat="47.97113" lon="6.17896">
        <ele>262.4004</ele>
        <time>2026-05-17T11:05:41+02:00</time>
      </trkpt>
      <trkpt lat="47.97114" lon="6.17913">
        <ele>263.1006</ele>
        <time>2026-05-17T11:06:00+02:00</time>
      </trkpt>
      <trkpt lat="47.97114" lon="6.17917">
        <ele>263.1006</ele>
        <time>2026-05-17T11:06:01+02:00</time>
      </trkpt>
      <trkpt lat="47.97114" lon="6.17921">
        <ele>263.2002</ele>
        <time>2026-05-17T11:06:02+02:00</time>
      </trkpt>
      <trkpt lat="47.97114" lon="6.17927">
        <ele>263.2002</ele>
        <time>2026-05-17T11:06:03+02:00</time>
      </trkpt>
      <trkpt lat="47.97113" lon="6.17933">
        <ele>262.7002</ele>
        <time>2026-05-17T11:06:04+02:00</time>
      </trkpt>
      <trkpt lat="47.97113" lon="6.1794">
        <ele>262.7998</ele>
        <time>2026-05-17T11:06:05+02:00</time>
      </trkpt>
      <trkpt lat="47.97113" lon="6.17946">
        <ele>262.7998</ele>
        <time>2026-05-17T11:06:06+02:00</time>
      </trkpt>
      <trkpt lat="47.97113" lon="6.17953">
        <ele>262.9004</ele>
        <time>2026-05-17T11:06:07+02:00</time>
      </trkpt>
      <trkpt lat="47.97114" lon="6.17961">
        <ele>263.6006</ele>
        <time>2026-05-17T11:06:08+02:00</time>
      </trkpt>
      <trkpt lat="47.97114" lon="6.17968">
        <ele>263.7002</ele>
        <time>2026-05-17T11:06:09+02:00</time>
      </trkpt>
      <trkpt lat="47.97114" lon="6.17976">
        <ele>263.7002</ele>
        <time>2026-05-17T11:06:10+02:00</time>
      </trkpt>
      <trkpt lat="47.97114" lon="6.17984">
        <ele>263.7998</ele>
        <time>2026-05-17T11:06:11+02:00</time>
      </trkpt>
      <trkpt lat="47.97114" lon="6.17992">
        <ele>263.9004</ele>
        <time>2026-05-17T11:06:12+02:00</time>
      </trkpt>
      <trkpt lat="47.97114" lon="6.18001">
        <ele>264</ele>
        <time>2026-05-17T11:06:13+02:00</time>
      </trkpt>
      <trkpt lat="47.97114" lon="6.18009">
        <ele>264</ele>
        <time>2026-05-17T11:06:14+02:00</time>
      </trkpt>
      <trkpt lat="47.97113" lon="6.18018">
        <ele>263.4004</ele>
        <time>2026-05-17T11:06:15+02:00</time>
      </trkpt>
      <trkpt lat="47.97113" lon="6.18027">
        <ele>263.2998</ele>
        <time>2026-05-17T11:06:16+02:00</time>
      </trkpt>
      <trkpt lat="47.97113" lon="6.18036">
        <ele>263.2002</ele>
        <time>2026-05-17T11:06:17+02:00</time>
      </trkpt>
      <trkpt lat="47.97112" lon="6.18045">
        <ele>263.1006</ele>
        <time>2026-05-17T11:06:18+02:00</time>
      </trkpt>
      <trkpt lat="47.97112" lon="6.18054">
        <ele>263</ele>
        <time>2026-05-17T11:06:19+02:00</time>
      </trkpt>
      <trkpt lat="47.97112" lon="6.18063">
        <ele>263</ele>
        <time>2026-05-17T11:06:20+02:00</time>
      </trkpt>
      <trkpt lat="47.97111" lon="6.18072">
        <ele>263</ele>
        <time>2026-05-17T11:06:21+02:00</time>
      </trkpt>
      <trkpt lat="47.9711" lon="6.18081">
        <ele>262.9004</ele>
        <time>2026-05-17T11:06:22+02:00</time>
      </trkpt>
      <trkpt lat="47.9711" lon="6.18091">
        <ele>262.9004</ele>
        <time>2026-05-17T11:06:23+02:00</time>
      </trkpt>
      <trkpt lat="47.97109" lon="6.181">
        <ele>262.7998</ele>
        <time>2026-05-17T11:06:24+02:00</time>
      </trkpt>
      <trkpt lat="47.97108" lon="6.18109">
        <ele>262.7002</ele>
        <time>2026-05-17T11:06:25+02:00</time>
      </trkpt>
      <trkpt lat="47.97107" lon="6.18119">
        <ele>262.5</ele>
        <time>2026-05-17T11:06:26+02:00</time>
      </trkpt>
      <trkpt lat="47.97106" lon="6.18128">
        <ele>262.5</ele>
        <time>2026-05-17T11:06:27+02:00</time>
      </trkpt>
      <trkpt lat="47.97104" lon="6.18137">
        <ele>262.6006</ele>
        <time>2026-05-17T11:06:28+02:00</time>
      </trkpt>
      <trkpt lat="47.97103" lon="6.18146">
        <ele>262.6006</ele>
        <time>2026-05-17T11:06:29+02:00</time>
      </trkpt>
      <trkpt lat="47.97102" lon="6.18156">
        <ele>262.6006</ele>
        <time>2026-05-17T11:06:30+02:00</time>
      </trkpt>
      <trkpt lat="47.97101" lon="6.18165">
        <ele>262.2002</ele>
        <time>2026-05-17T11:06:31+02:00</time>
      </trkpt>
      <trkpt lat="47.97099" lon="6.18175">
        <ele>262</ele>
        <time>2026-05-17T11:06:32+02:00</time>
      </trkpt>
      <trkpt lat="47.97098" lon="6.18184">
        <ele>262</ele>
        <time>2026-05-17T11:06:33+02:00</time>
      </trkpt>
      <trkpt lat="47.97097" lon="6.18193">
        <ele>262.1006</ele>
        <time>2026-05-17T11:06:34+02:00</time>
      </trkpt>
      <trkpt lat="47.97095" lon="6.18203">
        <ele>262</ele>
        <time>2026-05-17T11:06:35+02:00</time>
      </trkpt>
      <trkpt lat="47.97094" lon="6.18212">
        <ele>262.1006</ele>
        <time>2026-05-17T11:06:36+02:00</time>
      </trkpt>
      <trkpt lat="47.97092" lon="6.18222">
        <ele>262.4004</ele>
        <time>2026-05-17T11:06:37+02:00</time>
      </trkpt>
      <trkpt lat="47.97091" lon="6.18232">
        <ele>262.5</ele>
        <time>2026-05-17T11:06:38+02:00</time>
      </trkpt>
      <trkpt lat="47.9709" lon="6.18241">
        <ele>262.2998</ele>
        <time>2026-05-17T11:06:39+02:00</time>
      </trkpt>
      <trkpt lat="47.97088" lon="6.1825">
        <ele>262.4004</ele>
        <time>2026-05-17T11:06:40+02:00</time>
      </trkpt>
      <trkpt lat="47.97086" lon="6.1826">
        <ele>262.4004</ele>
        <time>2026-05-17T11:06:41+02:00</time>
      </trkpt>
      <trkpt lat="47.97085" lon="6.18269">
        <ele>262.5</ele>
        <time>2026-05-17T11:06:42+02:00</time>
      </trkpt>
      <trkpt lat="47.97083" lon="6.18279">
        <ele>262.2002</ele>
        <time>2026-05-17T11:06:43+02:00</time>
      </trkpt>
      <trkpt lat="47.97082" lon="6.18289">
        <ele>262.2002</ele>
        <time>2026-05-17T11:06:44+02:00</time>
      </trkpt>
      <trkpt lat="47.97081" lon="6.18298">
        <ele>262</ele>
        <time>2026-05-17T11:06:45+02:00</time>
      </trkpt>
      <trkpt lat="47.97079" lon="6.18308">
        <ele>261.5</ele>
        <time>2026-05-17T11:06:46+02:00</time>
      </trkpt>
      <trkpt lat="47.97077" lon="6.18318">
        <ele>261.1006</ele>
        <time>2026-05-17T11:06:47+02:00</time>
      </trkpt>
      <trkpt lat="47.97076" lon="6.18327">
        <ele>261.1006</ele>
        <time>2026-05-17T11:06:48+02:00</time>
      </trkpt>
      <trkpt lat="47.97075" lon="6.18336">
        <ele>261.2998</ele>
        <time>2026-05-17T11:06:49+02:00</time>
      </trkpt>
      <trkpt lat="47.97073" lon="6.18345">
        <ele>261.4004</ele>
        <time>2026-05-17T11:06:50+02:00</time>
      </trkpt>
      <trkpt lat="47.97071" lon="6.18355">
        <ele>261.6006</ele>
        <time>2026-05-17T11:06:51+02:00</time>
      </trkpt>
      <trkpt lat="47.9707" lon="6.18364">
        <ele>261.7998</ele>
        <time>2026-05-17T11:06:52+02:00</time>
      </trkpt>
      <trkpt lat="47.97068" lon="6.18373">
        <ele>262</ele>
        <time>2026-05-17T11:06:53+02:00</time>
      </trkpt>
      <trkpt lat="47.97067" lon="6.18382">
        <ele>262</ele>
        <time>2026-05-17T11:06:54+02:00</time>
      </trkpt>
      <trkpt lat="47.97065" lon="6.18391">
        <ele>262.1006</ele>
        <time>2026-05-17T11:06:55+02:00</time>
      </trkpt>
      <trkpt lat="47.97064" lon="6.184">
        <ele>262.2002</ele>
        <time>2026-05-17T11:06:56+02:00</time>
      </trkpt>
      <trkpt lat="47.97063" lon="6.18408">
        <ele>262.2998</ele>
        <time>2026-05-17T11:06:57+02:00</time>
      </trkpt>
      <trkpt lat="47.97062" lon="6.18416">
        <ele>262.2998</ele>
        <time>2026-05-17T11:06:58+02:00</time>
      </trkpt>
      <trkpt lat="47.97061" lon="6.18425">
        <ele>261.9004</ele>
        <time>2026-05-17T11:06:59+02:00</time>
      </trkpt>
      <trkpt lat="47.97059" lon="6.18433">
        <ele>261.7998</ele>
        <time>2026-05-17T11:07:00+02:00</time>
      </trkpt>
      <trkpt lat="47.97057" lon="6.18442">
        <ele>261.6006</ele>
        <time>2026-05-17T11:07:01+02:00</time>
      </trkpt>
      <trkpt lat="47.97056" lon="6.1845">
        <ele>261.1006</ele>
        <time>2026-05-17T11:07:02+02:00</time>
      </trkpt>
      <trkpt lat="47.97055" lon="6.18459">
        <ele>261</ele>
        <time>2026-05-17T11:07:03+02:00</time>
      </trkpt>
      <trkpt lat="47.97054" lon="6.18468">
        <ele>261</ele>
        <time>2026-05-17T11:07:04+02:00</time>
      </trkpt>
      <trkpt lat="47.97053" lon="6.18477">
        <ele>261</ele>
        <time>2026-05-17T11:07:05+02:00</time>
      </trkpt>
      <trkpt lat="47.97051" lon="6.18485">
        <ele>261</ele>
        <time>2026-05-17T11:07:06+02:00</time>
      </trkpt>
      <trkpt lat="47.9705" lon="6.18494">
        <ele>260.7998</ele>
        <time>2026-05-17T11:07:07+02:00</time>
      </trkpt>
      <trkpt lat="47.97049" lon="6.18503">
        <ele>260.7002</ele>
        <time>2026-05-17T11:07:08+02:00</time>
      </trkpt>
      <trkpt lat="47.97048" lon="6.18511">
        <ele>260.6006</ele>
        <time>2026-05-17T11:07:09+02:00</time>
      </trkpt>
      <trkpt lat="47.97046" lon="6.1852">
        <ele>260.6006</ele>
        <time>2026-05-17T11:07:10+02:00</time>
      </trkpt>
      <trkpt lat="47.97044" lon="6.18529">
        <ele>260.2002</ele>
        <time>2026-05-17T11:07:11+02:00</time>
      </trkpt>
      <trkpt lat="47.97043" lon="6.18538">
        <ele>260.1006</ele>
        <time>2026-05-17T11:07:12+02:00</time>
      </trkpt>
      <trkpt lat="47.97041" lon="6.18546">
        <ele>260</ele>
        <time>2026-05-17T11:07:13+02:00</time>
      </trkpt>
      <trkpt lat="47.9704" lon="6.18555">
        <ele>260</ele>
        <time>2026-05-17T11:07:14+02:00</time>
      </trkpt>
      <trkpt lat="47.97039" lon="6.18564">
        <ele>259.9004</ele>
        <time>2026-05-17T11:07:15+02:00</time>
      </trkpt>
      <trkpt lat="47.97038" lon="6.18573">
        <ele>259.2998</ele>
        <time>2026-05-17T11:07:16+02:00</time>
      </trkpt>
      <trkpt lat="47.97036" lon="6.18582">
        <ele>259.1006</ele>
        <time>2026-05-17T11:07:17+02:00</time>
      </trkpt>
      <trkpt lat="47.97035" lon="6.18591">
        <ele>259</ele>
        <time>2026-05-17T11:07:18+02:00</time>
      </trkpt>
      <trkpt lat="47.97035" lon="6.186">
        <ele>259.1006</ele>
        <time>2026-05-17T11:07:19+02:00</time>
      </trkpt>
      <trkpt lat="47.97033" lon="6.18608">
        <ele>259</ele>
        <time>2026-05-17T11:07:20+02:00</time>
      </trkpt>
      <trkpt lat="47.97032" lon="6.18615">
        <ele>259</ele>
        <time>2026-05-17T11:07:21+02:00</time>
      </trkpt>
      <trkpt lat="47.9703" lon="6.18623">
        <ele>259.1006</ele>
        <time>2026-05-17T11:07:22+02:00</time>
      </trkpt>
      <trkpt lat="47.97029" lon="6.1863">
        <ele>259.1006</ele>
        <time>2026-05-17T11:07:23+02:00</time>
      </trkpt>
      <trkpt lat="47.97028" lon="6.18638">
        <ele>259</ele>
        <time>2026-05-17T11:07:24+02:00</time>
      </trkpt>
      <trkpt lat="47.97028" lon="6.18645">
        <ele>258.9004</ele>
        <time>2026-05-17T11:07:25+02:00</time>
      </trkpt>
      <trkpt lat="47.97026" lon="6.18652">
        <ele>258.4004</ele>
        <time>2026-05-17T11:07:26+02:00</time>
      </trkpt>
      <trkpt lat="47.97024" lon="6.18659">
        <ele>258.4004</ele>
        <time>2026-05-17T11:07:27+02:00</time>
      </trkpt>
      <trkpt lat="47.97023" lon="6.18666">
        <ele>258.5</ele>
        <time>2026-05-17T11:07:28+02:00</time>
      </trkpt>
      <trkpt lat="47.97021" lon="6.18673">
        <ele>258.5</ele>
        <time>2026-05-17T11:07:29+02:00</time>
      </trkpt>
      <trkpt lat="47.9702" lon="6.18681">
        <ele>258.7998</ele>
        <time>2026-05-17T11:07:30+02:00</time>
      </trkpt>
      <trkpt lat="47.97019" lon="6.18689">
        <ele>259.1006</ele>
        <time>2026-05-17T11:07:31+02:00</time>
      </trkpt>
      <trkpt lat="47.97017" lon="6.18697">
        <ele>259.4004</ele>
        <time>2026-05-17T11:07:32+02:00</time>
      </trkpt>
      <trkpt lat="47.97016" lon="6.18706">
        <ele>259.6006</ele>
        <time>2026-05-17T11:07:33+02:00</time>
      </trkpt>
      <trkpt lat="47.97014" lon="6.18714">
        <ele>259.7002</ele>
        <time>2026-05-17T11:07:34+02:00</time>
      </trkpt>
      <trkpt lat="47.97013" lon="6.18723">
        <ele>259.9004</ele>
        <time>2026-05-17T11:07:35+02:00</time>
      </trkpt>
      <trkpt lat="47.97012" lon="6.18732">
        <ele>260.1006</ele>
        <time>2026-05-17T11:07:36+02:00</time>
      </trkpt>
      <trkpt lat="47.9701" lon="6.18742">
        <ele>260.2998</ele>
        <time>2026-05-17T11:07:37+02:00</time>
      </trkpt>
      <trkpt lat="47.97009" lon="6.18751">
        <ele>260.2998</ele>
        <time>2026-05-17T11:07:38+02:00</time>
      </trkpt>
      <trkpt lat="47.97008" lon="6.18761">
        <ele>260.4004</ele>
        <time>2026-05-17T11:07:39+02:00</time>
      </trkpt>
      <trkpt lat="47.97006" lon="6.1877">
        <ele>260.4004</ele>
        <time>2026-05-17T11:07:40+02:00</time>
      </trkpt>
      <trkpt lat="47.97004" lon="6.1878">
        <ele>259.9004</ele>
        <time>2026-05-17T11:07:41+02:00</time>
      </trkpt>
      <trkpt lat="47.97003" lon="6.18789">
        <ele>259.7998</ele>
        <time>2026-05-17T11:07:42+02:00</time>
      </trkpt>
      <trkpt lat="47.97001" lon="6.18799">
        <ele>259.7998</ele>
        <time>2026-05-17T11:07:43+02:00</time>
      </trkpt>
      <trkpt lat="47.96999" lon="6.18808">
        <ele>259.9004</ele>
        <time>2026-05-17T11:07:44+02:00</time>
      </trkpt>
      <trkpt lat="47.96998" lon="6.18817">
        <ele>260.1006</ele>
        <time>2026-05-17T11:07:45+02:00</time>
      </trkpt>
      <trkpt lat="47.96997" lon="6.18827">
        <ele>260.1006</ele>
        <time>2026-05-17T11:07:46+02:00</time>
      </trkpt>
      <trkpt lat="47.96995" lon="6.18836">
        <ele>260.2998</ele>
        <time>2026-05-17T11:07:47+02:00</time>
      </trkpt>
      <trkpt lat="47.96994" lon="6.18846">
        <ele>260.4004</ele>
        <time>2026-05-17T11:07:48+02:00</time>
      </trkpt>
      <trkpt lat="47.96992" lon="6.18855">
        <ele>260.6006</ele>
        <time>2026-05-17T11:07:49+02:00</time>
      </trkpt>
      <trkpt lat="47.96991" lon="6.18865">
        <ele>260.7998</ele>
        <time>2026-05-17T11:07:50+02:00</time>
      </trkpt>
      <trkpt lat="47.9699" lon="6.18874">
        <ele>260.9004</ele>
        <time>2026-05-17T11:07:51+02:00</time>
      </trkpt>
      <trkpt lat="47.96988" lon="6.18883">
        <ele>261</ele>
        <time>2026-05-17T11:07:52+02:00</time>
      </trkpt>
      <trkpt lat="47.96987" lon="6.18892">
        <ele>261.1006</ele>
        <time>2026-05-17T11:07:53+02:00</time>
      </trkpt>
      <trkpt lat="47.96985" lon="6.18901">
        <ele>261</ele>
        <time>2026-05-17T11:07:54+02:00</time>
      </trkpt>
      <trkpt lat="47.96983" lon="6.18911">
        <ele>260.9004</ele>
        <time>2026-05-17T11:07:55+02:00</time>
      </trkpt>
      <trkpt lat="47.96982" lon="6.1892">
        <ele>260.7002</ele>
        <time>2026-05-17T11:07:56+02:00</time>
      </trkpt>
      <trkpt lat="47.9698" lon="6.18929">
        <ele>260.7002</ele>
        <time>2026-05-17T11:07:57+02:00</time>
      </trkpt>
      <trkpt lat="47.96979" lon="6.18938">
        <ele>260.7002</ele>
        <time>2026-05-17T11:07:58+02:00</time>
      </trkpt>
      <trkpt lat="47.96978" lon="6.18947">
        <ele>260.7998</ele>
        <time>2026-05-17T11:07:59+02:00</time>
      </trkpt>
      <trkpt lat="47.96977" lon="6.18957">
        <ele>260.9004</ele>
        <time>2026-05-17T11:08:00+02:00</time>
      </trkpt>
      <trkpt lat="47.96976" lon="6.18966">
        <ele>261.1006</ele>
        <time>2026-05-17T11:08:01+02:00</time>
      </trkpt>
      <trkpt lat="47.96975" lon="6.18975">
        <ele>261.4004</ele>
        <time>2026-05-17T11:08:02+02:00</time>
      </trkpt>
      <trkpt lat="47.96974" lon="6.18985">
        <ele>261.7002</ele>
        <time>2026-05-17T11:08:03+02:00</time>
      </trkpt>
      <trkpt lat="47.96973" lon="6.18995">
        <ele>262.1006</ele>
        <time>2026-05-17T11:08:04+02:00</time>
      </trkpt>
      <trkpt lat="47.96972" lon="6.19004">
        <ele>262.2998</ele>
        <time>2026-05-17T11:08:05+02:00</time>
      </trkpt>
      <trkpt lat="47.96971" lon="6.19014">
        <ele>262.5</ele>
        <time>2026-05-17T11:08:06+02:00</time>
      </trkpt>
      <trkpt lat="47.9697" lon="6.19024">
        <ele>262.7002</ele>
        <time>2026-05-17T11:08:07+02:00</time>
      </trkpt>
      <trkpt lat="47.96969" lon="6.19033">
        <ele>262.7002</ele>
        <time>2026-05-17T11:08:08+02:00</time>
      </trkpt>
      <trkpt lat="47.96968" lon="6.19043">
        <ele>262.7998</ele>
        <time>2026-05-17T11:08:09+02:00</time>
      </trkpt>
      <trkpt lat="47.96967" lon="6.19052">
        <ele>262.9004</ele>
        <time>2026-05-17T11:08:10+02:00</time>
      </trkpt>
      <trkpt lat="47.96966" lon="6.19062">
        <ele>262.9004</ele>
        <time>2026-05-17T11:08:11+02:00</time>
      </trkpt>
      <trkpt lat="47.96965" lon="6.19072">
        <ele>263</ele>
        <time>2026-05-17T11:08:12+02:00</time>
      </trkpt>
      <trkpt lat="47.96963" lon="6.19082">
        <ele>262.9004</ele>
        <time>2026-05-17T11:08:13+02:00</time>
      </trkpt>
      <trkpt lat="47.96962" lon="6.19092">
        <ele>263</ele>
        <time>2026-05-17T11:08:14+02:00</time>
      </trkpt>
      <trkpt lat="47.96961" lon="6.19102">
        <ele>263.1006</ele>
        <time>2026-05-17T11:08:15+02:00</time>
      </trkpt>
      <trkpt lat="47.9696" lon="6.19112">
        <ele>263.1006</ele>
        <time>2026-05-17T11:08:16+02:00</time>
      </trkpt>
      <trkpt lat="47.96959" lon="6.19122">
        <ele>263.2002</ele>
        <time>2026-05-17T11:08:17+02:00</time>
      </trkpt>
      <trkpt lat="47.96958" lon="6.19131">
        <ele>263.5</ele>
        <time>2026-05-17T11:08:18+02:00</time>
      </trkpt>
      <trkpt lat="47.96957" lon="6.19141">
        <ele>263.7002</ele>
        <time>2026-05-17T11:08:19+02:00</time>
      </trkpt>
      <trkpt lat="47.96957" lon="6.19151">
        <ele>263.7998</ele>
        <time>2026-05-17T11:08:20+02:00</time>
      </trkpt>
      <trkpt lat="47.96958" lon="6.19162">
        <ele>263.9004</ele>
        <time>2026-05-17T11:08:21+02:00</time>
      </trkpt>
      <trkpt lat="47.96958" lon="6.19172">
        <ele>263.9004</ele>
        <time>2026-05-17T11:08:22+02:00</time>
      </trkpt>
      <trkpt lat="47.9696" lon="6.19182">
        <ele>263.4004</ele>
        <time>2026-05-17T11:08:23+02:00</time>
      </trkpt>
      <trkpt lat="47.96961" lon="6.19192">
        <ele>263.4004</ele>
        <time>2026-05-17T11:08:24+02:00</time>
      </trkpt>
      <trkpt lat="47.96963" lon="6.19201">
        <ele>263.4004</ele>
        <time>2026-05-17T11:08:25+02:00</time>
      </trkpt>
      <trkpt lat="47.96965" lon="6.19211">
        <ele>263.1006</ele>
        <time>2026-05-17T11:08:26+02:00</time>
      </trkpt>
      <trkpt lat="47.96967" lon="6.1922">
        <ele>263.2002</ele>
        <time>2026-05-17T11:08:27+02:00</time>
      </trkpt>
      <trkpt lat="47.9697" lon="6.1923">
        <ele>263</ele>
        <time>2026-05-17T11:08:28+02:00</time>
      </trkpt>
      <trkpt lat="47.96972" lon="6.19239">
        <ele>263.2002</ele>
        <time>2026-05-17T11:08:29+02:00</time>
      </trkpt>
      <trkpt lat="47.96975" lon="6.19248">
        <ele>263.4004</ele>
        <time>2026-05-17T11:08:30+02:00</time>
      </trkpt>
      <trkpt lat="47.96978" lon="6.19258">
        <ele>263.2002</ele>
        <time>2026-05-17T11:08:31+02:00</time>
      </trkpt>
      <trkpt lat="47.9698" lon="6.19267">
        <ele>263.6006</ele>
        <time>2026-05-17T11:08:32+02:00</time>
      </trkpt>
      <trkpt lat="47.96983" lon="6.19276">
        <ele>263.6006</ele>
        <time>2026-05-17T11:08:33+02:00</time>
      </trkpt>
      <trkpt lat="47.96987" lon="6.19285">
        <ele>263.7998</ele>
        <time>2026-05-17T11:08:34+02:00</time>
      </trkpt>
      <trkpt lat="47.9699" lon="6.19294">
        <ele>264.4004</ele>
        <time>2026-05-17T11:08:35+02:00</time>
      </trkpt>
      <trkpt lat="47.96993" lon="6.19302">
        <ele>264.9004</ele>
        <time>2026-05-17T11:08:36+02:00</time>
      </trkpt>
      <trkpt lat="47.96997" lon="6.19311">
        <ele>265.4004</ele>
        <time>2026-05-17T11:08:37+02:00</time>
      </trkpt>
      <trkpt lat="47.97001" lon="6.19319">
        <ele>265.7998</ele>
        <time>2026-05-17T11:08:38+02:00</time>
      </trkpt>
      <trkpt lat="47.97004" lon="6.19328">
        <ele>266.4004</ele>
        <time>2026-05-17T11:08:39+02:00</time>
      </trkpt>
      <trkpt lat="47.97009" lon="6.19336">
        <ele>266.7002</ele>
        <time>2026-05-17T11:08:40+02:00</time>
      </trkpt>
      <trkpt lat="47.97013" lon="6.19344">
        <ele>267.1006</ele>
        <time>2026-05-17T11:08:41+02:00</time>
      </trkpt>
      <trkpt lat="47.97017" lon="6.19351">
        <ele>267.7002</ele>
        <time>2026-05-17T11:08:42+02:00</time>
      </trkpt>
      <trkpt lat="47.97022" lon="6.19358">
        <ele>268.6006</ele>
        <time>2026-05-17T11:08:43+02:00</time>
      </trkpt>
      <trkpt lat="47.97027" lon="6.19365">
        <ele>269.7002</ele>
        <time>2026-05-17T11:08:44+02:00</time>
      </trkpt>
      <trkpt lat="47.97032" lon="6.19371">
        <ele>269.7002</ele>
        <time>2026-05-17T11:08:45+02:00</time>
      </trkpt>
      <trkpt lat="47.97038" lon="6.19377">
        <ele>271</ele>
        <time>2026-05-17T11:08:46+02:00</time>
      </trkpt>
      <trkpt lat="47.97043" lon="6.19383">
        <ele>272</ele>
        <time>2026-05-17T11:08:47+02:00</time>
      </trkpt>
      <trkpt lat="47.97048" lon="6.19389">
        <ele>272.9004</ele>
        <time>2026-05-17T11:08:48+02:00</time>
      </trkpt>
      <trkpt lat="47.97054" lon="6.19395">
        <ele>272.9004</ele>
        <time>2026-05-17T11:08:49+02:00</time>
      </trkpt>
      <trkpt lat="47.97059" lon="6.194">
        <ele>273.9004</ele>
        <time>2026-05-17T11:08:50+02:00</time>
      </trkpt>
      <trkpt lat="47.97065" lon="6.19405">
        <ele>274</ele>
        <time>2026-05-17T11:08:51+02:00</time>
      </trkpt>
      <trkpt lat="47.97071" lon="6.19411">
        <ele>274.6006</ele>
        <time>2026-05-17T11:08:52+02:00</time>
      </trkpt>
      <trkpt lat="47.97077" lon="6.19416">
        <ele>275</ele>
        <time>2026-05-17T11:08:53+02:00</time>
      </trkpt>
      <trkpt lat="47.97083" lon="6.1942">
        <ele>275.1006</ele>
        <time>2026-05-17T11:08:54+02:00</time>
      </trkpt>
      <trkpt lat="47.97088" lon="6.19426">
        <ele>275.5</ele>
        <time>2026-05-17T11:08:55+02:00</time>
      </trkpt>
      <trkpt lat="47.97094" lon="6.19431">
        <ele>275.5</ele>
        <time>2026-05-17T11:08:56+02:00</time>
      </trkpt>
      <trkpt lat="47.971" lon="6.19436">
        <ele>274.9004</ele>
        <time>2026-05-17T11:08:57+02:00</time>
      </trkpt>
      <trkpt lat="47.97106" lon="6.19441">
        <ele>274.4004</ele>
        <time>2026-05-17T11:08:58+02:00</time>
      </trkpt>
      <trkpt lat="47.97111" lon="6.19446">
        <ele>274.6006</ele>
        <time>2026-05-17T11:08:59+02:00</time>
      </trkpt>
      <trkpt lat="47.97117" lon="6.19451">
        <ele>274.4004</ele>
        <time>2026-05-17T11:09:00+02:00</time>
      </trkpt>
      <trkpt lat="47.97123" lon="6.19456">
        <ele>274.5</ele>
        <time>2026-05-17T11:09:01+02:00</time>
      </trkpt>
      <trkpt lat="47.97128" lon="6.19461">
        <ele>273.4004</ele>
        <time>2026-05-17T11:09:02+02:00</time>
      </trkpt>
      <trkpt lat="47.97134" lon="6.19466">
        <ele>270.6006</ele>
        <time>2026-05-17T11:09:03+02:00</time>
      </trkpt>
      <trkpt lat="47.97139" lon="6.1947">
        <ele>269.6006</ele>
        <time>2026-05-17T11:09:04+02:00</time>
      </trkpt>
      <trkpt lat="47.97145" lon="6.19475">
        <ele>266.2002</ele>
        <time>2026-05-17T11:09:05+02:00</time>
      </trkpt>
      <trkpt lat="47.97151" lon="6.1948">
        <ele>266.6006</ele>
        <time>2026-05-17T11:09:06+02:00</time>
      </trkpt>
      <trkpt lat="47.97156" lon="6.19485">
        <ele>266.7002</ele>
        <time>2026-05-17T11:09:07+02:00</time>
      </trkpt>
      <trkpt lat="47.97162" lon="6.1949">
        <ele>268.2998</ele>
        <time>2026-05-17T11:09:08+02:00</time>
      </trkpt>
      <trkpt lat="47.97168" lon="6.19495">
        <ele>266.5</ele>
        <time>2026-05-17T11:09:09+02:00</time>
      </trkpt>
      <trkpt lat="47.97173" lon="6.195">
        <ele>266.9004</ele>
        <time>2026-05-17T11:09:10+02:00</time>
      </trkpt>
      <trkpt lat="47.97179" lon="6.19505">
        <ele>265.2998</ele>
        <time>2026-05-17T11:09:11+02:00</time>
      </trkpt>
      <trkpt lat="47.97185" lon="6.1951">
        <ele>264.6006</ele>
        <time>2026-05-17T11:09:12+02:00</time>
      </trkpt>
      <trkpt lat="47.97191" lon="6.19515">
        <ele>265.4004</ele>
        <time>2026-05-17T11:09:13+02:00</time>
      </trkpt>
      <trkpt lat="47.97197" lon="6.1952">
        <ele>264.2998</ele>
        <time>2026-05-17T11:09:14+02:00</time>
      </trkpt>
      <trkpt lat="47.97203" lon="6.19525">
        <ele>264.5</ele>
        <time>2026-05-17T11:09:15+02:00</time>
      </trkpt>
      <trkpt lat="47.97209" lon="6.1953">
        <ele>263.6006</ele>
        <time>2026-05-17T11:09:16+02:00</time>
      </trkpt>
      <trkpt lat="47.97215" lon="6.19534">
        <ele>263.7998</ele>
        <time>2026-05-17T11:09:17+02:00</time>
      </trkpt>
      <trkpt lat="47.97221" lon="6.19539">
        <ele>263.1006</ele>
        <time>2026-05-17T11:09:18+02:00</time>
      </trkpt>
      <trkpt lat="47.97226" lon="6.19544">
        <ele>262.5</ele>
        <time>2026-05-17T11:09:19+02:00</time>
      </trkpt>
      <trkpt lat="47.97233" lon="6.19548">
        <ele>262.7002</ele>
        <time>2026-05-17T11:09:20+02:00</time>
      </trkpt>
      <trkpt lat="47.97238" lon="6.19553">
        <ele>262.2002</ele>
        <time>2026-05-17T11:09:21+02:00</time>
      </trkpt>
      <trkpt lat="47.97244" lon="6.19557">
        <ele>262.4004</ele>
        <time>2026-05-17T11:09:22+02:00</time>
      </trkpt>
      <trkpt lat="47.9725" lon="6.19562">
        <ele>262.1006</ele>
        <time>2026-05-17T11:09:23+02:00</time>
      </trkpt>
      <trkpt lat="47.97255" lon="6.19566">
        <ele>262.4004</ele>
        <time>2026-05-17T11:09:24+02:00</time>
      </trkpt>
      <trkpt lat="47.9726" lon="6.1957">
        <ele>262.2998</ele>
        <time>2026-05-17T11:09:25+02:00</time>
      </trkpt>
      <trkpt lat="47.97265" lon="6.19573">
        <ele>262.6006</ele>
        <time>2026-05-17T11:09:26+02:00</time>
      </trkpt>
      <trkpt lat="47.97267" lon="6.19575">
        <ele>262.6006</ele>
        <time>2026-05-17T11:09:27+02:00</time>
      </trkpt>
      <trkpt lat="47.97268" lon="6.19576">
        <ele>262.6006</ele>
        <time>2026-05-17T11:09:28+02:00</time>
      </trkpt>
      <trkpt lat="47.97269" lon="6.19577">
        <ele>262.9004</ele>
        <time>2026-05-17T11:09:29+02:00</time>
      </trkpt>
      <trkpt lat="47.9727" lon="6.19578">
        <ele>262.5</ele>
        <time>2026-05-17T11:09:30+02:00</time>
      </trkpt>
      <trkpt lat="47.9727" lon="6.19581">
        <ele>262.5</ele>
        <time>2026-05-17T11:09:31+02:00</time>
      </trkpt>
      <trkpt lat="47.97269" lon="6.19583">
        <ele>262.5</ele>
        <time>2026-05-17T11:09:32+02:00</time>
      </trkpt>
      <trkpt lat="47.97268" lon="6.19586">
        <ele>262.2002</ele>
        <time>2026-05-17T11:09:33+02:00</time>
      </trkpt>
      <trkpt lat="47.97267" lon="6.1959">
        <ele>261.7002</ele>
        <time>2026-05-17T11:09:34+02:00</time>
      </trkpt>
      <trkpt lat="47.97265" lon="6.19594">
        <ele>261.7002</ele>
        <time>2026-05-17T11:09:35+02:00</time>
      </trkpt>
      <trkpt lat="47.97263" lon="6.19598">
        <ele>261.2998</ele>
        <time>2026-05-17T11:09:36+02:00</time>
      </trkpt>
      <trkpt lat="47.9726" lon="6.19604">
        <ele>260.7998</ele>
        <time>2026-05-17T11:09:37+02:00</time>
      </trkpt>
      <trkpt lat="47.97259" lon="6.1961">
        <ele>260.7998</ele>
        <time>2026-05-17T11:09:38+02:00</time>
      </trkpt>
      <trkpt lat="47.97257" lon="6.19618">
        <ele>260.7998</ele>
        <time>2026-05-17T11:09:39+02:00</time>
      </trkpt>
      <trkpt lat="47.97257" lon="6.19626">
        <ele>261.1006</ele>
        <time>2026-05-17T11:09:40+02:00</time>
      </trkpt>
      <trkpt lat="47.97258" lon="6.19634">
        <ele>261.4004</ele>
        <time>2026-05-17T11:09:41+02:00</time>
      </trkpt>
      <trkpt lat="47.97262" lon="6.19642">
        <ele>261.7998</ele>
        <time>2026-05-17T11:09:42+02:00</time>
      </trkpt>
      <trkpt lat="47.97266" lon="6.19648">
        <ele>261.9004</ele>
        <time>2026-05-17T11:09:43+02:00</time>
      </trkpt>
      <trkpt lat="47.97271" lon="6.19653">
        <ele>261.6006</ele>
        <time>2026-05-17T11:09:44+02:00</time>
      </trkpt>
      <trkpt lat="47.97275" lon="6.19657">
        <ele>261.6006</ele>
        <time>2026-05-17T11:09:45+02:00</time>
      </trkpt>
      <trkpt lat="47.97279" lon="6.19661">
        <ele>261.6006</ele>
        <time>2026-05-17T11:09:46+02:00</time>
      </trkpt>
      <trkpt lat="47.97283" lon="6.19666">
        <ele>261.9004</ele>
        <time>2026-05-17T11:09:47+02:00</time>
      </trkpt>
      <trkpt lat="47.97287" lon="6.1967">
        <ele>261.7002</ele>
        <time>2026-05-17T11:09:48+02:00</time>
      </trkpt>
      <trkpt lat="47.97291" lon="6.19674">
        <ele>262</ele>
        <time>2026-05-17T11:09:49+02:00</time>
      </trkpt>
      <trkpt lat="47.97296" lon="6.19678">
        <ele>261.6006</ele>
        <time>2026-05-17T11:09:50+02:00</time>
      </trkpt>
      <trkpt lat="47.973" lon="6.19681">
        <ele>261.4004</ele>
        <time>2026-05-17T11:09:51+02:00</time>
      </trkpt>
      <trkpt lat="47.97304" lon="6.19685">
        <ele>261.2002</ele>
        <time>2026-05-17T11:09:52+02:00</time>
      </trkpt>
      <trkpt lat="47.97308" lon="6.19689">
        <ele>261.2002</ele>
        <time>2026-05-17T11:09:53+02:00</time>
      </trkpt>
      <trkpt lat="47.97312" lon="6.19693">
        <ele>261.2998</ele>
        <time>2026-05-17T11:09:54+02:00</time>
      </trkpt>
      <trkpt lat="47.97316" lon="6.19698">
        <ele>261.2998</ele>
        <time>2026-05-17T11:09:55+02:00</time>
      </trkpt>
      <trkpt lat="47.9732" lon="6.19703">
        <ele>261.2998</ele>
        <time>2026-05-17T11:09:56+02:00</time>
      </trkpt>
      <trkpt lat="47.97323" lon="6.19708">
        <ele>261</ele>
        <time>2026-05-17T11:09:57+02:00</time>
      </trkpt>
      <trkpt lat="47.97326" lon="6.19713">
        <ele>261</ele>
        <time>2026-05-17T11:09:58+02:00</time>
      </trkpt>
      <trkpt lat="47.97329" lon="6.19718">
        <ele>261</ele>
        <time>2026-05-17T11:09:59+02:00</time>
      </trkpt>
      <trkpt lat="47.97331" lon="6.19724">
        <ele>261.2998</ele>
        <time>2026-05-17T11:10:00+02:00</time>
      </trkpt>
      <trkpt lat="47.97334" lon="6.19728">
        <ele>261.2002</ele>
        <time>2026-05-17T11:10:01+02:00</time>
      </trkpt>
      <trkpt lat="47.97336" lon="6.19731">
        <ele>261.2002</ele>
        <time>2026-05-17T11:10:02+02:00</time>
      </trkpt>
      <trkpt lat="47.97338" lon="6.19734">
        <ele>261.2002</ele>
        <time>2026-05-17T11:10:03+02:00</time>
      </trkpt>
      <trkpt lat="47.9734" lon="6.19737">
        <ele>261.2002</ele>
        <time>2026-05-17T11:10:04+02:00</time>
      </trkpt>
      <trkpt lat="47.97342" lon="6.19741">
        <ele>261.4004</ele>
        <time>2026-05-17T11:10:05+02:00</time>
      </trkpt>
      <trkpt lat="47.97344" lon="6.19745">
        <ele>260.9004</ele>
        <time>2026-05-17T11:10:06+02:00</time>
      </trkpt>
      <trkpt lat="47.97345" lon="6.19748">
        <ele>260.9004</ele>
        <time>2026-05-17T11:10:07+02:00</time>
      </trkpt>
      <trkpt lat="47.97347" lon="6.19751">
        <ele>261.2002</ele>
        <time>2026-05-17T11:10:08+02:00</time>
      </trkpt>
      <trkpt lat="47.97349" lon="6.19754">
        <ele>260.9004</ele>
        <time>2026-05-17T11:10:09+02:00</time>
      </trkpt>
      <trkpt lat="47.97352" lon="6.19757">
        <ele>260.9004</ele>
        <time>2026-05-17T11:10:10+02:00</time>
      </trkpt>
      <trkpt lat="47.97353" lon="6.1976">
        <ele>261.4004</ele>
        <time>2026-05-17T11:10:11+02:00</time>
      </trkpt>
      <trkpt lat="47.97353" lon="6.19763">
        <ele>261.4004</ele>
        <time>2026-05-17T11:10:12+02:00</time>
      </trkpt>
      <trkpt lat="47.97353" lon="6.19767">
        <ele>261.9004</ele>
        <time>2026-05-17T11:10:13+02:00</time>
      </trkpt>
      <trkpt lat="47.97354" lon="6.19771">
        <ele>261.9004</ele>
        <time>2026-05-17T11:10:14+02:00</time>
      </trkpt>
      <trkpt lat="47.97354" lon="6.19774">
        <ele>261.9004</ele>
        <time>2026-05-17T11:10:15+02:00</time>
      </trkpt>
      <trkpt lat="47.97354" lon="6.19778">
        <ele>262.2998</ele>
        <time>2026-05-17T11:10:16+02:00</time>
      </trkpt>
      <trkpt lat="47.97355" lon="6.19781">
        <ele>262.1006</ele>
        <time>2026-05-17T11:10:17+02:00</time>
      </trkpt>
      <trkpt lat="47.97355" lon="6.19785">
        <ele>262.5</ele>
        <time>2026-05-17T11:10:18+02:00</time>
      </trkpt>
      <trkpt lat="47.97357" lon="6.19788">
        <ele>262.5</ele>
        <time>2026-05-17T11:10:19+02:00</time>
      </trkpt>
      <trkpt lat="47.97357" lon="6.19792">
        <ele>262.9004</ele>
        <time>2026-05-17T11:10:20+02:00</time>
      </trkpt>
      <trkpt lat="47.97358" lon="6.19795">
        <ele>262.9004</ele>
        <time>2026-05-17T11:10:21+02:00</time>
      </trkpt>
      <trkpt lat="47.97358" lon="6.19798">
        <ele>262.9004</ele>
        <time>2026-05-17T11:10:22+02:00</time>
      </trkpt>
      <trkpt lat="47.97359" lon="6.19801">
        <ele>263.2998</ele>
        <time>2026-05-17T11:10:23+02:00</time>
      </trkpt>
      <trkpt lat="47.9736" lon="6.19804">
        <ele>263.2998</ele>
        <time>2026-05-17T11:10:24+02:00</time>
      </trkpt>
      <trkpt lat="47.97361" lon="6.19808">
        <ele>262.9004</ele>
        <time>2026-05-17T11:10:25+02:00</time>
      </trkpt>
      <trkpt lat="47.97362" lon="6.19812">
        <ele>263.2002</ele>
        <time>2026-05-17T11:10:26+02:00</time>
      </trkpt>
      <trkpt lat="47.97363" lon="6.19815">
        <ele>263.2002</ele>
        <time>2026-05-17T11:10:27+02:00</time>
      </trkpt>
      <trkpt lat="47.97364" lon="6.19818">
        <ele>263.5</ele>
        <time>2026-05-17T11:10:28+02:00</time>
      </trkpt>
      <trkpt lat="47.97365" lon="6.1982">
        <ele>263.5</ele>
        <time>2026-05-17T11:10:29+02:00</time>
      </trkpt>
      <trkpt lat="47.97366" lon="6.19822">
        <ele>263.5</ele>
        <time>2026-05-17T11:10:30+02:00</time>
      </trkpt>
      <trkpt lat="47.97367" lon="6.19824">
        <ele>263.2002</ele>
        <time>2026-05-17T11:10:31+02:00</time>
      </trkpt>
      <trkpt lat="47.97368" lon="6.19825">
        <ele>263.2002</ele>
        <time>2026-05-17T11:10:32+02:00</time>
      </trkpt>
      <trkpt lat="47.97369" lon="6.19826">
        <ele>263.2002</ele>
        <time>2026-05-17T11:10:33+02:00</time>
      </trkpt>
      <trkpt lat="47.9737" lon="6.19828">
        <ele>263.7002</ele>
        <time>2026-05-17T11:10:34+02:00</time>
      </trkpt>
      <trkpt lat="47.9737" lon="6.19829">
        <ele>263.7002</ele>
        <time>2026-05-17T11:10:35+02:00</time>
      </trkpt>
      <trkpt lat="47.9737" lon="6.19829">
        <ele>263.7002</ele>
        <time>2026-05-17T11:10:36+02:00</time>
      </trkpt>
      <trkpt lat="47.9737" lon="6.19829">
        <ele>263.7002</ele>
        <time>2026-05-17T11:10:37+02:00</time>
      </trkpt>
      <trkpt lat="47.97387" lon="6.19839">
        <ele>263.4004</ele>
        <time>2026-05-17T11:11:11+02:00</time>
      </trkpt>
      <trkpt lat="47.97389" lon="6.19842">
        <ele>263.4004</ele>
        <time>2026-05-17T11:11:12+02:00</time>
      </trkpt>
      <trkpt lat="47.97391" lon="6.19846">
        <ele>263.2002</ele>
        <time>2026-05-17T11:11:13+02:00</time>
      </trkpt>
      <trkpt lat="47.97394" lon="6.1985">
        <ele>263.2002</ele>
        <time>2026-05-17T11:11:14+02:00</time>
      </trkpt>
      <trkpt lat="47.97396" lon="6.19854">
        <ele>263</ele>
        <time>2026-05-17T11:11:15+02:00</time>
      </trkpt>
      <trkpt lat="47.97398" lon="6.19858">
        <ele>263</ele>
        <time>2026-05-17T11:11:16+02:00</time>
      </trkpt>
      <trkpt lat="47.974" lon="6.19862">
        <ele>263.4004</ele>
        <time>2026-05-17T11:11:17+02:00</time>
      </trkpt>
      <trkpt lat="47.97403" lon="6.19866">
        <ele>263</ele>
        <time>2026-05-17T11:11:18+02:00</time>
      </trkpt>
      <trkpt lat="47.97406" lon="6.19869">
        <ele>263</ele>
        <time>2026-05-17T11:11:19+02:00</time>
      </trkpt>
      <trkpt lat="47.97408" lon="6.19873">
        <ele>262.9004</ele>
        <time>2026-05-17T11:11:20+02:00</time>
      </trkpt>
      <trkpt lat="47.97411" lon="6.19875">
        <ele>262.9004</ele>
        <time>2026-05-17T11:11:21+02:00</time>
      </trkpt>
      <trkpt lat="47.97414" lon="6.19878">
        <ele>262.7998</ele>
        <time>2026-05-17T11:11:22+02:00</time>
      </trkpt>
      <trkpt lat="47.97416" lon="6.1988">
        <ele>262.7998</ele>
        <time>2026-05-17T11:11:23+02:00</time>
      </trkpt>
      <trkpt lat="47.97419" lon="6.19882">
        <ele>262.4004</ele>
        <time>2026-05-17T11:11:24+02:00</time>
      </trkpt>
      <trkpt lat="47.97422" lon="6.19885">
        <ele>262.4004</ele>
        <time>2026-05-17T11:11:25+02:00</time>
      </trkpt>
      <trkpt lat="47.97425" lon="6.19887">
        <ele>262.2002</ele>
        <time>2026-05-17T11:11:26+02:00</time>
      </trkpt>
      <trkpt lat="47.97428" lon="6.1989">
        <ele>262.2002</ele>
        <time>2026-05-17T11:11:27+02:00</time>
      </trkpt>
      <trkpt lat="47.97431" lon="6.19893">
        <ele>261.9004</ele>
        <time>2026-05-17T11:11:28+02:00</time>
      </trkpt>
      <trkpt lat="47.97434" lon="6.19895">
        <ele>262.1006</ele>
        <time>2026-05-17T11:11:29+02:00</time>
      </trkpt>
      <trkpt lat="47.97437" lon="6.19897">
        <ele>261.7998</ele>
        <time>2026-05-17T11:11:30+02:00</time>
      </trkpt>
      <trkpt lat="47.9744" lon="6.199">
        <ele>261.7998</ele>
        <time>2026-05-17T11:11:31+02:00</time>
      </trkpt>
      <trkpt lat="47.97442" lon="6.19903">
        <ele>261.6006</ele>
        <time>2026-05-17T11:11:32+02:00</time>
      </trkpt>
      <trkpt lat="47.97443" lon="6.19907">
        <ele>261.6006</ele>
        <time>2026-05-17T11:11:33+02:00</time>
      </trkpt>
      <trkpt lat="47.97444" lon="6.1991">
        <ele>261.6006</ele>
        <time>2026-05-17T11:11:34+02:00</time>
      </trkpt>
      <trkpt lat="47.97443" lon="6.19912">
        <ele>261.6006</ele>
        <time>2026-05-17T11:11:35+02:00</time>
      </trkpt>
      <trkpt lat="47.97442" lon="6.19913">
        <ele>261.6006</ele>
        <time>2026-05-17T11:11:36+02:00</time>
      </trkpt>
      <trkpt lat="47.97441" lon="6.19915">
        <ele>261.6006</ele>
        <time>2026-05-17T11:11:37+02:00</time>
      </trkpt>
      <trkpt lat="47.9744" lon="6.19916">
        <ele>261.9004</ele>
        <time>2026-05-17T11:11:38+02:00</time>
      </trkpt>
      <trkpt lat="47.97439" lon="6.19919">
        <ele>261.9004</ele>
        <time>2026-05-17T11:11:39+02:00</time>
      </trkpt>
      <trkpt lat="47.9744" lon="6.19921">
        <ele>262</ele>
        <time>2026-05-17T11:11:40+02:00</time>
      </trkpt>
      <trkpt lat="47.97441" lon="6.19924">
        <ele>261.7002</ele>
        <time>2026-05-17T11:11:41+02:00</time>
      </trkpt>
      <trkpt lat="47.97445" lon="6.19936">
        <ele>261.7002</ele>
        <time>2026-05-17T11:11:44+02:00</time>
      </trkpt>
      <trkpt lat="47.97445" lon="6.1994">
        <ele>261.7002</ele>
        <time>2026-05-17T11:11:45+02:00</time>
      </trkpt>
      <trkpt lat="47.97444" lon="6.19943">
        <ele>261.7002</ele>
        <time>2026-05-17T11:11:46+02:00</time>
      </trkpt>
      <trkpt lat="47.97442" lon="6.19947">
        <ele>261.6006</ele>
        <time>2026-05-17T11:11:47+02:00</time>
      </trkpt>
      <trkpt lat="47.9744" lon="6.1995">
        <ele>261.9004</ele>
        <time>2026-05-17T11:11:48+02:00</time>
      </trkpt>
      <trkpt lat="47.97437" lon="6.19952">
        <ele>261.9004</ele>
        <time>2026-05-17T11:11:49+02:00</time>
      </trkpt>
      <trkpt lat="47.97435" lon="6.19954">
        <ele>262.1006</ele>
        <time>2026-05-17T11:11:50+02:00</time>
      </trkpt>
      <trkpt lat="47.97433" lon="6.19956">
        <ele>261.9004</ele>
        <time>2026-05-17T11:11:51+02:00</time>
      </trkpt>
      <trkpt lat="47.97431" lon="6.19958">
        <ele>261.9004</ele>
        <time>2026-05-17T11:11:52+02:00</time>
      </trkpt>
      <trkpt lat="47.97429" lon="6.19961">
        <ele>261.9004</ele>
        <time>2026-05-17T11:11:53+02:00</time>
      </trkpt>
      <trkpt lat="47.97427" lon="6.19963">
        <ele>261.9004</ele>
        <time>2026-05-17T11:11:54+02:00</time>
      </trkpt>
      <trkpt lat="47.97426" lon="6.19964">
        <ele>261.7002</ele>
        <time>2026-05-17T11:11:55+02:00</time>
      </trkpt>
      <trkpt lat="47.97426" lon="6.19966">
        <ele>261.7002</ele>
        <time>2026-05-17T11:11:56+02:00</time>
      </trkpt>
      <trkpt lat="47.97426" lon="6.19966">
        <ele>261.7002</ele>
        <time>2026-05-17T11:11:57+02:00</time>
      </trkpt>
      <trkpt lat="47.97425" lon="6.19966">
        <ele>261.7002</ele>
        <time>2026-05-17T11:11:58+02:00</time>
      </trkpt>
      <trkpt lat="47.97428" lon="6.19989">
        <ele>261.2998</ele>
        <time>2026-05-17T11:12:45+02:00</time>
      </trkpt>
      <trkpt lat="47.9743" lon="6.19994">
        <ele>261.2002</ele>
        <time>2026-05-17T11:12:46+02:00</time>
      </trkpt>
      <trkpt lat="47.97431" lon="6.19999">
        <ele>261.1006</ele>
        <time>2026-05-17T11:12:47+02:00</time>
      </trkpt>
      <trkpt lat="47.97434" lon="6.20003">
        <ele>261.1006</ele>
        <time>2026-05-17T11:12:48+02:00</time>
      </trkpt>
      <trkpt lat="47.97436" lon="6.20008">
        <ele>261.1006</ele>
        <time>2026-05-17T11:12:49+02:00</time>
      </trkpt>
      <trkpt lat="47.97438" lon="6.20012">
        <ele>261.1006</ele>
        <time>2026-05-17T11:12:50+02:00</time>
      </trkpt>
      <trkpt lat="47.9744" lon="6.20016">
        <ele>261.2002</ele>
        <time>2026-05-17T11:12:51+02:00</time>
      </trkpt>
      <trkpt lat="47.97443" lon="6.20021">
        <ele>261.2002</ele>
        <time>2026-05-17T11:12:52+02:00</time>
      </trkpt>
      <trkpt lat="47.97445" lon="6.20026">
        <ele>261.2998</ele>
        <time>2026-05-17T11:12:53+02:00</time>
      </trkpt>
      <trkpt lat="47.97447" lon="6.20031">
        <ele>261.2998</ele>
        <time>2026-05-17T11:12:54+02:00</time>
      </trkpt>
      <trkpt lat="47.9745" lon="6.20035">
        <ele>261.4004</ele>
        <time>2026-05-17T11:12:55+02:00</time>
      </trkpt>
      <trkpt lat="47.97452" lon="6.20039">
        <ele>261.4004</ele>
        <time>2026-05-17T11:12:56+02:00</time>
      </trkpt>
      <trkpt lat="47.97455" lon="6.20044">
        <ele>261.5</ele>
        <time>2026-05-17T11:12:57+02:00</time>
      </trkpt>
      <trkpt lat="47.97458" lon="6.20048">
        <ele>261.5</ele>
        <time>2026-05-17T11:12:58+02:00</time>
      </trkpt>
      <trkpt lat="47.97461" lon="6.20053">
        <ele>261.5</ele>
        <time>2026-05-17T11:12:59+02:00</time>
      </trkpt>
      <trkpt lat="47.97464" lon="6.20057">
        <ele>261.2998</ele>
        <time>2026-05-17T11:13:00+02:00</time>
      </trkpt>
      <trkpt lat="47.97468" lon="6.20061">
        <ele>261.6006</ele>
        <time>2026-05-17T11:13:01+02:00</time>
      </trkpt>
      <trkpt lat="47.97471" lon="6.20065">
        <ele>261.2998</ele>
        <time>2026-05-17T11:13:02+02:00</time>
      </trkpt>
      <trkpt lat="47.97473" lon="6.20068">
        <ele>261.7998</ele>
        <time>2026-05-17T11:13:03+02:00</time>
      </trkpt>
      <trkpt lat="47.97476" lon="6.20071">
        <ele>261.5</ele>
        <time>2026-05-17T11:13:04+02:00</time>
      </trkpt>
      <trkpt lat="47.9748" lon="6.20073">
        <ele>261.5</ele>
        <time>2026-05-17T11:13:05+02:00</time>
      </trkpt>
      <trkpt lat="47.97483" lon="6.20074">
        <ele>261.2002</ele>
        <time>2026-05-17T11:13:06+02:00</time>
      </trkpt>
      <trkpt lat="47.97486" lon="6.20074">
        <ele>261.2002</ele>
        <time>2026-05-17T11:13:07+02:00</time>
      </trkpt>
      <trkpt lat="47.97489" lon="6.20073">
        <ele>260.7998</ele>
        <time>2026-05-17T11:13:08+02:00</time>
      </trkpt>
      <trkpt lat="47.97492" lon="6.20072">
        <ele>260.7998</ele>
        <time>2026-05-17T11:13:09+02:00</time>
      </trkpt>
      <trkpt lat="47.97495" lon="6.2007">
        <ele>260.5</ele>
        <time>2026-05-17T11:13:10+02:00</time>
      </trkpt>
      <trkpt lat="47.97497" lon="6.20067">
        <ele>260.5</ele>
        <time>2026-05-17T11:13:11+02:00</time>
      </trkpt>
      <trkpt lat="47.975" lon="6.20065">
        <ele>259.9004</ele>
        <time>2026-05-17T11:13:12+02:00</time>
      </trkpt>
      <trkpt lat="47.97502" lon="6.20064">
        <ele>259.9004</ele>
        <time>2026-05-17T11:13:13+02:00</time>
      </trkpt>
      <trkpt lat="47.97504" lon="6.20061">
        <ele>259.9004</ele>
        <time>2026-05-17T11:13:14+02:00</time>
      </trkpt>
      <trkpt lat="47.97506" lon="6.20058">
        <ele>259.7998</ele>
        <time>2026-05-17T11:13:15+02:00</time>
      </trkpt>
      <trkpt lat="47.97509" lon="6.20056">
        <ele>259.7998</ele>
        <time>2026-05-17T11:13:16+02:00</time>
      </trkpt>
      <trkpt lat="47.97511" lon="6.20053">
        <ele>260</ele>
        <time>2026-05-17T11:13:17+02:00</time>
      </trkpt>
      <trkpt lat="47.97514" lon="6.20051">
        <ele>260</ele>
        <time>2026-05-17T11:13:18+02:00</time>
      </trkpt>
      <trkpt lat="47.97518" lon="6.20048">
        <ele>260.7002</ele>
        <time>2026-05-17T11:13:19+02:00</time>
      </trkpt>
      <trkpt lat="47.97522" lon="6.20046">
        <ele>261.4004</ele>
        <time>2026-05-17T11:13:20+02:00</time>
      </trkpt>
      <trkpt lat="47.97526" lon="6.20044">
        <ele>261.4004</ele>
        <time>2026-05-17T11:13:21+02:00</time>
      </trkpt>
      <trkpt lat="47.97531" lon="6.20042">
        <ele>262.5</ele>
        <time>2026-05-17T11:13:22+02:00</time>
      </trkpt>
      <trkpt lat="47.97536" lon="6.20042">
        <ele>263.6006</ele>
        <time>2026-05-17T11:13:23+02:00</time>
      </trkpt>
      <trkpt lat="47.97541" lon="6.20043">
        <ele>264.7998</ele>
        <time>2026-05-17T11:13:24+02:00</time>
      </trkpt>
      <trkpt lat="47.97546" lon="6.20044">
        <ele>265.7002</ele>
        <time>2026-05-17T11:13:25+02:00</time>
      </trkpt>
      <trkpt lat="47.97549" lon="6.20046">
        <ele>265.7002</ele>
        <time>2026-05-17T11:13:26+02:00</time>
      </trkpt>
      <trkpt lat="47.97552" lon="6.20049">
        <ele>266.6006</ele>
        <time>2026-05-17T11:13:27+02:00</time>
      </trkpt>
      <trkpt lat="47.97555" lon="6.20051">
        <ele>265.7998</ele>
        <time>2026-05-17T11:13:28+02:00</time>
      </trkpt>
      <trkpt lat="47.97557" lon="6.20052">
        <ele>266.7002</ele>
        <time>2026-05-17T11:13:29+02:00</time>
      </trkpt>
      <trkpt lat="47.9756" lon="6.20053">
        <ele>266.7002</ele>
        <time>2026-05-17T11:13:30+02:00</time>
      </trkpt>
      <trkpt lat="47.97563" lon="6.20055">
        <ele>267.5</ele>
        <time>2026-05-17T11:13:31+02:00</time>
      </trkpt>
      <trkpt lat="47.97566" lon="6.20057">
        <ele>267.5</ele>
        <time>2026-05-17T11:13:32+02:00</time>
      </trkpt>
      <trkpt lat="47.97568" lon="6.20058">
        <ele>268.4004</ele>
        <time>2026-05-17T11:13:33+02:00</time>
      </trkpt>
      <trkpt lat="47.97571" lon="6.2006">
        <ele>267.7002</ele>
        <time>2026-05-17T11:13:34+02:00</time>
      </trkpt>
      <trkpt lat="47.97574" lon="6.20062">
        <ele>268.6006</ele>
        <time>2026-05-17T11:13:35+02:00</time>
      </trkpt>
      <trkpt lat="47.97577" lon="6.20063">
        <ele>268.6006</ele>
        <time>2026-05-17T11:13:36+02:00</time>
      </trkpt>
      <trkpt lat="47.9758" lon="6.20065">
        <ele>269.5</ele>
        <time>2026-05-17T11:13:37+02:00</time>
      </trkpt>
      <trkpt lat="47.97583" lon="6.20068">
        <ele>268.7998</ele>
        <time>2026-05-17T11:13:38+02:00</time>
      </trkpt>
      <trkpt lat="47.97587" lon="6.2007">
        <ele>269.6006</ele>
        <time>2026-05-17T11:13:39+02:00</time>
      </trkpt>
      <trkpt lat="47.9759" lon="6.20072">
        <ele>269.6006</ele>
        <time>2026-05-17T11:13:40+02:00</time>
      </trkpt>
      <trkpt lat="47.97593" lon="6.20074">
        <ele>270.2998</ele>
        <time>2026-05-17T11:13:41+02:00</time>
      </trkpt>
      <trkpt lat="47.97596" lon="6.20077">
        <ele>269.7998</ele>
        <time>2026-05-17T11:13:42+02:00</time>
      </trkpt>
      <trkpt lat="47.97599" lon="6.20079">
        <ele>270.4004</ele>
        <time>2026-05-17T11:13:43+02:00</time>
      </trkpt>
      <trkpt lat="47.97602" lon="6.20082">
        <ele>271.1006</ele>
        <time>2026-05-17T11:13:44+02:00</time>
      </trkpt>
      <trkpt lat="47.97605" lon="6.20084">
        <ele>270.7002</ele>
        <time>2026-05-17T11:13:45+02:00</time>
      </trkpt>
      <trkpt lat="47.97609" lon="6.20087">
        <ele>271.2998</ele>
        <time>2026-05-17T11:13:46+02:00</time>
      </trkpt>
      <trkpt lat="47.97612" lon="6.20089">
        <ele>271.2998</ele>
        <time>2026-05-17T11:13:47+02:00</time>
      </trkpt>
      <trkpt lat="47.97615" lon="6.20091">
        <ele>271.9004</ele>
        <time>2026-05-17T11:13:48+02:00</time>
      </trkpt>
      <trkpt lat="47.97618" lon="6.20094">
        <ele>271.4004</ele>
        <time>2026-05-17T11:13:49+02:00</time>
      </trkpt>
      <trkpt lat="47.97621" lon="6.20097">
        <ele>271.9004</ele>
        <time>2026-05-17T11:13:50+02:00</time>
      </trkpt>
      <trkpt lat="47.97624" lon="6.20099">
        <ele>271.9004</ele>
        <time>2026-05-17T11:13:51+02:00</time>
      </trkpt>
      <trkpt lat="47.97627" lon="6.20101">
        <ele>271.7998</ele>
        <time>2026-05-17T11:13:52+02:00</time>
      </trkpt>
      <trkpt lat="47.9763" lon="6.20104">
        <ele>271.7998</ele>
        <time>2026-05-17T11:13:53+02:00</time>
      </trkpt>
      <trkpt lat="47.97633" lon="6.20106">
        <ele>272.2998</ele>
        <time>2026-05-17T11:13:54+02:00</time>
      </trkpt>
      <trkpt lat="47.97636" lon="6.20108">
        <ele>272.2998</ele>
        <time>2026-05-17T11:13:55+02:00</time>
      </trkpt>
      <trkpt lat="47.9764" lon="6.20111">
        <ele>272.5</ele>
        <time>2026-05-17T11:13:56+02:00</time>
      </trkpt>
      <trkpt lat="47.97642" lon="6.20114">
        <ele>273.1006</ele>
        <time>2026-05-17T11:13:57+02:00</time>
      </trkpt>
      <trkpt lat="47.97645" lon="6.20116">
        <ele>273.1006</ele>
        <time>2026-05-17T11:13:58+02:00</time>
      </trkpt>
      <trkpt lat="47.97648" lon="6.2012">
        <ele>273.2002</ele>
        <time>2026-05-17T11:13:59+02:00</time>
      </trkpt>
      <trkpt lat="47.9765" lon="6.20123">
        <ele>273.2002</ele>
        <time>2026-05-17T11:14:00+02:00</time>
      </trkpt>
      <trkpt lat="47.97653" lon="6.20127">
        <ele>272.7998</ele>
        <time>2026-05-17T11:14:01+02:00</time>
      </trkpt>
      <trkpt lat="47.97655" lon="6.2013">
        <ele>273.2002</ele>
        <time>2026-05-17T11:14:02+02:00</time>
      </trkpt>
      <trkpt lat="47.97657" lon="6.20134">
        <ele>273.2002</ele>
        <time>2026-05-17T11:14:03+02:00</time>
      </trkpt>
      <trkpt lat="47.97659" lon="6.20138">
        <ele>272.7998</ele>
        <time>2026-05-17T11:14:04+02:00</time>
      </trkpt>
      <trkpt lat="47.9766" lon="6.20142">
        <ele>273.2002</ele>
        <time>2026-05-17T11:14:05+02:00</time>
      </trkpt>
      <trkpt lat="47.97661" lon="6.20146">
        <ele>272.7002</ele>
        <time>2026-05-17T11:14:06+02:00</time>
      </trkpt>
      <trkpt lat="47.97662" lon="6.2015">
        <ele>272.7002</ele>
        <time>2026-05-17T11:14:07+02:00</time>
      </trkpt>
      <trkpt lat="47.97664" lon="6.20154">
        <ele>272.2998</ele>
        <time>2026-05-17T11:14:08+02:00</time>
      </trkpt>
      <trkpt lat="47.97666" lon="6.20158">
        <ele>272.7002</ele>
        <time>2026-05-17T11:14:09+02:00</time>
      </trkpt>
      <trkpt lat="47.97668" lon="6.20162">
        <ele>272.4004</ele>
        <time>2026-05-17T11:14:10+02:00</time>
      </trkpt>
      <trkpt lat="47.97671" lon="6.20167">
        <ele>272.7998</ele>
        <time>2026-05-17T11:14:11+02:00</time>
      </trkpt>
      <trkpt lat="47.97674" lon="6.20172">
        <ele>272.5</ele>
        <time>2026-05-17T11:14:12+02:00</time>
      </trkpt>
      <trkpt lat="47.97677" lon="6.20178">
        <ele>272.9004</ele>
        <time>2026-05-17T11:14:13+02:00</time>
      </trkpt>
      <trkpt lat="47.97681" lon="6.20184">
        <ele>272.7002</ele>
        <time>2026-05-17T11:14:14+02:00</time>
      </trkpt>
      <trkpt lat="47.97685" lon="6.2019">
        <ele>272.7998</ele>
        <time>2026-05-17T11:14:15+02:00</time>
      </trkpt>
      <trkpt lat="47.9769" lon="6.20197">
        <ele>272.9004</ele>
        <time>2026-05-17T11:14:16+02:00</time>
      </trkpt>
      <trkpt lat="47.97694" lon="6.20204">
        <ele>273.1006</ele>
        <time>2026-05-17T11:14:17+02:00</time>
      </trkpt>
      <trkpt lat="47.97698" lon="6.20211">
        <ele>273.1006</ele>
        <time>2026-05-17T11:14:18+02:00</time>
      </trkpt>
      <trkpt lat="47.97702" lon="6.20218">
        <ele>273.2998</ele>
        <time>2026-05-17T11:14:19+02:00</time>
      </trkpt>
      <trkpt lat="47.97705" lon="6.20225">
        <ele>273.2998</ele>
        <time>2026-05-17T11:14:20+02:00</time>
      </trkpt>
      <trkpt lat="47.97709" lon="6.20232">
        <ele>273.7998</ele>
        <time>2026-05-17T11:14:21+02:00</time>
      </trkpt>
      <trkpt lat="47.97712" lon="6.2024">
        <ele>274.2002</ele>
        <time>2026-05-17T11:14:22+02:00</time>
      </trkpt>
      <trkpt lat="47.97716" lon="6.20248">
        <ele>274</ele>
        <time>2026-05-17T11:14:23+02:00</time>
      </trkpt>
      <trkpt lat="47.97719" lon="6.20256">
        <ele>273.7998</ele>
        <time>2026-05-17T11:14:24+02:00</time>
      </trkpt>
      <trkpt lat="47.97721" lon="6.20263">
        <ele>273.7998</ele>
        <time>2026-05-17T11:14:25+02:00</time>
      </trkpt>
      <trkpt lat="47.97724" lon="6.2027">
        <ele>273.4004</ele>
        <time>2026-05-17T11:14:26+02:00</time>
      </trkpt>
      <trkpt lat="47.97725" lon="6.20277">
        <ele>273</ele>
        <time>2026-05-17T11:14:27+02:00</time>
      </trkpt>
      <trkpt lat="47.97727" lon="6.20282">
        <ele>272.6006</ele>
        <time>2026-05-17T11:14:28+02:00</time>
      </trkpt>
      <trkpt lat="47.97728" lon="6.20287">
        <ele>272.6006</ele>
        <time>2026-05-17T11:14:29+02:00</time>
      </trkpt>
      <trkpt lat="47.97728" lon="6.2029">
        <ele>272.2998</ele>
        <time>2026-05-17T11:14:30+02:00</time>
      </trkpt>
      <trkpt lat="47.97729" lon="6.20292">
        <ele>272.5</ele>
        <time>2026-05-17T11:14:31+02:00</time>
      </trkpt>
      <trkpt lat="47.97729" lon="6.20293">
        <ele>272.5</ele>
        <time>2026-05-17T11:14:32+02:00</time>
      </trkpt>
      <trkpt lat="47.97729" lon="6.20293">
        <ele>272.5</ele>
        <time>2026-05-17T11:14:33+02:00</time>
      </trkpt>
      <trkpt lat="47.97729" lon="6.20293">
        <ele>272.5</ele>
        <time>2026-05-17T11:14:34+02:00</time>
      </trkpt>
      <trkpt lat="47.97729" lon="6.20293">
        <ele>272.5</ele>
        <time>2026-05-17T11:14:35+02:00</time>
      </trkpt>
      <trkpt lat="47.97735" lon="6.2032">
        <ele>271.7998</ele>
        <time>2026-05-17T11:15:07+02:00</time>
      </trkpt>
      <trkpt lat="47.97737" lon="6.20326">
        <ele>271.5</ele>
        <time>2026-05-17T11:15:08+02:00</time>
      </trkpt>
      <trkpt lat="47.97739" lon="6.20332">
        <ele>271.5</ele>
        <time>2026-05-17T11:15:09+02:00</time>
      </trkpt>
      <trkpt lat="47.97741" lon="6.20338">
        <ele>271.4004</ele>
        <time>2026-05-17T11:15:10+02:00</time>
      </trkpt>
      <trkpt lat="47.97743" lon="6.20344">
        <ele>271.1006</ele>
        <time>2026-05-17T11:15:11+02:00</time>
      </trkpt>
      <trkpt lat="47.97745" lon="6.20351">
        <ele>270.7998</ele>
        <time>2026-05-17T11:15:12+02:00</time>
      </trkpt>
      <trkpt lat="47.97748" lon="6.20357">
        <ele>271.2002</ele>
        <time>2026-05-17T11:15:13+02:00</time>
      </trkpt>
      <trkpt lat="47.97751" lon="6.20363">
        <ele>270.9004</ele>
        <time>2026-05-17T11:15:14+02:00</time>
      </trkpt>
      <trkpt lat="47.97753" lon="6.2037">
        <ele>271.1006</ele>
        <time>2026-05-17T11:15:15+02:00</time>
      </trkpt>
      <trkpt lat="47.97756" lon="6.20377">
        <ele>270.7998</ele>
        <time>2026-05-17T11:15:16+02:00</time>
      </trkpt>
      <trkpt lat="47.97758" lon="6.20384">
        <ele>271.2998</ele>
        <time>2026-05-17T11:15:17+02:00</time>
      </trkpt>
      <trkpt lat="47.97761" lon="6.20391">
        <ele>271</ele>
        <time>2026-05-17T11:15:18+02:00</time>
      </trkpt>
      <trkpt lat="47.97764" lon="6.20398">
        <ele>271.1006</ele>
        <time>2026-05-17T11:15:19+02:00</time>
      </trkpt>
      <trkpt lat="47.97766" lon="6.20405">
        <ele>270.9004</ele>
        <time>2026-05-17T11:15:20+02:00</time>
      </trkpt>
      <trkpt lat="47.97769" lon="6.20412">
        <ele>271</ele>
        <time>2026-05-17T11:15:21+02:00</time>
      </trkpt>
      <trkpt lat="47.97771" lon="6.20419">
        <ele>270.7998</ele>
        <time>2026-05-17T11:15:22+02:00</time>
      </trkpt>
      <trkpt lat="47.97774" lon="6.20426">
        <ele>270.7998</ele>
        <time>2026-05-17T11:15:23+02:00</time>
      </trkpt>
      <trkpt lat="47.97777" lon="6.20433">
        <ele>270.9004</ele>
        <time>2026-05-17T11:15:24+02:00</time>
      </trkpt>
      <trkpt lat="47.9778" lon="6.2044">
        <ele>270.7002</ele>
        <time>2026-05-17T11:15:25+02:00</time>
      </trkpt>
      <trkpt lat="47.97783" lon="6.20447">
        <ele>270.7998</ele>
        <time>2026-05-17T11:15:26+02:00</time>
      </trkpt>
      <trkpt lat="47.97785" lon="6.20454">
        <ele>270.6006</ele>
        <time>2026-05-17T11:15:27+02:00</time>
      </trkpt>
      <trkpt lat="47.97788" lon="6.2046">
        <ele>271.1006</ele>
        <time>2026-05-17T11:15:28+02:00</time>
      </trkpt>
      <trkpt lat="47.9779" lon="6.20467">
        <ele>270.9004</ele>
        <time>2026-05-17T11:15:29+02:00</time>
      </trkpt>
      <trkpt lat="47.97793" lon="6.20472">
        <ele>271.2002</ele>
        <time>2026-05-17T11:15:30+02:00</time>
      </trkpt>
      <trkpt lat="47.97795" lon="6.20478">
        <ele>271.2002</ele>
        <time>2026-05-17T11:15:31+02:00</time>
      </trkpt>
      <trkpt lat="47.97798" lon="6.20484">
        <ele>271.4004</ele>
        <time>2026-05-17T11:15:32+02:00</time>
      </trkpt>
      <trkpt lat="47.978" lon="6.20491">
        <ele>271.2002</ele>
        <time>2026-05-17T11:15:33+02:00</time>
      </trkpt>
      <trkpt lat="47.97802" lon="6.20497">
        <ele>270.9004</ele>
        <time>2026-05-17T11:15:34+02:00</time>
      </trkpt>
      <trkpt lat="47.97804" lon="6.20503">
        <ele>271.2998</ele>
        <time>2026-05-17T11:15:35+02:00</time>
      </trkpt>
      <trkpt lat="47.97806" lon="6.2051">
        <ele>271</ele>
        <time>2026-05-17T11:15:36+02:00</time>
      </trkpt>
      <trkpt lat="47.97807" lon="6.20517">
        <ele>270.7998</ele>
        <time>2026-05-17T11:15:37+02:00</time>
      </trkpt>
      <trkpt lat="47.97809" lon="6.20524">
        <ele>271</ele>
        <time>2026-05-17T11:15:38+02:00</time>
      </trkpt>
      <trkpt lat="47.9781" lon="6.20531">
        <ele>270.7002</ele>
        <time>2026-05-17T11:15:39+02:00</time>
      </trkpt>
      <trkpt lat="47.97811" lon="6.20538">
        <ele>270.7002</ele>
        <time>2026-05-17T11:15:40+02:00</time>
      </trkpt>
      <trkpt lat="47.97812" lon="6.20546">
        <ele>270.4004</ele>
        <time>2026-05-17T11:15:41+02:00</time>
      </trkpt>
      <trkpt lat="47.97813" lon="6.20554">
        <ele>270.1006</ele>
        <time>2026-05-17T11:15:42+02:00</time>
      </trkpt>
      <trkpt lat="47.97814" lon="6.20562">
        <ele>269.9004</ele>
        <time>2026-05-17T11:15:43+02:00</time>
      </trkpt>
      <trkpt lat="47.97814" lon="6.20571">
        <ele>269.6006</ele>
        <time>2026-05-17T11:15:44+02:00</time>
      </trkpt>
      <trkpt lat="47.97815" lon="6.20579">
        <ele>269.9004</ele>
        <time>2026-05-17T11:15:45+02:00</time>
      </trkpt>
      <trkpt lat="47.97815" lon="6.20588">
        <ele>269.6006</ele>
        <time>2026-05-17T11:15:46+02:00</time>
      </trkpt>
      <trkpt lat="47.97815" lon="6.20597">
        <ele>269.4004</ele>
        <time>2026-05-17T11:15:47+02:00</time>
      </trkpt>
      <trkpt lat="47.97816" lon="6.20606">
        <ele>269.1006</ele>
        <time>2026-05-17T11:15:48+02:00</time>
      </trkpt>
      <trkpt lat="47.97817" lon="6.20615">
        <ele>268.9004</ele>
        <time>2026-05-17T11:15:49+02:00</time>
      </trkpt>
      <trkpt lat="47.97818" lon="6.20624">
        <ele>268.5</ele>
        <time>2026-05-17T11:15:50+02:00</time>
      </trkpt>
      <trkpt lat="47.97819" lon="6.20633">
        <ele>268.2002</ele>
        <time>2026-05-17T11:15:51+02:00</time>
      </trkpt>
      <trkpt lat="47.9782" lon="6.20642">
        <ele>267.7002</ele>
        <time>2026-05-17T11:15:52+02:00</time>
      </trkpt>
      <trkpt lat="47.97821" lon="6.20651">
        <ele>268.2002</ele>
        <time>2026-05-17T11:15:53+02:00</time>
      </trkpt>
      <trkpt lat="47.97822" lon="6.20661">
        <ele>268</ele>
        <time>2026-05-17T11:15:54+02:00</time>
      </trkpt>
      <trkpt lat="47.97823" lon="6.2067">
        <ele>267.9004</ele>
        <time>2026-05-17T11:15:55+02:00</time>
      </trkpt>
      <trkpt lat="47.97824" lon="6.20679">
        <ele>267.7002</ele>
        <time>2026-05-17T11:15:56+02:00</time>
      </trkpt>
      <trkpt lat="47.97825" lon="6.20688">
        <ele>267.6006</ele>
        <time>2026-05-17T11:15:57+02:00</time>
      </trkpt>
      <trkpt lat="47.97825" lon="6.20697">
        <ele>267.5</ele>
        <time>2026-05-17T11:15:58+02:00</time>
      </trkpt>
      <trkpt lat="47.97825" lon="6.20707">
        <ele>267.2998</ele>
        <time>2026-05-17T11:15:59+02:00</time>
      </trkpt>
      <trkpt lat="47.97826" lon="6.20716">
        <ele>267.9004</ele>
        <time>2026-05-17T11:16:00+02:00</time>
      </trkpt>
      <trkpt lat="47.97825" lon="6.20725">
        <ele>267</ele>
        <time>2026-05-17T11:16:01+02:00</time>
      </trkpt>
      <trkpt lat="47.97825" lon="6.20734">
        <ele>266.7998</ele>
        <time>2026-05-17T11:16:02+02:00</time>
      </trkpt>
      <trkpt lat="47.97824" lon="6.20742">
        <ele>266.6006</ele>
        <time>2026-05-17T11:16:03+02:00</time>
      </trkpt>
      <trkpt lat="47.97823" lon="6.20751">
        <ele>266.2002</ele>
        <time>2026-05-17T11:16:04+02:00</time>
      </trkpt>
      <trkpt lat="47.97822" lon="6.20759">
        <ele>265.2002</ele>
        <time>2026-05-17T11:16:05+02:00</time>
      </trkpt>
      <trkpt lat="47.97822" lon="6.20768">
        <ele>264.2998</ele>
        <time>2026-05-17T11:16:06+02:00</time>
      </trkpt>
      <trkpt lat="47.97821" lon="6.20777">
        <ele>263.5</ele>
        <time>2026-05-17T11:16:07+02:00</time>
      </trkpt>
      <trkpt lat="47.97821" lon="6.20786">
        <ele>263.2002</ele>
        <time>2026-05-17T11:16:08+02:00</time>
      </trkpt>
      <trkpt lat="47.97821" lon="6.20795">
        <ele>263</ele>
        <time>2026-05-17T11:16:09+02:00</time>
      </trkpt>
      <trkpt lat="47.9782" lon="6.20804">
        <ele>262.5</ele>
        <time>2026-05-17T11:16:10+02:00</time>
      </trkpt>
      <trkpt lat="47.9782" lon="6.20813">
        <ele>262.7998</ele>
        <time>2026-05-17T11:16:11+02:00</time>
      </trkpt>
      <trkpt lat="47.97819" lon="6.20822">
        <ele>263.7002</ele>
        <time>2026-05-17T11:16:12+02:00</time>
      </trkpt>
      <trkpt lat="47.97819" lon="6.2083">
        <ele>263.7002</ele>
        <time>2026-05-17T11:16:13+02:00</time>
      </trkpt>
      <trkpt lat="47.97818" lon="6.20839">
        <ele>264.2998</ele>
        <time>2026-05-17T11:16:14+02:00</time>
      </trkpt>
      <trkpt lat="47.97817" lon="6.20847">
        <ele>264.6006</ele>
        <time>2026-05-17T11:16:15+02:00</time>
      </trkpt>
      <trkpt lat="47.97816" lon="6.20856">
        <ele>264.7998</ele>
        <time>2026-05-17T11:16:16+02:00</time>
      </trkpt>
      <trkpt lat="47.97815" lon="6.20864">
        <ele>264.7998</ele>
        <time>2026-05-17T11:16:17+02:00</time>
      </trkpt>
      <trkpt lat="47.97814" lon="6.20873">
        <ele>264</ele>
        <time>2026-05-17T11:16:18+02:00</time>
      </trkpt>
      <trkpt lat="47.97813" lon="6.20881">
        <ele>264</ele>
        <time>2026-05-17T11:16:19+02:00</time>
      </trkpt>
      <trkpt lat="47.97812" lon="6.20889">
        <ele>264</ele>
        <time>2026-05-17T11:16:20+02:00</time>
      </trkpt>
      <trkpt lat="47.97811" lon="6.20897">
        <ele>264.1006</ele>
        <time>2026-05-17T11:16:21+02:00</time>
      </trkpt>
      <trkpt lat="47.9781" lon="6.20905">
        <ele>264.1006</ele>
        <time>2026-05-17T11:16:22+02:00</time>
      </trkpt>
      <trkpt lat="47.97808" lon="6.20913">
        <ele>263.7002</ele>
        <time>2026-05-17T11:16:23+02:00</time>
      </trkpt>
      <trkpt lat="47.97807" lon="6.20921">
        <ele>263.7002</ele>
        <time>2026-05-17T11:16:24+02:00</time>
      </trkpt>
      <trkpt lat="47.97805" lon="6.20929">
        <ele>263.7998</ele>
        <time>2026-05-17T11:16:25+02:00</time>
      </trkpt>
      <trkpt lat="47.97804" lon="6.20937">
        <ele>263.7998</ele>
        <time>2026-05-17T11:16:26+02:00</time>
      </trkpt>
      <trkpt lat="47.97802" lon="6.20945">
        <ele>263.4004</ele>
        <time>2026-05-17T11:16:27+02:00</time>
      </trkpt>
      <trkpt lat="47.97801" lon="6.20954">
        <ele>263.7002</ele>
        <time>2026-05-17T11:16:28+02:00</time>
      </trkpt>
      <trkpt lat="47.97799" lon="6.20962">
        <ele>264</ele>
        <time>2026-05-17T11:16:29+02:00</time>
      </trkpt>
      <trkpt lat="47.97797" lon="6.2097">
        <ele>264</ele>
        <time>2026-05-17T11:16:30+02:00</time>
      </trkpt>
      <trkpt lat="47.97796" lon="6.20978">
        <ele>264.2998</ele>
        <time>2026-05-17T11:16:31+02:00</time>
      </trkpt>
      <trkpt lat="47.97794" lon="6.20986">
        <ele>264.4004</ele>
        <time>2026-05-17T11:16:32+02:00</time>
      </trkpt>
      <trkpt lat="47.97793" lon="6.20994">
        <ele>264.6006</ele>
        <time>2026-05-17T11:16:33+02:00</time>
      </trkpt>
      <trkpt lat="47.97791" lon="6.21002">
        <ele>264.2002</ele>
        <time>2026-05-17T11:16:34+02:00</time>
      </trkpt>
      <trkpt lat="47.9779" lon="6.21011">
        <ele>264.2998</ele>
        <time>2026-05-17T11:16:35+02:00</time>
      </trkpt>
      <trkpt lat="47.97788" lon="6.2102">
        <ele>264.4004</ele>
        <time>2026-05-17T11:16:36+02:00</time>
      </trkpt>
      <trkpt lat="47.97786" lon="6.21028">
        <ele>264.4004</ele>
        <time>2026-05-17T11:16:37+02:00</time>
      </trkpt>
      <trkpt lat="47.97785" lon="6.21037">
        <ele>264.2002</ele>
        <time>2026-05-17T11:16:38+02:00</time>
      </trkpt>
      <trkpt lat="47.97783" lon="6.21045">
        <ele>264.2002</ele>
        <time>2026-05-17T11:16:39+02:00</time>
      </trkpt>
      <trkpt lat="47.97781" lon="6.21053">
        <ele>264.2002</ele>
        <time>2026-05-17T11:16:40+02:00</time>
      </trkpt>
      <trkpt lat="47.9778" lon="6.21061">
        <ele>264.4004</ele>
        <time>2026-05-17T11:16:41+02:00</time>
      </trkpt>
      <trkpt lat="47.97778" lon="6.21069">
        <ele>264.5</ele>
        <time>2026-05-17T11:16:42+02:00</time>
      </trkpt>
      <trkpt lat="47.97776" lon="6.21078">
        <ele>264.5</ele>
        <time>2026-05-17T11:16:43+02:00</time>
      </trkpt>
      <trkpt lat="47.97775" lon="6.21086">
        <ele>264.5</ele>
        <time>2026-05-17T11:16:44+02:00</time>
      </trkpt>
      <trkpt lat="47.97773" lon="6.21095">
        <ele>265</ele>
        <time>2026-05-17T11:16:45+02:00</time>
      </trkpt>
      <trkpt lat="47.97772" lon="6.21103">
        <ele>264.7998</ele>
        <time>2026-05-17T11:16:46+02:00</time>
      </trkpt>
      <trkpt lat="47.9777" lon="6.21112">
        <ele>264.7002</ele>
        <time>2026-05-17T11:16:47+02:00</time>
      </trkpt>
      <trkpt lat="47.97769" lon="6.21121">
        <ele>264.9004</ele>
        <time>2026-05-17T11:16:48+02:00</time>
      </trkpt>
      <trkpt lat="47.97769" lon="6.21129">
        <ele>265</ele>
        <time>2026-05-17T11:16:49+02:00</time>
      </trkpt>
      <trkpt lat="47.97768" lon="6.21138">
        <ele>264.5</ele>
        <time>2026-05-17T11:16:50+02:00</time>
      </trkpt>
      <trkpt lat="47.97767" lon="6.21147">
        <ele>264.6006</ele>
        <time>2026-05-17T11:16:51+02:00</time>
      </trkpt>
      <trkpt lat="47.97767" lon="6.21156">
        <ele>264.6006</ele>
        <time>2026-05-17T11:16:52+02:00</time>
      </trkpt>
      <trkpt lat="47.97766" lon="6.21165">
        <ele>264.6006</ele>
        <time>2026-05-17T11:16:53+02:00</time>
      </trkpt>
      <trkpt lat="47.97765" lon="6.21174">
        <ele>264.7002</ele>
        <time>2026-05-17T11:16:54+02:00</time>
      </trkpt>
      <trkpt lat="47.97765" lon="6.21183">
        <ele>264.7998</ele>
        <time>2026-05-17T11:16:55+02:00</time>
      </trkpt>
      <trkpt lat="47.97765" lon="6.21192">
        <ele>264.7998</ele>
        <time>2026-05-17T11:16:56+02:00</time>
      </trkpt>
      <trkpt lat="47.97765" lon="6.21201">
        <ele>264.9004</ele>
        <time>2026-05-17T11:16:57+02:00</time>
      </trkpt>
      <trkpt lat="47.97765" lon="6.21209">
        <ele>265</ele>
        <time>2026-05-17T11:16:58+02:00</time>
      </trkpt>
      <trkpt lat="47.97765" lon="6.21218">
        <ele>265</ele>
        <time>2026-05-17T11:16:59+02:00</time>
      </trkpt>
      <trkpt lat="47.97766" lon="6.21227">
        <ele>265.1006</ele>
        <time>2026-05-17T11:17:00+02:00</time>
      </trkpt>
      <trkpt lat="47.97767" lon="6.21236">
        <ele>265.1006</ele>
        <time>2026-05-17T11:17:01+02:00</time>
      </trkpt>
      <trkpt lat="47.97768" lon="6.21244">
        <ele>265.2002</ele>
        <time>2026-05-17T11:17:02+02:00</time>
      </trkpt>
      <trkpt lat="47.97769" lon="6.21253">
        <ele>265.1006</ele>
        <time>2026-05-17T11:17:03+02:00</time>
      </trkpt>
      <trkpt lat="47.9777" lon="6.21262">
        <ele>265.5</ele>
        <time>2026-05-17T11:17:04+02:00</time>
      </trkpt>
      <trkpt lat="47.97772" lon="6.2127">
        <ele>265.9004</ele>
        <time>2026-05-17T11:17:05+02:00</time>
      </trkpt>
      <trkpt lat="47.97773" lon="6.21278">
        <ele>266.4004</ele>
        <time>2026-05-17T11:17:06+02:00</time>
      </trkpt>
      <trkpt lat="47.97775" lon="6.21286">
        <ele>266.1006</ele>
        <time>2026-05-17T11:17:07+02:00</time>
      </trkpt>
      <trkpt lat="47.97777" lon="6.21294">
        <ele>266.4004</ele>
        <time>2026-05-17T11:17:08+02:00</time>
      </trkpt>
      <trkpt lat="47.9778" lon="6.21302">
        <ele>266.4004</ele>
        <time>2026-05-17T11:17:09+02:00</time>
      </trkpt>
      <trkpt lat="47.97782" lon="6.2131">
        <ele>266</ele>
        <time>2026-05-17T11:17:10+02:00</time>
      </trkpt>
      <trkpt lat="47.97783" lon="6.21317">
        <ele>266.1006</ele>
        <time>2026-05-17T11:17:11+02:00</time>
      </trkpt>
      <trkpt lat="47.97785" lon="6.21324">
        <ele>266.2998</ele>
        <time>2026-05-17T11:17:12+02:00</time>
      </trkpt>
      <trkpt lat="47.97788" lon="6.21332">
        <ele>265.9004</ele>
        <time>2026-05-17T11:17:13+02:00</time>
      </trkpt>
      <trkpt lat="47.9779" lon="6.2134">
        <ele>265.9004</ele>
        <time>2026-05-17T11:17:14+02:00</time>
      </trkpt>
      <trkpt lat="47.97792" lon="6.21348">
        <ele>266.2002</ele>
        <time>2026-05-17T11:17:15+02:00</time>
      </trkpt>
      <trkpt lat="47.97794" lon="6.21355">
        <ele>266.2002</ele>
        <time>2026-05-17T11:17:16+02:00</time>
      </trkpt>
      <trkpt lat="47.97796" lon="6.21362">
        <ele>266.2002</ele>
        <time>2026-05-17T11:17:17+02:00</time>
      </trkpt>
      <trkpt lat="47.97798" lon="6.21368">
        <ele>267.6006</ele>
        <time>2026-05-17T11:17:18+02:00</time>
      </trkpt>
      <trkpt lat="47.97799" lon="6.21375">
        <ele>267.7998</ele>
        <time>2026-05-17T11:17:19+02:00</time>
      </trkpt>
      <trkpt lat="47.978" lon="6.21382">
        <ele>267.7998</ele>
        <time>2026-05-17T11:17:20+02:00</time>
      </trkpt>
      <trkpt lat="47.97802" lon="6.21389">
        <ele>267.6006</ele>
        <time>2026-05-17T11:17:21+02:00</time>
      </trkpt>
      <trkpt lat="47.97803" lon="6.21396">
        <ele>268.2998</ele>
        <time>2026-05-17T11:17:22+02:00</time>
      </trkpt>
      <trkpt lat="47.97805" lon="6.21404">
        <ele>268</ele>
        <time>2026-05-17T11:17:23+02:00</time>
      </trkpt>
      <trkpt lat="47.97807" lon="6.21411">
        <ele>268.1006</ele>
        <time>2026-05-17T11:17:24+02:00</time>
      </trkpt>
      <trkpt lat="47.97809" lon="6.21418">
        <ele>266.9004</ele>
        <time>2026-05-17T11:17:25+02:00</time>
      </trkpt>
      <trkpt lat="47.97811" lon="6.21426">
        <ele>267.2002</ele>
        <time>2026-05-17T11:17:26+02:00</time>
      </trkpt>
      <trkpt lat="47.97813" lon="6.21433">
        <ele>267.7998</ele>
        <time>2026-05-17T11:17:27+02:00</time>
      </trkpt>
      <trkpt lat="47.97815" lon="6.2144">
        <ele>268.2998</ele>
        <time>2026-05-17T11:17:28+02:00</time>
      </trkpt>
      <trkpt lat="47.97818" lon="6.21447">
        <ele>268.2998</ele>
        <time>2026-05-17T11:17:29+02:00</time>
      </trkpt>
      <trkpt lat="47.9782" lon="6.21454">
        <ele>269.2002</ele>
        <time>2026-05-17T11:17:30+02:00</time>
      </trkpt>
      <trkpt lat="47.97823" lon="6.21462">
        <ele>270.4004</ele>
        <time>2026-05-17T11:17:31+02:00</time>
      </trkpt>
      <trkpt lat="47.97826" lon="6.21469">
        <ele>271.2998</ele>
        <time>2026-05-17T11:17:32+02:00</time>
      </trkpt>
      <trkpt lat="47.97828" lon="6.21475">
        <ele>271.7002</ele>
        <time>2026-05-17T11:17:33+02:00</time>
      </trkpt>
      <trkpt lat="47.9783" lon="6.21482">
        <ele>271.7002</ele>
        <time>2026-05-17T11:17:34+02:00</time>
      </trkpt>
      <trkpt lat="47.97833" lon="6.21489">
        <ele>271.2002</ele>
        <time>2026-05-17T11:17:35+02:00</time>
      </trkpt>
      <trkpt lat="47.97836" lon="6.21497">
        <ele>271.2998</ele>
        <time>2026-05-17T11:17:36+02:00</time>
      </trkpt>
      <trkpt lat="47.97839" lon="6.21504">
        <ele>269.2998</ele>
        <time>2026-05-17T11:17:37+02:00</time>
      </trkpt>
      <trkpt lat="47.97842" lon="6.21511">
        <ele>269</ele>
        <time>2026-05-17T11:17:38+02:00</time>
      </trkpt>
      <trkpt lat="47.97845" lon="6.21518">
        <ele>268.1006</ele>
        <time>2026-05-17T11:17:39+02:00</time>
      </trkpt>
      <trkpt lat="47.97849" lon="6.21526">
        <ele>269.6006</ele>
        <time>2026-05-17T11:17:40+02:00</time>
      </trkpt>
      <trkpt lat="47.97852" lon="6.21533">
        <ele>268.4004</ele>
        <time>2026-05-17T11:17:41+02:00</time>
      </trkpt>
      <trkpt lat="47.97856" lon="6.2154">
        <ele>268.6006</ele>
        <time>2026-05-17T11:17:42+02:00</time>
      </trkpt>
      <trkpt lat="47.97859" lon="6.21547">
        <ele>269.5</ele>
        <time>2026-05-17T11:17:43+02:00</time>
      </trkpt>
      <trkpt lat="47.97863" lon="6.21554">
        <ele>269.2998</ele>
        <time>2026-05-17T11:17:44+02:00</time>
      </trkpt>
      <trkpt lat="47.97867" lon="6.21561">
        <ele>269.6006</ele>
        <time>2026-05-17T11:17:45+02:00</time>
      </trkpt>
      <trkpt lat="47.97871" lon="6.21568">
        <ele>269.6006</ele>
        <time>2026-05-17T11:17:46+02:00</time>
      </trkpt>
      <trkpt lat="47.97875" lon="6.21574">
        <ele>269.9004</ele>
        <time>2026-05-17T11:17:47+02:00</time>
      </trkpt>
      <trkpt lat="47.97879" lon="6.21581">
        <ele>269.5</ele>
        <time>2026-05-17T11:17:48+02:00</time>
      </trkpt>
      <trkpt lat="47.97883" lon="6.21587">
        <ele>270.2998</ele>
        <time>2026-05-17T11:17:49+02:00</time>
      </trkpt>
      <trkpt lat="47.97888" lon="6.21593">
        <ele>269.2998</ele>
        <time>2026-05-17T11:17:50+02:00</time>
      </trkpt>
      <trkpt lat="47.97907" lon="6.21613">
        <ele>270.2998</ele>
        <time>2026-05-17T11:17:51+02:00</time>
      </trkpt>
      <trkpt lat="47.97912" lon="6.21617">
        <ele>270.2998</ele>
        <time>2026-05-17T11:17:52+02:00</time>
      </trkpt>
      <trkpt lat="47.97917" lon="6.21622">
        <ele>270.2002</ele>
        <time>2026-05-17T11:17:53+02:00</time>
      </trkpt>
      <trkpt lat="47.97922" lon="6.21625">
        <ele>269.9004</ele>
        <time>2026-05-17T11:17:54+02:00</time>
      </trkpt>
      <trkpt lat="47.97928" lon="6.21629">
        <ele>270.2002</ele>
        <time>2026-05-17T11:17:55+02:00</time>
      </trkpt>
      <trkpt lat="47.97933" lon="6.21632">
        <ele>270.1006</ele>
        <time>2026-05-17T11:17:56+02:00</time>
      </trkpt>
      <trkpt lat="47.97939" lon="6.21634">
        <ele>270.1006</ele>
        <time>2026-05-17T11:17:57+02:00</time>
      </trkpt>
      <trkpt lat="47.97945" lon="6.21635">
        <ele>270.1006</ele>
        <time>2026-05-17T11:17:58+02:00</time>
      </trkpt>
      <trkpt lat="47.97951" lon="6.21636">
        <ele>270.2998</ele>
        <time>2026-05-17T11:17:59+02:00</time>
      </trkpt>
      <trkpt lat="47.97957" lon="6.21635">
        <ele>270.5</ele>
        <time>2026-05-17T11:18:00+02:00</time>
      </trkpt>
      <trkpt lat="47.97962" lon="6.21636">
        <ele>270.5</ele>
        <time>2026-05-17T11:18:01+02:00</time>
      </trkpt>
      <trkpt lat="47.97968" lon="6.21636">
        <ele>270.2002</ele>
        <time>2026-05-17T11:18:02+02:00</time>
      </trkpt>
      <trkpt lat="47.97974" lon="6.21637">
        <ele>269.5</ele>
        <time>2026-05-17T11:18:03+02:00</time>
      </trkpt>
      <trkpt lat="47.9798" lon="6.21638">
        <ele>268</ele>
        <time>2026-05-17T11:18:04+02:00</time>
      </trkpt>
      <trkpt lat="47.97986" lon="6.2164">
        <ele>267</ele>
        <time>2026-05-17T11:18:05+02:00</time>
      </trkpt>
      <trkpt lat="47.97992" lon="6.21643">
        <ele>266.4004</ele>
        <time>2026-05-17T11:18:06+02:00</time>
      </trkpt>
      <trkpt lat="47.97998" lon="6.21646">
        <ele>266.2002</ele>
        <time>2026-05-17T11:18:07+02:00</time>
      </trkpt>
      <trkpt lat="47.98004" lon="6.21649">
        <ele>265.7998</ele>
        <time>2026-05-17T11:18:08+02:00</time>
      </trkpt>
      <trkpt lat="47.9801" lon="6.21652">
        <ele>266.7002</ele>
        <time>2026-05-17T11:18:09+02:00</time>
      </trkpt>
      <trkpt lat="47.98016" lon="6.21655">
        <ele>267.2002</ele>
        <time>2026-05-17T11:18:10+02:00</time>
      </trkpt>
      <trkpt lat="47.98021" lon="6.21659">
        <ele>267.2002</ele>
        <time>2026-05-17T11:18:11+02:00</time>
      </trkpt>
      <trkpt lat="47.98027" lon="6.21662">
        <ele>268.5</ele>
        <time>2026-05-17T11:18:12+02:00</time>
      </trkpt>
      <trkpt lat="47.98033" lon="6.21666">
        <ele>266.9004</ele>
        <time>2026-05-17T11:18:13+02:00</time>
      </trkpt>
      <trkpt lat="47.98038" lon="6.21669">
        <ele>266.9004</ele>
        <time>2026-05-17T11:18:14+02:00</time>
      </trkpt>
      <trkpt lat="47.98044" lon="6.21673">
        <ele>267.4004</ele>
        <time>2026-05-17T11:18:15+02:00</time>
      </trkpt>
      <trkpt lat="47.9805" lon="6.21676">
        <ele>267.6006</ele>
        <time>2026-05-17T11:18:16+02:00</time>
      </trkpt>
      <trkpt lat="47.98055" lon="6.2168">
        <ele>268.2998</ele>
        <time>2026-05-17T11:18:17+02:00</time>
      </trkpt>
      <trkpt lat="47.98061" lon="6.21683">
        <ele>271.5</ele>
        <time>2026-05-17T11:18:18+02:00</time>
      </trkpt>
      <trkpt lat="47.98066" lon="6.21686">
        <ele>271.5</ele>
        <time>2026-05-17T11:18:19+02:00</time>
      </trkpt>
      <trkpt lat="47.98071" lon="6.2169">
        <ele>269.6006</ele>
        <time>2026-05-17T11:18:20+02:00</time>
      </trkpt>
      <trkpt lat="47.98077" lon="6.21694">
        <ele>268.1006</ele>
        <time>2026-05-17T11:18:21+02:00</time>
      </trkpt>
      <trkpt lat="47.98082" lon="6.21698">
        <ele>266.2002</ele>
        <time>2026-05-17T11:18:22+02:00</time>
      </trkpt>
      <trkpt lat="47.98087" lon="6.21703">
        <ele>265.6006</ele>
        <time>2026-05-17T11:18:23+02:00</time>
      </trkpt>
      <trkpt lat="47.98092" lon="6.21707">
        <ele>265.4004</ele>
        <time>2026-05-17T11:18:24+02:00</time>
      </trkpt>
      <trkpt lat="47.98098" lon="6.21712">
        <ele>265.2998</ele>
        <time>2026-05-17T11:18:25+02:00</time>
      </trkpt>
      <trkpt lat="47.98103" lon="6.21717">
        <ele>266.1006</ele>
        <time>2026-05-17T11:18:26+02:00</time>
      </trkpt>
      <trkpt lat="47.98108" lon="6.21722">
        <ele>267</ele>
        <time>2026-05-17T11:18:27+02:00</time>
      </trkpt>
      <trkpt lat="47.98114" lon="6.21728">
        <ele>267.1006</ele>
        <time>2026-05-17T11:18:28+02:00</time>
      </trkpt>
      <trkpt lat="47.98119" lon="6.21734">
        <ele>267.4004</ele>
        <time>2026-05-17T11:18:29+02:00</time>
      </trkpt>
      <trkpt lat="47.98124" lon="6.2174">
        <ele>267.4004</ele>
        <time>2026-05-17T11:18:30+02:00</time>
      </trkpt>
      <trkpt lat="47.98128" lon="6.21746">
        <ele>267.7998</ele>
        <time>2026-05-17T11:18:31+02:00</time>
      </trkpt>
      <trkpt lat="47.98133" lon="6.21753">
        <ele>267.7998</ele>
        <time>2026-05-17T11:18:32+02:00</time>
      </trkpt>
      <trkpt lat="47.98137" lon="6.21759">
        <ele>267.7002</ele>
        <time>2026-05-17T11:18:33+02:00</time>
      </trkpt>
      <trkpt lat="47.98142" lon="6.21766">
        <ele>267.7002</ele>
        <time>2026-05-17T11:18:34+02:00</time>
      </trkpt>
      <trkpt lat="47.98145" lon="6.21773">
        <ele>269</ele>
        <time>2026-05-17T11:18:35+02:00</time>
      </trkpt>
      <trkpt lat="47.9815" lon="6.21779">
        <ele>270.4004</ele>
        <time>2026-05-17T11:18:36+02:00</time>
      </trkpt>
      <trkpt lat="47.98153" lon="6.21787">
        <ele>271.7998</ele>
        <time>2026-05-17T11:18:37+02:00</time>
      </trkpt>
      <trkpt lat="47.98158" lon="6.21794">
        <ele>269.9004</ele>
        <time>2026-05-17T11:18:38+02:00</time>
      </trkpt>
      <trkpt lat="47.98161" lon="6.21801">
        <ele>267.5</ele>
        <time>2026-05-17T11:18:39+02:00</time>
      </trkpt>
      <trkpt lat="47.98165" lon="6.21809">
        <ele>266.4004</ele>
        <time>2026-05-17T11:18:40+02:00</time>
      </trkpt>
      <trkpt lat="47.98169" lon="6.21816">
        <ele>266.7002</ele>
        <time>2026-05-17T11:18:41+02:00</time>
      </trkpt>
      <trkpt lat="47.98173" lon="6.21823">
        <ele>267.2002</ele>
        <time>2026-05-17T11:18:42+02:00</time>
      </trkpt>
      <trkpt lat="47.98176" lon="6.2183">
        <ele>267</ele>
        <time>2026-05-17T11:18:43+02:00</time>
      </trkpt>
      <trkpt lat="47.98179" lon="6.21837">
        <ele>267.4004</ele>
        <time>2026-05-17T11:18:44+02:00</time>
      </trkpt>
      <trkpt lat="47.98182" lon="6.21844">
        <ele>266.9004</ele>
        <time>2026-05-17T11:18:45+02:00</time>
      </trkpt>
      <trkpt lat="47.98184" lon="6.21851">
        <ele>267.4004</ele>
        <time>2026-05-17T11:18:46+02:00</time>
      </trkpt>
      <trkpt lat="47.98186" lon="6.21858">
        <ele>266.4004</ele>
        <time>2026-05-17T11:18:47+02:00</time>
      </trkpt>
      <trkpt lat="47.98189" lon="6.21866">
        <ele>266.2998</ele>
        <time>2026-05-17T11:18:48+02:00</time>
      </trkpt>
      <trkpt lat="47.9819" lon="6.21873">
        <ele>266.4004</ele>
        <time>2026-05-17T11:18:49+02:00</time>
      </trkpt>
      <trkpt lat="47.98192" lon="6.2188">
        <ele>266.9004</ele>
        <time>2026-05-17T11:18:50+02:00</time>
      </trkpt>
      <trkpt lat="47.98194" lon="6.21887">
        <ele>267</ele>
        <time>2026-05-17T11:18:51+02:00</time>
      </trkpt>
      <trkpt lat="47.98195" lon="6.21894">
        <ele>267</ele>
        <time>2026-05-17T11:18:52+02:00</time>
      </trkpt>
      <trkpt lat="47.98196" lon="6.21902">
        <ele>267.5</ele>
        <time>2026-05-17T11:18:53+02:00</time>
      </trkpt>
      <trkpt lat="47.98198" lon="6.21908">
        <ele>268.2998</ele>
        <time>2026-05-17T11:18:54+02:00</time>
      </trkpt>
      <trkpt lat="47.982" lon="6.21915">
        <ele>268.2002</ele>
        <time>2026-05-17T11:18:55+02:00</time>
      </trkpt>
      <trkpt lat="47.98202" lon="6.21921">
        <ele>268.7998</ele>
        <time>2026-05-17T11:18:56+02:00</time>
      </trkpt>
      <trkpt lat="47.98203" lon="6.21926">
        <ele>268.7998</ele>
        <time>2026-05-17T11:18:57+02:00</time>
      </trkpt>
      <trkpt lat="47.98206" lon="6.21932">
        <ele>268.7002</ele>
        <time>2026-05-17T11:18:58+02:00</time>
      </trkpt>
      <trkpt lat="47.98208" lon="6.21937">
        <ele>268.7002</ele>
        <time>2026-05-17T11:18:59+02:00</time>
      </trkpt>
      <trkpt lat="47.9821" lon="6.21943">
        <ele>269.5</ele>
        <time>2026-05-17T11:19:00+02:00</time>
      </trkpt>
      <trkpt lat="47.98213" lon="6.21949">
        <ele>270.1006</ele>
        <time>2026-05-17T11:19:01+02:00</time>
      </trkpt>
      <trkpt lat="47.98215" lon="6.21954">
        <ele>270.1006</ele>
        <time>2026-05-17T11:19:02+02:00</time>
      </trkpt>
      <trkpt lat="47.98218" lon="6.2196">
        <ele>270</ele>
        <time>2026-05-17T11:19:03+02:00</time>
      </trkpt>
      <trkpt lat="47.98221" lon="6.21967">
        <ele>269.7998</ele>
        <time>2026-05-17T11:19:04+02:00</time>
      </trkpt>
      <trkpt lat="47.98224" lon="6.21973">
        <ele>268.7998</ele>
        <time>2026-05-17T11:19:05+02:00</time>
      </trkpt>
      <trkpt lat="47.98227" lon="6.21979">
        <ele>268.7998</ele>
        <time>2026-05-17T11:19:06+02:00</time>
      </trkpt>
      <trkpt lat="47.98229" lon="6.21985">
        <ele>267.7002</ele>
        <time>2026-05-17T11:19:07+02:00</time>
      </trkpt>
      <trkpt lat="47.98231" lon="6.21991">
        <ele>267.7002</ele>
        <time>2026-05-17T11:19:08+02:00</time>
      </trkpt>
      <trkpt lat="47.98233" lon="6.21998">
        <ele>267.7002</ele>
        <time>2026-05-17T11:19:09+02:00</time>
      </trkpt>
      <trkpt lat="47.98235" lon="6.22004">
        <ele>267.1006</ele>
        <time>2026-05-17T11:19:10+02:00</time>
      </trkpt>
      <trkpt lat="47.98237" lon="6.2201">
        <ele>267.1006</ele>
        <time>2026-05-17T11:19:11+02:00</time>
      </trkpt>
      <trkpt lat="47.98239" lon="6.22016">
        <ele>267.1006</ele>
        <time>2026-05-17T11:19:12+02:00</time>
      </trkpt>
      <trkpt lat="47.98241" lon="6.22023">
        <ele>267</ele>
        <time>2026-05-17T11:19:13+02:00</time>
      </trkpt>
      <trkpt lat="47.98243" lon="6.2203">
        <ele>267</ele>
        <time>2026-05-17T11:19:14+02:00</time>
      </trkpt>
      <trkpt lat="47.98244" lon="6.22038">
        <ele>267</ele>
        <time>2026-05-17T11:19:15+02:00</time>
      </trkpt>
      <trkpt lat="47.98246" lon="6.22046">
        <ele>267.5</ele>
        <time>2026-05-17T11:19:16+02:00</time>
      </trkpt>
      <trkpt lat="47.98247" lon="6.22054">
        <ele>267.5</ele>
        <time>2026-05-17T11:19:17+02:00</time>
      </trkpt>
      <trkpt lat="47.98248" lon="6.22062">
        <ele>267.5</ele>
        <time>2026-05-17T11:19:18+02:00</time>
      </trkpt>
      <trkpt lat="47.98249" lon="6.2207">
        <ele>267.4004</ele>
        <time>2026-05-17T11:19:19+02:00</time>
      </trkpt>
      <trkpt lat="47.9825" lon="6.22077">
        <ele>267.4004</ele>
        <time>2026-05-17T11:19:20+02:00</time>
      </trkpt>
      <trkpt lat="47.98249" lon="6.22086">
        <ele>267.2998</ele>
        <time>2026-05-17T11:19:21+02:00</time>
      </trkpt>
      <trkpt lat="47.98248" lon="6.22094">
        <ele>267.2998</ele>
        <time>2026-05-17T11:19:22+02:00</time>
      </trkpt>
      <trkpt lat="47.98247" lon="6.22103">
        <ele>267.2998</ele>
        <time>2026-05-17T11:19:23+02:00</time>
      </trkpt>
      <trkpt lat="47.98246" lon="6.22111">
        <ele>267.2002</ele>
        <time>2026-05-17T11:19:24+02:00</time>
      </trkpt>
      <trkpt lat="47.98244" lon="6.22119">
        <ele>267</ele>
        <time>2026-05-17T11:19:25+02:00</time>
      </trkpt>
      <trkpt lat="47.98243" lon="6.22128">
        <ele>267</ele>
        <time>2026-05-17T11:19:26+02:00</time>
      </trkpt>
      <trkpt lat="47.98242" lon="6.22136">
        <ele>267</ele>
        <time>2026-05-17T11:19:27+02:00</time>
      </trkpt>
      <trkpt lat="47.98241" lon="6.22144">
        <ele>267</ele>
        <time>2026-05-17T11:19:28+02:00</time>
      </trkpt>
      <trkpt lat="47.9824" lon="6.22152">
        <ele>267</ele>
        <time>2026-05-17T11:19:29+02:00</time>
      </trkpt>
      <trkpt lat="47.98239" lon="6.2216">
        <ele>267.4004</ele>
        <time>2026-05-17T11:19:30+02:00</time>
      </trkpt>
      <trkpt lat="47.98238" lon="6.22168">
        <ele>267.5</ele>
        <time>2026-05-17T11:19:31+02:00</time>
      </trkpt>
      <trkpt lat="47.98236" lon="6.22177">
        <ele>267.5</ele>
        <time>2026-05-17T11:19:32+02:00</time>
      </trkpt>
      <trkpt lat="47.98235" lon="6.22185">
        <ele>267.6006</ele>
        <time>2026-05-17T11:19:33+02:00</time>
      </trkpt>
      <trkpt lat="47.98234" lon="6.22193">
        <ele>267.6006</ele>
        <time>2026-05-17T11:19:34+02:00</time>
      </trkpt>
      <trkpt lat="47.98232" lon="6.22201">
        <ele>268.1006</ele>
        <time>2026-05-17T11:19:35+02:00</time>
      </trkpt>
      <trkpt lat="47.9823" lon="6.22209">
        <ele>268.1006</ele>
        <time>2026-05-17T11:19:36+02:00</time>
      </trkpt>
      <trkpt lat="47.98229" lon="6.22217">
        <ele>268</ele>
        <time>2026-05-17T11:19:37+02:00</time>
      </trkpt>
      <trkpt lat="47.98228" lon="6.22225">
        <ele>268.2002</ele>
        <time>2026-05-17T11:19:38+02:00</time>
      </trkpt>
      <trkpt lat="47.98227" lon="6.22234">
        <ele>267.9004</ele>
        <time>2026-05-17T11:19:39+02:00</time>
      </trkpt>
      <trkpt lat="47.98226" lon="6.22243">
        <ele>267.6006</ele>
        <time>2026-05-17T11:19:40+02:00</time>
      </trkpt>
      <trkpt lat="47.98225" lon="6.22252">
        <ele>267.4004</ele>
        <time>2026-05-17T11:19:41+02:00</time>
      </trkpt>
      <trkpt lat="47.98225" lon="6.22261">
        <ele>267.4004</ele>
        <time>2026-05-17T11:19:42+02:00</time>
      </trkpt>
      <trkpt lat="47.98224" lon="6.22269">
        <ele>267.2998</ele>
        <time>2026-05-17T11:19:43+02:00</time>
      </trkpt>
      <trkpt lat="47.98223" lon="6.22278">
        <ele>267.2002</ele>
        <time>2026-05-17T11:19:44+02:00</time>
      </trkpt>
      <trkpt lat="47.98222" lon="6.22287">
        <ele>267.6006</ele>
        <time>2026-05-17T11:19:45+02:00</time>
      </trkpt>
      <trkpt lat="47.98221" lon="6.22295">
        <ele>267.6006</ele>
        <time>2026-05-17T11:19:46+02:00</time>
      </trkpt>
      <trkpt lat="47.98221" lon="6.22304">
        <ele>267.6006</ele>
        <time>2026-05-17T11:19:47+02:00</time>
      </trkpt>
      <trkpt lat="47.9822" lon="6.22313">
        <ele>267.7002</ele>
        <time>2026-05-17T11:19:48+02:00</time>
      </trkpt>
      <trkpt lat="47.98219" lon="6.22323">
        <ele>267.7998</ele>
        <time>2026-05-17T11:19:49+02:00</time>
      </trkpt>
      <trkpt lat="47.9822" lon="6.22332">
        <ele>267.9004</ele>
        <time>2026-05-17T11:19:50+02:00</time>
      </trkpt>
      <trkpt lat="47.98221" lon="6.22341">
        <ele>267.9004</ele>
        <time>2026-05-17T11:19:51+02:00</time>
      </trkpt>
      <trkpt lat="47.98221" lon="6.22351">
        <ele>268.1006</ele>
        <time>2026-05-17T11:19:52+02:00</time>
      </trkpt>
      <trkpt lat="47.98222" lon="6.2236">
        <ele>268.4004</ele>
        <time>2026-05-17T11:19:53+02:00</time>
      </trkpt>
      <trkpt lat="47.98223" lon="6.22369">
        <ele>267.7002</ele>
        <time>2026-05-17T11:19:54+02:00</time>
      </trkpt>
      <trkpt lat="47.98225" lon="6.22378">
        <ele>267.9004</ele>
        <time>2026-05-17T11:19:55+02:00</time>
      </trkpt>
      <trkpt lat="47.98226" lon="6.22387">
        <ele>268.1006</ele>
        <time>2026-05-17T11:19:56+02:00</time>
      </trkpt>
      <trkpt lat="47.98228" lon="6.22395">
        <ele>268.7998</ele>
        <time>2026-05-17T11:19:57+02:00</time>
      </trkpt>
      <trkpt lat="47.9823" lon="6.22403">
        <ele>269.2002</ele>
        <time>2026-05-17T11:19:58+02:00</time>
      </trkpt>
      <trkpt lat="47.98232" lon="6.2241">
        <ele>270.4004</ele>
        <time>2026-05-17T11:19:59+02:00</time>
      </trkpt>
      <trkpt lat="47.98235" lon="6.22417">
        <ele>270.1006</ele>
        <time>2026-05-17T11:20:00+02:00</time>
      </trkpt>
      <trkpt lat="47.98239" lon="6.22424">
        <ele>270.7998</ele>
        <time>2026-05-17T11:20:01+02:00</time>
      </trkpt>
      <trkpt lat="47.98242" lon="6.22431">
        <ele>270.1006</ele>
        <time>2026-05-17T11:20:02+02:00</time>
      </trkpt>
      <trkpt lat="47.98245" lon="6.22437">
        <ele>270.4004</ele>
        <time>2026-05-17T11:20:03+02:00</time>
      </trkpt>
      <trkpt lat="47.98248" lon="6.22444">
        <ele>268.6006</ele>
        <time>2026-05-17T11:20:04+02:00</time>
      </trkpt>
      <trkpt lat="47.98251" lon="6.22451">
        <ele>269</ele>
        <time>2026-05-17T11:20:05+02:00</time>
      </trkpt>
      <trkpt lat="47.98255" lon="6.22458">
        <ele>268.2002</ele>
        <time>2026-05-17T11:20:06+02:00</time>
      </trkpt>
      <trkpt lat="47.98259" lon="6.22464">
        <ele>268.7002</ele>
        <time>2026-05-17T11:20:07+02:00</time>
      </trkpt>
      <trkpt lat="47.98263" lon="6.2247">
        <ele>270.6006</ele>
        <time>2026-05-17T11:20:08+02:00</time>
      </trkpt>
      <trkpt lat="47.98268" lon="6.22476">
        <ele>270.6006</ele>
        <time>2026-05-17T11:20:09+02:00</time>
      </trkpt>
      <trkpt lat="47.98272" lon="6.22481">
        <ele>272.9004</ele>
        <time>2026-05-17T11:20:10+02:00</time>
      </trkpt>
      <trkpt lat="47.98277" lon="6.22486">
        <ele>273.2998</ele>
        <time>2026-05-17T11:20:11+02:00</time>
      </trkpt>
      <trkpt lat="47.98283" lon="6.22491">
        <ele>274.2998</ele>
        <time>2026-05-17T11:20:12+02:00</time>
      </trkpt>
      <trkpt lat="47.98288" lon="6.22495">
        <ele>273.4004</ele>
        <time>2026-05-17T11:20:13+02:00</time>
      </trkpt>
      <trkpt lat="47.98294" lon="6.22499">
        <ele>273</ele>
        <time>2026-05-17T11:20:14+02:00</time>
      </trkpt>
      <trkpt lat="47.983" lon="6.22502">
        <ele>271.4004</ele>
        <time>2026-05-17T11:20:15+02:00</time>
      </trkpt>
      <trkpt lat="47.98305" lon="6.22505">
        <ele>274.2002</ele>
        <time>2026-05-17T11:20:16+02:00</time>
      </trkpt>
      <trkpt lat="47.98311" lon="6.22509">
        <ele>273.4004</ele>
        <time>2026-05-17T11:20:17+02:00</time>
      </trkpt>
      <trkpt lat="47.98316" lon="6.22512">
        <ele>272</ele>
        <time>2026-05-17T11:20:18+02:00</time>
      </trkpt>
      <trkpt lat="47.98322" lon="6.22515">
        <ele>269.5</ele>
        <time>2026-05-17T11:20:19+02:00</time>
      </trkpt>
      <trkpt lat="47.98327" lon="6.22519">
        <ele>267.2002</ele>
        <time>2026-05-17T11:20:20+02:00</time>
      </trkpt>
      <trkpt lat="47.98333" lon="6.22521">
        <ele>266.2002</ele>
        <time>2026-05-17T11:20:21+02:00</time>
      </trkpt>
      <trkpt lat="47.98338" lon="6.22525">
        <ele>265.7002</ele>
        <time>2026-05-17T11:20:22+02:00</time>
      </trkpt>
      <trkpt lat="47.98344" lon="6.22528">
        <ele>265.5</ele>
        <time>2026-05-17T11:20:23+02:00</time>
      </trkpt>
      <trkpt lat="47.9835" lon="6.22532">
        <ele>266</ele>
        <time>2026-05-17T11:20:24+02:00</time>
      </trkpt>
      <trkpt lat="47.98356" lon="6.22535">
        <ele>266.4004</ele>
        <time>2026-05-17T11:20:25+02:00</time>
      </trkpt>
      <trkpt lat="47.98361" lon="6.22538">
        <ele>267.5</ele>
        <time>2026-05-17T11:20:26+02:00</time>
      </trkpt>
      <trkpt lat="47.98367" lon="6.22541">
        <ele>266.9004</ele>
        <time>2026-05-17T11:20:27+02:00</time>
      </trkpt>
      <trkpt lat="47.98373" lon="6.22544">
        <ele>267.9004</ele>
        <time>2026-05-17T11:20:28+02:00</time>
      </trkpt>
      <trkpt lat="47.98379" lon="6.22547">
        <ele>269.6006</ele>
        <time>2026-05-17T11:20:29+02:00</time>
      </trkpt>
      <trkpt lat="47.98385" lon="6.2255">
        <ele>269.7998</ele>
        <time>2026-05-17T11:20:30+02:00</time>
      </trkpt>
      <trkpt lat="47.98391" lon="6.22552">
        <ele>271.7998</ele>
        <time>2026-05-17T11:20:31+02:00</time>
      </trkpt>
      <trkpt lat="47.98397" lon="6.22555">
        <ele>273.5</ele>
        <time>2026-05-17T11:20:32+02:00</time>
      </trkpt>
      <trkpt lat="47.98403" lon="6.22558">
        <ele>271.7002</ele>
        <time>2026-05-17T11:20:33+02:00</time>
      </trkpt>
      <trkpt lat="47.98408" lon="6.22561">
        <ele>272</ele>
        <time>2026-05-17T11:20:34+02:00</time>
      </trkpt>
      <trkpt lat="47.98414" lon="6.22564">
        <ele>272.2998</ele>
        <time>2026-05-17T11:20:35+02:00</time>
      </trkpt>
      <trkpt lat="47.9842" lon="6.22567">
        <ele>269.2998</ele>
        <time>2026-05-17T11:20:36+02:00</time>
      </trkpt>
      <trkpt lat="47.98426" lon="6.2257">
        <ele>271.7998</ele>
        <time>2026-05-17T11:20:37+02:00</time>
      </trkpt>
      <trkpt lat="47.98432" lon="6.22573">
        <ele>275.5</ele>
        <time>2026-05-17T11:20:38+02:00</time>
      </trkpt>
      <trkpt lat="47.98437" lon="6.22577">
        <ele>282.6006</ele>
        <time>2026-05-17T11:20:39+02:00</time>
      </trkpt>
      <trkpt lat="47.98443" lon="6.2258">
        <ele>287.4004</ele>
        <time>2026-05-17T11:20:40+02:00</time>
      </trkpt>
      <trkpt lat="47.98449" lon="6.22582">
        <ele>286.6006</ele>
        <time>2026-05-17T11:20:41+02:00</time>
      </trkpt>
      <trkpt lat="47.98454" lon="6.22585">
        <ele>286.6006</ele>
        <time>2026-05-17T11:20:42+02:00</time>
      </trkpt>
      <trkpt lat="47.9846" lon="6.22588">
        <ele>286.6006</ele>
        <time>2026-05-17T11:20:43+02:00</time>
      </trkpt>
      <trkpt lat="47.98465" lon="6.22591">
        <ele>286.5</ele>
        <time>2026-05-17T11:20:44+02:00</time>
      </trkpt>
      <trkpt lat="47.98471" lon="6.22594">
        <ele>287.4004</ele>
        <time>2026-05-17T11:20:45+02:00</time>
      </trkpt>
      <trkpt lat="47.98477" lon="6.22597">
        <ele>288.2998</ele>
        <time>2026-05-17T11:20:46+02:00</time>
      </trkpt>
      <trkpt lat="47.98482" lon="6.226">
        <ele>289.2002</ele>
        <time>2026-05-17T11:20:47+02:00</time>
      </trkpt>
      <trkpt lat="47.98488" lon="6.22603">
        <ele>290</ele>
        <time>2026-05-17T11:20:48+02:00</time>
      </trkpt>
      <trkpt lat="47.98494" lon="6.22606">
        <ele>290.9004</ele>
        <time>2026-05-17T11:20:49+02:00</time>
      </trkpt>
      <trkpt lat="47.985" lon="6.22609">
        <ele>290.7002</ele>
        <time>2026-05-17T11:20:50+02:00</time>
      </trkpt>
      <trkpt lat="47.98506" lon="6.22612">
        <ele>291.2002</ele>
        <time>2026-05-17T11:20:51+02:00</time>
      </trkpt>
      <trkpt lat="47.98512" lon="6.22614">
        <ele>291.4004</ele>
        <time>2026-05-17T11:20:52+02:00</time>
      </trkpt>
      <trkpt lat="47.98518" lon="6.22617">
        <ele>290.5</ele>
        <time>2026-05-17T11:20:53+02:00</time>
      </trkpt>
      <trkpt lat="47.98524" lon="6.2262">
        <ele>290.7002</ele>
        <time>2026-05-17T11:20:54+02:00</time>
      </trkpt>
      <trkpt lat="47.9853" lon="6.22624">
        <ele>291</ele>
        <time>2026-05-17T11:20:55+02:00</time>
      </trkpt>
      <trkpt lat="47.98536" lon="6.22627">
        <ele>291.2002</ele>
        <time>2026-05-17T11:20:56+02:00</time>
      </trkpt>
      <trkpt lat="47.98542" lon="6.2263">
        <ele>291.6006</ele>
        <time>2026-05-17T11:20:57+02:00</time>
      </trkpt>
      <trkpt lat="47.98547" lon="6.22633">
        <ele>291.2002</ele>
        <time>2026-05-17T11:20:58+02:00</time>
      </trkpt>
      <trkpt lat="47.98554" lon="6.22636">
        <ele>291</ele>
        <time>2026-05-17T11:20:59+02:00</time>
      </trkpt>
      <trkpt lat="47.9856" lon="6.22639">
        <ele>290.7998</ele>
        <time>2026-05-17T11:21:00+02:00</time>
      </trkpt>
      <trkpt lat="47.98566" lon="6.22641">
        <ele>290.5</ele>
        <time>2026-05-17T11:21:01+02:00</time>
      </trkpt>
      <trkpt lat="47.98572" lon="6.22644">
        <ele>288</ele>
        <time>2026-05-17T11:21:02+02:00</time>
      </trkpt>
      <trkpt lat="47.98578" lon="6.22647">
        <ele>287.4004</ele>
        <time>2026-05-17T11:21:03+02:00</time>
      </trkpt>
      <trkpt lat="47.98584" lon="6.22649">
        <ele>286.7998</ele>
        <time>2026-05-17T11:21:04+02:00</time>
      </trkpt>
      <trkpt lat="47.98591" lon="6.22652">
        <ele>284.4004</ele>
        <time>2026-05-17T11:21:05+02:00</time>
      </trkpt>
      <trkpt lat="47.98597" lon="6.22655">
        <ele>284.5</ele>
        <time>2026-05-17T11:21:06+02:00</time>
      </trkpt>
      <trkpt lat="47.98603" lon="6.22658">
        <ele>284.4004</ele>
        <time>2026-05-17T11:21:07+02:00</time>
      </trkpt>
      <trkpt lat="47.98609" lon="6.2266">
        <ele>282.7998</ele>
        <time>2026-05-17T11:21:08+02:00</time>
      </trkpt>
      <trkpt lat="47.98615" lon="6.22663">
        <ele>282.1006</ele>
        <time>2026-05-17T11:21:09+02:00</time>
      </trkpt>
      <trkpt lat="47.98621" lon="6.22666">
        <ele>281.2998</ele>
        <time>2026-05-17T11:21:10+02:00</time>
      </trkpt>
      <trkpt lat="47.98628" lon="6.22669">
        <ele>279.4004</ele>
        <time>2026-05-17T11:21:11+02:00</time>
      </trkpt>
      <trkpt lat="47.98634" lon="6.22672">
        <ele>278.5</ele>
        <time>2026-05-17T11:21:12+02:00</time>
      </trkpt>
      <trkpt lat="47.9864" lon="6.22675">
        <ele>277.6006</ele>
        <time>2026-05-17T11:21:13+02:00</time>
      </trkpt>
      <trkpt lat="47.98646" lon="6.22678">
        <ele>275.4004</ele>
        <time>2026-05-17T11:21:14+02:00</time>
      </trkpt>
      <trkpt lat="47.98652" lon="6.22681">
        <ele>274.6006</ele>
        <time>2026-05-17T11:21:15+02:00</time>
      </trkpt>
      <trkpt lat="47.98659" lon="6.22685">
        <ele>272.6006</ele>
        <time>2026-05-17T11:21:16+02:00</time>
      </trkpt>
      <trkpt lat="47.98665" lon="6.22688">
        <ele>272.2002</ele>
        <time>2026-05-17T11:21:17+02:00</time>
      </trkpt>
      <trkpt lat="47.98671" lon="6.22691">
        <ele>271.9004</ele>
        <time>2026-05-17T11:21:18+02:00</time>
      </trkpt>
      <trkpt lat="47.98677" lon="6.22694">
        <ele>271</ele>
        <time>2026-05-17T11:21:19+02:00</time>
      </trkpt>
      <trkpt lat="47.98684" lon="6.22697">
        <ele>270.7002</ele>
        <time>2026-05-17T11:21:20+02:00</time>
      </trkpt>
      <trkpt lat="47.98691" lon="6.22701">
        <ele>270.2998</ele>
        <time>2026-05-17T11:21:21+02:00</time>
      </trkpt>
      <trkpt lat="47.98697" lon="6.22704">
        <ele>269.9004</ele>
        <time>2026-05-17T11:21:22+02:00</time>
      </trkpt>
      <trkpt lat="47.98704" lon="6.22707">
        <ele>269.7002</ele>
        <time>2026-05-17T11:21:23+02:00</time>
      </trkpt>
      <trkpt lat="47.9871" lon="6.2271">
        <ele>269.6006</ele>
        <time>2026-05-17T11:21:24+02:00</time>
      </trkpt>
      <trkpt lat="47.98717" lon="6.22712">
        <ele>269</ele>
        <time>2026-05-17T11:21:25+02:00</time>
      </trkpt>
      <trkpt lat="47.98724" lon="6.22713">
        <ele>268.5</ele>
        <time>2026-05-17T11:21:26+02:00</time>
      </trkpt>
      <trkpt lat="47.9873" lon="6.22715">
        <ele>267.7998</ele>
        <time>2026-05-17T11:21:27+02:00</time>
      </trkpt>
      <trkpt lat="47.98736" lon="6.22716">
        <ele>267</ele>
        <time>2026-05-17T11:21:28+02:00</time>
      </trkpt>
      <trkpt lat="47.98743" lon="6.22717">
        <ele>266.6006</ele>
        <time>2026-05-17T11:21:29+02:00</time>
      </trkpt>
      <trkpt lat="47.98749" lon="6.22719">
        <ele>266.2002</ele>
        <time>2026-05-17T11:21:30+02:00</time>
      </trkpt>
      <trkpt lat="47.98755" lon="6.2272">
        <ele>266.1006</ele>
        <time>2026-05-17T11:21:31+02:00</time>
      </trkpt>
      <trkpt lat="47.98761" lon="6.22721">
        <ele>266.1006</ele>
        <time>2026-05-17T11:21:32+02:00</time>
      </trkpt>
      <trkpt lat="47.98767" lon="6.22722">
        <ele>266.2002</ele>
        <time>2026-05-17T11:21:33+02:00</time>
      </trkpt>
      <trkpt lat="47.98773" lon="6.22724">
        <ele>266.2998</ele>
        <time>2026-05-17T11:21:34+02:00</time>
      </trkpt>
      <trkpt lat="47.98778" lon="6.22725">
        <ele>266.4004</ele>
        <time>2026-05-17T11:21:35+02:00</time>
      </trkpt>
      <trkpt lat="47.98784" lon="6.22727">
        <ele>266.5</ele>
        <time>2026-05-17T11:21:36+02:00</time>
      </trkpt>
      <trkpt lat="47.9879" lon="6.22728">
        <ele>266.9004</ele>
        <time>2026-05-17T11:21:37+02:00</time>
      </trkpt>
      <trkpt lat="47.98796" lon="6.22729">
        <ele>267</ele>
        <time>2026-05-17T11:21:38+02:00</time>
      </trkpt>
      <trkpt lat="47.98802" lon="6.22731">
        <ele>267.2002</ele>
        <time>2026-05-17T11:21:39+02:00</time>
      </trkpt>
      <trkpt lat="47.98808" lon="6.22732">
        <ele>267.4004</ele>
        <time>2026-05-17T11:21:40+02:00</time>
      </trkpt>
      <trkpt lat="47.98814" lon="6.22734">
        <ele>267.5</ele>
        <time>2026-05-17T11:21:41+02:00</time>
      </trkpt>
      <trkpt lat="47.9882" lon="6.22736">
        <ele>267.7998</ele>
        <time>2026-05-17T11:21:42+02:00</time>
      </trkpt>
      <trkpt lat="47.98827" lon="6.22737">
        <ele>267.6006</ele>
        <time>2026-05-17T11:21:43+02:00</time>
      </trkpt>
      <trkpt lat="47.98833" lon="6.22739">
        <ele>267.5</ele>
        <time>2026-05-17T11:21:44+02:00</time>
      </trkpt>
      <trkpt lat="47.98839" lon="6.2274">
        <ele>267.1006</ele>
        <time>2026-05-17T11:21:45+02:00</time>
      </trkpt>
      <trkpt lat="47.98845" lon="6.22742">
        <ele>266.6006</ele>
        <time>2026-05-17T11:21:46+02:00</time>
      </trkpt>
      <trkpt lat="47.98852" lon="6.22744">
        <ele>266.1006</ele>
        <time>2026-05-17T11:21:47+02:00</time>
      </trkpt>
      <trkpt lat="47.98858" lon="6.22746">
        <ele>265.7002</ele>
        <time>2026-05-17T11:21:48+02:00</time>
      </trkpt>
      <trkpt lat="47.98864" lon="6.22748">
        <ele>265.4004</ele>
        <time>2026-05-17T11:21:49+02:00</time>
      </trkpt>
      <trkpt lat="47.98871" lon="6.2275">
        <ele>265.1006</ele>
        <time>2026-05-17T11:21:50+02:00</time>
      </trkpt>
      <trkpt lat="47.98877" lon="6.22751">
        <ele>264.7002</ele>
        <time>2026-05-17T11:21:51+02:00</time>
      </trkpt>
      <trkpt lat="47.98884" lon="6.22753">
        <ele>263.7002</ele>
        <time>2026-05-17T11:21:52+02:00</time>
      </trkpt>
      <trkpt lat="47.9889" lon="6.22755">
        <ele>263.7998</ele>
        <time>2026-05-17T11:21:53+02:00</time>
      </trkpt>
      <trkpt lat="47.98896" lon="6.22756">
        <ele>263.2998</ele>
        <time>2026-05-17T11:21:54+02:00</time>
      </trkpt>
      <trkpt lat="47.98903" lon="6.22757">
        <ele>262.9004</ele>
        <time>2026-05-17T11:21:55+02:00</time>
      </trkpt>
      <trkpt lat="47.98909" lon="6.22757">
        <ele>262.4004</ele>
        <time>2026-05-17T11:21:56+02:00</time>
      </trkpt>
      <trkpt lat="47.98915" lon="6.22758">
        <ele>261.9004</ele>
        <time>2026-05-17T11:21:57+02:00</time>
      </trkpt>
      <trkpt lat="47.98922" lon="6.22758">
        <ele>261.4004</ele>
        <time>2026-05-17T11:21:58+02:00</time>
      </trkpt>
      <trkpt lat="47.98928" lon="6.22757">
        <ele>261.1006</ele>
        <time>2026-05-17T11:21:59+02:00</time>
      </trkpt>
      <trkpt lat="47.98934" lon="6.22757">
        <ele>260.7002</ele>
        <time>2026-05-17T11:22:00+02:00</time>
      </trkpt>
      <trkpt lat="47.9894" lon="6.22756">
        <ele>260.4004</ele>
        <time>2026-05-17T11:22:01+02:00</time>
      </trkpt>
      <trkpt lat="47.98946" lon="6.22755">
        <ele>260.2002</ele>
        <time>2026-05-17T11:22:02+02:00</time>
      </trkpt>
      <trkpt lat="47.98952" lon="6.22754">
        <ele>260</ele>
        <time>2026-05-17T11:22:03+02:00</time>
      </trkpt>
      <trkpt lat="47.98959" lon="6.22752">
        <ele>258.4004</ele>
        <time>2026-05-17T11:22:04+02:00</time>
      </trkpt>
      <trkpt lat="47.98964" lon="6.22751">
        <ele>258.5</ele>
        <time>2026-05-17T11:22:05+02:00</time>
      </trkpt>
      <trkpt lat="47.98971" lon="6.2275">
        <ele>258.6006</ele>
        <time>2026-05-17T11:22:06+02:00</time>
      </trkpt>
      <trkpt lat="47.98977" lon="6.22748">
        <ele>258.9004</ele>
        <time>2026-05-17T11:22:07+02:00</time>
      </trkpt>
      <trkpt lat="47.98983" lon="6.22746">
        <ele>259.2002</ele>
        <time>2026-05-17T11:22:08+02:00</time>
      </trkpt>
      <trkpt lat="47.98989" lon="6.22744">
        <ele>258.7998</ele>
        <time>2026-05-17T11:22:09+02:00</time>
      </trkpt>
      <trkpt lat="47.98995" lon="6.22741">
        <ele>259.2002</ele>
        <time>2026-05-17T11:22:10+02:00</time>
      </trkpt>
      <trkpt lat="47.99" lon="6.22739">
        <ele>259.7002</ele>
        <time>2026-05-17T11:22:11+02:00</time>
      </trkpt>
      <trkpt lat="47.99006" lon="6.22735">
        <ele>260</ele>
        <time>2026-05-17T11:22:12+02:00</time>
      </trkpt>
      <trkpt lat="47.99012" lon="6.22731">
        <ele>260.6006</ele>
        <time>2026-05-17T11:22:13+02:00</time>
      </trkpt>
      <trkpt lat="47.99018" lon="6.22727">
        <ele>261.7002</ele>
        <time>2026-05-17T11:22:14+02:00</time>
      </trkpt>
      <trkpt lat="47.99024" lon="6.22724">
        <ele>262.2998</ele>
        <time>2026-05-17T11:22:15+02:00</time>
      </trkpt>
      <trkpt lat="47.9903" lon="6.22719">
        <ele>263</ele>
        <time>2026-05-17T11:22:16+02:00</time>
      </trkpt>
      <trkpt lat="47.99036" lon="6.22714">
        <ele>264.5</ele>
        <time>2026-05-17T11:22:17+02:00</time>
      </trkpt>
      <trkpt lat="47.99041" lon="6.22709">
        <ele>266</ele>
        <time>2026-05-17T11:22:18+02:00</time>
      </trkpt>
      <trkpt lat="47.99048" lon="6.22704">
        <ele>266.5</ele>
        <time>2026-05-17T11:22:19+02:00</time>
      </trkpt>
      <trkpt lat="47.99053" lon="6.22699">
        <ele>267.5</ele>
        <time>2026-05-17T11:22:20+02:00</time>
      </trkpt>
      <trkpt lat="47.99059" lon="6.22694">
        <ele>267.5</ele>
        <time>2026-05-17T11:22:21+02:00</time>
      </trkpt>
      <trkpt lat="47.99065" lon="6.22688">
        <ele>267.7998</ele>
        <time>2026-05-17T11:22:22+02:00</time>
      </trkpt>
      <trkpt lat="47.9907" lon="6.22681">
        <ele>268.5</ele>
        <time>2026-05-17T11:22:23+02:00</time>
      </trkpt>
      <trkpt lat="47.99076" lon="6.22675">
        <ele>269.4004</ele>
        <time>2026-05-17T11:22:24+02:00</time>
      </trkpt>
      <trkpt lat="47.99082" lon="6.2267">
        <ele>268.9004</ele>
        <time>2026-05-17T11:22:25+02:00</time>
      </trkpt>
      <trkpt lat="47.99087" lon="6.22664">
        <ele>269.1006</ele>
        <time>2026-05-17T11:22:26+02:00</time>
      </trkpt>
      <trkpt lat="47.99093" lon="6.22658">
        <ele>269.7998</ele>
        <time>2026-05-17T11:22:27+02:00</time>
      </trkpt>
      <trkpt lat="47.99099" lon="6.22653">
        <ele>269.2002</ele>
        <time>2026-05-17T11:22:28+02:00</time>
      </trkpt>
      <trkpt lat="47.99104" lon="6.22648">
        <ele>270.7002</ele>
        <time>2026-05-17T11:22:29+02:00</time>
      </trkpt>
      <trkpt lat="47.99109" lon="6.22643">
        <ele>270.5</ele>
        <time>2026-05-17T11:22:30+02:00</time>
      </trkpt>
      <trkpt lat="47.99116" lon="6.22638">
        <ele>272.1006</ele>
        <time>2026-05-17T11:22:31+02:00</time>
      </trkpt>
      <trkpt lat="47.99122" lon="6.22634">
        <ele>271.7002</ele>
        <time>2026-05-17T11:22:32+02:00</time>
      </trkpt>
      <trkpt lat="47.99128" lon="6.22631">
        <ele>272.7002</ele>
        <time>2026-05-17T11:22:33+02:00</time>
      </trkpt>
      <trkpt lat="47.99135" lon="6.22627">
        <ele>271.9004</ele>
        <time>2026-05-17T11:22:34+02:00</time>
      </trkpt>
      <trkpt lat="47.99141" lon="6.22625">
        <ele>271.2002</ele>
        <time>2026-05-17T11:22:35+02:00</time>
      </trkpt>
      <trkpt lat="47.99147" lon="6.22623">
        <ele>272</ele>
        <time>2026-05-17T11:22:36+02:00</time>
      </trkpt>
      <trkpt lat="47.99154" lon="6.22621">
        <ele>271.6006</ele>
        <time>2026-05-17T11:22:37+02:00</time>
      </trkpt>
      <trkpt lat="47.9916" lon="6.2262">
        <ele>271.5</ele>
        <time>2026-05-17T11:22:38+02:00</time>
      </trkpt>
      <trkpt lat="47.99167" lon="6.2262">
        <ele>271.5</ele>
        <time>2026-05-17T11:22:39+02:00</time>
      </trkpt>
      <trkpt lat="47.99173" lon="6.2262">
        <ele>271.5</ele>
        <time>2026-05-17T11:22:40+02:00</time>
      </trkpt>
      <trkpt lat="47.99179" lon="6.2262">
        <ele>271.5</ele>
        <time>2026-05-17T11:22:41+02:00</time>
      </trkpt>
      <trkpt lat="47.99185" lon="6.22621">
        <ele>271.5</ele>
        <time>2026-05-17T11:22:42+02:00</time>
      </trkpt>
      <trkpt lat="47.99191" lon="6.22622">
        <ele>271.5</ele>
        <time>2026-05-17T11:22:43+02:00</time>
      </trkpt>
      <trkpt lat="47.99197" lon="6.22625">
        <ele>270.9004</ele>
        <time>2026-05-17T11:22:44+02:00</time>
      </trkpt>
      <trkpt lat="47.99203" lon="6.22627">
        <ele>270.7002</ele>
        <time>2026-05-17T11:22:45+02:00</time>
      </trkpt>
      <trkpt lat="47.99209" lon="6.2263">
        <ele>270.7002</ele>
        <time>2026-05-17T11:22:46+02:00</time>
      </trkpt>
      <trkpt lat="47.99214" lon="6.22634">
        <ele>271.2998</ele>
        <time>2026-05-17T11:22:47+02:00</time>
      </trkpt>
      <trkpt lat="47.99219" lon="6.22637">
        <ele>272.2002</ele>
        <time>2026-05-17T11:22:48+02:00</time>
      </trkpt>
      <trkpt lat="47.99225" lon="6.22641">
        <ele>273.5</ele>
        <time>2026-05-17T11:22:49+02:00</time>
      </trkpt>
      <trkpt lat="47.9923" lon="6.22646">
        <ele>274.1006</ele>
        <time>2026-05-17T11:22:50+02:00</time>
      </trkpt>
      <trkpt lat="47.99235" lon="6.2265">
        <ele>274.7002</ele>
        <time>2026-05-17T11:22:51+02:00</time>
      </trkpt>
      <trkpt lat="47.99239" lon="6.22655">
        <ele>273.7998</ele>
        <time>2026-05-17T11:22:52+02:00</time>
      </trkpt>
      <trkpt lat="47.99243" lon="6.2266">
        <ele>273.2998</ele>
        <time>2026-05-17T11:22:53+02:00</time>
      </trkpt>
      <trkpt lat="47.99246" lon="6.22665">
        <ele>273.7998</ele>
        <time>2026-05-17T11:22:54+02:00</time>
      </trkpt>
      <trkpt lat="47.99249" lon="6.22671">
        <ele>272.9004</ele>
        <time>2026-05-17T11:22:55+02:00</time>
      </trkpt>
      <trkpt lat="47.99251" lon="6.22675">
        <ele>273.5</ele>
        <time>2026-05-17T11:22:56+02:00</time>
      </trkpt>
      <trkpt lat="47.99253" lon="6.22679">
        <ele>273.1006</ele>
        <time>2026-05-17T11:22:57+02:00</time>
      </trkpt>
      <trkpt lat="47.99254" lon="6.22682">
        <ele>273.1006</ele>
        <time>2026-05-17T11:22:58+02:00</time>
      </trkpt>
      <trkpt lat="47.99256" lon="6.22686">
        <ele>272.9004</ele>
        <time>2026-05-17T11:22:59+02:00</time>
      </trkpt>
      <trkpt lat="47.99257" lon="6.2269">
        <ele>273.4004</ele>
        <time>2026-05-17T11:23:00+02:00</time>
      </trkpt>
      <trkpt lat="47.9926" lon="6.22694">
        <ele>273.2998</ele>
        <time>2026-05-17T11:23:01+02:00</time>
      </trkpt>
      <trkpt lat="47.99263" lon="6.22698">
        <ele>273.7998</ele>
        <time>2026-05-17T11:23:02+02:00</time>
      </trkpt>
      <trkpt lat="47.99265" lon="6.22703">
        <ele>273.7998</ele>
        <time>2026-05-17T11:23:03+02:00</time>
      </trkpt>
      <trkpt lat="47.99267" lon="6.22707">
        <ele>273.7998</ele>
        <time>2026-05-17T11:23:04+02:00</time>
      </trkpt>
      <trkpt lat="47.9927" lon="6.22711">
        <ele>274.6006</ele>
        <time>2026-05-17T11:23:05+02:00</time>
      </trkpt>
      <trkpt lat="47.99273" lon="6.22715">
        <ele>274.6006</ele>
        <time>2026-05-17T11:23:06+02:00</time>
      </trkpt>
      <trkpt lat="47.99276" lon="6.2272">
        <ele>275.2998</ele>
        <time>2026-05-17T11:23:07+02:00</time>
      </trkpt>
      <trkpt lat="47.9928" lon="6.22725">
        <ele>275.9004</ele>
        <time>2026-05-17T11:23:08+02:00</time>
      </trkpt>
      <trkpt lat="47.99283" lon="6.22729">
        <ele>275.9004</ele>
        <time>2026-05-17T11:23:09+02:00</time>
      </trkpt>
      <trkpt lat="47.99287" lon="6.22734">
        <ele>276.4004</ele>
        <time>2026-05-17T11:23:10+02:00</time>
      </trkpt>
      <trkpt lat="47.99291" lon="6.22739">
        <ele>276.5</ele>
        <time>2026-05-17T11:23:11+02:00</time>
      </trkpt>
      <trkpt lat="47.99294" lon="6.22744">
        <ele>277.2998</ele>
        <time>2026-05-17T11:23:12+02:00</time>
      </trkpt>
      <trkpt lat="47.99298" lon="6.22749">
        <ele>278.2002</ele>
        <time>2026-05-17T11:23:13+02:00</time>
      </trkpt>
      <trkpt lat="47.99302" lon="6.22755">
        <ele>278</ele>
        <time>2026-05-17T11:23:14+02:00</time>
      </trkpt>
      <trkpt lat="47.99305" lon="6.2276">
        <ele>278.6006</ele>
        <time>2026-05-17T11:23:15+02:00</time>
      </trkpt>
      <trkpt lat="47.99309" lon="6.22766">
        <ele>278.7998</ele>
        <time>2026-05-17T11:23:16+02:00</time>
      </trkpt>
      <trkpt lat="47.99313" lon="6.22772">
        <ele>278.4004</ele>
        <time>2026-05-17T11:23:17+02:00</time>
      </trkpt>
      <trkpt lat="47.99317" lon="6.22778">
        <ele>279.2002</ele>
        <time>2026-05-17T11:23:18+02:00</time>
      </trkpt>
      <trkpt lat="47.99321" lon="6.22783">
        <ele>279.7002</ele>
        <time>2026-05-17T11:23:19+02:00</time>
      </trkpt>
      <trkpt lat="47.99325" lon="6.22789">
        <ele>279.2998</ele>
        <time>2026-05-17T11:23:20+02:00</time>
      </trkpt>
      <trkpt lat="47.99329" lon="6.22794">
        <ele>279.7002</ele>
        <time>2026-05-17T11:23:21+02:00</time>
      </trkpt>
      <trkpt lat="47.99333" lon="6.228">
        <ele>279</ele>
        <time>2026-05-17T11:23:22+02:00</time>
      </trkpt>
      <trkpt lat="47.99338" lon="6.22806">
        <ele>278.1006</ele>
        <time>2026-05-17T11:23:23+02:00</time>
      </trkpt>
      <trkpt lat="47.99342" lon="6.22811">
        <ele>278.1006</ele>
        <time>2026-05-17T11:23:24+02:00</time>
      </trkpt>
      <trkpt lat="47.99346" lon="6.22817">
        <ele>277.2998</ele>
        <time>2026-05-17T11:23:25+02:00</time>
      </trkpt>
      <trkpt lat="47.99351" lon="6.22822">
        <ele>276.7002</ele>
        <time>2026-05-17T11:23:26+02:00</time>
      </trkpt>
      <trkpt lat="47.99355" lon="6.22827">
        <ele>276.6006</ele>
        <time>2026-05-17T11:23:27+02:00</time>
      </trkpt>
      <trkpt lat="47.9936" lon="6.22833">
        <ele>275.7998</ele>
        <time>2026-05-17T11:23:28+02:00</time>
      </trkpt>
      <trkpt lat="47.99366" lon="6.22837">
        <ele>275.6006</ele>
        <time>2026-05-17T11:23:29+02:00</time>
      </trkpt>
      <trkpt lat="47.99371" lon="6.22842">
        <ele>274.7002</ele>
        <time>2026-05-17T11:23:30+02:00</time>
      </trkpt>
      <trkpt lat="47.99376" lon="6.22846">
        <ele>274.6006</ele>
        <time>2026-05-17T11:23:31+02:00</time>
      </trkpt>
      <trkpt lat="47.99381" lon="6.2285">
        <ele>274.1006</ele>
        <time>2026-05-17T11:23:32+02:00</time>
      </trkpt>
      <trkpt lat="47.99386" lon="6.22854">
        <ele>274.5</ele>
        <time>2026-05-17T11:23:33+02:00</time>
      </trkpt>
      <trkpt lat="47.99391" lon="6.22857">
        <ele>274.7002</ele>
        <time>2026-05-17T11:23:34+02:00</time>
      </trkpt>
      <trkpt lat="47.99396" lon="6.2286">
        <ele>275.2002</ele>
        <time>2026-05-17T11:23:35+02:00</time>
      </trkpt>
      <trkpt lat="47.99401" lon="6.22863">
        <ele>275.6006</ele>
        <time>2026-05-17T11:23:36+02:00</time>
      </trkpt>
      <trkpt lat="47.99407" lon="6.22866">
        <ele>275.1006</ele>
        <time>2026-05-17T11:23:37+02:00</time>
      </trkpt>
      <trkpt lat="47.99412" lon="6.22868">
        <ele>275.2998</ele>
        <time>2026-05-17T11:23:38+02:00</time>
      </trkpt>
      <trkpt lat="47.99417" lon="6.2287">
        <ele>275.2998</ele>
        <time>2026-05-17T11:23:39+02:00</time>
      </trkpt>
      <trkpt lat="47.99423" lon="6.22872">
        <ele>275.6006</ele>
        <time>2026-05-17T11:23:40+02:00</time>
      </trkpt>
      <trkpt lat="47.99428" lon="6.22874">
        <ele>275.7002</ele>
        <time>2026-05-17T11:23:41+02:00</time>
      </trkpt>
      <trkpt lat="47.99433" lon="6.22876">
        <ele>276.7998</ele>
        <time>2026-05-17T11:23:42+02:00</time>
      </trkpt>
      <trkpt lat="47.99439" lon="6.22877">
        <ele>278.1006</ele>
        <time>2026-05-17T11:23:43+02:00</time>
      </trkpt>
      <trkpt lat="47.99444" lon="6.22879">
        <ele>279.4004</ele>
        <time>2026-05-17T11:23:44+02:00</time>
      </trkpt>
      <trkpt lat="47.9945" lon="6.2288">
        <ele>280.7998</ele>
        <time>2026-05-17T11:23:45+02:00</time>
      </trkpt>
      <trkpt lat="47.99455" lon="6.22882">
        <ele>281.5</ele>
        <time>2026-05-17T11:23:46+02:00</time>
      </trkpt>
      <trkpt lat="47.9946" lon="6.22883">
        <ele>282.7002</ele>
        <time>2026-05-17T11:23:47+02:00</time>
      </trkpt>
      <trkpt lat="47.99466" lon="6.22885">
        <ele>283.7002</ele>
        <time>2026-05-17T11:23:48+02:00</time>
      </trkpt>
      <trkpt lat="47.99472" lon="6.22886">
        <ele>284.6006</ele>
        <time>2026-05-17T11:23:49+02:00</time>
      </trkpt>
      <trkpt lat="47.99478" lon="6.22888">
        <ele>285.2002</ele>
        <time>2026-05-17T11:23:50+02:00</time>
      </trkpt>
      <trkpt lat="47.99484" lon="6.2289">
        <ele>285.6006</ele>
        <time>2026-05-17T11:23:51+02:00</time>
      </trkpt>
      <trkpt lat="47.99489" lon="6.22892">
        <ele>285.4004</ele>
        <time>2026-05-17T11:23:52+02:00</time>
      </trkpt>
      <trkpt lat="47.99495" lon="6.22896">
        <ele>286</ele>
        <time>2026-05-17T11:23:53+02:00</time>
      </trkpt>
      <trkpt lat="47.99501" lon="6.229">
        <ele>285.6006</ele>
        <time>2026-05-17T11:23:54+02:00</time>
      </trkpt>
      <trkpt lat="47.99507" lon="6.22904">
        <ele>285.9004</ele>
        <time>2026-05-17T11:23:55+02:00</time>
      </trkpt>
      <trkpt lat="47.99512" lon="6.22908">
        <ele>284.9004</ele>
        <time>2026-05-17T11:23:56+02:00</time>
      </trkpt>
      <trkpt lat="47.99518" lon="6.22913">
        <ele>285.1006</ele>
        <time>2026-05-17T11:23:57+02:00</time>
      </trkpt>
      <trkpt lat="47.99524" lon="6.22919">
        <ele>284.2002</ele>
        <time>2026-05-17T11:23:58+02:00</time>
      </trkpt>
      <trkpt lat="47.99529" lon="6.22925">
        <ele>283.7002</ele>
        <time>2026-05-17T11:23:59+02:00</time>
      </trkpt>
      <trkpt lat="47.99535" lon="6.22931">
        <ele>284</ele>
        <time>2026-05-17T11:24:00+02:00</time>
      </trkpt>
      <trkpt lat="47.9954" lon="6.22938">
        <ele>283.2002</ele>
        <time>2026-05-17T11:24:01+02:00</time>
      </trkpt>
      <trkpt lat="47.99545" lon="6.22945">
        <ele>282.4004</ele>
        <time>2026-05-17T11:24:02+02:00</time>
      </trkpt>
      <trkpt lat="47.99549" lon="6.22952">
        <ele>281.6006</ele>
        <time>2026-05-17T11:24:03+02:00</time>
      </trkpt>
      <trkpt lat="47.99554" lon="6.22961">
        <ele>281.2002</ele>
        <time>2026-05-17T11:24:04+02:00</time>
      </trkpt>
      <trkpt lat="47.99558" lon="6.22969">
        <ele>280.7998</ele>
        <time>2026-05-17T11:24:05+02:00</time>
      </trkpt>
      <trkpt lat="47.99562" lon="6.22977">
        <ele>280.4004</ele>
        <time>2026-05-17T11:24:06+02:00</time>
      </trkpt>
      <trkpt lat="47.99566" lon="6.22986">
        <ele>279.9004</ele>
        <time>2026-05-17T11:24:07+02:00</time>
      </trkpt>
      <trkpt lat="47.99569" lon="6.22994">
        <ele>279.6006</ele>
        <time>2026-05-17T11:24:08+02:00</time>
      </trkpt>
      <trkpt lat="47.99572" lon="6.23003">
        <ele>279.1006</ele>
        <time>2026-05-17T11:24:09+02:00</time>
      </trkpt>
      <trkpt lat="47.99576" lon="6.23012">
        <ele>278.7002</ele>
        <time>2026-05-17T11:24:10+02:00</time>
      </trkpt>
      <trkpt lat="47.99579" lon="6.23021">
        <ele>278.2998</ele>
        <time>2026-05-17T11:24:11+02:00</time>
      </trkpt>
      <trkpt lat="47.99582" lon="6.2303">
        <ele>277.7998</ele>
        <time>2026-05-17T11:24:12+02:00</time>
      </trkpt>
      <trkpt lat="47.99584" lon="6.23039">
        <ele>277.4004</ele>
        <time>2026-05-17T11:24:13+02:00</time>
      </trkpt>
      <trkpt lat="47.99587" lon="6.23048">
        <ele>277.1006</ele>
        <time>2026-05-17T11:24:14+02:00</time>
      </trkpt>
      <trkpt lat="47.9959" lon="6.23057">
        <ele>276.9004</ele>
        <time>2026-05-17T11:24:15+02:00</time>
      </trkpt>
      <trkpt lat="47.99593" lon="6.23065">
        <ele>276.7002</ele>
        <time>2026-05-17T11:24:16+02:00</time>
      </trkpt>
      <trkpt lat="47.99595" lon="6.23074">
        <ele>276.5</ele>
        <time>2026-05-17T11:24:17+02:00</time>
      </trkpt>
      <trkpt lat="47.99597" lon="6.23082">
        <ele>276.5</ele>
        <time>2026-05-17T11:24:18+02:00</time>
      </trkpt>
      <trkpt lat="47.996" lon="6.23091">
        <ele>276.4004</ele>
        <time>2026-05-17T11:24:19+02:00</time>
      </trkpt>
      <trkpt lat="47.99601" lon="6.23099">
        <ele>276.2002</ele>
        <time>2026-05-17T11:24:20+02:00</time>
      </trkpt>
      <trkpt lat="47.99603" lon="6.23108">
        <ele>276.2002</ele>
        <time>2026-05-17T11:24:21+02:00</time>
      </trkpt>
      <trkpt lat="47.99604" lon="6.23117">
        <ele>276.1006</ele>
        <time>2026-05-17T11:24:22+02:00</time>
      </trkpt>
      <trkpt lat="47.99606" lon="6.23127">
        <ele>275.9004</ele>
        <time>2026-05-17T11:24:23+02:00</time>
      </trkpt>
      <trkpt lat="47.99607" lon="6.23135">
        <ele>275.7002</ele>
        <time>2026-05-17T11:24:24+02:00</time>
      </trkpt>
      <trkpt lat="47.99609" lon="6.23145">
        <ele>275.5</ele>
        <time>2026-05-17T11:24:25+02:00</time>
      </trkpt>
      <trkpt lat="47.9961" lon="6.23154">
        <ele>275.2998</ele>
        <time>2026-05-17T11:24:26+02:00</time>
      </trkpt>
      <trkpt lat="47.99612" lon="6.23163">
        <ele>275.2002</ele>
        <time>2026-05-17T11:24:27+02:00</time>
      </trkpt>
      <trkpt lat="47.99614" lon="6.23172">
        <ele>275.2998</ele>
        <time>2026-05-17T11:24:28+02:00</time>
      </trkpt>
      <trkpt lat="47.99616" lon="6.23182">
        <ele>275.7002</ele>
        <time>2026-05-17T11:24:29+02:00</time>
      </trkpt>
      <trkpt lat="47.99618" lon="6.23192">
        <ele>276.2002</ele>
        <time>2026-05-17T11:24:30+02:00</time>
      </trkpt>
      <trkpt lat="47.99619" lon="6.23202">
        <ele>276.2002</ele>
        <time>2026-05-17T11:24:31+02:00</time>
      </trkpt>
      <trkpt lat="47.99622" lon="6.23212">
        <ele>276.1006</ele>
        <time>2026-05-17T11:24:32+02:00</time>
      </trkpt>
      <trkpt lat="47.99625" lon="6.23221">
        <ele>275.7998</ele>
        <time>2026-05-17T11:24:33+02:00</time>
      </trkpt>
      <trkpt lat="47.99629" lon="6.23229">
        <ele>275.7002</ele>
        <time>2026-05-17T11:24:34+02:00</time>
      </trkpt>
      <trkpt lat="47.99635" lon="6.23236">
        <ele>275.2998</ele>
        <time>2026-05-17T11:24:35+02:00</time>
      </trkpt>
      <trkpt lat="47.9964" lon="6.23242">
        <ele>275.1006</ele>
        <time>2026-05-17T11:24:36+02:00</time>
      </trkpt>
      <trkpt lat="47.99647" lon="6.23245">
        <ele>274.5</ele>
        <time>2026-05-17T11:24:37+02:00</time>
      </trkpt>
      <trkpt lat="47.99653" lon="6.23246">
        <ele>274.2998</ele>
        <time>2026-05-17T11:24:38+02:00</time>
      </trkpt>
      <trkpt lat="47.99659" lon="6.23244">
        <ele>274</ele>
        <time>2026-05-17T11:24:39+02:00</time>
      </trkpt>
      <trkpt lat="47.99665" lon="6.23241">
        <ele>273.7002</ele>
        <time>2026-05-17T11:24:40+02:00</time>
      </trkpt>
      <trkpt lat="47.9967" lon="6.23235">
        <ele>273.2002</ele>
        <time>2026-05-17T11:24:41+02:00</time>
      </trkpt>
      <trkpt lat="47.99676" lon="6.23229">
        <ele>272.7998</ele>
        <time>2026-05-17T11:24:42+02:00</time>
      </trkpt>
      <trkpt lat="47.9968" lon="6.23223">
        <ele>272.9004</ele>
        <time>2026-05-17T11:24:43+02:00</time>
      </trkpt>
      <trkpt lat="47.99685" lon="6.23217">
        <ele>272.7002</ele>
        <time>2026-05-17T11:24:44+02:00</time>
      </trkpt>
      <trkpt lat="47.9969" lon="6.23211">
        <ele>272.7002</ele>
        <time>2026-05-17T11:24:45+02:00</time>
      </trkpt>
      <trkpt lat="47.99695" lon="6.23205">
        <ele>272.7002</ele>
        <time>2026-05-17T11:24:46+02:00</time>
      </trkpt>
      <trkpt lat="47.997" lon="6.23199">
        <ele>272.7002</ele>
        <time>2026-05-17T11:24:47+02:00</time>
      </trkpt>
      <trkpt lat="47.99704" lon="6.23192">
        <ele>272.7002</ele>
        <time>2026-05-17T11:24:48+02:00</time>
      </trkpt>
      <trkpt lat="47.99709" lon="6.23186">
        <ele>272.7002</ele>
        <time>2026-05-17T11:24:49+02:00</time>
      </trkpt>
      <trkpt lat="47.99714" lon="6.2318">
        <ele>273.2002</ele>
        <time>2026-05-17T11:24:50+02:00</time>
      </trkpt>
      <trkpt lat="47.99719" lon="6.23174">
        <ele>273.2002</ele>
        <time>2026-05-17T11:24:51+02:00</time>
      </trkpt>
      <trkpt lat="47.99724" lon="6.23169">
        <ele>274.2998</ele>
        <time>2026-05-17T11:24:52+02:00</time>
      </trkpt>
      <trkpt lat="47.99729" lon="6.23164">
        <ele>275.6006</ele>
        <time>2026-05-17T11:24:53+02:00</time>
      </trkpt>
      <trkpt lat="47.99735" lon="6.23159">
        <ele>276</ele>
        <time>2026-05-17T11:24:54+02:00</time>
      </trkpt>
      <trkpt lat="47.9974" lon="6.23155">
        <ele>277.1006</ele>
        <time>2026-05-17T11:24:55+02:00</time>
      </trkpt>
      <trkpt lat="47.99745" lon="6.2315">
        <ele>277.5</ele>
        <time>2026-05-17T11:24:56+02:00</time>
      </trkpt>
      <trkpt lat="47.9975" lon="6.23145">
        <ele>278.2998</ele>
        <time>2026-05-17T11:24:57+02:00</time>
      </trkpt>
      <trkpt lat="47.99756" lon="6.23141">
        <ele>278.6006</ele>
        <time>2026-05-17T11:24:58+02:00</time>
      </trkpt>
      <trkpt lat="47.99762" lon="6.23137">
        <ele>280.2002</ele>
        <time>2026-05-17T11:24:59+02:00</time>
      </trkpt>
      <trkpt lat="47.99768" lon="6.23133">
        <ele>280.7002</ele>
        <time>2026-05-17T11:25:00+02:00</time>
      </trkpt>
      <trkpt lat="47.99774" lon="6.23131">
        <ele>281.2998</ele>
        <time>2026-05-17T11:25:01+02:00</time>
      </trkpt>
      <trkpt lat="47.99781" lon="6.23129">
        <ele>283.1006</ele>
        <time>2026-05-17T11:25:02+02:00</time>
      </trkpt>
      <trkpt lat="47.99787" lon="6.23129">
        <ele>283.9004</ele>
        <time>2026-05-17T11:25:03+02:00</time>
      </trkpt>
      <trkpt lat="47.99794" lon="6.23129">
        <ele>284.4004</ele>
        <time>2026-05-17T11:25:04+02:00</time>
      </trkpt>
      <trkpt lat="47.99801" lon="6.2313">
        <ele>284.7998</ele>
        <time>2026-05-17T11:25:05+02:00</time>
      </trkpt>
      <trkpt lat="47.99807" lon="6.23132">
        <ele>284.2998</ele>
        <time>2026-05-17T11:25:06+02:00</time>
      </trkpt>
      <trkpt lat="47.99814" lon="6.23134">
        <ele>285.2998</ele>
        <time>2026-05-17T11:25:07+02:00</time>
      </trkpt>
      <trkpt lat="47.9982" lon="6.23137">
        <ele>285.7998</ele>
        <time>2026-05-17T11:25:08+02:00</time>
      </trkpt>
      <trkpt lat="47.99826" lon="6.23142">
        <ele>285.7998</ele>
        <time>2026-05-17T11:25:09+02:00</time>
      </trkpt>
      <trkpt lat="47.99832" lon="6.23147">
        <ele>286.2998</ele>
        <time>2026-05-17T11:25:10+02:00</time>
      </trkpt>
      <trkpt lat="47.99837" lon="6.23152">
        <ele>286.2002</ele>
        <time>2026-05-17T11:25:11+02:00</time>
      </trkpt>
      <trkpt lat="47.99842" lon="6.23157">
        <ele>285.6006</ele>
        <time>2026-05-17T11:25:12+02:00</time>
      </trkpt>
      <trkpt lat="47.99847" lon="6.23162">
        <ele>286.1006</ele>
        <time>2026-05-17T11:25:13+02:00</time>
      </trkpt>
      <trkpt lat="47.99852" lon="6.23167">
        <ele>286.1006</ele>
        <time>2026-05-17T11:25:14+02:00</time>
      </trkpt>
      <trkpt lat="47.99857" lon="6.23173">
        <ele>286.5</ele>
        <time>2026-05-17T11:25:15+02:00</time>
      </trkpt>
      <trkpt lat="47.99862" lon="6.23178">
        <ele>286.4004</ele>
        <time>2026-05-17T11:25:16+02:00</time>
      </trkpt>
      <trkpt lat="47.99868" lon="6.23184">
        <ele>286</ele>
        <time>2026-05-17T11:25:17+02:00</time>
      </trkpt>
      <trkpt lat="47.99873" lon="6.23189">
        <ele>286.2998</ele>
        <time>2026-05-17T11:25:18+02:00</time>
      </trkpt>
      <trkpt lat="47.99878" lon="6.23194">
        <ele>285.9004</ele>
        <time>2026-05-17T11:25:19+02:00</time>
      </trkpt>
      <trkpt lat="47.99882" lon="6.232">
        <ele>285.2002</ele>
        <time>2026-05-17T11:25:20+02:00</time>
      </trkpt>
      <trkpt lat="47.99886" lon="6.23206">
        <ele>285.7002</ele>
        <time>2026-05-17T11:25:21+02:00</time>
      </trkpt>
      <trkpt lat="47.99889" lon="6.23211">
        <ele>285.5</ele>
        <time>2026-05-17T11:25:22+02:00</time>
      </trkpt>
      <trkpt lat="47.9989" lon="6.23217">
        <ele>284.7002</ele>
        <time>2026-05-17T11:25:23+02:00</time>
      </trkpt>
      <trkpt lat="47.99888" lon="6.23222">
        <ele>284.1006</ele>
        <time>2026-05-17T11:25:24+02:00</time>
      </trkpt>
      <trkpt lat="47.99887" lon="6.23226">
        <ele>283.2002</ele>
        <time>2026-05-17T11:25:25+02:00</time>
      </trkpt>
      <trkpt lat="47.99885" lon="6.23228">
        <ele>283.2002</ele>
        <time>2026-05-17T11:25:26+02:00</time>
      </trkpt>
      <trkpt lat="47.99883" lon="6.23231">
        <ele>283.2002</ele>
        <time>2026-05-17T11:25:27+02:00</time>
      </trkpt>
      <trkpt lat="47.99882" lon="6.23236">
        <ele>281.1006</ele>
        <time>2026-05-17T11:25:28+02:00</time>
      </trkpt>
      <trkpt lat="47.99881" lon="6.23242">
        <ele>281.1006</ele>
        <time>2026-05-17T11:25:29+02:00</time>
      </trkpt>
      <trkpt lat="47.99884" lon="6.23248">
        <ele>281</ele>
        <time>2026-05-17T11:25:30+02:00</time>
      </trkpt>
      <trkpt lat="47.99888" lon="6.23252">
        <ele>279.4004</ele>
        <time>2026-05-17T11:25:31+02:00</time>
      </trkpt>
      <trkpt lat="47.99893" lon="6.23256">
        <ele>280.4004</ele>
        <time>2026-05-17T11:25:32+02:00</time>
      </trkpt>
      <trkpt lat="47.99898" lon="6.2326">
        <ele>280.2002</ele>
        <time>2026-05-17T11:25:33+02:00</time>
      </trkpt>
      <trkpt lat="47.99902" lon="6.23265">
        <ele>281.5</ele>
        <time>2026-05-17T11:25:34+02:00</time>
      </trkpt>
      <trkpt lat="47.99907" lon="6.2327">
        <ele>281.7998</ele>
        <time>2026-05-17T11:25:35+02:00</time>
      </trkpt>
      <trkpt lat="47.99912" lon="6.23275">
        <ele>282.5</ele>
        <time>2026-05-17T11:25:36+02:00</time>
      </trkpt>
      <trkpt lat="47.99917" lon="6.2328">
        <ele>281.4004</ele>
        <time>2026-05-17T11:25:37+02:00</time>
      </trkpt>
      <trkpt lat="47.99921" lon="6.23285">
        <ele>282.1006</ele>
        <time>2026-05-17T11:25:38+02:00</time>
      </trkpt>
      <trkpt lat="47.99926" lon="6.23291">
        <ele>281.7998</ele>
        <time>2026-05-17T11:25:39+02:00</time>
      </trkpt>
      <trkpt lat="47.9993" lon="6.23297">
        <ele>281.6006</ele>
        <time>2026-05-17T11:25:40+02:00</time>
      </trkpt>
      <trkpt lat="47.99935" lon="6.23303">
        <ele>281.2002</ele>
        <time>2026-05-17T11:25:41+02:00</time>
      </trkpt>
      <trkpt lat="47.9994" lon="6.23308">
        <ele>281.4004</ele>
        <time>2026-05-17T11:25:42+02:00</time>
      </trkpt>
      <trkpt lat="47.99945" lon="6.23313">
        <ele>280.6006</ele>
        <time>2026-05-17T11:25:43+02:00</time>
      </trkpt>
      <trkpt lat="47.9995" lon="6.23319">
        <ele>280.7998</ele>
        <time>2026-05-17T11:25:44+02:00</time>
      </trkpt>
      <trkpt lat="47.99954" lon="6.23324">
        <ele>280.2998</ele>
        <time>2026-05-17T11:25:45+02:00</time>
      </trkpt>
      <trkpt lat="47.99959" lon="6.2333">
        <ele>279.7998</ele>
        <time>2026-05-17T11:25:46+02:00</time>
      </trkpt>
      <trkpt lat="47.99964" lon="6.23335">
        <ele>280</ele>
        <time>2026-05-17T11:25:47+02:00</time>
      </trkpt>
      <trkpt lat="47.99969" lon="6.2334">
        <ele>279.9004</ele>
        <time>2026-05-17T11:25:48+02:00</time>
      </trkpt>
      <trkpt lat="47.99974" lon="6.23346">
        <ele>279.5</ele>
        <time>2026-05-17T11:25:49+02:00</time>
      </trkpt>
      <trkpt lat="47.99979" lon="6.2335">
        <ele>279.7002</ele>
        <time>2026-05-17T11:25:50+02:00</time>
      </trkpt>
      <trkpt lat="47.99984" lon="6.23355">
        <ele>279.6006</ele>
        <time>2026-05-17T11:25:51+02:00</time>
      </trkpt>
      <trkpt lat="47.99989" lon="6.2336">
        <ele>279.7998</ele>
        <time>2026-05-17T11:25:52+02:00</time>
      </trkpt>
      <trkpt lat="47.99994" lon="6.23364">
        <ele>279.6006</ele>
        <time>2026-05-17T11:25:53+02:00</time>
      </trkpt>
      <trkpt lat="48" lon="6.23367">
        <ele>279.7998</ele>
        <time>2026-05-17T11:25:54+02:00</time>
      </trkpt>
      <trkpt lat="48.00005" lon="6.23371">
        <ele>279.9004</ele>
        <time>2026-05-17T11:25:55+02:00</time>
      </trkpt>
      <trkpt lat="48.00011" lon="6.23375">
        <ele>279.4004</ele>
        <time>2026-05-17T11:25:56+02:00</time>
      </trkpt>
      <trkpt lat="48.00017" lon="6.23379">
        <ele>279.4004</ele>
        <time>2026-05-17T11:25:57+02:00</time>
      </trkpt>
      <trkpt lat="48.00022" lon="6.23382">
        <ele>278.7002</ele>
        <time>2026-05-17T11:25:58+02:00</time>
      </trkpt>
      <trkpt lat="48.00028" lon="6.23384">
        <ele>278.7002</ele>
        <time>2026-05-17T11:25:59+02:00</time>
      </trkpt>
      <trkpt lat="48.00034" lon="6.23387">
        <ele>278.6006</ele>
        <time>2026-05-17T11:26:00+02:00</time>
      </trkpt>
      <trkpt lat="48.00039" lon="6.23389">
        <ele>277.9004</ele>
        <time>2026-05-17T11:26:01+02:00</time>
      </trkpt>
      <trkpt lat="48.00046" lon="6.23391">
        <ele>277.9004</ele>
        <time>2026-05-17T11:26:02+02:00</time>
      </trkpt>
      <trkpt lat="48.00052" lon="6.23393">
        <ele>278</ele>
        <time>2026-05-17T11:26:03+02:00</time>
      </trkpt>
      <trkpt lat="48.00058" lon="6.23395">
        <ele>278.2002</ele>
        <time>2026-05-17T11:26:04+02:00</time>
      </trkpt>
      <trkpt lat="48.00065" lon="6.23397">
        <ele>278</ele>
        <time>2026-05-17T11:26:05+02:00</time>
      </trkpt>
      <trkpt lat="48.00071" lon="6.23399">
        <ele>278.2002</ele>
        <time>2026-05-17T11:26:06+02:00</time>
      </trkpt>
      <trkpt lat="48.00077" lon="6.23401">
        <ele>278.2002</ele>
        <time>2026-05-17T11:26:07+02:00</time>
      </trkpt>
      <trkpt lat="48.00084" lon="6.23402">
        <ele>278.1006</ele>
        <time>2026-05-17T11:26:08+02:00</time>
      </trkpt>
      <trkpt lat="48.00091" lon="6.23402">
        <ele>278</ele>
        <time>2026-05-17T11:26:09+02:00</time>
      </trkpt>
      <trkpt lat="48.00097" lon="6.23403">
        <ele>277.9004</ele>
        <time>2026-05-17T11:26:10+02:00</time>
      </trkpt>
      <trkpt lat="48.00104" lon="6.23403">
        <ele>277.7002</ele>
        <time>2026-05-17T11:26:11+02:00</time>
      </trkpt>
      <trkpt lat="48.00111" lon="6.23403">
        <ele>277.5</ele>
        <time>2026-05-17T11:26:12+02:00</time>
      </trkpt>
      <trkpt lat="48.00117" lon="6.23403">
        <ele>277.2998</ele>
        <time>2026-05-17T11:26:13+02:00</time>
      </trkpt>
      <trkpt lat="48.00124" lon="6.23403">
        <ele>277</ele>
        <time>2026-05-17T11:26:14+02:00</time>
      </trkpt>
      <trkpt lat="48.00131" lon="6.23403">
        <ele>276.7998</ele>
        <time>2026-05-17T11:26:15+02:00</time>
      </trkpt>
      <trkpt lat="48.00137" lon="6.23403">
        <ele>276.7002</ele>
        <time>2026-05-17T11:26:16+02:00</time>
      </trkpt>
      <trkpt lat="48.00144" lon="6.23402">
        <ele>276.5</ele>
        <time>2026-05-17T11:26:17+02:00</time>
      </trkpt>
      <trkpt lat="48.0015" lon="6.23402">
        <ele>276.4004</ele>
        <time>2026-05-17T11:26:18+02:00</time>
      </trkpt>
      <trkpt lat="48.00157" lon="6.23401">
        <ele>276.2998</ele>
        <time>2026-05-17T11:26:19+02:00</time>
      </trkpt>
      <trkpt lat="48.00163" lon="6.23401">
        <ele>276.2002</ele>
        <time>2026-05-17T11:26:20+02:00</time>
      </trkpt>
      <trkpt lat="48.00169" lon="6.23401">
        <ele>276.1006</ele>
        <time>2026-05-17T11:26:21+02:00</time>
      </trkpt>
      <trkpt lat="48.00175" lon="6.23401">
        <ele>276.1006</ele>
        <time>2026-05-17T11:26:22+02:00</time>
      </trkpt>
      <trkpt lat="48.00181" lon="6.23401">
        <ele>276.1006</ele>
        <time>2026-05-17T11:26:23+02:00</time>
      </trkpt>
      <trkpt lat="48.00187" lon="6.23401">
        <ele>276.2998</ele>
        <time>2026-05-17T11:26:24+02:00</time>
      </trkpt>
      <trkpt lat="48.00194" lon="6.234">
        <ele>276.4004</ele>
        <time>2026-05-17T11:26:25+02:00</time>
      </trkpt>
      <trkpt lat="48.002" lon="6.234">
        <ele>276.6006</ele>
        <time>2026-05-17T11:26:26+02:00</time>
      </trkpt>
      <trkpt lat="48.00206" lon="6.234">
        <ele>276.7998</ele>
        <time>2026-05-17T11:26:27+02:00</time>
      </trkpt>
      <trkpt lat="48.00213" lon="6.234">
        <ele>277</ele>
        <time>2026-05-17T11:26:28+02:00</time>
      </trkpt>
      <trkpt lat="48.00219" lon="6.234">
        <ele>277.2002</ele>
        <time>2026-05-17T11:26:29+02:00</time>
      </trkpt>
      <trkpt lat="48.00225" lon="6.234">
        <ele>277.5</ele>
        <time>2026-05-17T11:26:30+02:00</time>
      </trkpt>
      <trkpt lat="48.00231" lon="6.234">
        <ele>277.7002</ele>
        <time>2026-05-17T11:26:31+02:00</time>
      </trkpt>
      <trkpt lat="48.00237" lon="6.234">
        <ele>277.9004</ele>
        <time>2026-05-17T11:26:32+02:00</time>
      </trkpt>
      <trkpt lat="48.00244" lon="6.234">
        <ele>278</ele>
        <time>2026-05-17T11:26:33+02:00</time>
      </trkpt>
      <trkpt lat="48.0025" lon="6.234">
        <ele>278.1006</ele>
        <time>2026-05-17T11:26:34+02:00</time>
      </trkpt>
      <trkpt lat="48.00256" lon="6.234">
        <ele>278.4004</ele>
        <time>2026-05-17T11:26:35+02:00</time>
      </trkpt>
      <trkpt lat="48.00262" lon="6.234">
        <ele>278.5</ele>
        <time>2026-05-17T11:26:36+02:00</time>
      </trkpt>
      <trkpt lat="48.00268" lon="6.234">
        <ele>278.5</ele>
        <time>2026-05-17T11:26:37+02:00</time>
      </trkpt>
      <trkpt lat="48.00274" lon="6.234">
        <ele>278.5</ele>
        <time>2026-05-17T11:26:38+02:00</time>
      </trkpt>
      <trkpt lat="48.0028" lon="6.234">
        <ele>278.2998</ele>
        <time>2026-05-17T11:26:39+02:00</time>
      </trkpt>
      <trkpt lat="48.00286" lon="6.234">
        <ele>278.1006</ele>
        <time>2026-05-17T11:26:40+02:00</time>
      </trkpt>
      <trkpt lat="48.00292" lon="6.234">
        <ele>277.7998</ele>
        <time>2026-05-17T11:26:41+02:00</time>
      </trkpt>
      <trkpt lat="48.00298" lon="6.23399">
        <ele>277.5</ele>
        <time>2026-05-17T11:26:42+02:00</time>
      </trkpt>
      <trkpt lat="48.00305" lon="6.23399">
        <ele>277.2002</ele>
        <time>2026-05-17T11:26:43+02:00</time>
      </trkpt>
      <trkpt lat="48.00311" lon="6.23399">
        <ele>276.9004</ele>
        <time>2026-05-17T11:26:44+02:00</time>
      </trkpt>
      <trkpt lat="48.00318" lon="6.23399">
        <ele>276.6006</ele>
        <time>2026-05-17T11:26:45+02:00</time>
      </trkpt>
      <trkpt lat="48.00325" lon="6.23399">
        <ele>275.7998</ele>
        <time>2026-05-17T11:26:46+02:00</time>
      </trkpt>
      <trkpt lat="48.00332" lon="6.23398">
        <ele>275.2998</ele>
        <time>2026-05-17T11:26:47+02:00</time>
      </trkpt>
      <trkpt lat="48.00338" lon="6.23398">
        <ele>274.7998</ele>
        <time>2026-05-17T11:26:48+02:00</time>
      </trkpt>
      <trkpt lat="48.00345" lon="6.23397">
        <ele>274.4004</ele>
        <time>2026-05-17T11:26:49+02:00</time>
      </trkpt>
      <trkpt lat="48.00352" lon="6.23396">
        <ele>273.7998</ele>
        <time>2026-05-17T11:26:50+02:00</time>
      </trkpt>
      <trkpt lat="48.00359" lon="6.23395">
        <ele>273.2002</ele>
        <time>2026-05-17T11:26:51+02:00</time>
      </trkpt>
      <trkpt lat="48.00366" lon="6.23394">
        <ele>272.1006</ele>
        <time>2026-05-17T11:26:52+02:00</time>
      </trkpt>
      <trkpt lat="48.00372" lon="6.23393">
        <ele>271.5</ele>
        <time>2026-05-17T11:26:53+02:00</time>
      </trkpt>
      <trkpt lat="48.00379" lon="6.23392">
        <ele>270.9004</ele>
        <time>2026-05-17T11:26:54+02:00</time>
      </trkpt>
      <trkpt lat="48.00384" lon="6.2339">
        <ele>270.4004</ele>
        <time>2026-05-17T11:26:55+02:00</time>
      </trkpt>
      <trkpt lat="48.0039" lon="6.23389">
        <ele>270</ele>
        <time>2026-05-17T11:26:56+02:00</time>
      </trkpt>
      <trkpt lat="48.00395" lon="6.23387">
        <ele>269.6006</ele>
        <time>2026-05-17T11:26:57+02:00</time>
      </trkpt>
      <trkpt lat="48.004" lon="6.23385">
        <ele>269.6006</ele>
        <time>2026-05-17T11:26:58+02:00</time>
      </trkpt>
      <trkpt lat="48.00404" lon="6.23384">
        <ele>269.6006</ele>
        <time>2026-05-17T11:26:59+02:00</time>
      </trkpt>
      <trkpt lat="48.00409" lon="6.23382">
        <ele>269.6006</ele>
        <time>2026-05-17T11:27:00+02:00</time>
      </trkpt>
      <trkpt lat="48.00415" lon="6.2338">
        <ele>269.6006</ele>
        <time>2026-05-17T11:27:01+02:00</time>
      </trkpt>
      <trkpt lat="48.0042" lon="6.23379">
        <ele>269.2998</ele>
        <time>2026-05-17T11:27:02+02:00</time>
      </trkpt>
      <trkpt lat="48.00425" lon="6.23379">
        <ele>269.5</ele>
        <time>2026-05-17T11:27:03+02:00</time>
      </trkpt>
      <trkpt lat="48.00431" lon="6.23379">
        <ele>269.7998</ele>
        <time>2026-05-17T11:27:04+02:00</time>
      </trkpt>
      <trkpt lat="48.00437" lon="6.23378">
        <ele>270.4004</ele>
        <time>2026-05-17T11:27:05+02:00</time>
      </trkpt>
      <trkpt lat="48.00442" lon="6.23378">
        <ele>271.1006</ele>
        <time>2026-05-17T11:27:06+02:00</time>
      </trkpt>
      <trkpt lat="48.00448" lon="6.23378">
        <ele>271.7998</ele>
        <time>2026-05-17T11:27:07+02:00</time>
      </trkpt>
      <trkpt lat="48.00453" lon="6.23378">
        <ele>272.6006</ele>
        <time>2026-05-17T11:27:08+02:00</time>
      </trkpt>
      <trkpt lat="48.00458" lon="6.23378">
        <ele>273.5</ele>
        <time>2026-05-17T11:27:09+02:00</time>
      </trkpt>
      <trkpt lat="48.00464" lon="6.23377">
        <ele>274.5</ele>
        <time>2026-05-17T11:27:10+02:00</time>
      </trkpt>
      <trkpt lat="48.0047" lon="6.23377">
        <ele>275.4004</ele>
        <time>2026-05-17T11:27:11+02:00</time>
      </trkpt>
      <trkpt lat="48.00476" lon="6.23377">
        <ele>276.2002</ele>
        <time>2026-05-17T11:27:12+02:00</time>
      </trkpt>
      <trkpt lat="48.00482" lon="6.23378">
        <ele>276.9004</ele>
        <time>2026-05-17T11:27:13+02:00</time>
      </trkpt>
      <trkpt lat="48.00488" lon="6.23378">
        <ele>277.6006</ele>
        <time>2026-05-17T11:27:14+02:00</time>
      </trkpt>
      <trkpt lat="48.00495" lon="6.23378">
        <ele>278.2002</ele>
        <time>2026-05-17T11:27:15+02:00</time>
      </trkpt>
      <trkpt lat="48.005" lon="6.23379">
        <ele>278.7998</ele>
        <time>2026-05-17T11:27:16+02:00</time>
      </trkpt>
      <trkpt lat="48.00507" lon="6.23379">
        <ele>279.4004</ele>
        <time>2026-05-17T11:27:17+02:00</time>
      </trkpt>
      <trkpt lat="48.00512" lon="6.2338">
        <ele>280.7002</ele>
        <time>2026-05-17T11:27:18+02:00</time>
      </trkpt>
      <trkpt lat="48.00519" lon="6.23382">
        <ele>281.1006</ele>
        <time>2026-05-17T11:27:19+02:00</time>
      </trkpt>
      <trkpt lat="48.00525" lon="6.23383">
        <ele>281.4004</ele>
        <time>2026-05-17T11:27:20+02:00</time>
      </trkpt>
      <trkpt lat="48.00531" lon="6.23385">
        <ele>281.5</ele>
        <time>2026-05-17T11:27:21+02:00</time>
      </trkpt>
      <trkpt lat="48.00536" lon="6.23386">
        <ele>281.4004</ele>
        <time>2026-05-17T11:27:22+02:00</time>
      </trkpt>
      <trkpt lat="48.00543" lon="6.23388">
        <ele>281.2998</ele>
        <time>2026-05-17T11:27:23+02:00</time>
      </trkpt>
      <trkpt lat="48.00548" lon="6.2339">
        <ele>281.4004</ele>
        <time>2026-05-17T11:27:24+02:00</time>
      </trkpt>
      <trkpt lat="48.00554" lon="6.23392">
        <ele>281.4004</ele>
        <time>2026-05-17T11:27:25+02:00</time>
      </trkpt>
      <trkpt lat="48.0056" lon="6.23395">
        <ele>281.5</ele>
        <time>2026-05-17T11:27:26+02:00</time>
      </trkpt>
      <trkpt lat="48.00566" lon="6.23397">
        <ele>282.2998</ele>
        <time>2026-05-17T11:27:27+02:00</time>
      </trkpt>
      <trkpt lat="48.00572" lon="6.234">
        <ele>282.2998</ele>
        <time>2026-05-17T11:27:28+02:00</time>
      </trkpt>
      <trkpt lat="48.00578" lon="6.23403">
        <ele>282.2998</ele>
        <time>2026-05-17T11:27:29+02:00</time>
      </trkpt>
      <trkpt lat="48.00583" lon="6.23406">
        <ele>282.9004</ele>
        <time>2026-05-17T11:27:30+02:00</time>
      </trkpt>
      <trkpt lat="48.00589" lon="6.2341">
        <ele>283.4004</ele>
        <time>2026-05-17T11:27:31+02:00</time>
      </trkpt>
      <trkpt lat="48.00594" lon="6.23413">
        <ele>283.4004</ele>
        <time>2026-05-17T11:27:32+02:00</time>
      </trkpt>
      <trkpt lat="48.006" lon="6.23417">
        <ele>284.2002</ele>
        <time>2026-05-17T11:27:33+02:00</time>
      </trkpt>
      <trkpt lat="48.00606" lon="6.23421">
        <ele>285.2998</ele>
        <time>2026-05-17T11:27:34+02:00</time>
      </trkpt>
      <trkpt lat="48.00612" lon="6.23425">
        <ele>285.1006</ele>
        <time>2026-05-17T11:27:35+02:00</time>
      </trkpt>
      <trkpt lat="48.00618" lon="6.23429">
        <ele>285.4004</ele>
        <time>2026-05-17T11:27:36+02:00</time>
      </trkpt>
      <trkpt lat="48.00623" lon="6.23433">
        <ele>284.7002</ele>
        <time>2026-05-17T11:27:37+02:00</time>
      </trkpt>
      <trkpt lat="48.00629" lon="6.23438">
        <ele>286</ele>
        <time>2026-05-17T11:27:38+02:00</time>
      </trkpt>
      <trkpt lat="48.00635" lon="6.23442">
        <ele>286.5</ele>
        <time>2026-05-17T11:27:39+02:00</time>
      </trkpt>
      <trkpt lat="48.00641" lon="6.23446">
        <ele>287.1006</ele>
        <time>2026-05-17T11:27:40+02:00</time>
      </trkpt>
      <trkpt lat="48.00646" lon="6.23451">
        <ele>286.5</ele>
        <time>2026-05-17T11:27:41+02:00</time>
      </trkpt>
      <trkpt lat="48.00652" lon="6.23455">
        <ele>286.7998</ele>
        <time>2026-05-17T11:27:42+02:00</time>
      </trkpt>
      <trkpt lat="48.00658" lon="6.2346">
        <ele>287.6006</ele>
        <time>2026-05-17T11:27:43+02:00</time>
      </trkpt>
      <trkpt lat="48.00664" lon="6.23464">
        <ele>288.4004</ele>
        <time>2026-05-17T11:27:44+02:00</time>
      </trkpt>
      <trkpt lat="48.00669" lon="6.23468">
        <ele>288.4004</ele>
        <time>2026-05-17T11:27:45+02:00</time>
      </trkpt>
      <trkpt lat="48.00675" lon="6.23473">
        <ele>288.7002</ele>
        <time>2026-05-17T11:27:46+02:00</time>
      </trkpt>
      <trkpt lat="48.00681" lon="6.23477">
        <ele>287.7998</ele>
        <time>2026-05-17T11:27:47+02:00</time>
      </trkpt>
      <trkpt lat="48.00686" lon="6.23481">
        <ele>287.7998</ele>
        <time>2026-05-17T11:27:48+02:00</time>
      </trkpt>
      <trkpt lat="48.00692" lon="6.23486">
        <ele>287.7002</ele>
        <time>2026-05-17T11:27:49+02:00</time>
      </trkpt>
      <trkpt lat="48.00698" lon="6.2349">
        <ele>288.2998</ele>
        <time>2026-05-17T11:27:50+02:00</time>
      </trkpt>
      <trkpt lat="48.00704" lon="6.23495">
        <ele>287.6006</ele>
        <time>2026-05-17T11:27:51+02:00</time>
      </trkpt>
      <trkpt lat="48.0071" lon="6.235">
        <ele>285.9004</ele>
        <time>2026-05-17T11:27:52+02:00</time>
      </trkpt>
      <trkpt lat="48.00715" lon="6.23505">
        <ele>285.9004</ele>
        <time>2026-05-17T11:27:53+02:00</time>
      </trkpt>
      <trkpt lat="48.00721" lon="6.2351">
        <ele>284.7002</ele>
        <time>2026-05-17T11:27:54+02:00</time>
      </trkpt>
      <trkpt lat="48.00726" lon="6.23515">
        <ele>284.7002</ele>
        <time>2026-05-17T11:27:55+02:00</time>
      </trkpt>
      <trkpt lat="48.00731" lon="6.23521">
        <ele>284.7998</ele>
        <time>2026-05-17T11:27:56+02:00</time>
      </trkpt>
      <trkpt lat="48.00737" lon="6.23527">
        <ele>284.7998</ele>
        <time>2026-05-17T11:27:57+02:00</time>
      </trkpt>
      <trkpt lat="48.00742" lon="6.23533">
        <ele>284.2998</ele>
        <time>2026-05-17T11:27:58+02:00</time>
      </trkpt>
      <trkpt lat="48.00747" lon="6.23539">
        <ele>284.7002</ele>
        <time>2026-05-17T11:27:59+02:00</time>
      </trkpt>
      <trkpt lat="48.00752" lon="6.23545">
        <ele>285.1006</ele>
        <time>2026-05-17T11:28:00+02:00</time>
      </trkpt>
      <trkpt lat="48.00757" lon="6.23552">
        <ele>285.4004</ele>
        <time>2026-05-17T11:28:01+02:00</time>
      </trkpt>
      <trkpt lat="48.00762" lon="6.23559">
        <ele>285.4004</ele>
        <time>2026-05-17T11:28:02+02:00</time>
      </trkpt>
      <trkpt lat="48.00767" lon="6.23565">
        <ele>285.5</ele>
        <time>2026-05-17T11:28:03+02:00</time>
      </trkpt>
      <trkpt lat="48.00772" lon="6.23572">
        <ele>285.5</ele>
        <time>2026-05-17T11:28:04+02:00</time>
      </trkpt>
      <trkpt lat="48.00777" lon="6.23579">
        <ele>285.7002</ele>
        <time>2026-05-17T11:28:05+02:00</time>
      </trkpt>
      <trkpt lat="48.00782" lon="6.23586">
        <ele>285.9004</ele>
        <time>2026-05-17T11:28:06+02:00</time>
      </trkpt>
      <trkpt lat="48.00787" lon="6.23593">
        <ele>286</ele>
        <time>2026-05-17T11:28:07+02:00</time>
      </trkpt>
      <trkpt lat="48.00792" lon="6.236">
        <ele>285.7998</ele>
        <time>2026-05-17T11:28:08+02:00</time>
      </trkpt>
      <trkpt lat="48.00797" lon="6.23607">
        <ele>285.6006</ele>
        <time>2026-05-17T11:28:09+02:00</time>
      </trkpt>
      <trkpt lat="48.00803" lon="6.23614">
        <ele>285.2998</ele>
        <time>2026-05-17T11:28:10+02:00</time>
      </trkpt>
      <trkpt lat="48.00808" lon="6.23621">
        <ele>284.9004</ele>
        <time>2026-05-17T11:28:11+02:00</time>
      </trkpt>
      <trkpt lat="48.00813" lon="6.23628">
        <ele>285.2998</ele>
        <time>2026-05-17T11:28:12+02:00</time>
      </trkpt>
      <trkpt lat="48.00818" lon="6.23635">
        <ele>285.4004</ele>
        <time>2026-05-17T11:28:13+02:00</time>
      </trkpt>
      <trkpt lat="48.00823" lon="6.23642">
        <ele>286.1006</ele>
        <time>2026-05-17T11:28:14+02:00</time>
      </trkpt>
      <trkpt lat="48.00828" lon="6.23649">
        <ele>286.2998</ele>
        <time>2026-05-17T11:28:15+02:00</time>
      </trkpt>
      <trkpt lat="48.00832" lon="6.23656">
        <ele>286.2998</ele>
        <time>2026-05-17T11:28:16+02:00</time>
      </trkpt>
      <trkpt lat="48.00837" lon="6.23663">
        <ele>286.4004</ele>
        <time>2026-05-17T11:28:17+02:00</time>
      </trkpt>
      <trkpt lat="48.00842" lon="6.2367">
        <ele>286.4004</ele>
        <time>2026-05-17T11:28:18+02:00</time>
      </trkpt>
      <trkpt lat="48.00847" lon="6.23677">
        <ele>286.5</ele>
        <time>2026-05-17T11:28:19+02:00</time>
      </trkpt>
      <trkpt lat="48.00852" lon="6.23684">
        <ele>286.4004</ele>
        <time>2026-05-17T11:28:20+02:00</time>
      </trkpt>
      <trkpt lat="48.00858" lon="6.23691">
        <ele>286.2002</ele>
        <time>2026-05-17T11:28:21+02:00</time>
      </trkpt>
      <trkpt lat="48.00863" lon="6.23698">
        <ele>286</ele>
        <time>2026-05-17T11:28:22+02:00</time>
      </trkpt>
      <trkpt lat="48.00868" lon="6.23704">
        <ele>285.7002</ele>
        <time>2026-05-17T11:28:23+02:00</time>
      </trkpt>
      <trkpt lat="48.00873" lon="6.23711">
        <ele>285.5</ele>
        <time>2026-05-17T11:28:24+02:00</time>
      </trkpt>
      <trkpt lat="48.00878" lon="6.23718">
        <ele>285.1006</ele>
        <time>2026-05-17T11:28:25+02:00</time>
      </trkpt>
      <trkpt lat="48.00883" lon="6.23725">
        <ele>285</ele>
        <time>2026-05-17T11:28:26+02:00</time>
      </trkpt>
      <trkpt lat="48.00888" lon="6.23732">
        <ele>285.2002</ele>
        <time>2026-05-17T11:28:27+02:00</time>
      </trkpt>
      <trkpt lat="48.00893" lon="6.23739">
        <ele>285.2002</ele>
        <time>2026-05-17T11:28:28+02:00</time>
      </trkpt>
      <trkpt lat="48.00897" lon="6.23746">
        <ele>285.2998</ele>
        <time>2026-05-17T11:28:29+02:00</time>
      </trkpt>
      <trkpt lat="48.00902" lon="6.23753">
        <ele>285.2998</ele>
        <time>2026-05-17T11:28:30+02:00</time>
      </trkpt>
      <trkpt lat="48.00907" lon="6.2376">
        <ele>285.5</ele>
        <time>2026-05-17T11:28:31+02:00</time>
      </trkpt>
      <trkpt lat="48.00911" lon="6.23767">
        <ele>285.6006</ele>
        <time>2026-05-17T11:28:32+02:00</time>
      </trkpt>
      <trkpt lat="48.00915" lon="6.23773">
        <ele>285.6006</ele>
        <time>2026-05-17T11:28:33+02:00</time>
      </trkpt>
      <trkpt lat="48.0092" lon="6.2378">
        <ele>285.6006</ele>
        <time>2026-05-17T11:28:34+02:00</time>
      </trkpt>
      <trkpt lat="48.00924" lon="6.23788">
        <ele>285.2998</ele>
        <time>2026-05-17T11:28:35+02:00</time>
      </trkpt>
      <trkpt lat="48.00928" lon="6.23795">
        <ele>285.2998</ele>
        <time>2026-05-17T11:28:36+02:00</time>
      </trkpt>
      <trkpt lat="48.00933" lon="6.23802">
        <ele>285.9004</ele>
        <time>2026-05-17T11:28:37+02:00</time>
      </trkpt>
      <trkpt lat="48.00937" lon="6.23809">
        <ele>285.7998</ele>
        <time>2026-05-17T11:28:38+02:00</time>
      </trkpt>
      <trkpt lat="48.00942" lon="6.23816">
        <ele>285.2002</ele>
        <time>2026-05-17T11:28:39+02:00</time>
      </trkpt>
      <trkpt lat="48.00947" lon="6.23823">
        <ele>285.1006</ele>
        <time>2026-05-17T11:28:40+02:00</time>
      </trkpt>
      <trkpt lat="48.00952" lon="6.2383">
        <ele>285.1006</ele>
        <time>2026-05-17T11:28:41+02:00</time>
      </trkpt>
      <trkpt lat="48.00956" lon="6.23837">
        <ele>285.5</ele>
        <time>2026-05-17T11:28:42+02:00</time>
      </trkpt>
      <trkpt lat="48.00961" lon="6.23844">
        <ele>285.5</ele>
        <time>2026-05-17T11:28:43+02:00</time>
      </trkpt>
      <trkpt lat="48.00966" lon="6.23851">
        <ele>285</ele>
        <time>2026-05-17T11:28:44+02:00</time>
      </trkpt>
      <trkpt lat="48.00972" lon="6.23857">
        <ele>284.9004</ele>
        <time>2026-05-17T11:28:45+02:00</time>
      </trkpt>
      <trkpt lat="48.00977" lon="6.23862">
        <ele>285</ele>
        <time>2026-05-17T11:28:46+02:00</time>
      </trkpt>
      <trkpt lat="48.00983" lon="6.23867">
        <ele>284.5</ele>
        <time>2026-05-17T11:28:47+02:00</time>
      </trkpt>
      <trkpt lat="48.00989" lon="6.23871">
        <ele>284.4004</ele>
        <time>2026-05-17T11:28:48+02:00</time>
      </trkpt>
      <trkpt lat="48.00995" lon="6.23875">
        <ele>284</ele>
        <time>2026-05-17T11:28:49+02:00</time>
      </trkpt>
      <trkpt lat="48.01002" lon="6.23877">
        <ele>283.6006</ele>
        <time>2026-05-17T11:28:50+02:00</time>
      </trkpt>
      <trkpt lat="48.01009" lon="6.23879">
        <ele>283.1006</ele>
        <time>2026-05-17T11:28:51+02:00</time>
      </trkpt>
      <trkpt lat="48.01015" lon="6.2388">
        <ele>282.9004</ele>
        <time>2026-05-17T11:28:52+02:00</time>
      </trkpt>
      <trkpt lat="48.01022" lon="6.2388">
        <ele>282.7002</ele>
        <time>2026-05-17T11:28:53+02:00</time>
      </trkpt>
      <trkpt lat="48.01029" lon="6.23879">
        <ele>282.6006</ele>
        <time>2026-05-17T11:28:54+02:00</time>
      </trkpt>
      <trkpt lat="48.01035" lon="6.23878">
        <ele>282.4004</ele>
        <time>2026-05-17T11:28:55+02:00</time>
      </trkpt>
      <trkpt lat="48.01042" lon="6.23877">
        <ele>281.7002</ele>
        <time>2026-05-17T11:28:56+02:00</time>
      </trkpt>
      <trkpt lat="48.01048" lon="6.23876">
        <ele>281.5</ele>
        <time>2026-05-17T11:28:57+02:00</time>
      </trkpt>
      <trkpt lat="48.01055" lon="6.23874">
        <ele>281</ele>
        <time>2026-05-17T11:28:58+02:00</time>
      </trkpt>
      <trkpt lat="48.01061" lon="6.23872">
        <ele>280.7998</ele>
        <time>2026-05-17T11:28:59+02:00</time>
      </trkpt>
      <trkpt lat="48.01068" lon="6.23871">
        <ele>280.6006</ele>
        <time>2026-05-17T11:29:00+02:00</time>
      </trkpt>
      <trkpt lat="48.01074" lon="6.23869">
        <ele>280.5</ele>
        <time>2026-05-17T11:29:01+02:00</time>
      </trkpt>
      <trkpt lat="48.01082" lon="6.23868">
        <ele>279.1006</ele>
        <time>2026-05-17T11:29:02+02:00</time>
      </trkpt>
      <trkpt lat="48.01088" lon="6.23866">
        <ele>278.9004</ele>
        <time>2026-05-17T11:29:03+02:00</time>
      </trkpt>
      <trkpt lat="48.01095" lon="6.23864">
        <ele>278.9004</ele>
        <time>2026-05-17T11:29:04+02:00</time>
      </trkpt>
      <trkpt lat="48.01102" lon="6.23862">
        <ele>278.9004</ele>
        <time>2026-05-17T11:29:05+02:00</time>
      </trkpt>
      <trkpt lat="48.01109" lon="6.23861">
        <ele>279</ele>
        <time>2026-05-17T11:29:06+02:00</time>
      </trkpt>
      <trkpt lat="48.01116" lon="6.23859">
        <ele>277.6006</ele>
        <time>2026-05-17T11:29:07+02:00</time>
      </trkpt>
      <trkpt lat="48.01123" lon="6.23858">
        <ele>278</ele>
        <time>2026-05-17T11:29:08+02:00</time>
      </trkpt>
      <trkpt lat="48.01129" lon="6.23857">
        <ele>278.2998</ele>
        <time>2026-05-17T11:29:09+02:00</time>
      </trkpt>
      <trkpt lat="48.01136" lon="6.23855">
        <ele>278.6006</ele>
        <time>2026-05-17T11:29:10+02:00</time>
      </trkpt>
      <trkpt lat="48.01143" lon="6.23854">
        <ele>278.9004</ele>
        <time>2026-05-17T11:29:11+02:00</time>
      </trkpt>
      <trkpt lat="48.01149" lon="6.23853">
        <ele>279.2998</ele>
        <time>2026-05-17T11:29:12+02:00</time>
      </trkpt>
      <trkpt lat="48.01156" lon="6.23852">
        <ele>279.6006</ele>
        <time>2026-05-17T11:29:13+02:00</time>
      </trkpt>
      <trkpt lat="48.01162" lon="6.23851">
        <ele>279.2002</ele>
        <time>2026-05-17T11:29:14+02:00</time>
      </trkpt>
      <trkpt lat="48.01169" lon="6.2385">
        <ele>280.1006</ele>
        <time>2026-05-17T11:29:15+02:00</time>
      </trkpt>
      <trkpt lat="48.01175" lon="6.23849">
        <ele>280.6006</ele>
        <time>2026-05-17T11:29:16+02:00</time>
      </trkpt>
      <trkpt lat="48.01182" lon="6.23849">
        <ele>281.1006</ele>
        <time>2026-05-17T11:29:17+02:00</time>
      </trkpt>
      <trkpt lat="48.01188" lon="6.23848">
        <ele>281.5</ele>
        <time>2026-05-17T11:29:18+02:00</time>
      </trkpt>
      <trkpt lat="48.01195" lon="6.23848">
        <ele>281.9004</ele>
        <time>2026-05-17T11:29:19+02:00</time>
      </trkpt>
      <trkpt lat="48.01201" lon="6.23847">
        <ele>282.2002</ele>
        <time>2026-05-17T11:29:20+02:00</time>
      </trkpt>
      <trkpt lat="48.01207" lon="6.23847">
        <ele>282.5</ele>
        <time>2026-05-17T11:29:21+02:00</time>
      </trkpt>
      <trkpt lat="48.01214" lon="6.23847">
        <ele>282.7998</ele>
        <time>2026-05-17T11:29:22+02:00</time>
      </trkpt>
      <trkpt lat="48.0122" lon="6.23847">
        <ele>283</ele>
        <time>2026-05-17T11:29:23+02:00</time>
      </trkpt>
      <trkpt lat="48.01226" lon="6.23848">
        <ele>283.1006</ele>
        <time>2026-05-17T11:29:24+02:00</time>
      </trkpt>
      <trkpt lat="48.01232" lon="6.23848">
        <ele>282.9004</ele>
        <time>2026-05-17T11:29:25+02:00</time>
      </trkpt>
      <trkpt lat="48.01238" lon="6.23849">
        <ele>282.5</ele>
        <time>2026-05-17T11:29:26+02:00</time>
      </trkpt>
      <trkpt lat="48.01244" lon="6.23851">
        <ele>281.9004</ele>
        <time>2026-05-17T11:29:27+02:00</time>
      </trkpt>
      <trkpt lat="48.0125" lon="6.23853">
        <ele>281.7002</ele>
        <time>2026-05-17T11:29:28+02:00</time>
      </trkpt>
      <trkpt lat="48.01256" lon="6.23855">
        <ele>281.2998</ele>
        <time>2026-05-17T11:29:29+02:00</time>
      </trkpt>
      <trkpt lat="48.01262" lon="6.23857">
        <ele>280.9004</ele>
        <time>2026-05-17T11:29:30+02:00</time>
      </trkpt>
      <trkpt lat="48.01267" lon="6.23859">
        <ele>280.5</ele>
        <time>2026-05-17T11:29:31+02:00</time>
      </trkpt>
      <trkpt lat="48.01273" lon="6.23862">
        <ele>280.9004</ele>
        <time>2026-05-17T11:29:32+02:00</time>
      </trkpt>
      <trkpt lat="48.01278" lon="6.23864">
        <ele>280.7002</ele>
        <time>2026-05-17T11:29:33+02:00</time>
      </trkpt>
      <trkpt lat="48.01283" lon="6.23866">
        <ele>280.7002</ele>
        <time>2026-05-17T11:29:34+02:00</time>
      </trkpt>
      <trkpt lat="48.01288" lon="6.23868">
        <ele>280.4004</ele>
        <time>2026-05-17T11:29:35+02:00</time>
      </trkpt>
      <trkpt lat="48.01294" lon="6.23871">
        <ele>280.7998</ele>
        <time>2026-05-17T11:29:36+02:00</time>
      </trkpt>
      <trkpt lat="48.01299" lon="6.23873">
        <ele>280.6006</ele>
        <time>2026-05-17T11:29:37+02:00</time>
      </trkpt>
      <trkpt lat="48.01305" lon="6.23875">
        <ele>280.4004</ele>
        <time>2026-05-17T11:29:38+02:00</time>
      </trkpt>
      <trkpt lat="48.0131" lon="6.23877">
        <ele>280.2998</ele>
        <time>2026-05-17T11:29:39+02:00</time>
      </trkpt>
      <trkpt lat="48.01316" lon="6.23879">
        <ele>280.7002</ele>
        <time>2026-05-17T11:29:40+02:00</time>
      </trkpt>
      <trkpt lat="48.01322" lon="6.23881">
        <ele>280.7002</ele>
        <time>2026-05-17T11:29:41+02:00</time>
      </trkpt>
      <trkpt lat="48.01327" lon="6.23883">
        <ele>280.7998</ele>
        <time>2026-05-17T11:29:42+02:00</time>
      </trkpt>
      <trkpt lat="48.01333" lon="6.23886">
        <ele>281.1006</ele>
        <time>2026-05-17T11:29:43+02:00</time>
      </trkpt>
      <trkpt lat="48.01339" lon="6.23888">
        <ele>281.7998</ele>
        <time>2026-05-17T11:29:44+02:00</time>
      </trkpt>
      <trkpt lat="48.01344" lon="6.23891">
        <ele>282.1006</ele>
        <time>2026-05-17T11:29:45+02:00</time>
      </trkpt>
      <trkpt lat="48.0135" lon="6.23894">
        <ele>282.4004</ele>
        <time>2026-05-17T11:29:46+02:00</time>
      </trkpt>
      <trkpt lat="48.01356" lon="6.23897">
        <ele>283.1006</ele>
        <time>2026-05-17T11:29:47+02:00</time>
      </trkpt>
      <trkpt lat="48.01362" lon="6.23901">
        <ele>283.2998</ele>
        <time>2026-05-17T11:29:48+02:00</time>
      </trkpt>
      <trkpt lat="48.01367" lon="6.23904">
        <ele>283.9004</ele>
        <time>2026-05-17T11:29:49+02:00</time>
      </trkpt>
      <trkpt lat="48.01373" lon="6.23908">
        <ele>284.1006</ele>
        <time>2026-05-17T11:29:50+02:00</time>
      </trkpt>
      <trkpt lat="48.01378" lon="6.23912">
        <ele>284.7002</ele>
        <time>2026-05-17T11:29:51+02:00</time>
      </trkpt>
      <trkpt lat="48.01384" lon="6.23915">
        <ele>285</ele>
        <time>2026-05-17T11:29:52+02:00</time>
      </trkpt>
      <trkpt lat="48.01389" lon="6.23919">
        <ele>285.2002</ele>
        <time>2026-05-17T11:29:53+02:00</time>
      </trkpt>
      <trkpt lat="48.01395" lon="6.23923">
        <ele>285.9004</ele>
        <time>2026-05-17T11:29:54+02:00</time>
      </trkpt>
      <trkpt lat="48.01401" lon="6.23926">
        <ele>286</ele>
        <time>2026-05-17T11:29:55+02:00</time>
      </trkpt>
      <trkpt lat="48.01406" lon="6.2393">
        <ele>286.2998</ele>
        <time>2026-05-17T11:29:56+02:00</time>
      </trkpt>
      <trkpt lat="48.01412" lon="6.23933">
        <ele>286.2998</ele>
        <time>2026-05-17T11:29:57+02:00</time>
      </trkpt>
      <trkpt lat="48.01417" lon="6.23936">
        <ele>286.2998</ele>
        <time>2026-05-17T11:29:58+02:00</time>
      </trkpt>
      <trkpt lat="48.01423" lon="6.23939">
        <ele>286.7998</ele>
        <time>2026-05-17T11:29:59+02:00</time>
      </trkpt>
      <trkpt lat="48.01428" lon="6.23942">
        <ele>286.7002</ele>
        <time>2026-05-17T11:30:00+02:00</time>
      </trkpt>
      <trkpt lat="48.01434" lon="6.23945">
        <ele>286.7002</ele>
        <time>2026-05-17T11:30:01+02:00</time>
      </trkpt>
      <trkpt lat="48.0144" lon="6.23948">
        <ele>286.6006</ele>
        <time>2026-05-17T11:30:02+02:00</time>
      </trkpt>
      <trkpt lat="48.01446" lon="6.2395">
        <ele>286.4004</ele>
        <time>2026-05-17T11:30:03+02:00</time>
      </trkpt>
      <trkpt lat="48.01451" lon="6.23953">
        <ele>286.2002</ele>
        <time>2026-05-17T11:30:04+02:00</time>
      </trkpt>
      <trkpt lat="48.01457" lon="6.23955">
        <ele>286.2998</ele>
        <time>2026-05-17T11:30:05+02:00</time>
      </trkpt>
      <trkpt lat="48.01463" lon="6.23957">
        <ele>286.2002</ele>
        <time>2026-05-17T11:30:06+02:00</time>
      </trkpt>
      <trkpt lat="48.0147" lon="6.23959">
        <ele>286.2002</ele>
        <time>2026-05-17T11:30:07+02:00</time>
      </trkpt>
      <trkpt lat="48.01476" lon="6.23961">
        <ele>286.2002</ele>
        <time>2026-05-17T11:30:08+02:00</time>
      </trkpt>
      <trkpt lat="48.01482" lon="6.23963">
        <ele>286.1006</ele>
        <time>2026-05-17T11:30:09+02:00</time>
      </trkpt>
      <trkpt lat="48.01488" lon="6.23965">
        <ele>285.6006</ele>
        <time>2026-05-17T11:30:10+02:00</time>
      </trkpt>
      <trkpt lat="48.01494" lon="6.23967">
        <ele>285.4004</ele>
        <time>2026-05-17T11:30:11+02:00</time>
      </trkpt>
      <trkpt lat="48.01501" lon="6.2397">
        <ele>285.2002</ele>
        <time>2026-05-17T11:30:12+02:00</time>
      </trkpt>
      <trkpt lat="48.01507" lon="6.23972">
        <ele>284.9004</ele>
        <time>2026-05-17T11:30:13+02:00</time>
      </trkpt>
      <trkpt lat="48.01513" lon="6.23975">
        <ele>285</ele>
        <time>2026-05-17T11:30:14+02:00</time>
      </trkpt>
      <trkpt lat="48.0152" lon="6.23978">
        <ele>285.7002</ele>
        <time>2026-05-17T11:30:15+02:00</time>
      </trkpt>
      <trkpt lat="48.01526" lon="6.23981">
        <ele>285.5</ele>
        <time>2026-05-17T11:30:16+02:00</time>
      </trkpt>
      <trkpt lat="48.01532" lon="6.23983">
        <ele>285.9004</ele>
        <time>2026-05-17T11:30:17+02:00</time>
      </trkpt>
      <trkpt lat="48.01538" lon="6.23986">
        <ele>286.4004</ele>
        <time>2026-05-17T11:30:18+02:00</time>
      </trkpt>
      <trkpt lat="48.01544" lon="6.2399">
        <ele>286.6006</ele>
        <time>2026-05-17T11:30:19+02:00</time>
      </trkpt>
      <trkpt lat="48.01549" lon="6.23994">
        <ele>287.2002</ele>
        <time>2026-05-17T11:30:20+02:00</time>
      </trkpt>
      <trkpt lat="48.01554" lon="6.23998">
        <ele>287</ele>
        <time>2026-05-17T11:30:21+02:00</time>
      </trkpt>
      <trkpt lat="48.01559" lon="6.24004">
        <ele>287</ele>
        <time>2026-05-17T11:30:22+02:00</time>
      </trkpt>
      <trkpt lat="48.01564" lon="6.24011">
        <ele>286.7002</ele>
        <time>2026-05-17T11:30:23+02:00</time>
      </trkpt>
      <trkpt lat="48.01568" lon="6.24018">
        <ele>286.9004</ele>
        <time>2026-05-17T11:30:24+02:00</time>
      </trkpt>
      <trkpt lat="48.01573" lon="6.24025">
        <ele>287.2002</ele>
        <time>2026-05-17T11:30:25+02:00</time>
      </trkpt>
      <trkpt lat="48.01578" lon="6.24031">
        <ele>287.5</ele>
        <time>2026-05-17T11:30:26+02:00</time>
      </trkpt>
      <trkpt lat="48.01584" lon="6.24037">
        <ele>287.2998</ele>
        <time>2026-05-17T11:30:27+02:00</time>
      </trkpt>
      <trkpt lat="48.01589" lon="6.24042">
        <ele>287.2002</ele>
        <time>2026-05-17T11:30:28+02:00</time>
      </trkpt>
      <trkpt lat="48.01594" lon="6.24047">
        <ele>287.2998</ele>
        <time>2026-05-17T11:30:29+02:00</time>
      </trkpt>
      <trkpt lat="48.01599" lon="6.24052">
        <ele>287.2002</ele>
        <time>2026-05-17T11:30:30+02:00</time>
      </trkpt>
      <trkpt lat="48.01605" lon="6.24058">
        <ele>287.4004</ele>
        <time>2026-05-17T11:30:31+02:00</time>
      </trkpt>
      <trkpt lat="48.0161" lon="6.24063">
        <ele>287.6006</ele>
        <time>2026-05-17T11:30:32+02:00</time>
      </trkpt>
      <trkpt lat="48.01616" lon="6.24069">
        <ele>287.7002</ele>
        <time>2026-05-17T11:30:33+02:00</time>
      </trkpt>
      <trkpt lat="48.01621" lon="6.24074">
        <ele>287.7002</ele>
        <time>2026-05-17T11:30:34+02:00</time>
      </trkpt>
      <trkpt lat="48.01627" lon="6.24079">
        <ele>287.7998</ele>
        <time>2026-05-17T11:30:35+02:00</time>
      </trkpt>
      <trkpt lat="48.01633" lon="6.24085">
        <ele>287.7998</ele>
        <time>2026-05-17T11:30:36+02:00</time>
      </trkpt>
      <trkpt lat="48.01639" lon="6.2409">
        <ele>287.7998</ele>
        <time>2026-05-17T11:30:37+02:00</time>
      </trkpt>
      <trkpt lat="48.01644" lon="6.24095">
        <ele>287.7002</ele>
        <time>2026-05-17T11:30:38+02:00</time>
      </trkpt>
      <trkpt lat="48.0165" lon="6.241">
        <ele>287.7002</ele>
        <time>2026-05-17T11:30:39+02:00</time>
      </trkpt>
      <trkpt lat="48.01656" lon="6.24106">
        <ele>287.4004</ele>
        <time>2026-05-17T11:30:40+02:00</time>
      </trkpt>
      <trkpt lat="48.01661" lon="6.24111">
        <ele>287</ele>
        <time>2026-05-17T11:30:41+02:00</time>
      </trkpt>
      <trkpt lat="48.01667" lon="6.24116">
        <ele>286.7998</ele>
        <time>2026-05-17T11:30:42+02:00</time>
      </trkpt>
      <trkpt lat="48.01672" lon="6.24121">
        <ele>286.5</ele>
        <time>2026-05-17T11:30:43+02:00</time>
      </trkpt>
      <trkpt lat="48.01678" lon="6.24127">
        <ele>286.2002</ele>
        <time>2026-05-17T11:30:44+02:00</time>
      </trkpt>
      <trkpt lat="48.01684" lon="6.24132">
        <ele>285.9004</ele>
        <time>2026-05-17T11:30:45+02:00</time>
      </trkpt>
      <trkpt lat="48.01689" lon="6.24138">
        <ele>286</ele>
        <time>2026-05-17T11:30:46+02:00</time>
      </trkpt>
      <trkpt lat="48.01695" lon="6.24143">
        <ele>285.7002</ele>
        <time>2026-05-17T11:30:47+02:00</time>
      </trkpt>
      <trkpt lat="48.017" lon="6.24149">
        <ele>285.5</ele>
        <time>2026-05-17T11:30:48+02:00</time>
      </trkpt>
      <trkpt lat="48.01706" lon="6.24154">
        <ele>284.9004</ele>
        <time>2026-05-17T11:30:49+02:00</time>
      </trkpt>
      <trkpt lat="48.01712" lon="6.24159">
        <ele>284.2998</ele>
        <time>2026-05-17T11:30:50+02:00</time>
      </trkpt>
      <trkpt lat="48.01718" lon="6.24165">
        <ele>284.7998</ele>
        <time>2026-05-17T11:30:51+02:00</time>
      </trkpt>
      <trkpt lat="48.01724" lon="6.2417">
        <ele>285.7998</ele>
        <time>2026-05-17T11:30:52+02:00</time>
      </trkpt>
      <trkpt lat="48.0173" lon="6.24176">
        <ele>286.1006</ele>
        <time>2026-05-17T11:30:53+02:00</time>
      </trkpt>
      <trkpt lat="48.01736" lon="6.24181">
        <ele>286.7002</ele>
        <time>2026-05-17T11:30:54+02:00</time>
      </trkpt>
      <trkpt lat="48.01742" lon="6.24187">
        <ele>287.2998</ele>
        <time>2026-05-17T11:30:55+02:00</time>
      </trkpt>
      <trkpt lat="48.01748" lon="6.24193">
        <ele>287.5</ele>
        <time>2026-05-17T11:30:56+02:00</time>
      </trkpt>
      <trkpt lat="48.01754" lon="6.24198">
        <ele>288</ele>
        <time>2026-05-17T11:30:57+02:00</time>
      </trkpt>
      <trkpt lat="48.0176" lon="6.24204">
        <ele>288.5</ele>
        <time>2026-05-17T11:30:58+02:00</time>
      </trkpt>
      <trkpt lat="48.01766" lon="6.2421">
        <ele>288.6006</ele>
        <time>2026-05-17T11:30:59+02:00</time>
      </trkpt>
      <trkpt lat="48.01772" lon="6.24215">
        <ele>289</ele>
        <time>2026-05-17T11:31:00+02:00</time>
      </trkpt>
      <trkpt lat="48.01778" lon="6.24221">
        <ele>289.7002</ele>
        <time>2026-05-17T11:31:01+02:00</time>
      </trkpt>
      <trkpt lat="48.01784" lon="6.24227">
        <ele>289.6006</ele>
        <time>2026-05-17T11:31:02+02:00</time>
      </trkpt>
      <trkpt lat="48.0179" lon="6.24233">
        <ele>290.5</ele>
        <time>2026-05-17T11:31:03+02:00</time>
      </trkpt>
      <trkpt lat="48.01796" lon="6.24238">
        <ele>291.1006</ele>
        <time>2026-05-17T11:31:04+02:00</time>
      </trkpt>
      <trkpt lat="48.01803" lon="6.24244">
        <ele>290.9004</ele>
        <time>2026-05-17T11:31:05+02:00</time>
      </trkpt>
      <trkpt lat="48.01808" lon="6.2425">
        <ele>291.2998</ele>
        <time>2026-05-17T11:31:06+02:00</time>
      </trkpt>
      <trkpt lat="48.01814" lon="6.24256">
        <ele>291.7998</ele>
        <time>2026-05-17T11:31:07+02:00</time>
      </trkpt>
      <trkpt lat="48.01821" lon="6.24262">
        <ele>291.5</ele>
        <time>2026-05-17T11:31:08+02:00</time>
      </trkpt>
      <trkpt lat="48.01827" lon="6.24268">
        <ele>292.1006</ele>
        <time>2026-05-17T11:31:09+02:00</time>
      </trkpt>
      <trkpt lat="48.01833" lon="6.24273">
        <ele>292.4004</ele>
        <time>2026-05-17T11:31:10+02:00</time>
      </trkpt>
      <trkpt lat="48.01839" lon="6.24279">
        <ele>292</ele>
        <time>2026-05-17T11:31:11+02:00</time>
      </trkpt>
      <trkpt lat="48.01845" lon="6.24284">
        <ele>292.1006</ele>
        <time>2026-05-17T11:31:12+02:00</time>
      </trkpt>
      <trkpt lat="48.01851" lon="6.24288">
        <ele>291.9004</ele>
        <time>2026-05-17T11:31:13+02:00</time>
      </trkpt>
      <trkpt lat="48.01858" lon="6.24292">
        <ele>292.2998</ele>
        <time>2026-05-17T11:31:14+02:00</time>
      </trkpt>
      <trkpt lat="48.01865" lon="6.24296">
        <ele>291.7998</ele>
        <time>2026-05-17T11:31:15+02:00</time>
      </trkpt>
      <trkpt lat="48.01871" lon="6.24299">
        <ele>292.2998</ele>
        <time>2026-05-17T11:31:16+02:00</time>
      </trkpt>
      <trkpt lat="48.01878" lon="6.24302">
        <ele>291.7998</ele>
        <time>2026-05-17T11:31:17+02:00</time>
      </trkpt>
      <trkpt lat="48.01885" lon="6.24304">
        <ele>291.2998</ele>
        <time>2026-05-17T11:31:18+02:00</time>
      </trkpt>
      <trkpt lat="48.01891" lon="6.24306">
        <ele>290.7998</ele>
        <time>2026-05-17T11:31:19+02:00</time>
      </trkpt>
      <trkpt lat="48.01899" lon="6.24307">
        <ele>290.4004</ele>
        <time>2026-05-17T11:31:20+02:00</time>
      </trkpt>
      <trkpt lat="48.01906" lon="6.24308">
        <ele>290</ele>
        <time>2026-05-17T11:31:21+02:00</time>
      </trkpt>
      <trkpt lat="48.01912" lon="6.24309">
        <ele>289.6006</ele>
        <time>2026-05-17T11:31:22+02:00</time>
      </trkpt>
      <trkpt lat="48.01919" lon="6.24309">
        <ele>289.2998</ele>
        <time>2026-05-17T11:31:23+02:00</time>
      </trkpt>
      <trkpt lat="48.01926" lon="6.2431">
        <ele>288.9004</ele>
        <time>2026-05-17T11:31:24+02:00</time>
      </trkpt>
      <trkpt lat="48.01933" lon="6.24311">
        <ele>288.1006</ele>
        <time>2026-05-17T11:31:25+02:00</time>
      </trkpt>
      <trkpt lat="48.0194" lon="6.24311">
        <ele>287.7002</ele>
        <time>2026-05-17T11:31:26+02:00</time>
      </trkpt>
      <trkpt lat="48.01947" lon="6.24312">
        <ele>287.4004</ele>
        <time>2026-05-17T11:31:27+02:00</time>
      </trkpt>
      <trkpt lat="48.01953" lon="6.24312">
        <ele>287</ele>
        <time>2026-05-17T11:31:28+02:00</time>
      </trkpt>
      <trkpt lat="48.0196" lon="6.24312">
        <ele>286.7002</ele>
        <time>2026-05-17T11:31:29+02:00</time>
      </trkpt>
      <trkpt lat="48.01967" lon="6.24313">
        <ele>286.4004</ele>
        <time>2026-05-17T11:31:30+02:00</time>
      </trkpt>
      <trkpt lat="48.01973" lon="6.24313">
        <ele>286.2998</ele>
        <time>2026-05-17T11:31:31+02:00</time>
      </trkpt>
      <trkpt lat="48.0198" lon="6.24313">
        <ele>286.5</ele>
        <time>2026-05-17T11:31:32+02:00</time>
      </trkpt>
      <trkpt lat="48.01987" lon="6.24314">
        <ele>286.6006</ele>
        <time>2026-05-17T11:31:33+02:00</time>
      </trkpt>
      <trkpt lat="48.01994" lon="6.24315">
        <ele>286.7998</ele>
        <time>2026-05-17T11:31:34+02:00</time>
      </trkpt>
      <trkpt lat="48.02001" lon="6.24316">
        <ele>286.7998</ele>
        <time>2026-05-17T11:31:35+02:00</time>
      </trkpt>
      <trkpt lat="48.02007" lon="6.24317">
        <ele>287</ele>
        <time>2026-05-17T11:31:36+02:00</time>
      </trkpt>
      <trkpt lat="48.02014" lon="6.24318">
        <ele>287.4004</ele>
        <time>2026-05-17T11:31:37+02:00</time>
      </trkpt>
      <trkpt lat="48.02022" lon="6.24319">
        <ele>287.6006</ele>
        <time>2026-05-17T11:31:38+02:00</time>
      </trkpt>
      <trkpt lat="48.02028" lon="6.24321">
        <ele>287.7998</ele>
        <time>2026-05-17T11:31:39+02:00</time>
      </trkpt>
      <trkpt lat="48.02035" lon="6.24323">
        <ele>288</ele>
        <time>2026-05-17T11:31:40+02:00</time>
      </trkpt>
      <trkpt lat="48.02042" lon="6.24325">
        <ele>288.4004</ele>
        <time>2026-05-17T11:31:41+02:00</time>
      </trkpt>
      <trkpt lat="48.02049" lon="6.24327">
        <ele>288.6006</ele>
        <time>2026-05-17T11:31:42+02:00</time>
      </trkpt>
      <trkpt lat="48.02055" lon="6.2433">
        <ele>288.7998</ele>
        <time>2026-05-17T11:31:43+02:00</time>
      </trkpt>
      <trkpt lat="48.02062" lon="6.24334">
        <ele>289.1006</ele>
        <time>2026-05-17T11:31:44+02:00</time>
      </trkpt>
      <trkpt lat="48.02067" lon="6.24339">
        <ele>289.2002</ele>
        <time>2026-05-17T11:31:45+02:00</time>
      </trkpt>
      <trkpt lat="48.02073" lon="6.24344">
        <ele>289.7002</ele>
        <time>2026-05-17T11:31:46+02:00</time>
      </trkpt>
      <trkpt lat="48.02079" lon="6.24349">
        <ele>289.9004</ele>
        <time>2026-05-17T11:31:47+02:00</time>
      </trkpt>
      <trkpt lat="48.02101" lon="6.24375">
        <ele>291.4004</ele>
        <time>2026-05-17T11:31:48+02:00</time>
      </trkpt>
      <trkpt lat="48.02105" lon="6.24383">
        <ele>291.2998</ele>
        <time>2026-05-17T11:31:49+02:00</time>
      </trkpt>
      <trkpt lat="48.0211" lon="6.24391">
        <ele>291.1006</ele>
        <time>2026-05-17T11:31:50+02:00</time>
      </trkpt>
      <trkpt lat="48.02114" lon="6.24399">
        <ele>291</ele>
        <time>2026-05-17T11:31:51+02:00</time>
      </trkpt>
      <trkpt lat="48.02118" lon="6.24408">
        <ele>290.7998</ele>
        <time>2026-05-17T11:31:52+02:00</time>
      </trkpt>
      <trkpt lat="48.02122" lon="6.24416">
        <ele>290.7998</ele>
        <time>2026-05-17T11:31:53+02:00</time>
      </trkpt>
      <trkpt lat="48.02126" lon="6.24425">
        <ele>290.6006</ele>
        <time>2026-05-17T11:31:54+02:00</time>
      </trkpt>
      <trkpt lat="48.02129" lon="6.24434">
        <ele>290.5</ele>
        <time>2026-05-17T11:31:55+02:00</time>
      </trkpt>
      <trkpt lat="48.02133" lon="6.24442">
        <ele>290.2002</ele>
        <time>2026-05-17T11:31:56+02:00</time>
      </trkpt>
      <trkpt lat="48.02137" lon="6.24451">
        <ele>289.9004</ele>
        <time>2026-05-17T11:31:57+02:00</time>
      </trkpt>
      <trkpt lat="48.02141" lon="6.2446">
        <ele>289.5</ele>
        <time>2026-05-17T11:31:58+02:00</time>
      </trkpt>
      <trkpt lat="48.02144" lon="6.24468">
        <ele>289.2998</ele>
        <time>2026-05-17T11:31:59+02:00</time>
      </trkpt>
      <trkpt lat="48.02148" lon="6.24477">
        <ele>288.9004</ele>
        <time>2026-05-17T11:32:00+02:00</time>
      </trkpt>
      <trkpt lat="48.02151" lon="6.24486">
        <ele>288.6006</ele>
        <time>2026-05-17T11:32:01+02:00</time>
      </trkpt>
      <trkpt lat="48.02155" lon="6.24495">
        <ele>288.5</ele>
        <time>2026-05-17T11:32:02+02:00</time>
      </trkpt>
      <trkpt lat="48.02158" lon="6.24504">
        <ele>288.2002</ele>
        <time>2026-05-17T11:32:03+02:00</time>
      </trkpt>
      <trkpt lat="48.02161" lon="6.24513">
        <ele>288.1006</ele>
        <time>2026-05-17T11:32:04+02:00</time>
      </trkpt>
      <trkpt lat="48.02165" lon="6.24521">
        <ele>287.9004</ele>
        <time>2026-05-17T11:32:05+02:00</time>
      </trkpt>
      <trkpt lat="48.02168" lon="6.2453">
        <ele>287.7002</ele>
        <time>2026-05-17T11:32:06+02:00</time>
      </trkpt>
      <trkpt lat="48.02171" lon="6.24539">
        <ele>287.7002</ele>
        <time>2026-05-17T11:32:07+02:00</time>
      </trkpt>
      <trkpt lat="48.02175" lon="6.24547">
        <ele>287.7002</ele>
        <time>2026-05-17T11:32:08+02:00</time>
      </trkpt>
      <trkpt lat="48.02178" lon="6.24556">
        <ele>287.7002</ele>
        <time>2026-05-17T11:32:09+02:00</time>
      </trkpt>
      <trkpt lat="48.02182" lon="6.24564">
        <ele>287.7002</ele>
        <time>2026-05-17T11:32:10+02:00</time>
      </trkpt>
      <trkpt lat="48.02185" lon="6.24571">
        <ele>287.7002</ele>
        <time>2026-05-17T11:32:11+02:00</time>
      </trkpt>
      <trkpt lat="48.02188" lon="6.24578">
        <ele>287.6006</ele>
        <time>2026-05-17T11:32:12+02:00</time>
      </trkpt>
      <trkpt lat="48.02191" lon="6.24585">
        <ele>287.5</ele>
        <time>2026-05-17T11:32:13+02:00</time>
      </trkpt>
      <trkpt lat="48.02195" lon="6.24591">
        <ele>287.6006</ele>
        <time>2026-05-17T11:32:14+02:00</time>
      </trkpt>
      <trkpt lat="48.02198" lon="6.24597">
        <ele>287.6006</ele>
        <time>2026-05-17T11:32:15+02:00</time>
      </trkpt>
      <trkpt lat="48.02201" lon="6.24604">
        <ele>287.7002</ele>
        <time>2026-05-17T11:32:16+02:00</time>
      </trkpt>
      <trkpt lat="48.02204" lon="6.24611">
        <ele>287.9004</ele>
        <time>2026-05-17T11:32:17+02:00</time>
      </trkpt>
      <trkpt lat="48.02207" lon="6.24618">
        <ele>287.9004</ele>
        <time>2026-05-17T11:32:18+02:00</time>
      </trkpt>
      <trkpt lat="48.0221" lon="6.24625">
        <ele>287.7998</ele>
        <time>2026-05-17T11:32:19+02:00</time>
      </trkpt>
      <trkpt lat="48.02213" lon="6.24632">
        <ele>287.7998</ele>
        <time>2026-05-17T11:32:20+02:00</time>
      </trkpt>
      <trkpt lat="48.02216" lon="6.2464">
        <ele>287.6006</ele>
        <time>2026-05-17T11:32:21+02:00</time>
      </trkpt>
      <trkpt lat="48.02219" lon="6.24648">
        <ele>287.5</ele>
        <time>2026-05-17T11:32:22+02:00</time>
      </trkpt>
      <trkpt lat="48.02222" lon="6.24655">
        <ele>287.4004</ele>
        <time>2026-05-17T11:32:23+02:00</time>
      </trkpt>
      <trkpt lat="48.02225" lon="6.24663">
        <ele>287.6006</ele>
        <time>2026-05-17T11:32:24+02:00</time>
      </trkpt>
      <trkpt lat="48.02228" lon="6.24671">
        <ele>287.7998</ele>
        <time>2026-05-17T11:32:25+02:00</time>
      </trkpt>
      <trkpt lat="48.02231" lon="6.24679">
        <ele>287.9004</ele>
        <time>2026-05-17T11:32:26+02:00</time>
      </trkpt>
      <trkpt lat="48.02234" lon="6.24687">
        <ele>287.7998</ele>
        <time>2026-05-17T11:32:27+02:00</time>
      </trkpt>
      <trkpt lat="48.02238" lon="6.24695">
        <ele>287.6006</ele>
        <time>2026-05-17T11:32:28+02:00</time>
      </trkpt>
      <trkpt lat="48.02241" lon="6.24703">
        <ele>287.4004</ele>
        <time>2026-05-17T11:32:29+02:00</time>
      </trkpt>
      <trkpt lat="48.02245" lon="6.24711">
        <ele>287.2998</ele>
        <time>2026-05-17T11:32:30+02:00</time>
      </trkpt>
      <trkpt lat="48.02249" lon="6.24719">
        <ele>287.4004</ele>
        <time>2026-05-17T11:32:31+02:00</time>
      </trkpt>
      <trkpt lat="48.02252" lon="6.24727">
        <ele>287.4004</ele>
        <time>2026-05-17T11:32:32+02:00</time>
      </trkpt>
      <trkpt lat="48.02255" lon="6.24735">
        <ele>287.4004</ele>
        <time>2026-05-17T11:32:33+02:00</time>
      </trkpt>
      <trkpt lat="48.02259" lon="6.24742">
        <ele>287.7002</ele>
        <time>2026-05-17T11:32:34+02:00</time>
      </trkpt>
      <trkpt lat="48.02262" lon="6.2475">
        <ele>287.7002</ele>
        <time>2026-05-17T11:32:35+02:00</time>
      </trkpt>
      <trkpt lat="48.02266" lon="6.24758">
        <ele>287.7998</ele>
        <time>2026-05-17T11:32:36+02:00</time>
      </trkpt>
      <trkpt lat="48.02269" lon="6.24766">
        <ele>288.5</ele>
        <time>2026-05-17T11:32:37+02:00</time>
      </trkpt>
      <trkpt lat="48.02273" lon="6.24774">
        <ele>288.5</ele>
        <time>2026-05-17T11:32:38+02:00</time>
      </trkpt>
      <trkpt lat="48.02276" lon="6.24783">
        <ele>289</ele>
        <time>2026-05-17T11:32:39+02:00</time>
      </trkpt>
      <trkpt lat="48.02279" lon="6.24791">
        <ele>289</ele>
        <time>2026-05-17T11:32:40+02:00</time>
      </trkpt>
      <trkpt lat="48.02282" lon="6.24799">
        <ele>289.7002</ele>
        <time>2026-05-17T11:32:41+02:00</time>
      </trkpt>
      <trkpt lat="48.02286" lon="6.24807">
        <ele>289.4004</ele>
        <time>2026-05-17T11:32:42+02:00</time>
      </trkpt>
      <trkpt lat="48.02289" lon="6.24816">
        <ele>289.2002</ele>
        <time>2026-05-17T11:32:43+02:00</time>
      </trkpt>
      <trkpt lat="48.02292" lon="6.24825">
        <ele>289.7002</ele>
        <time>2026-05-17T11:32:44+02:00</time>
      </trkpt>
      <trkpt lat="48.02295" lon="6.24833">
        <ele>289.9004</ele>
        <time>2026-05-17T11:32:45+02:00</time>
      </trkpt>
      <trkpt lat="48.02298" lon="6.24843">
        <ele>289.9004</ele>
        <time>2026-05-17T11:32:46+02:00</time>
      </trkpt>
      <trkpt lat="48.02301" lon="6.24851">
        <ele>289.6006</ele>
        <time>2026-05-17T11:32:47+02:00</time>
      </trkpt>
      <trkpt lat="48.02303" lon="6.2486">
        <ele>289.2998</ele>
        <time>2026-05-17T11:32:48+02:00</time>
      </trkpt>
      <trkpt lat="48.02306" lon="6.24869">
        <ele>288.7998</ele>
        <time>2026-05-17T11:32:49+02:00</time>
      </trkpt>
      <trkpt lat="48.02308" lon="6.24879">
        <ele>288.7002</ele>
        <time>2026-05-17T11:32:50+02:00</time>
      </trkpt>
      <trkpt lat="48.02311" lon="6.24888">
        <ele>288.6006</ele>
        <time>2026-05-17T11:32:51+02:00</time>
      </trkpt>
      <trkpt lat="48.02313" lon="6.24898">
        <ele>288.2002</ele>
        <time>2026-05-17T11:32:52+02:00</time>
      </trkpt>
      <trkpt lat="48.02315" lon="6.24908">
        <ele>288.1006</ele>
        <time>2026-05-17T11:32:53+02:00</time>
      </trkpt>
      <trkpt lat="48.02316" lon="6.24918">
        <ele>288.1006</ele>
        <time>2026-05-17T11:32:54+02:00</time>
      </trkpt>
      <trkpt lat="48.02318" lon="6.24927">
        <ele>287.7998</ele>
        <time>2026-05-17T11:32:55+02:00</time>
      </trkpt>
      <trkpt lat="48.0232" lon="6.24937">
        <ele>287.7998</ele>
        <time>2026-05-17T11:32:56+02:00</time>
      </trkpt>
      <trkpt lat="48.02321" lon="6.24947">
        <ele>287.7998</ele>
        <time>2026-05-17T11:32:57+02:00</time>
      </trkpt>
      <trkpt lat="48.02322" lon="6.24957">
        <ele>287.9004</ele>
        <time>2026-05-17T11:32:58+02:00</time>
      </trkpt>
      <trkpt lat="48.02323" lon="6.24967">
        <ele>287.7998</ele>
        <time>2026-05-17T11:32:59+02:00</time>
      </trkpt>
      <trkpt lat="48.02324" lon="6.24977">
        <ele>287.9004</ele>
        <time>2026-05-17T11:33:00+02:00</time>
      </trkpt>
      <trkpt lat="48.02326" lon="6.24987">
        <ele>288.1006</ele>
        <time>2026-05-17T11:33:01+02:00</time>
      </trkpt>
      <trkpt lat="48.02326" lon="6.24997">
        <ele>288.2002</ele>
        <time>2026-05-17T11:33:02+02:00</time>
      </trkpt>
      <trkpt lat="48.02327" lon="6.25007">
        <ele>288.4004</ele>
        <time>2026-05-17T11:33:03+02:00</time>
      </trkpt>
      <trkpt lat="48.02327" lon="6.25018">
        <ele>288.5</ele>
        <time>2026-05-17T11:33:04+02:00</time>
      </trkpt>
      <trkpt lat="48.02327" lon="6.25028">
        <ele>288.7998</ele>
        <time>2026-05-17T11:33:05+02:00</time>
      </trkpt>
      <trkpt lat="48.02326" lon="6.25038">
        <ele>288.7998</ele>
        <time>2026-05-17T11:33:06+02:00</time>
      </trkpt>
      <trkpt lat="48.02324" lon="6.25047">
        <ele>288.7998</ele>
        <time>2026-05-17T11:33:07+02:00</time>
      </trkpt>
      <trkpt lat="48.02322" lon="6.25057">
        <ele>288.9004</ele>
        <time>2026-05-17T11:33:08+02:00</time>
      </trkpt>
      <trkpt lat="48.02319" lon="6.25066">
        <ele>288.9004</ele>
        <time>2026-05-17T11:33:09+02:00</time>
      </trkpt>
      <trkpt lat="48.02316" lon="6.25075">
        <ele>289.1006</ele>
        <time>2026-05-17T11:33:10+02:00</time>
      </trkpt>
      <trkpt lat="48.02313" lon="6.25084">
        <ele>289.2002</ele>
        <time>2026-05-17T11:33:11+02:00</time>
      </trkpt>
      <trkpt lat="48.0231" lon="6.25093">
        <ele>289.2998</ele>
        <time>2026-05-17T11:33:12+02:00</time>
      </trkpt>
      <trkpt lat="48.02307" lon="6.25101">
        <ele>289.2998</ele>
        <time>2026-05-17T11:33:13+02:00</time>
      </trkpt>
      <trkpt lat="48.02304" lon="6.2511">
        <ele>289.2998</ele>
        <time>2026-05-17T11:33:14+02:00</time>
      </trkpt>
      <trkpt lat="48.02301" lon="6.25119">
        <ele>289.2002</ele>
        <time>2026-05-17T11:33:15+02:00</time>
      </trkpt>
      <trkpt lat="48.02297" lon="6.25128">
        <ele>289.2998</ele>
        <time>2026-05-17T11:33:16+02:00</time>
      </trkpt>
      <trkpt lat="48.02294" lon="6.25136">
        <ele>289.4004</ele>
        <time>2026-05-17T11:33:17+02:00</time>
      </trkpt>
      <trkpt lat="48.0229" lon="6.25144">
        <ele>289.5</ele>
        <time>2026-05-17T11:33:18+02:00</time>
      </trkpt>
      <trkpt lat="48.02286" lon="6.25152">
        <ele>289.4004</ele>
        <time>2026-05-17T11:33:19+02:00</time>
      </trkpt>
      <trkpt lat="48.02281" lon="6.25159">
        <ele>289.2998</ele>
        <time>2026-05-17T11:33:20+02:00</time>
      </trkpt>
      <trkpt lat="48.02276" lon="6.25166">
        <ele>289.2998</ele>
        <time>2026-05-17T11:33:21+02:00</time>
      </trkpt>
      <trkpt lat="48.02271" lon="6.25172">
        <ele>289.4004</ele>
        <time>2026-05-17T11:33:22+02:00</time>
      </trkpt>
      <trkpt lat="48.02266" lon="6.25179">
        <ele>289.4004</ele>
        <time>2026-05-17T11:33:23+02:00</time>
      </trkpt>
      <trkpt lat="48.02262" lon="6.25186">
        <ele>289.6006</ele>
        <time>2026-05-17T11:33:24+02:00</time>
      </trkpt>
      <trkpt lat="48.02257" lon="6.25193">
        <ele>289.6006</ele>
        <time>2026-05-17T11:33:25+02:00</time>
      </trkpt>
      <trkpt lat="48.02252" lon="6.25201">
        <ele>289.6006</ele>
        <time>2026-05-17T11:33:26+02:00</time>
      </trkpt>
      <trkpt lat="48.02247" lon="6.25207">
        <ele>289.5</ele>
        <time>2026-05-17T11:33:27+02:00</time>
      </trkpt>
      <trkpt lat="48.02242" lon="6.25214">
        <ele>289.5</ele>
        <time>2026-05-17T11:33:28+02:00</time>
      </trkpt>
      <trkpt lat="48.02237" lon="6.25221">
        <ele>289.6006</ele>
        <time>2026-05-17T11:33:29+02:00</time>
      </trkpt>
      <trkpt lat="48.02232" lon="6.25229">
        <ele>289.6006</ele>
        <time>2026-05-17T11:33:30+02:00</time>
      </trkpt>
      <trkpt lat="48.02228" lon="6.25235">
        <ele>289.6006</ele>
        <time>2026-05-17T11:33:31+02:00</time>
      </trkpt>
      <trkpt lat="48.02222" lon="6.25242">
        <ele>289.5</ele>
        <time>2026-05-17T11:33:32+02:00</time>
      </trkpt>
      <trkpt lat="48.02217" lon="6.25249">
        <ele>289.5</ele>
        <time>2026-05-17T11:33:33+02:00</time>
      </trkpt>
      <trkpt lat="48.02212" lon="6.25256">
        <ele>289.6006</ele>
        <time>2026-05-17T11:33:34+02:00</time>
      </trkpt>
      <trkpt lat="48.02207" lon="6.25263">
        <ele>289.6006</ele>
        <time>2026-05-17T11:33:35+02:00</time>
      </trkpt>
      <trkpt lat="48.02202" lon="6.2527">
        <ele>289.6006</ele>
        <time>2026-05-17T11:33:36+02:00</time>
      </trkpt>
      <trkpt lat="48.02197" lon="6.25278">
        <ele>289.6006</ele>
        <time>2026-05-17T11:33:37+02:00</time>
      </trkpt>
      <trkpt lat="48.02194" lon="6.25285">
        <ele>289.5</ele>
        <time>2026-05-17T11:33:38+02:00</time>
      </trkpt>
      <trkpt lat="48.02189" lon="6.25293">
        <ele>289.5</ele>
        <time>2026-05-17T11:33:39+02:00</time>
      </trkpt>
      <trkpt lat="48.02185" lon="6.25301">
        <ele>289.6006</ele>
        <time>2026-05-17T11:33:40+02:00</time>
      </trkpt>
      <trkpt lat="48.02182" lon="6.25309">
        <ele>289.9004</ele>
        <time>2026-05-17T11:33:41+02:00</time>
      </trkpt>
      <trkpt lat="48.02178" lon="6.25317">
        <ele>290.5</ele>
        <time>2026-05-17T11:33:42+02:00</time>
      </trkpt>
      <trkpt lat="48.02175" lon="6.25325">
        <ele>290.5</ele>
        <time>2026-05-17T11:33:43+02:00</time>
      </trkpt>
      <trkpt lat="48.02171" lon="6.25334">
        <ele>291.1006</ele>
        <time>2026-05-17T11:33:44+02:00</time>
      </trkpt>
      <trkpt lat="48.02169" lon="6.25342">
        <ele>291.1006</ele>
        <time>2026-05-17T11:33:45+02:00</time>
      </trkpt>
      <trkpt lat="48.02167" lon="6.25352">
        <ele>292</ele>
        <time>2026-05-17T11:33:46+02:00</time>
      </trkpt>
      <trkpt lat="48.02165" lon="6.25361">
        <ele>292.2998</ele>
        <time>2026-05-17T11:33:47+02:00</time>
      </trkpt>
      <trkpt lat="48.02165" lon="6.25371">
        <ele>292.5</ele>
        <time>2026-05-17T11:33:48+02:00</time>
      </trkpt>
      <trkpt lat="48.02166" lon="6.2538">
        <ele>293.1006</ele>
        <time>2026-05-17T11:33:49+02:00</time>
      </trkpt>
      <trkpt lat="48.02168" lon="6.25389">
        <ele>292.7998</ele>
        <time>2026-05-17T11:33:50+02:00</time>
      </trkpt>
      <trkpt lat="48.02171" lon="6.25398">
        <ele>293</ele>
        <time>2026-05-17T11:33:51+02:00</time>
      </trkpt>
      <trkpt lat="48.02175" lon="6.25406">
        <ele>292.6006</ele>
        <time>2026-05-17T11:33:52+02:00</time>
      </trkpt>
      <trkpt lat="48.02178" lon="6.25414">
        <ele>292.7998</ele>
        <time>2026-05-17T11:33:53+02:00</time>
      </trkpt>
      <trkpt lat="48.02182" lon="6.25423">
        <ele>292.6006</ele>
        <time>2026-05-17T11:33:54+02:00</time>
      </trkpt>
      <trkpt lat="48.02186" lon="6.25431">
        <ele>292</ele>
        <time>2026-05-17T11:33:55+02:00</time>
      </trkpt>
      <trkpt lat="48.0219" lon="6.2544">
        <ele>292.6006</ele>
        <time>2026-05-17T11:33:56+02:00</time>
      </trkpt>
      <trkpt lat="48.02194" lon="6.25448">
        <ele>291.9004</ele>
        <time>2026-05-17T11:33:57+02:00</time>
      </trkpt>
      <trkpt lat="48.02198" lon="6.25457">
        <ele>291.9004</ele>
        <time>2026-05-17T11:33:58+02:00</time>
      </trkpt>
      <trkpt lat="48.02202" lon="6.25465">
        <ele>291.9004</ele>
        <time>2026-05-17T11:33:59+02:00</time>
      </trkpt>
      <trkpt lat="48.02206" lon="6.25474">
        <ele>292.2998</ele>
        <time>2026-05-17T11:34:00+02:00</time>
      </trkpt>
      <trkpt lat="48.0221" lon="6.25482">
        <ele>291.7998</ele>
        <time>2026-05-17T11:34:01+02:00</time>
      </trkpt>
      <trkpt lat="48.02213" lon="6.25491">
        <ele>292.2998</ele>
        <time>2026-05-17T11:34:02+02:00</time>
      </trkpt>
      <trkpt lat="48.02217" lon="6.25499">
        <ele>292.2002</ele>
        <time>2026-05-17T11:34:03+02:00</time>
      </trkpt>
      <trkpt lat="48.02221" lon="6.25508">
        <ele>292</ele>
        <time>2026-05-17T11:34:04+02:00</time>
      </trkpt>
      <trkpt lat="48.02225" lon="6.25516">
        <ele>292.4004</ele>
        <time>2026-05-17T11:34:05+02:00</time>
      </trkpt>
      <trkpt lat="48.02229" lon="6.25524">
        <ele>292.1006</ele>
        <time>2026-05-17T11:34:06+02:00</time>
      </trkpt>
      <trkpt lat="48.02233" lon="6.25533">
        <ele>291.9004</ele>
        <time>2026-05-17T11:34:07+02:00</time>
      </trkpt>
      <trkpt lat="48.02237" lon="6.25541">
        <ele>291.7002</ele>
        <time>2026-05-17T11:34:08+02:00</time>
      </trkpt>
      <trkpt lat="48.02241" lon="6.25549">
        <ele>291.9004</ele>
        <time>2026-05-17T11:34:09+02:00</time>
      </trkpt>
      <trkpt lat="48.02244" lon="6.25557">
        <ele>291.6006</ele>
        <time>2026-05-17T11:34:10+02:00</time>
      </trkpt>
      <trkpt lat="48.02248" lon="6.25565">
        <ele>291.9004</ele>
        <time>2026-05-17T11:34:11+02:00</time>
      </trkpt>
      <trkpt lat="48.02252" lon="6.25572">
        <ele>291.6006</ele>
        <time>2026-05-17T11:34:12+02:00</time>
      </trkpt>
      <trkpt lat="48.02256" lon="6.2558">
        <ele>291.5</ele>
        <time>2026-05-17T11:34:13+02:00</time>
      </trkpt>
      <trkpt lat="48.02259" lon="6.25588">
        <ele>291.7002</ele>
        <time>2026-05-17T11:34:14+02:00</time>
      </trkpt>
      <trkpt lat="48.02262" lon="6.25596">
        <ele>291.6006</ele>
        <time>2026-05-17T11:34:15+02:00</time>
      </trkpt>
      <trkpt lat="48.02266" lon="6.25604">
        <ele>291.7002</ele>
        <time>2026-05-17T11:34:16+02:00</time>
      </trkpt>
      <trkpt lat="48.0227" lon="6.25612">
        <ele>291.7998</ele>
        <time>2026-05-17T11:34:17+02:00</time>
      </trkpt>
      <trkpt lat="48.02273" lon="6.25619">
        <ele>291.7002</ele>
        <time>2026-05-17T11:34:18+02:00</time>
      </trkpt>
      <trkpt lat="48.02277" lon="6.25627">
        <ele>291.6006</ele>
        <time>2026-05-17T11:34:19+02:00</time>
      </trkpt>
      <trkpt lat="48.02281" lon="6.25636">
        <ele>291.5</ele>
        <time>2026-05-17T11:34:20+02:00</time>
      </trkpt>
      <trkpt lat="48.02284" lon="6.25644">
        <ele>291.1006</ele>
        <time>2026-05-17T11:34:21+02:00</time>
      </trkpt>
      <trkpt lat="48.02288" lon="6.25652">
        <ele>291</ele>
        <time>2026-05-17T11:34:22+02:00</time>
      </trkpt>
      <trkpt lat="48.02292" lon="6.2566">
        <ele>290.7998</ele>
        <time>2026-05-17T11:34:23+02:00</time>
      </trkpt>
      <trkpt lat="48.02295" lon="6.25668">
        <ele>290.6006</ele>
        <time>2026-05-17T11:34:24+02:00</time>
      </trkpt>
      <trkpt lat="48.02299" lon="6.25676">
        <ele>290.6006</ele>
        <time>2026-05-17T11:34:25+02:00</time>
      </trkpt>
      <trkpt lat="48.02302" lon="6.25684">
        <ele>290.5</ele>
        <time>2026-05-17T11:34:26+02:00</time>
      </trkpt>
      <trkpt lat="48.02306" lon="6.25692">
        <ele>290.4004</ele>
        <time>2026-05-17T11:34:27+02:00</time>
      </trkpt>
      <trkpt lat="48.0231" lon="6.257">
        <ele>290.4004</ele>
        <time>2026-05-17T11:34:28+02:00</time>
      </trkpt>
      <trkpt lat="48.02314" lon="6.25708">
        <ele>290.4004</ele>
        <time>2026-05-17T11:34:29+02:00</time>
      </trkpt>
      <trkpt lat="48.02318" lon="6.25716">
        <ele>290.4004</ele>
        <time>2026-05-17T11:34:30+02:00</time>
      </trkpt>
      <trkpt lat="48.02321" lon="6.25723">
        <ele>290.5</ele>
        <time>2026-05-17T11:34:31+02:00</time>
      </trkpt>
      <trkpt lat="48.02325" lon="6.25731">
        <ele>290.5</ele>
        <time>2026-05-17T11:34:32+02:00</time>
      </trkpt>
      <trkpt lat="48.02329" lon="6.2574">
        <ele>290.5</ele>
        <time>2026-05-17T11:34:33+02:00</time>
      </trkpt>
      <trkpt lat="48.02332" lon="6.25748">
        <ele>290.6006</ele>
        <time>2026-05-17T11:34:34+02:00</time>
      </trkpt>
      <trkpt lat="48.02336" lon="6.25756">
        <ele>290.7998</ele>
        <time>2026-05-17T11:34:35+02:00</time>
      </trkpt>
      <trkpt lat="48.0234" lon="6.25764">
        <ele>290.9004</ele>
        <time>2026-05-17T11:34:36+02:00</time>
      </trkpt>
      <trkpt lat="48.02344" lon="6.25772">
        <ele>291</ele>
        <time>2026-05-17T11:34:37+02:00</time>
      </trkpt>
      <trkpt lat="48.02347" lon="6.2578">
        <ele>291.2002</ele>
        <time>2026-05-17T11:34:38+02:00</time>
      </trkpt>
      <trkpt lat="48.02351" lon="6.25788">
        <ele>291.2998</ele>
        <time>2026-05-17T11:34:39+02:00</time>
      </trkpt>
      <trkpt lat="48.02355" lon="6.25795">
        <ele>291.5</ele>
        <time>2026-05-17T11:34:40+02:00</time>
      </trkpt>
      <trkpt lat="48.02359" lon="6.25803">
        <ele>291.7998</ele>
        <time>2026-05-17T11:34:41+02:00</time>
      </trkpt>
      <trkpt lat="48.02362" lon="6.25811">
        <ele>291.9004</ele>
        <time>2026-05-17T11:34:42+02:00</time>
      </trkpt>
      <trkpt lat="48.02365" lon="6.25819">
        <ele>292</ele>
        <time>2026-05-17T11:34:43+02:00</time>
      </trkpt>
      <trkpt lat="48.02369" lon="6.25826">
        <ele>292.1006</ele>
        <time>2026-05-17T11:34:44+02:00</time>
      </trkpt>
      <trkpt lat="48.02373" lon="6.25834">
        <ele>292.1006</ele>
        <time>2026-05-17T11:34:45+02:00</time>
      </trkpt>
      <trkpt lat="48.02377" lon="6.25841">
        <ele>292.2002</ele>
        <time>2026-05-17T11:34:46+02:00</time>
      </trkpt>
      <trkpt lat="48.0238" lon="6.25849">
        <ele>292.4004</ele>
        <time>2026-05-17T11:34:47+02:00</time>
      </trkpt>
      <trkpt lat="48.02384" lon="6.25857">
        <ele>292.6006</ele>
        <time>2026-05-17T11:34:48+02:00</time>
      </trkpt>
      <trkpt lat="48.02388" lon="6.25865">
        <ele>292.6006</ele>
        <time>2026-05-17T11:34:49+02:00</time>
      </trkpt>
      <trkpt lat="48.02392" lon="6.25873">
        <ele>292.4004</ele>
        <time>2026-05-17T11:34:50+02:00</time>
      </trkpt>
      <trkpt lat="48.02396" lon="6.25881">
        <ele>292.7998</ele>
        <time>2026-05-17T11:34:51+02:00</time>
      </trkpt>
      <trkpt lat="48.02399" lon="6.25889">
        <ele>292.9004</ele>
        <time>2026-05-17T11:34:52+02:00</time>
      </trkpt>
      <trkpt lat="48.02403" lon="6.25896">
        <ele>293.5</ele>
        <time>2026-05-17T11:34:53+02:00</time>
      </trkpt>
      <trkpt lat="48.02406" lon="6.25903">
        <ele>293.2002</ele>
        <time>2026-05-17T11:34:54+02:00</time>
      </trkpt>
      <trkpt lat="48.02409" lon="6.25909">
        <ele>293.4004</ele>
        <time>2026-05-17T11:34:55+02:00</time>
      </trkpt>
      <trkpt lat="48.02413" lon="6.25915">
        <ele>294</ele>
        <time>2026-05-17T11:34:56+02:00</time>
      </trkpt>
      <trkpt lat="48.02416" lon="6.25922">
        <ele>294.2998</ele>
        <time>2026-05-17T11:34:57+02:00</time>
      </trkpt>
      <trkpt lat="48.0242" lon="6.25928">
        <ele>294.2998</ele>
        <time>2026-05-17T11:34:58+02:00</time>
      </trkpt>
      <trkpt lat="48.02424" lon="6.25934">
        <ele>294.7998</ele>
        <time>2026-05-17T11:34:59+02:00</time>
      </trkpt>
      <trkpt lat="48.02427" lon="6.25941">
        <ele>295</ele>
        <time>2026-05-17T11:35:00+02:00</time>
      </trkpt>
      <trkpt lat="48.0243" lon="6.25948">
        <ele>295.2998</ele>
        <time>2026-05-17T11:35:01+02:00</time>
      </trkpt>
      <trkpt lat="48.02434" lon="6.25955">
        <ele>294.9004</ele>
        <time>2026-05-17T11:35:02+02:00</time>
      </trkpt>
      <trkpt lat="48.02437" lon="6.25963">
        <ele>294.9004</ele>
        <time>2026-05-17T11:35:03+02:00</time>
      </trkpt>
      <trkpt lat="48.0244" lon="6.2597">
        <ele>294.1006</ele>
        <time>2026-05-17T11:35:04+02:00</time>
      </trkpt>
      <trkpt lat="48.02443" lon="6.25978">
        <ele>294.7002</ele>
        <time>2026-05-17T11:35:05+02:00</time>
      </trkpt>
      <trkpt lat="48.02446" lon="6.25986">
        <ele>294.5</ele>
        <time>2026-05-17T11:35:06+02:00</time>
      </trkpt>
      <trkpt lat="48.0245" lon="6.25993">
        <ele>294.9004</ele>
        <time>2026-05-17T11:35:07+02:00</time>
      </trkpt>
      <trkpt lat="48.02453" lon="6.26001">
        <ele>295.7998</ele>
        <time>2026-05-17T11:35:08+02:00</time>
      </trkpt>
      <trkpt lat="48.02456" lon="6.26008">
        <ele>295.6006</ele>
        <time>2026-05-17T11:35:09+02:00</time>
      </trkpt>
      <trkpt lat="48.0246" lon="6.26016">
        <ele>295.7998</ele>
        <time>2026-05-17T11:35:10+02:00</time>
      </trkpt>
      <trkpt lat="48.02463" lon="6.26023">
        <ele>294.7002</ele>
        <time>2026-05-17T11:35:11+02:00</time>
      </trkpt>
      <trkpt lat="48.02467" lon="6.26031">
        <ele>293.4004</ele>
        <time>2026-05-17T11:35:12+02:00</time>
      </trkpt>
      <trkpt lat="48.02471" lon="6.26038">
        <ele>294</ele>
        <time>2026-05-17T11:35:13+02:00</time>
      </trkpt>
      <trkpt lat="48.02474" lon="6.26046">
        <ele>293.6006</ele>
        <time>2026-05-17T11:35:14+02:00</time>
      </trkpt>
      <trkpt lat="48.02478" lon="6.26053">
        <ele>293.7998</ele>
        <time>2026-05-17T11:35:15+02:00</time>
      </trkpt>
      <trkpt lat="48.02482" lon="6.26061">
        <ele>295</ele>
        <time>2026-05-17T11:35:16+02:00</time>
      </trkpt>
      <trkpt lat="48.02485" lon="6.26069">
        <ele>295.1006</ele>
        <time>2026-05-17T11:35:17+02:00</time>
      </trkpt>
      <trkpt lat="48.02488" lon="6.26077">
        <ele>296</ele>
        <time>2026-05-17T11:35:18+02:00</time>
      </trkpt>
      <trkpt lat="48.02492" lon="6.26084">
        <ele>296</ele>
        <time>2026-05-17T11:35:19+02:00</time>
      </trkpt>
      <trkpt lat="48.02496" lon="6.26092">
        <ele>296.2002</ele>
        <time>2026-05-17T11:35:20+02:00</time>
      </trkpt>
      <trkpt lat="48.025" lon="6.261">
        <ele>296.2002</ele>
        <time>2026-05-17T11:35:21+02:00</time>
      </trkpt>
      <trkpt lat="48.02503" lon="6.26108">
        <ele>296.2998</ele>
        <time>2026-05-17T11:35:22+02:00</time>
      </trkpt>
      <trkpt lat="48.02507" lon="6.26117">
        <ele>296.2998</ele>
        <time>2026-05-17T11:35:23+02:00</time>
      </trkpt>
      <trkpt lat="48.0251" lon="6.26125">
        <ele>297.2002</ele>
        <time>2026-05-17T11:35:24+02:00</time>
      </trkpt>
      <trkpt lat="48.02514" lon="6.26133">
        <ele>297.4004</ele>
        <time>2026-05-17T11:35:25+02:00</time>
      </trkpt>
      <trkpt lat="48.02518" lon="6.2614">
        <ele>297.6006</ele>
        <time>2026-05-17T11:35:26+02:00</time>
      </trkpt>
      <trkpt lat="48.02522" lon="6.26149">
        <ele>298.5</ele>
        <time>2026-05-17T11:35:27+02:00</time>
      </trkpt>
      <trkpt lat="48.02526" lon="6.26157">
        <ele>298.7002</ele>
        <time>2026-05-17T11:35:28+02:00</time>
      </trkpt>
      <trkpt lat="48.02531" lon="6.26164">
        <ele>299</ele>
        <time>2026-05-17T11:35:29+02:00</time>
      </trkpt>
      <trkpt lat="48.02536" lon="6.2617">
        <ele>299.5</ele>
        <time>2026-05-17T11:35:30+02:00</time>
      </trkpt>
      <trkpt lat="48.02542" lon="6.26176">
        <ele>298.9004</ele>
        <time>2026-05-17T11:35:31+02:00</time>
      </trkpt>
      <trkpt lat="48.02549" lon="6.26179">
        <ele>299.7002</ele>
        <time>2026-05-17T11:35:32+02:00</time>
      </trkpt>
      <trkpt lat="48.02555" lon="6.26181">
        <ele>299.2002</ele>
        <time>2026-05-17T11:35:33+02:00</time>
      </trkpt>
      <trkpt lat="48.02562" lon="6.26183">
        <ele>298.7002</ele>
        <time>2026-05-17T11:35:34+02:00</time>
      </trkpt>
      <trkpt lat="48.02569" lon="6.26182">
        <ele>298.2002</ele>
        <time>2026-05-17T11:35:35+02:00</time>
      </trkpt>
      <trkpt lat="48.02576" lon="6.26182">
        <ele>297.2998</ele>
        <time>2026-05-17T11:35:36+02:00</time>
      </trkpt>
      <trkpt lat="48.02583" lon="6.26181">
        <ele>296.9004</ele>
        <time>2026-05-17T11:35:37+02:00</time>
      </trkpt>
      <trkpt lat="48.02589" lon="6.26179">
        <ele>296.5</ele>
        <time>2026-05-17T11:35:38+02:00</time>
      </trkpt>
      <trkpt lat="48.02596" lon="6.26176">
        <ele>295.1006</ele>
        <time>2026-05-17T11:35:39+02:00</time>
      </trkpt>
      <trkpt lat="48.02602" lon="6.26173">
        <ele>294.7002</ele>
        <time>2026-05-17T11:35:40+02:00</time>
      </trkpt>
      <trkpt lat="48.02608" lon="6.2617">
        <ele>294.2998</ele>
        <time>2026-05-17T11:35:41+02:00</time>
      </trkpt>
      <trkpt lat="48.02615" lon="6.26167">
        <ele>293.4004</ele>
        <time>2026-05-17T11:35:42+02:00</time>
      </trkpt>
      <trkpt lat="48.02621" lon="6.26163">
        <ele>293.2002</ele>
        <time>2026-05-17T11:35:43+02:00</time>
      </trkpt>
      <trkpt lat="48.02628" lon="6.26159">
        <ele>292.6006</ele>
        <time>2026-05-17T11:35:44+02:00</time>
      </trkpt>
      <trkpt lat="48.02634" lon="6.26156">
        <ele>292.5</ele>
        <time>2026-05-17T11:35:45+02:00</time>
      </trkpt>
      <trkpt lat="48.02641" lon="6.26154">
        <ele>292.5</ele>
        <time>2026-05-17T11:35:46+02:00</time>
      </trkpt>
      <trkpt lat="48.02648" lon="6.26151">
        <ele>292.4004</ele>
        <time>2026-05-17T11:35:47+02:00</time>
      </trkpt>
      <trkpt lat="48.02655" lon="6.26149">
        <ele>292.4004</ele>
        <time>2026-05-17T11:35:48+02:00</time>
      </trkpt>
      <trkpt lat="48.02662" lon="6.26146">
        <ele>292.5</ele>
        <time>2026-05-17T11:35:49+02:00</time>
      </trkpt>
      <trkpt lat="48.02669" lon="6.26143">
        <ele>292.4004</ele>
        <time>2026-05-17T11:35:50+02:00</time>
      </trkpt>
      <trkpt lat="48.02675" lon="6.26141">
        <ele>292.5</ele>
        <time>2026-05-17T11:35:51+02:00</time>
      </trkpt>
      <trkpt lat="48.02682" lon="6.26138">
        <ele>292.5</ele>
        <time>2026-05-17T11:35:52+02:00</time>
      </trkpt>
      <trkpt lat="48.02689" lon="6.26136">
        <ele>292.6006</ele>
        <time>2026-05-17T11:35:53+02:00</time>
      </trkpt>
      <trkpt lat="48.02696" lon="6.26133">
        <ele>292.4004</ele>
        <time>2026-05-17T11:35:54+02:00</time>
      </trkpt>
      <trkpt lat="48.02703" lon="6.2613">
        <ele>292.4004</ele>
        <time>2026-05-17T11:35:55+02:00</time>
      </trkpt>
      <trkpt lat="48.0271" lon="6.26128">
        <ele>292.6006</ele>
        <time>2026-05-17T11:35:56+02:00</time>
      </trkpt>
      <trkpt lat="48.02716" lon="6.26125">
        <ele>292.6006</ele>
        <time>2026-05-17T11:35:57+02:00</time>
      </trkpt>
      <trkpt lat="48.02723" lon="6.26123">
        <ele>293</ele>
        <time>2026-05-17T11:35:58+02:00</time>
      </trkpt>
      <trkpt lat="48.0273" lon="6.2612">
        <ele>293.4004</ele>
        <time>2026-05-17T11:35:59+02:00</time>
      </trkpt>
      <trkpt lat="48.02737" lon="6.26117">
        <ele>293.6006</ele>
        <time>2026-05-17T11:36:00+02:00</time>
      </trkpt>
      <trkpt lat="48.02744" lon="6.26114">
        <ele>293.6006</ele>
        <time>2026-05-17T11:36:01+02:00</time>
      </trkpt>
      <trkpt lat="48.02751" lon="6.26112">
        <ele>293.6006</ele>
        <time>2026-05-17T11:36:02+02:00</time>
      </trkpt>
      <trkpt lat="48.02758" lon="6.26109">
        <ele>293.4004</ele>
        <time>2026-05-17T11:36:03+02:00</time>
      </trkpt>
      <trkpt lat="48.02765" lon="6.26106">
        <ele>293.2998</ele>
        <time>2026-05-17T11:36:04+02:00</time>
      </trkpt>
      <trkpt lat="48.02772" lon="6.26103">
        <ele>293.2002</ele>
        <time>2026-05-17T11:36:05+02:00</time>
      </trkpt>
      <trkpt lat="48.02779" lon="6.26101">
        <ele>293</ele>
        <time>2026-05-17T11:36:06+02:00</time>
      </trkpt>
      <trkpt lat="48.02786" lon="6.26098">
        <ele>292.7002</ele>
        <time>2026-05-17T11:36:07+02:00</time>
      </trkpt>
      <trkpt lat="48.02794" lon="6.26096">
        <ele>292</ele>
        <time>2026-05-17T11:36:08+02:00</time>
      </trkpt>
      <trkpt lat="48.02801" lon="6.26094">
        <ele>291.6006</ele>
        <time>2026-05-17T11:36:09+02:00</time>
      </trkpt>
      <trkpt lat="48.02808" lon="6.26093">
        <ele>291.1006</ele>
        <time>2026-05-17T11:36:10+02:00</time>
      </trkpt>
      <trkpt lat="48.02815" lon="6.26091">
        <ele>290.2002</ele>
        <time>2026-05-17T11:36:11+02:00</time>
      </trkpt>
      <trkpt lat="48.02822" lon="6.2609">
        <ele>289.7998</ele>
        <time>2026-05-17T11:36:12+02:00</time>
      </trkpt>
      <trkpt lat="48.02829" lon="6.26088">
        <ele>289</ele>
        <time>2026-05-17T11:36:13+02:00</time>
      </trkpt>
      <trkpt lat="48.02836" lon="6.26087">
        <ele>288.7002</ele>
        <time>2026-05-17T11:36:14+02:00</time>
      </trkpt>
      <trkpt lat="48.02842" lon="6.26086">
        <ele>288.5</ele>
        <time>2026-05-17T11:36:15+02:00</time>
      </trkpt>
      <trkpt lat="48.02849" lon="6.26085">
        <ele>288.2998</ele>
        <time>2026-05-17T11:36:16+02:00</time>
      </trkpt>
      <trkpt lat="48.02856" lon="6.26085">
        <ele>288.2002</ele>
        <time>2026-05-17T11:36:17+02:00</time>
      </trkpt>
      <trkpt lat="48.02862" lon="6.26085">
        <ele>288.2002</ele>
        <time>2026-05-17T11:36:18+02:00</time>
      </trkpt>
      <trkpt lat="48.02868" lon="6.26084">
        <ele>288.4004</ele>
        <time>2026-05-17T11:36:19+02:00</time>
      </trkpt>
      <trkpt lat="48.02875" lon="6.26084">
        <ele>289.6006</ele>
        <time>2026-05-17T11:36:20+02:00</time>
      </trkpt>
      <trkpt lat="48.02881" lon="6.26085">
        <ele>290.4004</ele>
        <time>2026-05-17T11:36:21+02:00</time>
      </trkpt>
      <trkpt lat="48.02887" lon="6.26086">
        <ele>291.2998</ele>
        <time>2026-05-17T11:36:22+02:00</time>
      </trkpt>
      <trkpt lat="48.02894" lon="6.26087">
        <ele>292.2998</ele>
        <time>2026-05-17T11:36:23+02:00</time>
      </trkpt>
      <trkpt lat="48.029" lon="6.26089">
        <ele>293.4004</ele>
        <time>2026-05-17T11:36:24+02:00</time>
      </trkpt>
      <trkpt lat="48.02907" lon="6.26091">
        <ele>294.4004</ele>
        <time>2026-05-17T11:36:25+02:00</time>
      </trkpt>
      <trkpt lat="48.02914" lon="6.26092">
        <ele>296</ele>
        <time>2026-05-17T11:36:26+02:00</time>
      </trkpt>
      <trkpt lat="48.0292" lon="6.26095">
        <ele>296.4004</ele>
        <time>2026-05-17T11:36:27+02:00</time>
      </trkpt>
      <trkpt lat="48.02927" lon="6.26097">
        <ele>296.7998</ele>
        <time>2026-05-17T11:36:28+02:00</time>
      </trkpt>
      <trkpt lat="48.02933" lon="6.26099">
        <ele>297.1006</ele>
        <time>2026-05-17T11:36:29+02:00</time>
      </trkpt>
      <trkpt lat="48.02939" lon="6.26102">
        <ele>298.5</ele>
        <time>2026-05-17T11:36:30+02:00</time>
      </trkpt>
      <trkpt lat="48.02945" lon="6.26105">
        <ele>298.6006</ele>
        <time>2026-05-17T11:36:31+02:00</time>
      </trkpt>
      <trkpt lat="48.02952" lon="6.26108">
        <ele>298.7002</ele>
        <time>2026-05-17T11:36:32+02:00</time>
      </trkpt>
      <trkpt lat="48.02958" lon="6.26111">
        <ele>299.7998</ele>
        <time>2026-05-17T11:36:33+02:00</time>
      </trkpt>
      <trkpt lat="48.02964" lon="6.26115">
        <ele>299.9004</ele>
        <time>2026-05-17T11:36:34+02:00</time>
      </trkpt>
      <trkpt lat="48.0297" lon="6.26119">
        <ele>300.7002</ele>
        <time>2026-05-17T11:36:35+02:00</time>
      </trkpt>
      <trkpt lat="48.02976" lon="6.26123">
        <ele>300.7002</ele>
        <time>2026-05-17T11:36:36+02:00</time>
      </trkpt>
      <trkpt lat="48.02982" lon="6.26127">
        <ele>301.4004</ele>
        <time>2026-05-17T11:36:37+02:00</time>
      </trkpt>
      <trkpt lat="48.02989" lon="6.26131">
        <ele>301.9004</ele>
        <time>2026-05-17T11:36:38+02:00</time>
      </trkpt>
      <trkpt lat="48.02995" lon="6.26136">
        <ele>302.2002</ele>
        <time>2026-05-17T11:36:39+02:00</time>
      </trkpt>
      <trkpt lat="48.03001" lon="6.26142">
        <ele>302.1006</ele>
        <time>2026-05-17T11:36:40+02:00</time>
      </trkpt>
      <trkpt lat="48.03006" lon="6.26147">
        <ele>301.6006</ele>
        <time>2026-05-17T11:36:41+02:00</time>
      </trkpt>
      <trkpt lat="48.03012" lon="6.26151">
        <ele>301.7002</ele>
        <time>2026-05-17T11:36:42+02:00</time>
      </trkpt>
      <trkpt lat="48.03018" lon="6.26156">
        <ele>301.7002</ele>
        <time>2026-05-17T11:36:43+02:00</time>
      </trkpt>
      <trkpt lat="48.03024" lon="6.26162">
        <ele>301.9004</ele>
        <time>2026-05-17T11:36:44+02:00</time>
      </trkpt>
      <trkpt lat="48.0303" lon="6.26167">
        <ele>302</ele>
        <time>2026-05-17T11:36:45+02:00</time>
      </trkpt>
      <trkpt lat="48.03035" lon="6.26172">
        <ele>302</ele>
        <time>2026-05-17T11:36:46+02:00</time>
      </trkpt>
      <trkpt lat="48.03042" lon="6.26178">
        <ele>301.7002</ele>
        <time>2026-05-17T11:36:47+02:00</time>
      </trkpt>
      <trkpt lat="48.03048" lon="6.26183">
        <ele>301.6006</ele>
        <time>2026-05-17T11:36:48+02:00</time>
      </trkpt>
      <trkpt lat="48.03053" lon="6.26188">
        <ele>301.2998</ele>
        <time>2026-05-17T11:36:49+02:00</time>
      </trkpt>
      <trkpt lat="48.0306" lon="6.26193">
        <ele>301.2002</ele>
        <time>2026-05-17T11:36:50+02:00</time>
      </trkpt>
      <trkpt lat="48.03065" lon="6.26199">
        <ele>301.2002</ele>
        <time>2026-05-17T11:36:51+02:00</time>
      </trkpt>
      <trkpt lat="48.03071" lon="6.26204">
        <ele>301</ele>
        <time>2026-05-17T11:36:52+02:00</time>
      </trkpt>
      <trkpt lat="48.03077" lon="6.2621">
        <ele>301.1006</ele>
        <time>2026-05-17T11:36:53+02:00</time>
      </trkpt>
      <trkpt lat="48.03083" lon="6.26215">
        <ele>301.4004</ele>
        <time>2026-05-17T11:36:54+02:00</time>
      </trkpt>
      <trkpt lat="48.03089" lon="6.26221">
        <ele>301.9004</ele>
        <time>2026-05-17T11:36:55+02:00</time>
      </trkpt>
      <trkpt lat="48.03095" lon="6.26226">
        <ele>302.1006</ele>
        <time>2026-05-17T11:36:56+02:00</time>
      </trkpt>
      <trkpt lat="48.031" lon="6.26231">
        <ele>302.1006</ele>
        <time>2026-05-17T11:36:57+02:00</time>
      </trkpt>
      <trkpt lat="48.03105" lon="6.26235">
        <ele>302</ele>
        <time>2026-05-17T11:36:58+02:00</time>
      </trkpt>
      <trkpt lat="48.0311" lon="6.26238">
        <ele>302</ele>
        <time>2026-05-17T11:36:59+02:00</time>
      </trkpt>
      <trkpt lat="48.03116" lon="6.26242">
        <ele>302</ele>
        <time>2026-05-17T11:37:00+02:00</time>
      </trkpt>
      <trkpt lat="48.03121" lon="6.26246">
        <ele>302.2002</ele>
        <time>2026-05-17T11:37:01+02:00</time>
      </trkpt>
      <trkpt lat="48.03126" lon="6.2625">
        <ele>302.2002</ele>
        <time>2026-05-17T11:37:02+02:00</time>
      </trkpt>
      <trkpt lat="48.03131" lon="6.26254">
        <ele>302.4004</ele>
        <time>2026-05-17T11:37:03+02:00</time>
      </trkpt>
      <trkpt lat="48.03137" lon="6.26259">
        <ele>302.6006</ele>
        <time>2026-05-17T11:37:04+02:00</time>
      </trkpt>
      <trkpt lat="48.03142" lon="6.26264">
        <ele>302.7002</ele>
        <time>2026-05-17T11:37:05+02:00</time>
      </trkpt>
      <trkpt lat="48.03147" lon="6.26268">
        <ele>302.7002</ele>
        <time>2026-05-17T11:37:06+02:00</time>
      </trkpt>
      <trkpt lat="48.03152" lon="6.26273">
        <ele>303</ele>
        <time>2026-05-17T11:37:07+02:00</time>
      </trkpt>
      <trkpt lat="48.03158" lon="6.26278">
        <ele>303</ele>
        <time>2026-05-17T11:37:08+02:00</time>
      </trkpt>
      <trkpt lat="48.03163" lon="6.26283">
        <ele>303.7002</ele>
        <time>2026-05-17T11:37:09+02:00</time>
      </trkpt>
      <trkpt lat="48.03167" lon="6.26288">
        <ele>303.7998</ele>
        <time>2026-05-17T11:37:10+02:00</time>
      </trkpt>
      <trkpt lat="48.03173" lon="6.26293">
        <ele>304.9004</ele>
        <time>2026-05-17T11:37:11+02:00</time>
      </trkpt>
      <trkpt lat="48.03178" lon="6.26297">
        <ele>304.9004</ele>
        <time>2026-05-17T11:37:12+02:00</time>
      </trkpt>
      <trkpt lat="48.03183" lon="6.26302">
        <ele>306.5</ele>
        <time>2026-05-17T11:37:13+02:00</time>
      </trkpt>
      <trkpt lat="48.03188" lon="6.26306">
        <ele>307</ele>
        <time>2026-05-17T11:37:14+02:00</time>
      </trkpt>
      <trkpt lat="48.03193" lon="6.26311">
        <ele>308.5</ele>
        <time>2026-05-17T11:37:15+02:00</time>
      </trkpt>
      <trkpt lat="48.03199" lon="6.26315">
        <ele>308.7002</ele>
        <time>2026-05-17T11:37:16+02:00</time>
      </trkpt>
      <trkpt lat="48.03204" lon="6.2632">
        <ele>309.9004</ele>
        <time>2026-05-17T11:37:17+02:00</time>
      </trkpt>
      <trkpt lat="48.03209" lon="6.26324">
        <ele>311.2998</ele>
        <time>2026-05-17T11:37:18+02:00</time>
      </trkpt>
      <trkpt lat="48.03215" lon="6.26329">
        <ele>311.5</ele>
        <time>2026-05-17T11:37:19+02:00</time>
      </trkpt>
      <trkpt lat="48.0322" lon="6.26333">
        <ele>312.7002</ele>
        <time>2026-05-17T11:37:20+02:00</time>
      </trkpt>
      <trkpt lat="48.03226" lon="6.26338">
        <ele>312.1006</ele>
        <time>2026-05-17T11:37:21+02:00</time>
      </trkpt>
      <trkpt lat="48.03232" lon="6.26343">
        <ele>311.9004</ele>
        <time>2026-05-17T11:37:22+02:00</time>
      </trkpt>
      <trkpt lat="48.03237" lon="6.26348">
        <ele>310.7002</ele>
        <time>2026-05-17T11:37:23+02:00</time>
      </trkpt>
      <trkpt lat="48.03243" lon="6.26352">
        <ele>311.2998</ele>
        <time>2026-05-17T11:37:24+02:00</time>
      </trkpt>
      <trkpt lat="48.03248" lon="6.26358">
        <ele>309.9004</ele>
        <time>2026-05-17T11:37:25+02:00</time>
      </trkpt>
      <trkpt lat="48.03254" lon="6.26363">
        <ele>310.2002</ele>
        <time>2026-05-17T11:37:26+02:00</time>
      </trkpt>
      <trkpt lat="48.03259" lon="6.26367">
        <ele>310.2002</ele>
        <time>2026-05-17T11:37:27+02:00</time>
      </trkpt>
      <trkpt lat="48.03265" lon="6.26372">
        <ele>308.6006</ele>
        <time>2026-05-17T11:37:28+02:00</time>
      </trkpt>
      <trkpt lat="48.0327" lon="6.26377">
        <ele>309.2998</ele>
        <time>2026-05-17T11:37:29+02:00</time>
      </trkpt>
      <trkpt lat="48.03276" lon="6.26382">
        <ele>307.4004</ele>
        <time>2026-05-17T11:37:30+02:00</time>
      </trkpt>
      <trkpt lat="48.03282" lon="6.26387">
        <ele>307.5</ele>
        <time>2026-05-17T11:37:31+02:00</time>
      </trkpt>
      <trkpt lat="48.03288" lon="6.26392">
        <ele>304.7002</ele>
        <time>2026-05-17T11:37:32+02:00</time>
      </trkpt>
      <trkpt lat="48.03293" lon="6.26397">
        <ele>307.6006</ele>
        <time>2026-05-17T11:37:33+02:00</time>
      </trkpt>
      <trkpt lat="48.03299" lon="6.26402">
        <ele>308.2002</ele>
        <time>2026-05-17T11:37:34+02:00</time>
      </trkpt>
      <trkpt lat="48.03304" lon="6.26407">
        <ele>308.2002</ele>
        <time>2026-05-17T11:37:35+02:00</time>
      </trkpt>
      <trkpt lat="48.0331" lon="6.26412">
        <ele>310.7002</ele>
        <time>2026-05-17T11:37:36+02:00</time>
      </trkpt>
      <trkpt lat="48.03316" lon="6.26417">
        <ele>309.2002</ele>
        <time>2026-05-17T11:37:37+02:00</time>
      </trkpt>
      <trkpt lat="48.03322" lon="6.26422">
        <ele>309.7998</ele>
        <time>2026-05-17T11:37:38+02:00</time>
      </trkpt>
      <trkpt lat="48.03328" lon="6.26428">
        <ele>309.4004</ele>
        <time>2026-05-17T11:37:39+02:00</time>
      </trkpt>
      <trkpt lat="48.03335" lon="6.26433">
        <ele>307.2002</ele>
        <time>2026-05-17T11:37:40+02:00</time>
      </trkpt>
      <trkpt lat="48.03341" lon="6.26439">
        <ele>307.6006</ele>
        <time>2026-05-17T11:37:41+02:00</time>
      </trkpt>
      <trkpt lat="48.03347" lon="6.26445">
        <ele>307.6006</ele>
        <time>2026-05-17T11:37:42+02:00</time>
      </trkpt>
      <trkpt lat="48.03353" lon="6.2645">
        <ele>305.6006</ele>
        <time>2026-05-17T11:37:43+02:00</time>
      </trkpt>
      <trkpt lat="48.03359" lon="6.26456">
        <ele>305.2998</ele>
        <time>2026-05-17T11:37:44+02:00</time>
      </trkpt>
      <trkpt lat="48.03365" lon="6.26462">
        <ele>306.2002</ele>
        <time>2026-05-17T11:37:45+02:00</time>
      </trkpt>
      <trkpt lat="48.03372" lon="6.26467">
        <ele>304.9004</ele>
        <time>2026-05-17T11:37:46+02:00</time>
      </trkpt>
      <trkpt lat="48.03378" lon="6.26473">
        <ele>306.5</ele>
        <time>2026-05-17T11:37:47+02:00</time>
      </trkpt>
      <trkpt lat="48.03384" lon="6.26478">
        <ele>305.2002</ele>
        <time>2026-05-17T11:37:48+02:00</time>
      </trkpt>
      <trkpt lat="48.0339" lon="6.26483">
        <ele>306</ele>
        <time>2026-05-17T11:37:49+02:00</time>
      </trkpt>
      <trkpt lat="48.03396" lon="6.26489">
        <ele>306.5</ele>
        <time>2026-05-17T11:37:50+02:00</time>
      </trkpt>
      <trkpt lat="48.03401" lon="6.26495">
        <ele>305</ele>
        <time>2026-05-17T11:37:51+02:00</time>
      </trkpt>
      <trkpt lat="48.03407" lon="6.265">
        <ele>305.6006</ele>
        <time>2026-05-17T11:37:52+02:00</time>
      </trkpt>
      <trkpt lat="48.03413" lon="6.26505">
        <ele>305.7998</ele>
        <time>2026-05-17T11:37:53+02:00</time>
      </trkpt>
      <trkpt lat="48.03419" lon="6.2651">
        <ele>304.4004</ele>
        <time>2026-05-17T11:37:54+02:00</time>
      </trkpt>
      <trkpt lat="48.03425" lon="6.26515">
        <ele>304.2002</ele>
        <time>2026-05-17T11:37:55+02:00</time>
      </trkpt>
      <trkpt lat="48.03431" lon="6.2652">
        <ele>300.7998</ele>
        <time>2026-05-17T11:37:56+02:00</time>
      </trkpt>
      <trkpt lat="48.03437" lon="6.26525">
        <ele>301.7998</ele>
        <time>2026-05-17T11:37:57+02:00</time>
      </trkpt>
      <trkpt lat="48.03443" lon="6.2653">
        <ele>303</ele>
        <time>2026-05-17T11:37:58+02:00</time>
      </trkpt>
      <trkpt lat="48.03449" lon="6.26535">
        <ele>302.1006</ele>
        <time>2026-05-17T11:37:59+02:00</time>
      </trkpt>
      <trkpt lat="48.03454" lon="6.2654">
        <ele>302.9004</ele>
        <time>2026-05-17T11:38:00+02:00</time>
      </trkpt>
      <trkpt lat="48.0346" lon="6.26545">
        <ele>301.9004</ele>
        <time>2026-05-17T11:38:01+02:00</time>
      </trkpt>
      <trkpt lat="48.03466" lon="6.2655">
        <ele>302.6006</ele>
        <time>2026-05-17T11:38:02+02:00</time>
      </trkpt>
      <trkpt lat="48.03472" lon="6.26556">
        <ele>303.2002</ele>
        <time>2026-05-17T11:38:03+02:00</time>
      </trkpt>
      <trkpt lat="48.03478" lon="6.26562">
        <ele>302.6006</ele>
        <time>2026-05-17T11:38:04+02:00</time>
      </trkpt>
      <trkpt lat="48.03484" lon="6.26567">
        <ele>303.1006</ele>
        <time>2026-05-17T11:38:05+02:00</time>
      </trkpt>
      <trkpt lat="48.03491" lon="6.26572">
        <ele>302.5</ele>
        <time>2026-05-17T11:38:06+02:00</time>
      </trkpt>
      <trkpt lat="48.03497" lon="6.26577">
        <ele>302.7002</ele>
        <time>2026-05-17T11:38:07+02:00</time>
      </trkpt>
      <trkpt lat="48.03504" lon="6.26582">
        <ele>302.7002</ele>
        <time>2026-05-17T11:38:08+02:00</time>
      </trkpt>
      <trkpt lat="48.0351" lon="6.26586">
        <ele>301.7998</ele>
        <time>2026-05-17T11:38:09+02:00</time>
      </trkpt>
      <trkpt lat="48.03517" lon="6.2659">
        <ele>300.6006</ele>
        <time>2026-05-17T11:38:10+02:00</time>
      </trkpt>
      <trkpt lat="48.03523" lon="6.26593">
        <ele>299.7998</ele>
        <time>2026-05-17T11:38:11+02:00</time>
      </trkpt>
      <trkpt lat="48.0353" lon="6.26596">
        <ele>299.1006</ele>
        <time>2026-05-17T11:38:12+02:00</time>
      </trkpt>
      <trkpt lat="48.03537" lon="6.26597">
        <ele>298.6006</ele>
        <time>2026-05-17T11:38:13+02:00</time>
      </trkpt>
      <trkpt lat="48.03544" lon="6.26597">
        <ele>298.2002</ele>
        <time>2026-05-17T11:38:14+02:00</time>
      </trkpt>
      <trkpt lat="48.03551" lon="6.26596">
        <ele>298</ele>
        <time>2026-05-17T11:38:15+02:00</time>
      </trkpt>
      <trkpt lat="48.03558" lon="6.26593">
        <ele>297.7002</ele>
        <time>2026-05-17T11:38:16+02:00</time>
      </trkpt>
      <trkpt lat="48.03563" lon="6.26588">
        <ele>296.9004</ele>
        <time>2026-05-17T11:38:17+02:00</time>
      </trkpt>
      <trkpt lat="48.03568" lon="6.26581">
        <ele>296.6006</ele>
        <time>2026-05-17T11:38:18+02:00</time>
      </trkpt>
      <trkpt lat="48.03573" lon="6.26574">
        <ele>296.5</ele>
        <time>2026-05-17T11:38:19+02:00</time>
      </trkpt>
      <trkpt lat="48.03578" lon="6.26566">
        <ele>296.4004</ele>
        <time>2026-05-17T11:38:20+02:00</time>
      </trkpt>
      <trkpt lat="48.03582" lon="6.26558">
        <ele>296.4004</ele>
        <time>2026-05-17T11:38:21+02:00</time>
      </trkpt>
      <trkpt lat="48.03587" lon="6.2655">
        <ele>296.2002</ele>
        <time>2026-05-17T11:38:22+02:00</time>
      </trkpt>
      <trkpt lat="48.03591" lon="6.26542">
        <ele>295.7998</ele>
        <time>2026-05-17T11:38:23+02:00</time>
      </trkpt>
      <trkpt lat="48.03596" lon="6.26533">
        <ele>295.5</ele>
        <time>2026-05-17T11:38:24+02:00</time>
      </trkpt>
      <trkpt lat="48.036" lon="6.26524">
        <ele>295.4004</ele>
        <time>2026-05-17T11:38:25+02:00</time>
      </trkpt>
      <trkpt lat="48.03604" lon="6.26516">
        <ele>295.5</ele>
        <time>2026-05-17T11:38:26+02:00</time>
      </trkpt>
      <trkpt lat="48.03608" lon="6.26507">
        <ele>295.4004</ele>
        <time>2026-05-17T11:38:27+02:00</time>
      </trkpt>
      <trkpt lat="48.03613" lon="6.26499">
        <ele>295.4004</ele>
        <time>2026-05-17T11:38:28+02:00</time>
      </trkpt>
      <trkpt lat="48.03617" lon="6.26491">
        <ele>295.2998</ele>
        <time>2026-05-17T11:38:29+02:00</time>
      </trkpt>
      <trkpt lat="48.03622" lon="6.26483">
        <ele>295.2998</ele>
        <time>2026-05-17T11:38:30+02:00</time>
      </trkpt>
      <trkpt lat="48.03626" lon="6.26475">
        <ele>295.6006</ele>
        <time>2026-05-17T11:38:31+02:00</time>
      </trkpt>
      <trkpt lat="48.03631" lon="6.26467">
        <ele>295.7002</ele>
        <time>2026-05-17T11:38:32+02:00</time>
      </trkpt>
      <trkpt lat="48.03635" lon="6.2646">
        <ele>295.6006</ele>
        <time>2026-05-17T11:38:33+02:00</time>
      </trkpt>
      <trkpt lat="48.0364" lon="6.26453">
        <ele>295.5</ele>
        <time>2026-05-17T11:38:34+02:00</time>
      </trkpt>
      <trkpt lat="48.03644" lon="6.26446">
        <ele>295.2002</ele>
        <time>2026-05-17T11:38:35+02:00</time>
      </trkpt>
      <trkpt lat="48.03649" lon="6.26438">
        <ele>295</ele>
        <time>2026-05-17T11:38:36+02:00</time>
      </trkpt>
      <trkpt lat="48.03653" lon="6.2643">
        <ele>295.2002</ele>
        <time>2026-05-17T11:38:37+02:00</time>
      </trkpt>
      <trkpt lat="48.03657" lon="6.26423">
        <ele>295.4004</ele>
        <time>2026-05-17T11:38:38+02:00</time>
      </trkpt>
      <trkpt lat="48.03661" lon="6.26416">
        <ele>295.5</ele>
        <time>2026-05-17T11:38:39+02:00</time>
      </trkpt>
      <trkpt lat="48.03666" lon="6.26408">
        <ele>295.4004</ele>
        <time>2026-05-17T11:38:40+02:00</time>
      </trkpt>
      <trkpt lat="48.0367" lon="6.26401">
        <ele>295.4004</ele>
        <time>2026-05-17T11:38:41+02:00</time>
      </trkpt>
      <trkpt lat="48.03675" lon="6.26394">
        <ele>295.2998</ele>
        <time>2026-05-17T11:38:42+02:00</time>
      </trkpt>
      <trkpt lat="48.03679" lon="6.26386">
        <ele>295.4004</ele>
        <time>2026-05-17T11:38:43+02:00</time>
      </trkpt>
      <trkpt lat="48.03684" lon="6.26378">
        <ele>295.5</ele>
        <time>2026-05-17T11:38:44+02:00</time>
      </trkpt>
      <trkpt lat="48.03688" lon="6.26371">
        <ele>295.6006</ele>
        <time>2026-05-17T11:38:45+02:00</time>
      </trkpt>
      <trkpt lat="48.03692" lon="6.26363">
        <ele>295.6006</ele>
        <time>2026-05-17T11:38:46+02:00</time>
      </trkpt>
      <trkpt lat="48.03697" lon="6.26355">
        <ele>295.5</ele>
        <time>2026-05-17T11:38:47+02:00</time>
      </trkpt>
      <trkpt lat="48.03701" lon="6.26347">
        <ele>295.6006</ele>
        <time>2026-05-17T11:38:48+02:00</time>
      </trkpt>
      <trkpt lat="48.03706" lon="6.26339">
        <ele>295.7998</ele>
        <time>2026-05-17T11:38:49+02:00</time>
      </trkpt>
      <trkpt lat="48.0371" lon="6.26332">
        <ele>295.7998</ele>
        <time>2026-05-17T11:38:50+02:00</time>
      </trkpt>
      <trkpt lat="48.03715" lon="6.26324">
        <ele>295.4004</ele>
        <time>2026-05-17T11:38:51+02:00</time>
      </trkpt>
      <trkpt lat="48.03719" lon="6.26316">
        <ele>295.2002</ele>
        <time>2026-05-17T11:38:52+02:00</time>
      </trkpt>
      <trkpt lat="48.03723" lon="6.26309">
        <ele>295.6006</ele>
        <time>2026-05-17T11:38:53+02:00</time>
      </trkpt>
      <trkpt lat="48.03727" lon="6.26301">
        <ele>295.7998</ele>
        <time>2026-05-17T11:38:54+02:00</time>
      </trkpt>
      <trkpt lat="48.03731" lon="6.26293">
        <ele>296.1006</ele>
        <time>2026-05-17T11:38:55+02:00</time>
      </trkpt>
      <trkpt lat="48.03735" lon="6.26286">
        <ele>296</ele>
        <time>2026-05-17T11:38:56+02:00</time>
      </trkpt>
      <trkpt lat="48.0374" lon="6.26278">
        <ele>296</ele>
        <time>2026-05-17T11:38:57+02:00</time>
      </trkpt>
      <trkpt lat="48.03744" lon="6.2627">
        <ele>295.6006</ele>
        <time>2026-05-17T11:38:58+02:00</time>
      </trkpt>
      <trkpt lat="48.03748" lon="6.26263">
        <ele>295.7998</ele>
        <time>2026-05-17T11:38:59+02:00</time>
      </trkpt>
      <trkpt lat="48.03753" lon="6.26255">
        <ele>296.1006</ele>
        <time>2026-05-17T11:39:00+02:00</time>
      </trkpt>
      <trkpt lat="48.03757" lon="6.26248">
        <ele>296.1006</ele>
        <time>2026-05-17T11:39:01+02:00</time>
      </trkpt>
      <trkpt lat="48.03761" lon="6.26241">
        <ele>295.7998</ele>
        <time>2026-05-17T11:39:02+02:00</time>
      </trkpt>
      <trkpt lat="48.03766" lon="6.26233">
        <ele>295.2002</ele>
        <time>2026-05-17T11:39:03+02:00</time>
      </trkpt>
      <trkpt lat="48.0377" lon="6.26226">
        <ele>295.1006</ele>
        <time>2026-05-17T11:39:04+02:00</time>
      </trkpt>
      <trkpt lat="48.03774" lon="6.26218">
        <ele>295.2002</ele>
        <time>2026-05-17T11:39:05+02:00</time>
      </trkpt>
      <trkpt lat="48.03778" lon="6.26211">
        <ele>295.2002</ele>
        <time>2026-05-17T11:39:06+02:00</time>
      </trkpt>
      <trkpt lat="48.03781" lon="6.26205">
        <ele>295.2002</ele>
        <time>2026-05-17T11:39:07+02:00</time>
      </trkpt>
      <trkpt lat="48.03784" lon="6.26199">
        <ele>295</ele>
        <time>2026-05-17T11:39:08+02:00</time>
      </trkpt>
      <trkpt lat="48.03787" lon="6.26193">
        <ele>295</ele>
        <time>2026-05-17T11:39:09+02:00</time>
      </trkpt>
      <trkpt lat="48.03789" lon="6.26187">
        <ele>295</ele>
        <time>2026-05-17T11:39:10+02:00</time>
      </trkpt>
      <trkpt lat="48.03792" lon="6.26182">
        <ele>295.2002</ele>
        <time>2026-05-17T11:39:11+02:00</time>
      </trkpt>
      <trkpt lat="48.03795" lon="6.26175">
        <ele>295.4004</ele>
        <time>2026-05-17T11:39:12+02:00</time>
      </trkpt>
      <trkpt lat="48.03798" lon="6.26169">
        <ele>295.6006</ele>
        <time>2026-05-17T11:39:13+02:00</time>
      </trkpt>
      <trkpt lat="48.03802" lon="6.26162">
        <ele>295.2998</ele>
        <time>2026-05-17T11:39:14+02:00</time>
      </trkpt>
      <trkpt lat="48.03805" lon="6.26157">
        <ele>295.2002</ele>
        <time>2026-05-17T11:39:15+02:00</time>
      </trkpt>
      <trkpt lat="48.03808" lon="6.26153">
        <ele>295.2002</ele>
        <time>2026-05-17T11:39:16+02:00</time>
      </trkpt>
      <trkpt lat="48.0381" lon="6.2615">
        <ele>295.2998</ele>
        <time>2026-05-17T11:39:17+02:00</time>
      </trkpt>
      <trkpt lat="48.03811" lon="6.26147">
        <ele>295.2998</ele>
        <time>2026-05-17T11:39:18+02:00</time>
      </trkpt>
      <trkpt lat="48.03813" lon="6.26146">
        <ele>295.2998</ele>
        <time>2026-05-17T11:39:19+02:00</time>
      </trkpt>
      <trkpt lat="48.03813" lon="6.26145">
        <ele>295.2998</ele>
        <time>2026-05-17T11:39:20+02:00</time>
      </trkpt>
      <trkpt lat="48.03813" lon="6.26145">
        <ele>295.2998</ele>
        <time>2026-05-17T11:39:21+02:00</time>
      </trkpt>
      <trkpt lat="48.03813" lon="6.26145">
        <ele>295.2998</ele>
        <time>2026-05-17T11:39:22+02:00</time>
      </trkpt>
      <trkpt lat="48.03813" lon="6.26145">
        <ele>295.2998</ele>
        <time>2026-05-17T11:39:23+02:00</time>
      </trkpt>
      <trkpt lat="48.03821" lon="6.26128">
        <ele>295.2998</ele>
        <time>2026-05-17T11:51:17+02:00</time>
      </trkpt>
      <trkpt lat="48.03822" lon="6.26126">
        <ele>295.4004</ele>
        <time>2026-05-17T11:51:18+02:00</time>
      </trkpt>
      <trkpt lat="48.03824" lon="6.26124">
        <ele>295.4004</ele>
        <time>2026-05-17T11:51:19+02:00</time>
      </trkpt>
      <trkpt lat="48.03826" lon="6.2612">
        <ele>295.4004</ele>
        <time>2026-05-17T11:51:20+02:00</time>
      </trkpt>
      <trkpt lat="48.03828" lon="6.26117">
        <ele>295.5</ele>
        <time>2026-05-17T11:51:21+02:00</time>
      </trkpt>
      <trkpt lat="48.0383" lon="6.26113">
        <ele>295.5</ele>
        <time>2026-05-17T11:51:22+02:00</time>
      </trkpt>
      <trkpt lat="48.03832" lon="6.26109">
        <ele>295.7002</ele>
        <time>2026-05-17T11:51:23+02:00</time>
      </trkpt>
      <trkpt lat="48.03834" lon="6.26105">
        <ele>295.6006</ele>
        <time>2026-05-17T11:51:24+02:00</time>
      </trkpt>
      <trkpt lat="48.03836" lon="6.26101">
        <ele>295.6006</ele>
        <time>2026-05-17T11:51:25+02:00</time>
      </trkpt>
      <trkpt lat="48.03838" lon="6.26097">
        <ele>295.7002</ele>
        <time>2026-05-17T11:51:26+02:00</time>
      </trkpt>
      <trkpt lat="48.0384" lon="6.26093">
        <ele>295.5</ele>
        <time>2026-05-17T11:51:27+02:00</time>
      </trkpt>
      <trkpt lat="48.03842" lon="6.26089">
        <ele>295.6006</ele>
        <time>2026-05-17T11:51:28+02:00</time>
      </trkpt>
      <trkpt lat="48.03845" lon="6.26085">
        <ele>295.4004</ele>
        <time>2026-05-17T11:51:29+02:00</time>
      </trkpt>
      <trkpt lat="48.03848" lon="6.2608">
        <ele>295.5</ele>
        <time>2026-05-17T11:51:30+02:00</time>
      </trkpt>
      <trkpt lat="48.03851" lon="6.26075">
        <ele>295.4004</ele>
        <time>2026-05-17T11:51:31+02:00</time>
      </trkpt>
      <trkpt lat="48.03854" lon="6.26069">
        <ele>295.6006</ele>
        <time>2026-05-17T11:51:32+02:00</time>
      </trkpt>
      <trkpt lat="48.03857" lon="6.26064">
        <ele>295.9004</ele>
        <time>2026-05-17T11:51:33+02:00</time>
      </trkpt>
      <trkpt lat="48.03861" lon="6.26058">
        <ele>295.9004</ele>
        <time>2026-05-17T11:51:34+02:00</time>
      </trkpt>
      <trkpt lat="48.03864" lon="6.26051">
        <ele>296.1006</ele>
        <time>2026-05-17T11:51:35+02:00</time>
      </trkpt>
      <trkpt lat="48.03868" lon="6.26045">
        <ele>295.9004</ele>
        <time>2026-05-17T11:51:36+02:00</time>
      </trkpt>
      <trkpt lat="48.03871" lon="6.26039">
        <ele>295.9004</ele>
        <time>2026-05-17T11:51:37+02:00</time>
      </trkpt>
      <trkpt lat="48.03875" lon="6.26032">
        <ele>295.7002</ele>
        <time>2026-05-17T11:51:38+02:00</time>
      </trkpt>
      <trkpt lat="48.03879" lon="6.26026">
        <ele>295.7002</ele>
        <time>2026-05-17T11:51:39+02:00</time>
      </trkpt>
      <trkpt lat="48.03882" lon="6.2602">
        <ele>295.9004</ele>
        <time>2026-05-17T11:51:40+02:00</time>
      </trkpt>
      <trkpt lat="48.03885" lon="6.26013">
        <ele>296.2002</ele>
        <time>2026-05-17T11:51:41+02:00</time>
      </trkpt>
      <trkpt lat="48.03889" lon="6.26007">
        <ele>296.2002</ele>
        <time>2026-05-17T11:51:42+02:00</time>
      </trkpt>
      <trkpt lat="48.03892" lon="6.26001">
        <ele>296.1006</ele>
        <time>2026-05-17T11:51:43+02:00</time>
      </trkpt>
      <trkpt lat="48.03895" lon="6.25995">
        <ele>296</ele>
        <time>2026-05-17T11:51:44+02:00</time>
      </trkpt>
      <trkpt lat="48.03898" lon="6.2599">
        <ele>295.9004</ele>
        <time>2026-05-17T11:51:45+02:00</time>
      </trkpt>
      <trkpt lat="48.03901" lon="6.25984">
        <ele>295.7002</ele>
        <time>2026-05-17T11:51:46+02:00</time>
      </trkpt>
      <trkpt lat="48.03904" lon="6.25978">
        <ele>295.6006</ele>
        <time>2026-05-17T11:51:47+02:00</time>
      </trkpt>
      <trkpt lat="48.03908" lon="6.25973">
        <ele>296.1006</ele>
        <time>2026-05-17T11:51:48+02:00</time>
      </trkpt>
      <trkpt lat="48.03911" lon="6.25967">
        <ele>296.1006</ele>
        <time>2026-05-17T11:51:49+02:00</time>
      </trkpt>
      <trkpt lat="48.03914" lon="6.25961">
        <ele>296.6006</ele>
        <time>2026-05-17T11:51:50+02:00</time>
      </trkpt>
      <trkpt lat="48.03917" lon="6.25955">
        <ele>296.6006</ele>
        <time>2026-05-17T11:51:51+02:00</time>
      </trkpt>
      <trkpt lat="48.0392" lon="6.2595">
        <ele>296.9004</ele>
        <time>2026-05-17T11:51:52+02:00</time>
      </trkpt>
      <trkpt lat="48.03923" lon="6.25943">
        <ele>296.7998</ele>
        <time>2026-05-17T11:51:53+02:00</time>
      </trkpt>
      <trkpt lat="48.03927" lon="6.25938">
        <ele>297</ele>
        <time>2026-05-17T11:51:54+02:00</time>
      </trkpt>
      <trkpt lat="48.0393" lon="6.25932">
        <ele>296.7998</ele>
        <time>2026-05-17T11:51:55+02:00</time>
      </trkpt>
      <trkpt lat="48.03933" lon="6.25926">
        <ele>296.9004</ele>
        <time>2026-05-17T11:51:56+02:00</time>
      </trkpt>
      <trkpt lat="48.03937" lon="6.2592">
        <ele>297</ele>
        <time>2026-05-17T11:51:57+02:00</time>
      </trkpt>
      <trkpt lat="48.0394" lon="6.25913">
        <ele>297</ele>
        <time>2026-05-17T11:51:58+02:00</time>
      </trkpt>
      <trkpt lat="48.03944" lon="6.25907">
        <ele>297.5</ele>
        <time>2026-05-17T11:51:59+02:00</time>
      </trkpt>
      <trkpt lat="48.03948" lon="6.25901">
        <ele>298.1006</ele>
        <time>2026-05-17T11:52:00+02:00</time>
      </trkpt>
      <trkpt lat="48.03951" lon="6.25895">
        <ele>298.1006</ele>
        <time>2026-05-17T11:52:01+02:00</time>
      </trkpt>
      <trkpt lat="48.03954" lon="6.25888">
        <ele>298.5</ele>
        <time>2026-05-17T11:52:02+02:00</time>
      </trkpt>
      <trkpt lat="48.03958" lon="6.25882">
        <ele>298.2002</ele>
        <time>2026-05-17T11:52:03+02:00</time>
      </trkpt>
      <trkpt lat="48.03962" lon="6.25875">
        <ele>298.2002</ele>
        <time>2026-05-17T11:52:04+02:00</time>
      </trkpt>
      <trkpt lat="48.03966" lon="6.25869">
        <ele>298.7002</ele>
        <time>2026-05-17T11:52:05+02:00</time>
      </trkpt>
      <trkpt lat="48.0397" lon="6.25862">
        <ele>298.2002</ele>
        <time>2026-05-17T11:52:06+02:00</time>
      </trkpt>
      <trkpt lat="48.03974" lon="6.25856">
        <ele>298.2998</ele>
        <time>2026-05-17T11:52:07+02:00</time>
      </trkpt>
      <trkpt lat="48.03979" lon="6.25851">
        <ele>298.4004</ele>
        <time>2026-05-17T11:52:08+02:00</time>
      </trkpt>
      <trkpt lat="48.03983" lon="6.25845">
        <ele>299</ele>
        <time>2026-05-17T11:52:09+02:00</time>
      </trkpt>
      <trkpt lat="48.03988" lon="6.2584">
        <ele>299</ele>
        <time>2026-05-17T11:52:10+02:00</time>
      </trkpt>
      <trkpt lat="48.03993" lon="6.25835">
        <ele>299</ele>
        <time>2026-05-17T11:52:11+02:00</time>
      </trkpt>
      <trkpt lat="48.03998" lon="6.25831">
        <ele>299</ele>
        <time>2026-05-17T11:52:12+02:00</time>
      </trkpt>
      <trkpt lat="48.04003" lon="6.25827">
        <ele>299.6006</ele>
        <time>2026-05-17T11:52:13+02:00</time>
      </trkpt>
      <trkpt lat="48.04008" lon="6.25823">
        <ele>299.4004</ele>
        <time>2026-05-17T11:52:14+02:00</time>
      </trkpt>
      <trkpt lat="48.04013" lon="6.2582">
        <ele>299.7998</ele>
        <time>2026-05-17T11:52:15+02:00</time>
      </trkpt>
      <trkpt lat="48.04019" lon="6.25816">
        <ele>299.2002</ele>
        <time>2026-05-17T11:52:16+02:00</time>
      </trkpt>
      <trkpt lat="48.04024" lon="6.25813">
        <ele>299.4004</ele>
        <time>2026-05-17T11:52:17+02:00</time>
      </trkpt>
      <trkpt lat="48.0403" lon="6.25811">
        <ele>299.7002</ele>
        <time>2026-05-17T11:52:18+02:00</time>
      </trkpt>
      <trkpt lat="48.04035" lon="6.25809">
        <ele>299.9004</ele>
        <time>2026-05-17T11:52:19+02:00</time>
      </trkpt>
      <trkpt lat="48.04041" lon="6.25807">
        <ele>298.9004</ele>
        <time>2026-05-17T11:52:20+02:00</time>
      </trkpt>
      <trkpt lat="48.04046" lon="6.25806">
        <ele>299</ele>
        <time>2026-05-17T11:52:21+02:00</time>
      </trkpt>
      <trkpt lat="48.04052" lon="6.25805">
        <ele>299.1006</ele>
        <time>2026-05-17T11:52:22+02:00</time>
      </trkpt>
      <trkpt lat="48.04057" lon="6.25804">
        <ele>299.2002</ele>
        <time>2026-05-17T11:52:23+02:00</time>
      </trkpt>
      <trkpt lat="48.04063" lon="6.25804">
        <ele>299.2998</ele>
        <time>2026-05-17T11:52:24+02:00</time>
      </trkpt>
      <trkpt lat="48.04069" lon="6.25804">
        <ele>299.4004</ele>
        <time>2026-05-17T11:52:25+02:00</time>
      </trkpt>
      <trkpt lat="48.04075" lon="6.25805">
        <ele>299.5</ele>
        <time>2026-05-17T11:52:26+02:00</time>
      </trkpt>
      <trkpt lat="48.04081" lon="6.25805">
        <ele>299.6006</ele>
        <time>2026-05-17T11:52:27+02:00</time>
      </trkpt>
      <trkpt lat="48.04086" lon="6.25806">
        <ele>299.6006</ele>
        <time>2026-05-17T11:52:28+02:00</time>
      </trkpt>
      <trkpt lat="48.04093" lon="6.25807">
        <ele>299.6006</ele>
        <time>2026-05-17T11:52:29+02:00</time>
      </trkpt>
      <trkpt lat="48.04098" lon="6.25808">
        <ele>299.6006</ele>
        <time>2026-05-17T11:52:30+02:00</time>
      </trkpt>
      <trkpt lat="48.04104" lon="6.25809">
        <ele>301</ele>
        <time>2026-05-17T11:52:31+02:00</time>
      </trkpt>
      <trkpt lat="48.0411" lon="6.2581">
        <ele>300.9004</ele>
        <time>2026-05-17T11:52:32+02:00</time>
      </trkpt>
      <trkpt lat="48.04117" lon="6.25811">
        <ele>300.7998</ele>
        <time>2026-05-17T11:52:33+02:00</time>
      </trkpt>
      <trkpt lat="48.04122" lon="6.25812">
        <ele>300.7002</ele>
        <time>2026-05-17T11:52:34+02:00</time>
      </trkpt>
      <trkpt lat="48.04128" lon="6.25813">
        <ele>300.7002</ele>
        <time>2026-05-17T11:52:35+02:00</time>
      </trkpt>
      <trkpt lat="48.04134" lon="6.25815">
        <ele>300.5</ele>
        <time>2026-05-17T11:52:36+02:00</time>
      </trkpt>
      <trkpt lat="48.0414" lon="6.25817">
        <ele>300.4004</ele>
        <time>2026-05-17T11:52:37+02:00</time>
      </trkpt>
      <trkpt lat="48.04146" lon="6.25818">
        <ele>301.2998</ele>
        <time>2026-05-17T11:52:38+02:00</time>
      </trkpt>
      <trkpt lat="48.04151" lon="6.2582">
        <ele>301.1006</ele>
        <time>2026-05-17T11:52:39+02:00</time>
      </trkpt>
      <trkpt lat="48.04157" lon="6.25823">
        <ele>300.9004</ele>
        <time>2026-05-17T11:52:40+02:00</time>
      </trkpt>
      <trkpt lat="48.04163" lon="6.25826">
        <ele>301.5</ele>
        <time>2026-05-17T11:52:41+02:00</time>
      </trkpt>
      <trkpt lat="48.04168" lon="6.25829">
        <ele>301.2002</ele>
        <time>2026-05-17T11:52:42+02:00</time>
      </trkpt>
      <trkpt lat="48.04173" lon="6.25833">
        <ele>300.7998</ele>
        <time>2026-05-17T11:52:43+02:00</time>
      </trkpt>
      <trkpt lat="48.04179" lon="6.25837">
        <ele>301.7002</ele>
        <time>2026-05-17T11:52:44+02:00</time>
      </trkpt>
      <trkpt lat="48.04184" lon="6.25841">
        <ele>301.4004</ele>
        <time>2026-05-17T11:52:45+02:00</time>
      </trkpt>
      <trkpt lat="48.04189" lon="6.25846">
        <ele>302.5</ele>
        <time>2026-05-17T11:52:46+02:00</time>
      </trkpt>
      <trkpt lat="48.04194" lon="6.25852">
        <ele>303.7998</ele>
        <time>2026-05-17T11:52:47+02:00</time>
      </trkpt>
      <trkpt lat="48.042" lon="6.25857">
        <ele>303</ele>
        <time>2026-05-17T11:52:48+02:00</time>
      </trkpt>
      <trkpt lat="48.04205" lon="6.25862">
        <ele>304.1006</ele>
        <time>2026-05-17T11:52:49+02:00</time>
      </trkpt>
      <trkpt lat="48.0421" lon="6.25868">
        <ele>303.5</ele>
        <time>2026-05-17T11:52:50+02:00</time>
      </trkpt>
      <trkpt lat="48.04215" lon="6.25873">
        <ele>304.1006</ele>
        <time>2026-05-17T11:52:51+02:00</time>
      </trkpt>
      <trkpt lat="48.0422" lon="6.25879">
        <ele>304.9004</ele>
        <time>2026-05-17T11:52:52+02:00</time>
      </trkpt>
      <trkpt lat="48.04224" lon="6.25885">
        <ele>304.4004</ele>
        <time>2026-05-17T11:52:53+02:00</time>
      </trkpt>
      <trkpt lat="48.04229" lon="6.2589">
        <ele>305.2998</ele>
        <time>2026-05-17T11:52:54+02:00</time>
      </trkpt>
      <trkpt lat="48.04234" lon="6.25895">
        <ele>306.6006</ele>
        <time>2026-05-17T11:52:55+02:00</time>
      </trkpt>
      <trkpt lat="48.04239" lon="6.259">
        <ele>305.9004</ele>
        <time>2026-05-17T11:52:56+02:00</time>
      </trkpt>
      <trkpt lat="48.04244" lon="6.25906">
        <ele>306.2998</ele>
        <time>2026-05-17T11:52:57+02:00</time>
      </trkpt>
      <trkpt lat="48.04249" lon="6.25911">
        <ele>305.4004</ele>
        <time>2026-05-17T11:52:58+02:00</time>
      </trkpt>
      <trkpt lat="48.04254" lon="6.25916">
        <ele>305.7002</ele>
        <time>2026-05-17T11:52:59+02:00</time>
      </trkpt>
      <trkpt lat="48.04259" lon="6.25922">
        <ele>305.9004</ele>
        <time>2026-05-17T11:53:00+02:00</time>
      </trkpt>
      <trkpt lat="48.04264" lon="6.25927">
        <ele>305</ele>
        <time>2026-05-17T11:53:01+02:00</time>
      </trkpt>
      <trkpt lat="48.04269" lon="6.25933">
        <ele>305</ele>
        <time>2026-05-17T11:53:02+02:00</time>
      </trkpt>
      <trkpt lat="48.04274" lon="6.25938">
        <ele>306</ele>
        <time>2026-05-17T11:53:03+02:00</time>
      </trkpt>
      <trkpt lat="48.04279" lon="6.25943">
        <ele>305.1006</ele>
        <time>2026-05-17T11:53:04+02:00</time>
      </trkpt>
      <trkpt lat="48.04283" lon="6.25948">
        <ele>305.2002</ele>
        <time>2026-05-17T11:53:05+02:00</time>
      </trkpt>
      <trkpt lat="48.04288" lon="6.25954">
        <ele>304.2998</ele>
        <time>2026-05-17T11:53:06+02:00</time>
      </trkpt>
      <trkpt lat="48.04293" lon="6.25959">
        <ele>304.2998</ele>
        <time>2026-05-17T11:53:07+02:00</time>
      </trkpt>
      <trkpt lat="48.04298" lon="6.25964">
        <ele>304.1006</ele>
        <time>2026-05-17T11:53:08+02:00</time>
      </trkpt>
      <trkpt lat="48.04302" lon="6.25969">
        <ele>304.1006</ele>
        <time>2026-05-17T11:53:09+02:00</time>
      </trkpt>
      <trkpt lat="48.04307" lon="6.25974">
        <ele>304.2002</ele>
        <time>2026-05-17T11:53:10+02:00</time>
      </trkpt>
      <trkpt lat="48.04311" lon="6.25978">
        <ele>303.2998</ele>
        <time>2026-05-17T11:53:11+02:00</time>
      </trkpt>
      <trkpt lat="48.04315" lon="6.25983">
        <ele>303.2002</ele>
        <time>2026-05-17T11:53:12+02:00</time>
      </trkpt>
      <trkpt lat="48.0432" lon="6.25988">
        <ele>302.2002</ele>
        <time>2026-05-17T11:53:13+02:00</time>
      </trkpt>
      <trkpt lat="48.04324" lon="6.25993">
        <ele>302.9004</ele>
        <time>2026-05-17T11:53:14+02:00</time>
      </trkpt>
      <trkpt lat="48.04329" lon="6.25997">
        <ele>302</ele>
        <time>2026-05-17T11:53:15+02:00</time>
      </trkpt>
      <trkpt lat="48.04333" lon="6.26002">
        <ele>301.7002</ele>
        <time>2026-05-17T11:53:16+02:00</time>
      </trkpt>
      <trkpt lat="48.04338" lon="6.26007">
        <ele>301.4004</ele>
        <time>2026-05-17T11:53:17+02:00</time>
      </trkpt>
      <trkpt lat="48.04342" lon="6.26012">
        <ele>301.4004</ele>
        <time>2026-05-17T11:53:18+02:00</time>
      </trkpt>
      <trkpt lat="48.04347" lon="6.26017">
        <ele>301</ele>
        <time>2026-05-17T11:53:19+02:00</time>
      </trkpt>
      <trkpt lat="48.04352" lon="6.26023">
        <ele>300.1006</ele>
        <time>2026-05-17T11:53:20+02:00</time>
      </trkpt>
      <trkpt lat="48.04356" lon="6.26028">
        <ele>299.5</ele>
        <time>2026-05-17T11:53:21+02:00</time>
      </trkpt>
      <trkpt lat="48.0436" lon="6.26033">
        <ele>300</ele>
        <time>2026-05-17T11:53:22+02:00</time>
      </trkpt>
      <trkpt lat="48.04365" lon="6.26039">
        <ele>299</ele>
        <time>2026-05-17T11:53:23+02:00</time>
      </trkpt>
      <trkpt lat="48.04369" lon="6.26046">
        <ele>298.7998</ele>
        <time>2026-05-17T11:53:24+02:00</time>
      </trkpt>
      <trkpt lat="48.04373" lon="6.26052">
        <ele>298.7998</ele>
        <time>2026-05-17T11:53:25+02:00</time>
      </trkpt>
      <trkpt lat="48.04377" lon="6.26059">
        <ele>299.4004</ele>
        <time>2026-05-17T11:53:26+02:00</time>
      </trkpt>
      <trkpt lat="48.04381" lon="6.26065">
        <ele>298.7002</ele>
        <time>2026-05-17T11:53:27+02:00</time>
      </trkpt>
      <trkpt lat="48.04385" lon="6.26073">
        <ele>298.6006</ele>
        <time>2026-05-17T11:53:28+02:00</time>
      </trkpt>
      <trkpt lat="48.04388" lon="6.2608">
        <ele>299.1006</ele>
        <time>2026-05-17T11:53:29+02:00</time>
      </trkpt>
      <trkpt lat="48.04392" lon="6.26087">
        <ele>299.2002</ele>
        <time>2026-05-17T11:53:30+02:00</time>
      </trkpt>
      <trkpt lat="48.04395" lon="6.26095">
        <ele>299.1006</ele>
        <time>2026-05-17T11:53:31+02:00</time>
      </trkpt>
      <trkpt lat="48.04398" lon="6.26103">
        <ele>299.2002</ele>
        <time>2026-05-17T11:53:32+02:00</time>
      </trkpt>
      <trkpt lat="48.044" lon="6.26111">
        <ele>299.2002</ele>
        <time>2026-05-17T11:53:33+02:00</time>
      </trkpt>
      <trkpt lat="48.04403" lon="6.26119">
        <ele>298.6006</ele>
        <time>2026-05-17T11:53:34+02:00</time>
      </trkpt>
      <trkpt lat="48.04406" lon="6.26127">
        <ele>298.7998</ele>
        <time>2026-05-17T11:53:35+02:00</time>
      </trkpt>
      <trkpt lat="48.04408" lon="6.26136">
        <ele>298.2002</ele>
        <time>2026-05-17T11:53:36+02:00</time>
      </trkpt>
      <trkpt lat="48.0441" lon="6.26144">
        <ele>298.4004</ele>
        <time>2026-05-17T11:53:37+02:00</time>
      </trkpt>
      <trkpt lat="48.04411" lon="6.26152">
        <ele>298.4004</ele>
        <time>2026-05-17T11:53:38+02:00</time>
      </trkpt>
      <trkpt lat="48.04413" lon="6.2616">
        <ele>297.9004</ele>
        <time>2026-05-17T11:53:39+02:00</time>
      </trkpt>
      <trkpt lat="48.04414" lon="6.26169">
        <ele>298.2002</ele>
        <time>2026-05-17T11:53:40+02:00</time>
      </trkpt>
      <trkpt lat="48.04416" lon="6.26178">
        <ele>299.7002</ele>
        <time>2026-05-17T11:53:41+02:00</time>
      </trkpt>
      <trkpt lat="48.04417" lon="6.26186">
        <ele>299.7002</ele>
        <time>2026-05-17T11:53:42+02:00</time>
      </trkpt>
      <trkpt lat="48.04418" lon="6.26195">
        <ele>300.1006</ele>
        <time>2026-05-17T11:53:43+02:00</time>
      </trkpt>
      <trkpt lat="48.04419" lon="6.26204">
        <ele>300.1006</ele>
        <time>2026-05-17T11:53:44+02:00</time>
      </trkpt>
      <trkpt lat="48.04421" lon="6.26213">
        <ele>300</ele>
        <time>2026-05-17T11:53:45+02:00</time>
      </trkpt>
      <trkpt lat="48.04423" lon="6.26221">
        <ele>299.9004</ele>
        <time>2026-05-17T11:53:46+02:00</time>
      </trkpt>
      <trkpt lat="48.04423" lon="6.2623">
        <ele>299.9004</ele>
        <time>2026-05-17T11:53:47+02:00</time>
      </trkpt>
      <trkpt lat="48.04424" lon="6.26239">
        <ele>299.2998</ele>
        <time>2026-05-17T11:53:48+02:00</time>
      </trkpt>
      <trkpt lat="48.04426" lon="6.26248">
        <ele>299.4004</ele>
        <time>2026-05-17T11:53:49+02:00</time>
      </trkpt>
      <trkpt lat="48.04427" lon="6.26257">
        <ele>299.4004</ele>
        <time>2026-05-17T11:53:50+02:00</time>
      </trkpt>
      <trkpt lat="48.04428" lon="6.26266">
        <ele>299.5</ele>
        <time>2026-05-17T11:53:51+02:00</time>
      </trkpt>
      <trkpt lat="48.0443" lon="6.26275">
        <ele>298.7002</ele>
        <time>2026-05-17T11:53:52+02:00</time>
      </trkpt>
      <trkpt lat="48.04431" lon="6.26284">
        <ele>298.7998</ele>
        <time>2026-05-17T11:53:53+02:00</time>
      </trkpt>
      <trkpt lat="48.04432" lon="6.26293">
        <ele>298.7998</ele>
        <time>2026-05-17T11:53:54+02:00</time>
      </trkpt>
      <trkpt lat="48.04434" lon="6.26302">
        <ele>298.9004</ele>
        <time>2026-05-17T11:53:55+02:00</time>
      </trkpt>
      <trkpt lat="48.04435" lon="6.26312">
        <ele>298.2002</ele>
        <time>2026-05-17T11:53:56+02:00</time>
      </trkpt>
      <trkpt lat="48.04436" lon="6.26321">
        <ele>298.2002</ele>
        <time>2026-05-17T11:53:57+02:00</time>
      </trkpt>
      <trkpt lat="48.04437" lon="6.2633">
        <ele>298.2998</ele>
        <time>2026-05-17T11:53:58+02:00</time>
      </trkpt>
      <trkpt lat="48.04439" lon="6.26339">
        <ele>298.4004</ele>
        <time>2026-05-17T11:53:59+02:00</time>
      </trkpt>
      <trkpt lat="48.0444" lon="6.26349">
        <ele>298.5</ele>
        <time>2026-05-17T11:54:00+02:00</time>
      </trkpt>
      <trkpt lat="48.04441" lon="6.26358">
        <ele>297.9004</ele>
        <time>2026-05-17T11:54:01+02:00</time>
      </trkpt>
      <trkpt lat="48.04442" lon="6.26367">
        <ele>298.7002</ele>
        <time>2026-05-17T11:54:02+02:00</time>
      </trkpt>
      <trkpt lat="48.04443" lon="6.26376">
        <ele>299.2998</ele>
        <time>2026-05-17T11:54:03+02:00</time>
      </trkpt>
      <trkpt lat="48.04445" lon="6.26385">
        <ele>299.7998</ele>
        <time>2026-05-17T11:54:04+02:00</time>
      </trkpt>
      <trkpt lat="48.04446" lon="6.26394">
        <ele>300</ele>
        <time>2026-05-17T11:54:05+02:00</time>
      </trkpt>
      <trkpt lat="48.04447" lon="6.26403">
        <ele>299.7998</ele>
        <time>2026-05-17T11:54:06+02:00</time>
      </trkpt>
      <trkpt lat="48.04448" lon="6.26412">
        <ele>299.7002</ele>
        <time>2026-05-17T11:54:07+02:00</time>
      </trkpt>
      <trkpt lat="48.04449" lon="6.26421">
        <ele>299.7002</ele>
        <time>2026-05-17T11:54:08+02:00</time>
      </trkpt>
      <trkpt lat="48.0445" lon="6.26429">
        <ele>299.7002</ele>
        <time>2026-05-17T11:54:09+02:00</time>
      </trkpt>
      <trkpt lat="48.04451" lon="6.26438">
        <ele>299.7002</ele>
        <time>2026-05-17T11:54:10+02:00</time>
      </trkpt>
      <trkpt lat="48.04452" lon="6.26445">
        <ele>299.2998</ele>
        <time>2026-05-17T11:54:11+02:00</time>
      </trkpt>
      <trkpt lat="48.04453" lon="6.26453">
        <ele>299.4004</ele>
        <time>2026-05-17T11:54:12+02:00</time>
      </trkpt>
      <trkpt lat="48.04455" lon="6.26459">
        <ele>299.4004</ele>
        <time>2026-05-17T11:54:13+02:00</time>
      </trkpt>
      <trkpt lat="48.04456" lon="6.26465">
        <ele>299.4004</ele>
        <time>2026-05-17T11:54:14+02:00</time>
      </trkpt>
      <trkpt lat="48.04458" lon="6.26471">
        <ele>299.4004</ele>
        <time>2026-05-17T11:54:15+02:00</time>
      </trkpt>
      <trkpt lat="48.04458" lon="6.26478">
        <ele>299.4004</ele>
        <time>2026-05-17T11:54:16+02:00</time>
      </trkpt>
      <trkpt lat="48.0446" lon="6.26484">
        <ele>298.7998</ele>
        <time>2026-05-17T11:54:17+02:00</time>
      </trkpt>
      <trkpt lat="48.04461" lon="6.26491">
        <ele>298.7998</ele>
        <time>2026-05-17T11:54:18+02:00</time>
      </trkpt>
      <trkpt lat="48.04462" lon="6.26498">
        <ele>298.9004</ele>
        <time>2026-05-17T11:54:19+02:00</time>
      </trkpt>
      <trkpt lat="48.04463" lon="6.26505">
        <ele>299.1006</ele>
        <time>2026-05-17T11:54:20+02:00</time>
      </trkpt>
      <trkpt lat="48.04464" lon="6.26511">
        <ele>298.5</ele>
        <time>2026-05-17T11:54:21+02:00</time>
      </trkpt>
      <trkpt lat="48.04465" lon="6.26518">
        <ele>298.6006</ele>
        <time>2026-05-17T11:54:22+02:00</time>
      </trkpt>
      <trkpt lat="48.04466" lon="6.26524">
        <ele>298.7002</ele>
        <time>2026-05-17T11:54:23+02:00</time>
      </trkpt>
      <trkpt lat="48.04466" lon="6.26531">
        <ele>299</ele>
        <time>2026-05-17T11:54:24+02:00</time>
      </trkpt>
      <trkpt lat="48.04467" lon="6.26537">
        <ele>299</ele>
        <time>2026-05-17T11:54:25+02:00</time>
      </trkpt>
      <trkpt lat="48.04468" lon="6.26544">
        <ele>299.2002</ele>
        <time>2026-05-17T11:54:26+02:00</time>
      </trkpt>
      <trkpt lat="48.04468" lon="6.2655">
        <ele>299.4004</ele>
        <time>2026-05-17T11:54:27+02:00</time>
      </trkpt>
      <trkpt lat="48.04469" lon="6.26558">
        <ele>299.5</ele>
        <time>2026-05-17T11:54:28+02:00</time>
      </trkpt>
      <trkpt lat="48.04469" lon="6.26565">
        <ele>299.7002</ele>
        <time>2026-05-17T11:54:29+02:00</time>
      </trkpt>
      <trkpt lat="48.0447" lon="6.26573">
        <ele>299.5</ele>
        <time>2026-05-17T11:54:30+02:00</time>
      </trkpt>
      <trkpt lat="48.04471" lon="6.26581">
        <ele>299.5</ele>
        <time>2026-05-17T11:54:31+02:00</time>
      </trkpt>
      <trkpt lat="48.04472" lon="6.26589">
        <ele>299.5</ele>
        <time>2026-05-17T11:54:32+02:00</time>
      </trkpt>
      <trkpt lat="48.04474" lon="6.26598">
        <ele>299.5</ele>
        <time>2026-05-17T11:54:33+02:00</time>
      </trkpt>
      <trkpt lat="48.04475" lon="6.26606">
        <ele>299.5</ele>
        <time>2026-05-17T11:54:34+02:00</time>
      </trkpt>
      <trkpt lat="48.04476" lon="6.26614">
        <ele>299.2998</ele>
        <time>2026-05-17T11:54:35+02:00</time>
      </trkpt>
      <trkpt lat="48.04477" lon="6.26622">
        <ele>299.2998</ele>
        <time>2026-05-17T11:54:36+02:00</time>
      </trkpt>
      <trkpt lat="48.04479" lon="6.26631">
        <ele>299.2998</ele>
        <time>2026-05-17T11:54:37+02:00</time>
      </trkpt>
      <trkpt lat="48.04481" lon="6.26639">
        <ele>299.1006</ele>
        <time>2026-05-17T11:54:38+02:00</time>
      </trkpt>
      <trkpt lat="48.04483" lon="6.26647">
        <ele>299.2002</ele>
        <time>2026-05-17T11:54:39+02:00</time>
      </trkpt>
      <trkpt lat="48.04485" lon="6.26655">
        <ele>299.2002</ele>
        <time>2026-05-17T11:54:40+02:00</time>
      </trkpt>
      <trkpt lat="48.04487" lon="6.26663">
        <ele>299.1006</ele>
        <time>2026-05-17T11:54:41+02:00</time>
      </trkpt>
      <trkpt lat="48.04489" lon="6.26671">
        <ele>299</ele>
        <time>2026-05-17T11:54:42+02:00</time>
      </trkpt>
      <trkpt lat="48.04491" lon="6.26679">
        <ele>298.7998</ele>
        <time>2026-05-17T11:54:43+02:00</time>
      </trkpt>
      <trkpt lat="48.04493" lon="6.26687">
        <ele>298.7998</ele>
        <time>2026-05-17T11:54:44+02:00</time>
      </trkpt>
      <trkpt lat="48.04495" lon="6.26695">
        <ele>298.7998</ele>
        <time>2026-05-17T11:54:45+02:00</time>
      </trkpt>
      <trkpt lat="48.04498" lon="6.26702">
        <ele>298.7998</ele>
        <time>2026-05-17T11:54:46+02:00</time>
      </trkpt>
      <trkpt lat="48.045" lon="6.2671">
        <ele>299</ele>
        <time>2026-05-17T11:54:47+02:00</time>
      </trkpt>
      <trkpt lat="48.04503" lon="6.26717">
        <ele>299</ele>
        <time>2026-05-17T11:54:48+02:00</time>
      </trkpt>
      <trkpt lat="48.04506" lon="6.26724">
        <ele>299</ele>
        <time>2026-05-17T11:54:49+02:00</time>
      </trkpt>
      <trkpt lat="48.04508" lon="6.26731">
        <ele>299</ele>
        <time>2026-05-17T11:54:50+02:00</time>
      </trkpt>
      <trkpt lat="48.04511" lon="6.26738">
        <ele>298.9004</ele>
        <time>2026-05-17T11:54:51+02:00</time>
      </trkpt>
      <trkpt lat="48.04514" lon="6.26745">
        <ele>298.9004</ele>
        <time>2026-05-17T11:54:52+02:00</time>
      </trkpt>
      <trkpt lat="48.04517" lon="6.26752">
        <ele>298.7998</ele>
        <time>2026-05-17T11:54:53+02:00</time>
      </trkpt>
      <trkpt lat="48.04521" lon="6.26758">
        <ele>298.7002</ele>
        <time>2026-05-17T11:54:54+02:00</time>
      </trkpt>
      <trkpt lat="48.04524" lon="6.26765">
        <ele>298.7002</ele>
        <time>2026-05-17T11:54:55+02:00</time>
      </trkpt>
      <trkpt lat="48.04528" lon="6.26772">
        <ele>298.6006</ele>
        <time>2026-05-17T11:54:56+02:00</time>
      </trkpt>
      <trkpt lat="48.04531" lon="6.26779">
        <ele>298.5</ele>
        <time>2026-05-17T11:54:57+02:00</time>
      </trkpt>
      <trkpt lat="48.04535" lon="6.26785">
        <ele>298.4004</ele>
        <time>2026-05-17T11:54:58+02:00</time>
      </trkpt>
      <trkpt lat="48.04539" lon="6.26792">
        <ele>298.1006</ele>
        <time>2026-05-17T11:54:59+02:00</time>
      </trkpt>
      <trkpt lat="48.04543" lon="6.26798">
        <ele>298</ele>
        <time>2026-05-17T11:55:00+02:00</time>
      </trkpt>
      <trkpt lat="48.04546" lon="6.26804">
        <ele>297.9004</ele>
        <time>2026-05-17T11:55:01+02:00</time>
      </trkpt>
      <trkpt lat="48.0455" lon="6.2681">
        <ele>297.6006</ele>
        <time>2026-05-17T11:55:02+02:00</time>
      </trkpt>
      <trkpt lat="48.04554" lon="6.26817">
        <ele>297.5</ele>
        <time>2026-05-17T11:55:03+02:00</time>
      </trkpt>
      <trkpt lat="48.04558" lon="6.26823">
        <ele>297.1006</ele>
        <time>2026-05-17T11:55:04+02:00</time>
      </trkpt>
      <trkpt lat="48.04562" lon="6.26829">
        <ele>297</ele>
        <time>2026-05-17T11:55:05+02:00</time>
      </trkpt>
      <trkpt lat="48.04566" lon="6.26836">
        <ele>296.7002</ele>
        <time>2026-05-17T11:55:06+02:00</time>
      </trkpt>
      <trkpt lat="48.04569" lon="6.26842">
        <ele>296.2998</ele>
        <time>2026-05-17T11:55:07+02:00</time>
      </trkpt>
      <trkpt lat="48.04573" lon="6.26848">
        <ele>296</ele>
        <time>2026-05-17T11:55:08+02:00</time>
      </trkpt>
      <trkpt lat="48.04577" lon="6.26855">
        <ele>296</ele>
        <time>2026-05-17T11:55:09+02:00</time>
      </trkpt>
      <trkpt lat="48.04581" lon="6.26861">
        <ele>295.7998</ele>
        <time>2026-05-17T11:55:10+02:00</time>
      </trkpt>
      <trkpt lat="48.04585" lon="6.26867">
        <ele>295.7002</ele>
        <time>2026-05-17T11:55:11+02:00</time>
      </trkpt>
      <trkpt lat="48.04589" lon="6.26874">
        <ele>295.4004</ele>
        <time>2026-05-17T11:55:12+02:00</time>
      </trkpt>
      <trkpt lat="48.04593" lon="6.2688">
        <ele>295.7002</ele>
        <time>2026-05-17T11:55:13+02:00</time>
      </trkpt>
      <trkpt lat="48.04598" lon="6.26886">
        <ele>295.9004</ele>
        <time>2026-05-17T11:55:14+02:00</time>
      </trkpt>
      <trkpt lat="48.04602" lon="6.26893">
        <ele>296.2998</ele>
        <time>2026-05-17T11:55:15+02:00</time>
      </trkpt>
      <trkpt lat="48.04606" lon="6.269">
        <ele>296.4004</ele>
        <time>2026-05-17T11:55:16+02:00</time>
      </trkpt>
      <trkpt lat="48.0461" lon="6.26906">
        <ele>296.7998</ele>
        <time>2026-05-17T11:55:17+02:00</time>
      </trkpt>
      <trkpt lat="48.04614" lon="6.26913">
        <ele>297.5</ele>
        <time>2026-05-17T11:55:18+02:00</time>
      </trkpt>
      <trkpt lat="48.04618" lon="6.2692">
        <ele>297.6006</ele>
        <time>2026-05-17T11:55:19+02:00</time>
      </trkpt>
      <trkpt lat="48.04622" lon="6.26926">
        <ele>298.2002</ele>
        <time>2026-05-17T11:55:20+02:00</time>
      </trkpt>
      <trkpt lat="48.04625" lon="6.26933">
        <ele>298.6006</ele>
        <time>2026-05-17T11:55:21+02:00</time>
      </trkpt>
      <trkpt lat="48.04629" lon="6.26939">
        <ele>298.7002</ele>
        <time>2026-05-17T11:55:22+02:00</time>
      </trkpt>
      <trkpt lat="48.04633" lon="6.26945">
        <ele>299.4004</ele>
        <time>2026-05-17T11:55:23+02:00</time>
      </trkpt>
      <trkpt lat="48.04637" lon="6.26952">
        <ele>300.2002</ele>
        <time>2026-05-17T11:55:24+02:00</time>
      </trkpt>
      <trkpt lat="48.0464" lon="6.26959">
        <ele>300.2998</ele>
        <time>2026-05-17T11:55:25+02:00</time>
      </trkpt>
      <trkpt lat="48.04645" lon="6.26965">
        <ele>301</ele>
        <time>2026-05-17T11:55:26+02:00</time>
      </trkpt>
      <trkpt lat="48.04648" lon="6.26972">
        <ele>301.5</ele>
        <time>2026-05-17T11:55:27+02:00</time>
      </trkpt>
      <trkpt lat="48.04652" lon="6.26979">
        <ele>301.7998</ele>
        <time>2026-05-17T11:55:28+02:00</time>
      </trkpt>
      <trkpt lat="48.04656" lon="6.26986">
        <ele>302.5</ele>
        <time>2026-05-17T11:55:29+02:00</time>
      </trkpt>
      <trkpt lat="48.04659" lon="6.26993">
        <ele>302.7998</ele>
        <time>2026-05-17T11:55:30+02:00</time>
      </trkpt>
      <trkpt lat="48.04662" lon="6.27">
        <ele>303.1006</ele>
        <time>2026-05-17T11:55:31+02:00</time>
      </trkpt>
      <trkpt lat="48.04666" lon="6.27007">
        <ele>303.4004</ele>
        <time>2026-05-17T11:55:32+02:00</time>
      </trkpt>
      <trkpt lat="48.04669" lon="6.27014">
        <ele>303.6006</ele>
        <time>2026-05-17T11:55:33+02:00</time>
      </trkpt>
      <trkpt lat="48.04673" lon="6.27022">
        <ele>303.5</ele>
        <time>2026-05-17T11:55:34+02:00</time>
      </trkpt>
      <trkpt lat="48.04676" lon="6.27029">
        <ele>303.2998</ele>
        <time>2026-05-17T11:55:35+02:00</time>
      </trkpt>
      <trkpt lat="48.0468" lon="6.27036">
        <ele>303.2998</ele>
        <time>2026-05-17T11:55:36+02:00</time>
      </trkpt>
      <trkpt lat="48.04683" lon="6.27043">
        <ele>303.7002</ele>
        <time>2026-05-17T11:55:37+02:00</time>
      </trkpt>
      <trkpt lat="48.04686" lon="6.2705">
        <ele>304.1006</ele>
        <time>2026-05-17T11:55:38+02:00</time>
      </trkpt>
      <trkpt lat="48.0469" lon="6.27057">
        <ele>304.4004</ele>
        <time>2026-05-17T11:55:39+02:00</time>
      </trkpt>
      <trkpt lat="48.04693" lon="6.27064">
        <ele>304.6006</ele>
        <time>2026-05-17T11:55:40+02:00</time>
      </trkpt>
      <trkpt lat="48.04696" lon="6.27071">
        <ele>304.9004</ele>
        <time>2026-05-17T11:55:41+02:00</time>
      </trkpt>
      <trkpt lat="48.04699" lon="6.27078">
        <ele>305</ele>
        <time>2026-05-17T11:55:42+02:00</time>
      </trkpt>
      <trkpt lat="48.04703" lon="6.27085">
        <ele>305.2002</ele>
        <time>2026-05-17T11:55:43+02:00</time>
      </trkpt>
      <trkpt lat="48.04706" lon="6.27092">
        <ele>305.1006</ele>
        <time>2026-05-17T11:55:44+02:00</time>
      </trkpt>
      <trkpt lat="48.0471" lon="6.27099">
        <ele>304.7998</ele>
        <time>2026-05-17T11:55:45+02:00</time>
      </trkpt>
      <trkpt lat="48.04713" lon="6.27107">
        <ele>304.9004</ele>
        <time>2026-05-17T11:55:46+02:00</time>
      </trkpt>
      <trkpt lat="48.04716" lon="6.27114">
        <ele>305.1006</ele>
        <time>2026-05-17T11:55:47+02:00</time>
      </trkpt>
      <trkpt lat="48.0472" lon="6.27122">
        <ele>305.5</ele>
        <time>2026-05-17T11:55:48+02:00</time>
      </trkpt>
      <trkpt lat="48.04723" lon="6.27129">
        <ele>305.2002</ele>
        <time>2026-05-17T11:55:49+02:00</time>
      </trkpt>
      <trkpt lat="48.04727" lon="6.27136">
        <ele>305.7002</ele>
        <time>2026-05-17T11:55:50+02:00</time>
      </trkpt>
      <trkpt lat="48.0473" lon="6.27144">
        <ele>306.2002</ele>
        <time>2026-05-17T11:55:51+02:00</time>
      </trkpt>
      <trkpt lat="48.04733" lon="6.27151">
        <ele>307</ele>
        <time>2026-05-17T11:55:52+02:00</time>
      </trkpt>
      <trkpt lat="48.04736" lon="6.27158">
        <ele>307.4004</ele>
        <time>2026-05-17T11:55:53+02:00</time>
      </trkpt>
      <trkpt lat="48.0474" lon="6.27165">
        <ele>307.1006</ele>
        <time>2026-05-17T11:55:54+02:00</time>
      </trkpt>
      <trkpt lat="48.04743" lon="6.27172">
        <ele>307.1006</ele>
        <time>2026-05-17T11:55:55+02:00</time>
      </trkpt>
      <trkpt lat="48.04746" lon="6.27179">
        <ele>306.4004</ele>
        <time>2026-05-17T11:55:56+02:00</time>
      </trkpt>
      <trkpt lat="48.04749" lon="6.27186">
        <ele>307.1006</ele>
        <time>2026-05-17T11:55:57+02:00</time>
      </trkpt>
      <trkpt lat="48.04752" lon="6.27193">
        <ele>306.5</ele>
        <time>2026-05-17T11:55:58+02:00</time>
      </trkpt>
      <trkpt lat="48.04756" lon="6.27201">
        <ele>307.5</ele>
        <time>2026-05-17T11:55:59+02:00</time>
      </trkpt>
      <trkpt lat="48.04759" lon="6.27208">
        <ele>307.1006</ele>
        <time>2026-05-17T11:56:00+02:00</time>
      </trkpt>
      <trkpt lat="48.04762" lon="6.27215">
        <ele>307.1006</ele>
        <time>2026-05-17T11:56:01+02:00</time>
      </trkpt>
      <trkpt lat="48.04765" lon="6.27223">
        <ele>307.2002</ele>
        <time>2026-05-17T11:56:02+02:00</time>
      </trkpt>
      <trkpt lat="48.04769" lon="6.2723">
        <ele>306.9004</ele>
        <time>2026-05-17T11:56:03+02:00</time>
      </trkpt>
      <trkpt lat="48.04772" lon="6.27238">
        <ele>308.1006</ele>
        <time>2026-05-17T11:56:04+02:00</time>
      </trkpt>
      <trkpt lat="48.04775" lon="6.27245">
        <ele>307.2998</ele>
        <time>2026-05-17T11:56:05+02:00</time>
      </trkpt>
      <trkpt lat="48.04779" lon="6.27252">
        <ele>308.6006</ele>
        <time>2026-05-17T11:56:06+02:00</time>
      </trkpt>
      <trkpt lat="48.04782" lon="6.27259">
        <ele>306.7002</ele>
        <time>2026-05-17T11:56:07+02:00</time>
      </trkpt>
      <trkpt lat="48.04786" lon="6.27267">
        <ele>307.6006</ele>
        <time>2026-05-17T11:56:08+02:00</time>
      </trkpt>
      <trkpt lat="48.04789" lon="6.27274">
        <ele>309.7998</ele>
        <time>2026-05-17T11:56:09+02:00</time>
      </trkpt>
      <trkpt lat="48.04792" lon="6.27282">
        <ele>310.4004</ele>
        <time>2026-05-17T11:56:10+02:00</time>
      </trkpt>
      <trkpt lat="48.04796" lon="6.2729">
        <ele>311.5</ele>
        <time>2026-05-17T11:56:11+02:00</time>
      </trkpt>
      <trkpt lat="48.04799" lon="6.27297">
        <ele>311.1006</ele>
        <time>2026-05-17T11:56:12+02:00</time>
      </trkpt>
      <trkpt lat="48.04802" lon="6.27304">
        <ele>312.2998</ele>
        <time>2026-05-17T11:56:13+02:00</time>
      </trkpt>
      <trkpt lat="48.04806" lon="6.27312">
        <ele>313</ele>
        <time>2026-05-17T11:56:14+02:00</time>
      </trkpt>
      <trkpt lat="48.04809" lon="6.2732">
        <ele>313.2998</ele>
        <time>2026-05-17T11:56:15+02:00</time>
      </trkpt>
      <trkpt lat="48.04812" lon="6.27327">
        <ele>313.2998</ele>
        <time>2026-05-17T11:56:16+02:00</time>
      </trkpt>
      <trkpt lat="48.04816" lon="6.27334">
        <ele>312.6006</ele>
        <time>2026-05-17T11:56:17+02:00</time>
      </trkpt>
      <trkpt lat="48.04819" lon="6.27342">
        <ele>313.7002</ele>
        <time>2026-05-17T11:56:18+02:00</time>
      </trkpt>
      <trkpt lat="48.04822" lon="6.27349">
        <ele>313.6006</ele>
        <time>2026-05-17T11:56:19+02:00</time>
      </trkpt>
      <trkpt lat="48.04826" lon="6.27357">
        <ele>313.6006</ele>
        <time>2026-05-17T11:56:20+02:00</time>
      </trkpt>
      <trkpt lat="48.04829" lon="6.27364">
        <ele>314.9004</ele>
        <time>2026-05-17T11:56:21+02:00</time>
      </trkpt>
      <trkpt lat="48.04833" lon="6.27371">
        <ele>314.2002</ele>
        <time>2026-05-17T11:56:22+02:00</time>
      </trkpt>
      <trkpt lat="48.04836" lon="6.27378">
        <ele>314.2002</ele>
        <time>2026-05-17T11:56:23+02:00</time>
      </trkpt>
      <trkpt lat="48.0484" lon="6.27384">
        <ele>313.2998</ele>
        <time>2026-05-17T11:56:24+02:00</time>
      </trkpt>
      <trkpt lat="48.04844" lon="6.2739">
        <ele>312.6006</ele>
        <time>2026-05-17T11:56:25+02:00</time>
      </trkpt>
      <trkpt lat="48.04849" lon="6.27396">
        <ele>310.7002</ele>
        <time>2026-05-17T11:56:26+02:00</time>
      </trkpt>
      <trkpt lat="48.04854" lon="6.27401">
        <ele>309.2998</ele>
        <time>2026-05-17T11:56:27+02:00</time>
      </trkpt>
      <trkpt lat="48.04859" lon="6.27406">
        <ele>309.7998</ele>
        <time>2026-05-17T11:56:28+02:00</time>
      </trkpt>
      <trkpt lat="48.04865" lon="6.2741">
        <ele>307.2998</ele>
        <time>2026-05-17T11:56:29+02:00</time>
      </trkpt>
      <trkpt lat="48.04871" lon="6.27414">
        <ele>305.4004</ele>
        <time>2026-05-17T11:56:30+02:00</time>
      </trkpt>
      <trkpt lat="48.04876" lon="6.27417">
        <ele>303.2998</ele>
        <time>2026-05-17T11:56:31+02:00</time>
      </trkpt>
      <trkpt lat="48.04881" lon="6.2742">
        <ele>301.6006</ele>
        <time>2026-05-17T11:56:32+02:00</time>
      </trkpt>
      <trkpt lat="48.04888" lon="6.27422">
        <ele>300.1006</ele>
        <time>2026-05-17T11:56:33+02:00</time>
      </trkpt>
      <trkpt lat="48.04893" lon="6.27424">
        <ele>299.1006</ele>
        <time>2026-05-17T11:56:34+02:00</time>
      </trkpt>
      <trkpt lat="48.04899" lon="6.27425">
        <ele>299</ele>
        <time>2026-05-17T11:56:35+02:00</time>
      </trkpt>
      <trkpt lat="48.04905" lon="6.27426">
        <ele>299.1006</ele>
        <time>2026-05-17T11:56:36+02:00</time>
      </trkpt>
      <trkpt lat="48.04911" lon="6.27426">
        <ele>299.2002</ele>
        <time>2026-05-17T11:56:37+02:00</time>
      </trkpt>
      <trkpt lat="48.04917" lon="6.27426">
        <ele>299.2998</ele>
        <time>2026-05-17T11:56:38+02:00</time>
      </trkpt>
      <trkpt lat="48.04922" lon="6.27425">
        <ele>299.2998</ele>
        <time>2026-05-17T11:56:39+02:00</time>
      </trkpt>
      <trkpt lat="48.04928" lon="6.27424">
        <ele>299.2998</ele>
        <time>2026-05-17T11:56:40+02:00</time>
      </trkpt>
      <trkpt lat="48.04934" lon="6.27422">
        <ele>299.2998</ele>
        <time>2026-05-17T11:56:41+02:00</time>
      </trkpt>
      <trkpt lat="48.04939" lon="6.2742">
        <ele>299.2002</ele>
        <time>2026-05-17T11:56:42+02:00</time>
      </trkpt>
      <trkpt lat="48.04945" lon="6.27417">
        <ele>298.9004</ele>
        <time>2026-05-17T11:56:43+02:00</time>
      </trkpt>
      <trkpt lat="48.0495" lon="6.27415">
        <ele>298.6006</ele>
        <time>2026-05-17T11:56:44+02:00</time>
      </trkpt>
      <trkpt lat="48.04956" lon="6.27413">
        <ele>298.2002</ele>
        <time>2026-05-17T11:56:45+02:00</time>
      </trkpt>
      <trkpt lat="48.04962" lon="6.2741">
        <ele>297.9004</ele>
        <time>2026-05-17T11:56:46+02:00</time>
      </trkpt>
      <trkpt lat="48.04968" lon="6.27408">
        <ele>297.7998</ele>
        <time>2026-05-17T11:56:47+02:00</time>
      </trkpt>
      <trkpt lat="48.04973" lon="6.27405">
        <ele>297.5</ele>
        <time>2026-05-17T11:56:48+02:00</time>
      </trkpt>
      <trkpt lat="48.04979" lon="6.27403">
        <ele>297.4004</ele>
        <time>2026-05-17T11:56:49+02:00</time>
      </trkpt>
      <trkpt lat="48.04985" lon="6.274">
        <ele>297.2998</ele>
        <time>2026-05-17T11:56:50+02:00</time>
      </trkpt>
      <trkpt lat="48.0499" lon="6.27398">
        <ele>297.2998</ele>
        <time>2026-05-17T11:56:51+02:00</time>
      </trkpt>
      <trkpt lat="48.04995" lon="6.27395">
        <ele>297.2002</ele>
        <time>2026-05-17T11:56:52+02:00</time>
      </trkpt>
      <trkpt lat="48.05001" lon="6.27393">
        <ele>297.2998</ele>
        <time>2026-05-17T11:56:53+02:00</time>
      </trkpt>
      <trkpt lat="48.05006" lon="6.27391">
        <ele>297.4004</ele>
        <time>2026-05-17T11:56:54+02:00</time>
      </trkpt>
      <trkpt lat="48.05011" lon="6.27389">
        <ele>297.5</ele>
        <time>2026-05-17T11:56:55+02:00</time>
      </trkpt>
      <trkpt lat="48.05016" lon="6.27386">
        <ele>297.5</ele>
        <time>2026-05-17T11:56:56+02:00</time>
      </trkpt>
      <trkpt lat="48.05021" lon="6.27384">
        <ele>297.6006</ele>
        <time>2026-05-17T11:56:57+02:00</time>
      </trkpt>
      <trkpt lat="48.05025" lon="6.27383">
        <ele>297.6006</ele>
        <time>2026-05-17T11:56:58+02:00</time>
      </trkpt>
      <trkpt lat="48.05029" lon="6.27381">
        <ele>297.7998</ele>
        <time>2026-05-17T11:56:59+02:00</time>
      </trkpt>
      <trkpt lat="48.05034" lon="6.27379">
        <ele>297.7998</ele>
        <time>2026-05-17T11:57:00+02:00</time>
      </trkpt>
      <trkpt lat="48.05037" lon="6.27377">
        <ele>297.7998</ele>
        <time>2026-05-17T11:57:01+02:00</time>
      </trkpt>
      <trkpt lat="48.0504" lon="6.27375">
        <ele>297.9004</ele>
        <time>2026-05-17T11:57:02+02:00</time>
      </trkpt>
      <trkpt lat="48.05044" lon="6.27373">
        <ele>298.1006</ele>
        <time>2026-05-17T11:57:03+02:00</time>
      </trkpt>
      <trkpt lat="48.05047" lon="6.27372">
        <ele>298.1006</ele>
        <time>2026-05-17T11:57:04+02:00</time>
      </trkpt>
      <trkpt lat="48.05049" lon="6.27371">
        <ele>298.2002</ele>
        <time>2026-05-17T11:57:05+02:00</time>
      </trkpt>
      <trkpt lat="48.05052" lon="6.2737">
        <ele>297.9004</ele>
        <time>2026-05-17T11:57:06+02:00</time>
      </trkpt>
      <trkpt lat="48.05056" lon="6.27369">
        <ele>298</ele>
        <time>2026-05-17T11:57:07+02:00</time>
      </trkpt>
      <trkpt lat="48.0506" lon="6.27367">
        <ele>298</ele>
        <time>2026-05-17T11:57:08+02:00</time>
      </trkpt>
      <trkpt lat="48.05064" lon="6.27366">
        <ele>298.1006</ele>
        <time>2026-05-17T11:57:09+02:00</time>
      </trkpt>
      <trkpt lat="48.05068" lon="6.27364">
        <ele>298.2002</ele>
        <time>2026-05-17T11:57:10+02:00</time>
      </trkpt>
      <trkpt lat="48.05073" lon="6.27363">
        <ele>298.2998</ele>
        <time>2026-05-17T11:57:11+02:00</time>
      </trkpt>
      <trkpt lat="48.05077" lon="6.27362">
        <ele>298.1006</ele>
        <time>2026-05-17T11:57:12+02:00</time>
      </trkpt>
      <trkpt lat="48.05082" lon="6.2736">
        <ele>298.1006</ele>
        <time>2026-05-17T11:57:13+02:00</time>
      </trkpt>
      <trkpt lat="48.05087" lon="6.27359">
        <ele>298.2002</ele>
        <time>2026-05-17T11:57:14+02:00</time>
      </trkpt>
      <trkpt lat="48.05092" lon="6.27357">
        <ele>298.2998</ele>
        <time>2026-05-17T11:57:15+02:00</time>
      </trkpt>
      <trkpt lat="48.05097" lon="6.27355">
        <ele>298.2998</ele>
        <time>2026-05-17T11:57:16+02:00</time>
      </trkpt>
      <trkpt lat="48.05103" lon="6.27353">
        <ele>298.2002</ele>
        <time>2026-05-17T11:57:17+02:00</time>
      </trkpt>
      <trkpt lat="48.05108" lon="6.27351">
        <ele>298.2002</ele>
        <time>2026-05-17T11:57:18+02:00</time>
      </trkpt>
      <trkpt lat="48.05113" lon="6.2735">
        <ele>298.2002</ele>
        <time>2026-05-17T11:57:19+02:00</time>
      </trkpt>
      <trkpt lat="48.05118" lon="6.27348">
        <ele>298.2002</ele>
        <time>2026-05-17T11:57:20+02:00</time>
      </trkpt>
      <trkpt lat="48.05123" lon="6.27347">
        <ele>298.2002</ele>
        <time>2026-05-17T11:57:21+02:00</time>
      </trkpt>
      <trkpt lat="48.05129" lon="6.27346">
        <ele>298.1006</ele>
        <time>2026-05-17T11:57:22+02:00</time>
      </trkpt>
      <trkpt lat="48.05134" lon="6.27345">
        <ele>298.1006</ele>
        <time>2026-05-17T11:57:23+02:00</time>
      </trkpt>
      <trkpt lat="48.05139" lon="6.27344">
        <ele>298</ele>
        <time>2026-05-17T11:57:24+02:00</time>
      </trkpt>
      <trkpt lat="48.05145" lon="6.27343">
        <ele>297.9004</ele>
        <time>2026-05-17T11:57:25+02:00</time>
      </trkpt>
      <trkpt lat="48.0515" lon="6.27342">
        <ele>297.9004</ele>
        <time>2026-05-17T11:57:26+02:00</time>
      </trkpt>
      <trkpt lat="48.05156" lon="6.27342">
        <ele>297.7998</ele>
        <time>2026-05-17T11:57:27+02:00</time>
      </trkpt>
      <trkpt lat="48.05161" lon="6.27341">
        <ele>297.7002</ele>
        <time>2026-05-17T11:57:28+02:00</time>
      </trkpt>
      <trkpt lat="48.05167" lon="6.27341">
        <ele>297.5</ele>
        <time>2026-05-17T11:57:29+02:00</time>
      </trkpt>
      <trkpt lat="48.05172" lon="6.27341">
        <ele>297.2998</ele>
        <time>2026-05-17T11:57:30+02:00</time>
      </trkpt>
      <trkpt lat="48.05177" lon="6.27341">
        <ele>297.2002</ele>
        <time>2026-05-17T11:57:31+02:00</time>
      </trkpt>
      <trkpt lat="48.05182" lon="6.27342">
        <ele>297</ele>
        <time>2026-05-17T11:57:32+02:00</time>
      </trkpt>
      <trkpt lat="48.05188" lon="6.27343">
        <ele>296.9004</ele>
        <time>2026-05-17T11:57:33+02:00</time>
      </trkpt>
      <trkpt lat="48.05193" lon="6.27343">
        <ele>296.9004</ele>
        <time>2026-05-17T11:57:34+02:00</time>
      </trkpt>
      <trkpt lat="48.05198" lon="6.27344">
        <ele>296.9004</ele>
        <time>2026-05-17T11:57:35+02:00</time>
      </trkpt>
      <trkpt lat="48.05203" lon="6.27345">
        <ele>296.7998</ele>
        <time>2026-05-17T11:57:36+02:00</time>
      </trkpt>
      <trkpt lat="48.05209" lon="6.27345">
        <ele>296.7998</ele>
        <time>2026-05-17T11:57:37+02:00</time>
      </trkpt>
      <trkpt lat="48.05229" lon="6.27346">
        <ele>297</ele>
        <time>2026-05-17T11:57:38+02:00</time>
      </trkpt>
      <trkpt lat="48.05234" lon="6.27346">
        <ele>297.1006</ele>
        <time>2026-05-17T11:57:39+02:00</time>
      </trkpt>
      <trkpt lat="48.05239" lon="6.27345">
        <ele>296.7998</ele>
        <time>2026-05-17T11:57:40+02:00</time>
      </trkpt>
      <trkpt lat="48.05244" lon="6.27344">
        <ele>296.7998</ele>
        <time>2026-05-17T11:57:41+02:00</time>
      </trkpt>
      <trkpt lat="48.0525" lon="6.27344">
        <ele>296.9004</ele>
        <time>2026-05-17T11:57:42+02:00</time>
      </trkpt>
      <trkpt lat="48.05255" lon="6.27345">
        <ele>296.9004</ele>
        <time>2026-05-17T11:57:43+02:00</time>
      </trkpt>
      <trkpt lat="48.05261" lon="6.27345">
        <ele>297.1006</ele>
        <time>2026-05-17T11:57:44+02:00</time>
      </trkpt>
      <trkpt lat="48.05266" lon="6.27346">
        <ele>297.6006</ele>
        <time>2026-05-17T11:57:45+02:00</time>
      </trkpt>
      <trkpt lat="48.05272" lon="6.27346">
        <ele>297.7998</ele>
        <time>2026-05-17T11:57:46+02:00</time>
      </trkpt>
      <trkpt lat="48.05278" lon="6.27347">
        <ele>297.9004</ele>
        <time>2026-05-17T11:57:47+02:00</time>
      </trkpt>
      <trkpt lat="48.05283" lon="6.27347">
        <ele>298</ele>
        <time>2026-05-17T11:57:48+02:00</time>
      </trkpt>
      <trkpt lat="48.05288" lon="6.27348">
        <ele>298.1006</ele>
        <time>2026-05-17T11:57:49+02:00</time>
      </trkpt>
      <trkpt lat="48.05294" lon="6.27349">
        <ele>298.2002</ele>
        <time>2026-05-17T11:57:50+02:00</time>
      </trkpt>
      <trkpt lat="48.053" lon="6.27349">
        <ele>298.2998</ele>
        <time>2026-05-17T11:57:51+02:00</time>
      </trkpt>
      <trkpt lat="48.05305" lon="6.2735">
        <ele>298.4004</ele>
        <time>2026-05-17T11:57:52+02:00</time>
      </trkpt>
      <trkpt lat="48.0531" lon="6.2735">
        <ele>298.6006</ele>
        <time>2026-05-17T11:57:53+02:00</time>
      </trkpt>
      <trkpt lat="48.05316" lon="6.27351">
        <ele>298.7002</ele>
        <time>2026-05-17T11:57:54+02:00</time>
      </trkpt>
      <trkpt lat="48.05321" lon="6.27351">
        <ele>298.7998</ele>
        <time>2026-05-17T11:57:55+02:00</time>
      </trkpt>
      <trkpt lat="48.05326" lon="6.27352">
        <ele>299</ele>
        <time>2026-05-17T11:57:56+02:00</time>
      </trkpt>
      <trkpt lat="48.05332" lon="6.27353">
        <ele>299.2002</ele>
        <time>2026-05-17T11:57:57+02:00</time>
      </trkpt>
      <trkpt lat="48.05337" lon="6.27353">
        <ele>299.4004</ele>
        <time>2026-05-17T11:57:58+02:00</time>
      </trkpt>
      <trkpt lat="48.05342" lon="6.27354">
        <ele>300.1006</ele>
        <time>2026-05-17T11:57:59+02:00</time>
      </trkpt>
      <trkpt lat="48.05348" lon="6.27355">
        <ele>300.4004</ele>
        <time>2026-05-17T11:58:00+02:00</time>
      </trkpt>
      <trkpt lat="48.05354" lon="6.27356">
        <ele>300.6006</ele>
        <time>2026-05-17T11:58:01+02:00</time>
      </trkpt>
      <trkpt lat="48.05359" lon="6.27357">
        <ele>300.7998</ele>
        <time>2026-05-17T11:58:02+02:00</time>
      </trkpt>
      <trkpt lat="48.05365" lon="6.27359">
        <ele>300.9004</ele>
        <time>2026-05-17T11:58:03+02:00</time>
      </trkpt>
      <trkpt lat="48.0537" lon="6.2736">
        <ele>300.9004</ele>
        <time>2026-05-17T11:58:04+02:00</time>
      </trkpt>
      <trkpt lat="48.05376" lon="6.27361">
        <ele>300.9004</ele>
        <time>2026-05-17T11:58:05+02:00</time>
      </trkpt>
      <trkpt lat="48.05382" lon="6.27363">
        <ele>301.1006</ele>
        <time>2026-05-17T11:58:06+02:00</time>
      </trkpt>
      <trkpt lat="48.05387" lon="6.27364">
        <ele>301.1006</ele>
        <time>2026-05-17T11:58:07+02:00</time>
      </trkpt>
      <trkpt lat="48.05393" lon="6.27365">
        <ele>301.1006</ele>
        <time>2026-05-17T11:58:08+02:00</time>
      </trkpt>
      <trkpt lat="48.05398" lon="6.27367">
        <ele>301.2002</ele>
        <time>2026-05-17T11:58:09+02:00</time>
      </trkpt>
      <trkpt lat="48.05404" lon="6.27368">
        <ele>301.2002</ele>
        <time>2026-05-17T11:58:10+02:00</time>
      </trkpt>
      <trkpt lat="48.05409" lon="6.27369">
        <ele>301.2998</ele>
        <time>2026-05-17T11:58:11+02:00</time>
      </trkpt>
      <trkpt lat="48.05415" lon="6.2737">
        <ele>301.4004</ele>
        <time>2026-05-17T11:58:12+02:00</time>
      </trkpt>
      <trkpt lat="48.0542" lon="6.27371">
        <ele>301.7998</ele>
        <time>2026-05-17T11:58:13+02:00</time>
      </trkpt>
      <trkpt lat="48.05426" lon="6.27372">
        <ele>301.9004</ele>
        <time>2026-05-17T11:58:14+02:00</time>
      </trkpt>
      <trkpt lat="48.05432" lon="6.27373">
        <ele>301.9004</ele>
        <time>2026-05-17T11:58:15+02:00</time>
      </trkpt>
      <trkpt lat="48.05437" lon="6.27375">
        <ele>302</ele>
        <time>2026-05-17T11:58:16+02:00</time>
      </trkpt>
      <trkpt lat="48.05443" lon="6.27376">
        <ele>302</ele>
        <time>2026-05-17T11:58:17+02:00</time>
      </trkpt>
      <trkpt lat="48.05448" lon="6.27377">
        <ele>302.1006</ele>
        <time>2026-05-17T11:58:18+02:00</time>
      </trkpt>
      <trkpt lat="48.05454" lon="6.27378">
        <ele>302.1006</ele>
        <time>2026-05-17T11:58:19+02:00</time>
      </trkpt>
      <trkpt lat="48.05459" lon="6.27379">
        <ele>302.1006</ele>
        <time>2026-05-17T11:58:20+02:00</time>
      </trkpt>
      <trkpt lat="48.05465" lon="6.27381">
        <ele>302.2002</ele>
        <time>2026-05-17T11:58:21+02:00</time>
      </trkpt>
      <trkpt lat="48.0547" lon="6.27382">
        <ele>302.1006</ele>
        <time>2026-05-17T11:58:22+02:00</time>
      </trkpt>
      <trkpt lat="48.05476" lon="6.27383">
        <ele>302.1006</ele>
        <time>2026-05-17T11:58:23+02:00</time>
      </trkpt>
      <trkpt lat="48.05482" lon="6.27385">
        <ele>302.1006</ele>
        <time>2026-05-17T11:58:24+02:00</time>
      </trkpt>
      <trkpt lat="48.05488" lon="6.27386">
        <ele>302.1006</ele>
        <time>2026-05-17T11:58:25+02:00</time>
      </trkpt>
      <trkpt lat="48.05493" lon="6.27388">
        <ele>302.2002</ele>
        <time>2026-05-17T11:58:26+02:00</time>
      </trkpt>
      <trkpt lat="48.05498" lon="6.27389">
        <ele>302.2002</ele>
        <time>2026-05-17T11:58:27+02:00</time>
      </trkpt>
      <trkpt lat="48.05504" lon="6.2739">
        <ele>302.2998</ele>
        <time>2026-05-17T11:58:28+02:00</time>
      </trkpt>
      <trkpt lat="48.05509" lon="6.27391">
        <ele>302.2998</ele>
        <time>2026-05-17T11:58:29+02:00</time>
      </trkpt>
      <trkpt lat="48.05515" lon="6.27392">
        <ele>302.4004</ele>
        <time>2026-05-17T11:58:30+02:00</time>
      </trkpt>
      <trkpt lat="48.0552" lon="6.27394">
        <ele>302.5</ele>
        <time>2026-05-17T11:58:31+02:00</time>
      </trkpt>
      <trkpt lat="48.05526" lon="6.27395">
        <ele>302.7002</ele>
        <time>2026-05-17T11:58:32+02:00</time>
      </trkpt>
      <trkpt lat="48.05531" lon="6.27396">
        <ele>302.9004</ele>
        <time>2026-05-17T11:58:33+02:00</time>
      </trkpt>
      <trkpt lat="48.05537" lon="6.27397">
        <ele>302.2998</ele>
        <time>2026-05-17T11:58:34+02:00</time>
      </trkpt>
      <trkpt lat="48.05543" lon="6.27398">
        <ele>302.6006</ele>
        <time>2026-05-17T11:58:35+02:00</time>
      </trkpt>
      <trkpt lat="48.05548" lon="6.274">
        <ele>303</ele>
        <time>2026-05-17T11:58:36+02:00</time>
      </trkpt>
      <trkpt lat="48.05554" lon="6.27401">
        <ele>303.6006</ele>
        <time>2026-05-17T11:58:37+02:00</time>
      </trkpt>
      <trkpt lat="48.05559" lon="6.27403">
        <ele>303.6006</ele>
        <time>2026-05-17T11:58:38+02:00</time>
      </trkpt>
      <trkpt lat="48.05565" lon="6.27404">
        <ele>304.2002</ele>
        <time>2026-05-17T11:58:39+02:00</time>
      </trkpt>
      <trkpt lat="48.05571" lon="6.27406">
        <ele>304.4004</ele>
        <time>2026-05-17T11:58:40+02:00</time>
      </trkpt>
      <trkpt lat="48.05576" lon="6.27407">
        <ele>304.4004</ele>
        <time>2026-05-17T11:58:41+02:00</time>
      </trkpt>
      <trkpt lat="48.05582" lon="6.27408">
        <ele>304.7002</ele>
        <time>2026-05-17T11:58:42+02:00</time>
      </trkpt>
      <trkpt lat="48.05588" lon="6.2741">
        <ele>304.9004</ele>
        <time>2026-05-17T11:58:43+02:00</time>
      </trkpt>
      <trkpt lat="48.05593" lon="6.27411">
        <ele>305.1006</ele>
        <time>2026-05-17T11:58:44+02:00</time>
      </trkpt>
      <trkpt lat="48.05599" lon="6.27412">
        <ele>305.2998</ele>
        <time>2026-05-17T11:58:45+02:00</time>
      </trkpt>
      <trkpt lat="48.05605" lon="6.27414">
        <ele>304.7002</ele>
        <time>2026-05-17T11:58:46+02:00</time>
      </trkpt>
      <trkpt lat="48.05611" lon="6.27415">
        <ele>304.9004</ele>
        <time>2026-05-17T11:58:47+02:00</time>
      </trkpt>
      <trkpt lat="48.05617" lon="6.27417">
        <ele>305.1006</ele>
        <time>2026-05-17T11:58:48+02:00</time>
      </trkpt>
      <trkpt lat="48.05623" lon="6.27418">
        <ele>305.1006</ele>
        <time>2026-05-17T11:58:49+02:00</time>
      </trkpt>
      <trkpt lat="48.05629" lon="6.2742">
        <ele>305.1006</ele>
        <time>2026-05-17T11:58:50+02:00</time>
      </trkpt>
      <trkpt lat="48.05634" lon="6.27421">
        <ele>305.1006</ele>
        <time>2026-05-17T11:58:51+02:00</time>
      </trkpt>
      <trkpt lat="48.0564" lon="6.27423">
        <ele>304.1006</ele>
        <time>2026-05-17T11:58:52+02:00</time>
      </trkpt>
      <trkpt lat="48.05646" lon="6.27424">
        <ele>304.1006</ele>
        <time>2026-05-17T11:58:53+02:00</time>
      </trkpt>
      <trkpt lat="48.05652" lon="6.27426">
        <ele>304</ele>
        <time>2026-05-17T11:58:54+02:00</time>
      </trkpt>
      <trkpt lat="48.05657" lon="6.27427">
        <ele>304</ele>
        <time>2026-05-17T11:58:55+02:00</time>
      </trkpt>
      <trkpt lat="48.05663" lon="6.27429">
        <ele>304.2002</ele>
        <time>2026-05-17T11:58:56+02:00</time>
      </trkpt>
      <trkpt lat="48.05669" lon="6.2743">
        <ele>304.2998</ele>
        <time>2026-05-17T11:58:57+02:00</time>
      </trkpt>
      <trkpt lat="48.05675" lon="6.27431">
        <ele>303.7998</ele>
        <time>2026-05-17T11:58:58+02:00</time>
      </trkpt>
      <trkpt lat="48.05681" lon="6.27433">
        <ele>303.7002</ele>
        <time>2026-05-17T11:58:59+02:00</time>
      </trkpt>
      <trkpt lat="48.05687" lon="6.27434">
        <ele>303.4004</ele>
        <time>2026-05-17T11:59:00+02:00</time>
      </trkpt>
      <trkpt lat="48.05692" lon="6.27435">
        <ele>303</ele>
        <time>2026-05-17T11:59:01+02:00</time>
      </trkpt>
      <trkpt lat="48.05699" lon="6.27437">
        <ele>302.6006</ele>
        <time>2026-05-17T11:59:02+02:00</time>
      </trkpt>
      <trkpt lat="48.05705" lon="6.27438">
        <ele>302.2002</ele>
        <time>2026-05-17T11:59:03+02:00</time>
      </trkpt>
      <trkpt lat="48.0571" lon="6.27439">
        <ele>301.7998</ele>
        <time>2026-05-17T11:59:04+02:00</time>
      </trkpt>
      <trkpt lat="48.05716" lon="6.2744">
        <ele>301.5</ele>
        <time>2026-05-17T11:59:05+02:00</time>
      </trkpt>
      <trkpt lat="48.05722" lon="6.27441">
        <ele>301.1006</ele>
        <time>2026-05-17T11:59:06+02:00</time>
      </trkpt>
      <trkpt lat="48.05728" lon="6.27443">
        <ele>300.6006</ele>
        <time>2026-05-17T11:59:07+02:00</time>
      </trkpt>
      <trkpt lat="48.05734" lon="6.27444">
        <ele>300.1006</ele>
        <time>2026-05-17T11:59:08+02:00</time>
      </trkpt>
      <trkpt lat="48.05739" lon="6.27445">
        <ele>299.7002</ele>
        <time>2026-05-17T11:59:09+02:00</time>
      </trkpt>
      <trkpt lat="48.05745" lon="6.27447">
        <ele>299.2002</ele>
        <time>2026-05-17T11:59:10+02:00</time>
      </trkpt>
      <trkpt lat="48.05751" lon="6.27448">
        <ele>298.9004</ele>
        <time>2026-05-17T11:59:11+02:00</time>
      </trkpt>
      <trkpt lat="48.05757" lon="6.27449">
        <ele>298.4004</ele>
        <time>2026-05-17T11:59:12+02:00</time>
      </trkpt>
      <trkpt lat="48.05762" lon="6.2745">
        <ele>298.2002</ele>
        <time>2026-05-17T11:59:13+02:00</time>
      </trkpt>
      <trkpt lat="48.05768" lon="6.27452">
        <ele>298.1006</ele>
        <time>2026-05-17T11:59:14+02:00</time>
      </trkpt>
      <trkpt lat="48.05773" lon="6.27453">
        <ele>298.1006</ele>
        <time>2026-05-17T11:59:15+02:00</time>
      </trkpt>
      <trkpt lat="48.05778" lon="6.27454">
        <ele>298</ele>
        <time>2026-05-17T11:59:16+02:00</time>
      </trkpt>
      <trkpt lat="48.05784" lon="6.27455">
        <ele>298</ele>
        <time>2026-05-17T11:59:17+02:00</time>
      </trkpt>
      <trkpt lat="48.0579" lon="6.27457">
        <ele>298.1006</ele>
        <time>2026-05-17T11:59:18+02:00</time>
      </trkpt>
      <trkpt lat="48.05795" lon="6.27458">
        <ele>298.1006</ele>
        <time>2026-05-17T11:59:19+02:00</time>
      </trkpt>
      <trkpt lat="48.05801" lon="6.27459">
        <ele>298.1006</ele>
        <time>2026-05-17T11:59:20+02:00</time>
      </trkpt>
      <trkpt lat="48.05807" lon="6.27461">
        <ele>298.2002</ele>
        <time>2026-05-17T11:59:21+02:00</time>
      </trkpt>
      <trkpt lat="48.05813" lon="6.27462">
        <ele>298.2002</ele>
        <time>2026-05-17T11:59:22+02:00</time>
      </trkpt>
      <trkpt lat="48.05818" lon="6.27463">
        <ele>298.2002</ele>
        <time>2026-05-17T11:59:23+02:00</time>
      </trkpt>
      <trkpt lat="48.05824" lon="6.27465">
        <ele>298.1006</ele>
        <time>2026-05-17T11:59:24+02:00</time>
      </trkpt>
      <trkpt lat="48.0583" lon="6.27466">
        <ele>298.2002</ele>
        <time>2026-05-17T11:59:25+02:00</time>
      </trkpt>
      <trkpt lat="48.05835" lon="6.27468">
        <ele>298.1006</ele>
        <time>2026-05-17T11:59:26+02:00</time>
      </trkpt>
      <trkpt lat="48.05842" lon="6.27469">
        <ele>298.1006</ele>
        <time>2026-05-17T11:59:27+02:00</time>
      </trkpt>
      <trkpt lat="48.05847" lon="6.2747">
        <ele>298</ele>
        <time>2026-05-17T11:59:28+02:00</time>
      </trkpt>
      <trkpt lat="48.05853" lon="6.27472">
        <ele>298</ele>
        <time>2026-05-17T11:59:29+02:00</time>
      </trkpt>
      <trkpt lat="48.05859" lon="6.27473">
        <ele>297.9004</ele>
        <time>2026-05-17T11:59:30+02:00</time>
      </trkpt>
      <trkpt lat="48.05865" lon="6.27474">
        <ele>297.9004</ele>
        <time>2026-05-17T11:59:31+02:00</time>
      </trkpt>
      <trkpt lat="48.05871" lon="6.27476">
        <ele>298</ele>
        <time>2026-05-17T11:59:32+02:00</time>
      </trkpt>
      <trkpt lat="48.05877" lon="6.27478">
        <ele>298</ele>
        <time>2026-05-17T11:59:33+02:00</time>
      </trkpt>
      <trkpt lat="48.05883" lon="6.27479">
        <ele>298.1006</ele>
        <time>2026-05-17T11:59:34+02:00</time>
      </trkpt>
      <trkpt lat="48.05889" lon="6.2748">
        <ele>298.1006</ele>
        <time>2026-05-17T11:59:35+02:00</time>
      </trkpt>
      <trkpt lat="48.05895" lon="6.27482">
        <ele>298.1006</ele>
        <time>2026-05-17T11:59:36+02:00</time>
      </trkpt>
      <trkpt lat="48.05901" lon="6.27484">
        <ele>298.2002</ele>
        <time>2026-05-17T11:59:37+02:00</time>
      </trkpt>
      <trkpt lat="48.05907" lon="6.27485">
        <ele>298.2998</ele>
        <time>2026-05-17T11:59:38+02:00</time>
      </trkpt>
      <trkpt lat="48.05913" lon="6.27486">
        <ele>298.5</ele>
        <time>2026-05-17T11:59:39+02:00</time>
      </trkpt>
      <trkpt lat="48.05919" lon="6.27488">
        <ele>298.7998</ele>
        <time>2026-05-17T11:59:40+02:00</time>
      </trkpt>
      <trkpt lat="48.05925" lon="6.2749">
        <ele>299.1006</ele>
        <time>2026-05-17T11:59:41+02:00</time>
      </trkpt>
      <trkpt lat="48.05931" lon="6.27491">
        <ele>299.5</ele>
        <time>2026-05-17T11:59:42+02:00</time>
      </trkpt>
      <trkpt lat="48.05937" lon="6.27492">
        <ele>299.6006</ele>
        <time>2026-05-17T11:59:43+02:00</time>
      </trkpt>
      <trkpt lat="48.05941" lon="6.27492">
        <ele>300.1006</ele>
        <time>2026-05-17T11:59:44+02:00</time>
      </trkpt>
      <trkpt lat="48.05946" lon="6.27493">
        <ele>300.6006</ele>
        <time>2026-05-17T11:59:45+02:00</time>
      </trkpt>
      <trkpt lat="48.0595" lon="6.27493">
        <ele>301</ele>
        <time>2026-05-17T11:59:46+02:00</time>
      </trkpt>
      <trkpt lat="48.05955" lon="6.27494">
        <ele>301</ele>
        <time>2026-05-17T11:59:47+02:00</time>
      </trkpt>
      <trkpt lat="48.0596" lon="6.27495">
        <ele>301.2002</ele>
        <time>2026-05-17T11:59:48+02:00</time>
      </trkpt>
      <trkpt lat="48.05965" lon="6.27495">
        <ele>301.4004</ele>
        <time>2026-05-17T11:59:49+02:00</time>
      </trkpt>
      <trkpt lat="48.0597" lon="6.27496">
        <ele>301.6006</ele>
        <time>2026-05-17T11:59:50+02:00</time>
      </trkpt>
      <trkpt lat="48.05974" lon="6.27497">
        <ele>301.7998</ele>
        <time>2026-05-17T11:59:51+02:00</time>
      </trkpt>
      <trkpt lat="48.05979" lon="6.27498">
        <ele>302.2002</ele>
        <time>2026-05-17T11:59:52+02:00</time>
      </trkpt>
      <trkpt lat="48.05983" lon="6.27499">
        <ele>302.2002</ele>
        <time>2026-05-17T11:59:53+02:00</time>
      </trkpt>
      <trkpt lat="48.05988" lon="6.275">
        <ele>302</ele>
        <time>2026-05-17T11:59:54+02:00</time>
      </trkpt>
      <trkpt lat="48.05993" lon="6.27502">
        <ele>302.2002</ele>
        <time>2026-05-17T11:59:55+02:00</time>
      </trkpt>
      <trkpt lat="48.05998" lon="6.27503">
        <ele>302.1006</ele>
        <time>2026-05-17T11:59:56+02:00</time>
      </trkpt>
      <trkpt lat="48.06003" lon="6.27505">
        <ele>301.7002</ele>
        <time>2026-05-17T11:59:57+02:00</time>
      </trkpt>
      <trkpt lat="48.06008" lon="6.27506">
        <ele>300.9004</ele>
        <time>2026-05-17T11:59:58+02:00</time>
      </trkpt>
      <trkpt lat="48.06013" lon="6.27507">
        <ele>300</ele>
        <time>2026-05-17T11:59:59+02:00</time>
      </trkpt>
      <trkpt lat="48.06018" lon="6.27508">
        <ele>300</ele>
        <time>2026-05-17T12:00:00+02:00</time>
      </trkpt>
      <trkpt lat="48.06024" lon="6.2751">
        <ele>299.9004</ele>
        <time>2026-05-17T12:00:01+02:00</time>
      </trkpt>
      <trkpt lat="48.06029" lon="6.27511">
        <ele>299.9004</ele>
        <time>2026-05-17T12:00:02+02:00</time>
      </trkpt>
      <trkpt lat="48.06034" lon="6.27512">
        <ele>299.7002</ele>
        <time>2026-05-17T12:00:03+02:00</time>
      </trkpt>
      <trkpt lat="48.06039" lon="6.27513">
        <ele>299.4004</ele>
        <time>2026-05-17T12:00:04+02:00</time>
      </trkpt>
      <trkpt lat="48.06045" lon="6.27514">
        <ele>299.2002</ele>
        <time>2026-05-17T12:00:05+02:00</time>
      </trkpt>
      <trkpt lat="48.0605" lon="6.27515">
        <ele>298.9004</ele>
        <time>2026-05-17T12:00:06+02:00</time>
      </trkpt>
      <trkpt lat="48.06055" lon="6.27516">
        <ele>298.7002</ele>
        <time>2026-05-17T12:00:07+02:00</time>
      </trkpt>
      <trkpt lat="48.06061" lon="6.27516">
        <ele>298.5</ele>
        <time>2026-05-17T12:00:08+02:00</time>
      </trkpt>
      <trkpt lat="48.06066" lon="6.27517">
        <ele>298.4004</ele>
        <time>2026-05-17T12:00:09+02:00</time>
      </trkpt>
      <trkpt lat="48.06071" lon="6.27517">
        <ele>298.1006</ele>
        <time>2026-05-17T12:00:10+02:00</time>
      </trkpt>
      <trkpt lat="48.06077" lon="6.27517">
        <ele>297.7998</ele>
        <time>2026-05-17T12:00:11+02:00</time>
      </trkpt>
      <trkpt lat="48.06082" lon="6.27516">
        <ele>297.2998</ele>
        <time>2026-05-17T12:00:12+02:00</time>
      </trkpt>
      <trkpt lat="48.06087" lon="6.27516">
        <ele>297.2998</ele>
        <time>2026-05-17T12:00:13+02:00</time>
      </trkpt>
      <trkpt lat="48.06093" lon="6.27516">
        <ele>297</ele>
        <time>2026-05-17T12:00:14+02:00</time>
      </trkpt>
      <trkpt lat="48.06098" lon="6.27515">
        <ele>296.7998</ele>
        <time>2026-05-17T12:00:15+02:00</time>
      </trkpt>
      <trkpt lat="48.06103" lon="6.27514">
        <ele>296.6006</ele>
        <time>2026-05-17T12:00:16+02:00</time>
      </trkpt>
      <trkpt lat="48.06109" lon="6.27513">
        <ele>296.5</ele>
        <time>2026-05-17T12:00:17+02:00</time>
      </trkpt>
      <trkpt lat="48.06114" lon="6.27512">
        <ele>296.4004</ele>
        <time>2026-05-17T12:00:18+02:00</time>
      </trkpt>
      <trkpt lat="48.06119" lon="6.27512">
        <ele>296.4004</ele>
        <time>2026-05-17T12:00:19+02:00</time>
      </trkpt>
      <trkpt lat="48.06123" lon="6.27512">
        <ele>296.4004</ele>
        <time>2026-05-17T12:00:20+02:00</time>
      </trkpt>
      <trkpt lat="48.06128" lon="6.27511">
        <ele>296.5</ele>
        <time>2026-05-17T12:00:21+02:00</time>
      </trkpt>
      <trkpt lat="48.06133" lon="6.2751">
        <ele>296.5</ele>
        <time>2026-05-17T12:00:22+02:00</time>
      </trkpt>
      <trkpt lat="48.06137" lon="6.27509">
        <ele>296.5</ele>
        <time>2026-05-17T12:00:23+02:00</time>
      </trkpt>
      <trkpt lat="48.06141" lon="6.27509">
        <ele>296.7002</ele>
        <time>2026-05-17T12:00:24+02:00</time>
      </trkpt>
      <trkpt lat="48.06146" lon="6.27508">
        <ele>296.5</ele>
        <time>2026-05-17T12:00:25+02:00</time>
      </trkpt>
      <trkpt lat="48.06149" lon="6.27508">
        <ele>296.5</ele>
        <time>2026-05-17T12:00:26+02:00</time>
      </trkpt>
      <trkpt lat="48.06154" lon="6.27507">
        <ele>296.6006</ele>
        <time>2026-05-17T12:00:27+02:00</time>
      </trkpt>
      <trkpt lat="48.06159" lon="6.27507">
        <ele>296.7002</ele>
        <time>2026-05-17T12:00:28+02:00</time>
      </trkpt>
      <trkpt lat="48.06163" lon="6.27507">
        <ele>296.7998</ele>
        <time>2026-05-17T12:00:29+02:00</time>
      </trkpt>
      <trkpt lat="48.06168" lon="6.27507">
        <ele>297</ele>
        <time>2026-05-17T12:00:30+02:00</time>
      </trkpt>
      <trkpt lat="48.06173" lon="6.27507">
        <ele>297</ele>
        <time>2026-05-17T12:00:31+02:00</time>
      </trkpt>
      <trkpt lat="48.06178" lon="6.27506">
        <ele>297.1006</ele>
        <time>2026-05-17T12:00:32+02:00</time>
      </trkpt>
      <trkpt lat="48.06184" lon="6.27506">
        <ele>297.2002</ele>
        <time>2026-05-17T12:00:33+02:00</time>
      </trkpt>
      <trkpt lat="48.0619" lon="6.27505">
        <ele>297.2998</ele>
        <time>2026-05-17T12:00:34+02:00</time>
      </trkpt>
      <trkpt lat="48.06196" lon="6.27504">
        <ele>297.4004</ele>
        <time>2026-05-17T12:00:35+02:00</time>
      </trkpt>
      <trkpt lat="48.06201" lon="6.27503">
        <ele>297.5</ele>
        <time>2026-05-17T12:00:36+02:00</time>
      </trkpt>
      <trkpt lat="48.06207" lon="6.27502">
        <ele>297.6006</ele>
        <time>2026-05-17T12:00:37+02:00</time>
      </trkpt>
      <trkpt lat="48.06212" lon="6.27501">
        <ele>297.7998</ele>
        <time>2026-05-17T12:00:38+02:00</time>
      </trkpt>
      <trkpt lat="48.06217" lon="6.27501">
        <ele>297.9004</ele>
        <time>2026-05-17T12:00:39+02:00</time>
      </trkpt>
      <trkpt lat="48.06223" lon="6.275">
        <ele>298.1006</ele>
        <time>2026-05-17T12:00:40+02:00</time>
      </trkpt>
      <trkpt lat="48.06228" lon="6.27499">
        <ele>297.7998</ele>
        <time>2026-05-17T12:00:41+02:00</time>
      </trkpt>
      <trkpt lat="48.06233" lon="6.27498">
        <ele>298</ele>
        <time>2026-05-17T12:00:42+02:00</time>
      </trkpt>
      <trkpt lat="48.06238" lon="6.27497">
        <ele>298.2002</ele>
        <time>2026-05-17T12:00:43+02:00</time>
      </trkpt>
      <trkpt lat="48.06244" lon="6.27496">
        <ele>298.4004</ele>
        <time>2026-05-17T12:00:44+02:00</time>
      </trkpt>
      <trkpt lat="48.06249" lon="6.27495">
        <ele>298.5</ele>
        <time>2026-05-17T12:00:45+02:00</time>
      </trkpt>
      <trkpt lat="48.06254" lon="6.27494">
        <ele>298.7002</ele>
        <time>2026-05-17T12:00:46+02:00</time>
      </trkpt>
      <trkpt lat="48.0626" lon="6.27494">
        <ele>298.9004</ele>
        <time>2026-05-17T12:00:47+02:00</time>
      </trkpt>
      <trkpt lat="48.06265" lon="6.27493">
        <ele>298.9004</ele>
        <time>2026-05-17T12:00:48+02:00</time>
      </trkpt>
      <trkpt lat="48.06271" lon="6.27492">
        <ele>299.2002</ele>
        <time>2026-05-17T12:00:49+02:00</time>
      </trkpt>
      <trkpt lat="48.06276" lon="6.27491">
        <ele>299</ele>
        <time>2026-05-17T12:00:50+02:00</time>
      </trkpt>
      <trkpt lat="48.06283" lon="6.27491">
        <ele>299.1006</ele>
        <time>2026-05-17T12:00:51+02:00</time>
      </trkpt>
      <trkpt lat="48.06288" lon="6.2749">
        <ele>299.1006</ele>
        <time>2026-05-17T12:00:52+02:00</time>
      </trkpt>
      <trkpt lat="48.06294" lon="6.27489">
        <ele>299.2002</ele>
        <time>2026-05-17T12:00:53+02:00</time>
      </trkpt>
      <trkpt lat="48.06299" lon="6.27488">
        <ele>299.2002</ele>
        <time>2026-05-17T12:00:54+02:00</time>
      </trkpt>
      <trkpt lat="48.06305" lon="6.27487">
        <ele>299.2002</ele>
        <time>2026-05-17T12:00:55+02:00</time>
      </trkpt>
      <trkpt lat="48.0631" lon="6.27487">
        <ele>299.2002</ele>
        <time>2026-05-17T12:00:56+02:00</time>
      </trkpt>
      <trkpt lat="48.06316" lon="6.27486">
        <ele>299.2002</ele>
        <time>2026-05-17T12:00:57+02:00</time>
      </trkpt>
      <trkpt lat="48.06322" lon="6.27486">
        <ele>299.2998</ele>
        <time>2026-05-17T12:00:58+02:00</time>
      </trkpt>
      <trkpt lat="48.06328" lon="6.27486">
        <ele>299.2998</ele>
        <time>2026-05-17T12:00:59+02:00</time>
      </trkpt>
      <trkpt lat="48.06333" lon="6.27485">
        <ele>299.2998</ele>
        <time>2026-05-17T12:01:00+02:00</time>
      </trkpt>
      <trkpt lat="48.06339" lon="6.27485">
        <ele>299.2998</ele>
        <time>2026-05-17T12:01:01+02:00</time>
      </trkpt>
      <trkpt lat="48.06344" lon="6.27485">
        <ele>299.4004</ele>
        <time>2026-05-17T12:01:02+02:00</time>
      </trkpt>
      <trkpt lat="48.0635" lon="6.27485">
        <ele>299.4004</ele>
        <time>2026-05-17T12:01:03+02:00</time>
      </trkpt>
      <trkpt lat="48.06356" lon="6.27486">
        <ele>299.5</ele>
        <time>2026-05-17T12:01:04+02:00</time>
      </trkpt>
      <trkpt lat="48.06362" lon="6.27486">
        <ele>299.6006</ele>
        <time>2026-05-17T12:01:05+02:00</time>
      </trkpt>
      <trkpt lat="48.06367" lon="6.27486">
        <ele>299.6006</ele>
        <time>2026-05-17T12:01:06+02:00</time>
      </trkpt>
      <trkpt lat="48.06373" lon="6.27487">
        <ele>299.7002</ele>
        <time>2026-05-17T12:01:07+02:00</time>
      </trkpt>
      <trkpt lat="48.06379" lon="6.27488">
        <ele>299.7998</ele>
        <time>2026-05-17T12:01:08+02:00</time>
      </trkpt>
      <trkpt lat="48.06385" lon="6.27489">
        <ele>299.9004</ele>
        <time>2026-05-17T12:01:09+02:00</time>
      </trkpt>
      <trkpt lat="48.06391" lon="6.2749">
        <ele>300</ele>
        <time>2026-05-17T12:01:10+02:00</time>
      </trkpt>
      <trkpt lat="48.06396" lon="6.27491">
        <ele>300.1006</ele>
        <time>2026-05-17T12:01:11+02:00</time>
      </trkpt>
      <trkpt lat="48.06402" lon="6.27492">
        <ele>300.7002</ele>
        <time>2026-05-17T12:01:12+02:00</time>
      </trkpt>
      <trkpt lat="48.06408" lon="6.27494">
        <ele>300.9004</ele>
        <time>2026-05-17T12:01:13+02:00</time>
      </trkpt>
      <trkpt lat="48.06413" lon="6.27495">
        <ele>301.2998</ele>
        <time>2026-05-17T12:01:14+02:00</time>
      </trkpt>
      <trkpt lat="48.06419" lon="6.27496">
        <ele>301.7002</ele>
        <time>2026-05-17T12:01:15+02:00</time>
      </trkpt>
      <trkpt lat="48.06424" lon="6.27498">
        <ele>301.7998</ele>
        <time>2026-05-17T12:01:16+02:00</time>
      </trkpt>
      <trkpt lat="48.0643" lon="6.275">
        <ele>301.7002</ele>
        <time>2026-05-17T12:01:17+02:00</time>
      </trkpt>
      <trkpt lat="48.06435" lon="6.27502">
        <ele>301.2002</ele>
        <time>2026-05-17T12:01:18+02:00</time>
      </trkpt>
      <trkpt lat="48.0644" lon="6.27504">
        <ele>300.5</ele>
        <time>2026-05-17T12:01:19+02:00</time>
      </trkpt>
      <trkpt lat="48.06446" lon="6.27506">
        <ele>299.7998</ele>
        <time>2026-05-17T12:01:20+02:00</time>
      </trkpt>
      <trkpt lat="48.06452" lon="6.27509">
        <ele>300.4004</ele>
        <time>2026-05-17T12:01:21+02:00</time>
      </trkpt>
      <trkpt lat="48.06457" lon="6.27511">
        <ele>300.2998</ele>
        <time>2026-05-17T12:01:22+02:00</time>
      </trkpt>
      <trkpt lat="48.06463" lon="6.27514">
        <ele>300.2002</ele>
        <time>2026-05-17T12:01:23+02:00</time>
      </trkpt>
      <trkpt lat="48.06468" lon="6.27516">
        <ele>300.2002</ele>
        <time>2026-05-17T12:01:24+02:00</time>
      </trkpt>
      <trkpt lat="48.06473" lon="6.27519">
        <ele>300.6006</ele>
        <time>2026-05-17T12:01:25+02:00</time>
      </trkpt>
      <trkpt lat="48.06478" lon="6.27523">
        <ele>301</ele>
        <time>2026-05-17T12:01:26+02:00</time>
      </trkpt>
      <trkpt lat="48.06483" lon="6.27526">
        <ele>301.5</ele>
        <time>2026-05-17T12:01:27+02:00</time>
      </trkpt>
      <trkpt lat="48.06488" lon="6.2753">
        <ele>301.5</ele>
        <time>2026-05-17T12:01:28+02:00</time>
      </trkpt>
      <trkpt lat="48.06493" lon="6.27534">
        <ele>301.7002</ele>
        <time>2026-05-17T12:01:29+02:00</time>
      </trkpt>
      <trkpt lat="48.06498" lon="6.27539">
        <ele>301.7002</ele>
        <time>2026-05-17T12:01:30+02:00</time>
      </trkpt>
      <trkpt lat="48.06502" lon="6.27544">
        <ele>301.9004</ele>
        <time>2026-05-17T12:01:31+02:00</time>
      </trkpt>
      <trkpt lat="48.06506" lon="6.27549">
        <ele>301.9004</ele>
        <time>2026-05-17T12:01:32+02:00</time>
      </trkpt>
      <trkpt lat="48.0651" lon="6.27555">
        <ele>302.2002</ele>
        <time>2026-05-17T12:01:33+02:00</time>
      </trkpt>
      <trkpt lat="48.06514" lon="6.2756">
        <ele>302.2002</ele>
        <time>2026-05-17T12:01:34+02:00</time>
      </trkpt>
      <trkpt lat="48.06518" lon="6.27566">
        <ele>302.2998</ele>
        <time>2026-05-17T12:01:35+02:00</time>
      </trkpt>
      <trkpt lat="48.06521" lon="6.27572">
        <ele>302</ele>
        <time>2026-05-17T12:01:36+02:00</time>
      </trkpt>
      <trkpt lat="48.06525" lon="6.27579">
        <ele>302.2002</ele>
        <time>2026-05-17T12:01:37+02:00</time>
      </trkpt>
      <trkpt lat="48.06528" lon="6.27586">
        <ele>302.2998</ele>
        <time>2026-05-17T12:01:38+02:00</time>
      </trkpt>
      <trkpt lat="48.06531" lon="6.27593">
        <ele>302.9004</ele>
        <time>2026-05-17T12:01:39+02:00</time>
      </trkpt>
      <trkpt lat="48.06534" lon="6.27601">
        <ele>303.2998</ele>
        <time>2026-05-17T12:01:40+02:00</time>
      </trkpt>
      <trkpt lat="48.06538" lon="6.27608">
        <ele>304.2998</ele>
        <time>2026-05-17T12:01:41+02:00</time>
      </trkpt>
      <trkpt lat="48.06541" lon="6.27616">
        <ele>304.7998</ele>
        <time>2026-05-17T12:01:42+02:00</time>
      </trkpt>
      <trkpt lat="48.06544" lon="6.27624">
        <ele>304.5</ele>
        <time>2026-05-17T12:01:43+02:00</time>
      </trkpt>
      <trkpt lat="48.06547" lon="6.27632">
        <ele>304.7002</ele>
        <time>2026-05-17T12:01:44+02:00</time>
      </trkpt>
      <trkpt lat="48.0655" lon="6.2764">
        <ele>304.2002</ele>
        <time>2026-05-17T12:01:45+02:00</time>
      </trkpt>
      <trkpt lat="48.06553" lon="6.27648">
        <ele>304.6006</ele>
        <time>2026-05-17T12:01:46+02:00</time>
      </trkpt>
      <trkpt lat="48.06556" lon="6.27656">
        <ele>304.2002</ele>
        <time>2026-05-17T12:01:47+02:00</time>
      </trkpt>
      <trkpt lat="48.06558" lon="6.27664">
        <ele>304.2002</ele>
        <time>2026-05-17T12:01:48+02:00</time>
      </trkpt>
      <trkpt lat="48.06561" lon="6.27671">
        <ele>304.2002</ele>
        <time>2026-05-17T12:01:49+02:00</time>
      </trkpt>
      <trkpt lat="48.06563" lon="6.27678">
        <ele>303.7998</ele>
        <time>2026-05-17T12:01:50+02:00</time>
      </trkpt>
      <trkpt lat="48.06565" lon="6.27683">
        <ele>304</ele>
        <time>2026-05-17T12:01:51+02:00</time>
      </trkpt>
      <trkpt lat="48.06567" lon="6.27686">
        <ele>304</ele>
        <time>2026-05-17T12:01:52+02:00</time>
      </trkpt>
      <trkpt lat="48.06568" lon="6.2769">
        <ele>304</ele>
        <time>2026-05-17T12:01:53+02:00</time>
      </trkpt>
      <trkpt lat="48.0657" lon="6.27693">
        <ele>304.4004</ele>
        <time>2026-05-17T12:01:54+02:00</time>
      </trkpt>
      <trkpt lat="48.06572" lon="6.27695">
        <ele>304.4004</ele>
        <time>2026-05-17T12:01:55+02:00</time>
      </trkpt>
      <trkpt lat="48.06575" lon="6.27698">
        <ele>304.5</ele>
        <time>2026-05-17T12:01:56+02:00</time>
      </trkpt>
      <trkpt lat="48.06578" lon="6.27701">
        <ele>304.5</ele>
        <time>2026-05-17T12:01:57+02:00</time>
      </trkpt>
      <trkpt lat="48.0658" lon="6.27704">
        <ele>304.5</ele>
        <time>2026-05-17T12:01:58+02:00</time>
      </trkpt>
      <trkpt lat="48.06582" lon="6.27707">
        <ele>304.2002</ele>
        <time>2026-05-17T12:01:59+02:00</time>
      </trkpt>
      <trkpt lat="48.06584" lon="6.27711">
        <ele>304.2002</ele>
        <time>2026-05-17T12:02:00+02:00</time>
      </trkpt>
      <trkpt lat="48.06585" lon="6.27713">
        <ele>304.2002</ele>
        <time>2026-05-17T12:02:01+02:00</time>
      </trkpt>
      <trkpt lat="48.06586" lon="6.27717">
        <ele>304.2998</ele>
        <time>2026-05-17T12:02:02+02:00</time>
      </trkpt>
      <trkpt lat="48.06587" lon="6.2772">
        <ele>303.9004</ele>
        <time>2026-05-17T12:02:03+02:00</time>
      </trkpt>
      <trkpt lat="48.06588" lon="6.27724">
        <ele>304.1006</ele>
        <time>2026-05-17T12:02:04+02:00</time>
      </trkpt>
      <trkpt lat="48.06589" lon="6.27729">
        <ele>304.1006</ele>
        <time>2026-05-17T12:02:05+02:00</time>
      </trkpt>
      <trkpt lat="48.0659" lon="6.27735">
        <ele>304.4004</ele>
        <time>2026-05-17T12:02:06+02:00</time>
      </trkpt>
      <trkpt lat="48.06592" lon="6.27741">
        <ele>304.2002</ele>
        <time>2026-05-17T12:02:07+02:00</time>
      </trkpt>
      <trkpt lat="48.06593" lon="6.27747">
        <ele>304.2002</ele>
        <time>2026-05-17T12:02:08+02:00</time>
      </trkpt>
      <trkpt lat="48.06596" lon="6.27753">
        <ele>304.5</ele>
        <time>2026-05-17T12:02:09+02:00</time>
      </trkpt>
      <trkpt lat="48.06598" lon="6.27759">
        <ele>304.2002</ele>
        <time>2026-05-17T12:02:10+02:00</time>
      </trkpt>
      <trkpt lat="48.066" lon="6.27765">
        <ele>304.2002</ele>
        <time>2026-05-17T12:02:11+02:00</time>
      </trkpt>
      <trkpt lat="48.06602" lon="6.27771">
        <ele>304.7002</ele>
        <time>2026-05-17T12:02:12+02:00</time>
      </trkpt>
      <trkpt lat="48.06604" lon="6.27777">
        <ele>304.7998</ele>
        <time>2026-05-17T12:02:13+02:00</time>
      </trkpt>
      <trkpt lat="48.06606" lon="6.27784">
        <ele>305.4004</ele>
        <time>2026-05-17T12:02:14+02:00</time>
      </trkpt>
      <trkpt lat="48.06609" lon="6.2779">
        <ele>305.4004</ele>
        <time>2026-05-17T12:02:15+02:00</time>
      </trkpt>
      <trkpt lat="48.06611" lon="6.27797">
        <ele>305.6006</ele>
        <time>2026-05-17T12:02:16+02:00</time>
      </trkpt>
      <trkpt lat="48.06614" lon="6.27803">
        <ele>306.1006</ele>
        <time>2026-05-17T12:02:17+02:00</time>
      </trkpt>
      <trkpt lat="48.06616" lon="6.2781">
        <ele>305.7998</ele>
        <time>2026-05-17T12:02:18+02:00</time>
      </trkpt>
      <trkpt lat="48.06619" lon="6.27816">
        <ele>305.7998</ele>
        <time>2026-05-17T12:02:19+02:00</time>
      </trkpt>
      <trkpt lat="48.06621" lon="6.27824">
        <ele>305.2002</ele>
        <time>2026-05-17T12:02:20+02:00</time>
      </trkpt>
      <trkpt lat="48.06624" lon="6.27831">
        <ele>305.7002</ele>
        <time>2026-05-17T12:02:21+02:00</time>
      </trkpt>
      <trkpt lat="48.06626" lon="6.27838">
        <ele>306.1006</ele>
        <time>2026-05-17T12:02:22+02:00</time>
      </trkpt>
      <trkpt lat="48.06629" lon="6.27845">
        <ele>306.1006</ele>
        <time>2026-05-17T12:02:23+02:00</time>
      </trkpt>
      <trkpt lat="48.06632" lon="6.27852">
        <ele>306.7998</ele>
        <time>2026-05-17T12:02:24+02:00</time>
      </trkpt>
      <trkpt lat="48.06634" lon="6.27859">
        <ele>306.1006</ele>
        <time>2026-05-17T12:02:25+02:00</time>
      </trkpt>
      <trkpt lat="48.06637" lon="6.27866">
        <ele>306.7998</ele>
        <time>2026-05-17T12:02:26+02:00</time>
      </trkpt>
      <trkpt lat="48.06639" lon="6.27873">
        <ele>306.5</ele>
        <time>2026-05-17T12:02:27+02:00</time>
      </trkpt>
      <trkpt lat="48.06642" lon="6.2788">
        <ele>307</ele>
        <time>2026-05-17T12:02:28+02:00</time>
      </trkpt>
      <trkpt lat="48.06644" lon="6.27887">
        <ele>306.5</ele>
        <time>2026-05-17T12:02:29+02:00</time>
      </trkpt>
      <trkpt lat="48.06646" lon="6.27894">
        <ele>306.5</ele>
        <time>2026-05-17T12:02:30+02:00</time>
      </trkpt>
      <trkpt lat="48.06649" lon="6.27901">
        <ele>307.1006</ele>
        <time>2026-05-17T12:02:31+02:00</time>
      </trkpt>
      <trkpt lat="48.06651" lon="6.27908">
        <ele>306.6006</ele>
        <time>2026-05-17T12:02:32+02:00</time>
      </trkpt>
      <trkpt lat="48.06654" lon="6.27915">
        <ele>307.2998</ele>
        <time>2026-05-17T12:02:33+02:00</time>
      </trkpt>
      <trkpt lat="48.06657" lon="6.27923">
        <ele>307.1006</ele>
        <time>2026-05-17T12:02:34+02:00</time>
      </trkpt>
      <trkpt lat="48.06659" lon="6.2793">
        <ele>307.7002</ele>
        <time>2026-05-17T12:02:35+02:00</time>
      </trkpt>
      <trkpt lat="48.06662" lon="6.27937">
        <ele>307</ele>
        <time>2026-05-17T12:02:36+02:00</time>
      </trkpt>
      <trkpt lat="48.06664" lon="6.27944">
        <ele>307.5</ele>
        <time>2026-05-17T12:02:37+02:00</time>
      </trkpt>
      <trkpt lat="48.06667" lon="6.27951">
        <ele>307.2002</ele>
        <time>2026-05-17T12:02:38+02:00</time>
      </trkpt>
      <trkpt lat="48.0667" lon="6.27959">
        <ele>307.7002</ele>
        <time>2026-05-17T12:02:39+02:00</time>
      </trkpt>
      <trkpt lat="48.06672" lon="6.27966">
        <ele>308.4004</ele>
        <time>2026-05-17T12:02:40+02:00</time>
      </trkpt>
      <trkpt lat="48.06675" lon="6.27973">
        <ele>308.5</ele>
        <time>2026-05-17T12:02:41+02:00</time>
      </trkpt>
      <trkpt lat="48.06678" lon="6.2798">
        <ele>308.5</ele>
        <time>2026-05-17T12:02:42+02:00</time>
      </trkpt>
      <trkpt lat="48.0668" lon="6.27988">
        <ele>308.7998</ele>
        <time>2026-05-17T12:02:43+02:00</time>
      </trkpt>
      <trkpt lat="48.06683" lon="6.27995">
        <ele>309.5</ele>
        <time>2026-05-17T12:02:44+02:00</time>
      </trkpt>
      <trkpt lat="48.06686" lon="6.28002">
        <ele>309.7998</ele>
        <time>2026-05-17T12:02:45+02:00</time>
      </trkpt>
      <trkpt lat="48.06688" lon="6.28009">
        <ele>310.2998</ele>
        <time>2026-05-17T12:02:46+02:00</time>
      </trkpt>
      <trkpt lat="48.06691" lon="6.28016">
        <ele>310.4004</ele>
        <time>2026-05-17T12:02:47+02:00</time>
      </trkpt>
      <trkpt lat="48.06695" lon="6.28023">
        <ele>310.4004</ele>
        <time>2026-05-17T12:02:48+02:00</time>
      </trkpt>
      <trkpt lat="48.06698" lon="6.2803">
        <ele>310.4004</ele>
        <time>2026-05-17T12:02:49+02:00</time>
      </trkpt>
      <trkpt lat="48.067" lon="6.28037">
        <ele>310.6006</ele>
        <time>2026-05-17T12:02:50+02:00</time>
      </trkpt>
      <trkpt lat="48.06703" lon="6.28044">
        <ele>310.4004</ele>
        <time>2026-05-17T12:02:51+02:00</time>
      </trkpt>
      <trkpt lat="48.06707" lon="6.2805">
        <ele>310</ele>
        <time>2026-05-17T12:02:52+02:00</time>
      </trkpt>
      <trkpt lat="48.0671" lon="6.28057">
        <ele>310</ele>
        <time>2026-05-17T12:02:53+02:00</time>
      </trkpt>
      <trkpt lat="48.06713" lon="6.28064">
        <ele>309.9004</ele>
        <time>2026-05-17T12:02:54+02:00</time>
      </trkpt>
      <trkpt lat="48.06716" lon="6.2807">
        <ele>310.4004</ele>
        <time>2026-05-17T12:02:55+02:00</time>
      </trkpt>
      <trkpt lat="48.0672" lon="6.28077">
        <ele>310.7998</ele>
        <time>2026-05-17T12:02:56+02:00</time>
      </trkpt>
      <trkpt lat="48.06724" lon="6.28083">
        <ele>311</ele>
        <time>2026-05-17T12:02:57+02:00</time>
      </trkpt>
      <trkpt lat="48.06727" lon="6.2809">
        <ele>311.2002</ele>
        <time>2026-05-17T12:02:58+02:00</time>
      </trkpt>
      <trkpt lat="48.06731" lon="6.28096">
        <ele>311</ele>
        <time>2026-05-17T12:02:59+02:00</time>
      </trkpt>
      <trkpt lat="48.06735" lon="6.28102">
        <ele>311.1006</ele>
        <time>2026-05-17T12:03:00+02:00</time>
      </trkpt>
      <trkpt lat="48.06738" lon="6.28108">
        <ele>310.9004</ele>
        <time>2026-05-17T12:03:01+02:00</time>
      </trkpt>
      <trkpt lat="48.06742" lon="6.28114">
        <ele>311.2002</ele>
        <time>2026-05-17T12:03:02+02:00</time>
      </trkpt>
      <trkpt lat="48.06746" lon="6.2812">
        <ele>311.6006</ele>
        <time>2026-05-17T12:03:03+02:00</time>
      </trkpt>
      <trkpt lat="48.06749" lon="6.28126">
        <ele>311.4004</ele>
        <time>2026-05-17T12:03:04+02:00</time>
      </trkpt>
      <trkpt lat="48.06753" lon="6.28131">
        <ele>310.7002</ele>
        <time>2026-05-17T12:03:05+02:00</time>
      </trkpt>
      <trkpt lat="48.06757" lon="6.28137">
        <ele>310.7002</ele>
        <time>2026-05-17T12:03:06+02:00</time>
      </trkpt>
      <trkpt lat="48.06761" lon="6.28142">
        <ele>310.1006</ele>
        <time>2026-05-17T12:03:07+02:00</time>
      </trkpt>
      <trkpt lat="48.06765" lon="6.28148">
        <ele>309.9004</ele>
        <time>2026-05-17T12:03:08+02:00</time>
      </trkpt>
      <trkpt lat="48.0677" lon="6.28153">
        <ele>309.7002</ele>
        <time>2026-05-17T12:03:09+02:00</time>
      </trkpt>
      <trkpt lat="48.06774" lon="6.28159">
        <ele>309.7002</ele>
        <time>2026-05-17T12:03:10+02:00</time>
      </trkpt>
      <trkpt lat="48.06778" lon="6.28164">
        <ele>308.9004</ele>
        <time>2026-05-17T12:03:11+02:00</time>
      </trkpt>
      <trkpt lat="48.06783" lon="6.28169">
        <ele>308.6006</ele>
        <time>2026-05-17T12:03:12+02:00</time>
      </trkpt>
      <trkpt lat="48.06788" lon="6.28174">
        <ele>308.1006</ele>
        <time>2026-05-17T12:03:13+02:00</time>
      </trkpt>
      <trkpt lat="48.06792" lon="6.28179">
        <ele>307.7998</ele>
        <time>2026-05-17T12:03:14+02:00</time>
      </trkpt>
      <trkpt lat="48.06797" lon="6.28183">
        <ele>307.9004</ele>
        <time>2026-05-17T12:03:15+02:00</time>
      </trkpt>
      <trkpt lat="48.06802" lon="6.28188">
        <ele>307.4004</ele>
        <time>2026-05-17T12:03:16+02:00</time>
      </trkpt>
      <trkpt lat="48.06806" lon="6.28192">
        <ele>307.2002</ele>
        <time>2026-05-17T12:03:17+02:00</time>
      </trkpt>
      <trkpt lat="48.06811" lon="6.28197">
        <ele>306.5</ele>
        <time>2026-05-17T12:03:18+02:00</time>
      </trkpt>
      <trkpt lat="48.06816" lon="6.28201">
        <ele>306.6006</ele>
        <time>2026-05-17T12:03:19+02:00</time>
      </trkpt>
      <trkpt lat="48.06822" lon="6.28205">
        <ele>306.6006</ele>
        <time>2026-05-17T12:03:20+02:00</time>
      </trkpt>
      <trkpt lat="48.06827" lon="6.2821">
        <ele>306.6006</ele>
        <time>2026-05-17T12:03:21+02:00</time>
      </trkpt>
      <trkpt lat="48.06832" lon="6.28214">
        <ele>306.1006</ele>
        <time>2026-05-17T12:03:22+02:00</time>
      </trkpt>
      <trkpt lat="48.06837" lon="6.28218">
        <ele>305.7998</ele>
        <time>2026-05-17T12:03:23+02:00</time>
      </trkpt>
      <trkpt lat="48.06842" lon="6.28222">
        <ele>305.1006</ele>
        <time>2026-05-17T12:03:24+02:00</time>
      </trkpt>
      <trkpt lat="48.06847" lon="6.28226">
        <ele>304.7002</ele>
        <time>2026-05-17T12:03:25+02:00</time>
      </trkpt>
      <trkpt lat="48.06852" lon="6.2823">
        <ele>304.9004</ele>
        <time>2026-05-17T12:03:26+02:00</time>
      </trkpt>
      <trkpt lat="48.06857" lon="6.28234">
        <ele>304.9004</ele>
        <time>2026-05-17T12:03:27+02:00</time>
      </trkpt>
      <trkpt lat="48.06862" lon="6.28238">
        <ele>305.4004</ele>
        <time>2026-05-17T12:03:28+02:00</time>
      </trkpt>
      <trkpt lat="48.06867" lon="6.28242">
        <ele>305.4004</ele>
        <time>2026-05-17T12:03:29+02:00</time>
      </trkpt>
      <trkpt lat="48.06872" lon="6.28246">
        <ele>305.4004</ele>
        <time>2026-05-17T12:03:30+02:00</time>
      </trkpt>
      <trkpt lat="48.06877" lon="6.2825">
        <ele>305.2002</ele>
        <time>2026-05-17T12:03:31+02:00</time>
      </trkpt>
      <trkpt lat="48.06882" lon="6.28254">
        <ele>305.1006</ele>
        <time>2026-05-17T12:03:32+02:00</time>
      </trkpt>
      <trkpt lat="48.06887" lon="6.28258">
        <ele>305.2998</ele>
        <time>2026-05-17T12:03:33+02:00</time>
      </trkpt>
      <trkpt lat="48.06892" lon="6.28262">
        <ele>305.5</ele>
        <time>2026-05-17T12:03:34+02:00</time>
      </trkpt>
      <trkpt lat="48.06897" lon="6.28266">
        <ele>305.6006</ele>
        <time>2026-05-17T12:03:35+02:00</time>
      </trkpt>
      <trkpt lat="48.06902" lon="6.2827">
        <ele>305.2998</ele>
        <time>2026-05-17T12:03:36+02:00</time>
      </trkpt>
      <trkpt lat="48.06907" lon="6.28274">
        <ele>305.2002</ele>
        <time>2026-05-17T12:03:37+02:00</time>
      </trkpt>
      <trkpt lat="48.06912" lon="6.28278">
        <ele>304.7002</ele>
        <time>2026-05-17T12:03:38+02:00</time>
      </trkpt>
      <trkpt lat="48.06917" lon="6.28282">
        <ele>304.4004</ele>
        <time>2026-05-17T12:03:39+02:00</time>
      </trkpt>
      <trkpt lat="48.06921" lon="6.28286">
        <ele>304.2002</ele>
        <time>2026-05-17T12:03:40+02:00</time>
      </trkpt>
      <trkpt lat="48.06926" lon="6.2829">
        <ele>305</ele>
        <time>2026-05-17T12:03:41+02:00</time>
      </trkpt>
      <trkpt lat="48.06931" lon="6.28294">
        <ele>305.4004</ele>
        <time>2026-05-17T12:03:42+02:00</time>
      </trkpt>
      <trkpt lat="48.06936" lon="6.28298">
        <ele>305.9004</ele>
        <time>2026-05-17T12:03:43+02:00</time>
      </trkpt>
      <trkpt lat="48.06941" lon="6.28303">
        <ele>306.2002</ele>
        <time>2026-05-17T12:03:44+02:00</time>
      </trkpt>
      <trkpt lat="48.06945" lon="6.28307">
        <ele>306.2998</ele>
        <time>2026-05-17T12:03:45+02:00</time>
      </trkpt>
      <trkpt lat="48.0695" lon="6.28312">
        <ele>306</ele>
        <time>2026-05-17T12:03:46+02:00</time>
      </trkpt>
      <trkpt lat="48.06955" lon="6.28317">
        <ele>306.1006</ele>
        <time>2026-05-17T12:03:47+02:00</time>
      </trkpt>
      <trkpt lat="48.06959" lon="6.28322">
        <ele>305.9004</ele>
        <time>2026-05-17T12:03:48+02:00</time>
      </trkpt>
      <trkpt lat="48.06964" lon="6.28327">
        <ele>306.4004</ele>
        <time>2026-05-17T12:03:49+02:00</time>
      </trkpt>
      <trkpt lat="48.06968" lon="6.28333">
        <ele>306.7002</ele>
        <time>2026-05-17T12:03:50+02:00</time>
      </trkpt>
      <trkpt lat="48.06972" lon="6.28338">
        <ele>306.4004</ele>
        <time>2026-05-17T12:03:51+02:00</time>
      </trkpt>
      <trkpt lat="48.06976" lon="6.28344">
        <ele>306.9004</ele>
        <time>2026-05-17T12:03:52+02:00</time>
      </trkpt>
      <trkpt lat="48.06981" lon="6.2835">
        <ele>307.6006</ele>
        <time>2026-05-17T12:03:53+02:00</time>
      </trkpt>
      <trkpt lat="48.06985" lon="6.28355">
        <ele>308.1006</ele>
        <time>2026-05-17T12:03:54+02:00</time>
      </trkpt>
      <trkpt lat="48.06989" lon="6.28362">
        <ele>308.7002</ele>
        <time>2026-05-17T12:03:55+02:00</time>
      </trkpt>
      <trkpt lat="48.06993" lon="6.28368">
        <ele>308.7002</ele>
        <time>2026-05-17T12:03:56+02:00</time>
      </trkpt>
      <trkpt lat="48.06997" lon="6.28374">
        <ele>308.5</ele>
        <time>2026-05-17T12:03:57+02:00</time>
      </trkpt>
      <trkpt lat="48.07002" lon="6.2838">
        <ele>308.2998</ele>
        <time>2026-05-17T12:03:58+02:00</time>
      </trkpt>
      <trkpt lat="48.07006" lon="6.28386">
        <ele>308.7998</ele>
        <time>2026-05-17T12:03:59+02:00</time>
      </trkpt>
      <trkpt lat="48.0701" lon="6.28392">
        <ele>308.7998</ele>
        <time>2026-05-17T12:04:00+02:00</time>
      </trkpt>
      <trkpt lat="48.07014" lon="6.28398">
        <ele>309.1006</ele>
        <time>2026-05-17T12:04:01+02:00</time>
      </trkpt>
      <trkpt lat="48.07018" lon="6.28404">
        <ele>308.7002</ele>
        <time>2026-05-17T12:04:02+02:00</time>
      </trkpt>
      <trkpt lat="48.07023" lon="6.28411">
        <ele>308.4004</ele>
        <time>2026-05-17T12:04:03+02:00</time>
      </trkpt>
      <trkpt lat="48.07026" lon="6.28417">
        <ele>308.4004</ele>
        <time>2026-05-17T12:04:04+02:00</time>
      </trkpt>
      <trkpt lat="48.07031" lon="6.28423">
        <ele>308.7002</ele>
        <time>2026-05-17T12:04:05+02:00</time>
      </trkpt>
      <trkpt lat="48.07035" lon="6.28429">
        <ele>308.7998</ele>
        <time>2026-05-17T12:04:06+02:00</time>
      </trkpt>
      <trkpt lat="48.07039" lon="6.28435">
        <ele>308.7998</ele>
        <time>2026-05-17T12:04:07+02:00</time>
      </trkpt>
      <trkpt lat="48.07043" lon="6.2844">
        <ele>308.2998</ele>
        <time>2026-05-17T12:04:08+02:00</time>
      </trkpt>
      <trkpt lat="48.07047" lon="6.28446">
        <ele>307.6006</ele>
        <time>2026-05-17T12:04:09+02:00</time>
      </trkpt>
      <trkpt lat="48.07051" lon="6.28452">
        <ele>307.2002</ele>
        <time>2026-05-17T12:04:10+02:00</time>
      </trkpt>
      <trkpt lat="48.07055" lon="6.28458">
        <ele>307.4004</ele>
        <time>2026-05-17T12:04:11+02:00</time>
      </trkpt>
      <trkpt lat="48.07059" lon="6.28464">
        <ele>307.2998</ele>
        <time>2026-05-17T12:04:12+02:00</time>
      </trkpt>
      <trkpt lat="48.07063" lon="6.28469">
        <ele>307.1006</ele>
        <time>2026-05-17T12:04:13+02:00</time>
      </trkpt>
      <trkpt lat="48.07067" lon="6.28475">
        <ele>307.2998</ele>
        <time>2026-05-17T12:04:14+02:00</time>
      </trkpt>
      <trkpt lat="48.07071" lon="6.28481">
        <ele>307.1006</ele>
        <time>2026-05-17T12:04:15+02:00</time>
      </trkpt>
      <trkpt lat="48.07075" lon="6.28487">
        <ele>307</ele>
        <time>2026-05-17T12:04:16+02:00</time>
      </trkpt>
      <trkpt lat="48.07079" lon="6.28493">
        <ele>307</ele>
        <time>2026-05-17T12:04:17+02:00</time>
      </trkpt>
      <trkpt lat="48.07084" lon="6.28499">
        <ele>306.7998</ele>
        <time>2026-05-17T12:04:18+02:00</time>
      </trkpt>
      <trkpt lat="48.07087" lon="6.28505">
        <ele>306.7998</ele>
        <time>2026-05-17T12:04:19+02:00</time>
      </trkpt>
      <trkpt lat="48.07091" lon="6.28511">
        <ele>306.9004</ele>
        <time>2026-05-17T12:04:20+02:00</time>
      </trkpt>
      <trkpt lat="48.07095" lon="6.28517">
        <ele>306.9004</ele>
        <time>2026-05-17T12:04:21+02:00</time>
      </trkpt>
      <trkpt lat="48.07099" lon="6.28524">
        <ele>307.2002</ele>
        <time>2026-05-17T12:04:22+02:00</time>
      </trkpt>
      <trkpt lat="48.07103" lon="6.2853">
        <ele>307.2002</ele>
        <time>2026-05-17T12:04:23+02:00</time>
      </trkpt>
      <trkpt lat="48.07108" lon="6.28536">
        <ele>307.2002</ele>
        <time>2026-05-17T12:04:24+02:00</time>
      </trkpt>
      <trkpt lat="48.07112" lon="6.28542">
        <ele>307.1006</ele>
        <time>2026-05-17T12:04:25+02:00</time>
      </trkpt>
      <trkpt lat="48.07116" lon="6.28547">
        <ele>307.5</ele>
        <time>2026-05-17T12:04:26+02:00</time>
      </trkpt>
      <trkpt lat="48.0712" lon="6.28553">
        <ele>308</ele>
        <time>2026-05-17T12:04:27+02:00</time>
      </trkpt>
      <trkpt lat="48.07124" lon="6.28559">
        <ele>308.2998</ele>
        <time>2026-05-17T12:04:28+02:00</time>
      </trkpt>
      <trkpt lat="48.07128" lon="6.28565">
        <ele>308.4004</ele>
        <time>2026-05-17T12:04:29+02:00</time>
      </trkpt>
      <trkpt lat="48.07132" lon="6.28572">
        <ele>308.2998</ele>
        <time>2026-05-17T12:04:30+02:00</time>
      </trkpt>
      <trkpt lat="48.07136" lon="6.28578">
        <ele>308.1006</ele>
        <time>2026-05-17T12:04:31+02:00</time>
      </trkpt>
      <trkpt lat="48.0714" lon="6.28585">
        <ele>308.2998</ele>
        <time>2026-05-17T12:04:32+02:00</time>
      </trkpt>
      <trkpt lat="48.07145" lon="6.28592">
        <ele>308.9004</ele>
        <time>2026-05-17T12:04:33+02:00</time>
      </trkpt>
      <trkpt lat="48.07149" lon="6.28598">
        <ele>309</ele>
        <time>2026-05-17T12:04:34+02:00</time>
      </trkpt>
      <trkpt lat="48.07153" lon="6.28604">
        <ele>309</ele>
        <time>2026-05-17T12:04:35+02:00</time>
      </trkpt>
      <trkpt lat="48.07157" lon="6.28609">
        <ele>308.7002</ele>
        <time>2026-05-17T12:04:36+02:00</time>
      </trkpt>
      <trkpt lat="48.07161" lon="6.28614">
        <ele>308.5</ele>
        <time>2026-05-17T12:04:37+02:00</time>
      </trkpt>
      <trkpt lat="48.07165" lon="6.28619">
        <ele>308.7002</ele>
        <time>2026-05-17T12:04:38+02:00</time>
      </trkpt>
      <trkpt lat="48.07169" lon="6.28624">
        <ele>309</ele>
        <time>2026-05-17T12:04:39+02:00</time>
      </trkpt>
      <trkpt lat="48.07173" lon="6.28629">
        <ele>308.7998</ele>
        <time>2026-05-17T12:04:40+02:00</time>
      </trkpt>
      <trkpt lat="48.07176" lon="6.28634">
        <ele>308.9004</ele>
        <time>2026-05-17T12:04:41+02:00</time>
      </trkpt>
      <trkpt lat="48.0718" lon="6.28639">
        <ele>308.2002</ele>
        <time>2026-05-17T12:04:42+02:00</time>
      </trkpt>
      <trkpt lat="48.07184" lon="6.28645">
        <ele>307.2998</ele>
        <time>2026-05-17T12:04:43+02:00</time>
      </trkpt>
      <trkpt lat="48.07187" lon="6.2865">
        <ele>307.4004</ele>
        <time>2026-05-17T12:04:44+02:00</time>
      </trkpt>
      <trkpt lat="48.0719" lon="6.28656">
        <ele>306.6006</ele>
        <time>2026-05-17T12:04:45+02:00</time>
      </trkpt>
      <trkpt lat="48.07194" lon="6.28661">
        <ele>306.9004</ele>
        <time>2026-05-17T12:04:46+02:00</time>
      </trkpt>
      <trkpt lat="48.07197" lon="6.28666">
        <ele>306.4004</ele>
        <time>2026-05-17T12:04:47+02:00</time>
      </trkpt>
      <trkpt lat="48.072" lon="6.28671">
        <ele>306.9004</ele>
        <time>2026-05-17T12:04:48+02:00</time>
      </trkpt>
      <trkpt lat="48.07203" lon="6.28677">
        <ele>307</ele>
        <time>2026-05-17T12:04:49+02:00</time>
      </trkpt>
      <trkpt lat="48.07206" lon="6.28682">
        <ele>306.7002</ele>
        <time>2026-05-17T12:04:50+02:00</time>
      </trkpt>
      <trkpt lat="48.0721" lon="6.28687">
        <ele>307</ele>
        <time>2026-05-17T12:04:51+02:00</time>
      </trkpt>
      <trkpt lat="48.07213" lon="6.28692">
        <ele>306.4004</ele>
        <time>2026-05-17T12:04:52+02:00</time>
      </trkpt>
      <trkpt lat="48.07216" lon="6.28697">
        <ele>306.9004</ele>
        <time>2026-05-17T12:04:53+02:00</time>
      </trkpt>
      <trkpt lat="48.0722" lon="6.28702">
        <ele>307</ele>
        <time>2026-05-17T12:04:54+02:00</time>
      </trkpt>
      <trkpt lat="48.07224" lon="6.28708">
        <ele>306.7998</ele>
        <time>2026-05-17T12:04:55+02:00</time>
      </trkpt>
      <trkpt lat="48.07227" lon="6.28713">
        <ele>307.2002</ele>
        <time>2026-05-17T12:04:56+02:00</time>
      </trkpt>
      <trkpt lat="48.0723" lon="6.28718">
        <ele>306.9004</ele>
        <time>2026-05-17T12:04:57+02:00</time>
      </trkpt>
      <trkpt lat="48.07234" lon="6.28723">
        <ele>307.2002</ele>
        <time>2026-05-17T12:04:58+02:00</time>
      </trkpt>
      <trkpt lat="48.07237" lon="6.28728">
        <ele>306.9004</ele>
        <time>2026-05-17T12:04:59+02:00</time>
      </trkpt>
      <trkpt lat="48.0724" lon="6.28733">
        <ele>306.9004</ele>
        <time>2026-05-17T12:05:00+02:00</time>
      </trkpt>
      <trkpt lat="48.07243" lon="6.28738">
        <ele>306.7002</ele>
        <time>2026-05-17T12:05:01+02:00</time>
      </trkpt>
      <trkpt lat="48.07247" lon="6.28743">
        <ele>306.2998</ele>
        <time>2026-05-17T12:05:02+02:00</time>
      </trkpt>
      <trkpt lat="48.0725" lon="6.28748">
        <ele>306.6006</ele>
        <time>2026-05-17T12:05:03+02:00</time>
      </trkpt>
      <trkpt lat="48.07253" lon="6.28753">
        <ele>306.6006</ele>
        <time>2026-05-17T12:05:04+02:00</time>
      </trkpt>
      <trkpt lat="48.07256" lon="6.28759">
        <ele>306.6006</ele>
        <time>2026-05-17T12:05:05+02:00</time>
      </trkpt>
      <trkpt lat="48.07259" lon="6.28764">
        <ele>306.2998</ele>
        <time>2026-05-17T12:05:06+02:00</time>
      </trkpt>
      <trkpt lat="48.07262" lon="6.2877">
        <ele>306.4004</ele>
        <time>2026-05-17T12:05:07+02:00</time>
      </trkpt>
      <trkpt lat="48.07265" lon="6.28775">
        <ele>305.7998</ele>
        <time>2026-05-17T12:05:08+02:00</time>
      </trkpt>
      <trkpt lat="48.07268" lon="6.28781">
        <ele>306.1006</ele>
        <time>2026-05-17T12:05:09+02:00</time>
      </trkpt>
      <trkpt lat="48.07271" lon="6.28787">
        <ele>305.6006</ele>
        <time>2026-05-17T12:05:10+02:00</time>
      </trkpt>
      <trkpt lat="48.07273" lon="6.28794">
        <ele>306.2002</ele>
        <time>2026-05-17T12:05:11+02:00</time>
      </trkpt>
      <trkpt lat="48.07276" lon="6.288">
        <ele>306.7002</ele>
        <time>2026-05-17T12:05:12+02:00</time>
      </trkpt>
      <trkpt lat="48.07278" lon="6.28807">
        <ele>307.1006</ele>
        <time>2026-05-17T12:05:13+02:00</time>
      </trkpt>
      <trkpt lat="48.0728" lon="6.28813">
        <ele>307.5</ele>
        <time>2026-05-17T12:05:14+02:00</time>
      </trkpt>
      <trkpt lat="48.07283" lon="6.2882">
        <ele>307.6006</ele>
        <time>2026-05-17T12:05:15+02:00</time>
      </trkpt>
      <trkpt lat="48.07285" lon="6.28827">
        <ele>307.9004</ele>
        <time>2026-05-17T12:05:16+02:00</time>
      </trkpt>
      <trkpt lat="48.07288" lon="6.28834">
        <ele>308.4004</ele>
        <time>2026-05-17T12:05:17+02:00</time>
      </trkpt>
      <trkpt lat="48.0729" lon="6.28841">
        <ele>308.7998</ele>
        <time>2026-05-17T12:05:18+02:00</time>
      </trkpt>
      <trkpt lat="48.07292" lon="6.28847">
        <ele>308.9004</ele>
        <time>2026-05-17T12:05:19+02:00</time>
      </trkpt>
      <trkpt lat="48.07295" lon="6.28854">
        <ele>309</ele>
        <time>2026-05-17T12:05:20+02:00</time>
      </trkpt>
      <trkpt lat="48.07297" lon="6.28861">
        <ele>309</ele>
        <time>2026-05-17T12:05:21+02:00</time>
      </trkpt>
      <trkpt lat="48.07299" lon="6.28868">
        <ele>308.7998</ele>
        <time>2026-05-17T12:05:22+02:00</time>
      </trkpt>
      <trkpt lat="48.07301" lon="6.28874">
        <ele>308.7998</ele>
        <time>2026-05-17T12:05:23+02:00</time>
      </trkpt>
      <trkpt lat="48.07304" lon="6.28881">
        <ele>308.6006</ele>
        <time>2026-05-17T12:05:24+02:00</time>
      </trkpt>
      <trkpt lat="48.07306" lon="6.28888">
        <ele>308.7002</ele>
        <time>2026-05-17T12:05:25+02:00</time>
      </trkpt>
      <trkpt lat="48.07308" lon="6.28895">
        <ele>308.7998</ele>
        <time>2026-05-17T12:05:26+02:00</time>
      </trkpt>
      <trkpt lat="48.07311" lon="6.28901">
        <ele>308.9004</ele>
        <time>2026-05-17T12:05:27+02:00</time>
      </trkpt>
      <trkpt lat="48.07313" lon="6.28908">
        <ele>309.1006</ele>
        <time>2026-05-17T12:05:28+02:00</time>
      </trkpt>
      <trkpt lat="48.07315" lon="6.28915">
        <ele>309.2002</ele>
        <time>2026-05-17T12:05:29+02:00</time>
      </trkpt>
      <trkpt lat="48.07317" lon="6.28922">
        <ele>309.2002</ele>
        <time>2026-05-17T12:05:30+02:00</time>
      </trkpt>
      <trkpt lat="48.07319" lon="6.28928">
        <ele>309.1006</ele>
        <time>2026-05-17T12:05:31+02:00</time>
      </trkpt>
      <trkpt lat="48.07321" lon="6.28935">
        <ele>308.9004</ele>
        <time>2026-05-17T12:05:32+02:00</time>
      </trkpt>
      <trkpt lat="48.07324" lon="6.28942">
        <ele>309</ele>
        <time>2026-05-17T12:05:33+02:00</time>
      </trkpt>
      <trkpt lat="48.07326" lon="6.28949">
        <ele>309</ele>
        <time>2026-05-17T12:05:34+02:00</time>
      </trkpt>
      <trkpt lat="48.07329" lon="6.28955">
        <ele>308.7002</ele>
        <time>2026-05-17T12:05:35+02:00</time>
      </trkpt>
      <trkpt lat="48.0733" lon="6.28962">
        <ele>308.7998</ele>
        <time>2026-05-17T12:05:36+02:00</time>
      </trkpt>
      <trkpt lat="48.07333" lon="6.28969">
        <ele>308.6006</ele>
        <time>2026-05-17T12:05:37+02:00</time>
      </trkpt>
      <trkpt lat="48.07335" lon="6.28977">
        <ele>308.7002</ele>
        <time>2026-05-17T12:05:38+02:00</time>
      </trkpt>
      <trkpt lat="48.07337" lon="6.28984">
        <ele>308.7002</ele>
        <time>2026-05-17T12:05:39+02:00</time>
      </trkpt>
      <trkpt lat="48.0734" lon="6.28991">
        <ele>308.6006</ele>
        <time>2026-05-17T12:05:40+02:00</time>
      </trkpt>
      <trkpt lat="48.07342" lon="6.28998">
        <ele>308.7998</ele>
        <time>2026-05-17T12:05:41+02:00</time>
      </trkpt>
      <trkpt lat="48.07345" lon="6.29005">
        <ele>308.7998</ele>
        <time>2026-05-17T12:05:42+02:00</time>
      </trkpt>
      <trkpt lat="48.07346" lon="6.29013">
        <ele>309</ele>
        <time>2026-05-17T12:05:43+02:00</time>
      </trkpt>
      <trkpt lat="48.07349" lon="6.2902">
        <ele>309.1006</ele>
        <time>2026-05-17T12:05:44+02:00</time>
      </trkpt>
      <trkpt lat="48.07351" lon="6.29027">
        <ele>308.7998</ele>
        <time>2026-05-17T12:05:45+02:00</time>
      </trkpt>
      <trkpt lat="48.07353" lon="6.29034">
        <ele>308.9004</ele>
        <time>2026-05-17T12:05:46+02:00</time>
      </trkpt>
      <trkpt lat="48.07356" lon="6.29041">
        <ele>308.7002</ele>
        <time>2026-05-17T12:05:47+02:00</time>
      </trkpt>
      <trkpt lat="48.07358" lon="6.29048">
        <ele>308.9004</ele>
        <time>2026-05-17T12:05:48+02:00</time>
      </trkpt>
      <trkpt lat="48.07361" lon="6.29056">
        <ele>308.5</ele>
        <time>2026-05-17T12:05:49+02:00</time>
      </trkpt>
      <trkpt lat="48.07363" lon="6.29063">
        <ele>308.7002</ele>
        <time>2026-05-17T12:05:50+02:00</time>
      </trkpt>
      <trkpt lat="48.07365" lon="6.2907">
        <ele>308.7002</ele>
        <time>2026-05-17T12:05:51+02:00</time>
      </trkpt>
      <trkpt lat="48.07367" lon="6.29078">
        <ele>308.4004</ele>
        <time>2026-05-17T12:05:52+02:00</time>
      </trkpt>
      <trkpt lat="48.0737" lon="6.29085">
        <ele>309</ele>
        <time>2026-05-17T12:05:53+02:00</time>
      </trkpt>
      <trkpt lat="48.07372" lon="6.29092">
        <ele>309.5</ele>
        <time>2026-05-17T12:05:54+02:00</time>
      </trkpt>
      <trkpt lat="48.07375" lon="6.291">
        <ele>309.7998</ele>
        <time>2026-05-17T12:05:55+02:00</time>
      </trkpt>
      <trkpt lat="48.07377" lon="6.29108">
        <ele>309.9004</ele>
        <time>2026-05-17T12:05:56+02:00</time>
      </trkpt>
      <trkpt lat="48.0738" lon="6.29115">
        <ele>309.5</ele>
        <time>2026-05-17T12:05:57+02:00</time>
      </trkpt>
      <trkpt lat="48.07382" lon="6.29123">
        <ele>309.4004</ele>
        <time>2026-05-17T12:05:58+02:00</time>
      </trkpt>
      <trkpt lat="48.07385" lon="6.29131">
        <ele>308.9004</ele>
        <time>2026-05-17T12:05:59+02:00</time>
      </trkpt>
      <trkpt lat="48.07387" lon="6.29139">
        <ele>309.1006</ele>
        <time>2026-05-17T12:06:00+02:00</time>
      </trkpt>
      <trkpt lat="48.0739" lon="6.29147">
        <ele>308.4004</ele>
        <time>2026-05-17T12:06:01+02:00</time>
      </trkpt>
      <trkpt lat="48.07393" lon="6.29155">
        <ele>308.6006</ele>
        <time>2026-05-17T12:06:02+02:00</time>
      </trkpt>
      <trkpt lat="48.07395" lon="6.29163">
        <ele>308.1006</ele>
        <time>2026-05-17T12:06:03+02:00</time>
      </trkpt>
      <trkpt lat="48.07398" lon="6.29171">
        <ele>308.2998</ele>
        <time>2026-05-17T12:06:04+02:00</time>
      </trkpt>
      <trkpt lat="48.074" lon="6.29179">
        <ele>308.9004</ele>
        <time>2026-05-17T12:06:05+02:00</time>
      </trkpt>
      <trkpt lat="48.07403" lon="6.29187">
        <ele>309.1006</ele>
        <time>2026-05-17T12:06:06+02:00</time>
      </trkpt>
      <trkpt lat="48.07406" lon="6.29195">
        <ele>309.7002</ele>
        <time>2026-05-17T12:06:07+02:00</time>
      </trkpt>
      <trkpt lat="48.07408" lon="6.29203">
        <ele>309.7998</ele>
        <time>2026-05-17T12:06:08+02:00</time>
      </trkpt>
      <trkpt lat="48.07411" lon="6.29211">
        <ele>310.2998</ele>
        <time>2026-05-17T12:06:09+02:00</time>
      </trkpt>
      <trkpt lat="48.07413" lon="6.29219">
        <ele>309.7998</ele>
        <time>2026-05-17T12:06:10+02:00</time>
      </trkpt>
      <trkpt lat="48.07416" lon="6.29226">
        <ele>310.1006</ele>
        <time>2026-05-17T12:06:11+02:00</time>
      </trkpt>
      <trkpt lat="48.07419" lon="6.29234">
        <ele>309.7998</ele>
        <time>2026-05-17T12:06:12+02:00</time>
      </trkpt>
      <trkpt lat="48.07422" lon="6.29242">
        <ele>310.7002</ele>
        <time>2026-05-17T12:06:13+02:00</time>
      </trkpt>
      <trkpt lat="48.07424" lon="6.2925">
        <ele>310.2002</ele>
        <time>2026-05-17T12:06:14+02:00</time>
      </trkpt>
      <trkpt lat="48.07427" lon="6.29258">
        <ele>311.4004</ele>
        <time>2026-05-17T12:06:15+02:00</time>
      </trkpt>
      <trkpt lat="48.0743" lon="6.29266">
        <ele>311.9004</ele>
        <time>2026-05-17T12:06:16+02:00</time>
      </trkpt>
      <trkpt lat="48.07433" lon="6.29274">
        <ele>312.6006</ele>
        <time>2026-05-17T12:06:17+02:00</time>
      </trkpt>
      <trkpt lat="48.07437" lon="6.29281">
        <ele>313.2998</ele>
        <time>2026-05-17T12:06:18+02:00</time>
      </trkpt>
      <trkpt lat="48.07441" lon="6.29288">
        <ele>315.1006</ele>
        <time>2026-05-17T12:06:19+02:00</time>
      </trkpt>
      <trkpt lat="48.07445" lon="6.29295">
        <ele>315.5</ele>
        <time>2026-05-17T12:06:20+02:00</time>
      </trkpt>
      <trkpt lat="48.07449" lon="6.29301">
        <ele>316.6006</ele>
        <time>2026-05-17T12:06:21+02:00</time>
      </trkpt>
      <trkpt lat="48.07454" lon="6.29307">
        <ele>316.6006</ele>
        <time>2026-05-17T12:06:22+02:00</time>
      </trkpt>
      <trkpt lat="48.07458" lon="6.29313">
        <ele>315.4004</ele>
        <time>2026-05-17T12:06:23+02:00</time>
      </trkpt>
      <trkpt lat="48.07463" lon="6.29318">
        <ele>315.4004</ele>
        <time>2026-05-17T12:06:24+02:00</time>
      </trkpt>
      <trkpt lat="48.07468" lon="6.29323">
        <ele>313.4004</ele>
        <time>2026-05-17T12:06:25+02:00</time>
      </trkpt>
      <trkpt lat="48.07474" lon="6.29328">
        <ele>311.9004</ele>
        <time>2026-05-17T12:06:26+02:00</time>
      </trkpt>
      <trkpt lat="48.07479" lon="6.29332">
        <ele>311.4004</ele>
        <time>2026-05-17T12:06:27+02:00</time>
      </trkpt>
      <trkpt lat="48.07484" lon="6.29335">
        <ele>310.9004</ele>
        <time>2026-05-17T12:06:28+02:00</time>
      </trkpt>
      <trkpt lat="48.0749" lon="6.29339">
        <ele>310.1006</ele>
        <time>2026-05-17T12:06:29+02:00</time>
      </trkpt>
      <trkpt lat="48.07495" lon="6.29342">
        <ele>309.7002</ele>
        <time>2026-05-17T12:06:30+02:00</time>
      </trkpt>
      <trkpt lat="48.07501" lon="6.29344">
        <ele>309.2998</ele>
        <time>2026-05-17T12:06:31+02:00</time>
      </trkpt>
      <trkpt lat="48.07506" lon="6.29346">
        <ele>308.6006</ele>
        <time>2026-05-17T12:06:32+02:00</time>
      </trkpt>
      <trkpt lat="48.07512" lon="6.29348">
        <ele>308.1006</ele>
        <time>2026-05-17T12:06:33+02:00</time>
      </trkpt>
      <trkpt lat="48.07517" lon="6.29349">
        <ele>307.6006</ele>
        <time>2026-05-17T12:06:34+02:00</time>
      </trkpt>
      <trkpt lat="48.07523" lon="6.2935">
        <ele>307</ele>
        <time>2026-05-17T12:06:35+02:00</time>
      </trkpt>
      <trkpt lat="48.07529" lon="6.29351">
        <ele>306.5</ele>
        <time>2026-05-17T12:06:36+02:00</time>
      </trkpt>
      <trkpt lat="48.07535" lon="6.29352">
        <ele>305.7998</ele>
        <time>2026-05-17T12:06:37+02:00</time>
      </trkpt>
      <trkpt lat="48.07541" lon="6.29353">
        <ele>305.2002</ele>
        <time>2026-05-17T12:06:38+02:00</time>
      </trkpt>
      <trkpt lat="48.07547" lon="6.29354">
        <ele>304.2002</ele>
        <time>2026-05-17T12:06:39+02:00</time>
      </trkpt>
      <trkpt lat="48.07553" lon="6.29355">
        <ele>303.4004</ele>
        <time>2026-05-17T12:06:40+02:00</time>
      </trkpt>
      <trkpt lat="48.07559" lon="6.29355">
        <ele>302.5</ele>
        <time>2026-05-17T12:06:41+02:00</time>
      </trkpt>
      <trkpt lat="48.07565" lon="6.29356">
        <ele>301.7002</ele>
        <time>2026-05-17T12:06:42+02:00</time>
      </trkpt>
      <trkpt lat="48.0757" lon="6.29357">
        <ele>301</ele>
        <time>2026-05-17T12:06:43+02:00</time>
      </trkpt>
      <trkpt lat="48.07577" lon="6.29358">
        <ele>300.6006</ele>
        <time>2026-05-17T12:06:44+02:00</time>
      </trkpt>
      <trkpt lat="48.07582" lon="6.29359">
        <ele>300.2998</ele>
        <time>2026-05-17T12:06:45+02:00</time>
      </trkpt>
      <trkpt lat="48.07588" lon="6.2936">
        <ele>300.2002</ele>
        <time>2026-05-17T12:06:46+02:00</time>
      </trkpt>
      <trkpt lat="48.07594" lon="6.29362">
        <ele>300.2998</ele>
        <time>2026-05-17T12:06:47+02:00</time>
      </trkpt>
      <trkpt lat="48.07599" lon="6.29363">
        <ele>300.5</ele>
        <time>2026-05-17T12:06:48+02:00</time>
      </trkpt>
      <trkpt lat="48.07605" lon="6.29364">
        <ele>300.7002</ele>
        <time>2026-05-17T12:06:49+02:00</time>
      </trkpt>
      <trkpt lat="48.07611" lon="6.29365">
        <ele>301</ele>
        <time>2026-05-17T12:06:50+02:00</time>
      </trkpt>
      <trkpt lat="48.07617" lon="6.29366">
        <ele>301.2998</ele>
        <time>2026-05-17T12:06:51+02:00</time>
      </trkpt>
      <trkpt lat="48.07623" lon="6.29367">
        <ele>301.7002</ele>
        <time>2026-05-17T12:06:52+02:00</time>
      </trkpt>
      <trkpt lat="48.07628" lon="6.29368">
        <ele>302.1006</ele>
        <time>2026-05-17T12:06:53+02:00</time>
      </trkpt>
      <trkpt lat="48.07634" lon="6.29369">
        <ele>302.6006</ele>
        <time>2026-05-17T12:06:54+02:00</time>
      </trkpt>
      <trkpt lat="48.07639" lon="6.2937">
        <ele>303.1006</ele>
        <time>2026-05-17T12:06:55+02:00</time>
      </trkpt>
      <trkpt lat="48.07645" lon="6.29371">
        <ele>303.2998</ele>
        <time>2026-05-17T12:06:56+02:00</time>
      </trkpt>
      <trkpt lat="48.07651" lon="6.29372">
        <ele>303.7998</ele>
        <time>2026-05-17T12:06:57+02:00</time>
      </trkpt>
      <trkpt lat="48.07656" lon="6.29373">
        <ele>304.2002</ele>
        <time>2026-05-17T12:06:58+02:00</time>
      </trkpt>
      <trkpt lat="48.07662" lon="6.29374">
        <ele>304.7002</ele>
        <time>2026-05-17T12:06:59+02:00</time>
      </trkpt>
      <trkpt lat="48.07667" lon="6.29375">
        <ele>305.1006</ele>
        <time>2026-05-17T12:07:00+02:00</time>
      </trkpt>
      <trkpt lat="48.07673" lon="6.29376">
        <ele>305.5</ele>
        <time>2026-05-17T12:07:01+02:00</time>
      </trkpt>
      <trkpt lat="48.07679" lon="6.29377">
        <ele>305.7998</ele>
        <time>2026-05-17T12:07:02+02:00</time>
      </trkpt>
      <trkpt lat="48.07684" lon="6.29378">
        <ele>306</ele>
        <time>2026-05-17T12:07:03+02:00</time>
      </trkpt>
      <trkpt lat="48.0769" lon="6.29379">
        <ele>306.2002</ele>
        <time>2026-05-17T12:07:04+02:00</time>
      </trkpt>
      <trkpt lat="48.07696" lon="6.2938">
        <ele>305.4004</ele>
        <time>2026-05-17T12:07:05+02:00</time>
      </trkpt>
      <trkpt lat="48.07701" lon="6.29381">
        <ele>305.4004</ele>
        <time>2026-05-17T12:07:06+02:00</time>
      </trkpt>
      <trkpt lat="48.07707" lon="6.29382">
        <ele>305.5</ele>
        <time>2026-05-17T12:07:07+02:00</time>
      </trkpt>
      <trkpt lat="48.07713" lon="6.29383">
        <ele>305.4004</ele>
        <time>2026-05-17T12:07:08+02:00</time>
      </trkpt>
      <trkpt lat="48.07718" lon="6.29384">
        <ele>305.4004</ele>
        <time>2026-05-17T12:07:09+02:00</time>
      </trkpt>
      <trkpt lat="48.07724" lon="6.29385">
        <ele>305.2998</ele>
        <time>2026-05-17T12:07:10+02:00</time>
      </trkpt>
      <trkpt lat="48.07729" lon="6.29386">
        <ele>305.2998</ele>
        <time>2026-05-17T12:07:11+02:00</time>
      </trkpt>
      <trkpt lat="48.07736" lon="6.29387">
        <ele>305.2002</ele>
        <time>2026-05-17T12:07:12+02:00</time>
      </trkpt>
      <trkpt lat="48.07741" lon="6.29388">
        <ele>303.7002</ele>
        <time>2026-05-17T12:07:13+02:00</time>
      </trkpt>
      <trkpt lat="48.07747" lon="6.29389">
        <ele>303.7002</ele>
        <time>2026-05-17T12:07:14+02:00</time>
      </trkpt>
      <trkpt lat="48.07752" lon="6.2939">
        <ele>303.7998</ele>
        <time>2026-05-17T12:07:15+02:00</time>
      </trkpt>
      <trkpt lat="48.07758" lon="6.29391">
        <ele>304.2998</ele>
        <time>2026-05-17T12:07:16+02:00</time>
      </trkpt>
      <trkpt lat="48.07764" lon="6.29392">
        <ele>305</ele>
        <time>2026-05-17T12:07:17+02:00</time>
      </trkpt>
      <trkpt lat="48.0777" lon="6.29393">
        <ele>305.7002</ele>
        <time>2026-05-17T12:07:18+02:00</time>
      </trkpt>
      <trkpt lat="48.07775" lon="6.29394">
        <ele>306</ele>
        <time>2026-05-17T12:07:19+02:00</time>
      </trkpt>
      <trkpt lat="48.07781" lon="6.29395">
        <ele>306.2002</ele>
        <time>2026-05-17T12:07:20+02:00</time>
      </trkpt>
      <trkpt lat="48.07787" lon="6.29396">
        <ele>306.4004</ele>
        <time>2026-05-17T12:07:21+02:00</time>
      </trkpt>
      <trkpt lat="48.07792" lon="6.29397">
        <ele>306.2002</ele>
        <time>2026-05-17T12:07:22+02:00</time>
      </trkpt>
      <trkpt lat="48.07798" lon="6.29399">
        <ele>306.5</ele>
        <time>2026-05-17T12:07:23+02:00</time>
      </trkpt>
      <trkpt lat="48.07803" lon="6.294">
        <ele>306.7002</ele>
        <time>2026-05-17T12:07:24+02:00</time>
      </trkpt>
      <trkpt lat="48.07808" lon="6.29401">
        <ele>307</ele>
        <time>2026-05-17T12:07:25+02:00</time>
      </trkpt>
      <trkpt lat="48.07814" lon="6.29403">
        <ele>307.2998</ele>
        <time>2026-05-17T12:07:26+02:00</time>
      </trkpt>
      <trkpt lat="48.0782" lon="6.29405">
        <ele>307</ele>
        <time>2026-05-17T12:07:27+02:00</time>
      </trkpt>
      <trkpt lat="48.07826" lon="6.29407">
        <ele>307.2998</ele>
        <time>2026-05-17T12:07:28+02:00</time>
      </trkpt>
      <trkpt lat="48.07831" lon="6.2941">
        <ele>307.2998</ele>
        <time>2026-05-17T12:07:29+02:00</time>
      </trkpt>
      <trkpt lat="48.07837" lon="6.29412">
        <ele>308</ele>
        <time>2026-05-17T12:07:30+02:00</time>
      </trkpt>
      <trkpt lat="48.07842" lon="6.29415">
        <ele>307.5</ele>
        <time>2026-05-17T12:07:31+02:00</time>
      </trkpt>
      <trkpt lat="48.07848" lon="6.29419">
        <ele>308</ele>
        <time>2026-05-17T12:07:32+02:00</time>
      </trkpt>
      <trkpt lat="48.07854" lon="6.29422">
        <ele>309.1006</ele>
        <time>2026-05-17T12:07:33+02:00</time>
      </trkpt>
      <trkpt lat="48.0786" lon="6.29426">
        <ele>309.1006</ele>
        <time>2026-05-17T12:07:34+02:00</time>
      </trkpt>
      <trkpt lat="48.07865" lon="6.29429">
        <ele>309.1006</ele>
        <time>2026-05-17T12:07:35+02:00</time>
      </trkpt>
      <trkpt lat="48.07871" lon="6.29433">
        <ele>309.1006</ele>
        <time>2026-05-17T12:07:36+02:00</time>
      </trkpt>
      <trkpt lat="48.07876" lon="6.29437">
        <ele>309.5</ele>
        <time>2026-05-17T12:07:37+02:00</time>
      </trkpt>
      <trkpt lat="48.07882" lon="6.29441">
        <ele>309.6006</ele>
        <time>2026-05-17T12:07:38+02:00</time>
      </trkpt>
      <trkpt lat="48.07887" lon="6.29446">
        <ele>309.9004</ele>
        <time>2026-05-17T12:07:39+02:00</time>
      </trkpt>
      <trkpt lat="48.07892" lon="6.29451">
        <ele>310.1006</ele>
        <time>2026-05-17T12:07:40+02:00</time>
      </trkpt>
      <trkpt lat="48.07897" lon="6.29456">
        <ele>310.2998</ele>
        <time>2026-05-17T12:07:41+02:00</time>
      </trkpt>
      <trkpt lat="48.07902" lon="6.29461">
        <ele>310.7002</ele>
        <time>2026-05-17T12:07:42+02:00</time>
      </trkpt>
      <trkpt lat="48.07906" lon="6.29466">
        <ele>311.4004</ele>
        <time>2026-05-17T12:07:43+02:00</time>
      </trkpt>
      <trkpt lat="48.07911" lon="6.29471">
        <ele>311.4004</ele>
        <time>2026-05-17T12:07:44+02:00</time>
      </trkpt>
      <trkpt lat="48.07915" lon="6.29476">
        <ele>312.2002</ele>
        <time>2026-05-17T12:07:45+02:00</time>
      </trkpt>
      <trkpt lat="48.07919" lon="6.29481">
        <ele>312.4004</ele>
        <time>2026-05-17T12:07:46+02:00</time>
      </trkpt>
      <trkpt lat="48.07924" lon="6.29486">
        <ele>312.5</ele>
        <time>2026-05-17T12:07:47+02:00</time>
      </trkpt>
      <trkpt lat="48.07928" lon="6.29491">
        <ele>312.6006</ele>
        <time>2026-05-17T12:07:48+02:00</time>
      </trkpt>
      <trkpt lat="48.07932" lon="6.29496">
        <ele>312.7002</ele>
        <time>2026-05-17T12:07:49+02:00</time>
      </trkpt>
      <trkpt lat="48.07936" lon="6.29501">
        <ele>312.7998</ele>
        <time>2026-05-17T12:07:50+02:00</time>
      </trkpt>
      <trkpt lat="48.07939" lon="6.29507">
        <ele>312.7998</ele>
        <time>2026-05-17T12:07:51+02:00</time>
      </trkpt>
      <trkpt lat="48.07943" lon="6.29512">
        <ele>312.7998</ele>
        <time>2026-05-17T12:07:52+02:00</time>
      </trkpt>
      <trkpt lat="48.07947" lon="6.29518">
        <ele>312.4004</ele>
        <time>2026-05-17T12:07:53+02:00</time>
      </trkpt>
      <trkpt lat="48.07951" lon="6.29524">
        <ele>312.4004</ele>
        <time>2026-05-17T12:07:54+02:00</time>
      </trkpt>
      <trkpt lat="48.07954" lon="6.2953">
        <ele>311.7002</ele>
        <time>2026-05-17T12:07:55+02:00</time>
      </trkpt>
      <trkpt lat="48.07958" lon="6.29536">
        <ele>311.2002</ele>
        <time>2026-05-17T12:07:56+02:00</time>
      </trkpt>
      <trkpt lat="48.07961" lon="6.29542">
        <ele>311.2002</ele>
        <time>2026-05-17T12:07:57+02:00</time>
      </trkpt>
      <trkpt lat="48.07965" lon="6.29548">
        <ele>310.9004</ele>
        <time>2026-05-17T12:07:58+02:00</time>
      </trkpt>
      <trkpt lat="48.07969" lon="6.29554">
        <ele>311.2002</ele>
        <time>2026-05-17T12:07:59+02:00</time>
      </trkpt>
      <trkpt lat="48.07972" lon="6.29561">
        <ele>311.2998</ele>
        <time>2026-05-17T12:08:00+02:00</time>
      </trkpt>
      <trkpt lat="48.07976" lon="6.29567">
        <ele>312</ele>
        <time>2026-05-17T12:08:01+02:00</time>
      </trkpt>
      <trkpt lat="48.0798" lon="6.29573">
        <ele>313.2002</ele>
        <time>2026-05-17T12:08:02+02:00</time>
      </trkpt>
      <trkpt lat="48.07983" lon="6.29579">
        <ele>313.2998</ele>
        <time>2026-05-17T12:08:03+02:00</time>
      </trkpt>
      <trkpt lat="48.07987" lon="6.29584">
        <ele>314.5</ele>
        <time>2026-05-17T12:08:04+02:00</time>
      </trkpt>
      <trkpt lat="48.0799" lon="6.29589">
        <ele>314</ele>
        <time>2026-05-17T12:08:05+02:00</time>
      </trkpt>
      <trkpt lat="48.07993" lon="6.29593">
        <ele>315</ele>
        <time>2026-05-17T12:08:06+02:00</time>
      </trkpt>
      <trkpt lat="48.07996" lon="6.29597">
        <ele>314.4004</ele>
        <time>2026-05-17T12:08:07+02:00</time>
      </trkpt>
      <trkpt lat="48.07998" lon="6.29601">
        <ele>315.2002</ele>
        <time>2026-05-17T12:08:08+02:00</time>
      </trkpt>
      <trkpt lat="48.08001" lon="6.29605">
        <ele>314.4004</ele>
        <time>2026-05-17T12:08:09+02:00</time>
      </trkpt>
      <trkpt lat="48.08003" lon="6.29607">
        <ele>314.4004</ele>
        <time>2026-05-17T12:08:10+02:00</time>
      </trkpt>
      <trkpt lat="48.08005" lon="6.29609">
        <ele>315.2998</ele>
        <time>2026-05-17T12:08:11+02:00</time>
      </trkpt>
      <trkpt lat="48.08006" lon="6.29611">
        <ele>315.2998</ele>
        <time>2026-05-17T12:08:12+02:00</time>
      </trkpt>
      <trkpt lat="48.08007" lon="6.29614">
        <ele>314.4004</ele>
        <time>2026-05-17T12:08:13+02:00</time>
      </trkpt>
      <trkpt lat="48.08008" lon="6.29618">
        <ele>314.4004</ele>
        <time>2026-05-17T12:08:14+02:00</time>
      </trkpt>
      <trkpt lat="48.0801" lon="6.29622">
        <ele>314.5</ele>
        <time>2026-05-17T12:08:15+02:00</time>
      </trkpt>
      <trkpt lat="48.08013" lon="6.29627">
        <ele>314.5</ele>
        <time>2026-05-17T12:08:16+02:00</time>
      </trkpt>
      <trkpt lat="48.08015" lon="6.29631">
        <ele>314.6006</ele>
        <time>2026-05-17T12:08:17+02:00</time>
      </trkpt>
      <trkpt lat="48.08018" lon="6.29636">
        <ele>314.6006</ele>
        <time>2026-05-17T12:08:18+02:00</time>
      </trkpt>
      <trkpt lat="48.08021" lon="6.29642">
        <ele>314.7998</ele>
        <time>2026-05-17T12:08:19+02:00</time>
      </trkpt>
      <trkpt lat="48.08023" lon="6.29648">
        <ele>314</ele>
        <time>2026-05-17T12:08:20+02:00</time>
      </trkpt>
      <trkpt lat="48.08025" lon="6.29653">
        <ele>314</ele>
        <time>2026-05-17T12:08:21+02:00</time>
      </trkpt>
      <trkpt lat="48.08028" lon="6.29659">
        <ele>314.2002</ele>
        <time>2026-05-17T12:08:22+02:00</time>
      </trkpt>
      <trkpt lat="48.08031" lon="6.29664">
        <ele>313.5</ele>
        <time>2026-05-17T12:08:23+02:00</time>
      </trkpt>
      <trkpt lat="48.08035" lon="6.2967">
        <ele>314.1006</ele>
        <time>2026-05-17T12:08:24+02:00</time>
      </trkpt>
      <trkpt lat="48.08038" lon="6.29676">
        <ele>314.1006</ele>
        <time>2026-05-17T12:08:25+02:00</time>
      </trkpt>
      <trkpt lat="48.08041" lon="6.29682">
        <ele>313.6006</ele>
        <time>2026-05-17T12:08:26+02:00</time>
      </trkpt>
      <trkpt lat="48.08045" lon="6.29688">
        <ele>314.2002</ele>
        <time>2026-05-17T12:08:27+02:00</time>
      </trkpt>
      <trkpt lat="48.08048" lon="6.29694">
        <ele>313.6006</ele>
        <time>2026-05-17T12:08:28+02:00</time>
      </trkpt>
      <trkpt lat="48.08051" lon="6.29701">
        <ele>313.6006</ele>
        <time>2026-05-17T12:08:29+02:00</time>
      </trkpt>
      <trkpt lat="48.08055" lon="6.29707">
        <ele>313.6006</ele>
        <time>2026-05-17T12:08:30+02:00</time>
      </trkpt>
      <trkpt lat="48.08059" lon="6.29714">
        <ele>312.9004</ele>
        <time>2026-05-17T12:08:31+02:00</time>
      </trkpt>
      <trkpt lat="48.08062" lon="6.2972">
        <ele>313.5</ele>
        <time>2026-05-17T12:08:32+02:00</time>
      </trkpt>
      <trkpt lat="48.08067" lon="6.29726">
        <ele>313.2998</ele>
        <time>2026-05-17T12:08:33+02:00</time>
      </trkpt>
      <trkpt lat="48.0807" lon="6.29732">
        <ele>312.6006</ele>
        <time>2026-05-17T12:08:34+02:00</time>
      </trkpt>
      <trkpt lat="48.08074" lon="6.29739">
        <ele>313.2002</ele>
        <time>2026-05-17T12:08:35+02:00</time>
      </trkpt>
      <trkpt lat="48.08078" lon="6.29746">
        <ele>313.1006</ele>
        <time>2026-05-17T12:08:36+02:00</time>
      </trkpt>
      <trkpt lat="48.08082" lon="6.29752">
        <ele>312.4004</ele>
        <time>2026-05-17T12:08:37+02:00</time>
      </trkpt>
      <trkpt lat="48.08085" lon="6.29758">
        <ele>312.2002</ele>
        <time>2026-05-17T12:08:38+02:00</time>
      </trkpt>
      <trkpt lat="48.08089" lon="6.29764">
        <ele>312.5</ele>
        <time>2026-05-17T12:08:39+02:00</time>
      </trkpt>
      <trkpt lat="48.08092" lon="6.29771">
        <ele>311.9004</ele>
        <time>2026-05-17T12:08:40+02:00</time>
      </trkpt>
      <trkpt lat="48.08096" lon="6.29778">
        <ele>311.9004</ele>
        <time>2026-05-17T12:08:41+02:00</time>
      </trkpt>
      <trkpt lat="48.08099" lon="6.29784">
        <ele>311.4004</ele>
        <time>2026-05-17T12:08:42+02:00</time>
      </trkpt>
      <trkpt lat="48.08103" lon="6.29791">
        <ele>311.7998</ele>
        <time>2026-05-17T12:08:43+02:00</time>
      </trkpt>
      <trkpt lat="48.08107" lon="6.29798">
        <ele>311.7002</ele>
        <time>2026-05-17T12:08:44+02:00</time>
      </trkpt>
      <trkpt lat="48.08111" lon="6.29805">
        <ele>311.2002</ele>
        <time>2026-05-17T12:08:45+02:00</time>
      </trkpt>
      <trkpt lat="48.08115" lon="6.29811">
        <ele>310.9004</ele>
        <time>2026-05-17T12:08:46+02:00</time>
      </trkpt>
      <trkpt lat="48.08119" lon="6.29818">
        <ele>310.6006</ele>
        <time>2026-05-17T12:08:47+02:00</time>
      </trkpt>
      <trkpt lat="48.08122" lon="6.29825">
        <ele>310.6006</ele>
        <time>2026-05-17T12:08:48+02:00</time>
      </trkpt>
      <trkpt lat="48.08126" lon="6.29832">
        <ele>310.2998</ele>
        <time>2026-05-17T12:08:49+02:00</time>
      </trkpt>
      <trkpt lat="48.0813" lon="6.29838">
        <ele>310</ele>
        <time>2026-05-17T12:08:50+02:00</time>
      </trkpt>
      <trkpt lat="48.08133" lon="6.29845">
        <ele>309.6006</ele>
        <time>2026-05-17T12:08:51+02:00</time>
      </trkpt>
      <trkpt lat="48.08137" lon="6.29852">
        <ele>309.2998</ele>
        <time>2026-05-17T12:08:52+02:00</time>
      </trkpt>
      <trkpt lat="48.08141" lon="6.29858">
        <ele>309.2998</ele>
        <time>2026-05-17T12:08:53+02:00</time>
      </trkpt>
      <trkpt lat="48.08145" lon="6.29865">
        <ele>309.1006</ele>
        <time>2026-05-17T12:08:54+02:00</time>
      </trkpt>
      <trkpt lat="48.08149" lon="6.29872">
        <ele>308.9004</ele>
        <time>2026-05-17T12:08:55+02:00</time>
      </trkpt>
      <trkpt lat="48.08153" lon="6.29879">
        <ele>308.7998</ele>
        <time>2026-05-17T12:08:56+02:00</time>
      </trkpt>
      <trkpt lat="48.08157" lon="6.29885">
        <ele>308.7998</ele>
        <time>2026-05-17T12:08:57+02:00</time>
      </trkpt>
      <trkpt lat="48.08161" lon="6.29892">
        <ele>308.9004</ele>
        <time>2026-05-17T12:08:58+02:00</time>
      </trkpt>
      <trkpt lat="48.08165" lon="6.29899">
        <ele>309</ele>
        <time>2026-05-17T12:08:59+02:00</time>
      </trkpt>
      <trkpt lat="48.08169" lon="6.29906">
        <ele>308.9004</ele>
        <time>2026-05-17T12:09:00+02:00</time>
      </trkpt>
      <trkpt lat="48.08172" lon="6.29912">
        <ele>308.9004</ele>
        <time>2026-05-17T12:09:01+02:00</time>
      </trkpt>
      <trkpt lat="48.08176" lon="6.29919">
        <ele>308.9004</ele>
        <time>2026-05-17T12:09:02+02:00</time>
      </trkpt>
      <trkpt lat="48.08179" lon="6.29925">
        <ele>308.9004</ele>
        <time>2026-05-17T12:09:03+02:00</time>
      </trkpt>
      <trkpt lat="48.08183" lon="6.29931">
        <ele>308.9004</ele>
        <time>2026-05-17T12:09:04+02:00</time>
      </trkpt>
      <trkpt lat="48.08186" lon="6.29938">
        <ele>309</ele>
        <time>2026-05-17T12:09:05+02:00</time>
      </trkpt>
      <trkpt lat="48.0819" lon="6.29944">
        <ele>308.9004</ele>
        <time>2026-05-17T12:09:06+02:00</time>
      </trkpt>
      <trkpt lat="48.08193" lon="6.2995">
        <ele>308.9004</ele>
        <time>2026-05-17T12:09:07+02:00</time>
      </trkpt>
      <trkpt lat="48.08197" lon="6.29957">
        <ele>309</ele>
        <time>2026-05-17T12:09:08+02:00</time>
      </trkpt>
      <trkpt lat="48.08201" lon="6.29963">
        <ele>309</ele>
        <time>2026-05-17T12:09:09+02:00</time>
      </trkpt>
      <trkpt lat="48.08204" lon="6.2997">
        <ele>309</ele>
        <time>2026-05-17T12:09:10+02:00</time>
      </trkpt>
      <trkpt lat="48.08207" lon="6.29976">
        <ele>309.1006</ele>
        <time>2026-05-17T12:09:11+02:00</time>
      </trkpt>
      <trkpt lat="48.08211" lon="6.29982">
        <ele>309.1006</ele>
        <time>2026-05-17T12:09:12+02:00</time>
      </trkpt>
      <trkpt lat="48.08215" lon="6.29988">
        <ele>309.1006</ele>
        <time>2026-05-17T12:09:13+02:00</time>
      </trkpt>
      <trkpt lat="48.08219" lon="6.29995">
        <ele>309.1006</ele>
        <time>2026-05-17T12:09:14+02:00</time>
      </trkpt>
      <trkpt lat="48.08222" lon="6.30001">
        <ele>309.1006</ele>
        <time>2026-05-17T12:09:15+02:00</time>
      </trkpt>
      <trkpt lat="48.08226" lon="6.30007">
        <ele>309.2002</ele>
        <time>2026-05-17T12:09:16+02:00</time>
      </trkpt>
      <trkpt lat="48.08229" lon="6.30014">
        <ele>309.1006</ele>
        <time>2026-05-17T12:09:17+02:00</time>
      </trkpt>
      <trkpt lat="48.08233" lon="6.3002">
        <ele>309.1006</ele>
        <time>2026-05-17T12:09:18+02:00</time>
      </trkpt>
      <trkpt lat="48.08236" lon="6.30026">
        <ele>309.2998</ele>
        <time>2026-05-17T12:09:19+02:00</time>
      </trkpt>
      <trkpt lat="48.08239" lon="6.30032">
        <ele>309.4004</ele>
        <time>2026-05-17T12:09:20+02:00</time>
      </trkpt>
      <trkpt lat="48.08243" lon="6.30039">
        <ele>309.4004</ele>
        <time>2026-05-17T12:09:21+02:00</time>
      </trkpt>
      <trkpt lat="48.08246" lon="6.30045">
        <ele>309.4004</ele>
        <time>2026-05-17T12:09:22+02:00</time>
      </trkpt>
      <trkpt lat="48.0825" lon="6.30051">
        <ele>309.5</ele>
        <time>2026-05-17T12:09:23+02:00</time>
      </trkpt>
      <trkpt lat="48.08254" lon="6.30058">
        <ele>309.6006</ele>
        <time>2026-05-17T12:09:24+02:00</time>
      </trkpt>
      <trkpt lat="48.08257" lon="6.30064">
        <ele>309.5</ele>
        <time>2026-05-17T12:09:25+02:00</time>
      </trkpt>
      <trkpt lat="48.08261" lon="6.30071">
        <ele>309.6006</ele>
        <time>2026-05-17T12:09:26+02:00</time>
      </trkpt>
      <trkpt lat="48.08264" lon="6.30077">
        <ele>309.7998</ele>
        <time>2026-05-17T12:09:27+02:00</time>
      </trkpt>
      <trkpt lat="48.08268" lon="6.30084">
        <ele>309.7998</ele>
        <time>2026-05-17T12:09:28+02:00</time>
      </trkpt>
      <trkpt lat="48.08272" lon="6.3009">
        <ele>309.7998</ele>
        <time>2026-05-17T12:09:29+02:00</time>
      </trkpt>
      <trkpt lat="48.08275" lon="6.30097">
        <ele>309.7998</ele>
        <time>2026-05-17T12:09:30+02:00</time>
      </trkpt>
      <trkpt lat="48.08279" lon="6.30103">
        <ele>309.9004</ele>
        <time>2026-05-17T12:09:31+02:00</time>
      </trkpt>
      <trkpt lat="48.08283" lon="6.3011">
        <ele>309.9004</ele>
        <time>2026-05-17T12:09:32+02:00</time>
      </trkpt>
      <trkpt lat="48.08286" lon="6.30116">
        <ele>309.9004</ele>
        <time>2026-05-17T12:09:33+02:00</time>
      </trkpt>
      <trkpt lat="48.0829" lon="6.30123">
        <ele>309.7998</ele>
        <time>2026-05-17T12:09:34+02:00</time>
      </trkpt>
      <trkpt lat="48.08293" lon="6.30129">
        <ele>309.7998</ele>
        <time>2026-05-17T12:09:35+02:00</time>
      </trkpt>
      <trkpt lat="48.08297" lon="6.30135">
        <ele>309.6006</ele>
        <time>2026-05-17T12:09:36+02:00</time>
      </trkpt>
      <trkpt lat="48.08301" lon="6.30142">
        <ele>309.5</ele>
        <time>2026-05-17T12:09:37+02:00</time>
      </trkpt>
      <trkpt lat="48.08304" lon="6.30148">
        <ele>309.5</ele>
        <time>2026-05-17T12:09:38+02:00</time>
      </trkpt>
      <trkpt lat="48.08307" lon="6.30154">
        <ele>309.4004</ele>
        <time>2026-05-17T12:09:39+02:00</time>
      </trkpt>
      <trkpt lat="48.08311" lon="6.3016">
        <ele>309.4004</ele>
        <time>2026-05-17T12:09:40+02:00</time>
      </trkpt>
      <trkpt lat="48.08314" lon="6.30166">
        <ele>309.2002</ele>
        <time>2026-05-17T12:09:41+02:00</time>
      </trkpt>
      <trkpt lat="48.08318" lon="6.30172">
        <ele>309.2998</ele>
        <time>2026-05-17T12:09:42+02:00</time>
      </trkpt>
      <trkpt lat="48.08321" lon="6.30178">
        <ele>309.2002</ele>
        <time>2026-05-17T12:09:43+02:00</time>
      </trkpt>
      <trkpt lat="48.08324" lon="6.30183">
        <ele>309.1006</ele>
        <time>2026-05-17T12:09:44+02:00</time>
      </trkpt>
      <trkpt lat="48.08327" lon="6.30189">
        <ele>309.1006</ele>
        <time>2026-05-17T12:09:45+02:00</time>
      </trkpt>
      <trkpt lat="48.08331" lon="6.30194">
        <ele>309</ele>
        <time>2026-05-17T12:09:46+02:00</time>
      </trkpt>
      <trkpt lat="48.08334" lon="6.302">
        <ele>309.1006</ele>
        <time>2026-05-17T12:09:47+02:00</time>
      </trkpt>
      <trkpt lat="48.08337" lon="6.30206">
        <ele>309.1006</ele>
        <time>2026-05-17T12:09:48+02:00</time>
      </trkpt>
      <trkpt lat="48.08341" lon="6.30213">
        <ele>309.2002</ele>
        <time>2026-05-17T12:09:49+02:00</time>
      </trkpt>
      <trkpt lat="48.08344" lon="6.30219">
        <ele>309.1006</ele>
        <time>2026-05-17T12:09:50+02:00</time>
      </trkpt>
      <trkpt lat="48.08347" lon="6.30225">
        <ele>309</ele>
        <time>2026-05-17T12:09:51+02:00</time>
      </trkpt>
      <trkpt lat="48.08351" lon="6.30232">
        <ele>309.1006</ele>
        <time>2026-05-17T12:09:52+02:00</time>
      </trkpt>
      <trkpt lat="48.08354" lon="6.30238">
        <ele>309.1006</ele>
        <time>2026-05-17T12:09:53+02:00</time>
      </trkpt>
      <trkpt lat="48.08358" lon="6.30244">
        <ele>309.1006</ele>
        <time>2026-05-17T12:09:54+02:00</time>
      </trkpt>
      <trkpt lat="48.08362" lon="6.3025">
        <ele>309.1006</ele>
        <time>2026-05-17T12:09:55+02:00</time>
      </trkpt>
      <trkpt lat="48.08365" lon="6.30257">
        <ele>309</ele>
        <time>2026-05-17T12:09:56+02:00</time>
      </trkpt>
      <trkpt lat="48.08368" lon="6.30263">
        <ele>309</ele>
        <time>2026-05-17T12:09:57+02:00</time>
      </trkpt>
      <trkpt lat="48.08372" lon="6.3027">
        <ele>309</ele>
        <time>2026-05-17T12:09:58+02:00</time>
      </trkpt>
      <trkpt lat="48.08375" lon="6.30276">
        <ele>309</ele>
        <time>2026-05-17T12:09:59+02:00</time>
      </trkpt>
      <trkpt lat="48.08379" lon="6.30283">
        <ele>308.9004</ele>
        <time>2026-05-17T12:10:00+02:00</time>
      </trkpt>
      <trkpt lat="48.08382" lon="6.30289">
        <ele>308.7998</ele>
        <time>2026-05-17T12:10:01+02:00</time>
      </trkpt>
      <trkpt lat="48.08386" lon="6.30295">
        <ele>308.7998</ele>
        <time>2026-05-17T12:10:02+02:00</time>
      </trkpt>
      <trkpt lat="48.08389" lon="6.30301">
        <ele>308.7002</ele>
        <time>2026-05-17T12:10:03+02:00</time>
      </trkpt>
      <trkpt lat="48.08392" lon="6.30308">
        <ele>308.7002</ele>
        <time>2026-05-17T12:10:04+02:00</time>
      </trkpt>
      <trkpt lat="48.08396" lon="6.30314">
        <ele>308.6006</ele>
        <time>2026-05-17T12:10:05+02:00</time>
      </trkpt>
      <trkpt lat="48.08399" lon="6.3032">
        <ele>308.6006</ele>
        <time>2026-05-17T12:10:06+02:00</time>
      </trkpt>
      <trkpt lat="48.08403" lon="6.30326">
        <ele>308.6006</ele>
        <time>2026-05-17T12:10:07+02:00</time>
      </trkpt>
      <trkpt lat="48.08407" lon="6.30332">
        <ele>308.5</ele>
        <time>2026-05-17T12:10:08+02:00</time>
      </trkpt>
      <trkpt lat="48.08411" lon="6.30338">
        <ele>308.5</ele>
        <time>2026-05-17T12:10:09+02:00</time>
      </trkpt>
      <trkpt lat="48.08415" lon="6.30344">
        <ele>308.5</ele>
        <time>2026-05-17T12:10:10+02:00</time>
      </trkpt>
      <trkpt lat="48.08419" lon="6.3035">
        <ele>308.4004</ele>
        <time>2026-05-17T12:10:11+02:00</time>
      </trkpt>
      <trkpt lat="48.08423" lon="6.30356">
        <ele>308.4004</ele>
        <time>2026-05-17T12:10:12+02:00</time>
      </trkpt>
      <trkpt lat="48.08427" lon="6.30361">
        <ele>308.4004</ele>
        <time>2026-05-17T12:10:13+02:00</time>
      </trkpt>
      <trkpt lat="48.08432" lon="6.30367">
        <ele>308.4004</ele>
        <time>2026-05-17T12:10:14+02:00</time>
      </trkpt>
      <trkpt lat="48.08436" lon="6.30373">
        <ele>308.4004</ele>
        <time>2026-05-17T12:10:15+02:00</time>
      </trkpt>
      <trkpt lat="48.08441" lon="6.30379">
        <ele>308.4004</ele>
        <time>2026-05-17T12:10:16+02:00</time>
      </trkpt>
      <trkpt lat="48.08445" lon="6.30385">
        <ele>308.4004</ele>
        <time>2026-05-17T12:10:17+02:00</time>
      </trkpt>
      <trkpt lat="48.08449" lon="6.30391">
        <ele>308.4004</ele>
        <time>2026-05-17T12:10:18+02:00</time>
      </trkpt>
      <trkpt lat="48.08453" lon="6.30396">
        <ele>308.4004</ele>
        <time>2026-05-17T12:10:19+02:00</time>
      </trkpt>
      <trkpt lat="48.08456" lon="6.30401">
        <ele>308.5</ele>
        <time>2026-05-17T12:10:20+02:00</time>
      </trkpt>
      <trkpt lat="48.08458" lon="6.30405">
        <ele>308.5</ele>
        <time>2026-05-17T12:10:21+02:00</time>
      </trkpt>
      <trkpt lat="48.08461" lon="6.30408">
        <ele>308.5</ele>
        <time>2026-05-17T12:10:22+02:00</time>
      </trkpt>
      <trkpt lat="48.08463" lon="6.3041">
        <ele>308.6006</ele>
        <time>2026-05-17T12:10:23+02:00</time>
      </trkpt>
      <trkpt lat="48.08465" lon="6.30412">
        <ele>308.6006</ele>
        <time>2026-05-17T12:10:24+02:00</time>
      </trkpt>
      <trkpt lat="48.08467" lon="6.30413">
        <ele>308.6006</ele>
        <time>2026-05-17T12:10:25+02:00</time>
      </trkpt>
      <trkpt lat="48.0847" lon="6.30415">
        <ele>308.6006</ele>
        <time>2026-05-17T12:10:26+02:00</time>
      </trkpt>
      <trkpt lat="48.08473" lon="6.30417">
        <ele>308.6006</ele>
        <time>2026-05-17T12:10:27+02:00</time>
      </trkpt>
      <trkpt lat="48.08476" lon="6.30419">
        <ele>308.7002</ele>
        <time>2026-05-17T12:10:28+02:00</time>
      </trkpt>
      <trkpt lat="48.08479" lon="6.30421">
        <ele>308.7002</ele>
        <time>2026-05-17T12:10:29+02:00</time>
      </trkpt>
      <trkpt lat="48.08482" lon="6.30424">
        <ele>308.7002</ele>
        <time>2026-05-17T12:10:30+02:00</time>
      </trkpt>
      <trkpt lat="48.08485" lon="6.30427">
        <ele>308.9004</ele>
        <time>2026-05-17T12:10:31+02:00</time>
      </trkpt>
      <trkpt lat="48.08487" lon="6.30431">
        <ele>308.9004</ele>
        <time>2026-05-17T12:10:32+02:00</time>
      </trkpt>
      <trkpt lat="48.08491" lon="6.30434">
        <ele>308.9004</ele>
        <time>2026-05-17T12:10:33+02:00</time>
      </trkpt>
      <trkpt lat="48.08494" lon="6.30438">
        <ele>309</ele>
        <time>2026-05-17T12:10:34+02:00</time>
      </trkpt>
      <trkpt lat="48.08497" lon="6.30441">
        <ele>309.1006</ele>
        <time>2026-05-17T12:10:35+02:00</time>
      </trkpt>
      <trkpt lat="48.085" lon="6.30445">
        <ele>309.2998</ele>
        <time>2026-05-17T12:10:36+02:00</time>
      </trkpt>
      <trkpt lat="48.08503" lon="6.30449">
        <ele>309.4004</ele>
        <time>2026-05-17T12:10:37+02:00</time>
      </trkpt>
      <trkpt lat="48.08506" lon="6.30453">
        <ele>309.6006</ele>
        <time>2026-05-17T12:10:38+02:00</time>
      </trkpt>
      <trkpt lat="48.08509" lon="6.30457">
        <ele>309.7998</ele>
        <time>2026-05-17T12:10:39+02:00</time>
      </trkpt>
      <trkpt lat="48.08512" lon="6.30461">
        <ele>310</ele>
        <time>2026-05-17T12:10:40+02:00</time>
      </trkpt>
      <trkpt lat="48.08515" lon="6.30465">
        <ele>310.2998</ele>
        <time>2026-05-17T12:10:41+02:00</time>
      </trkpt>
      <trkpt lat="48.08519" lon="6.30469">
        <ele>310.7002</ele>
        <time>2026-05-17T12:10:42+02:00</time>
      </trkpt>
      <trkpt lat="48.08522" lon="6.30473">
        <ele>310.9004</ele>
        <time>2026-05-17T12:10:43+02:00</time>
      </trkpt>
      <trkpt lat="48.08525" lon="6.30478">
        <ele>311.2998</ele>
        <time>2026-05-17T12:10:44+02:00</time>
      </trkpt>
      <trkpt lat="48.08529" lon="6.30482">
        <ele>311.2998</ele>
        <time>2026-05-17T12:10:45+02:00</time>
      </trkpt>
      <trkpt lat="48.08532" lon="6.30486">
        <ele>311.6006</ele>
        <time>2026-05-17T12:10:46+02:00</time>
      </trkpt>
      <trkpt lat="48.08536" lon="6.30491">
        <ele>312</ele>
        <time>2026-05-17T12:10:47+02:00</time>
      </trkpt>
      <trkpt lat="48.08539" lon="6.30496">
        <ele>312.1006</ele>
        <time>2026-05-17T12:10:48+02:00</time>
      </trkpt>
      <trkpt lat="48.08544" lon="6.305">
        <ele>312.4004</ele>
        <time>2026-05-17T12:10:49+02:00</time>
      </trkpt>
      <trkpt lat="48.08547" lon="6.30505">
        <ele>312.2998</ele>
        <time>2026-05-17T12:10:50+02:00</time>
      </trkpt>
      <trkpt lat="48.08552" lon="6.3051">
        <ele>312.4004</ele>
        <time>2026-05-17T12:10:51+02:00</time>
      </trkpt>
      <trkpt lat="48.08556" lon="6.30515">
        <ele>312.5</ele>
        <time>2026-05-17T12:10:52+02:00</time>
      </trkpt>
      <trkpt lat="48.0856" lon="6.3052">
        <ele>312.6006</ele>
        <time>2026-05-17T12:10:53+02:00</time>
      </trkpt>
      <trkpt lat="48.08564" lon="6.30525">
        <ele>312.7002</ele>
        <time>2026-05-17T12:10:54+02:00</time>
      </trkpt>
      <trkpt lat="48.08568" lon="6.3053">
        <ele>313</ele>
        <time>2026-05-17T12:10:55+02:00</time>
      </trkpt>
      <trkpt lat="48.08572" lon="6.30535">
        <ele>313.2002</ele>
        <time>2026-05-17T12:10:56+02:00</time>
      </trkpt>
      <trkpt lat="48.08576" lon="6.3054">
        <ele>313</ele>
        <time>2026-05-17T12:10:57+02:00</time>
      </trkpt>
      <trkpt lat="48.08581" lon="6.30545">
        <ele>313.1006</ele>
        <time>2026-05-17T12:10:58+02:00</time>
      </trkpt>
      <trkpt lat="48.08585" lon="6.30551">
        <ele>312.9004</ele>
        <time>2026-05-17T12:10:59+02:00</time>
      </trkpt>
      <trkpt lat="48.08589" lon="6.30556">
        <ele>312.7998</ele>
        <time>2026-05-17T12:11:00+02:00</time>
      </trkpt>
      <trkpt lat="48.08594" lon="6.30562">
        <ele>312.7998</ele>
        <time>2026-05-17T12:11:01+02:00</time>
      </trkpt>
      <trkpt lat="48.08598" lon="6.30567">
        <ele>312.7998</ele>
        <time>2026-05-17T12:11:02+02:00</time>
      </trkpt>
      <trkpt lat="48.08602" lon="6.30573">
        <ele>312.7998</ele>
        <time>2026-05-17T12:11:03+02:00</time>
      </trkpt>
      <trkpt lat="48.08607" lon="6.30578">
        <ele>312.7998</ele>
        <time>2026-05-17T12:11:04+02:00</time>
      </trkpt>
      <trkpt lat="48.08611" lon="6.30584">
        <ele>312.7002</ele>
        <time>2026-05-17T12:11:05+02:00</time>
      </trkpt>
      <trkpt lat="48.08616" lon="6.30589">
        <ele>312.7002</ele>
        <time>2026-05-17T12:11:06+02:00</time>
      </trkpt>
      <trkpt lat="48.08621" lon="6.30594">
        <ele>312.7002</ele>
        <time>2026-05-17T12:11:07+02:00</time>
      </trkpt>
      <trkpt lat="48.08626" lon="6.30599">
        <ele>312.7002</ele>
        <time>2026-05-17T12:11:08+02:00</time>
      </trkpt>
      <trkpt lat="48.08631" lon="6.30604">
        <ele>312.7998</ele>
        <time>2026-05-17T12:11:09+02:00</time>
      </trkpt>
      <trkpt lat="48.08635" lon="6.30608">
        <ele>312.7002</ele>
        <time>2026-05-17T12:11:10+02:00</time>
      </trkpt>
      <trkpt lat="48.0864" lon="6.30612">
        <ele>312.7998</ele>
        <time>2026-05-17T12:11:11+02:00</time>
      </trkpt>
      <trkpt lat="48.08646" lon="6.30617">
        <ele>312.7998</ele>
        <time>2026-05-17T12:11:12+02:00</time>
      </trkpt>
      <trkpt lat="48.08651" lon="6.30621">
        <ele>312.7998</ele>
        <time>2026-05-17T12:11:13+02:00</time>
      </trkpt>
      <trkpt lat="48.08656" lon="6.30625">
        <ele>312.7002</ele>
        <time>2026-05-17T12:11:14+02:00</time>
      </trkpt>
      <trkpt lat="48.08661" lon="6.30628">
        <ele>312.7998</ele>
        <time>2026-05-17T12:11:15+02:00</time>
      </trkpt>
      <trkpt lat="48.08666" lon="6.30632">
        <ele>313</ele>
        <time>2026-05-17T12:11:16+02:00</time>
      </trkpt>
      <trkpt lat="48.08671" lon="6.30635">
        <ele>313.2002</ele>
        <time>2026-05-17T12:11:17+02:00</time>
      </trkpt>
      <trkpt lat="48.08676" lon="6.30639">
        <ele>313.2998</ele>
        <time>2026-05-17T12:11:18+02:00</time>
      </trkpt>
      <trkpt lat="48.0868" lon="6.30642">
        <ele>313.4004</ele>
        <time>2026-05-17T12:11:19+02:00</time>
      </trkpt>
      <trkpt lat="48.08686" lon="6.30646">
        <ele>313.5</ele>
        <time>2026-05-17T12:11:20+02:00</time>
      </trkpt>
      <trkpt lat="48.08691" lon="6.30649">
        <ele>313.6006</ele>
        <time>2026-05-17T12:11:21+02:00</time>
      </trkpt>
      <trkpt lat="48.08696" lon="6.30653">
        <ele>313.7002</ele>
        <time>2026-05-17T12:11:22+02:00</time>
      </trkpt>
      <trkpt lat="48.08701" lon="6.30656">
        <ele>313.7998</ele>
        <time>2026-05-17T12:11:23+02:00</time>
      </trkpt>
      <trkpt lat="48.08707" lon="6.3066">
        <ele>314.1006</ele>
        <time>2026-05-17T12:11:24+02:00</time>
      </trkpt>
      <trkpt lat="48.08712" lon="6.30664">
        <ele>314.2002</ele>
        <time>2026-05-17T12:11:25+02:00</time>
      </trkpt>
      <trkpt lat="48.08717" lon="6.30667">
        <ele>314.4004</ele>
        <time>2026-05-17T12:11:26+02:00</time>
      </trkpt>
      <trkpt lat="48.08722" lon="6.30671">
        <ele>314.2998</ele>
        <time>2026-05-17T12:11:27+02:00</time>
      </trkpt>
      <trkpt lat="48.08728" lon="6.30675">
        <ele>314.2998</ele>
        <time>2026-05-17T12:11:28+02:00</time>
      </trkpt>
      <trkpt lat="48.08733" lon="6.30678">
        <ele>314.6006</ele>
        <time>2026-05-17T12:11:29+02:00</time>
      </trkpt>
      <trkpt lat="48.08738" lon="6.30682">
        <ele>314.6006</ele>
        <time>2026-05-17T12:11:30+02:00</time>
      </trkpt>
      <trkpt lat="48.08743" lon="6.30685">
        <ele>314.9004</ele>
        <time>2026-05-17T12:11:31+02:00</time>
      </trkpt>
      <trkpt lat="48.08748" lon="6.30688">
        <ele>314.9004</ele>
        <time>2026-05-17T12:11:32+02:00</time>
      </trkpt>
      <trkpt lat="48.08753" lon="6.30692">
        <ele>314.7998</ele>
        <time>2026-05-17T12:11:33+02:00</time>
      </trkpt>
      <trkpt lat="48.08757" lon="6.30695">
        <ele>315.2002</ele>
        <time>2026-05-17T12:11:34+02:00</time>
      </trkpt>
      <trkpt lat="48.08776" lon="6.30709">
        <ele>314.9004</ele>
        <time>2026-05-17T12:11:35+02:00</time>
      </trkpt>
      <trkpt lat="48.08781" lon="6.30713">
        <ele>314.7998</ele>
        <time>2026-05-17T12:11:36+02:00</time>
      </trkpt>
      <trkpt lat="48.08787" lon="6.30716">
        <ele>314.6006</ele>
        <time>2026-05-17T12:11:37+02:00</time>
      </trkpt>
      <trkpt lat="48.08792" lon="6.30721">
        <ele>314.6006</ele>
        <time>2026-05-17T12:11:38+02:00</time>
      </trkpt>
      <trkpt lat="48.08798" lon="6.30724">
        <ele>314.2998</ele>
        <time>2026-05-17T12:11:39+02:00</time>
      </trkpt>
      <trkpt lat="48.08803" lon="6.30729">
        <ele>314.2998</ele>
        <time>2026-05-17T12:11:40+02:00</time>
      </trkpt>
      <trkpt lat="48.08809" lon="6.30733">
        <ele>314.1006</ele>
        <time>2026-05-17T12:11:41+02:00</time>
      </trkpt>
      <trkpt lat="48.08815" lon="6.30737">
        <ele>314</ele>
        <time>2026-05-17T12:11:42+02:00</time>
      </trkpt>
      <trkpt lat="48.0882" lon="6.30741">
        <ele>313.9004</ele>
        <time>2026-05-17T12:11:43+02:00</time>
      </trkpt>
      <trkpt lat="48.08826" lon="6.30745">
        <ele>313.9004</ele>
        <time>2026-05-17T12:11:44+02:00</time>
      </trkpt>
      <trkpt lat="48.08832" lon="6.30749">
        <ele>313.7998</ele>
        <time>2026-05-17T12:11:45+02:00</time>
      </trkpt>
      <trkpt lat="48.08837" lon="6.30753">
        <ele>313.9004</ele>
        <time>2026-05-17T12:11:46+02:00</time>
      </trkpt>
      <trkpt lat="48.08842" lon="6.30757">
        <ele>313.7998</ele>
        <time>2026-05-17T12:11:47+02:00</time>
      </trkpt>
      <trkpt lat="48.08848" lon="6.30761">
        <ele>313.7002</ele>
        <time>2026-05-17T12:11:48+02:00</time>
      </trkpt>
      <trkpt lat="48.08853" lon="6.30765">
        <ele>313.7998</ele>
        <time>2026-05-17T12:11:49+02:00</time>
      </trkpt>
      <trkpt lat="48.08858" lon="6.3077">
        <ele>313.9004</ele>
        <time>2026-05-17T12:11:50+02:00</time>
      </trkpt>
      <trkpt lat="48.08864" lon="6.30774">
        <ele>313.7998</ele>
        <time>2026-05-17T12:11:51+02:00</time>
      </trkpt>
      <trkpt lat="48.08869" lon="6.30778">
        <ele>313.7002</ele>
        <time>2026-05-17T12:11:52+02:00</time>
      </trkpt>
      <trkpt lat="48.08874" lon="6.30782">
        <ele>313.9004</ele>
        <time>2026-05-17T12:11:53+02:00</time>
      </trkpt>
      <trkpt lat="48.0888" lon="6.30786">
        <ele>313.7998</ele>
        <time>2026-05-17T12:11:54+02:00</time>
      </trkpt>
      <trkpt lat="48.08885" lon="6.30791">
        <ele>313.7998</ele>
        <time>2026-05-17T12:11:55+02:00</time>
      </trkpt>
      <trkpt lat="48.0889" lon="6.30796">
        <ele>313.7998</ele>
        <time>2026-05-17T12:11:56+02:00</time>
      </trkpt>
      <trkpt lat="48.08896" lon="6.308">
        <ele>313.7002</ele>
        <time>2026-05-17T12:11:57+02:00</time>
      </trkpt>
      <trkpt lat="48.08901" lon="6.30805">
        <ele>313.7002</ele>
        <time>2026-05-17T12:11:58+02:00</time>
      </trkpt>
      <trkpt lat="48.08906" lon="6.3081">
        <ele>313.5</ele>
        <time>2026-05-17T12:11:59+02:00</time>
      </trkpt>
      <trkpt lat="48.0891" lon="6.30815">
        <ele>313.5</ele>
        <time>2026-05-17T12:12:00+02:00</time>
      </trkpt>
      <trkpt lat="48.08915" lon="6.3082">
        <ele>313.4004</ele>
        <time>2026-05-17T12:12:01+02:00</time>
      </trkpt>
      <trkpt lat="48.08919" lon="6.30825">
        <ele>313.4004</ele>
        <time>2026-05-17T12:12:02+02:00</time>
      </trkpt>
      <trkpt lat="48.08924" lon="6.3083">
        <ele>313.4004</ele>
        <time>2026-05-17T12:12:03+02:00</time>
      </trkpt>
      <trkpt lat="48.08928" lon="6.30836">
        <ele>313.2998</ele>
        <time>2026-05-17T12:12:04+02:00</time>
      </trkpt>
      <trkpt lat="48.08933" lon="6.30842">
        <ele>313.2998</ele>
        <time>2026-05-17T12:12:05+02:00</time>
      </trkpt>
      <trkpt lat="48.08937" lon="6.30848">
        <ele>313.4004</ele>
        <time>2026-05-17T12:12:06+02:00</time>
      </trkpt>
      <trkpt lat="48.08941" lon="6.30853">
        <ele>313.2998</ele>
        <time>2026-05-17T12:12:07+02:00</time>
      </trkpt>
      <trkpt lat="48.08946" lon="6.30859">
        <ele>313.2998</ele>
        <time>2026-05-17T12:12:08+02:00</time>
      </trkpt>
      <trkpt lat="48.08951" lon="6.30865">
        <ele>313.4004</ele>
        <time>2026-05-17T12:12:09+02:00</time>
      </trkpt>
      <trkpt lat="48.08955" lon="6.30871">
        <ele>313.2998</ele>
        <time>2026-05-17T12:12:10+02:00</time>
      </trkpt>
      <trkpt lat="48.0896" lon="6.30876">
        <ele>313.6006</ele>
        <time>2026-05-17T12:12:11+02:00</time>
      </trkpt>
      <trkpt lat="48.08964" lon="6.30881">
        <ele>313.4004</ele>
        <time>2026-05-17T12:12:12+02:00</time>
      </trkpt>
      <trkpt lat="48.08968" lon="6.30885">
        <ele>313.6006</ele>
        <time>2026-05-17T12:12:13+02:00</time>
      </trkpt>
      <trkpt lat="48.08971" lon="6.30889">
        <ele>313.6006</ele>
        <time>2026-05-17T12:12:14+02:00</time>
      </trkpt>
      <trkpt lat="48.08975" lon="6.30893">
        <ele>313.7998</ele>
        <time>2026-05-17T12:12:15+02:00</time>
      </trkpt>
      <trkpt lat="48.08978" lon="6.30897">
        <ele>313.7998</ele>
        <time>2026-05-17T12:12:16+02:00</time>
      </trkpt>
      <trkpt lat="48.08983" lon="6.30901">
        <ele>314</ele>
        <time>2026-05-17T12:12:17+02:00</time>
      </trkpt>
      <trkpt lat="48.08986" lon="6.30905">
        <ele>314.1006</ele>
        <time>2026-05-17T12:12:18+02:00</time>
      </trkpt>
      <trkpt lat="48.08991" lon="6.3091">
        <ele>314.2998</ele>
        <time>2026-05-17T12:12:19+02:00</time>
      </trkpt>
      <trkpt lat="48.08994" lon="6.30914">
        <ele>314.2998</ele>
        <time>2026-05-17T12:12:20+02:00</time>
      </trkpt>
      <trkpt lat="48.08998" lon="6.30919">
        <ele>314.6006</ele>
        <time>2026-05-17T12:12:21+02:00</time>
      </trkpt>
      <trkpt lat="48.09002" lon="6.30924">
        <ele>314.7002</ele>
        <time>2026-05-17T12:12:22+02:00</time>
      </trkpt>
      <trkpt lat="48.09005" lon="6.30929">
        <ele>315</ele>
        <time>2026-05-17T12:12:23+02:00</time>
      </trkpt>
      <trkpt lat="48.09009" lon="6.30934">
        <ele>315.4004</ele>
        <time>2026-05-17T12:12:24+02:00</time>
      </trkpt>
      <trkpt lat="48.09013" lon="6.30939">
        <ele>315.5</ele>
        <time>2026-05-17T12:12:25+02:00</time>
      </trkpt>
      <trkpt lat="48.09017" lon="6.30945">
        <ele>315.7998</ele>
        <time>2026-05-17T12:12:26+02:00</time>
      </trkpt>
      <trkpt lat="48.09021" lon="6.3095">
        <ele>316.1006</ele>
        <time>2026-05-17T12:12:27+02:00</time>
      </trkpt>
      <trkpt lat="48.09025" lon="6.30956">
        <ele>316.2002</ele>
        <time>2026-05-17T12:12:28+02:00</time>
      </trkpt>
      <trkpt lat="48.0903" lon="6.30961">
        <ele>316.5</ele>
        <time>2026-05-17T12:12:29+02:00</time>
      </trkpt>
      <trkpt lat="48.09034" lon="6.30967">
        <ele>316.5</ele>
        <time>2026-05-17T12:12:30+02:00</time>
      </trkpt>
      <trkpt lat="48.09038" lon="6.30972">
        <ele>316.9004</ele>
        <time>2026-05-17T12:12:31+02:00</time>
      </trkpt>
      <trkpt lat="48.09042" lon="6.30978">
        <ele>317.2002</ele>
        <time>2026-05-17T12:12:32+02:00</time>
      </trkpt>
      <trkpt lat="48.09046" lon="6.30982">
        <ele>317.2002</ele>
        <time>2026-05-17T12:12:33+02:00</time>
      </trkpt>
      <trkpt lat="48.0905" lon="6.30987">
        <ele>317.5</ele>
        <time>2026-05-17T12:12:34+02:00</time>
      </trkpt>
      <trkpt lat="48.09054" lon="6.30993">
        <ele>317.7002</ele>
        <time>2026-05-17T12:12:35+02:00</time>
      </trkpt>
      <trkpt lat="48.09058" lon="6.30998">
        <ele>317.7998</ele>
        <time>2026-05-17T12:12:36+02:00</time>
      </trkpt>
      <trkpt lat="48.09062" lon="6.31003">
        <ele>317.9004</ele>
        <time>2026-05-17T12:12:37+02:00</time>
      </trkpt>
      <trkpt lat="48.09066" lon="6.31008">
        <ele>317.9004</ele>
        <time>2026-05-17T12:12:38+02:00</time>
      </trkpt>
      <trkpt lat="48.0907" lon="6.31013">
        <ele>318</ele>
        <time>2026-05-17T12:12:39+02:00</time>
      </trkpt>
      <trkpt lat="48.09075" lon="6.31019">
        <ele>318.1006</ele>
        <time>2026-05-17T12:12:40+02:00</time>
      </trkpt>
      <trkpt lat="48.09078" lon="6.31024">
        <ele>318.1006</ele>
        <time>2026-05-17T12:12:41+02:00</time>
      </trkpt>
      <trkpt lat="48.09083" lon="6.31029">
        <ele>318.1006</ele>
        <time>2026-05-17T12:12:42+02:00</time>
      </trkpt>
      <trkpt lat="48.09087" lon="6.31035">
        <ele>318.2002</ele>
        <time>2026-05-17T12:12:43+02:00</time>
      </trkpt>
      <trkpt lat="48.09091" lon="6.3104">
        <ele>318.1006</ele>
        <time>2026-05-17T12:12:44+02:00</time>
      </trkpt>
      <trkpt lat="48.09095" lon="6.31045">
        <ele>318.1006</ele>
        <time>2026-05-17T12:12:45+02:00</time>
      </trkpt>
      <trkpt lat="48.09099" lon="6.3105">
        <ele>318.2998</ele>
        <time>2026-05-17T12:12:46+02:00</time>
      </trkpt>
      <trkpt lat="48.09103" lon="6.31056">
        <ele>318.2002</ele>
        <time>2026-05-17T12:12:47+02:00</time>
      </trkpt>
      <trkpt lat="48.09107" lon="6.31061">
        <ele>318.4004</ele>
        <time>2026-05-17T12:12:48+02:00</time>
      </trkpt>
      <trkpt lat="48.09112" lon="6.31066">
        <ele>318.5</ele>
        <time>2026-05-17T12:12:49+02:00</time>
      </trkpt>
      <trkpt lat="48.09116" lon="6.31071">
        <ele>318.5</ele>
        <time>2026-05-17T12:12:50+02:00</time>
      </trkpt>
      <trkpt lat="48.0912" lon="6.31077">
        <ele>318.5</ele>
        <time>2026-05-17T12:12:51+02:00</time>
      </trkpt>
      <trkpt lat="48.09124" lon="6.31082">
        <ele>318.6006</ele>
        <time>2026-05-17T12:12:52+02:00</time>
      </trkpt>
      <trkpt lat="48.09128" lon="6.31088">
        <ele>318.7002</ele>
        <time>2026-05-17T12:12:53+02:00</time>
      </trkpt>
      <trkpt lat="48.09133" lon="6.31093">
        <ele>318.7998</ele>
        <time>2026-05-17T12:12:54+02:00</time>
      </trkpt>
      <trkpt lat="48.09137" lon="6.31099">
        <ele>318.7002</ele>
        <time>2026-05-17T12:12:55+02:00</time>
      </trkpt>
      <trkpt lat="48.09141" lon="6.31104">
        <ele>318.7998</ele>
        <time>2026-05-17T12:12:56+02:00</time>
      </trkpt>
      <trkpt lat="48.09146" lon="6.3111">
        <ele>318.7998</ele>
        <time>2026-05-17T12:12:57+02:00</time>
      </trkpt>
      <trkpt lat="48.0915" lon="6.31115">
        <ele>318.7998</ele>
        <time>2026-05-17T12:12:58+02:00</time>
      </trkpt>
      <trkpt lat="48.09154" lon="6.3112">
        <ele>318.7998</ele>
        <time>2026-05-17T12:12:59+02:00</time>
      </trkpt>
      <trkpt lat="48.09158" lon="6.31126">
        <ele>318.7998</ele>
        <time>2026-05-17T12:13:00+02:00</time>
      </trkpt>
      <trkpt lat="48.09162" lon="6.31131">
        <ele>318.7998</ele>
        <time>2026-05-17T12:13:01+02:00</time>
      </trkpt>
      <trkpt lat="48.09166" lon="6.31137">
        <ele>318.7998</ele>
        <time>2026-05-17T12:13:02+02:00</time>
      </trkpt>
      <trkpt lat="48.09171" lon="6.31142">
        <ele>318.7002</ele>
        <time>2026-05-17T12:13:03+02:00</time>
      </trkpt>
      <trkpt lat="48.09175" lon="6.31147">
        <ele>318.7002</ele>
        <time>2026-05-17T12:13:04+02:00</time>
      </trkpt>
      <trkpt lat="48.09179" lon="6.31152">
        <ele>318.7002</ele>
        <time>2026-05-17T12:13:05+02:00</time>
      </trkpt>
      <trkpt lat="48.09183" lon="6.31158">
        <ele>318.7002</ele>
        <time>2026-05-17T12:13:06+02:00</time>
      </trkpt>
      <trkpt lat="48.09187" lon="6.31163">
        <ele>318.6006</ele>
        <time>2026-05-17T12:13:07+02:00</time>
      </trkpt>
      <trkpt lat="48.09191" lon="6.31169">
        <ele>318.5</ele>
        <time>2026-05-17T12:13:08+02:00</time>
      </trkpt>
      <trkpt lat="48.09195" lon="6.31175">
        <ele>318.6006</ele>
        <time>2026-05-17T12:13:09+02:00</time>
      </trkpt>
      <trkpt lat="48.09199" lon="6.31182">
        <ele>318.6006</ele>
        <time>2026-05-17T12:13:10+02:00</time>
      </trkpt>
      <trkpt lat="48.09202" lon="6.31188">
        <ele>318.4004</ele>
        <time>2026-05-17T12:13:11+02:00</time>
      </trkpt>
      <trkpt lat="48.09205" lon="6.31194">
        <ele>318.6006</ele>
        <time>2026-05-17T12:13:12+02:00</time>
      </trkpt>
      <trkpt lat="48.09208" lon="6.312">
        <ele>318.5</ele>
        <time>2026-05-17T12:13:13+02:00</time>
      </trkpt>
      <trkpt lat="48.09212" lon="6.31206">
        <ele>318.5</ele>
        <time>2026-05-17T12:13:14+02:00</time>
      </trkpt>
      <trkpt lat="48.09215" lon="6.31212">
        <ele>318.5</ele>
        <time>2026-05-17T12:13:15+02:00</time>
      </trkpt>
      <trkpt lat="48.09218" lon="6.31217">
        <ele>318.7998</ele>
        <time>2026-05-17T12:13:16+02:00</time>
      </trkpt>
      <trkpt lat="48.09221" lon="6.31223">
        <ele>318.6006</ele>
        <time>2026-05-17T12:13:17+02:00</time>
      </trkpt>
      <trkpt lat="48.09224" lon="6.31229">
        <ele>318.9004</ele>
        <time>2026-05-17T12:13:18+02:00</time>
      </trkpt>
      <trkpt lat="48.09228" lon="6.31235">
        <ele>318.7002</ele>
        <time>2026-05-17T12:13:19+02:00</time>
      </trkpt>
      <trkpt lat="48.09231" lon="6.31242">
        <ele>318.5</ele>
        <time>2026-05-17T12:13:20+02:00</time>
      </trkpt>
      <trkpt lat="48.09233" lon="6.31249">
        <ele>318.5</ele>
        <time>2026-05-17T12:13:21+02:00</time>
      </trkpt>
      <trkpt lat="48.09236" lon="6.31256">
        <ele>318.2002</ele>
        <time>2026-05-17T12:13:22+02:00</time>
      </trkpt>
      <trkpt lat="48.09238" lon="6.31263">
        <ele>318.4004</ele>
        <time>2026-05-17T12:13:23+02:00</time>
      </trkpt>
      <trkpt lat="48.09241" lon="6.3127">
        <ele>318.7002</ele>
        <time>2026-05-17T12:13:24+02:00</time>
      </trkpt>
      <trkpt lat="48.09244" lon="6.31278">
        <ele>318.6006</ele>
        <time>2026-05-17T12:13:25+02:00</time>
      </trkpt>
      <trkpt lat="48.09246" lon="6.31286">
        <ele>318.7998</ele>
        <time>2026-05-17T12:13:26+02:00</time>
      </trkpt>
      <trkpt lat="48.09248" lon="6.31293">
        <ele>318.5</ele>
        <time>2026-05-17T12:13:27+02:00</time>
      </trkpt>
      <trkpt lat="48.09251" lon="6.31301">
        <ele>318.5</ele>
        <time>2026-05-17T12:13:28+02:00</time>
      </trkpt>
      <trkpt lat="48.09253" lon="6.31309">
        <ele>318.2002</ele>
        <time>2026-05-17T12:13:29+02:00</time>
      </trkpt>
      <trkpt lat="48.09255" lon="6.31317">
        <ele>318.1006</ele>
        <time>2026-05-17T12:13:30+02:00</time>
      </trkpt>
      <trkpt lat="48.09258" lon="6.31326">
        <ele>318.1006</ele>
        <time>2026-05-17T12:13:31+02:00</time>
      </trkpt>
      <trkpt lat="48.0926" lon="6.31334">
        <ele>317.7002</ele>
        <time>2026-05-17T12:13:32+02:00</time>
      </trkpt>
      <trkpt lat="48.09263" lon="6.31341">
        <ele>317.6006</ele>
        <time>2026-05-17T12:13:33+02:00</time>
      </trkpt>
      <trkpt lat="48.09265" lon="6.31349">
        <ele>317.5</ele>
        <time>2026-05-17T12:13:34+02:00</time>
      </trkpt>
      <trkpt lat="48.09268" lon="6.31357">
        <ele>317.4004</ele>
        <time>2026-05-17T12:13:35+02:00</time>
      </trkpt>
      <trkpt lat="48.0927" lon="6.31365">
        <ele>317.2002</ele>
        <time>2026-05-17T12:13:36+02:00</time>
      </trkpt>
      <trkpt lat="48.09273" lon="6.31373">
        <ele>317</ele>
        <time>2026-05-17T12:13:37+02:00</time>
      </trkpt>
      <trkpt lat="48.09275" lon="6.3138">
        <ele>316.9004</ele>
        <time>2026-05-17T12:13:38+02:00</time>
      </trkpt>
      <trkpt lat="48.09277" lon="6.31388">
        <ele>316.9004</ele>
        <time>2026-05-17T12:13:39+02:00</time>
      </trkpt>
      <trkpt lat="48.0928" lon="6.31396">
        <ele>316.9004</ele>
        <time>2026-05-17T12:13:40+02:00</time>
      </trkpt>
      <trkpt lat="48.09282" lon="6.31404">
        <ele>316.9004</ele>
        <time>2026-05-17T12:13:41+02:00</time>
      </trkpt>
      <trkpt lat="48.09284" lon="6.31413">
        <ele>316.7998</ele>
        <time>2026-05-17T12:13:42+02:00</time>
      </trkpt>
      <trkpt lat="48.09287" lon="6.3142">
        <ele>316.6006</ele>
        <time>2026-05-17T12:13:43+02:00</time>
      </trkpt>
      <trkpt lat="48.09289" lon="6.31428">
        <ele>316.7002</ele>
        <time>2026-05-17T12:13:44+02:00</time>
      </trkpt>
      <trkpt lat="48.09292" lon="6.31436">
        <ele>316.4004</ele>
        <time>2026-05-17T12:13:45+02:00</time>
      </trkpt>
      <trkpt lat="48.09294" lon="6.31444">
        <ele>316.7002</ele>
        <time>2026-05-17T12:13:46+02:00</time>
      </trkpt>
      <trkpt lat="48.09297" lon="6.31453">
        <ele>316.7002</ele>
        <time>2026-05-17T12:13:47+02:00</time>
      </trkpt>
      <trkpt lat="48.09299" lon="6.31461">
        <ele>317.2998</ele>
        <time>2026-05-17T12:13:48+02:00</time>
      </trkpt>
      <trkpt lat="48.09302" lon="6.31469">
        <ele>317.4004</ele>
        <time>2026-05-17T12:13:49+02:00</time>
      </trkpt>
      <trkpt lat="48.09304" lon="6.31476">
        <ele>317.5</ele>
        <time>2026-05-17T12:13:50+02:00</time>
      </trkpt>
      <trkpt lat="48.09306" lon="6.31484">
        <ele>318</ele>
        <time>2026-05-17T12:13:51+02:00</time>
      </trkpt>
      <trkpt lat="48.09308" lon="6.31493">
        <ele>318.1006</ele>
        <time>2026-05-17T12:13:52+02:00</time>
      </trkpt>
      <trkpt lat="48.09311" lon="6.31501">
        <ele>318.4004</ele>
        <time>2026-05-17T12:13:53+02:00</time>
      </trkpt>
      <trkpt lat="48.09313" lon="6.31509">
        <ele>318.5</ele>
        <time>2026-05-17T12:13:54+02:00</time>
      </trkpt>
      <trkpt lat="48.09315" lon="6.31518">
        <ele>318.7002</ele>
        <time>2026-05-17T12:13:55+02:00</time>
      </trkpt>
      <trkpt lat="48.09318" lon="6.31526">
        <ele>319</ele>
        <time>2026-05-17T12:13:56+02:00</time>
      </trkpt>
      <trkpt lat="48.0932" lon="6.31534">
        <ele>319.2002</ele>
        <time>2026-05-17T12:13:57+02:00</time>
      </trkpt>
      <trkpt lat="48.09322" lon="6.31543">
        <ele>319.5</ele>
        <time>2026-05-17T12:13:58+02:00</time>
      </trkpt>
      <trkpt lat="48.09325" lon="6.31551">
        <ele>319.7002</ele>
        <time>2026-05-17T12:13:59+02:00</time>
      </trkpt>
      <trkpt lat="48.09327" lon="6.31559">
        <ele>319.7002</ele>
        <time>2026-05-17T12:14:00+02:00</time>
      </trkpt>
      <trkpt lat="48.0933" lon="6.31567">
        <ele>319.9004</ele>
        <time>2026-05-17T12:14:01+02:00</time>
      </trkpt>
      <trkpt lat="48.09333" lon="6.31575">
        <ele>320.1006</ele>
        <time>2026-05-17T12:14:02+02:00</time>
      </trkpt>
      <trkpt lat="48.09335" lon="6.31583">
        <ele>320.2002</ele>
        <time>2026-05-17T12:14:03+02:00</time>
      </trkpt>
      <trkpt lat="48.09339" lon="6.3159">
        <ele>320.2998</ele>
        <time>2026-05-17T12:14:04+02:00</time>
      </trkpt>
      <trkpt lat="48.09342" lon="6.31597">
        <ele>320.6006</ele>
        <time>2026-05-17T12:14:05+02:00</time>
      </trkpt>
      <trkpt lat="48.09345" lon="6.31604">
        <ele>320.7002</ele>
        <time>2026-05-17T12:14:06+02:00</time>
      </trkpt>
      <trkpt lat="48.09349" lon="6.31611">
        <ele>320.9004</ele>
        <time>2026-05-17T12:14:07+02:00</time>
      </trkpt>
      <trkpt lat="48.09352" lon="6.31617">
        <ele>320.7002</ele>
        <time>2026-05-17T12:14:08+02:00</time>
      </trkpt>
      <trkpt lat="48.09356" lon="6.31623">
        <ele>321</ele>
        <time>2026-05-17T12:14:09+02:00</time>
      </trkpt>
      <trkpt lat="48.0936" lon="6.31629">
        <ele>320.9004</ele>
        <time>2026-05-17T12:14:10+02:00</time>
      </trkpt>
      <trkpt lat="48.09364" lon="6.31635">
        <ele>320.7002</ele>
        <time>2026-05-17T12:14:11+02:00</time>
      </trkpt>
      <trkpt lat="48.09369" lon="6.3164">
        <ele>320.5</ele>
        <time>2026-05-17T12:14:12+02:00</time>
      </trkpt>
      <trkpt lat="48.09374" lon="6.31645">
        <ele>320.2002</ele>
        <time>2026-05-17T12:14:13+02:00</time>
      </trkpt>
      <trkpt lat="48.09379" lon="6.3165">
        <ele>320.2002</ele>
        <time>2026-05-17T12:14:14+02:00</time>
      </trkpt>
      <trkpt lat="48.09384" lon="6.31654">
        <ele>319.7998</ele>
        <time>2026-05-17T12:14:15+02:00</time>
      </trkpt>
      <trkpt lat="48.09389" lon="6.31658">
        <ele>319.5</ele>
        <time>2026-05-17T12:14:16+02:00</time>
      </trkpt>
      <trkpt lat="48.09395" lon="6.31661">
        <ele>319.2002</ele>
        <time>2026-05-17T12:14:17+02:00</time>
      </trkpt>
      <trkpt lat="48.094" lon="6.31664">
        <ele>318.7002</ele>
        <time>2026-05-17T12:14:18+02:00</time>
      </trkpt>
      <trkpt lat="48.09406" lon="6.31667">
        <ele>318.2998</ele>
        <time>2026-05-17T12:14:19+02:00</time>
      </trkpt>
      <trkpt lat="48.09412" lon="6.3167">
        <ele>318</ele>
        <time>2026-05-17T12:14:20+02:00</time>
      </trkpt>
      <trkpt lat="48.09417" lon="6.31672">
        <ele>317.4004</ele>
        <time>2026-05-17T12:14:21+02:00</time>
      </trkpt>
      <trkpt lat="48.09423" lon="6.31673">
        <ele>317</ele>
        <time>2026-05-17T12:14:22+02:00</time>
      </trkpt>
      <trkpt lat="48.09429" lon="6.31675">
        <ele>316.7002</ele>
        <time>2026-05-17T12:14:23+02:00</time>
      </trkpt>
      <trkpt lat="48.09435" lon="6.31676">
        <ele>316.4004</ele>
        <time>2026-05-17T12:14:24+02:00</time>
      </trkpt>
      <trkpt lat="48.09441" lon="6.31676">
        <ele>316.1006</ele>
        <time>2026-05-17T12:14:25+02:00</time>
      </trkpt>
      <trkpt lat="48.09446" lon="6.31676">
        <ele>315.9004</ele>
        <time>2026-05-17T12:14:26+02:00</time>
      </trkpt>
      <trkpt lat="48.09452" lon="6.31675">
        <ele>315.7002</ele>
        <time>2026-05-17T12:14:27+02:00</time>
      </trkpt>
      <trkpt lat="48.09458" lon="6.31675">
        <ele>315.5</ele>
        <time>2026-05-17T12:14:28+02:00</time>
      </trkpt>
      <trkpt lat="48.09463" lon="6.31674">
        <ele>315.2998</ele>
        <time>2026-05-17T12:14:29+02:00</time>
      </trkpt>
      <trkpt lat="48.09468" lon="6.31673">
        <ele>315.2002</ele>
        <time>2026-05-17T12:14:30+02:00</time>
      </trkpt>
      <trkpt lat="48.09474" lon="6.31672">
        <ele>315</ele>
        <time>2026-05-17T12:14:31+02:00</time>
      </trkpt>
      <trkpt lat="48.09479" lon="6.31671">
        <ele>314.9004</ele>
        <time>2026-05-17T12:14:32+02:00</time>
      </trkpt>
      <trkpt lat="48.09485" lon="6.3167">
        <ele>314.7002</ele>
        <time>2026-05-17T12:14:33+02:00</time>
      </trkpt>
      <trkpt lat="48.0949" lon="6.31668">
        <ele>314.6006</ele>
        <time>2026-05-17T12:14:34+02:00</time>
      </trkpt>
      <trkpt lat="48.09496" lon="6.31667">
        <ele>314.5</ele>
        <time>2026-05-17T12:14:35+02:00</time>
      </trkpt>
      <trkpt lat="48.09501" lon="6.31667">
        <ele>314.5</ele>
        <time>2026-05-17T12:14:36+02:00</time>
      </trkpt>
      <trkpt lat="48.09507" lon="6.31666">
        <ele>314.4004</ele>
        <time>2026-05-17T12:14:37+02:00</time>
      </trkpt>
      <trkpt lat="48.09513" lon="6.31665">
        <ele>314.2998</ele>
        <time>2026-05-17T12:14:38+02:00</time>
      </trkpt>
      <trkpt lat="48.09519" lon="6.31664">
        <ele>314.2002</ele>
        <time>2026-05-17T12:14:39+02:00</time>
      </trkpt>
      <trkpt lat="48.09525" lon="6.31663">
        <ele>314.1006</ele>
        <time>2026-05-17T12:14:40+02:00</time>
      </trkpt>
      <trkpt lat="48.09531" lon="6.31662">
        <ele>313.9004</ele>
        <time>2026-05-17T12:14:41+02:00</time>
      </trkpt>
      <trkpt lat="48.09536" lon="6.31661">
        <ele>313.7998</ele>
        <time>2026-05-17T12:14:42+02:00</time>
      </trkpt>
      <trkpt lat="48.09543" lon="6.3166">
        <ele>313.7002</ele>
        <time>2026-05-17T12:14:43+02:00</time>
      </trkpt>
      <trkpt lat="48.09549" lon="6.31659">
        <ele>313.6006</ele>
        <time>2026-05-17T12:14:44+02:00</time>
      </trkpt>
      <trkpt lat="48.09556" lon="6.31659">
        <ele>313.5</ele>
        <time>2026-05-17T12:14:45+02:00</time>
      </trkpt>
      <trkpt lat="48.09562" lon="6.31658">
        <ele>313.4004</ele>
        <time>2026-05-17T12:14:46+02:00</time>
      </trkpt>
      <trkpt lat="48.09568" lon="6.31658">
        <ele>313.4004</ele>
        <time>2026-05-17T12:14:47+02:00</time>
      </trkpt>
      <trkpt lat="48.09574" lon="6.31657">
        <ele>313.4004</ele>
        <time>2026-05-17T12:14:48+02:00</time>
      </trkpt>
      <trkpt lat="48.0958" lon="6.31657">
        <ele>313.5</ele>
        <time>2026-05-17T12:14:49+02:00</time>
      </trkpt>
      <trkpt lat="48.09584" lon="6.31657">
        <ele>313.5</ele>
        <time>2026-05-17T12:14:50+02:00</time>
      </trkpt>
      <trkpt lat="48.09588" lon="6.31657">
        <ele>313.6006</ele>
        <time>2026-05-17T12:14:51+02:00</time>
      </trkpt>
      <trkpt lat="48.09591" lon="6.31657">
        <ele>313.6006</ele>
        <time>2026-05-17T12:14:52+02:00</time>
      </trkpt>
      <trkpt lat="48.09594" lon="6.31656">
        <ele>313.7002</ele>
        <time>2026-05-17T12:14:53+02:00</time>
      </trkpt>
      <trkpt lat="48.09598" lon="6.31654">
        <ele>313.7998</ele>
        <time>2026-05-17T12:14:54+02:00</time>
      </trkpt>
      <trkpt lat="48.09601" lon="6.31652">
        <ele>313.6006</ele>
        <time>2026-05-17T12:14:55+02:00</time>
      </trkpt>
      <trkpt lat="48.09605" lon="6.3165">
        <ele>313.7998</ele>
        <time>2026-05-17T12:14:56+02:00</time>
      </trkpt>
      <trkpt lat="48.09609" lon="6.31648">
        <ele>314</ele>
        <time>2026-05-17T12:14:57+02:00</time>
      </trkpt>
      <trkpt lat="48.09614" lon="6.31647">
        <ele>314.1006</ele>
        <time>2026-05-17T12:14:58+02:00</time>
      </trkpt>
      <trkpt lat="48.09618" lon="6.31646">
        <ele>314.1006</ele>
        <time>2026-05-17T12:14:59+02:00</time>
      </trkpt>
      <trkpt lat="48.09622" lon="6.31645">
        <ele>314.4004</ele>
        <time>2026-05-17T12:15:00+02:00</time>
      </trkpt>
      <trkpt lat="48.09626" lon="6.31644">
        <ele>314.5</ele>
        <time>2026-05-17T12:15:01+02:00</time>
      </trkpt>
      <trkpt lat="48.0963" lon="6.31644">
        <ele>314.5</ele>
        <time>2026-05-17T12:15:02+02:00</time>
      </trkpt>
      <trkpt lat="48.09634" lon="6.31643">
        <ele>314.7002</ele>
        <time>2026-05-17T12:15:03+02:00</time>
      </trkpt>
      <trkpt lat="48.09638" lon="6.31643">
        <ele>314.7002</ele>
        <time>2026-05-17T12:15:04+02:00</time>
      </trkpt>
      <trkpt lat="48.09643" lon="6.31643">
        <ele>314.7002</ele>
        <time>2026-05-17T12:15:05+02:00</time>
      </trkpt>
      <trkpt lat="48.09647" lon="6.31644">
        <ele>314.7002</ele>
        <time>2026-05-17T12:15:06+02:00</time>
      </trkpt>
      <trkpt lat="48.09652" lon="6.31643">
        <ele>314.7998</ele>
        <time>2026-05-17T12:15:07+02:00</time>
      </trkpt>
      <trkpt lat="48.09656" lon="6.31643">
        <ele>314.7998</ele>
        <time>2026-05-17T12:15:08+02:00</time>
      </trkpt>
      <trkpt lat="48.0966" lon="6.31643">
        <ele>314.7998</ele>
        <time>2026-05-17T12:15:09+02:00</time>
      </trkpt>
      <trkpt lat="48.09665" lon="6.31642">
        <ele>314.7998</ele>
        <time>2026-05-17T12:15:10+02:00</time>
      </trkpt>
      <trkpt lat="48.09669" lon="6.31642">
        <ele>314.7998</ele>
        <time>2026-05-17T12:15:11+02:00</time>
      </trkpt>
      <trkpt lat="48.09674" lon="6.31642">
        <ele>314.7998</ele>
        <time>2026-05-17T12:15:12+02:00</time>
      </trkpt>
      <trkpt lat="48.09678" lon="6.31641">
        <ele>314.9004</ele>
        <time>2026-05-17T12:15:13+02:00</time>
      </trkpt>
      <trkpt lat="48.09683" lon="6.31641">
        <ele>315</ele>
        <time>2026-05-17T12:15:14+02:00</time>
      </trkpt>
      <trkpt lat="48.09687" lon="6.3164">
        <ele>315</ele>
        <time>2026-05-17T12:15:15+02:00</time>
      </trkpt>
      <trkpt lat="48.09691" lon="6.3164">
        <ele>315.2002</ele>
        <time>2026-05-17T12:15:16+02:00</time>
      </trkpt>
      <trkpt lat="48.09695" lon="6.31639">
        <ele>315.5</ele>
        <time>2026-05-17T12:15:17+02:00</time>
      </trkpt>
      <trkpt lat="48.09699" lon="6.31638">
        <ele>315.5</ele>
        <time>2026-05-17T12:15:18+02:00</time>
      </trkpt>
      <trkpt lat="48.09704" lon="6.31637">
        <ele>315.7998</ele>
        <time>2026-05-17T12:15:19+02:00</time>
      </trkpt>
      <trkpt lat="48.09708" lon="6.31636">
        <ele>315.7002</ele>
        <time>2026-05-17T12:15:20+02:00</time>
      </trkpt>
      <trkpt lat="48.09712" lon="6.31635">
        <ele>316.1006</ele>
        <time>2026-05-17T12:15:21+02:00</time>
      </trkpt>
      <trkpt lat="48.09717" lon="6.31635">
        <ele>316.5</ele>
        <time>2026-05-17T12:15:22+02:00</time>
      </trkpt>
      <trkpt lat="48.09722" lon="6.31634">
        <ele>316.5</ele>
        <time>2026-05-17T12:15:23+02:00</time>
      </trkpt>
      <trkpt lat="48.09726" lon="6.31633">
        <ele>317</ele>
        <time>2026-05-17T12:15:24+02:00</time>
      </trkpt>
      <trkpt lat="48.09731" lon="6.31633">
        <ele>317.5</ele>
        <time>2026-05-17T12:15:25+02:00</time>
      </trkpt>
      <trkpt lat="48.09736" lon="6.31632">
        <ele>318</ele>
        <time>2026-05-17T12:15:26+02:00</time>
      </trkpt>
      <trkpt lat="48.09741" lon="6.31632">
        <ele>318.4004</ele>
        <time>2026-05-17T12:15:27+02:00</time>
      </trkpt>
      <trkpt lat="48.09746" lon="6.31632">
        <ele>318.7998</ele>
        <time>2026-05-17T12:15:28+02:00</time>
      </trkpt>
      <trkpt lat="48.09751" lon="6.31631">
        <ele>318.7998</ele>
        <time>2026-05-17T12:15:29+02:00</time>
      </trkpt>
      <trkpt lat="48.09756" lon="6.3163">
        <ele>319.1006</ele>
        <time>2026-05-17T12:15:30+02:00</time>
      </trkpt>
      <trkpt lat="48.09762" lon="6.31629">
        <ele>319.4004</ele>
        <time>2026-05-17T12:15:31+02:00</time>
      </trkpt>
      <trkpt lat="48.09767" lon="6.31628">
        <ele>319.6006</ele>
        <time>2026-05-17T12:15:32+02:00</time>
      </trkpt>
      <trkpt lat="48.09772" lon="6.31627">
        <ele>319.7998</ele>
        <time>2026-05-17T12:15:33+02:00</time>
      </trkpt>
      <trkpt lat="48.09778" lon="6.31626">
        <ele>320</ele>
        <time>2026-05-17T12:15:34+02:00</time>
      </trkpt>
      <trkpt lat="48.09783" lon="6.31626">
        <ele>320.1006</ele>
        <time>2026-05-17T12:15:35+02:00</time>
      </trkpt>
      <trkpt lat="48.09789" lon="6.31625">
        <ele>320.2998</ele>
        <time>2026-05-17T12:15:36+02:00</time>
      </trkpt>
      <trkpt lat="48.09795" lon="6.31624">
        <ele>320.2998</ele>
        <time>2026-05-17T12:15:37+02:00</time>
      </trkpt>
      <trkpt lat="48.09801" lon="6.31623">
        <ele>320.4004</ele>
        <time>2026-05-17T12:15:38+02:00</time>
      </trkpt>
      <trkpt lat="48.09807" lon="6.31623">
        <ele>320.5</ele>
        <time>2026-05-17T12:15:39+02:00</time>
      </trkpt>
      <trkpt lat="48.09813" lon="6.31622">
        <ele>320.6006</ele>
        <time>2026-05-17T12:15:40+02:00</time>
      </trkpt>
      <trkpt lat="48.09818" lon="6.31621">
        <ele>320.7002</ele>
        <time>2026-05-17T12:15:41+02:00</time>
      </trkpt>
      <trkpt lat="48.09824" lon="6.31621">
        <ele>320.7998</ele>
        <time>2026-05-17T12:15:42+02:00</time>
      </trkpt>
      <trkpt lat="48.0983" lon="6.3162">
        <ele>320.9004</ele>
        <time>2026-05-17T12:15:43+02:00</time>
      </trkpt>
      <trkpt lat="48.09836" lon="6.31619">
        <ele>320.4004</ele>
        <time>2026-05-17T12:15:44+02:00</time>
      </trkpt>
      <trkpt lat="48.09842" lon="6.31618">
        <ele>320.4004</ele>
        <time>2026-05-17T12:15:45+02:00</time>
      </trkpt>
      <trkpt lat="48.09848" lon="6.31618">
        <ele>320.5</ele>
        <time>2026-05-17T12:15:46+02:00</time>
      </trkpt>
      <trkpt lat="48.09854" lon="6.31617">
        <ele>320.5</ele>
        <time>2026-05-17T12:15:47+02:00</time>
      </trkpt>
      <trkpt lat="48.0986" lon="6.31616">
        <ele>320.6006</ele>
        <time>2026-05-17T12:15:48+02:00</time>
      </trkpt>
      <trkpt lat="48.09866" lon="6.31615">
        <ele>320.6006</ele>
        <time>2026-05-17T12:15:49+02:00</time>
      </trkpt>
      <trkpt lat="48.09872" lon="6.31614">
        <ele>320.6006</ele>
        <time>2026-05-17T12:15:50+02:00</time>
      </trkpt>
      <trkpt lat="48.09878" lon="6.31613">
        <ele>320.6006</ele>
        <time>2026-05-17T12:15:51+02:00</time>
      </trkpt>
      <trkpt lat="48.09884" lon="6.31612">
        <ele>320.6006</ele>
        <time>2026-05-17T12:15:52+02:00</time>
      </trkpt>
      <trkpt lat="48.09889" lon="6.31611">
        <ele>320.6006</ele>
        <time>2026-05-17T12:15:53+02:00</time>
      </trkpt>
      <trkpt lat="48.09895" lon="6.31611">
        <ele>320.6006</ele>
        <time>2026-05-17T12:15:54+02:00</time>
      </trkpt>
      <trkpt lat="48.09902" lon="6.3161">
        <ele>320.1006</ele>
        <time>2026-05-17T12:15:55+02:00</time>
      </trkpt>
      <trkpt lat="48.09908" lon="6.31609">
        <ele>320.1006</ele>
        <time>2026-05-17T12:15:56+02:00</time>
      </trkpt>
      <trkpt lat="48.09914" lon="6.31609">
        <ele>320.1006</ele>
        <time>2026-05-17T12:15:57+02:00</time>
      </trkpt>
      <trkpt lat="48.0992" lon="6.31608">
        <ele>320.1006</ele>
        <time>2026-05-17T12:15:58+02:00</time>
      </trkpt>
      <trkpt lat="48.09926" lon="6.31607">
        <ele>320.1006</ele>
        <time>2026-05-17T12:15:59+02:00</time>
      </trkpt>
      <trkpt lat="48.09932" lon="6.31606">
        <ele>320.1006</ele>
        <time>2026-05-17T12:16:00+02:00</time>
      </trkpt>
      <trkpt lat="48.09937" lon="6.31606">
        <ele>320.1006</ele>
        <time>2026-05-17T12:16:01+02:00</time>
      </trkpt>
      <trkpt lat="48.09944" lon="6.31605">
        <ele>320.1006</ele>
        <time>2026-05-17T12:16:02+02:00</time>
      </trkpt>
      <trkpt lat="48.0995" lon="6.31604">
        <ele>320.2002</ele>
        <time>2026-05-17T12:16:03+02:00</time>
      </trkpt>
      <trkpt lat="48.09956" lon="6.31603">
        <ele>320.2998</ele>
        <time>2026-05-17T12:16:04+02:00</time>
      </trkpt>
      <trkpt lat="48.09961" lon="6.31602">
        <ele>320.1006</ele>
        <time>2026-05-17T12:16:05+02:00</time>
      </trkpt>
      <trkpt lat="48.09967" lon="6.31601">
        <ele>320.1006</ele>
        <time>2026-05-17T12:16:06+02:00</time>
      </trkpt>
      <trkpt lat="48.09973" lon="6.316">
        <ele>320</ele>
        <time>2026-05-17T12:16:07+02:00</time>
      </trkpt>
      <trkpt lat="48.09979" lon="6.316">
        <ele>319.9004</ele>
        <time>2026-05-17T12:16:08+02:00</time>
      </trkpt>
      <trkpt lat="48.09985" lon="6.31598">
        <ele>319.7998</ele>
        <time>2026-05-17T12:16:09+02:00</time>
      </trkpt>
      <trkpt lat="48.0999" lon="6.31598">
        <ele>319.7002</ele>
        <time>2026-05-17T12:16:10+02:00</time>
      </trkpt>
      <trkpt lat="48.09996" lon="6.31597">
        <ele>319.5</ele>
        <time>2026-05-17T12:16:11+02:00</time>
      </trkpt>
      <trkpt lat="48.10002" lon="6.31596">
        <ele>319.2998</ele>
        <time>2026-05-17T12:16:12+02:00</time>
      </trkpt>
      <trkpt lat="48.10008" lon="6.31596">
        <ele>319.1006</ele>
        <time>2026-05-17T12:16:13+02:00</time>
      </trkpt>
      <trkpt lat="48.10013" lon="6.31596">
        <ele>319</ele>
        <time>2026-05-17T12:16:14+02:00</time>
      </trkpt>
      <trkpt lat="48.10019" lon="6.31595">
        <ele>318.9004</ele>
        <time>2026-05-17T12:16:15+02:00</time>
      </trkpt>
      <trkpt lat="48.10024" lon="6.31594">
        <ele>318.9004</ele>
        <time>2026-05-17T12:16:16+02:00</time>
      </trkpt>
      <trkpt lat="48.1003" lon="6.31593">
        <ele>318.5</ele>
        <time>2026-05-17T12:16:17+02:00</time>
      </trkpt>
      <trkpt lat="48.10035" lon="6.31592">
        <ele>318.5</ele>
        <time>2026-05-17T12:16:18+02:00</time>
      </trkpt>
      <trkpt lat="48.1004" lon="6.31592">
        <ele>318.6006</ele>
        <time>2026-05-17T12:16:19+02:00</time>
      </trkpt>
      <trkpt lat="48.10046" lon="6.31591">
        <ele>318.7002</ele>
        <time>2026-05-17T12:16:20+02:00</time>
      </trkpt>
      <trkpt lat="48.10051" lon="6.31591">
        <ele>318.7998</ele>
        <time>2026-05-17T12:16:21+02:00</time>
      </trkpt>
      <trkpt lat="48.10057" lon="6.3159">
        <ele>319</ele>
        <time>2026-05-17T12:16:22+02:00</time>
      </trkpt>
      <trkpt lat="48.10062" lon="6.31589">
        <ele>319.1006</ele>
        <time>2026-05-17T12:16:23+02:00</time>
      </trkpt>
      <trkpt lat="48.10067" lon="6.31589">
        <ele>319.2998</ele>
        <time>2026-05-17T12:16:24+02:00</time>
      </trkpt>
      <trkpt lat="48.10072" lon="6.31588">
        <ele>319.2998</ele>
        <time>2026-05-17T12:16:25+02:00</time>
      </trkpt>
      <trkpt lat="48.10077" lon="6.31587">
        <ele>319.4004</ele>
        <time>2026-05-17T12:16:26+02:00</time>
      </trkpt>
      <trkpt lat="48.10081" lon="6.31585">
        <ele>319.4004</ele>
        <time>2026-05-17T12:16:27+02:00</time>
      </trkpt>
      <trkpt lat="48.10085" lon="6.31584">
        <ele>319.6006</ele>
        <time>2026-05-17T12:16:28+02:00</time>
      </trkpt>
      <trkpt lat="48.10089" lon="6.31584">
        <ele>319.6006</ele>
        <time>2026-05-17T12:16:29+02:00</time>
      </trkpt>
      <trkpt lat="48.10092" lon="6.31582">
        <ele>319.7002</ele>
        <time>2026-05-17T12:16:30+02:00</time>
      </trkpt>
      <trkpt lat="48.10095" lon="6.31581">
        <ele>319.7002</ele>
        <time>2026-05-17T12:16:31+02:00</time>
      </trkpt>
      <trkpt lat="48.10098" lon="6.31579">
        <ele>319.7998</ele>
        <time>2026-05-17T12:16:32+02:00</time>
      </trkpt>
      <trkpt lat="48.10102" lon="6.31578">
        <ele>320</ele>
        <time>2026-05-17T12:16:33+02:00</time>
      </trkpt>
      <trkpt lat="48.10105" lon="6.31577">
        <ele>320</ele>
        <time>2026-05-17T12:16:34+02:00</time>
      </trkpt>
      <trkpt lat="48.10109" lon="6.31576">
        <ele>320</ele>
        <time>2026-05-17T12:16:35+02:00</time>
      </trkpt>
      <trkpt lat="48.10112" lon="6.31575">
        <ele>320</ele>
        <time>2026-05-17T12:16:36+02:00</time>
      </trkpt>
      <trkpt lat="48.10115" lon="6.31574">
        <ele>320.1006</ele>
        <time>2026-05-17T12:16:37+02:00</time>
      </trkpt>
      <trkpt lat="48.10118" lon="6.31574">
        <ele>320.1006</ele>
        <time>2026-05-17T12:16:38+02:00</time>
      </trkpt>
      <trkpt lat="48.10121" lon="6.31573">
        <ele>320.2002</ele>
        <time>2026-05-17T12:16:39+02:00</time>
      </trkpt>
      <trkpt lat="48.10124" lon="6.31573">
        <ele>320.2002</ele>
        <time>2026-05-17T12:16:40+02:00</time>
      </trkpt>
      <trkpt lat="48.10128" lon="6.31573">
        <ele>320.2998</ele>
        <time>2026-05-17T12:16:41+02:00</time>
      </trkpt>
      <trkpt lat="48.10131" lon="6.31573">
        <ele>320.4004</ele>
        <time>2026-05-17T12:16:42+02:00</time>
      </trkpt>
      <trkpt lat="48.10134" lon="6.31573">
        <ele>320.4004</ele>
        <time>2026-05-17T12:16:43+02:00</time>
      </trkpt>
      <trkpt lat="48.10138" lon="6.31573">
        <ele>320.4004</ele>
        <time>2026-05-17T12:16:44+02:00</time>
      </trkpt>
      <trkpt lat="48.10142" lon="6.31573">
        <ele>320.5</ele>
        <time>2026-05-17T12:16:45+02:00</time>
      </trkpt>
      <trkpt lat="48.10145" lon="6.31573">
        <ele>320.5</ele>
        <time>2026-05-17T12:16:46+02:00</time>
      </trkpt>
      <trkpt lat="48.10149" lon="6.31572">
        <ele>320.5</ele>
        <time>2026-05-17T12:16:47+02:00</time>
      </trkpt>
      <trkpt lat="48.10153" lon="6.31571">
        <ele>320.6006</ele>
        <time>2026-05-17T12:16:48+02:00</time>
      </trkpt>
      <trkpt lat="48.10157" lon="6.31571">
        <ele>320.6006</ele>
        <time>2026-05-17T12:16:49+02:00</time>
      </trkpt>
      <trkpt lat="48.10161" lon="6.3157">
        <ele>320.7002</ele>
        <time>2026-05-17T12:16:50+02:00</time>
      </trkpt>
      <trkpt lat="48.10164" lon="6.3157">
        <ele>320.7002</ele>
        <time>2026-05-17T12:16:51+02:00</time>
      </trkpt>
      <trkpt lat="48.10168" lon="6.31569">
        <ele>320.9004</ele>
        <time>2026-05-17T12:16:52+02:00</time>
      </trkpt>
      <trkpt lat="48.10172" lon="6.31568">
        <ele>321.1006</ele>
        <time>2026-05-17T12:16:53+02:00</time>
      </trkpt>
      <trkpt lat="48.10176" lon="6.31567">
        <ele>321.2002</ele>
        <time>2026-05-17T12:16:54+02:00</time>
      </trkpt>
      <trkpt lat="48.1018" lon="6.31567">
        <ele>321.2002</ele>
        <time>2026-05-17T12:16:55+02:00</time>
      </trkpt>
      <trkpt lat="48.10184" lon="6.31566">
        <ele>321.5</ele>
        <time>2026-05-17T12:16:56+02:00</time>
      </trkpt>
      <trkpt lat="48.10188" lon="6.31565">
        <ele>321.7002</ele>
        <time>2026-05-17T12:16:57+02:00</time>
      </trkpt>
      <trkpt lat="48.10192" lon="6.31564">
        <ele>321.7002</ele>
        <time>2026-05-17T12:16:58+02:00</time>
      </trkpt>
      <trkpt lat="48.10196" lon="6.31563">
        <ele>321.7998</ele>
        <time>2026-05-17T12:16:59+02:00</time>
      </trkpt>
      <trkpt lat="48.10201" lon="6.31562">
        <ele>322</ele>
        <time>2026-05-17T12:17:00+02:00</time>
      </trkpt>
      <trkpt lat="48.10206" lon="6.31561">
        <ele>322.1006</ele>
        <time>2026-05-17T12:17:01+02:00</time>
      </trkpt>
      <trkpt lat="48.1021" lon="6.31559">
        <ele>322</ele>
        <time>2026-05-17T12:17:02+02:00</time>
      </trkpt>
      <trkpt lat="48.10215" lon="6.31558">
        <ele>322.1006</ele>
        <time>2026-05-17T12:17:03+02:00</time>
      </trkpt>
      <trkpt lat="48.1022" lon="6.31556">
        <ele>322.2998</ele>
        <time>2026-05-17T12:17:04+02:00</time>
      </trkpt>
      <trkpt lat="48.10224" lon="6.31554">
        <ele>322.4004</ele>
        <time>2026-05-17T12:17:05+02:00</time>
      </trkpt>
      <trkpt lat="48.10229" lon="6.31552">
        <ele>322.6006</ele>
        <time>2026-05-17T12:17:06+02:00</time>
      </trkpt>
      <trkpt lat="48.10233" lon="6.3155">
        <ele>322.4004</ele>
        <time>2026-05-17T12:17:07+02:00</time>
      </trkpt>
      <trkpt lat="48.10238" lon="6.31548">
        <ele>322.5</ele>
        <time>2026-05-17T12:17:08+02:00</time>
      </trkpt>
      <trkpt lat="48.10243" lon="6.31545">
        <ele>322.7002</ele>
        <time>2026-05-17T12:17:09+02:00</time>
      </trkpt>
      <trkpt lat="48.10248" lon="6.31543">
        <ele>322.7998</ele>
        <time>2026-05-17T12:17:10+02:00</time>
      </trkpt>
      <trkpt lat="48.10252" lon="6.3154">
        <ele>322.7002</ele>
        <time>2026-05-17T12:17:11+02:00</time>
      </trkpt>
      <trkpt lat="48.10257" lon="6.31538">
        <ele>322.9004</ele>
        <time>2026-05-17T12:17:12+02:00</time>
      </trkpt>
      <trkpt lat="48.10262" lon="6.31535">
        <ele>323</ele>
        <time>2026-05-17T12:17:13+02:00</time>
      </trkpt>
      <trkpt lat="48.10268" lon="6.31533">
        <ele>322.7998</ele>
        <time>2026-05-17T12:17:14+02:00</time>
      </trkpt>
      <trkpt lat="48.10273" lon="6.3153">
        <ele>322.7998</ele>
        <time>2026-05-17T12:17:15+02:00</time>
      </trkpt>
      <trkpt lat="48.10278" lon="6.31528">
        <ele>323</ele>
        <time>2026-05-17T12:17:16+02:00</time>
      </trkpt>
      <trkpt lat="48.10283" lon="6.31525">
        <ele>322.9004</ele>
        <time>2026-05-17T12:17:17+02:00</time>
      </trkpt>
      <trkpt lat="48.10288" lon="6.31523">
        <ele>323.2998</ele>
        <time>2026-05-17T12:17:18+02:00</time>
      </trkpt>
      <trkpt lat="48.10293" lon="6.3152">
        <ele>323.6006</ele>
        <time>2026-05-17T12:17:19+02:00</time>
      </trkpt>
      <trkpt lat="48.10297" lon="6.31518">
        <ele>323.7998</ele>
        <time>2026-05-17T12:17:20+02:00</time>
      </trkpt>
      <trkpt lat="48.10302" lon="6.31515">
        <ele>323.7002</ele>
        <time>2026-05-17T12:17:21+02:00</time>
      </trkpt>
      <trkpt lat="48.10307" lon="6.31512">
        <ele>323.7002</ele>
        <time>2026-05-17T12:17:22+02:00</time>
      </trkpt>
      <trkpt lat="48.10312" lon="6.31509">
        <ele>323.6006</ele>
        <time>2026-05-17T12:17:23+02:00</time>
      </trkpt>
      <trkpt lat="48.10317" lon="6.31506">
        <ele>323.4004</ele>
        <time>2026-05-17T12:17:24+02:00</time>
      </trkpt>
      <trkpt lat="48.10322" lon="6.31503">
        <ele>323.2998</ele>
        <time>2026-05-17T12:17:25+02:00</time>
      </trkpt>
      <trkpt lat="48.10327" lon="6.315">
        <ele>323.2002</ele>
        <time>2026-05-17T12:17:26+02:00</time>
      </trkpt>
      <trkpt lat="48.10332" lon="6.31498">
        <ele>322.9004</ele>
        <time>2026-05-17T12:17:27+02:00</time>
      </trkpt>
      <trkpt lat="48.10337" lon="6.31495">
        <ele>322.9004</ele>
        <time>2026-05-17T12:17:28+02:00</time>
      </trkpt>
      <trkpt lat="48.10342" lon="6.31492">
        <ele>322.9004</ele>
        <time>2026-05-17T12:17:29+02:00</time>
      </trkpt>
      <trkpt lat="48.10347" lon="6.3149">
        <ele>322.7002</ele>
        <time>2026-05-17T12:17:30+02:00</time>
      </trkpt>
      <trkpt lat="48.10352" lon="6.31487">
        <ele>322.7002</ele>
        <time>2026-05-17T12:17:31+02:00</time>
      </trkpt>
      <trkpt lat="48.10357" lon="6.31484">
        <ele>322.7998</ele>
        <time>2026-05-17T12:17:32+02:00</time>
      </trkpt>
      <trkpt lat="48.10362" lon="6.31481">
        <ele>322.7002</ele>
        <time>2026-05-17T12:17:33+02:00</time>
      </trkpt>
      <trkpt lat="48.10367" lon="6.31479">
        <ele>322.7002</ele>
        <time>2026-05-17T12:17:34+02:00</time>
      </trkpt>
      <trkpt lat="48.10371" lon="6.31476">
        <ele>322.7998</ele>
        <time>2026-05-17T12:17:35+02:00</time>
      </trkpt>
      <trkpt lat="48.10376" lon="6.31473">
        <ele>322.7002</ele>
        <time>2026-05-17T12:17:36+02:00</time>
      </trkpt>
      <trkpt lat="48.1038" lon="6.31471">
        <ele>322.7998</ele>
        <time>2026-05-17T12:17:37+02:00</time>
      </trkpt>
      <trkpt lat="48.10385" lon="6.3147">
        <ele>322.9004</ele>
        <time>2026-05-17T12:17:38+02:00</time>
      </trkpt>
      <trkpt lat="48.1039" lon="6.31467">
        <ele>322.9004</ele>
        <time>2026-05-17T12:17:39+02:00</time>
      </trkpt>
      <trkpt lat="48.10395" lon="6.31465">
        <ele>322.9004</ele>
        <time>2026-05-17T12:17:40+02:00</time>
      </trkpt>
      <trkpt lat="48.10399" lon="6.31463">
        <ele>322.9004</ele>
        <time>2026-05-17T12:17:41+02:00</time>
      </trkpt>
      <trkpt lat="48.10404" lon="6.31461">
        <ele>322.9004</ele>
        <time>2026-05-17T12:17:42+02:00</time>
      </trkpt>
      <trkpt lat="48.10409" lon="6.31459">
        <ele>323</ele>
        <time>2026-05-17T12:17:43+02:00</time>
      </trkpt>
      <trkpt lat="48.10413" lon="6.31457">
        <ele>323</ele>
        <time>2026-05-17T12:17:44+02:00</time>
      </trkpt>
      <trkpt lat="48.10418" lon="6.31456">
        <ele>322.9004</ele>
        <time>2026-05-17T12:17:45+02:00</time>
      </trkpt>
      <trkpt lat="48.10423" lon="6.31454">
        <ele>323</ele>
        <time>2026-05-17T12:17:46+02:00</time>
      </trkpt>
      <trkpt lat="48.10428" lon="6.31453">
        <ele>323</ele>
        <time>2026-05-17T12:17:47+02:00</time>
      </trkpt>
      <trkpt lat="48.10433" lon="6.31452">
        <ele>323</ele>
        <time>2026-05-17T12:17:48+02:00</time>
      </trkpt>
      <trkpt lat="48.10438" lon="6.31452">
        <ele>323.1006</ele>
        <time>2026-05-17T12:17:49+02:00</time>
      </trkpt>
      <trkpt lat="48.10442" lon="6.31451">
        <ele>323.1006</ele>
        <time>2026-05-17T12:17:50+02:00</time>
      </trkpt>
      <trkpt lat="48.10447" lon="6.31451">
        <ele>323.2002</ele>
        <time>2026-05-17T12:17:51+02:00</time>
      </trkpt>
      <trkpt lat="48.10452" lon="6.31451">
        <ele>323.2002</ele>
        <time>2026-05-17T12:17:52+02:00</time>
      </trkpt>
      <trkpt lat="48.10457" lon="6.31451">
        <ele>323.2998</ele>
        <time>2026-05-17T12:17:53+02:00</time>
      </trkpt>
      <trkpt lat="48.10462" lon="6.31452">
        <ele>323.2998</ele>
        <time>2026-05-17T12:17:54+02:00</time>
      </trkpt>
      <trkpt lat="48.10468" lon="6.31452">
        <ele>323.4004</ele>
        <time>2026-05-17T12:17:55+02:00</time>
      </trkpt>
      <trkpt lat="48.10472" lon="6.31453">
        <ele>323.4004</ele>
        <time>2026-05-17T12:17:56+02:00</time>
      </trkpt>
      <trkpt lat="48.10478" lon="6.31453">
        <ele>323.5</ele>
        <time>2026-05-17T12:17:57+02:00</time>
      </trkpt>
      <trkpt lat="48.10483" lon="6.31455">
        <ele>323.6006</ele>
        <time>2026-05-17T12:17:58+02:00</time>
      </trkpt>
      <trkpt lat="48.10489" lon="6.31457">
        <ele>324</ele>
        <time>2026-05-17T12:17:59+02:00</time>
      </trkpt>
      <trkpt lat="48.10495" lon="6.31459">
        <ele>324.1006</ele>
        <time>2026-05-17T12:18:00+02:00</time>
      </trkpt>
      <trkpt lat="48.105" lon="6.31462">
        <ele>324.2998</ele>
        <time>2026-05-17T12:18:01+02:00</time>
      </trkpt>
      <trkpt lat="48.10506" lon="6.31464">
        <ele>324.5</ele>
        <time>2026-05-17T12:18:02+02:00</time>
      </trkpt>
      <trkpt lat="48.10512" lon="6.31467">
        <ele>324.9004</ele>
        <time>2026-05-17T12:18:03+02:00</time>
      </trkpt>
      <trkpt lat="48.10517" lon="6.31471">
        <ele>325.1006</ele>
        <time>2026-05-17T12:18:04+02:00</time>
      </trkpt>
      <trkpt lat="48.10523" lon="6.31475">
        <ele>325.2998</ele>
        <time>2026-05-17T12:18:05+02:00</time>
      </trkpt>
      <trkpt lat="48.10529" lon="6.31478">
        <ele>325.2998</ele>
        <time>2026-05-17T12:18:06+02:00</time>
      </trkpt>
      <trkpt lat="48.10534" lon="6.31482">
        <ele>325.2998</ele>
        <time>2026-05-17T12:18:07+02:00</time>
      </trkpt>
      <trkpt lat="48.10539" lon="6.31486">
        <ele>325.5</ele>
        <time>2026-05-17T12:18:08+02:00</time>
      </trkpt>
      <trkpt lat="48.10544" lon="6.3149">
        <ele>325.6006</ele>
        <time>2026-05-17T12:18:09+02:00</time>
      </trkpt>
      <trkpt lat="48.10549" lon="6.31494">
        <ele>325.7998</ele>
        <time>2026-05-17T12:18:10+02:00</time>
      </trkpt>
      <trkpt lat="48.10554" lon="6.31499">
        <ele>325.9004</ele>
        <time>2026-05-17T12:18:11+02:00</time>
      </trkpt>
      <trkpt lat="48.10559" lon="6.31503">
        <ele>325.9004</ele>
        <time>2026-05-17T12:18:12+02:00</time>
      </trkpt>
      <trkpt lat="48.10564" lon="6.31508">
        <ele>326.5</ele>
        <time>2026-05-17T12:18:13+02:00</time>
      </trkpt>
      <trkpt lat="48.10569" lon="6.31513">
        <ele>326.7998</ele>
        <time>2026-05-17T12:18:14+02:00</time>
      </trkpt>
      <trkpt lat="48.10574" lon="6.31518">
        <ele>327.1006</ele>
        <time>2026-05-17T12:18:15+02:00</time>
      </trkpt>
      <trkpt lat="48.10579" lon="6.31523">
        <ele>327.1006</ele>
        <time>2026-05-17T12:18:16+02:00</time>
      </trkpt>
      <trkpt lat="48.10584" lon="6.31528">
        <ele>327.2998</ele>
        <time>2026-05-17T12:18:17+02:00</time>
      </trkpt>
      <trkpt lat="48.10589" lon="6.31533">
        <ele>327.2002</ele>
        <time>2026-05-17T12:18:18+02:00</time>
      </trkpt>
      <trkpt lat="48.10594" lon="6.31538">
        <ele>327.4004</ele>
        <time>2026-05-17T12:18:19+02:00</time>
      </trkpt>
      <trkpt lat="48.10598" lon="6.31543">
        <ele>327.7002</ele>
        <time>2026-05-17T12:18:20+02:00</time>
      </trkpt>
      <trkpt lat="48.10603" lon="6.31548">
        <ele>327.6006</ele>
        <time>2026-05-17T12:18:21+02:00</time>
      </trkpt>
      <trkpt lat="48.10607" lon="6.31552">
        <ele>327.7998</ele>
        <time>2026-05-17T12:18:22+02:00</time>
      </trkpt>
      <trkpt lat="48.10612" lon="6.31556">
        <ele>327.5</ele>
        <time>2026-05-17T12:18:23+02:00</time>
      </trkpt>
      <trkpt lat="48.10616" lon="6.3156">
        <ele>328</ele>
        <time>2026-05-17T12:18:24+02:00</time>
      </trkpt>
      <trkpt lat="48.10619" lon="6.31564">
        <ele>327.7002</ele>
        <time>2026-05-17T12:18:25+02:00</time>
      </trkpt>
      <trkpt lat="48.10623" lon="6.31567">
        <ele>327.2998</ele>
        <time>2026-05-17T12:18:26+02:00</time>
      </trkpt>
      <trkpt lat="48.10627" lon="6.3157">
        <ele>327.7998</ele>
        <time>2026-05-17T12:18:27+02:00</time>
      </trkpt>
      <trkpt lat="48.10631" lon="6.31572">
        <ele>327.5</ele>
        <time>2026-05-17T12:18:28+02:00</time>
      </trkpt>
      <trkpt lat="48.10634" lon="6.31576">
        <ele>327.5</ele>
        <time>2026-05-17T12:18:29+02:00</time>
      </trkpt>
      <trkpt lat="48.10637" lon="6.31579">
        <ele>327.9004</ele>
        <time>2026-05-17T12:18:30+02:00</time>
      </trkpt>
      <trkpt lat="48.10641" lon="6.31582">
        <ele>327.6006</ele>
        <time>2026-05-17T12:18:31+02:00</time>
      </trkpt>
      <trkpt lat="48.10645" lon="6.31586">
        <ele>328.2002</ele>
        <time>2026-05-17T12:18:32+02:00</time>
      </trkpt>
      <trkpt lat="48.10648" lon="6.3159">
        <ele>327.9004</ele>
        <time>2026-05-17T12:18:33+02:00</time>
      </trkpt>
      <trkpt lat="48.10652" lon="6.31594">
        <ele>328.1006</ele>
        <time>2026-05-17T12:18:34+02:00</time>
      </trkpt>
      <trkpt lat="48.10655" lon="6.31598">
        <ele>328.1006</ele>
        <time>2026-05-17T12:18:35+02:00</time>
      </trkpt>
      <trkpt lat="48.10658" lon="6.31602">
        <ele>327.7998</ele>
        <time>2026-05-17T12:18:36+02:00</time>
      </trkpt>
      <trkpt lat="48.10662" lon="6.31606">
        <ele>328.2998</ele>
        <time>2026-05-17T12:18:37+02:00</time>
      </trkpt>
      <trkpt lat="48.10665" lon="6.31611">
        <ele>328.6006</ele>
        <time>2026-05-17T12:18:38+02:00</time>
      </trkpt>
      <trkpt lat="48.10669" lon="6.31615">
        <ele>328.2002</ele>
        <time>2026-05-17T12:18:39+02:00</time>
      </trkpt>
      <trkpt lat="48.10673" lon="6.3162">
        <ele>328.9004</ele>
        <time>2026-05-17T12:18:40+02:00</time>
      </trkpt>
      <trkpt lat="48.10677" lon="6.31624">
        <ele>328.5</ele>
        <time>2026-05-17T12:18:41+02:00</time>
      </trkpt>
      <trkpt lat="48.10681" lon="6.31629">
        <ele>328.7002</ele>
        <time>2026-05-17T12:18:42+02:00</time>
      </trkpt>
      <trkpt lat="48.10685" lon="6.31633">
        <ele>328.7002</ele>
        <time>2026-05-17T12:18:43+02:00</time>
      </trkpt>
      <trkpt lat="48.10689" lon="6.31638">
        <ele>328.9004</ele>
        <time>2026-05-17T12:18:44+02:00</time>
      </trkpt>
      <trkpt lat="48.10693" lon="6.31642">
        <ele>328.5</ele>
        <time>2026-05-17T12:18:45+02:00</time>
      </trkpt>
      <trkpt lat="48.10698" lon="6.31647">
        <ele>328.7002</ele>
        <time>2026-05-17T12:18:46+02:00</time>
      </trkpt>
      <trkpt lat="48.10702" lon="6.31651">
        <ele>328.7002</ele>
        <time>2026-05-17T12:18:47+02:00</time>
      </trkpt>
      <trkpt lat="48.10707" lon="6.31655">
        <ele>328.7998</ele>
        <time>2026-05-17T12:18:48+02:00</time>
      </trkpt>
      <trkpt lat="48.10711" lon="6.3166">
        <ele>328.2998</ele>
        <time>2026-05-17T12:18:49+02:00</time>
      </trkpt>
      <trkpt lat="48.10715" lon="6.31664">
        <ele>328.2998</ele>
        <time>2026-05-17T12:18:50+02:00</time>
      </trkpt>
      <trkpt lat="48.1072" lon="6.31669">
        <ele>328.2998</ele>
        <time>2026-05-17T12:18:51+02:00</time>
      </trkpt>
      <trkpt lat="48.10724" lon="6.31673">
        <ele>328.5</ele>
        <time>2026-05-17T12:18:52+02:00</time>
      </trkpt>
      <trkpt lat="48.10729" lon="6.31677">
        <ele>328.1006</ele>
        <time>2026-05-17T12:18:53+02:00</time>
      </trkpt>
      <trkpt lat="48.10733" lon="6.31682">
        <ele>328</ele>
        <time>2026-05-17T12:18:54+02:00</time>
      </trkpt>
      <trkpt lat="48.10737" lon="6.31686">
        <ele>328</ele>
        <time>2026-05-17T12:18:55+02:00</time>
      </trkpt>
      <trkpt lat="48.10742" lon="6.31691">
        <ele>327.7998</ele>
        <time>2026-05-17T12:18:56+02:00</time>
      </trkpt>
      <trkpt lat="48.10746" lon="6.31695">
        <ele>327.2998</ele>
        <time>2026-05-17T12:18:57+02:00</time>
      </trkpt>
      <trkpt lat="48.1075" lon="6.317">
        <ele>327.5</ele>
        <time>2026-05-17T12:18:58+02:00</time>
      </trkpt>
      <trkpt lat="48.10754" lon="6.31705">
        <ele>327.5</ele>
        <time>2026-05-17T12:18:59+02:00</time>
      </trkpt>
      <trkpt lat="48.10758" lon="6.3171">
        <ele>327.5</ele>
        <time>2026-05-17T12:19:00+02:00</time>
      </trkpt>
      <trkpt lat="48.10762" lon="6.31715">
        <ele>327.2002</ele>
        <time>2026-05-17T12:19:01+02:00</time>
      </trkpt>
      <trkpt lat="48.10766" lon="6.31721">
        <ele>327.2002</ele>
        <time>2026-05-17T12:19:02+02:00</time>
      </trkpt>
      <trkpt lat="48.10769" lon="6.31727">
        <ele>327.2002</ele>
        <time>2026-05-17T12:19:03+02:00</time>
      </trkpt>
      <trkpt lat="48.10773" lon="6.31733">
        <ele>327.4004</ele>
        <time>2026-05-17T12:19:04+02:00</time>
      </trkpt>
      <trkpt lat="48.10776" lon="6.31739">
        <ele>327.4004</ele>
        <time>2026-05-17T12:19:05+02:00</time>
      </trkpt>
      <trkpt lat="48.10779" lon="6.31746">
        <ele>327.2998</ele>
        <time>2026-05-17T12:19:06+02:00</time>
      </trkpt>
      <trkpt lat="48.10782" lon="6.31753">
        <ele>327.4004</ele>
        <time>2026-05-17T12:19:07+02:00</time>
      </trkpt>
      <trkpt lat="48.10785" lon="6.31759">
        <ele>326.9004</ele>
        <time>2026-05-17T12:19:08+02:00</time>
      </trkpt>
      <trkpt lat="48.10787" lon="6.31767">
        <ele>326.9004</ele>
        <time>2026-05-17T12:19:09+02:00</time>
      </trkpt>
      <trkpt lat="48.10789" lon="6.31774">
        <ele>326.4004</ele>
        <time>2026-05-17T12:19:10+02:00</time>
      </trkpt>
      <trkpt lat="48.10791" lon="6.31782">
        <ele>326.4004</ele>
        <time>2026-05-17T12:19:11+02:00</time>
      </trkpt>
      <trkpt lat="48.10793" lon="6.31789">
        <ele>326.4004</ele>
        <time>2026-05-17T12:19:12+02:00</time>
      </trkpt>
      <trkpt lat="48.10795" lon="6.31797">
        <ele>326.1006</ele>
        <time>2026-05-17T12:19:13+02:00</time>
      </trkpt>
      <trkpt lat="48.10796" lon="6.31805">
        <ele>326.1006</ele>
        <time>2026-05-17T12:19:14+02:00</time>
      </trkpt>
      <trkpt lat="48.10798" lon="6.31813">
        <ele>326.1006</ele>
        <time>2026-05-17T12:19:15+02:00</time>
      </trkpt>
      <trkpt lat="48.10799" lon="6.31821">
        <ele>326.1006</ele>
        <time>2026-05-17T12:19:16+02:00</time>
      </trkpt>
      <trkpt lat="48.108" lon="6.31829">
        <ele>326.2002</ele>
        <time>2026-05-17T12:19:17+02:00</time>
      </trkpt>
      <trkpt lat="48.108" lon="6.31837">
        <ele>326.2002</ele>
        <time>2026-05-17T12:19:18+02:00</time>
      </trkpt>
      <trkpt lat="48.108" lon="6.31845">
        <ele>326.2002</ele>
        <time>2026-05-17T12:19:19+02:00</time>
      </trkpt>
      <trkpt lat="48.108" lon="6.31854">
        <ele>326.2002</ele>
        <time>2026-05-17T12:19:20+02:00</time>
      </trkpt>
      <trkpt lat="48.108" lon="6.31862">
        <ele>326.2002</ele>
        <time>2026-05-17T12:19:21+02:00</time>
      </trkpt>
      <trkpt lat="48.10799" lon="6.31871">
        <ele>326.2002</ele>
        <time>2026-05-17T12:19:22+02:00</time>
      </trkpt>
      <trkpt lat="48.10798" lon="6.31879">
        <ele>326.2002</ele>
        <time>2026-05-17T12:19:23+02:00</time>
      </trkpt>
      <trkpt lat="48.10797" lon="6.31888">
        <ele>326.2002</ele>
        <time>2026-05-17T12:19:24+02:00</time>
      </trkpt>
      <trkpt lat="48.10796" lon="6.31896">
        <ele>326.2998</ele>
        <time>2026-05-17T12:19:25+02:00</time>
      </trkpt>
      <trkpt lat="48.10795" lon="6.31904">
        <ele>326.2998</ele>
        <time>2026-05-17T12:19:26+02:00</time>
      </trkpt>
      <trkpt lat="48.10794" lon="6.31912">
        <ele>326.7002</ele>
        <time>2026-05-17T12:19:27+02:00</time>
      </trkpt>
      <trkpt lat="48.10793" lon="6.3192">
        <ele>326.7002</ele>
        <time>2026-05-17T12:19:28+02:00</time>
      </trkpt>
      <trkpt lat="48.10792" lon="6.31928">
        <ele>326.7002</ele>
        <time>2026-05-17T12:19:29+02:00</time>
      </trkpt>
      <trkpt lat="48.10791" lon="6.31936">
        <ele>326.6006</ele>
        <time>2026-05-17T12:19:30+02:00</time>
      </trkpt>
      <trkpt lat="48.10789" lon="6.31944">
        <ele>326.6006</ele>
        <time>2026-05-17T12:19:31+02:00</time>
      </trkpt>
      <trkpt lat="48.10788" lon="6.31953">
        <ele>327</ele>
        <time>2026-05-17T12:19:32+02:00</time>
      </trkpt>
      <trkpt lat="48.10787" lon="6.31961">
        <ele>326.9004</ele>
        <time>2026-05-17T12:19:33+02:00</time>
      </trkpt>
      <trkpt lat="48.10786" lon="6.31969">
        <ele>326.9004</ele>
        <time>2026-05-17T12:19:34+02:00</time>
      </trkpt>
      <trkpt lat="48.10785" lon="6.31977">
        <ele>326.9004</ele>
        <time>2026-05-17T12:19:35+02:00</time>
      </trkpt>
      <trkpt lat="48.10784" lon="6.31984">
        <ele>326.7998</ele>
        <time>2026-05-17T12:19:36+02:00</time>
      </trkpt>
      <trkpt lat="48.10783" lon="6.31992">
        <ele>327</ele>
        <time>2026-05-17T12:19:37+02:00</time>
      </trkpt>
      <trkpt lat="48.10783" lon="6.32">
        <ele>326.9004</ele>
        <time>2026-05-17T12:19:38+02:00</time>
      </trkpt>
      <trkpt lat="48.10782" lon="6.32008">
        <ele>326.7998</ele>
        <time>2026-05-17T12:19:39+02:00</time>
      </trkpt>
      <trkpt lat="48.10781" lon="6.32016">
        <ele>326.7998</ele>
        <time>2026-05-17T12:19:40+02:00</time>
      </trkpt>
      <trkpt lat="48.10781" lon="6.32024">
        <ele>326.7002</ele>
        <time>2026-05-17T12:19:41+02:00</time>
      </trkpt>
      <trkpt lat="48.1078" lon="6.32032">
        <ele>326.6006</ele>
        <time>2026-05-17T12:19:42+02:00</time>
      </trkpt>
      <trkpt lat="48.1078" lon="6.3204">
        <ele>326.5</ele>
        <time>2026-05-17T12:19:43+02:00</time>
      </trkpt>
      <trkpt lat="48.1078" lon="6.32049">
        <ele>326.4004</ele>
        <time>2026-05-17T12:19:44+02:00</time>
      </trkpt>
      <trkpt lat="48.10779" lon="6.32057">
        <ele>326.4004</ele>
        <time>2026-05-17T12:19:45+02:00</time>
      </trkpt>
      <trkpt lat="48.10779" lon="6.32065">
        <ele>326.2998</ele>
        <time>2026-05-17T12:19:46+02:00</time>
      </trkpt>
      <trkpt lat="48.10779" lon="6.32074">
        <ele>326.1006</ele>
        <time>2026-05-17T12:19:47+02:00</time>
      </trkpt>
      <trkpt lat="48.10778" lon="6.32082">
        <ele>326</ele>
        <time>2026-05-17T12:19:48+02:00</time>
      </trkpt>
      <trkpt lat="48.10779" lon="6.32091">
        <ele>325.9004</ele>
        <time>2026-05-17T12:19:49+02:00</time>
      </trkpt>
      <trkpt lat="48.10779" lon="6.32099">
        <ele>325.9004</ele>
        <time>2026-05-17T12:19:50+02:00</time>
      </trkpt>
      <trkpt lat="48.10779" lon="6.32107">
        <ele>325.7998</ele>
        <time>2026-05-17T12:19:51+02:00</time>
      </trkpt>
      <trkpt lat="48.10779" lon="6.32116">
        <ele>325.7002</ele>
        <time>2026-05-17T12:19:52+02:00</time>
      </trkpt>
      <trkpt lat="48.10779" lon="6.32124">
        <ele>325.6006</ele>
        <time>2026-05-17T12:19:53+02:00</time>
      </trkpt>
      <trkpt lat="48.10779" lon="6.32133">
        <ele>325.6006</ele>
        <time>2026-05-17T12:19:54+02:00</time>
      </trkpt>
      <trkpt lat="48.1078" lon="6.32141">
        <ele>325.5</ele>
        <time>2026-05-17T12:19:55+02:00</time>
      </trkpt>
      <trkpt lat="48.1078" lon="6.3215">
        <ele>325.5</ele>
        <time>2026-05-17T12:19:56+02:00</time>
      </trkpt>
      <trkpt lat="48.1078" lon="6.32158">
        <ele>325.5</ele>
        <time>2026-05-17T12:19:57+02:00</time>
      </trkpt>
      <trkpt lat="48.1078" lon="6.32166">
        <ele>325.5</ele>
        <time>2026-05-17T12:19:58+02:00</time>
      </trkpt>
      <trkpt lat="48.1078" lon="6.32175">
        <ele>325.5</ele>
        <time>2026-05-17T12:19:59+02:00</time>
      </trkpt>
      <trkpt lat="48.10781" lon="6.32183">
        <ele>325.5</ele>
        <time>2026-05-17T12:20:00+02:00</time>
      </trkpt>
      <trkpt lat="48.10781" lon="6.32191">
        <ele>325.5</ele>
        <time>2026-05-17T12:20:01+02:00</time>
      </trkpt>
      <trkpt lat="48.10782" lon="6.322">
        <ele>325.5</ele>
        <time>2026-05-17T12:20:02+02:00</time>
      </trkpt>
      <trkpt lat="48.10782" lon="6.32208">
        <ele>325.6006</ele>
        <time>2026-05-17T12:20:03+02:00</time>
      </trkpt>
      <trkpt lat="48.10783" lon="6.32216">
        <ele>325.6006</ele>
        <time>2026-05-17T12:20:04+02:00</time>
      </trkpt>
      <trkpt lat="48.10783" lon="6.32223">
        <ele>325.7002</ele>
        <time>2026-05-17T12:20:05+02:00</time>
      </trkpt>
      <trkpt lat="48.10783" lon="6.3223">
        <ele>325.7002</ele>
        <time>2026-05-17T12:20:06+02:00</time>
      </trkpt>
      <trkpt lat="48.10784" lon="6.32236">
        <ele>325.2998</ele>
        <time>2026-05-17T12:20:07+02:00</time>
      </trkpt>
      <trkpt lat="48.10784" lon="6.32241">
        <ele>325.4004</ele>
        <time>2026-05-17T12:20:08+02:00</time>
      </trkpt>
      <trkpt lat="48.10784" lon="6.32246">
        <ele>325.4004</ele>
        <time>2026-05-17T12:20:09+02:00</time>
      </trkpt>
      <trkpt lat="48.10785" lon="6.3225">
        <ele>325.5</ele>
        <time>2026-05-17T12:20:10+02:00</time>
      </trkpt>
      <trkpt lat="48.10785" lon="6.32253">
        <ele>325.5</ele>
        <time>2026-05-17T12:20:11+02:00</time>
      </trkpt>
      <trkpt lat="48.10785" lon="6.32256">
        <ele>325.7002</ele>
        <time>2026-05-17T12:20:12+02:00</time>
      </trkpt>
      <trkpt lat="48.10786" lon="6.32259">
        <ele>325.7002</ele>
        <time>2026-05-17T12:20:13+02:00</time>
      </trkpt>
      <trkpt lat="48.10786" lon="6.32261">
        <ele>325.7002</ele>
        <time>2026-05-17T12:20:14+02:00</time>
      </trkpt>
      <trkpt lat="48.10786" lon="6.32264">
        <ele>325.9004</ele>
        <time>2026-05-17T12:20:15+02:00</time>
      </trkpt>
      <trkpt lat="48.10787" lon="6.32268">
        <ele>325.9004</ele>
        <time>2026-05-17T12:20:16+02:00</time>
      </trkpt>
      <trkpt lat="48.10788" lon="6.32272">
        <ele>326.1006</ele>
        <time>2026-05-17T12:20:17+02:00</time>
      </trkpt>
      <trkpt lat="48.10789" lon="6.32277">
        <ele>325.7002</ele>
        <time>2026-05-17T12:20:18+02:00</time>
      </trkpt>
      <trkpt lat="48.1079" lon="6.32283">
        <ele>325.9004</ele>
        <time>2026-05-17T12:20:19+02:00</time>
      </trkpt>
      <trkpt lat="48.10792" lon="6.3229">
        <ele>326</ele>
        <time>2026-05-17T12:20:20+02:00</time>
      </trkpt>
      <trkpt lat="48.10794" lon="6.32297">
        <ele>326</ele>
        <time>2026-05-17T12:20:21+02:00</time>
      </trkpt>
      <trkpt lat="48.10795" lon="6.32305">
        <ele>325.9004</ele>
        <time>2026-05-17T12:20:22+02:00</time>
      </trkpt>
      <trkpt lat="48.10797" lon="6.32312">
        <ele>326.1006</ele>
        <time>2026-05-17T12:20:23+02:00</time>
      </trkpt>
      <trkpt lat="48.108" lon="6.3232">
        <ele>326.2998</ele>
        <time>2026-05-17T12:20:24+02:00</time>
      </trkpt>
      <trkpt lat="48.10801" lon="6.32329">
        <ele>326.2998</ele>
        <time>2026-05-17T12:20:25+02:00</time>
      </trkpt>
      <trkpt lat="48.10803" lon="6.32337">
        <ele>326.5</ele>
        <time>2026-05-17T12:20:26+02:00</time>
      </trkpt>
      <trkpt lat="48.10805" lon="6.32346">
        <ele>326.7998</ele>
        <time>2026-05-17T12:20:27+02:00</time>
      </trkpt>
      <trkpt lat="48.10806" lon="6.32355">
        <ele>327</ele>
        <time>2026-05-17T12:20:28+02:00</time>
      </trkpt>
      <trkpt lat="48.10808" lon="6.32363">
        <ele>326.9004</ele>
        <time>2026-05-17T12:20:29+02:00</time>
      </trkpt>
      <trkpt lat="48.10809" lon="6.32371">
        <ele>327.1006</ele>
        <time>2026-05-17T12:20:30+02:00</time>
      </trkpt>
      <trkpt lat="48.10811" lon="6.32379">
        <ele>327.2002</ele>
        <time>2026-05-17T12:20:31+02:00</time>
      </trkpt>
      <trkpt lat="48.10813" lon="6.32387">
        <ele>327.2002</ele>
        <time>2026-05-17T12:20:32+02:00</time>
      </trkpt>
      <trkpt lat="48.10814" lon="6.32395">
        <ele>327.4004</ele>
        <time>2026-05-17T12:20:33+02:00</time>
      </trkpt>
      <trkpt lat="48.10815" lon="6.32403">
        <ele>327.5</ele>
        <time>2026-05-17T12:20:34+02:00</time>
      </trkpt>
      <trkpt lat="48.10816" lon="6.3241">
        <ele>327.7002</ele>
        <time>2026-05-17T12:20:35+02:00</time>
      </trkpt>
      <trkpt lat="48.10818" lon="6.32418">
        <ele>327.7002</ele>
        <time>2026-05-17T12:20:36+02:00</time>
      </trkpt>
      <trkpt lat="48.10819" lon="6.32425">
        <ele>327.7002</ele>
        <time>2026-05-17T12:20:37+02:00</time>
      </trkpt>
      <trkpt lat="48.1082" lon="6.32432">
        <ele>327.9004</ele>
        <time>2026-05-17T12:20:38+02:00</time>
      </trkpt>
      <trkpt lat="48.10821" lon="6.32439">
        <ele>328.1006</ele>
        <time>2026-05-17T12:20:39+02:00</time>
      </trkpt>
      <trkpt lat="48.10822" lon="6.32446">
        <ele>328.4004</ele>
        <time>2026-05-17T12:20:40+02:00</time>
      </trkpt>
      <trkpt lat="48.10824" lon="6.32453">
        <ele>328.7998</ele>
        <time>2026-05-17T12:20:41+02:00</time>
      </trkpt>
      <trkpt lat="48.10824" lon="6.32459">
        <ele>328.7998</ele>
        <time>2026-05-17T12:20:42+02:00</time>
      </trkpt>
      <trkpt lat="48.10825" lon="6.32466">
        <ele>329.2998</ele>
        <time>2026-05-17T12:20:43+02:00</time>
      </trkpt>
      <trkpt lat="48.10827" lon="6.32473">
        <ele>329.7998</ele>
        <time>2026-05-17T12:20:44+02:00</time>
      </trkpt>
      <trkpt lat="48.10828" lon="6.3248">
        <ele>330.1006</ele>
        <time>2026-05-17T12:20:45+02:00</time>
      </trkpt>
      <trkpt lat="48.10829" lon="6.32487">
        <ele>329.9004</ele>
        <time>2026-05-17T12:20:46+02:00</time>
      </trkpt>
      <trkpt lat="48.1083" lon="6.32494">
        <ele>329.9004</ele>
        <time>2026-05-17T12:20:47+02:00</time>
      </trkpt>
      <trkpt lat="48.10831" lon="6.32501">
        <ele>330</ele>
        <time>2026-05-17T12:20:48+02:00</time>
      </trkpt>
      <trkpt lat="48.10832" lon="6.32508">
        <ele>330.2002</ele>
        <time>2026-05-17T12:20:49+02:00</time>
      </trkpt>
      <trkpt lat="48.10834" lon="6.32515">
        <ele>330.6006</ele>
        <time>2026-05-17T12:20:50+02:00</time>
      </trkpt>
      <trkpt lat="48.10835" lon="6.32521">
        <ele>330.4004</ele>
        <time>2026-05-17T12:20:51+02:00</time>
      </trkpt>
      <trkpt lat="48.10837" lon="6.32528">
        <ele>330.4004</ele>
        <time>2026-05-17T12:20:52+02:00</time>
      </trkpt>
      <trkpt lat="48.10838" lon="6.32535">
        <ele>330.9004</ele>
        <time>2026-05-17T12:20:53+02:00</time>
      </trkpt>
      <trkpt lat="48.10841" lon="6.32541">
        <ele>331</ele>
        <time>2026-05-17T12:20:54+02:00</time>
      </trkpt>
      <trkpt lat="48.10843" lon="6.32548">
        <ele>331.5</ele>
        <time>2026-05-17T12:20:55+02:00</time>
      </trkpt>
      <trkpt lat="48.10846" lon="6.32553">
        <ele>331.5</ele>
        <time>2026-05-17T12:20:56+02:00</time>
      </trkpt>
      <trkpt lat="48.10849" lon="6.32559">
        <ele>331.4004</ele>
        <time>2026-05-17T12:20:57+02:00</time>
      </trkpt>
      <trkpt lat="48.10852" lon="6.32564">
        <ele>331.2998</ele>
        <time>2026-05-17T12:20:58+02:00</time>
      </trkpt>
      <trkpt lat="48.10856" lon="6.32569">
        <ele>331.2998</ele>
        <time>2026-05-17T12:20:59+02:00</time>
      </trkpt>
      <trkpt lat="48.10859" lon="6.32574">
        <ele>331.5</ele>
        <time>2026-05-17T12:21:00+02:00</time>
      </trkpt>
      <trkpt lat="48.10863" lon="6.32578">
        <ele>331.5</ele>
        <time>2026-05-17T12:21:01+02:00</time>
      </trkpt>
      <trkpt lat="48.10867" lon="6.32582">
        <ele>331.6006</ele>
        <time>2026-05-17T12:21:02+02:00</time>
      </trkpt>
      <trkpt lat="48.10871" lon="6.32586">
        <ele>331.4004</ele>
        <time>2026-05-17T12:21:03+02:00</time>
      </trkpt>
      <trkpt lat="48.10875" lon="6.32589">
        <ele>331.1006</ele>
        <time>2026-05-17T12:21:04+02:00</time>
      </trkpt>
      <trkpt lat="48.1088" lon="6.32592">
        <ele>331.5</ele>
        <time>2026-05-17T12:21:05+02:00</time>
      </trkpt>
      <trkpt lat="48.10884" lon="6.32595">
        <ele>331.2002</ele>
        <time>2026-05-17T12:21:06+02:00</time>
      </trkpt>
      <trkpt lat="48.10888" lon="6.32597">
        <ele>331</ele>
        <time>2026-05-17T12:21:07+02:00</time>
      </trkpt>
      <trkpt lat="48.10893" lon="6.32599">
        <ele>331.5</ele>
        <time>2026-05-17T12:21:08+02:00</time>
      </trkpt>
      <trkpt lat="48.10898" lon="6.32602">
        <ele>331.5</ele>
        <time>2026-05-17T12:21:09+02:00</time>
      </trkpt>
      <trkpt lat="48.10903" lon="6.32604">
        <ele>331.5</ele>
        <time>2026-05-17T12:21:10+02:00</time>
      </trkpt>
      <trkpt lat="48.10907" lon="6.32606">
        <ele>331.6006</ele>
        <time>2026-05-17T12:21:11+02:00</time>
      </trkpt>
      <trkpt lat="48.10912" lon="6.32608">
        <ele>331.9004</ele>
        <time>2026-05-17T12:21:12+02:00</time>
      </trkpt>
      <trkpt lat="48.10916" lon="6.3261">
        <ele>331.9004</ele>
        <time>2026-05-17T12:21:13+02:00</time>
      </trkpt>
      <trkpt lat="48.10921" lon="6.32612">
        <ele>331.9004</ele>
        <time>2026-05-17T12:21:14+02:00</time>
      </trkpt>
      <trkpt lat="48.10925" lon="6.32614">
        <ele>331.9004</ele>
        <time>2026-05-17T12:21:15+02:00</time>
      </trkpt>
      <trkpt lat="48.10929" lon="6.32615">
        <ele>331.9004</ele>
        <time>2026-05-17T12:21:16+02:00</time>
      </trkpt>
      <trkpt lat="48.10934" lon="6.32617">
        <ele>332</ele>
        <time>2026-05-17T12:21:17+02:00</time>
      </trkpt>
      <trkpt lat="48.10938" lon="6.32619">
        <ele>332</ele>
        <time>2026-05-17T12:21:18+02:00</time>
      </trkpt>
      <trkpt lat="48.10942" lon="6.3262">
        <ele>331.9004</ele>
        <time>2026-05-17T12:21:19+02:00</time>
      </trkpt>
      <trkpt lat="48.10946" lon="6.32621">
        <ele>331.7998</ele>
        <time>2026-05-17T12:21:20+02:00</time>
      </trkpt>
      <trkpt lat="48.10949" lon="6.32622">
        <ele>331.7998</ele>
        <time>2026-05-17T12:21:21+02:00</time>
      </trkpt>
      <trkpt lat="48.10954" lon="6.32623">
        <ele>331.7002</ele>
        <time>2026-05-17T12:21:22+02:00</time>
      </trkpt>
      <trkpt lat="48.10957" lon="6.32625">
        <ele>331.7998</ele>
        <time>2026-05-17T12:21:23+02:00</time>
      </trkpt>
      <trkpt lat="48.10961" lon="6.32626">
        <ele>331.7998</ele>
        <time>2026-05-17T12:21:24+02:00</time>
      </trkpt>
      <trkpt lat="48.10965" lon="6.32628">
        <ele>331.7998</ele>
        <time>2026-05-17T12:21:25+02:00</time>
      </trkpt>
      <trkpt lat="48.10969" lon="6.32631">
        <ele>331.7002</ele>
        <time>2026-05-17T12:21:26+02:00</time>
      </trkpt>
      <trkpt lat="48.10973" lon="6.32633">
        <ele>332.2002</ele>
        <time>2026-05-17T12:21:27+02:00</time>
      </trkpt>
      <trkpt lat="48.10977" lon="6.32635">
        <ele>332.2002</ele>
        <time>2026-05-17T12:21:28+02:00</time>
      </trkpt>
      <trkpt lat="48.10981" lon="6.32638">
        <ele>332.2998</ele>
        <time>2026-05-17T12:21:29+02:00</time>
      </trkpt>
      <trkpt lat="48.10985" lon="6.3264">
        <ele>332.4004</ele>
        <time>2026-05-17T12:21:30+02:00</time>
      </trkpt>
      <trkpt lat="48.10988" lon="6.32642">
        <ele>332.9004</ele>
        <time>2026-05-17T12:21:31+02:00</time>
      </trkpt>
      <trkpt lat="48.10992" lon="6.32644">
        <ele>333.1006</ele>
        <time>2026-05-17T12:21:32+02:00</time>
      </trkpt>
      <trkpt lat="48.10996" lon="6.32646">
        <ele>333.2002</ele>
        <time>2026-05-17T12:21:33+02:00</time>
      </trkpt>
      <trkpt lat="48.10999" lon="6.32648">
        <ele>333.2002</ele>
        <time>2026-05-17T12:21:34+02:00</time>
      </trkpt>
      <trkpt lat="48.11004" lon="6.3265">
        <ele>333.9004</ele>
        <time>2026-05-17T12:21:35+02:00</time>
      </trkpt>
      <trkpt lat="48.11008" lon="6.32652">
        <ele>334</ele>
        <time>2026-05-17T12:21:36+02:00</time>
      </trkpt>
      <trkpt lat="48.11012" lon="6.32655">
        <ele>334</ele>
        <time>2026-05-17T12:21:37+02:00</time>
      </trkpt>
      <trkpt lat="48.11017" lon="6.32657">
        <ele>334.2002</ele>
        <time>2026-05-17T12:21:38+02:00</time>
      </trkpt>
      <trkpt lat="48.11022" lon="6.32659">
        <ele>334.9004</ele>
        <time>2026-05-17T12:21:39+02:00</time>
      </trkpt>
      <trkpt lat="48.11026" lon="6.32661">
        <ele>335</ele>
        <time>2026-05-17T12:21:40+02:00</time>
      </trkpt>
      <trkpt lat="48.1103" lon="6.32663">
        <ele>335.2002</ele>
        <time>2026-05-17T12:21:41+02:00</time>
      </trkpt>
      <trkpt lat="48.11035" lon="6.32666">
        <ele>335.2002</ele>
        <time>2026-05-17T12:21:42+02:00</time>
      </trkpt>
      <trkpt lat="48.11039" lon="6.32668">
        <ele>335.7998</ele>
        <time>2026-05-17T12:21:43+02:00</time>
      </trkpt>
      <trkpt lat="48.11044" lon="6.3267">
        <ele>336</ele>
        <time>2026-05-17T12:21:44+02:00</time>
      </trkpt>
      <trkpt lat="48.11048" lon="6.32673">
        <ele>336.2002</ele>
        <time>2026-05-17T12:21:45+02:00</time>
      </trkpt>
      <trkpt lat="48.11053" lon="6.32675">
        <ele>336.4004</ele>
        <time>2026-05-17T12:21:46+02:00</time>
      </trkpt>
      <trkpt lat="48.11058" lon="6.32678">
        <ele>336.7002</ele>
        <time>2026-05-17T12:21:47+02:00</time>
      </trkpt>
      <trkpt lat="48.11063" lon="6.3268">
        <ele>336.9004</ele>
        <time>2026-05-17T12:21:48+02:00</time>
      </trkpt>
      <trkpt lat="48.11067" lon="6.32682">
        <ele>337</ele>
        <time>2026-05-17T12:21:49+02:00</time>
      </trkpt>
      <trkpt lat="48.11072" lon="6.32684">
        <ele>337.4004</ele>
        <time>2026-05-17T12:21:50+02:00</time>
      </trkpt>
      <trkpt lat="48.11077" lon="6.32687">
        <ele>337.5</ele>
        <time>2026-05-17T12:21:51+02:00</time>
      </trkpt>
      <trkpt lat="48.11081" lon="6.32689">
        <ele>337.5</ele>
        <time>2026-05-17T12:21:52+02:00</time>
      </trkpt>
      <trkpt lat="48.11086" lon="6.32691">
        <ele>337.5</ele>
        <time>2026-05-17T12:21:53+02:00</time>
      </trkpt>
      <trkpt lat="48.11091" lon="6.32693">
        <ele>337.7002</ele>
        <time>2026-05-17T12:21:54+02:00</time>
      </trkpt>
      <trkpt lat="48.11096" lon="6.32695">
        <ele>337.6006</ele>
        <time>2026-05-17T12:21:55+02:00</time>
      </trkpt>
      <trkpt lat="48.11101" lon="6.32698">
        <ele>337.6006</ele>
        <time>2026-05-17T12:21:56+02:00</time>
      </trkpt>
      <trkpt lat="48.11107" lon="6.327">
        <ele>337.6006</ele>
        <time>2026-05-17T12:21:57+02:00</time>
      </trkpt>
      <trkpt lat="48.11112" lon="6.32702">
        <ele>337.6006</ele>
        <time>2026-05-17T12:21:58+02:00</time>
      </trkpt>
      <trkpt lat="48.11117" lon="6.32703">
        <ele>337.5</ele>
        <time>2026-05-17T12:21:59+02:00</time>
      </trkpt>
      <trkpt lat="48.11123" lon="6.32704">
        <ele>337.5</ele>
        <time>2026-05-17T12:22:00+02:00</time>
      </trkpt>
      <trkpt lat="48.11128" lon="6.32706">
        <ele>337.6006</ele>
        <time>2026-05-17T12:22:01+02:00</time>
      </trkpt>
      <trkpt lat="48.11133" lon="6.32707">
        <ele>337.6006</ele>
        <time>2026-05-17T12:22:02+02:00</time>
      </trkpt>
      <trkpt lat="48.11139" lon="6.32708">
        <ele>337.7002</ele>
        <time>2026-05-17T12:22:03+02:00</time>
      </trkpt>
      <trkpt lat="48.11144" lon="6.3271">
        <ele>337.7998</ele>
        <time>2026-05-17T12:22:04+02:00</time>
      </trkpt>
      <trkpt lat="48.11149" lon="6.32711">
        <ele>338</ele>
        <time>2026-05-17T12:22:05+02:00</time>
      </trkpt>
      <trkpt lat="48.11155" lon="6.32712">
        <ele>338</ele>
        <time>2026-05-17T12:22:06+02:00</time>
      </trkpt>
      <trkpt lat="48.11161" lon="6.32713">
        <ele>338.1006</ele>
        <time>2026-05-17T12:22:07+02:00</time>
      </trkpt>
      <trkpt lat="48.11166" lon="6.32714">
        <ele>338.1006</ele>
        <time>2026-05-17T12:22:08+02:00</time>
      </trkpt>
      <trkpt lat="48.11171" lon="6.32715">
        <ele>338.1006</ele>
        <time>2026-05-17T12:22:09+02:00</time>
      </trkpt>
      <trkpt lat="48.11177" lon="6.32716">
        <ele>338.2002</ele>
        <time>2026-05-17T12:22:10+02:00</time>
      </trkpt>
      <trkpt lat="48.11182" lon="6.32717">
        <ele>338.1006</ele>
        <time>2026-05-17T12:22:11+02:00</time>
      </trkpt>
      <trkpt lat="48.11188" lon="6.32718">
        <ele>338.1006</ele>
        <time>2026-05-17T12:22:12+02:00</time>
      </trkpt>
      <trkpt lat="48.11194" lon="6.3272">
        <ele>338.7002</ele>
        <time>2026-05-17T12:22:13+02:00</time>
      </trkpt>
      <trkpt lat="48.11199" lon="6.32721">
        <ele>338.9004</ele>
        <time>2026-05-17T12:22:14+02:00</time>
      </trkpt>
      <trkpt lat="48.11204" lon="6.32722">
        <ele>339.1006</ele>
        <time>2026-05-17T12:22:15+02:00</time>
      </trkpt>
      <trkpt lat="48.1121" lon="6.32724">
        <ele>339.4004</ele>
        <time>2026-05-17T12:22:16+02:00</time>
      </trkpt>
      <trkpt lat="48.11215" lon="6.32725">
        <ele>339.5</ele>
        <time>2026-05-17T12:22:17+02:00</time>
      </trkpt>
      <trkpt lat="48.1122" lon="6.32727">
        <ele>339.6006</ele>
        <time>2026-05-17T12:22:18+02:00</time>
      </trkpt>
      <trkpt lat="48.11225" lon="6.3273">
        <ele>339.2002</ele>
        <time>2026-05-17T12:22:19+02:00</time>
      </trkpt>
      <trkpt lat="48.11231" lon="6.32734">
        <ele>338.7998</ele>
        <time>2026-05-17T12:22:20+02:00</time>
      </trkpt>
      <trkpt lat="48.11236" lon="6.32738">
        <ele>339.7998</ele>
        <time>2026-05-17T12:22:21+02:00</time>
      </trkpt>
      <trkpt lat="48.11242" lon="6.32742">
        <ele>339.6006</ele>
        <time>2026-05-17T12:22:22+02:00</time>
      </trkpt>
      <trkpt lat="48.11246" lon="6.32746">
        <ele>340.2002</ele>
        <time>2026-05-17T12:22:23+02:00</time>
      </trkpt>
      <trkpt lat="48.11251" lon="6.3275">
        <ele>339.5</ele>
        <time>2026-05-17T12:22:24+02:00</time>
      </trkpt>
      <trkpt lat="48.11256" lon="6.32754">
        <ele>339</ele>
        <time>2026-05-17T12:22:25+02:00</time>
      </trkpt>
      <trkpt lat="48.1126" lon="6.32759">
        <ele>338.2002</ele>
        <time>2026-05-17T12:22:26+02:00</time>
      </trkpt>
      <trkpt lat="48.11265" lon="6.32764">
        <ele>338.4004</ele>
        <time>2026-05-17T12:22:27+02:00</time>
      </trkpt>
      <trkpt lat="48.11269" lon="6.32769">
        <ele>338.4004</ele>
        <time>2026-05-17T12:22:28+02:00</time>
      </trkpt>
      <trkpt lat="48.11273" lon="6.32774">
        <ele>338.6006</ele>
        <time>2026-05-17T12:22:29+02:00</time>
      </trkpt>
      <trkpt lat="48.11277" lon="6.32779">
        <ele>338.6006</ele>
        <time>2026-05-17T12:22:30+02:00</time>
      </trkpt>
      <trkpt lat="48.11281" lon="6.32785">
        <ele>338.6006</ele>
        <time>2026-05-17T12:22:31+02:00</time>
      </trkpt>
      <trkpt lat="48.11284" lon="6.32791">
        <ele>338.9004</ele>
        <time>2026-05-17T12:22:32+02:00</time>
      </trkpt>
      <trkpt lat="48.11287" lon="6.32797">
        <ele>339.6006</ele>
        <time>2026-05-17T12:22:33+02:00</time>
      </trkpt>
      <trkpt lat="48.1129" lon="6.32804">
        <ele>339.7998</ele>
        <time>2026-05-17T12:22:34+02:00</time>
      </trkpt>
      <trkpt lat="48.11293" lon="6.32811">
        <ele>339.7998</ele>
        <time>2026-05-17T12:22:35+02:00</time>
      </trkpt>
      <trkpt lat="48.11295" lon="6.32818">
        <ele>339.4004</ele>
        <time>2026-05-17T12:22:36+02:00</time>
      </trkpt>
      <trkpt lat="48.11298" lon="6.32824">
        <ele>339.6006</ele>
        <time>2026-05-17T12:22:37+02:00</time>
      </trkpt>
      <trkpt lat="48.11301" lon="6.32831">
        <ele>339.2002</ele>
        <time>2026-05-17T12:22:38+02:00</time>
      </trkpt>
      <trkpt lat="48.11304" lon="6.32837">
        <ele>339.2002</ele>
        <time>2026-05-17T12:22:39+02:00</time>
      </trkpt>
      <trkpt lat="48.11307" lon="6.32844">
        <ele>339.1006</ele>
        <time>2026-05-17T12:22:40+02:00</time>
      </trkpt>
      <trkpt lat="48.11309" lon="6.3285">
        <ele>339.2002</ele>
        <time>2026-05-17T12:22:41+02:00</time>
      </trkpt>
      <trkpt lat="48.11311" lon="6.32856">
        <ele>338.7998</ele>
        <time>2026-05-17T12:22:42+02:00</time>
      </trkpt>
      <trkpt lat="48.11314" lon="6.32861">
        <ele>338.7998</ele>
        <time>2026-05-17T12:22:43+02:00</time>
      </trkpt>
      <trkpt lat="48.11316" lon="6.32866">
        <ele>338.9004</ele>
        <time>2026-05-17T12:22:44+02:00</time>
      </trkpt>
      <trkpt lat="48.11318" lon="6.32871">
        <ele>338.4004</ele>
        <time>2026-05-17T12:22:45+02:00</time>
      </trkpt>
      <trkpt lat="48.1132" lon="6.32876">
        <ele>338.5</ele>
        <time>2026-05-17T12:22:46+02:00</time>
      </trkpt>
      <trkpt lat="48.11323" lon="6.3288">
        <ele>338.2002</ele>
        <time>2026-05-17T12:22:47+02:00</time>
      </trkpt>
      <trkpt lat="48.11324" lon="6.32885">
        <ele>338.2998</ele>
        <time>2026-05-17T12:22:48+02:00</time>
      </trkpt>
      <trkpt lat="48.11326" lon="6.32889">
        <ele>338.2998</ele>
        <time>2026-05-17T12:22:49+02:00</time>
      </trkpt>
      <trkpt lat="48.11329" lon="6.32892">
        <ele>338.4004</ele>
        <time>2026-05-17T12:22:50+02:00</time>
      </trkpt>
      <trkpt lat="48.11331" lon="6.32896">
        <ele>338.4004</ele>
        <time>2026-05-17T12:22:51+02:00</time>
      </trkpt>
      <trkpt lat="48.11332" lon="6.329">
        <ele>338.7002</ele>
        <time>2026-05-17T12:22:52+02:00</time>
      </trkpt>
      <trkpt lat="48.11334" lon="6.32905">
        <ele>338.6006</ele>
        <time>2026-05-17T12:22:53+02:00</time>
      </trkpt>
      <trkpt lat="48.11336" lon="6.3291">
        <ele>338.7002</ele>
        <time>2026-05-17T12:22:54+02:00</time>
      </trkpt>
      <trkpt lat="48.11338" lon="6.32914">
        <ele>338.7002</ele>
        <time>2026-05-17T12:22:55+02:00</time>
      </trkpt>
      <trkpt lat="48.1134" lon="6.32919">
        <ele>338.6006</ele>
        <time>2026-05-17T12:22:56+02:00</time>
      </trkpt>
      <trkpt lat="48.11342" lon="6.32924">
        <ele>338.6006</ele>
        <time>2026-05-17T12:22:57+02:00</time>
      </trkpt>
      <trkpt lat="48.11344" lon="6.32929">
        <ele>338.7002</ele>
        <time>2026-05-17T12:22:58+02:00</time>
      </trkpt>
      <trkpt lat="48.11346" lon="6.32934">
        <ele>338.6006</ele>
        <time>2026-05-17T12:22:59+02:00</time>
      </trkpt>
      <trkpt lat="48.11348" lon="6.3294">
        <ele>338.6006</ele>
        <time>2026-05-17T12:23:00+02:00</time>
      </trkpt>
      <trkpt lat="48.11349" lon="6.32946">
        <ele>338.6006</ele>
        <time>2026-05-17T12:23:01+02:00</time>
      </trkpt>
      <trkpt lat="48.11351" lon="6.32951">
        <ele>338.6006</ele>
        <time>2026-05-17T12:23:02+02:00</time>
      </trkpt>
      <trkpt lat="48.11353" lon="6.32957">
        <ele>338.6006</ele>
        <time>2026-05-17T12:23:03+02:00</time>
      </trkpt>
      <trkpt lat="48.11355" lon="6.32964">
        <ele>338.7998</ele>
        <time>2026-05-17T12:23:04+02:00</time>
      </trkpt>
      <trkpt lat="48.11356" lon="6.3297">
        <ele>338.9004</ele>
        <time>2026-05-17T12:23:05+02:00</time>
      </trkpt>
      <trkpt lat="48.11358" lon="6.32976">
        <ele>338.7998</ele>
        <time>2026-05-17T12:23:06+02:00</time>
      </trkpt>
      <trkpt lat="48.1136" lon="6.32982">
        <ele>338.7998</ele>
        <time>2026-05-17T12:23:07+02:00</time>
      </trkpt>
      <trkpt lat="48.11363" lon="6.32988">
        <ele>338.6006</ele>
        <time>2026-05-17T12:23:08+02:00</time>
      </trkpt>
      <trkpt lat="48.11365" lon="6.32995">
        <ele>338.6006</ele>
        <time>2026-05-17T12:23:09+02:00</time>
      </trkpt>
      <trkpt lat="48.11367" lon="6.33001">
        <ele>338.6006</ele>
        <time>2026-05-17T12:23:10+02:00</time>
      </trkpt>
      <trkpt lat="48.11369" lon="6.33007">
        <ele>338.5</ele>
        <time>2026-05-17T12:23:11+02:00</time>
      </trkpt>
      <trkpt lat="48.11371" lon="6.33014">
        <ele>338.2998</ele>
        <time>2026-05-17T12:23:12+02:00</time>
      </trkpt>
      <trkpt lat="48.11374" lon="6.3302">
        <ele>338.1006</ele>
        <time>2026-05-17T12:23:13+02:00</time>
      </trkpt>
      <trkpt lat="48.11376" lon="6.33027">
        <ele>338.1006</ele>
        <time>2026-05-17T12:23:14+02:00</time>
      </trkpt>
      <trkpt lat="48.11378" lon="6.33033">
        <ele>337.7998</ele>
        <time>2026-05-17T12:23:15+02:00</time>
      </trkpt>
      <trkpt lat="48.11381" lon="6.3304">
        <ele>337.5</ele>
        <time>2026-05-17T12:23:16+02:00</time>
      </trkpt>
      <trkpt lat="48.11384" lon="6.33046">
        <ele>337.4004</ele>
        <time>2026-05-17T12:23:17+02:00</time>
      </trkpt>
      <trkpt lat="48.11387" lon="6.33052">
        <ele>337.2998</ele>
        <time>2026-05-17T12:23:18+02:00</time>
      </trkpt>
      <trkpt lat="48.1139" lon="6.33058">
        <ele>337.2002</ele>
        <time>2026-05-17T12:23:19+02:00</time>
      </trkpt>
      <trkpt lat="48.11393" lon="6.33063">
        <ele>337.4004</ele>
        <time>2026-05-17T12:23:20+02:00</time>
      </trkpt>
      <trkpt lat="48.11397" lon="6.33068">
        <ele>337.9004</ele>
        <time>2026-05-17T12:23:21+02:00</time>
      </trkpt>
      <trkpt lat="48.11401" lon="6.33073">
        <ele>337.9004</ele>
        <time>2026-05-17T12:23:22+02:00</time>
      </trkpt>
      <trkpt lat="48.11405" lon="6.33077">
        <ele>338.4004</ele>
        <time>2026-05-17T12:23:23+02:00</time>
      </trkpt>
      <trkpt lat="48.11409" lon="6.33082">
        <ele>338.7998</ele>
        <time>2026-05-17T12:23:24+02:00</time>
      </trkpt>
      <trkpt lat="48.11413" lon="6.33086">
        <ele>338.7998</ele>
        <time>2026-05-17T12:23:25+02:00</time>
      </trkpt>
      <trkpt lat="48.11418" lon="6.3309">
        <ele>339.2998</ele>
        <time>2026-05-17T12:23:26+02:00</time>
      </trkpt>
      <trkpt lat="48.11422" lon="6.33093">
        <ele>339.6006</ele>
        <time>2026-05-17T12:23:27+02:00</time>
      </trkpt>
      <trkpt lat="48.11427" lon="6.33096">
        <ele>340.2002</ele>
        <time>2026-05-17T12:23:28+02:00</time>
      </trkpt>
      <trkpt lat="48.11432" lon="6.33099">
        <ele>340.6006</ele>
        <time>2026-05-17T12:23:29+02:00</time>
      </trkpt>
      <trkpt lat="48.11437" lon="6.33102">
        <ele>340.9004</ele>
        <time>2026-05-17T12:23:30+02:00</time>
      </trkpt>
      <trkpt lat="48.11442" lon="6.33105">
        <ele>341.4004</ele>
        <time>2026-05-17T12:23:31+02:00</time>
      </trkpt>
      <trkpt lat="48.11447" lon="6.33107">
        <ele>341.7002</ele>
        <time>2026-05-17T12:23:32+02:00</time>
      </trkpt>
      <trkpt lat="48.11451" lon="6.33109">
        <ele>341.9004</ele>
        <time>2026-05-17T12:23:33+02:00</time>
      </trkpt>
      <trkpt lat="48.11457" lon="6.3311">
        <ele>342.1006</ele>
        <time>2026-05-17T12:23:34+02:00</time>
      </trkpt>
      <trkpt lat="48.11462" lon="6.33112">
        <ele>342.2002</ele>
        <time>2026-05-17T12:23:35+02:00</time>
      </trkpt>
      <trkpt lat="48.11467" lon="6.33113">
        <ele>342.9004</ele>
        <time>2026-05-17T12:23:36+02:00</time>
      </trkpt>
      <trkpt lat="48.11473" lon="6.33114">
        <ele>342.9004</ele>
        <time>2026-05-17T12:23:37+02:00</time>
      </trkpt>
      <trkpt lat="48.11478" lon="6.33115">
        <ele>343</ele>
        <time>2026-05-17T12:23:38+02:00</time>
      </trkpt>
      <trkpt lat="48.11484" lon="6.33116">
        <ele>343</ele>
        <time>2026-05-17T12:23:39+02:00</time>
      </trkpt>
      <trkpt lat="48.11489" lon="6.33117">
        <ele>343</ele>
        <time>2026-05-17T12:23:40+02:00</time>
      </trkpt>
      <trkpt lat="48.11495" lon="6.33119">
        <ele>343</ele>
        <time>2026-05-17T12:23:41+02:00</time>
      </trkpt>
      <trkpt lat="48.115" lon="6.3312">
        <ele>342.9004</ele>
        <time>2026-05-17T12:23:42+02:00</time>
      </trkpt>
      <trkpt lat="48.11506" lon="6.33122">
        <ele>343.7998</ele>
        <time>2026-05-17T12:23:43+02:00</time>
      </trkpt>
      <trkpt lat="48.11511" lon="6.33123">
        <ele>343.7998</ele>
        <time>2026-05-17T12:23:44+02:00</time>
      </trkpt>
      <trkpt lat="48.11516" lon="6.33124">
        <ele>343.7002</ele>
        <time>2026-05-17T12:23:45+02:00</time>
      </trkpt>
      <trkpt lat="48.11521" lon="6.33125">
        <ele>343.6006</ele>
        <time>2026-05-17T12:23:46+02:00</time>
      </trkpt>
      <trkpt lat="48.11526" lon="6.33127">
        <ele>343.6006</ele>
        <time>2026-05-17T12:23:47+02:00</time>
      </trkpt>
      <trkpt lat="48.1153" lon="6.33128">
        <ele>343.6006</ele>
        <time>2026-05-17T12:23:48+02:00</time>
      </trkpt>
      <trkpt lat="48.11535" lon="6.33129">
        <ele>343.6006</ele>
        <time>2026-05-17T12:23:49+02:00</time>
      </trkpt>
      <trkpt lat="48.1154" lon="6.33131">
        <ele>344.9004</ele>
        <time>2026-05-17T12:23:50+02:00</time>
      </trkpt>
      <trkpt lat="48.11543" lon="6.33132">
        <ele>344.9004</ele>
        <time>2026-05-17T12:23:51+02:00</time>
      </trkpt>
      <trkpt lat="48.11548" lon="6.33133">
        <ele>344.9004</ele>
        <time>2026-05-17T12:23:52+02:00</time>
      </trkpt>
      <trkpt lat="48.11552" lon="6.33133">
        <ele>344.9004</ele>
        <time>2026-05-17T12:23:53+02:00</time>
      </trkpt>
      <trkpt lat="48.11555" lon="6.33134">
        <ele>344.9004</ele>
        <time>2026-05-17T12:23:54+02:00</time>
      </trkpt>
      <trkpt lat="48.11559" lon="6.33135">
        <ele>344.9004</ele>
        <time>2026-05-17T12:23:55+02:00</time>
      </trkpt>
      <trkpt lat="48.11563" lon="6.33135">
        <ele>344.7998</ele>
        <time>2026-05-17T12:23:56+02:00</time>
      </trkpt>
      <trkpt lat="48.11567" lon="6.33136">
        <ele>344.7998</ele>
        <time>2026-05-17T12:23:57+02:00</time>
      </trkpt>
      <trkpt lat="48.11571" lon="6.33136">
        <ele>344.5</ele>
        <time>2026-05-17T12:23:58+02:00</time>
      </trkpt>
      <trkpt lat="48.11575" lon="6.33137">
        <ele>344</ele>
        <time>2026-05-17T12:23:59+02:00</time>
      </trkpt>
      <trkpt lat="48.11579" lon="6.33137">
        <ele>344</ele>
        <time>2026-05-17T12:24:00+02:00</time>
      </trkpt>
      <trkpt lat="48.11582" lon="6.33137">
        <ele>343.2002</ele>
        <time>2026-05-17T12:24:01+02:00</time>
      </trkpt>
      <trkpt lat="48.11586" lon="6.33138">
        <ele>342.5</ele>
        <time>2026-05-17T12:24:02+02:00</time>
      </trkpt>
      <trkpt lat="48.11589" lon="6.33138">
        <ele>342.5</ele>
        <time>2026-05-17T12:24:03+02:00</time>
      </trkpt>
      <trkpt lat="48.11591" lon="6.33139">
        <ele>344.2998</ele>
        <time>2026-05-17T12:24:04+02:00</time>
      </trkpt>
      <trkpt lat="48.11595" lon="6.3314">
        <ele>344.1006</ele>
        <time>2026-05-17T12:24:05+02:00</time>
      </trkpt>
      <trkpt lat="48.11597" lon="6.33141">
        <ele>343.9004</ele>
        <time>2026-05-17T12:24:06+02:00</time>
      </trkpt>
      <trkpt lat="48.11599" lon="6.33143">
        <ele>343.9004</ele>
        <time>2026-05-17T12:24:07+02:00</time>
      </trkpt>
      <trkpt lat="48.11602" lon="6.33144">
        <ele>343.9004</ele>
        <time>2026-05-17T12:24:08+02:00</time>
      </trkpt>
      <trkpt lat="48.11603" lon="6.33144">
        <ele>343.7998</ele>
        <time>2026-05-17T12:24:09+02:00</time>
      </trkpt>
      <trkpt lat="48.11604" lon="6.33144">
        <ele>343.7998</ele>
        <time>2026-05-17T12:24:10+02:00</time>
      </trkpt>
      <trkpt lat="48.11605" lon="6.33144">
        <ele>343.7998</ele>
        <time>2026-05-17T12:24:11+02:00</time>
      </trkpt>
      <trkpt lat="48.11606" lon="6.33144">
        <ele>343.7998</ele>
        <time>2026-05-17T12:24:12+02:00</time>
      </trkpt>
      <trkpt lat="48.11606" lon="6.33144">
        <ele>343.7998</ele>
        <time>2026-05-17T12:24:13+02:00</time>
      </trkpt>
      <trkpt lat="48.11606" lon="6.33144">
        <ele>343.7998</ele>
        <time>2026-05-17T12:24:14+02:00</time>
      </trkpt>
      <trkpt lat="48.11606" lon="6.33144">
        <ele>343.7998</ele>
        <time>2026-05-17T12:24:15+02:00</time>
      </trkpt>
      <trkpt lat="48.11606" lon="6.33144">
        <ele>343.7998</ele>
        <time>2026-05-17T13:15:47+02:00</time>
      </trkpt>
      <trkpt lat="48.11606" lon="6.33144">
        <ele>343.7998</ele>
        <time>2026-05-17T13:15:48+02:00</time>
      </trkpt>
      <trkpt lat="48.11606" lon="6.33144">
        <ele>343.7998</ele>
        <time>2026-05-17T13:15:49+02:00</time>
      </trkpt>
      <trkpt lat="48.11606" lon="6.33144">
        <ele>343.7998</ele>
        <time>2026-05-17T13:15:50+02:00</time>
      </trkpt>
      <trkpt lat="48.11606" lon="6.33144">
        <ele>343.7998</ele>
        <time>2026-05-17T13:15:51+02:00</time>
      </trkpt>
      <trkpt lat="48.11606" lon="6.33144">
        <ele>343.7998</ele>
        <time>2026-05-17T13:15:52+02:00</time>
      </trkpt>
      <trkpt lat="48.11606" lon="6.33144">
        <ele>343.7998</ele>
        <time>2026-05-17T13:15:53+02:00</time>
      </trkpt>
      <trkpt lat="48.11606" lon="6.33144">
        <ele>343.7998</ele>
        <time>2026-05-17T13:15:54+02:00</time>
      </trkpt>
      <trkpt lat="48.11606" lon="6.33144">
        <ele>343.7998</ele>
        <time>2026-05-17T13:15:55+02:00</time>
      </trkpt>
      <trkpt lat="48.11606" lon="6.33144">
        <ele>343.7998</ele>
        <time>2026-05-17T13:15:56+02:00</time>
      </trkpt>
      <trkpt lat="48.11606" lon="6.33144">
        <ele>343.7998</ele>
        <time>2026-05-17T13:15:57+02:00</time>
      </trkpt>
      <trkpt lat="48.11606" lon="6.33144">
        <ele>343.7998</ele>
        <time>2026-05-17T13:15:58+02:00</time>
      </trkpt>
      <trkpt lat="48.11606" lon="6.33144">
        <ele>343.7998</ele>
        <time>2026-05-17T13:15:59+02:00</time>
      </trkpt>
      <trkpt lat="48.11606" lon="6.33144">
        <ele>343.7998</ele>
        <time>2026-05-17T13:16:00+02:00</time>
      </trkpt>
      <trkpt lat="48.11606" lon="6.33144">
        <ele>343.7998</ele>
        <time>2026-05-17T13:16:01+02:00</time>
      </trkpt>
      <trkpt lat="48.11606" lon="6.33144">
        <ele>343.7998</ele>
        <time>2026-05-17T13:16:02+02:00</time>
      </trkpt>
      <trkpt lat="48.11606" lon="6.33144">
        <ele>343.7998</ele>
        <time>2026-05-17T13:16:03+02:00</time>
      </trkpt>
      <trkpt lat="48.11606" lon="6.33144">
        <ele>343.7998</ele>
        <time>2026-05-17T13:16:04+02:00</time>
      </trkpt>
      <trkpt lat="48.11606" lon="6.33144">
        <ele>343.7998</ele>
        <time>2026-05-17T13:16:05+02:00</time>
      </trkpt>
      <trkpt lat="48.11606" lon="6.33144">
        <ele>343.7998</ele>
        <time>2026-05-17T13:16:06+02:00</time>
      </trkpt>
      <trkpt lat="48.11606" lon="6.33144">
        <ele>343.7998</ele>
        <time>2026-05-17T13:16:07+02:00</time>
      </trkpt>
      <trkpt lat="48.11606" lon="6.33144">
        <ele>343.7998</ele>
        <time>2026-05-17T13:16:08+02:00</time>
      </trkpt>
      <trkpt lat="48.11606" lon="6.33144">
        <ele>343.7998</ele>
        <time>2026-05-17T13:16:09+02:00</time>
      </trkpt>
      <trkpt lat="48.11606" lon="6.33144">
        <ele>343.7998</ele>
        <time>2026-05-17T13:16:10+02:00</time>
      </trkpt>
      <trkpt lat="48.11606" lon="6.33144">
        <ele>343.7998</ele>
        <time>2026-05-17T13:16:11+02:00</time>
      </trkpt>
      <trkpt lat="48.11606" lon="6.33144">
        <ele>343.7998</ele>
        <time>2026-05-17T13:16:12+02:00</time>
      </trkpt>
      <trkpt lat="48.11606" lon="6.33144">
        <ele>343.7998</ele>
        <time>2026-05-17T13:16:13+02:00</time>
      </trkpt>
      <trkpt lat="48.11606" lon="6.33144">
        <ele>343.7998</ele>
        <time>2026-05-17T13:16:14+02:00</time>
      </trkpt>
      <trkpt lat="48.11606" lon="6.33144">
        <ele>343.7998</ele>
        <time>2026-05-17T13:16:15+02:00</time>
      </trkpt>
      <trkpt lat="48.11606" lon="6.33144">
        <ele>343.7998</ele>
        <time>2026-05-17T13:16:16+02:00</time>
      </trkpt>
      <trkpt lat="48.11606" lon="6.33144">
        <ele>343.7998</ele>
        <time>2026-05-17T13:16:17+02:00</time>
      </trkpt>
      <trkpt lat="48.11606" lon="6.33144">
        <ele>343.7998</ele>
        <time>2026-05-17T13:16:18+02:00</time>
      </trkpt>
      <trkpt lat="48.11606" lon="6.33144">
        <ele>343.7998</ele>
        <time>2026-05-17T13:16:19+02:00</time>
      </trkpt>
      <trkpt lat="48.11606" lon="6.33144">
        <ele>343.7998</ele>
        <time>2026-05-17T13:16:20+02:00</time>
      </trkpt>
      <trkpt lat="48.11606" lon="6.33144">
        <ele>343.7998</ele>
        <time>2026-05-17T13:16:21+02:00</time>
      </trkpt>
      <trkpt lat="48.11606" lon="6.33144">
        <ele>343.7998</ele>
        <time>2026-05-17T13:16:22+02:00</time>
      </trkpt>
      <trkpt lat="48.11606" lon="6.33144">
        <ele>343.7998</ele>
        <time>2026-05-17T13:16:23+02:00</time>
      </trkpt>
      <trkpt lat="48.11606" lon="6.33144">
        <ele>343.7998</ele>
        <time>2026-05-17T13:16:24+02:00</time>
      </trkpt>
      <trkpt lat="48.11606" lon="6.33144">
        <ele>343.7998</ele>
        <time>2026-05-17T13:16:25+02:00</time>
      </trkpt>
      <trkpt lat="48.11606" lon="6.33144">
        <ele>343.7998</ele>
        <time>2026-05-17T13:16:26+02:00</time>
      </trkpt>
      <trkpt lat="48.11617" lon="6.3312">
        <ele>341.5</ele>
        <time>2026-05-17T13:16:27+02:00</time>
      </trkpt>
      <trkpt lat="48.11618" lon="6.3312">
        <ele>341.5</ele>
        <time>2026-05-17T13:16:28+02:00</time>
      </trkpt>
      <trkpt lat="48.11619" lon="6.33121">
        <ele>341.5</ele>
        <time>2026-05-17T13:16:29+02:00</time>
      </trkpt>
      <trkpt lat="48.11622" lon="6.33122">
        <ele>341.4004</ele>
        <time>2026-05-17T13:16:30+02:00</time>
      </trkpt>
      <trkpt lat="48.11623" lon="6.33123">
        <ele>341.4004</ele>
        <time>2026-05-17T13:16:31+02:00</time>
      </trkpt>
      <trkpt lat="48.11625" lon="6.33125">
        <ele>341.4004</ele>
        <time>2026-05-17T13:16:32+02:00</time>
      </trkpt>
      <trkpt lat="48.11627" lon="6.33126">
        <ele>341.5</ele>
        <time>2026-05-17T13:16:33+02:00</time>
      </trkpt>
      <trkpt lat="48.11629" lon="6.33127">
        <ele>341.5</ele>
        <time>2026-05-17T13:16:34+02:00</time>
      </trkpt>
      <trkpt lat="48.11632" lon="6.33129">
        <ele>341.5</ele>
        <time>2026-05-17T13:16:35+02:00</time>
      </trkpt>
      <trkpt lat="48.11634" lon="6.33131">
        <ele>342.2998</ele>
        <time>2026-05-17T13:16:36+02:00</time>
      </trkpt>
      <trkpt lat="48.11637" lon="6.33132">
        <ele>342.4004</ele>
        <time>2026-05-17T13:16:37+02:00</time>
      </trkpt>
      <trkpt lat="48.1164" lon="6.33134">
        <ele>342.4004</ele>
        <time>2026-05-17T13:16:38+02:00</time>
      </trkpt>
      <trkpt lat="48.11642" lon="6.33136">
        <ele>342.4004</ele>
        <time>2026-05-17T13:16:39+02:00</time>
      </trkpt>
      <trkpt lat="48.11644" lon="6.33138">
        <ele>342.5</ele>
        <time>2026-05-17T13:16:40+02:00</time>
      </trkpt>
      <trkpt lat="48.11646" lon="6.3314">
        <ele>343.9004</ele>
        <time>2026-05-17T13:16:41+02:00</time>
      </trkpt>
      <trkpt lat="48.1165" lon="6.33142">
        <ele>343.9004</ele>
        <time>2026-05-17T13:16:42+02:00</time>
      </trkpt>
      <trkpt lat="48.11651" lon="6.33143">
        <ele>343.9004</ele>
        <time>2026-05-17T13:16:43+02:00</time>
      </trkpt>
      <trkpt lat="48.11654" lon="6.33144">
        <ele>343.9004</ele>
        <time>2026-05-17T13:16:44+02:00</time>
      </trkpt>
      <trkpt lat="48.11656" lon="6.33145">
        <ele>343.9004</ele>
        <time>2026-05-17T13:16:45+02:00</time>
      </trkpt>
      <trkpt lat="48.11659" lon="6.33147">
        <ele>343.9004</ele>
        <time>2026-05-17T13:16:46+02:00</time>
      </trkpt>
      <trkpt lat="48.1166" lon="6.33148">
        <ele>345.6006</ele>
        <time>2026-05-17T13:16:47+02:00</time>
      </trkpt>
      <trkpt lat="48.11662" lon="6.33149">
        <ele>345.5</ele>
        <time>2026-05-17T13:16:48+02:00</time>
      </trkpt>
      <trkpt lat="48.11664" lon="6.3315">
        <ele>345.5</ele>
        <time>2026-05-17T13:16:49+02:00</time>
      </trkpt>
      <trkpt lat="48.11664" lon="6.3315">
        <ele>345.5</ele>
        <time>2026-05-17T13:16:50+02:00</time>
      </trkpt>
      <trkpt lat="48.11664" lon="6.33151">
        <ele>345.5</ele>
        <time>2026-05-17T13:16:51+02:00</time>
      </trkpt>
      <trkpt lat="48.11664" lon="6.33151">
        <ele>345.5</ele>
        <time>2026-05-17T13:16:52+02:00</time>
      </trkpt>
      <trkpt lat="48.11664" lon="6.33151">
        <ele>345.5</ele>
        <time>2026-05-17T13:20:53+02:00</time>
      </trkpt>
      <trkpt lat="48.11664" lon="6.33151">
        <ele>345.5</ele>
        <time>2026-05-17T13:20:54+02:00</time>
      </trkpt>
      <trkpt lat="48.11664" lon="6.33151">
        <ele>345.5</ele>
        <time>2026-05-17T13:20:55+02:00</time>
      </trkpt>
      <trkpt lat="48.11664" lon="6.33151">
        <ele>345.5</ele>
        <time>2026-05-17T13:20:56+02:00</time>
      </trkpt>
      <trkpt lat="48.11664" lon="6.33151">
        <ele>345.5</ele>
        <time>2026-05-17T13:20:57+02:00</time>
      </trkpt>
      <trkpt lat="48.11664" lon="6.33151">
        <ele>345.5</ele>
        <time>2026-05-17T13:20:58+02:00</time>
      </trkpt>
      <trkpt lat="48.11664" lon="6.33151">
        <ele>345.5</ele>
        <time>2026-05-17T13:20:59+02:00</time>
      </trkpt>
      <trkpt lat="48.11664" lon="6.33151">
        <ele>345.5</ele>
        <time>2026-05-17T13:21:00+02:00</time>
      </trkpt>
      <trkpt lat="48.11664" lon="6.33151">
        <ele>345.5</ele>
        <time>2026-05-17T13:21:01+02:00</time>
      </trkpt>
      <trkpt lat="48.1167" lon="6.33162">
        <ele>346.7998</ele>
        <time>2026-05-17T13:21:02+02:00</time>
      </trkpt>
      <trkpt lat="48.11679" lon="6.33165">
        <ele>347.5</ele>
        <time>2026-05-17T13:21:03+02:00</time>
      </trkpt>
      <trkpt lat="48.11681" lon="6.33166">
        <ele>347.5</ele>
        <time>2026-05-17T13:21:04+02:00</time>
      </trkpt>
      <trkpt lat="48.11684" lon="6.33167">
        <ele>347.1006</ele>
        <time>2026-05-17T13:21:05+02:00</time>
      </trkpt>
      <trkpt lat="48.11687" lon="6.33167">
        <ele>347.1006</ele>
        <time>2026-05-17T13:21:06+02:00</time>
      </trkpt>
      <trkpt lat="48.1169" lon="6.33168">
        <ele>346.5</ele>
        <time>2026-05-17T13:21:07+02:00</time>
      </trkpt>
      <trkpt lat="48.11693" lon="6.33169">
        <ele>346.5</ele>
        <time>2026-05-17T13:21:08+02:00</time>
      </trkpt>
      <trkpt lat="48.11696" lon="6.33169">
        <ele>346</ele>
        <time>2026-05-17T13:21:09+02:00</time>
      </trkpt>
      <trkpt lat="48.11699" lon="6.3317">
        <ele>346</ele>
        <time>2026-05-17T13:21:10+02:00</time>
      </trkpt>
      <trkpt lat="48.11703" lon="6.33171">
        <ele>345.5</ele>
        <time>2026-05-17T13:21:11+02:00</time>
      </trkpt>
      <trkpt lat="48.11706" lon="6.33171">
        <ele>345</ele>
        <time>2026-05-17T13:21:12+02:00</time>
      </trkpt>
      <trkpt lat="48.11711" lon="6.33172">
        <ele>345</ele>
        <time>2026-05-17T13:21:13+02:00</time>
      </trkpt>
      <trkpt lat="48.11715" lon="6.33173">
        <ele>344.5</ele>
        <time>2026-05-17T13:21:14+02:00</time>
      </trkpt>
      <trkpt lat="48.11717" lon="6.33173">
        <ele>344.5</ele>
        <time>2026-05-17T13:21:15+02:00</time>
      </trkpt>
      <trkpt lat="48.1172" lon="6.33173">
        <ele>344.1006</ele>
        <time>2026-05-17T13:21:16+02:00</time>
      </trkpt>
      <trkpt lat="48.11725" lon="6.33174">
        <ele>344</ele>
        <time>2026-05-17T13:21:17+02:00</time>
      </trkpt>
      <trkpt lat="48.11731" lon="6.33174">
        <ele>343.6006</ele>
        <time>2026-05-17T13:21:18+02:00</time>
      </trkpt>
      <trkpt lat="48.11735" lon="6.33174">
        <ele>343.2998</ele>
        <time>2026-05-17T13:21:19+02:00</time>
      </trkpt>
      <trkpt lat="48.11739" lon="6.33175">
        <ele>343.2998</ele>
        <time>2026-05-17T13:21:20+02:00</time>
      </trkpt>
      <trkpt lat="48.11743" lon="6.33175">
        <ele>343</ele>
        <time>2026-05-17T13:21:21+02:00</time>
      </trkpt>
      <trkpt lat="48.11748" lon="6.33175">
        <ele>342.7998</ele>
        <time>2026-05-17T13:21:22+02:00</time>
      </trkpt>
      <trkpt lat="48.11752" lon="6.33174">
        <ele>342.7002</ele>
        <time>2026-05-17T13:21:23+02:00</time>
      </trkpt>
      <trkpt lat="48.11756" lon="6.33173">
        <ele>342.6006</ele>
        <time>2026-05-17T13:21:24+02:00</time>
      </trkpt>
      <trkpt lat="48.1176" lon="6.33172">
        <ele>342.5</ele>
        <time>2026-05-17T13:21:25+02:00</time>
      </trkpt>
      <trkpt lat="48.11762" lon="6.33171">
        <ele>342.5</ele>
        <time>2026-05-17T13:21:26+02:00</time>
      </trkpt>
      <trkpt lat="48.11768" lon="6.33169">
        <ele>342.4004</ele>
        <time>2026-05-17T13:21:27+02:00</time>
      </trkpt>
      <trkpt lat="48.11772" lon="6.33167">
        <ele>342.5</ele>
        <time>2026-05-17T13:21:28+02:00</time>
      </trkpt>
      <trkpt lat="48.11775" lon="6.33165">
        <ele>342.7002</ele>
        <time>2026-05-17T13:21:29+02:00</time>
      </trkpt>
      <trkpt lat="48.11777" lon="6.33164">
        <ele>342.9004</ele>
        <time>2026-05-17T13:21:30+02:00</time>
      </trkpt>
      <trkpt lat="48.11781" lon="6.33162">
        <ele>343.2002</ele>
        <time>2026-05-17T13:21:31+02:00</time>
      </trkpt>
      <trkpt lat="48.11787" lon="6.3316">
        <ele>343.5</ele>
        <time>2026-05-17T13:21:32+02:00</time>
      </trkpt>
      <trkpt lat="48.11791" lon="6.33158">
        <ele>343.5</ele>
        <time>2026-05-17T13:21:33+02:00</time>
      </trkpt>
      <trkpt lat="48.11794" lon="6.33156">
        <ele>343.9004</ele>
        <time>2026-05-17T13:21:34+02:00</time>
      </trkpt>
      <trkpt lat="48.11798" lon="6.33155">
        <ele>344.2998</ele>
        <time>2026-05-17T13:21:35+02:00</time>
      </trkpt>
      <trkpt lat="48.11801" lon="6.33153">
        <ele>344.2998</ele>
        <time>2026-05-17T13:21:36+02:00</time>
      </trkpt>
      <trkpt lat="48.11801" lon="6.33153">
        <ele>344.2998</ele>
        <time>2026-05-17T13:21:37+02:00</time>
      </trkpt>
      <trkpt lat="48.11802" lon="6.33153">
        <ele>344.2998</ele>
        <time>2026-05-17T13:21:38+02:00</time>
      </trkpt>
      <trkpt lat="48.11802" lon="6.33153">
        <ele>344.2998</ele>
        <time>2026-05-17T13:21:39+02:00</time>
      </trkpt>
      <trkpt lat="48.11802" lon="6.33153">
        <ele>344.2998</ele>
        <time>2026-05-17T13:21:40+02:00</time>
      </trkpt>
      <trkpt lat="48.11802" lon="6.33153">
        <ele>344.2998</ele>
        <time>2026-05-17T13:21:41+02:00</time>
      </trkpt>
      <trkpt lat="48.11802" lon="6.33153">
        <ele>344.2998</ele>
        <time>2026-05-17T13:21:42+02:00</time>
      </trkpt>
      <trkpt lat="48.1182" lon="6.33143">
        <ele>344.9004</ele>
        <time>2026-05-17T13:21:52+02:00</time>
      </trkpt>
      <trkpt lat="48.11823" lon="6.33142">
        <ele>345.2002</ele>
        <time>2026-05-17T13:21:53+02:00</time>
      </trkpt>
      <trkpt lat="48.11826" lon="6.33141">
        <ele>345.2002</ele>
        <time>2026-05-17T13:21:54+02:00</time>
      </trkpt>
      <trkpt lat="48.11829" lon="6.3314">
        <ele>345.5</ele>
        <time>2026-05-17T13:21:55+02:00</time>
      </trkpt>
      <trkpt lat="48.11831" lon="6.3314">
        <ele>345.5</ele>
        <time>2026-05-17T13:21:56+02:00</time>
      </trkpt>
      <trkpt lat="48.11836" lon="6.33139">
        <ele>345.7002</ele>
        <time>2026-05-17T13:21:57+02:00</time>
      </trkpt>
      <trkpt lat="48.1184" lon="6.33139">
        <ele>345.9004</ele>
        <time>2026-05-17T13:21:58+02:00</time>
      </trkpt>
      <trkpt lat="48.11844" lon="6.33138">
        <ele>345.2002</ele>
        <time>2026-05-17T13:21:59+02:00</time>
      </trkpt>
      <trkpt lat="48.11847" lon="6.33138">
        <ele>345.2002</ele>
        <time>2026-05-17T13:22:00+02:00</time>
      </trkpt>
      <trkpt lat="48.1185" lon="6.33138">
        <ele>345.2998</ele>
        <time>2026-05-17T13:22:01+02:00</time>
      </trkpt>
      <trkpt lat="48.11853" lon="6.33138">
        <ele>345.2998</ele>
        <time>2026-05-17T13:22:02+02:00</time>
      </trkpt>
      <trkpt lat="48.11854" lon="6.33138">
        <ele>345.2998</ele>
        <time>2026-05-17T13:22:03+02:00</time>
      </trkpt>
      <trkpt lat="48.11858" lon="6.33138">
        <ele>345.4004</ele>
        <time>2026-05-17T13:22:04+02:00</time>
      </trkpt>
      <trkpt lat="48.1186" lon="6.33138">
        <ele>345.4004</ele>
        <time>2026-05-17T13:22:05+02:00</time>
      </trkpt>
      <trkpt lat="48.11863" lon="6.33137">
        <ele>345.4004</ele>
        <time>2026-05-17T13:22:06+02:00</time>
      </trkpt>
      <trkpt lat="48.11864" lon="6.33137">
        <ele>345.4004</ele>
        <time>2026-05-17T13:22:07+02:00</time>
      </trkpt>
      <trkpt lat="48.11868" lon="6.33137">
        <ele>345.4004</ele>
        <time>2026-05-17T13:22:08+02:00</time>
      </trkpt>
      <trkpt lat="48.11869" lon="6.33137">
        <ele>345.4004</ele>
        <time>2026-05-17T13:22:09+02:00</time>
      </trkpt>
      <trkpt lat="48.11873" lon="6.33137">
        <ele>345.4004</ele>
        <time>2026-05-17T13:22:10+02:00</time>
      </trkpt>
      <trkpt lat="48.11875" lon="6.33136">
        <ele>345.4004</ele>
        <time>2026-05-17T13:22:11+02:00</time>
      </trkpt>
      <trkpt lat="48.11879" lon="6.33136">
        <ele>345.4004</ele>
        <time>2026-05-17T13:22:12+02:00</time>
      </trkpt>
      <trkpt lat="48.11881" lon="6.33136">
        <ele>345.4004</ele>
        <time>2026-05-17T13:22:13+02:00</time>
      </trkpt>
      <trkpt lat="48.11886" lon="6.33135">
        <ele>345.4004</ele>
        <time>2026-05-17T13:22:14+02:00</time>
      </trkpt>
      <trkpt lat="48.11889" lon="6.33135">
        <ele>345.4004</ele>
        <time>2026-05-17T13:22:15+02:00</time>
      </trkpt>
      <trkpt lat="48.11892" lon="6.33135">
        <ele>345.4004</ele>
        <time>2026-05-17T13:22:16+02:00</time>
      </trkpt>
      <trkpt lat="48.11895" lon="6.33134">
        <ele>345.2998</ele>
        <time>2026-05-17T13:22:17+02:00</time>
      </trkpt>
      <trkpt lat="48.11897" lon="6.33134">
        <ele>345.2998</ele>
        <time>2026-05-17T13:22:18+02:00</time>
      </trkpt>
      <trkpt lat="48.11902" lon="6.33134">
        <ele>345.2998</ele>
        <time>2026-05-17T13:22:19+02:00</time>
      </trkpt>
      <trkpt lat="48.11905" lon="6.33134">
        <ele>345.2998</ele>
        <time>2026-05-17T13:22:20+02:00</time>
      </trkpt>
      <trkpt lat="48.11907" lon="6.33133">
        <ele>345.2002</ele>
        <time>2026-05-17T13:22:21+02:00</time>
      </trkpt>
      <trkpt lat="48.11912" lon="6.33133">
        <ele>345.2002</ele>
        <time>2026-05-17T13:22:22+02:00</time>
      </trkpt>
      <trkpt lat="48.11916" lon="6.33133">
        <ele>345.2002</ele>
        <time>2026-05-17T13:22:23+02:00</time>
      </trkpt>
      <trkpt lat="48.1192" lon="6.33133">
        <ele>345.1006</ele>
        <time>2026-05-17T13:22:24+02:00</time>
      </trkpt>
      <trkpt lat="48.11923" lon="6.33132">
        <ele>345.1006</ele>
        <time>2026-05-17T13:22:25+02:00</time>
      </trkpt>
      <trkpt lat="48.11926" lon="6.33131">
        <ele>345.1006</ele>
        <time>2026-05-17T13:22:26+02:00</time>
      </trkpt>
      <trkpt lat="48.11929" lon="6.33131">
        <ele>345.1006</ele>
        <time>2026-05-17T13:22:27+02:00</time>
      </trkpt>
      <trkpt lat="48.11931" lon="6.3313">
        <ele>344.4004</ele>
        <time>2026-05-17T13:22:28+02:00</time>
      </trkpt>
      <trkpt lat="48.11936" lon="6.33129">
        <ele>344.5</ele>
        <time>2026-05-17T13:22:29+02:00</time>
      </trkpt>
      <trkpt lat="48.11938" lon="6.33129">
        <ele>344.5</ele>
        <time>2026-05-17T13:22:30+02:00</time>
      </trkpt>
      <trkpt lat="48.11943" lon="6.33129">
        <ele>344.6006</ele>
        <time>2026-05-17T13:22:31+02:00</time>
      </trkpt>
      <trkpt lat="48.11947" lon="6.33128">
        <ele>344.7002</ele>
        <time>2026-05-17T13:22:32+02:00</time>
      </trkpt>
      <trkpt lat="48.1195" lon="6.33128">
        <ele>344.7002</ele>
        <time>2026-05-17T13:22:33+02:00</time>
      </trkpt>
      <trkpt lat="48.11953" lon="6.33127">
        <ele>344.7998</ele>
        <time>2026-05-17T13:22:34+02:00</time>
      </trkpt>
      <trkpt lat="48.11957" lon="6.33127">
        <ele>344.7998</ele>
        <time>2026-05-17T13:22:35+02:00</time>
      </trkpt>
      <trkpt lat="48.11961" lon="6.33127">
        <ele>344.9004</ele>
        <time>2026-05-17T13:22:36+02:00</time>
      </trkpt>
      <trkpt lat="48.11964" lon="6.33126">
        <ele>345</ele>
        <time>2026-05-17T13:22:37+02:00</time>
      </trkpt>
      <trkpt lat="48.11968" lon="6.33126">
        <ele>345</ele>
        <time>2026-05-17T13:22:38+02:00</time>
      </trkpt>
      <trkpt lat="48.11971" lon="6.33125">
        <ele>345.2002</ele>
        <time>2026-05-17T13:22:39+02:00</time>
      </trkpt>
      <trkpt lat="48.11975" lon="6.33124">
        <ele>345.2002</ele>
        <time>2026-05-17T13:22:40+02:00</time>
      </trkpt>
      <trkpt lat="48.11979" lon="6.33124">
        <ele>345.4004</ele>
        <time>2026-05-17T13:22:41+02:00</time>
      </trkpt>
      <trkpt lat="48.11982" lon="6.33123">
        <ele>345.7002</ele>
        <time>2026-05-17T13:22:42+02:00</time>
      </trkpt>
      <trkpt lat="48.11986" lon="6.33123">
        <ele>345.7002</ele>
        <time>2026-05-17T13:22:43+02:00</time>
      </trkpt>
      <trkpt lat="48.1199" lon="6.33122">
        <ele>346.1006</ele>
        <time>2026-05-17T13:22:44+02:00</time>
      </trkpt>
      <trkpt lat="48.11994" lon="6.33121">
        <ele>345.6006</ele>
        <time>2026-05-17T13:22:45+02:00</time>
      </trkpt>
      <trkpt lat="48.11998" lon="6.33121">
        <ele>345.6006</ele>
        <time>2026-05-17T13:22:46+02:00</time>
      </trkpt>
      <trkpt lat="48.12" lon="6.3312">
        <ele>346.1006</ele>
        <time>2026-05-17T13:22:47+02:00</time>
      </trkpt>
      <trkpt lat="48.12005" lon="6.33119">
        <ele>346.7002</ele>
        <time>2026-05-17T13:22:48+02:00</time>
      </trkpt>
      <trkpt lat="48.12009" lon="6.33119">
        <ele>346.7002</ele>
        <time>2026-05-17T13:22:49+02:00</time>
      </trkpt>
      <trkpt lat="48.12013" lon="6.33119">
        <ele>347.4004</ele>
        <time>2026-05-17T13:22:50+02:00</time>
      </trkpt>
      <trkpt lat="48.12016" lon="6.33118">
        <ele>348</ele>
        <time>2026-05-17T13:22:51+02:00</time>
      </trkpt>
      <trkpt lat="48.1202" lon="6.33118">
        <ele>348</ele>
        <time>2026-05-17T13:22:52+02:00</time>
      </trkpt>
      <trkpt lat="48.12024" lon="6.33117">
        <ele>348.4004</ele>
        <time>2026-05-17T13:22:53+02:00</time>
      </trkpt>
      <trkpt lat="48.12027" lon="6.33117">
        <ele>348.7002</ele>
        <time>2026-05-17T13:22:54+02:00</time>
      </trkpt>
      <trkpt lat="48.12031" lon="6.33116">
        <ele>348.7002</ele>
        <time>2026-05-17T13:22:55+02:00</time>
      </trkpt>
      <trkpt lat="48.12034" lon="6.33115">
        <ele>349</ele>
        <time>2026-05-17T13:22:56+02:00</time>
      </trkpt>
      <trkpt lat="48.12036" lon="6.33115">
        <ele>349</ele>
        <time>2026-05-17T13:22:57+02:00</time>
      </trkpt>
      <trkpt lat="48.1204" lon="6.33115">
        <ele>349.4004</ele>
        <time>2026-05-17T13:22:58+02:00</time>
      </trkpt>
      <trkpt lat="48.12046" lon="6.33114">
        <ele>349.7998</ele>
        <time>2026-05-17T13:22:59+02:00</time>
      </trkpt>
      <trkpt lat="48.12048" lon="6.33113">
        <ele>349.7998</ele>
        <time>2026-05-17T13:23:00+02:00</time>
      </trkpt>
      <trkpt lat="48.12053" lon="6.33113">
        <ele>350.2998</ele>
        <time>2026-05-17T13:23:01+02:00</time>
      </trkpt>
      <trkpt lat="48.12058" lon="6.33113">
        <ele>350.7998</ele>
        <time>2026-05-17T13:23:02+02:00</time>
      </trkpt>
      <trkpt lat="48.12061" lon="6.33113">
        <ele>350.7998</ele>
        <time>2026-05-17T13:23:03+02:00</time>
      </trkpt>
      <trkpt lat="48.12065" lon="6.33112">
        <ele>350.7002</ele>
        <time>2026-05-17T13:23:04+02:00</time>
      </trkpt>
      <trkpt lat="48.12069" lon="6.33112">
        <ele>351.1006</ele>
        <time>2026-05-17T13:23:05+02:00</time>
      </trkpt>
      <trkpt lat="48.12073" lon="6.33113">
        <ele>352.2998</ele>
        <time>2026-05-17T13:23:06+02:00</time>
      </trkpt>
      <trkpt lat="48.12076" lon="6.33114">
        <ele>352.2998</ele>
        <time>2026-05-17T13:23:07+02:00</time>
      </trkpt>
      <trkpt lat="48.12079" lon="6.33114">
        <ele>352.7002</ele>
        <time>2026-05-17T13:23:08+02:00</time>
      </trkpt>
      <trkpt lat="48.12084" lon="6.33114">
        <ele>352.7002</ele>
        <time>2026-05-17T13:23:09+02:00</time>
      </trkpt>
      <trkpt lat="48.12087" lon="6.33115">
        <ele>353.1006</ele>
        <time>2026-05-17T13:23:10+02:00</time>
      </trkpt>
      <trkpt lat="48.12091" lon="6.33116">
        <ele>353.5</ele>
        <time>2026-05-17T13:23:11+02:00</time>
      </trkpt>
      <trkpt lat="48.12094" lon="6.33117">
        <ele>353.5</ele>
        <time>2026-05-17T13:23:12+02:00</time>
      </trkpt>
      <trkpt lat="48.12098" lon="6.33117">
        <ele>353.7998</ele>
        <time>2026-05-17T13:23:13+02:00</time>
      </trkpt>
      <trkpt lat="48.12102" lon="6.33118">
        <ele>354</ele>
        <time>2026-05-17T13:23:14+02:00</time>
      </trkpt>
      <trkpt lat="48.12106" lon="6.33119">
        <ele>354</ele>
        <time>2026-05-17T13:23:15+02:00</time>
      </trkpt>
      <trkpt lat="48.12109" lon="6.33119">
        <ele>354.2002</ele>
        <time>2026-05-17T13:23:16+02:00</time>
      </trkpt>
      <trkpt lat="48.12113" lon="6.33119">
        <ele>354.4004</ele>
        <time>2026-05-17T13:23:17+02:00</time>
      </trkpt>
      <trkpt lat="48.12117" lon="6.33119">
        <ele>354.4004</ele>
        <time>2026-05-17T13:23:18+02:00</time>
      </trkpt>
      <trkpt lat="48.12121" lon="6.33119">
        <ele>354.5</ele>
        <time>2026-05-17T13:23:19+02:00</time>
      </trkpt>
      <trkpt lat="48.12124" lon="6.33118">
        <ele>354.5</ele>
        <time>2026-05-17T13:23:20+02:00</time>
      </trkpt>
      <trkpt lat="48.12128" lon="6.33118">
        <ele>354.6006</ele>
        <time>2026-05-17T13:23:21+02:00</time>
      </trkpt>
      <trkpt lat="48.12131" lon="6.33117">
        <ele>354.7002</ele>
        <time>2026-05-17T13:23:22+02:00</time>
      </trkpt>
      <trkpt lat="48.12135" lon="6.33116">
        <ele>354.7002</ele>
        <time>2026-05-17T13:23:23+02:00</time>
      </trkpt>
      <trkpt lat="48.12138" lon="6.33115">
        <ele>354.9004</ele>
        <time>2026-05-17T13:23:24+02:00</time>
      </trkpt>
      <trkpt lat="48.12142" lon="6.33114">
        <ele>355.1006</ele>
        <time>2026-05-17T13:23:25+02:00</time>
      </trkpt>
      <trkpt lat="48.12145" lon="6.33112">
        <ele>354.1006</ele>
        <time>2026-05-17T13:23:26+02:00</time>
      </trkpt>
      <trkpt lat="48.12149" lon="6.33111">
        <ele>354.2998</ele>
        <time>2026-05-17T13:23:27+02:00</time>
      </trkpt>
      <trkpt lat="48.12152" lon="6.3311">
        <ele>354.2998</ele>
        <time>2026-05-17T13:23:28+02:00</time>
      </trkpt>
      <trkpt lat="48.12156" lon="6.33108">
        <ele>354.5</ele>
        <time>2026-05-17T13:23:29+02:00</time>
      </trkpt>
      <trkpt lat="48.12159" lon="6.33107">
        <ele>354.7002</ele>
        <time>2026-05-17T13:23:30+02:00</time>
      </trkpt>
      <trkpt lat="48.12163" lon="6.33105">
        <ele>354.7002</ele>
        <time>2026-05-17T13:23:31+02:00</time>
      </trkpt>
      <trkpt lat="48.12166" lon="6.33102">
        <ele>353.7998</ele>
        <time>2026-05-17T13:23:32+02:00</time>
      </trkpt>
      <trkpt lat="48.12168" lon="6.33101">
        <ele>353.7998</ele>
        <time>2026-05-17T13:23:33+02:00</time>
      </trkpt>
      <trkpt lat="48.12173" lon="6.33097">
        <ele>354</ele>
        <time>2026-05-17T13:23:34+02:00</time>
      </trkpt>
      <trkpt lat="48.12177" lon="6.33094">
        <ele>353.2002</ele>
        <time>2026-05-17T13:23:35+02:00</time>
      </trkpt>
      <trkpt lat="48.12179" lon="6.33093">
        <ele>353.2002</ele>
        <time>2026-05-17T13:23:36+02:00</time>
      </trkpt>
      <trkpt lat="48.12184" lon="6.33089">
        <ele>353.2998</ele>
        <time>2026-05-17T13:23:37+02:00</time>
      </trkpt>
      <trkpt lat="48.12188" lon="6.33087">
        <ele>352.5</ele>
        <time>2026-05-17T13:23:38+02:00</time>
      </trkpt>
      <trkpt lat="48.12192" lon="6.33084">
        <ele>352.5</ele>
        <time>2026-05-17T13:23:39+02:00</time>
      </trkpt>
      <trkpt lat="48.12196" lon="6.33082">
        <ele>352.6006</ele>
        <time>2026-05-17T13:23:40+02:00</time>
      </trkpt>
      <trkpt lat="48.122" lon="6.3308">
        <ele>352.7002</ele>
        <time>2026-05-17T13:23:41+02:00</time>
      </trkpt>
      <trkpt lat="48.12204" lon="6.33078">
        <ele>351.7002</ele>
        <time>2026-05-17T13:23:42+02:00</time>
      </trkpt>
      <trkpt lat="48.12208" lon="6.33076">
        <ele>351.7998</ele>
        <time>2026-05-17T13:23:43+02:00</time>
      </trkpt>
      <trkpt lat="48.12213" lon="6.33074">
        <ele>351.9004</ele>
        <time>2026-05-17T13:23:44+02:00</time>
      </trkpt>
      <trkpt lat="48.12215" lon="6.33073">
        <ele>351.9004</ele>
        <time>2026-05-17T13:23:45+02:00</time>
      </trkpt>
      <trkpt lat="48.12221" lon="6.33071">
        <ele>351.9004</ele>
        <time>2026-05-17T13:23:46+02:00</time>
      </trkpt>
      <trkpt lat="48.12225" lon="6.3307">
        <ele>352</ele>
        <time>2026-05-17T13:23:47+02:00</time>
      </trkpt>
      <trkpt lat="48.12227" lon="6.33069">
        <ele>351.1006</ele>
        <time>2026-05-17T13:23:48+02:00</time>
      </trkpt>
      <trkpt lat="48.12231" lon="6.33068">
        <ele>351.2002</ele>
        <time>2026-05-17T13:23:49+02:00</time>
      </trkpt>
      <trkpt lat="48.12237" lon="6.33066">
        <ele>351.2002</ele>
        <time>2026-05-17T13:23:50+02:00</time>
      </trkpt>
      <trkpt lat="48.12241" lon="6.33065">
        <ele>351.2998</ele>
        <time>2026-05-17T13:23:51+02:00</time>
      </trkpt>
      <trkpt lat="48.12246" lon="6.33064">
        <ele>351.4004</ele>
        <time>2026-05-17T13:23:52+02:00</time>
      </trkpt>
      <trkpt lat="48.1225" lon="6.33064">
        <ele>351.4004</ele>
        <time>2026-05-17T13:23:53+02:00</time>
      </trkpt>
      <trkpt lat="48.12254" lon="6.33063">
        <ele>351.4004</ele>
        <time>2026-05-17T13:23:54+02:00</time>
      </trkpt>
      <trkpt lat="48.12258" lon="6.33063">
        <ele>351.5</ele>
        <time>2026-05-17T13:23:55+02:00</time>
      </trkpt>
      <trkpt lat="48.12261" lon="6.33063">
        <ele>351.5</ele>
        <time>2026-05-17T13:23:56+02:00</time>
      </trkpt>
      <trkpt lat="48.12266" lon="6.33062">
        <ele>351.6006</ele>
        <time>2026-05-17T13:23:57+02:00</time>
      </trkpt>
      <trkpt lat="48.1227" lon="6.33062">
        <ele>351.7002</ele>
        <time>2026-05-17T13:23:58+02:00</time>
      </trkpt>
      <trkpt lat="48.12274" lon="6.33062">
        <ele>351.7002</ele>
        <time>2026-05-17T13:23:59+02:00</time>
      </trkpt>
      <trkpt lat="48.12278" lon="6.33061">
        <ele>350.9004</ele>
        <time>2026-05-17T13:24:00+02:00</time>
      </trkpt>
      <trkpt lat="48.12282" lon="6.33061">
        <ele>350.9004</ele>
        <time>2026-05-17T13:24:01+02:00</time>
      </trkpt>
      <trkpt lat="48.12286" lon="6.33061">
        <ele>351</ele>
        <time>2026-05-17T13:24:02+02:00</time>
      </trkpt>
      <trkpt lat="48.1229" lon="6.3306">
        <ele>351</ele>
        <time>2026-05-17T13:24:03+02:00</time>
      </trkpt>
      <trkpt lat="48.12294" lon="6.3306">
        <ele>351</ele>
        <time>2026-05-17T13:24:04+02:00</time>
      </trkpt>
      <trkpt lat="48.12298" lon="6.33059">
        <ele>351</ele>
        <time>2026-05-17T13:24:05+02:00</time>
      </trkpt>
      <trkpt lat="48.12301" lon="6.33059">
        <ele>351</ele>
        <time>2026-05-17T13:24:06+02:00</time>
      </trkpt>
      <trkpt lat="48.12303" lon="6.33058">
        <ele>351.1006</ele>
        <time>2026-05-17T13:24:07+02:00</time>
      </trkpt>
      <trkpt lat="48.12309" lon="6.33057">
        <ele>351.1006</ele>
        <time>2026-05-17T13:24:08+02:00</time>
      </trkpt>
      <trkpt lat="48.12313" lon="6.33057">
        <ele>351.1006</ele>
        <time>2026-05-17T13:24:09+02:00</time>
      </trkpt>
      <trkpt lat="48.12317" lon="6.33056">
        <ele>351.1006</ele>
        <time>2026-05-17T13:24:10+02:00</time>
      </trkpt>
      <trkpt lat="48.12321" lon="6.33055">
        <ele>351.1006</ele>
        <time>2026-05-17T13:24:11+02:00</time>
      </trkpt>
      <trkpt lat="48.12325" lon="6.33055">
        <ele>351.1006</ele>
        <time>2026-05-17T13:24:12+02:00</time>
      </trkpt>
      <trkpt lat="48.1233" lon="6.33054">
        <ele>351.1006</ele>
        <time>2026-05-17T13:24:13+02:00</time>
      </trkpt>
      <trkpt lat="48.12334" lon="6.33054">
        <ele>351.1006</ele>
        <time>2026-05-17T13:24:14+02:00</time>
      </trkpt>
      <trkpt lat="48.12338" lon="6.33054">
        <ele>351.1006</ele>
        <time>2026-05-17T13:24:15+02:00</time>
      </trkpt>
      <trkpt lat="48.12343" lon="6.33054">
        <ele>351.1006</ele>
        <time>2026-05-17T13:24:16+02:00</time>
      </trkpt>
      <trkpt lat="48.12346" lon="6.33054">
        <ele>351.1006</ele>
        <time>2026-05-17T13:24:17+02:00</time>
      </trkpt>
      <trkpt lat="48.12351" lon="6.33055">
        <ele>351</ele>
        <time>2026-05-17T13:24:18+02:00</time>
      </trkpt>
      <trkpt lat="48.12354" lon="6.33056">
        <ele>351</ele>
        <time>2026-05-17T13:24:19+02:00</time>
      </trkpt>
      <trkpt lat="48.12358" lon="6.33057">
        <ele>351</ele>
        <time>2026-05-17T13:24:20+02:00</time>
      </trkpt>
      <trkpt lat="48.12362" lon="6.33058">
        <ele>351</ele>
        <time>2026-05-17T13:24:21+02:00</time>
      </trkpt>
      <trkpt lat="48.12366" lon="6.3306">
        <ele>351</ele>
        <time>2026-05-17T13:24:22+02:00</time>
      </trkpt>
      <trkpt lat="48.12368" lon="6.33061">
        <ele>351</ele>
        <time>2026-05-17T13:24:23+02:00</time>
      </trkpt>
      <trkpt lat="48.12373" lon="6.33064">
        <ele>351.6006</ele>
        <time>2026-05-17T13:24:24+02:00</time>
      </trkpt>
      <trkpt lat="48.12378" lon="6.33066">
        <ele>351.6006</ele>
        <time>2026-05-17T13:24:25+02:00</time>
      </trkpt>
      <trkpt lat="48.12382" lon="6.33068">
        <ele>351.6006</ele>
        <time>2026-05-17T13:24:26+02:00</time>
      </trkpt>
      <trkpt lat="48.12386" lon="6.33069">
        <ele>351.6006</ele>
        <time>2026-05-17T13:24:27+02:00</time>
      </trkpt>
      <trkpt lat="48.1239" lon="6.3307">
        <ele>351.9004</ele>
        <time>2026-05-17T13:24:28+02:00</time>
      </trkpt>
      <trkpt lat="48.12394" lon="6.33071">
        <ele>351.9004</ele>
        <time>2026-05-17T13:24:29+02:00</time>
      </trkpt>
      <trkpt lat="48.12398" lon="6.33073">
        <ele>351.9004</ele>
        <time>2026-05-17T13:24:30+02:00</time>
      </trkpt>
      <trkpt lat="48.12402" lon="6.33074">
        <ele>352</ele>
        <time>2026-05-17T13:24:31+02:00</time>
      </trkpt>
      <trkpt lat="48.12406" lon="6.33075">
        <ele>352.1006</ele>
        <time>2026-05-17T13:24:32+02:00</time>
      </trkpt>
      <trkpt lat="48.12408" lon="6.33076">
        <ele>352.1006</ele>
        <time>2026-05-17T13:24:33+02:00</time>
      </trkpt>
      <trkpt lat="48.12414" lon="6.33077">
        <ele>352.1006</ele>
        <time>2026-05-17T13:24:34+02:00</time>
      </trkpt>
      <trkpt lat="48.12419" lon="6.33077">
        <ele>352.2998</ele>
        <time>2026-05-17T13:24:35+02:00</time>
      </trkpt>
      <trkpt lat="48.12421" lon="6.33078">
        <ele>352.2998</ele>
        <time>2026-05-17T13:24:36+02:00</time>
      </trkpt>
      <trkpt lat="48.12428" lon="6.33078">
        <ele>352.6006</ele>
        <time>2026-05-17T13:24:37+02:00</time>
      </trkpt>
      <trkpt lat="48.12432" lon="6.33078">
        <ele>352.6006</ele>
        <time>2026-05-17T13:24:38+02:00</time>
      </trkpt>
      <trkpt lat="48.12436" lon="6.33078">
        <ele>352.7002</ele>
        <time>2026-05-17T13:24:39+02:00</time>
      </trkpt>
      <trkpt lat="48.12441" lon="6.33078">
        <ele>352.9004</ele>
        <time>2026-05-17T13:24:40+02:00</time>
      </trkpt>
      <trkpt lat="48.12445" lon="6.33077">
        <ele>353.2002</ele>
        <time>2026-05-17T13:24:41+02:00</time>
      </trkpt>
      <trkpt lat="48.12449" lon="6.33076">
        <ele>353.2002</ele>
        <time>2026-05-17T13:24:42+02:00</time>
      </trkpt>
      <trkpt lat="48.12454" lon="6.33076">
        <ele>353.4004</ele>
        <time>2026-05-17T13:24:43+02:00</time>
      </trkpt>
      <trkpt lat="48.12458" lon="6.33075">
        <ele>353.7002</ele>
        <time>2026-05-17T13:24:44+02:00</time>
      </trkpt>
      <trkpt lat="48.1246" lon="6.33074">
        <ele>353.7002</ele>
        <time>2026-05-17T13:24:45+02:00</time>
      </trkpt>
      <trkpt lat="48.12467" lon="6.33072">
        <ele>354.2002</ele>
        <time>2026-05-17T13:24:46+02:00</time>
      </trkpt>
      <trkpt lat="48.12468" lon="6.33071">
        <ele>354.7002</ele>
        <time>2026-05-17T13:24:47+02:00</time>
      </trkpt>
      <trkpt lat="48.12473" lon="6.33069">
        <ele>353.7998</ele>
        <time>2026-05-17T13:24:48+02:00</time>
      </trkpt>
      <trkpt lat="48.12477" lon="6.33067">
        <ele>354.2998</ele>
        <time>2026-05-17T13:24:49+02:00</time>
      </trkpt>
      <trkpt lat="48.12484" lon="6.33064">
        <ele>355</ele>
        <time>2026-05-17T13:24:50+02:00</time>
      </trkpt>
      <trkpt lat="48.12486" lon="6.33063">
        <ele>355.6006</ele>
        <time>2026-05-17T13:24:51+02:00</time>
      </trkpt>
      <trkpt lat="48.1249" lon="6.3306">
        <ele>354.4004</ele>
        <time>2026-05-17T13:24:52+02:00</time>
      </trkpt>
      <trkpt lat="48.12496" lon="6.33055">
        <ele>355</ele>
        <time>2026-05-17T13:24:53+02:00</time>
      </trkpt>
      <trkpt lat="48.12498" lon="6.33054">
        <ele>355.6006</ele>
        <time>2026-05-17T13:24:54+02:00</time>
      </trkpt>
      <trkpt lat="48.12502" lon="6.33051">
        <ele>354.2998</ele>
        <time>2026-05-17T13:24:55+02:00</time>
      </trkpt>
      <trkpt lat="48.12505" lon="6.33048">
        <ele>355</ele>
        <time>2026-05-17T13:24:56+02:00</time>
      </trkpt>
      <trkpt lat="48.12512" lon="6.33043">
        <ele>354.6006</ele>
        <time>2026-05-17T13:24:57+02:00</time>
      </trkpt>
      <trkpt lat="48.12514" lon="6.33042">
        <ele>355.1006</ele>
        <time>2026-05-17T13:24:58+02:00</time>
      </trkpt>
      <trkpt lat="48.12518" lon="6.33039">
        <ele>355.1006</ele>
        <time>2026-05-17T13:24:59+02:00</time>
      </trkpt>
      <trkpt lat="48.12521" lon="6.33036">
        <ele>355.6006</ele>
        <time>2026-05-17T13:25:00+02:00</time>
      </trkpt>
      <trkpt lat="48.12525" lon="6.33032">
        <ele>354.2998</ele>
        <time>2026-05-17T13:25:01+02:00</time>
      </trkpt>
      <trkpt lat="48.12529" lon="6.33029">
        <ele>354.7002</ele>
        <time>2026-05-17T13:25:02+02:00</time>
      </trkpt>
      <trkpt lat="48.12533" lon="6.33026">
        <ele>353.7002</ele>
        <time>2026-05-17T13:25:03+02:00</time>
      </trkpt>
      <trkpt lat="48.12539" lon="6.33021">
        <ele>353.9004</ele>
        <time>2026-05-17T13:25:04+02:00</time>
      </trkpt>
      <trkpt lat="48.12541" lon="6.3302">
        <ele>353.9004</ele>
        <time>2026-05-17T13:25:05+02:00</time>
      </trkpt>
      <trkpt lat="48.12545" lon="6.33016">
        <ele>352.7002</ele>
        <time>2026-05-17T13:25:06+02:00</time>
      </trkpt>
      <trkpt lat="48.12549" lon="6.33013">
        <ele>352.9004</ele>
        <time>2026-05-17T13:25:07+02:00</time>
      </trkpt>
      <trkpt lat="48.12555" lon="6.33008">
        <ele>351.7002</ele>
        <time>2026-05-17T13:25:08+02:00</time>
      </trkpt>
      <trkpt lat="48.12557" lon="6.33007">
        <ele>351.7002</ele>
        <time>2026-05-17T13:25:09+02:00</time>
      </trkpt>
      <trkpt lat="48.12562" lon="6.33004">
        <ele>351.9004</ele>
        <time>2026-05-17T13:25:10+02:00</time>
      </trkpt>
      <trkpt lat="48.12568" lon="6.33001">
        <ele>350.9004</ele>
        <time>2026-05-17T13:25:11+02:00</time>
      </trkpt>
      <trkpt lat="48.12571" lon="6.33">
        <ele>350.9004</ele>
        <time>2026-05-17T13:25:12+02:00</time>
      </trkpt>
      <trkpt lat="48.12575" lon="6.32998">
        <ele>351</ele>
        <time>2026-05-17T13:25:13+02:00</time>
      </trkpt>
      <trkpt lat="48.1258" lon="6.32996">
        <ele>351.1006</ele>
        <time>2026-05-17T13:25:14+02:00</time>
      </trkpt>
      <trkpt lat="48.12587" lon="6.32993">
        <ele>351.2002</ele>
        <time>2026-05-17T13:25:15+02:00</time>
      </trkpt>
      <trkpt lat="48.12589" lon="6.32993">
        <ele>351.4004</ele>
        <time>2026-05-17T13:25:16+02:00</time>
      </trkpt>
      <trkpt lat="48.12593" lon="6.32991">
        <ele>350.4004</ele>
        <time>2026-05-17T13:25:17+02:00</time>
      </trkpt>
      <trkpt lat="48.12599" lon="6.32988">
        <ele>350.4004</ele>
        <time>2026-05-17T13:25:18+02:00</time>
      </trkpt>
      <trkpt lat="48.12602" lon="6.32988">
        <ele>350.5</ele>
        <time>2026-05-17T13:25:19+02:00</time>
      </trkpt>
      <trkpt lat="48.12608" lon="6.32985">
        <ele>350.4004</ele>
        <time>2026-05-17T13:25:20+02:00</time>
      </trkpt>
      <trkpt lat="48.12612" lon="6.32984">
        <ele>349.2002</ele>
        <time>2026-05-17T13:25:21+02:00</time>
      </trkpt>
      <trkpt lat="48.12616" lon="6.32982">
        <ele>349.2002</ele>
        <time>2026-05-17T13:25:22+02:00</time>
      </trkpt>
      <trkpt lat="48.12618" lon="6.32982">
        <ele>349.1006</ele>
        <time>2026-05-17T13:25:23+02:00</time>
      </trkpt>
      <trkpt lat="48.12623" lon="6.32981">
        <ele>349.5</ele>
        <time>2026-05-17T13:25:24+02:00</time>
      </trkpt>
      <trkpt lat="48.12629" lon="6.32979">
        <ele>351</ele>
        <time>2026-05-17T13:25:25+02:00</time>
      </trkpt>
      <trkpt lat="48.12633" lon="6.32978">
        <ele>351</ele>
        <time>2026-05-17T13:25:26+02:00</time>
      </trkpt>
      <trkpt lat="48.12636" lon="6.32978">
        <ele>352.7998</ele>
        <time>2026-05-17T13:25:27+02:00</time>
      </trkpt>
      <trkpt lat="48.12642" lon="6.32976">
        <ele>354.4004</ele>
        <time>2026-05-17T13:25:28+02:00</time>
      </trkpt>
      <trkpt lat="48.12646" lon="6.32975">
        <ele>353.2002</ele>
        <time>2026-05-17T13:25:29+02:00</time>
      </trkpt>
      <trkpt lat="48.12648" lon="6.32974">
        <ele>353.2002</ele>
        <time>2026-05-17T13:25:30+02:00</time>
      </trkpt>
      <trkpt lat="48.12652" lon="6.32973">
        <ele>353.5</ele>
        <time>2026-05-17T13:25:31+02:00</time>
      </trkpt>
      <trkpt lat="48.12658" lon="6.32971">
        <ele>353.7002</ele>
        <time>2026-05-17T13:25:32+02:00</time>
      </trkpt>
      <trkpt lat="48.12661" lon="6.32971">
        <ele>353.7002</ele>
        <time>2026-05-17T13:25:33+02:00</time>
      </trkpt>
      <trkpt lat="48.12665" lon="6.32969">
        <ele>353.9004</ele>
        <time>2026-05-17T13:25:34+02:00</time>
      </trkpt>
      <trkpt lat="48.12672" lon="6.32967">
        <ele>353.9004</ele>
        <time>2026-05-17T13:25:35+02:00</time>
      </trkpt>
      <trkpt lat="48.12676" lon="6.32965">
        <ele>352.2002</ele>
        <time>2026-05-17T13:25:36+02:00</time>
      </trkpt>
      <trkpt lat="48.12681" lon="6.32964">
        <ele>352.2002</ele>
        <time>2026-05-17T13:25:37+02:00</time>
      </trkpt>
      <trkpt lat="48.12685" lon="6.32963">
        <ele>352.2002</ele>
        <time>2026-05-17T13:25:38+02:00</time>
      </trkpt>
      <trkpt lat="48.12689" lon="6.32962">
        <ele>352.2002</ele>
        <time>2026-05-17T13:25:39+02:00</time>
      </trkpt>
      <trkpt lat="48.12694" lon="6.32961">
        <ele>352.1006</ele>
        <time>2026-05-17T13:25:40+02:00</time>
      </trkpt>
      <trkpt lat="48.12698" lon="6.3296">
        <ele>352.1006</ele>
        <time>2026-05-17T13:25:41+02:00</time>
      </trkpt>
      <trkpt lat="48.12703" lon="6.32959">
        <ele>352</ele>
        <time>2026-05-17T13:25:42+02:00</time>
      </trkpt>
      <trkpt lat="48.12708" lon="6.32957">
        <ele>351.1006</ele>
        <time>2026-05-17T13:25:43+02:00</time>
      </trkpt>
      <trkpt lat="48.12712" lon="6.32956">
        <ele>351</ele>
        <time>2026-05-17T13:25:44+02:00</time>
      </trkpt>
      <trkpt lat="48.12716" lon="6.32956">
        <ele>350.9004</ele>
        <time>2026-05-17T13:25:45+02:00</time>
      </trkpt>
      <trkpt lat="48.12721" lon="6.32955">
        <ele>350.7002</ele>
        <time>2026-05-17T13:25:46+02:00</time>
      </trkpt>
      <trkpt lat="48.12725" lon="6.32954">
        <ele>350.7002</ele>
        <time>2026-05-17T13:25:47+02:00</time>
      </trkpt>
      <trkpt lat="48.12729" lon="6.32952">
        <ele>350.6006</ele>
        <time>2026-05-17T13:25:48+02:00</time>
      </trkpt>
      <trkpt lat="48.12734" lon="6.32951">
        <ele>350.4004</ele>
        <time>2026-05-17T13:25:49+02:00</time>
      </trkpt>
      <trkpt lat="48.12738" lon="6.3295">
        <ele>350.2998</ele>
        <time>2026-05-17T13:25:50+02:00</time>
      </trkpt>
      <trkpt lat="48.12742" lon="6.32948">
        <ele>349.6006</ele>
        <time>2026-05-17T13:25:51+02:00</time>
      </trkpt>
      <trkpt lat="48.12746" lon="6.32947">
        <ele>349.4004</ele>
        <time>2026-05-17T13:25:52+02:00</time>
      </trkpt>
      <trkpt lat="48.1275" lon="6.32947">
        <ele>349.4004</ele>
        <time>2026-05-17T13:25:53+02:00</time>
      </trkpt>
      <trkpt lat="48.12755" lon="6.32946">
        <ele>349.4004</ele>
        <time>2026-05-17T13:25:54+02:00</time>
      </trkpt>
      <trkpt lat="48.12759" lon="6.32946">
        <ele>349.4004</ele>
        <time>2026-05-17T13:25:55+02:00</time>
      </trkpt>
      <trkpt lat="48.12763" lon="6.32945">
        <ele>349.6006</ele>
        <time>2026-05-17T13:25:56+02:00</time>
      </trkpt>
      <trkpt lat="48.12767" lon="6.32945">
        <ele>350</ele>
        <time>2026-05-17T13:25:57+02:00</time>
      </trkpt>
      <trkpt lat="48.12771" lon="6.32945">
        <ele>350</ele>
        <time>2026-05-17T13:25:58+02:00</time>
      </trkpt>
      <trkpt lat="48.12776" lon="6.32944">
        <ele>350.4004</ele>
        <time>2026-05-17T13:25:59+02:00</time>
      </trkpt>
      <trkpt lat="48.12779" lon="6.32943">
        <ele>350.6006</ele>
        <time>2026-05-17T13:26:00+02:00</time>
      </trkpt>
      <trkpt lat="48.12784" lon="6.32943">
        <ele>350.7002</ele>
        <time>2026-05-17T13:26:01+02:00</time>
      </trkpt>
      <trkpt lat="48.12787" lon="6.32943">
        <ele>350.7002</ele>
        <time>2026-05-17T13:26:02+02:00</time>
      </trkpt>
      <trkpt lat="48.12791" lon="6.32942">
        <ele>350.7998</ele>
        <time>2026-05-17T13:26:03+02:00</time>
      </trkpt>
      <trkpt lat="48.12794" lon="6.32941">
        <ele>350.2998</ele>
        <time>2026-05-17T13:26:04+02:00</time>
      </trkpt>
      <trkpt lat="48.12798" lon="6.32941">
        <ele>350.4004</ele>
        <time>2026-05-17T13:26:05+02:00</time>
      </trkpt>
      <trkpt lat="48.128" lon="6.3294">
        <ele>350.4004</ele>
        <time>2026-05-17T13:26:06+02:00</time>
      </trkpt>
      <trkpt lat="48.12803" lon="6.3294">
        <ele>350.4004</ele>
        <time>2026-05-17T13:26:07+02:00</time>
      </trkpt>
      <trkpt lat="48.12805" lon="6.32939">
        <ele>350.4004</ele>
        <time>2026-05-17T13:26:08+02:00</time>
      </trkpt>
      <trkpt lat="48.12806" lon="6.32939">
        <ele>350.4004</ele>
        <time>2026-05-17T13:26:09+02:00</time>
      </trkpt>
      <trkpt lat="48.12808" lon="6.32939">
        <ele>350.4004</ele>
        <time>2026-05-17T13:26:10+02:00</time>
      </trkpt>
      <trkpt lat="48.12808" lon="6.3294">
        <ele>350.4004</ele>
        <time>2026-05-17T13:26:11+02:00</time>
      </trkpt>
      <trkpt lat="48.12808" lon="6.32939">
        <ele>350.4004</ele>
        <time>2026-05-17T13:26:12+02:00</time>
      </trkpt>
      <trkpt lat="48.12809" lon="6.32939">
        <ele>350.4004</ele>
        <time>2026-05-17T13:26:13+02:00</time>
      </trkpt>
      <trkpt lat="48.12809" lon="6.32939">
        <ele>350.4004</ele>
        <time>2026-05-17T13:26:14+02:00</time>
      </trkpt>
      <trkpt lat="48.12809" lon="6.32939">
        <ele>350.4004</ele>
        <time>2026-05-17T13:45:48+02:00</time>
      </trkpt>
      <trkpt lat="48.12809" lon="6.32939">
        <ele>350.4004</ele>
        <time>2026-05-17T13:45:49+02:00</time>
      </trkpt>
      <trkpt lat="48.12809" lon="6.32939">
        <ele>350.4004</ele>
        <time>2026-05-17T13:45:50+02:00</time>
      </trkpt>
      <trkpt lat="48.12809" lon="6.32939">
        <ele>350.4004</ele>
        <time>2026-05-17T13:45:51+02:00</time>
      </trkpt>
      <trkpt lat="48.12809" lon="6.32939">
        <ele>350.4004</ele>
        <time>2026-05-17T13:45:52+02:00</time>
      </trkpt>
      <trkpt lat="48.12812" lon="6.32925">
        <ele>350.5</ele>
        <time>2026-05-17T13:45:53+02:00</time>
      </trkpt>
      <trkpt lat="48.12814" lon="6.32925">
        <ele>350.5</ele>
        <time>2026-05-17T13:45:54+02:00</time>
      </trkpt>
      <trkpt lat="48.12816" lon="6.32926">
        <ele>350.5</ele>
        <time>2026-05-17T13:45:55+02:00</time>
      </trkpt>
      <trkpt lat="48.12818" lon="6.32926">
        <ele>350.6006</ele>
        <time>2026-05-17T13:45:56+02:00</time>
      </trkpt>
      <trkpt lat="48.12819" lon="6.32927">
        <ele>350.6006</ele>
        <time>2026-05-17T13:45:57+02:00</time>
      </trkpt>
      <trkpt lat="48.12822" lon="6.32927">
        <ele>350.6006</ele>
        <time>2026-05-17T13:45:58+02:00</time>
      </trkpt>
      <trkpt lat="48.12824" lon="6.32928">
        <ele>350.6006</ele>
        <time>2026-05-17T13:45:59+02:00</time>
      </trkpt>
      <trkpt lat="48.12827" lon="6.32928">
        <ele>350.6006</ele>
        <time>2026-05-17T13:46:00+02:00</time>
      </trkpt>
      <trkpt lat="48.12829" lon="6.32929">
        <ele>350.6006</ele>
        <time>2026-05-17T13:46:01+02:00</time>
      </trkpt>
      <trkpt lat="48.12832" lon="6.32929">
        <ele>350.6006</ele>
        <time>2026-05-17T13:46:02+02:00</time>
      </trkpt>
      <trkpt lat="48.12835" lon="6.3293">
        <ele>350.5</ele>
        <time>2026-05-17T13:46:03+02:00</time>
      </trkpt>
      <trkpt lat="48.12837" lon="6.32931">
        <ele>350.5</ele>
        <time>2026-05-17T13:46:04+02:00</time>
      </trkpt>
      <trkpt lat="48.1284" lon="6.32932">
        <ele>350.5</ele>
        <time>2026-05-17T13:46:05+02:00</time>
      </trkpt>
      <trkpt lat="48.12843" lon="6.32933">
        <ele>350.5</ele>
        <time>2026-05-17T13:46:06+02:00</time>
      </trkpt>
      <trkpt lat="48.12846" lon="6.32934">
        <ele>350.5</ele>
        <time>2026-05-17T13:46:07+02:00</time>
      </trkpt>
      <trkpt lat="48.12848" lon="6.32935">
        <ele>350.5</ele>
        <time>2026-05-17T13:46:08+02:00</time>
      </trkpt>
      <trkpt lat="48.12851" lon="6.32936">
        <ele>350.5</ele>
        <time>2026-05-17T13:46:09+02:00</time>
      </trkpt>
      <trkpt lat="48.12855" lon="6.32938">
        <ele>350.6006</ele>
        <time>2026-05-17T13:46:10+02:00</time>
      </trkpt>
      <trkpt lat="48.12859" lon="6.32939">
        <ele>350.6006</ele>
        <time>2026-05-17T13:46:11+02:00</time>
      </trkpt>
      <trkpt lat="48.12862" lon="6.3294">
        <ele>350.6006</ele>
        <time>2026-05-17T13:46:12+02:00</time>
      </trkpt>
      <trkpt lat="48.12866" lon="6.32942">
        <ele>351.6006</ele>
        <time>2026-05-17T13:46:13+02:00</time>
      </trkpt>
      <trkpt lat="48.12869" lon="6.32943">
        <ele>351.6006</ele>
        <time>2026-05-17T13:46:14+02:00</time>
      </trkpt>
      <trkpt lat="48.12873" lon="6.32944">
        <ele>351.7002</ele>
        <time>2026-05-17T13:46:15+02:00</time>
      </trkpt>
      <trkpt lat="48.12877" lon="6.32946">
        <ele>351.7998</ele>
        <time>2026-05-17T13:46:16+02:00</time>
      </trkpt>
      <trkpt lat="48.12882" lon="6.32947">
        <ele>351.9004</ele>
        <time>2026-05-17T13:46:17+02:00</time>
      </trkpt>
      <trkpt lat="48.12885" lon="6.32948">
        <ele>351.9004</ele>
        <time>2026-05-17T13:46:18+02:00</time>
      </trkpt>
      <trkpt lat="48.1289" lon="6.32949">
        <ele>352</ele>
        <time>2026-05-17T13:46:19+02:00</time>
      </trkpt>
      <trkpt lat="48.12894" lon="6.3295">
        <ele>353.7998</ele>
        <time>2026-05-17T13:46:20+02:00</time>
      </trkpt>
      <trkpt lat="48.12899" lon="6.32952">
        <ele>353.9004</ele>
        <time>2026-05-17T13:46:21+02:00</time>
      </trkpt>
      <trkpt lat="48.12904" lon="6.32953">
        <ele>354</ele>
        <time>2026-05-17T13:46:22+02:00</time>
      </trkpt>
      <trkpt lat="48.12909" lon="6.32954">
        <ele>354</ele>
        <time>2026-05-17T13:46:23+02:00</time>
      </trkpt>
      <trkpt lat="48.12916" lon="6.32955">
        <ele>354.1006</ele>
        <time>2026-05-17T13:46:24+02:00</time>
      </trkpt>
      <trkpt lat="48.12922" lon="6.32956">
        <ele>354.2002</ele>
        <time>2026-05-17T13:46:25+02:00</time>
      </trkpt>
      <trkpt lat="48.12928" lon="6.32956">
        <ele>354.2998</ele>
        <time>2026-05-17T13:46:26+02:00</time>
      </trkpt>
      <trkpt lat="48.12933" lon="6.32956">
        <ele>354.2998</ele>
        <time>2026-05-17T13:46:27+02:00</time>
      </trkpt>
      <trkpt lat="48.12939" lon="6.32955">
        <ele>354.2998</ele>
        <time>2026-05-17T13:46:28+02:00</time>
      </trkpt>
      <trkpt lat="48.12944" lon="6.32955">
        <ele>354.2998</ele>
        <time>2026-05-17T13:46:29+02:00</time>
      </trkpt>
      <trkpt lat="48.12949" lon="6.32954">
        <ele>354.2998</ele>
        <time>2026-05-17T13:46:30+02:00</time>
      </trkpt>
      <trkpt lat="48.12954" lon="6.32953">
        <ele>354.2998</ele>
        <time>2026-05-17T13:46:31+02:00</time>
      </trkpt>
      <trkpt lat="48.12959" lon="6.32951">
        <ele>354.4004</ele>
        <time>2026-05-17T13:46:32+02:00</time>
      </trkpt>
      <trkpt lat="48.12963" lon="6.32949">
        <ele>352.9004</ele>
        <time>2026-05-17T13:46:33+02:00</time>
      </trkpt>
      <trkpt lat="48.12968" lon="6.32946">
        <ele>353.1006</ele>
        <time>2026-05-17T13:46:34+02:00</time>
      </trkpt>
      <trkpt lat="48.12973" lon="6.32943">
        <ele>353.5</ele>
        <time>2026-05-17T13:46:35+02:00</time>
      </trkpt>
      <trkpt lat="48.12977" lon="6.32939">
        <ele>351.7998</ele>
        <time>2026-05-17T13:46:36+02:00</time>
      </trkpt>
      <trkpt lat="48.12982" lon="6.32935">
        <ele>352.2002</ele>
        <time>2026-05-17T13:46:37+02:00</time>
      </trkpt>
      <trkpt lat="48.12986" lon="6.32931">
        <ele>351.4004</ele>
        <time>2026-05-17T13:46:38+02:00</time>
      </trkpt>
      <trkpt lat="48.12991" lon="6.32927">
        <ele>352.2998</ele>
        <time>2026-05-17T13:46:39+02:00</time>
      </trkpt>
      <trkpt lat="48.12995" lon="6.32923">
        <ele>352.5</ele>
        <time>2026-05-17T13:46:40+02:00</time>
      </trkpt>
      <trkpt lat="48.12999" lon="6.32917">
        <ele>352.5</ele>
        <time>2026-05-17T13:46:41+02:00</time>
      </trkpt>
      <trkpt lat="48.13003" lon="6.32912">
        <ele>352.2998</ele>
        <time>2026-05-17T13:46:42+02:00</time>
      </trkpt>
      <trkpt lat="48.13006" lon="6.32906">
        <ele>351.4004</ele>
        <time>2026-05-17T13:46:43+02:00</time>
      </trkpt>
      <trkpt lat="48.13009" lon="6.329">
        <ele>351.6006</ele>
        <time>2026-05-17T13:46:44+02:00</time>
      </trkpt>
      <trkpt lat="48.13013" lon="6.32893">
        <ele>350.7998</ele>
        <time>2026-05-17T13:46:45+02:00</time>
      </trkpt>
      <trkpt lat="48.13016" lon="6.32887">
        <ele>350.2002</ele>
        <time>2026-05-17T13:46:46+02:00</time>
      </trkpt>
      <trkpt lat="48.1302" lon="6.32881">
        <ele>350</ele>
        <time>2026-05-17T13:46:47+02:00</time>
      </trkpt>
      <trkpt lat="48.13023" lon="6.32874">
        <ele>350</ele>
        <time>2026-05-17T13:46:48+02:00</time>
      </trkpt>
      <trkpt lat="48.13027" lon="6.32867">
        <ele>350.2002</ele>
        <time>2026-05-17T13:46:49+02:00</time>
      </trkpt>
      <trkpt lat="48.1303" lon="6.3286">
        <ele>350.5</ele>
        <time>2026-05-17T13:46:50+02:00</time>
      </trkpt>
      <trkpt lat="48.13033" lon="6.32853">
        <ele>350.6006</ele>
        <time>2026-05-17T13:46:51+02:00</time>
      </trkpt>
      <trkpt lat="48.13037" lon="6.32847">
        <ele>350.6006</ele>
        <time>2026-05-17T13:46:52+02:00</time>
      </trkpt>
      <trkpt lat="48.13041" lon="6.32841">
        <ele>350.6006</ele>
        <time>2026-05-17T13:46:53+02:00</time>
      </trkpt>
      <trkpt lat="48.13045" lon="6.32835">
        <ele>350.9004</ele>
        <time>2026-05-17T13:46:54+02:00</time>
      </trkpt>
      <trkpt lat="48.13049" lon="6.3283">
        <ele>350.7002</ele>
        <time>2026-05-17T13:46:55+02:00</time>
      </trkpt>
      <trkpt lat="48.13054" lon="6.32825">
        <ele>350.7002</ele>
        <time>2026-05-17T13:46:56+02:00</time>
      </trkpt>
      <trkpt lat="48.13059" lon="6.3282">
        <ele>350.7998</ele>
        <time>2026-05-17T13:46:57+02:00</time>
      </trkpt>
      <trkpt lat="48.13064" lon="6.32815">
        <ele>350.6006</ele>
        <time>2026-05-17T13:46:58+02:00</time>
      </trkpt>
      <trkpt lat="48.13069" lon="6.32811">
        <ele>351</ele>
        <time>2026-05-17T13:46:59+02:00</time>
      </trkpt>
      <trkpt lat="48.13073" lon="6.32808">
        <ele>350.9004</ele>
        <time>2026-05-17T13:47:00+02:00</time>
      </trkpt>
      <trkpt lat="48.13078" lon="6.32805">
        <ele>350.9004</ele>
        <time>2026-05-17T13:47:01+02:00</time>
      </trkpt>
      <trkpt lat="48.13084" lon="6.32802">
        <ele>351.2002</ele>
        <time>2026-05-17T13:47:02+02:00</time>
      </trkpt>
      <trkpt lat="48.13089" lon="6.32799">
        <ele>351.1006</ele>
        <time>2026-05-17T13:47:03+02:00</time>
      </trkpt>
      <trkpt lat="48.13094" lon="6.32797">
        <ele>351</ele>
        <time>2026-05-17T13:47:04+02:00</time>
      </trkpt>
      <trkpt lat="48.131" lon="6.32794">
        <ele>351.6006</ele>
        <time>2026-05-17T13:47:05+02:00</time>
      </trkpt>
      <trkpt lat="48.13105" lon="6.32791">
        <ele>351.5</ele>
        <time>2026-05-17T13:47:06+02:00</time>
      </trkpt>
      <trkpt lat="48.1311" lon="6.32789">
        <ele>351.5</ele>
        <time>2026-05-17T13:47:07+02:00</time>
      </trkpt>
      <trkpt lat="48.13116" lon="6.32787">
        <ele>351.4004</ele>
        <time>2026-05-17T13:47:08+02:00</time>
      </trkpt>
      <trkpt lat="48.13122" lon="6.32785">
        <ele>351.2998</ele>
        <time>2026-05-17T13:47:09+02:00</time>
      </trkpt>
      <trkpt lat="48.13127" lon="6.32782">
        <ele>350.9004</ele>
        <time>2026-05-17T13:47:10+02:00</time>
      </trkpt>
      <trkpt lat="48.13132" lon="6.3278">
        <ele>350.9004</ele>
        <time>2026-05-17T13:47:11+02:00</time>
      </trkpt>
      <trkpt lat="48.13138" lon="6.32778">
        <ele>350.7002</ele>
        <time>2026-05-17T13:47:12+02:00</time>
      </trkpt>
      <trkpt lat="48.13143" lon="6.32776">
        <ele>350.7002</ele>
        <time>2026-05-17T13:47:13+02:00</time>
      </trkpt>
      <trkpt lat="48.13149" lon="6.32774">
        <ele>350.7998</ele>
        <time>2026-05-17T13:47:14+02:00</time>
      </trkpt>
      <trkpt lat="48.13155" lon="6.32771">
        <ele>350.9004</ele>
        <time>2026-05-17T13:47:15+02:00</time>
      </trkpt>
      <trkpt lat="48.1316" lon="6.32769">
        <ele>351.4004</ele>
        <time>2026-05-17T13:47:16+02:00</time>
      </trkpt>
      <trkpt lat="48.13165" lon="6.32767">
        <ele>351.1006</ele>
        <time>2026-05-17T13:47:17+02:00</time>
      </trkpt>
      <trkpt lat="48.13169" lon="6.32763">
        <ele>350.7002</ele>
        <time>2026-05-17T13:47:18+02:00</time>
      </trkpt>
      <trkpt lat="48.13175" lon="6.32761">
        <ele>352</ele>
        <time>2026-05-17T13:47:19+02:00</time>
      </trkpt>
      <trkpt lat="48.13177" lon="6.3276">
        <ele>352</ele>
        <time>2026-05-17T13:47:20+02:00</time>
      </trkpt>
      <trkpt lat="48.13185" lon="6.32756">
        <ele>351.7998</ele>
        <time>2026-05-17T13:47:21+02:00</time>
      </trkpt>
      <trkpt lat="48.1319" lon="6.32754">
        <ele>351.9004</ele>
        <time>2026-05-17T13:47:22+02:00</time>
      </trkpt>
      <trkpt lat="48.13195" lon="6.32752">
        <ele>351.6006</ele>
        <time>2026-05-17T13:47:23+02:00</time>
      </trkpt>
      <trkpt lat="48.132" lon="6.3275">
        <ele>351</ele>
        <time>2026-05-17T13:47:24+02:00</time>
      </trkpt>
      <trkpt lat="48.13205" lon="6.32748">
        <ele>350.7998</ele>
        <time>2026-05-17T13:47:25+02:00</time>
      </trkpt>
      <trkpt lat="48.1321" lon="6.32746">
        <ele>350.7998</ele>
        <time>2026-05-17T13:47:26+02:00</time>
      </trkpt>
      <trkpt lat="48.13216" lon="6.32744">
        <ele>351</ele>
        <time>2026-05-17T13:47:27+02:00</time>
      </trkpt>
      <trkpt lat="48.13221" lon="6.32743">
        <ele>350.6006</ele>
        <time>2026-05-17T13:47:28+02:00</time>
      </trkpt>
      <trkpt lat="48.13226" lon="6.32741">
        <ele>351.7002</ele>
        <time>2026-05-17T13:47:29+02:00</time>
      </trkpt>
      <trkpt lat="48.13231" lon="6.32739">
        <ele>353.2998</ele>
        <time>2026-05-17T13:47:30+02:00</time>
      </trkpt>
      <trkpt lat="48.13236" lon="6.32737">
        <ele>355.1006</ele>
        <time>2026-05-17T13:47:31+02:00</time>
      </trkpt>
      <trkpt lat="48.13241" lon="6.32735">
        <ele>354.2002</ele>
        <time>2026-05-17T13:47:32+02:00</time>
      </trkpt>
      <trkpt lat="48.13246" lon="6.32733">
        <ele>355</ele>
        <time>2026-05-17T13:47:33+02:00</time>
      </trkpt>
      <trkpt lat="48.13251" lon="6.32731">
        <ele>355.4004</ele>
        <time>2026-05-17T13:47:34+02:00</time>
      </trkpt>
      <trkpt lat="48.13256" lon="6.32728">
        <ele>355.5</ele>
        <time>2026-05-17T13:47:35+02:00</time>
      </trkpt>
      <trkpt lat="48.13261" lon="6.32726">
        <ele>353.6006</ele>
        <time>2026-05-17T13:47:36+02:00</time>
      </trkpt>
      <trkpt lat="48.13267" lon="6.32724">
        <ele>353.9004</ele>
        <time>2026-05-17T13:47:37+02:00</time>
      </trkpt>
      <trkpt lat="48.13272" lon="6.32721">
        <ele>354.2998</ele>
        <time>2026-05-17T13:47:38+02:00</time>
      </trkpt>
      <trkpt lat="48.13277" lon="6.32719">
        <ele>354.9004</ele>
        <time>2026-05-17T13:47:39+02:00</time>
      </trkpt>
      <trkpt lat="48.13283" lon="6.32716">
        <ele>353</ele>
        <time>2026-05-17T13:47:40+02:00</time>
      </trkpt>
      <trkpt lat="48.13289" lon="6.32713">
        <ele>353.7998</ele>
        <time>2026-05-17T13:47:41+02:00</time>
      </trkpt>
      <trkpt lat="48.13292" lon="6.32712">
        <ele>353.7998</ele>
        <time>2026-05-17T13:47:42+02:00</time>
      </trkpt>
      <trkpt lat="48.13301" lon="6.32706">
        <ele>355</ele>
        <time>2026-05-17T13:47:43+02:00</time>
      </trkpt>
      <trkpt lat="48.13307" lon="6.32702">
        <ele>357</ele>
        <time>2026-05-17T13:47:44+02:00</time>
      </trkpt>
      <trkpt lat="48.13312" lon="6.32697">
        <ele>357.1006</ele>
        <time>2026-05-17T13:47:45+02:00</time>
      </trkpt>
      <trkpt lat="48.13318" lon="6.32693">
        <ele>358.1006</ele>
        <time>2026-05-17T13:47:46+02:00</time>
      </trkpt>
      <trkpt lat="48.13323" lon="6.32688">
        <ele>357.7998</ele>
        <time>2026-05-17T13:47:47+02:00</time>
      </trkpt>
      <trkpt lat="48.13329" lon="6.32683">
        <ele>357.7998</ele>
        <time>2026-05-17T13:47:48+02:00</time>
      </trkpt>
      <trkpt lat="48.13334" lon="6.32678">
        <ele>358.4004</ele>
        <time>2026-05-17T13:47:49+02:00</time>
      </trkpt>
      <trkpt lat="48.13339" lon="6.32673">
        <ele>357.4004</ele>
        <time>2026-05-17T13:47:50+02:00</time>
      </trkpt>
      <trkpt lat="48.13344" lon="6.32669">
        <ele>357.4004</ele>
        <time>2026-05-17T13:47:51+02:00</time>
      </trkpt>
      <trkpt lat="48.13349" lon="6.32664">
        <ele>356.1006</ele>
        <time>2026-05-17T13:47:52+02:00</time>
      </trkpt>
      <trkpt lat="48.13354" lon="6.32659">
        <ele>356.1006</ele>
        <time>2026-05-17T13:47:53+02:00</time>
      </trkpt>
      <trkpt lat="48.13359" lon="6.32655">
        <ele>354.7998</ele>
        <time>2026-05-17T13:47:54+02:00</time>
      </trkpt>
      <trkpt lat="48.13364" lon="6.3265">
        <ele>355.2002</ele>
        <time>2026-05-17T13:47:55+02:00</time>
      </trkpt>
      <trkpt lat="48.13369" lon="6.32645">
        <ele>353.6006</ele>
        <time>2026-05-17T13:47:56+02:00</time>
      </trkpt>
      <trkpt lat="48.13374" lon="6.3264">
        <ele>352.2002</ele>
        <time>2026-05-17T13:47:57+02:00</time>
      </trkpt>
      <trkpt lat="48.13379" lon="6.32635">
        <ele>353.1006</ele>
        <time>2026-05-17T13:47:58+02:00</time>
      </trkpt>
      <trkpt lat="48.13384" lon="6.3263">
        <ele>351.6006</ele>
        <time>2026-05-17T13:47:59+02:00</time>
      </trkpt>
      <trkpt lat="48.1339" lon="6.32626">
        <ele>353.1006</ele>
        <time>2026-05-17T13:48:00+02:00</time>
      </trkpt>
      <trkpt lat="48.13395" lon="6.32621">
        <ele>353.7998</ele>
        <time>2026-05-17T13:48:01+02:00</time>
      </trkpt>
      <trkpt lat="48.134" lon="6.32617">
        <ele>355.1006</ele>
        <time>2026-05-17T13:48:02+02:00</time>
      </trkpt>
      <trkpt lat="48.13405" lon="6.32613">
        <ele>354.7002</ele>
        <time>2026-05-17T13:48:03+02:00</time>
      </trkpt>
      <trkpt lat="48.13409" lon="6.32609">
        <ele>355.9004</ele>
        <time>2026-05-17T13:48:04+02:00</time>
      </trkpt>
      <trkpt lat="48.13415" lon="6.32604">
        <ele>356.2002</ele>
        <time>2026-05-17T13:48:05+02:00</time>
      </trkpt>
      <trkpt lat="48.13419" lon="6.326">
        <ele>357</ele>
        <time>2026-05-17T13:48:06+02:00</time>
      </trkpt>
      <trkpt lat="48.13425" lon="6.32596">
        <ele>356.2002</ele>
        <time>2026-05-17T13:48:07+02:00</time>
      </trkpt>
      <trkpt lat="48.1343" lon="6.32591">
        <ele>356.2002</ele>
        <time>2026-05-17T13:48:08+02:00</time>
      </trkpt>
      <trkpt lat="48.13435" lon="6.32587">
        <ele>355</ele>
        <time>2026-05-17T13:48:09+02:00</time>
      </trkpt>
      <trkpt lat="48.13439" lon="6.32582">
        <ele>355</ele>
        <time>2026-05-17T13:48:10+02:00</time>
      </trkpt>
      <trkpt lat="48.13443" lon="6.32578">
        <ele>353.7002</ele>
        <time>2026-05-17T13:48:11+02:00</time>
      </trkpt>
      <trkpt lat="48.13447" lon="6.32574">
        <ele>353.7002</ele>
        <time>2026-05-17T13:48:12+02:00</time>
      </trkpt>
      <trkpt lat="48.1345" lon="6.3257">
        <ele>352.2998</ele>
        <time>2026-05-17T13:48:13+02:00</time>
      </trkpt>
      <trkpt lat="48.13453" lon="6.32567">
        <ele>352.2998</ele>
        <time>2026-05-17T13:48:14+02:00</time>
      </trkpt>
      <trkpt lat="48.13456" lon="6.32563">
        <ele>351.1006</ele>
        <time>2026-05-17T13:48:15+02:00</time>
      </trkpt>
      <trkpt lat="48.1346" lon="6.32558">
        <ele>351.4004</ele>
        <time>2026-05-17T13:48:16+02:00</time>
      </trkpt>
      <trkpt lat="48.13463" lon="6.32555">
        <ele>351.4004</ele>
        <time>2026-05-17T13:48:17+02:00</time>
      </trkpt>
      <trkpt lat="48.13467" lon="6.32551">
        <ele>350.7998</ele>
        <time>2026-05-17T13:48:18+02:00</time>
      </trkpt>
      <trkpt lat="48.1347" lon="6.32547">
        <ele>350.7998</ele>
        <time>2026-05-17T13:48:19+02:00</time>
      </trkpt>
      <trkpt lat="48.13474" lon="6.32543">
        <ele>351.1006</ele>
        <time>2026-05-17T13:48:20+02:00</time>
      </trkpt>
      <trkpt lat="48.13478" lon="6.3254">
        <ele>352.2002</ele>
        <time>2026-05-17T13:48:21+02:00</time>
      </trkpt>
      <trkpt lat="48.13482" lon="6.32537">
        <ele>351.4004</ele>
        <time>2026-05-17T13:48:22+02:00</time>
      </trkpt>
      <trkpt lat="48.13486" lon="6.32534">
        <ele>352</ele>
        <time>2026-05-17T13:48:23+02:00</time>
      </trkpt>
      <trkpt lat="48.13489" lon="6.32532">
        <ele>352.5</ele>
        <time>2026-05-17T13:48:24+02:00</time>
      </trkpt>
      <trkpt lat="48.13495" lon="6.32527">
        <ele>351.2998</ele>
        <time>2026-05-17T13:48:25+02:00</time>
      </trkpt>
      <trkpt lat="48.13499" lon="6.32524">
        <ele>351.2998</ele>
        <time>2026-05-17T13:48:26+02:00</time>
      </trkpt>
      <trkpt lat="48.13503" lon="6.32521">
        <ele>351.5</ele>
        <time>2026-05-17T13:48:27+02:00</time>
      </trkpt>
      <trkpt lat="48.13508" lon="6.32517">
        <ele>350.7998</ele>
        <time>2026-05-17T13:48:28+02:00</time>
      </trkpt>
      <trkpt lat="48.13512" lon="6.32513">
        <ele>351.7002</ele>
        <time>2026-05-17T13:48:29+02:00</time>
      </trkpt>
      <trkpt lat="48.13516" lon="6.32509">
        <ele>350.7002</ele>
        <time>2026-05-17T13:48:30+02:00</time>
      </trkpt>
      <trkpt lat="48.13521" lon="6.32505">
        <ele>352.2002</ele>
        <time>2026-05-17T13:48:31+02:00</time>
      </trkpt>
      <trkpt lat="48.13525" lon="6.32501">
        <ele>352.4004</ele>
        <time>2026-05-17T13:48:32+02:00</time>
      </trkpt>
      <trkpt lat="48.1353" lon="6.32496">
        <ele>353.7002</ele>
        <time>2026-05-17T13:48:33+02:00</time>
      </trkpt>
      <trkpt lat="48.13534" lon="6.32492">
        <ele>353.6006</ele>
        <time>2026-05-17T13:48:34+02:00</time>
      </trkpt>
      <trkpt lat="48.13539" lon="6.32487">
        <ele>353.6006</ele>
        <time>2026-05-17T13:48:35+02:00</time>
      </trkpt>
      <trkpt lat="48.13543" lon="6.32483">
        <ele>354.5</ele>
        <time>2026-05-17T13:48:36+02:00</time>
      </trkpt>
      <trkpt lat="48.13548" lon="6.32479">
        <ele>356.1006</ele>
        <time>2026-05-17T13:48:37+02:00</time>
      </trkpt>
      <trkpt lat="48.13553" lon="6.32474">
        <ele>355.4004</ele>
        <time>2026-05-17T13:48:38+02:00</time>
      </trkpt>
      <trkpt lat="48.13558" lon="6.3247">
        <ele>355.4004</ele>
        <time>2026-05-17T13:48:39+02:00</time>
      </trkpt>
      <trkpt lat="48.13562" lon="6.32466">
        <ele>353.5</ele>
        <time>2026-05-17T13:48:40+02:00</time>
      </trkpt>
      <trkpt lat="48.13567" lon="6.32462">
        <ele>353.5</ele>
        <time>2026-05-17T13:48:41+02:00</time>
      </trkpt>
      <trkpt lat="48.1357" lon="6.3246">
        <ele>352</ele>
        <time>2026-05-17T13:48:42+02:00</time>
      </trkpt>
      <trkpt lat="48.13577" lon="6.32455">
        <ele>352</ele>
        <time>2026-05-17T13:48:43+02:00</time>
      </trkpt>
      <trkpt lat="48.13583" lon="6.32452">
        <ele>352.1006</ele>
        <time>2026-05-17T13:48:44+02:00</time>
      </trkpt>
      <trkpt lat="48.13588" lon="6.3245">
        <ele>351.1006</ele>
        <time>2026-05-17T13:48:45+02:00</time>
      </trkpt>
      <trkpt lat="48.13593" lon="6.32448">
        <ele>351.2002</ele>
        <time>2026-05-17T13:48:46+02:00</time>
      </trkpt>
      <trkpt lat="48.13599" lon="6.32447">
        <ele>351.2002</ele>
        <time>2026-05-17T13:48:47+02:00</time>
      </trkpt>
      <trkpt lat="48.13604" lon="6.32446">
        <ele>351.2002</ele>
        <time>2026-05-17T13:48:48+02:00</time>
      </trkpt>
      <trkpt lat="48.1361" lon="6.32446">
        <ele>351.2998</ele>
        <time>2026-05-17T13:48:49+02:00</time>
      </trkpt>
      <trkpt lat="48.13616" lon="6.32445">
        <ele>351.2998</ele>
        <time>2026-05-17T13:48:50+02:00</time>
      </trkpt>
      <trkpt lat="48.13621" lon="6.32445">
        <ele>351.4004</ele>
        <time>2026-05-17T13:48:51+02:00</time>
      </trkpt>
      <trkpt lat="48.13626" lon="6.32445">
        <ele>351.4004</ele>
        <time>2026-05-17T13:48:52+02:00</time>
      </trkpt>
      <trkpt lat="48.13632" lon="6.32446">
        <ele>351.5</ele>
        <time>2026-05-17T13:48:53+02:00</time>
      </trkpt>
      <trkpt lat="48.13634" lon="6.32446">
        <ele>351.5</ele>
        <time>2026-05-17T13:48:54+02:00</time>
      </trkpt>
      <trkpt lat="48.13642" lon="6.32448">
        <ele>351.5</ele>
        <time>2026-05-17T13:48:55+02:00</time>
      </trkpt>
      <trkpt lat="48.13647" lon="6.3245">
        <ele>351.5</ele>
        <time>2026-05-17T13:48:56+02:00</time>
      </trkpt>
      <trkpt lat="48.1365" lon="6.3245">
        <ele>351.6006</ele>
        <time>2026-05-17T13:48:57+02:00</time>
      </trkpt>
      <trkpt lat="48.13657" lon="6.32453">
        <ele>352.7002</ele>
        <time>2026-05-17T13:48:58+02:00</time>
      </trkpt>
      <trkpt lat="48.13662" lon="6.32456">
        <ele>352.7002</ele>
        <time>2026-05-17T13:48:59+02:00</time>
      </trkpt>
      <trkpt lat="48.13667" lon="6.32458">
        <ele>352.7002</ele>
        <time>2026-05-17T13:49:00+02:00</time>
      </trkpt>
      <trkpt lat="48.13673" lon="6.3246">
        <ele>352.6006</ele>
        <time>2026-05-17T13:49:01+02:00</time>
      </trkpt>
      <trkpt lat="48.13678" lon="6.32463">
        <ele>353.7002</ele>
        <time>2026-05-17T13:49:02+02:00</time>
      </trkpt>
      <trkpt lat="48.13683" lon="6.32466">
        <ele>353.6006</ele>
        <time>2026-05-17T13:49:03+02:00</time>
      </trkpt>
      <trkpt lat="48.13688" lon="6.32468">
        <ele>353.6006</ele>
        <time>2026-05-17T13:49:04+02:00</time>
      </trkpt>
      <trkpt lat="48.13693" lon="6.32471">
        <ele>354.4004</ele>
        <time>2026-05-17T13:49:05+02:00</time>
      </trkpt>
      <trkpt lat="48.13699" lon="6.32473">
        <ele>354.1006</ele>
        <time>2026-05-17T13:49:06+02:00</time>
      </trkpt>
      <trkpt lat="48.13704" lon="6.32476">
        <ele>353.9004</ele>
        <time>2026-05-17T13:49:07+02:00</time>
      </trkpt>
      <trkpt lat="48.1371" lon="6.32479">
        <ele>354.4004</ele>
        <time>2026-05-17T13:49:08+02:00</time>
      </trkpt>
      <trkpt lat="48.13715" lon="6.32482">
        <ele>354</ele>
        <time>2026-05-17T13:49:09+02:00</time>
      </trkpt>
      <trkpt lat="48.1372" lon="6.32485">
        <ele>353.7002</ele>
        <time>2026-05-17T13:49:10+02:00</time>
      </trkpt>
      <trkpt lat="48.13727" lon="6.32487">
        <ele>353.7002</ele>
        <time>2026-05-17T13:49:11+02:00</time>
      </trkpt>
      <trkpt lat="48.13732" lon="6.3249">
        <ele>353.4004</ele>
        <time>2026-05-17T13:49:12+02:00</time>
      </trkpt>
      <trkpt lat="48.13737" lon="6.32492">
        <ele>353.1006</ele>
        <time>2026-05-17T13:49:13+02:00</time>
      </trkpt>
      <trkpt lat="48.13743" lon="6.32494">
        <ele>352.9004</ele>
        <time>2026-05-17T13:49:14+02:00</time>
      </trkpt>
      <trkpt lat="48.13749" lon="6.32496">
        <ele>353</ele>
        <time>2026-05-17T13:49:15+02:00</time>
      </trkpt>
      <trkpt lat="48.13755" lon="6.32497">
        <ele>352.9004</ele>
        <time>2026-05-17T13:49:16+02:00</time>
      </trkpt>
      <trkpt lat="48.13761" lon="6.32498">
        <ele>352.7998</ele>
        <time>2026-05-17T13:49:17+02:00</time>
      </trkpt>
      <trkpt lat="48.13767" lon="6.32498">
        <ele>352.7998</ele>
        <time>2026-05-17T13:49:18+02:00</time>
      </trkpt>
      <trkpt lat="48.13773" lon="6.32499">
        <ele>352.7002</ele>
        <time>2026-05-17T13:49:19+02:00</time>
      </trkpt>
      <trkpt lat="48.13778" lon="6.32498">
        <ele>352.7002</ele>
        <time>2026-05-17T13:49:20+02:00</time>
      </trkpt>
      <trkpt lat="48.13784" lon="6.32498">
        <ele>352.7002</ele>
        <time>2026-05-17T13:49:21+02:00</time>
      </trkpt>
      <trkpt lat="48.13789" lon="6.32497">
        <ele>352.7002</ele>
        <time>2026-05-17T13:49:22+02:00</time>
      </trkpt>
      <trkpt lat="48.13795" lon="6.32495">
        <ele>352.7002</ele>
        <time>2026-05-17T13:49:23+02:00</time>
      </trkpt>
      <trkpt lat="48.13801" lon="6.32494">
        <ele>352.4004</ele>
        <time>2026-05-17T13:49:24+02:00</time>
      </trkpt>
      <trkpt lat="48.13807" lon="6.32492">
        <ele>352.4004</ele>
        <time>2026-05-17T13:49:25+02:00</time>
      </trkpt>
      <trkpt lat="48.13812" lon="6.32489">
        <ele>352.4004</ele>
        <time>2026-05-17T13:49:26+02:00</time>
      </trkpt>
      <trkpt lat="48.13818" lon="6.32487">
        <ele>352.4004</ele>
        <time>2026-05-17T13:49:27+02:00</time>
      </trkpt>
      <trkpt lat="48.13823" lon="6.32484">
        <ele>352.2002</ele>
        <time>2026-05-17T13:49:28+02:00</time>
      </trkpt>
      <trkpt lat="48.13829" lon="6.32482">
        <ele>352.2998</ele>
        <time>2026-05-17T13:49:29+02:00</time>
      </trkpt>
      <trkpt lat="48.13834" lon="6.32479">
        <ele>352.4004</ele>
        <time>2026-05-17T13:49:30+02:00</time>
      </trkpt>
      <trkpt lat="48.13839" lon="6.32477">
        <ele>352.2002</ele>
        <time>2026-05-17T13:49:31+02:00</time>
      </trkpt>
      <trkpt lat="48.13845" lon="6.32475">
        <ele>352.2002</ele>
        <time>2026-05-17T13:49:32+02:00</time>
      </trkpt>
      <trkpt lat="48.1385" lon="6.32472">
        <ele>352.2002</ele>
        <time>2026-05-17T13:49:33+02:00</time>
      </trkpt>
      <trkpt lat="48.13855" lon="6.3247">
        <ele>352.1006</ele>
        <time>2026-05-17T13:49:34+02:00</time>
      </trkpt>
      <trkpt lat="48.1386" lon="6.32468">
        <ele>351.9004</ele>
        <time>2026-05-17T13:49:35+02:00</time>
      </trkpt>
      <trkpt lat="48.13865" lon="6.32466">
        <ele>351.9004</ele>
        <time>2026-05-17T13:49:36+02:00</time>
      </trkpt>
      <trkpt lat="48.13868" lon="6.32465">
        <ele>351.7998</ele>
        <time>2026-05-17T13:49:37+02:00</time>
      </trkpt>
      <trkpt lat="48.13875" lon="6.32463">
        <ele>351.7998</ele>
        <time>2026-05-17T13:49:38+02:00</time>
      </trkpt>
      <trkpt lat="48.1388" lon="6.32461">
        <ele>351.7998</ele>
        <time>2026-05-17T13:49:39+02:00</time>
      </trkpt>
      <trkpt lat="48.13884" lon="6.32459">
        <ele>351.6006</ele>
        <time>2026-05-17T13:49:40+02:00</time>
      </trkpt>
      <trkpt lat="48.13888" lon="6.32458">
        <ele>351.6006</ele>
        <time>2026-05-17T13:49:41+02:00</time>
      </trkpt>
      <trkpt lat="48.13892" lon="6.32456">
        <ele>351.6006</ele>
        <time>2026-05-17T13:49:42+02:00</time>
      </trkpt>
      <trkpt lat="48.13896" lon="6.32455">
        <ele>351.6006</ele>
        <time>2026-05-17T13:49:43+02:00</time>
      </trkpt>
      <trkpt lat="48.13899" lon="6.32453">
        <ele>351.6006</ele>
        <time>2026-05-17T13:49:44+02:00</time>
      </trkpt>
      <trkpt lat="48.13901" lon="6.32451">
        <ele>351.4004</ele>
        <time>2026-05-17T13:49:45+02:00</time>
      </trkpt>
      <trkpt lat="48.13904" lon="6.3245">
        <ele>351.4004</ele>
        <time>2026-05-17T13:49:46+02:00</time>
      </trkpt>
      <trkpt lat="48.13907" lon="6.32447">
        <ele>351.4004</ele>
        <time>2026-05-17T13:49:47+02:00</time>
      </trkpt>
      <trkpt lat="48.13909" lon="6.32444">
        <ele>351.4004</ele>
        <time>2026-05-17T13:49:48+02:00</time>
      </trkpt>
      <trkpt lat="48.13912" lon="6.32441">
        <ele>351.2998</ele>
        <time>2026-05-17T13:49:49+02:00</time>
      </trkpt>
      <trkpt lat="48.13914" lon="6.32438">
        <ele>351.2998</ele>
        <time>2026-05-17T13:49:50+02:00</time>
      </trkpt>
      <trkpt lat="48.13918" lon="6.32436">
        <ele>351.2998</ele>
        <time>2026-05-17T13:49:51+02:00</time>
      </trkpt>
      <trkpt lat="48.13921" lon="6.32433">
        <ele>351.2002</ele>
        <time>2026-05-17T13:49:52+02:00</time>
      </trkpt>
      <trkpt lat="48.13925" lon="6.32431">
        <ele>351.2002</ele>
        <time>2026-05-17T13:49:53+02:00</time>
      </trkpt>
      <trkpt lat="48.13929" lon="6.32429">
        <ele>351.2998</ele>
        <time>2026-05-17T13:49:54+02:00</time>
      </trkpt>
      <trkpt lat="48.13933" lon="6.32426">
        <ele>351.2998</ele>
        <time>2026-05-17T13:49:55+02:00</time>
      </trkpt>
      <trkpt lat="48.13934" lon="6.32425">
        <ele>351.2998</ele>
        <time>2026-05-17T13:49:56+02:00</time>
      </trkpt>
      <trkpt lat="48.1394" lon="6.32421">
        <ele>351.2998</ele>
        <time>2026-05-17T13:49:57+02:00</time>
      </trkpt>
      <trkpt lat="48.13944" lon="6.32419">
        <ele>351.2998</ele>
        <time>2026-05-17T13:49:58+02:00</time>
      </trkpt>
      <trkpt lat="48.13948" lon="6.32417">
        <ele>351.4004</ele>
        <time>2026-05-17T13:49:59+02:00</time>
      </trkpt>
      <trkpt lat="48.13952" lon="6.32416">
        <ele>351.4004</ele>
        <time>2026-05-17T13:50:00+02:00</time>
      </trkpt>
      <trkpt lat="48.13957" lon="6.32416">
        <ele>351.4004</ele>
        <time>2026-05-17T13:50:01+02:00</time>
      </trkpt>
      <trkpt lat="48.13961" lon="6.32415">
        <ele>351.5</ele>
        <time>2026-05-17T13:50:02+02:00</time>
      </trkpt>
      <trkpt lat="48.13965" lon="6.32414">
        <ele>351.6006</ele>
        <time>2026-05-17T13:50:03+02:00</time>
      </trkpt>
      <trkpt lat="48.13969" lon="6.32413">
        <ele>351.7002</ele>
        <time>2026-05-17T13:50:04+02:00</time>
      </trkpt>
      <trkpt lat="48.13973" lon="6.32412">
        <ele>351.7002</ele>
        <time>2026-05-17T13:50:05+02:00</time>
      </trkpt>
      <trkpt lat="48.13977" lon="6.3241">
        <ele>351.7998</ele>
        <time>2026-05-17T13:50:06+02:00</time>
      </trkpt>
      <trkpt lat="48.13981" lon="6.32408">
        <ele>351.9004</ele>
        <time>2026-05-17T13:50:07+02:00</time>
      </trkpt>
      <trkpt lat="48.13984" lon="6.32406">
        <ele>351.9004</ele>
        <time>2026-05-17T13:50:08+02:00</time>
      </trkpt>
      <trkpt lat="48.13988" lon="6.32404">
        <ele>352.1006</ele>
        <time>2026-05-17T13:50:09+02:00</time>
      </trkpt>
      <trkpt lat="48.13992" lon="6.32402">
        <ele>352.2002</ele>
        <time>2026-05-17T13:50:10+02:00</time>
      </trkpt>
      <trkpt lat="48.13997" lon="6.324">
        <ele>352.1006</ele>
        <time>2026-05-17T13:50:11+02:00</time>
      </trkpt>
      <trkpt lat="48.14001" lon="6.32398">
        <ele>352.2002</ele>
        <time>2026-05-17T13:50:12+02:00</time>
      </trkpt>
      <trkpt lat="48.14005" lon="6.32395">
        <ele>352.2998</ele>
        <time>2026-05-17T13:50:13+02:00</time>
      </trkpt>
      <trkpt lat="48.1401" lon="6.32393">
        <ele>352.2998</ele>
        <time>2026-05-17T13:50:14+02:00</time>
      </trkpt>
      <trkpt lat="48.14014" lon="6.32391">
        <ele>352.2002</ele>
        <time>2026-05-17T13:50:15+02:00</time>
      </trkpt>
      <trkpt lat="48.14019" lon="6.32388">
        <ele>352.2998</ele>
        <time>2026-05-17T13:50:16+02:00</time>
      </trkpt>
      <trkpt lat="48.14021" lon="6.32387">
        <ele>352.4004</ele>
        <time>2026-05-17T13:50:17+02:00</time>
      </trkpt>
      <trkpt lat="48.14028" lon="6.32384">
        <ele>352.4004</ele>
        <time>2026-05-17T13:50:18+02:00</time>
      </trkpt>
      <trkpt lat="48.14032" lon="6.32381">
        <ele>352.4004</ele>
        <time>2026-05-17T13:50:19+02:00</time>
      </trkpt>
      <trkpt lat="48.14037" lon="6.32379">
        <ele>352.4004</ele>
        <time>2026-05-17T13:50:20+02:00</time>
      </trkpt>
      <trkpt lat="48.14041" lon="6.32376">
        <ele>352.4004</ele>
        <time>2026-05-17T13:50:21+02:00</time>
      </trkpt>
      <trkpt lat="48.14046" lon="6.32374">
        <ele>352.5</ele>
        <time>2026-05-17T13:50:22+02:00</time>
      </trkpt>
      <trkpt lat="48.1405" lon="6.32372">
        <ele>352.5</ele>
        <time>2026-05-17T13:50:23+02:00</time>
      </trkpt>
      <trkpt lat="48.14054" lon="6.3237">
        <ele>352.5</ele>
        <time>2026-05-17T13:50:24+02:00</time>
      </trkpt>
      <trkpt lat="48.14058" lon="6.32368">
        <ele>352.5</ele>
        <time>2026-05-17T13:50:25+02:00</time>
      </trkpt>
      <trkpt lat="48.14062" lon="6.32365">
        <ele>352.5</ele>
        <time>2026-05-17T13:50:26+02:00</time>
      </trkpt>
      <trkpt lat="48.14066" lon="6.32363">
        <ele>352.5</ele>
        <time>2026-05-17T13:50:27+02:00</time>
      </trkpt>
      <trkpt lat="48.14069" lon="6.32361">
        <ele>352.5</ele>
        <time>2026-05-17T13:50:28+02:00</time>
      </trkpt>
      <trkpt lat="48.14073" lon="6.32359">
        <ele>352.4004</ele>
        <time>2026-05-17T13:50:29+02:00</time>
      </trkpt>
      <trkpt lat="48.14077" lon="6.32357">
        <ele>352.4004</ele>
        <time>2026-05-17T13:50:30+02:00</time>
      </trkpt>
      <trkpt lat="48.1408" lon="6.32355">
        <ele>352.2998</ele>
        <time>2026-05-17T13:50:31+02:00</time>
      </trkpt>
      <trkpt lat="48.14084" lon="6.32353">
        <ele>352.2998</ele>
        <time>2026-05-17T13:50:32+02:00</time>
      </trkpt>
      <trkpt lat="48.14087" lon="6.32352">
        <ele>352.2998</ele>
        <time>2026-05-17T13:50:33+02:00</time>
      </trkpt>
      <trkpt lat="48.14091" lon="6.3235">
        <ele>352.2998</ele>
        <time>2026-05-17T13:50:34+02:00</time>
      </trkpt>
      <trkpt lat="48.14095" lon="6.32348">
        <ele>352.2998</ele>
        <time>2026-05-17T13:50:35+02:00</time>
      </trkpt>
      <trkpt lat="48.14098" lon="6.32347">
        <ele>352.2998</ele>
        <time>2026-05-17T13:50:36+02:00</time>
      </trkpt>
      <trkpt lat="48.141" lon="6.32346">
        <ele>352.2998</ele>
        <time>2026-05-17T13:50:37+02:00</time>
      </trkpt>
      <trkpt lat="48.141" lon="6.32346">
        <ele>352.2998</ele>
        <time>2026-05-17T13:50:38+02:00</time>
      </trkpt>
      <trkpt lat="48.141" lon="6.32346">
        <ele>352.2998</ele>
        <time>2026-05-17T13:50:39+02:00</time>
      </trkpt>
      <trkpt lat="48.141" lon="6.32346">
        <ele>352.2998</ele>
        <time>2026-05-17T13:50:40+02:00</time>
      </trkpt>
      <trkpt lat="48.141" lon="6.32346">
        <ele>352.2998</ele>
        <time>2026-05-17T13:50:41+02:00</time>
      </trkpt>
      <trkpt lat="48.141" lon="6.32346">
        <ele>352.2998</ele>
        <time>2026-05-17T13:50:42+02:00</time>
      </trkpt>
      <trkpt lat="48.14115" lon="6.32341">
        <ele>352.2998</ele>
        <time>2026-05-17T13:51:12+02:00</time>
      </trkpt>
      <trkpt lat="48.14118" lon="6.32339">
        <ele>352.4004</ele>
        <time>2026-05-17T13:51:13+02:00</time>
      </trkpt>
      <trkpt lat="48.14121" lon="6.32338">
        <ele>352.4004</ele>
        <time>2026-05-17T13:51:14+02:00</time>
      </trkpt>
      <trkpt lat="48.14125" lon="6.32336">
        <ele>352.4004</ele>
        <time>2026-05-17T13:51:15+02:00</time>
      </trkpt>
      <trkpt lat="48.14129" lon="6.32334">
        <ele>352.4004</ele>
        <time>2026-05-17T13:51:16+02:00</time>
      </trkpt>
      <trkpt lat="48.14133" lon="6.32332">
        <ele>352.5</ele>
        <time>2026-05-17T13:51:17+02:00</time>
      </trkpt>
      <trkpt lat="48.14137" lon="6.3233">
        <ele>352.6006</ele>
        <time>2026-05-17T13:51:18+02:00</time>
      </trkpt>
      <trkpt lat="48.14142" lon="6.32328">
        <ele>352.7002</ele>
        <time>2026-05-17T13:51:19+02:00</time>
      </trkpt>
      <trkpt lat="48.14146" lon="6.32325">
        <ele>352.7002</ele>
        <time>2026-05-17T13:51:20+02:00</time>
      </trkpt>
      <trkpt lat="48.1415" lon="6.32323">
        <ele>352.7002</ele>
        <time>2026-05-17T13:51:21+02:00</time>
      </trkpt>
      <trkpt lat="48.14155" lon="6.3232">
        <ele>352.7998</ele>
        <time>2026-05-17T13:51:22+02:00</time>
      </trkpt>
      <trkpt lat="48.14159" lon="6.32318">
        <ele>352.9004</ele>
        <time>2026-05-17T13:51:23+02:00</time>
      </trkpt>
      <trkpt lat="48.14164" lon="6.32316">
        <ele>353</ele>
        <time>2026-05-17T13:51:24+02:00</time>
      </trkpt>
      <trkpt lat="48.14168" lon="6.32313">
        <ele>352.9004</ele>
        <time>2026-05-17T13:51:25+02:00</time>
      </trkpt>
      <trkpt lat="48.14173" lon="6.32311">
        <ele>353</ele>
        <time>2026-05-17T13:51:26+02:00</time>
      </trkpt>
      <trkpt lat="48.14178" lon="6.32308">
        <ele>353.1006</ele>
        <time>2026-05-17T13:51:27+02:00</time>
      </trkpt>
      <trkpt lat="48.14183" lon="6.32306">
        <ele>353.2002</ele>
        <time>2026-05-17T13:51:28+02:00</time>
      </trkpt>
      <trkpt lat="48.14188" lon="6.32303">
        <ele>353.2998</ele>
        <time>2026-05-17T13:51:29+02:00</time>
      </trkpt>
      <trkpt lat="48.14192" lon="6.32301">
        <ele>353.2998</ele>
        <time>2026-05-17T13:51:30+02:00</time>
      </trkpt>
      <trkpt lat="48.14197" lon="6.32298">
        <ele>353.4004</ele>
        <time>2026-05-17T13:51:31+02:00</time>
      </trkpt>
      <trkpt lat="48.14202" lon="6.32295">
        <ele>353.5</ele>
        <time>2026-05-17T13:51:32+02:00</time>
      </trkpt>
      <trkpt lat="48.14207" lon="6.32292">
        <ele>353.7002</ele>
        <time>2026-05-17T13:51:33+02:00</time>
      </trkpt>
      <trkpt lat="48.14212" lon="6.32289">
        <ele>353.9004</ele>
        <time>2026-05-17T13:51:34+02:00</time>
      </trkpt>
      <trkpt lat="48.14218" lon="6.32287">
        <ele>353.9004</ele>
        <time>2026-05-17T13:51:35+02:00</time>
      </trkpt>
      <trkpt lat="48.14222" lon="6.32284">
        <ele>354</ele>
        <time>2026-05-17T13:51:36+02:00</time>
      </trkpt>
      <trkpt lat="48.14228" lon="6.32282">
        <ele>354.1006</ele>
        <time>2026-05-17T13:51:37+02:00</time>
      </trkpt>
      <trkpt lat="48.14233" lon="6.32279">
        <ele>354</ele>
        <time>2026-05-17T13:51:38+02:00</time>
      </trkpt>
      <trkpt lat="48.14238" lon="6.32277">
        <ele>354</ele>
        <time>2026-05-17T13:51:39+02:00</time>
      </trkpt>
      <trkpt lat="48.14243" lon="6.32274">
        <ele>354.1006</ele>
        <time>2026-05-17T13:51:40+02:00</time>
      </trkpt>
      <trkpt lat="48.14248" lon="6.32271">
        <ele>354</ele>
        <time>2026-05-17T13:51:41+02:00</time>
      </trkpt>
      <trkpt lat="48.14254" lon="6.32269">
        <ele>354.2998</ele>
        <time>2026-05-17T13:51:42+02:00</time>
      </trkpt>
      <trkpt lat="48.14259" lon="6.32266">
        <ele>354.5</ele>
        <time>2026-05-17T13:51:43+02:00</time>
      </trkpt>
      <trkpt lat="48.14264" lon="6.32263">
        <ele>354.4004</ele>
        <time>2026-05-17T13:51:44+02:00</time>
      </trkpt>
      <trkpt lat="48.14269" lon="6.3226">
        <ele>354.7002</ele>
        <time>2026-05-17T13:51:45+02:00</time>
      </trkpt>
      <trkpt lat="48.14274" lon="6.32257">
        <ele>354.9004</ele>
        <time>2026-05-17T13:51:46+02:00</time>
      </trkpt>
      <trkpt lat="48.14279" lon="6.32254">
        <ele>355</ele>
        <time>2026-05-17T13:51:47+02:00</time>
      </trkpt>
      <trkpt lat="48.14284" lon="6.32252">
        <ele>355.2998</ele>
        <time>2026-05-17T13:51:48+02:00</time>
      </trkpt>
      <trkpt lat="48.14289" lon="6.32249">
        <ele>355.2998</ele>
        <time>2026-05-17T13:51:49+02:00</time>
      </trkpt>
      <trkpt lat="48.14294" lon="6.32247">
        <ele>355.6006</ele>
        <time>2026-05-17T13:51:50+02:00</time>
      </trkpt>
      <trkpt lat="48.14299" lon="6.32244">
        <ele>355.5</ele>
        <time>2026-05-17T13:51:51+02:00</time>
      </trkpt>
      <trkpt lat="48.14304" lon="6.32242">
        <ele>355.6006</ele>
        <time>2026-05-17T13:51:52+02:00</time>
      </trkpt>
      <trkpt lat="48.14309" lon="6.32239">
        <ele>355.7998</ele>
        <time>2026-05-17T13:51:53+02:00</time>
      </trkpt>
      <trkpt lat="48.14314" lon="6.32236">
        <ele>355.2002</ele>
        <time>2026-05-17T13:51:54+02:00</time>
      </trkpt>
      <trkpt lat="48.1432" lon="6.32234">
        <ele>355.2998</ele>
        <time>2026-05-17T13:51:55+02:00</time>
      </trkpt>
      <trkpt lat="48.14325" lon="6.32232">
        <ele>355.2998</ele>
        <time>2026-05-17T13:51:56+02:00</time>
      </trkpt>
      <trkpt lat="48.1433" lon="6.32229">
        <ele>355.4004</ele>
        <time>2026-05-17T13:51:57+02:00</time>
      </trkpt>
      <trkpt lat="48.14336" lon="6.32227">
        <ele>354.9004</ele>
        <time>2026-05-17T13:51:58+02:00</time>
      </trkpt>
      <trkpt lat="48.14341" lon="6.32224">
        <ele>354.9004</ele>
        <time>2026-05-17T13:51:59+02:00</time>
      </trkpt>
      <trkpt lat="48.14346" lon="6.32222">
        <ele>355.1006</ele>
        <time>2026-05-17T13:52:00+02:00</time>
      </trkpt>
      <trkpt lat="48.14351" lon="6.32219">
        <ele>354.7002</ele>
        <time>2026-05-17T13:52:01+02:00</time>
      </trkpt>
      <trkpt lat="48.14357" lon="6.32216">
        <ele>354.9004</ele>
        <time>2026-05-17T13:52:02+02:00</time>
      </trkpt>
      <trkpt lat="48.14362" lon="6.32213">
        <ele>355.1006</ele>
        <time>2026-05-17T13:52:03+02:00</time>
      </trkpt>
      <trkpt lat="48.14367" lon="6.32211">
        <ele>354.9004</ele>
        <time>2026-05-17T13:52:04+02:00</time>
      </trkpt>
      <trkpt lat="48.1437" lon="6.32209">
        <ele>355.2002</ele>
        <time>2026-05-17T13:52:05+02:00</time>
      </trkpt>
      <trkpt lat="48.14378" lon="6.32206">
        <ele>355.4004</ele>
        <time>2026-05-17T13:52:06+02:00</time>
      </trkpt>
      <trkpt lat="48.14383" lon="6.32203">
        <ele>355.2998</ele>
        <time>2026-05-17T13:52:07+02:00</time>
      </trkpt>
      <trkpt lat="48.14388" lon="6.322">
        <ele>355.5</ele>
        <time>2026-05-17T13:52:08+02:00</time>
      </trkpt>
      <trkpt lat="48.14393" lon="6.32197">
        <ele>355.7002</ele>
        <time>2026-05-17T13:52:09+02:00</time>
      </trkpt>
      <trkpt lat="48.14399" lon="6.32195">
        <ele>355.9004</ele>
        <time>2026-05-17T13:52:10+02:00</time>
      </trkpt>
      <trkpt lat="48.14404" lon="6.32192">
        <ele>355.2998</ele>
        <time>2026-05-17T13:52:11+02:00</time>
      </trkpt>
      <trkpt lat="48.14409" lon="6.32189">
        <ele>355.2998</ele>
        <time>2026-05-17T13:52:12+02:00</time>
      </trkpt>
      <trkpt lat="48.14414" lon="6.32186">
        <ele>355.4004</ele>
        <time>2026-05-17T13:52:13+02:00</time>
      </trkpt>
      <trkpt lat="48.1442" lon="6.32184">
        <ele>354.9004</ele>
        <time>2026-05-17T13:52:14+02:00</time>
      </trkpt>
      <trkpt lat="48.14422" lon="6.32183">
        <ele>355.1006</ele>
        <time>2026-05-17T13:52:15+02:00</time>
      </trkpt>
      <trkpt lat="48.1443" lon="6.32179">
        <ele>355.4004</ele>
        <time>2026-05-17T13:52:16+02:00</time>
      </trkpt>
      <trkpt lat="48.14436" lon="6.32176">
        <ele>354.9004</ele>
        <time>2026-05-17T13:52:17+02:00</time>
      </trkpt>
      <trkpt lat="48.14441" lon="6.32173">
        <ele>355.2002</ele>
        <time>2026-05-17T13:52:18+02:00</time>
      </trkpt>
      <trkpt lat="48.14447" lon="6.3217">
        <ele>355.6006</ele>
        <time>2026-05-17T13:52:19+02:00</time>
      </trkpt>
      <trkpt lat="48.14452" lon="6.32167">
        <ele>355.4004</ele>
        <time>2026-05-17T13:52:20+02:00</time>
      </trkpt>
      <trkpt lat="48.14458" lon="6.32164">
        <ele>356.1006</ele>
        <time>2026-05-17T13:52:21+02:00</time>
      </trkpt>
      <trkpt lat="48.14463" lon="6.32161">
        <ele>356.6006</ele>
        <time>2026-05-17T13:52:22+02:00</time>
      </trkpt>
      <trkpt lat="48.14469" lon="6.32158">
        <ele>356.4004</ele>
        <time>2026-05-17T13:52:23+02:00</time>
      </trkpt>
      <trkpt lat="48.14475" lon="6.32155">
        <ele>356.6006</ele>
        <time>2026-05-17T13:52:24+02:00</time>
      </trkpt>
      <trkpt lat="48.1448" lon="6.32152">
        <ele>356.7002</ele>
        <time>2026-05-17T13:52:25+02:00</time>
      </trkpt>
      <trkpt lat="48.14483" lon="6.32151">
        <ele>355.9004</ele>
        <time>2026-05-17T13:52:26+02:00</time>
      </trkpt>
      <trkpt lat="48.14491" lon="6.32147">
        <ele>355.9004</ele>
        <time>2026-05-17T13:52:27+02:00</time>
      </trkpt>
      <trkpt lat="48.14497" lon="6.32144">
        <ele>355.9004</ele>
        <time>2026-05-17T13:52:28+02:00</time>
      </trkpt>
      <trkpt lat="48.14503" lon="6.32141">
        <ele>355.1006</ele>
        <time>2026-05-17T13:52:29+02:00</time>
      </trkpt>
      <trkpt lat="48.14509" lon="6.32138">
        <ele>355.2002</ele>
        <time>2026-05-17T13:52:30+02:00</time>
      </trkpt>
      <trkpt lat="48.14514" lon="6.32135">
        <ele>355.2998</ele>
        <time>2026-05-17T13:52:31+02:00</time>
      </trkpt>
      <trkpt lat="48.1452" lon="6.32132">
        <ele>354.5</ele>
        <time>2026-05-17T13:52:32+02:00</time>
      </trkpt>
      <trkpt lat="48.14525" lon="6.32129">
        <ele>354.7002</ele>
        <time>2026-05-17T13:52:33+02:00</time>
      </trkpt>
      <trkpt lat="48.14531" lon="6.32126">
        <ele>354.9004</ele>
        <time>2026-05-17T13:52:34+02:00</time>
      </trkpt>
      <trkpt lat="48.14537" lon="6.32122">
        <ele>354.4004</ele>
        <time>2026-05-17T13:52:35+02:00</time>
      </trkpt>
      <trkpt lat="48.14543" lon="6.32119">
        <ele>355</ele>
        <time>2026-05-17T13:52:36+02:00</time>
      </trkpt>
      <trkpt lat="48.14548" lon="6.32116">
        <ele>355.2002</ele>
        <time>2026-05-17T13:52:37+02:00</time>
      </trkpt>
      <trkpt lat="48.14554" lon="6.32114">
        <ele>355.2002</ele>
        <time>2026-05-17T13:52:38+02:00</time>
      </trkpt>
      <trkpt lat="48.1456" lon="6.32111">
        <ele>355.2002</ele>
        <time>2026-05-17T13:52:39+02:00</time>
      </trkpt>
      <trkpt lat="48.14565" lon="6.32108">
        <ele>354.6006</ele>
        <time>2026-05-17T13:52:40+02:00</time>
      </trkpt>
      <trkpt lat="48.14571" lon="6.32105">
        <ele>354.5</ele>
        <time>2026-05-17T13:52:41+02:00</time>
      </trkpt>
      <trkpt lat="48.14577" lon="6.32103">
        <ele>354.5</ele>
        <time>2026-05-17T13:52:42+02:00</time>
      </trkpt>
      <trkpt lat="48.14583" lon="6.321">
        <ele>353.9004</ele>
        <time>2026-05-17T13:52:43+02:00</time>
      </trkpt>
      <trkpt lat="48.14588" lon="6.32097">
        <ele>353.9004</ele>
        <time>2026-05-17T13:52:44+02:00</time>
      </trkpt>
      <trkpt lat="48.14594" lon="6.32095">
        <ele>353.9004</ele>
        <time>2026-05-17T13:52:45+02:00</time>
      </trkpt>
      <trkpt lat="48.14599" lon="6.32092">
        <ele>353.9004</ele>
        <time>2026-05-17T13:52:46+02:00</time>
      </trkpt>
      <trkpt lat="48.14605" lon="6.32089">
        <ele>353.5</ele>
        <time>2026-05-17T13:52:47+02:00</time>
      </trkpt>
      <trkpt lat="48.1461" lon="6.32087">
        <ele>353.5</ele>
        <time>2026-05-17T13:52:48+02:00</time>
      </trkpt>
      <trkpt lat="48.14613" lon="6.32085">
        <ele>353.5</ele>
        <time>2026-05-17T13:52:49+02:00</time>
      </trkpt>
      <trkpt lat="48.14621" lon="6.32081">
        <ele>353.1006</ele>
        <time>2026-05-17T13:52:50+02:00</time>
      </trkpt>
      <trkpt lat="48.14627" lon="6.32079">
        <ele>353.2998</ele>
        <time>2026-05-17T13:52:51+02:00</time>
      </trkpt>
      <trkpt lat="48.14633" lon="6.32076">
        <ele>353.7998</ele>
        <time>2026-05-17T13:52:52+02:00</time>
      </trkpt>
      <trkpt lat="48.14639" lon="6.32073">
        <ele>353.7002</ele>
        <time>2026-05-17T13:52:53+02:00</time>
      </trkpt>
      <trkpt lat="48.14645" lon="6.3207">
        <ele>353.7998</ele>
        <time>2026-05-17T13:52:54+02:00</time>
      </trkpt>
      <trkpt lat="48.1465" lon="6.32068">
        <ele>353.7998</ele>
        <time>2026-05-17T13:52:55+02:00</time>
      </trkpt>
      <trkpt lat="48.14656" lon="6.32065">
        <ele>353.4004</ele>
        <time>2026-05-17T13:52:56+02:00</time>
      </trkpt>
      <trkpt lat="48.14662" lon="6.32062">
        <ele>353.4004</ele>
        <time>2026-05-17T13:52:57+02:00</time>
      </trkpt>
      <trkpt lat="48.14668" lon="6.32059">
        <ele>353.4004</ele>
        <time>2026-05-17T13:52:58+02:00</time>
      </trkpt>
      <trkpt lat="48.14674" lon="6.32056">
        <ele>353.1006</ele>
        <time>2026-05-17T13:52:59+02:00</time>
      </trkpt>
      <trkpt lat="48.14679" lon="6.32053">
        <ele>353.1006</ele>
        <time>2026-05-17T13:53:00+02:00</time>
      </trkpt>
      <trkpt lat="48.14686" lon="6.32051">
        <ele>353.1006</ele>
        <time>2026-05-17T13:53:01+02:00</time>
      </trkpt>
      <trkpt lat="48.14691" lon="6.32047">
        <ele>352.9004</ele>
        <time>2026-05-17T13:53:02+02:00</time>
      </trkpt>
      <trkpt lat="48.14697" lon="6.32044">
        <ele>353</ele>
        <time>2026-05-17T13:53:03+02:00</time>
      </trkpt>
      <trkpt lat="48.14703" lon="6.32041">
        <ele>353</ele>
        <time>2026-05-17T13:53:04+02:00</time>
      </trkpt>
      <trkpt lat="48.14709" lon="6.32038">
        <ele>352.9004</ele>
        <time>2026-05-17T13:53:05+02:00</time>
      </trkpt>
      <trkpt lat="48.14715" lon="6.32035">
        <ele>352.7998</ele>
        <time>2026-05-17T13:53:06+02:00</time>
      </trkpt>
      <trkpt lat="48.1472" lon="6.32032">
        <ele>352.7998</ele>
        <time>2026-05-17T13:53:07+02:00</time>
      </trkpt>
      <trkpt lat="48.14726" lon="6.32029">
        <ele>352.7998</ele>
        <time>2026-05-17T13:53:08+02:00</time>
      </trkpt>
      <trkpt lat="48.14732" lon="6.32026">
        <ele>352.7998</ele>
        <time>2026-05-17T13:53:09+02:00</time>
      </trkpt>
      <trkpt lat="48.14737" lon="6.32023">
        <ele>352.7998</ele>
        <time>2026-05-17T13:53:10+02:00</time>
      </trkpt>
      <trkpt lat="48.14743" lon="6.3202">
        <ele>352.7002</ele>
        <time>2026-05-17T13:53:11+02:00</time>
      </trkpt>
      <trkpt lat="48.14749" lon="6.32017">
        <ele>352.7998</ele>
        <time>2026-05-17T13:53:12+02:00</time>
      </trkpt>
      <trkpt lat="48.14755" lon="6.32014">
        <ele>352.7998</ele>
        <time>2026-05-17T13:53:13+02:00</time>
      </trkpt>
      <trkpt lat="48.1476" lon="6.32012">
        <ele>352.7998</ele>
        <time>2026-05-17T13:53:14+02:00</time>
      </trkpt>
      <trkpt lat="48.14766" lon="6.32009">
        <ele>352.9004</ele>
        <time>2026-05-17T13:53:15+02:00</time>
      </trkpt>
      <trkpt lat="48.14772" lon="6.32006">
        <ele>353</ele>
        <time>2026-05-17T13:53:16+02:00</time>
      </trkpt>
      <trkpt lat="48.14778" lon="6.32003">
        <ele>353</ele>
        <time>2026-05-17T13:53:17+02:00</time>
      </trkpt>
      <trkpt lat="48.14784" lon="6.32">
        <ele>353.1006</ele>
        <time>2026-05-17T13:53:18+02:00</time>
      </trkpt>
      <trkpt lat="48.14789" lon="6.31997">
        <ele>353.1006</ele>
        <time>2026-05-17T13:53:19+02:00</time>
      </trkpt>
      <trkpt lat="48.14795" lon="6.31995">
        <ele>353.2002</ele>
        <time>2026-05-17T13:53:20+02:00</time>
      </trkpt>
      <trkpt lat="48.14801" lon="6.31992">
        <ele>353.2998</ele>
        <time>2026-05-17T13:53:21+02:00</time>
      </trkpt>
      <trkpt lat="48.14807" lon="6.31989">
        <ele>353.4004</ele>
        <time>2026-05-17T13:53:22+02:00</time>
      </trkpt>
      <trkpt lat="48.14813" lon="6.31986">
        <ele>353.4004</ele>
        <time>2026-05-17T13:53:23+02:00</time>
      </trkpt>
      <trkpt lat="48.14819" lon="6.31983">
        <ele>353.5</ele>
        <time>2026-05-17T13:53:24+02:00</time>
      </trkpt>
      <trkpt lat="48.14824" lon="6.3198">
        <ele>353.6006</ele>
        <time>2026-05-17T13:53:25+02:00</time>
      </trkpt>
      <trkpt lat="48.1483" lon="6.31977">
        <ele>353.5</ele>
        <time>2026-05-17T13:53:26+02:00</time>
      </trkpt>
      <trkpt lat="48.14836" lon="6.31974">
        <ele>353.6006</ele>
        <time>2026-05-17T13:53:27+02:00</time>
      </trkpt>
      <trkpt lat="48.14842" lon="6.3197">
        <ele>353.6006</ele>
        <time>2026-05-17T13:53:28+02:00</time>
      </trkpt>
      <trkpt lat="48.14847" lon="6.31966">
        <ele>353.7002</ele>
        <time>2026-05-17T13:53:29+02:00</time>
      </trkpt>
      <trkpt lat="48.14853" lon="6.31963">
        <ele>353.7998</ele>
        <time>2026-05-17T13:53:30+02:00</time>
      </trkpt>
      <trkpt lat="48.14859" lon="6.31959">
        <ele>353.7002</ele>
        <time>2026-05-17T13:53:31+02:00</time>
      </trkpt>
      <trkpt lat="48.14864" lon="6.31955">
        <ele>353.7998</ele>
        <time>2026-05-17T13:53:32+02:00</time>
      </trkpt>
      <trkpt lat="48.1487" lon="6.31951">
        <ele>353.7002</ele>
        <time>2026-05-17T13:53:33+02:00</time>
      </trkpt>
      <trkpt lat="48.14876" lon="6.31947">
        <ele>353.7002</ele>
        <time>2026-05-17T13:53:34+02:00</time>
      </trkpt>
      <trkpt lat="48.14881" lon="6.31943">
        <ele>353.6006</ele>
        <time>2026-05-17T13:53:35+02:00</time>
      </trkpt>
      <trkpt lat="48.14886" lon="6.31938">
        <ele>353.6006</ele>
        <time>2026-05-17T13:53:36+02:00</time>
      </trkpt>
      <trkpt lat="48.14892" lon="6.31934">
        <ele>353.6006</ele>
        <time>2026-05-17T13:53:37+02:00</time>
      </trkpt>
      <trkpt lat="48.14897" lon="6.31928">
        <ele>353.5</ele>
        <time>2026-05-17T13:53:38+02:00</time>
      </trkpt>
      <trkpt lat="48.14901" lon="6.31923">
        <ele>353.5</ele>
        <time>2026-05-17T13:53:39+02:00</time>
      </trkpt>
      <trkpt lat="48.14906" lon="6.31918">
        <ele>353.4004</ele>
        <time>2026-05-17T13:53:40+02:00</time>
      </trkpt>
      <trkpt lat="48.14911" lon="6.31913">
        <ele>353.5</ele>
        <time>2026-05-17T13:53:41+02:00</time>
      </trkpt>
      <trkpt lat="48.14916" lon="6.31908">
        <ele>353.4004</ele>
        <time>2026-05-17T13:53:42+02:00</time>
      </trkpt>
      <trkpt lat="48.14921" lon="6.31902">
        <ele>353.4004</ele>
        <time>2026-05-17T13:53:43+02:00</time>
      </trkpt>
      <trkpt lat="48.14926" lon="6.31897">
        <ele>353.4004</ele>
        <time>2026-05-17T13:53:44+02:00</time>
      </trkpt>
      <trkpt lat="48.14931" lon="6.31892">
        <ele>353.4004</ele>
        <time>2026-05-17T13:53:45+02:00</time>
      </trkpt>
      <trkpt lat="48.14935" lon="6.31886">
        <ele>353.4004</ele>
        <time>2026-05-17T13:53:46+02:00</time>
      </trkpt>
      <trkpt lat="48.1494" lon="6.31881">
        <ele>353.4004</ele>
        <time>2026-05-17T13:53:47+02:00</time>
      </trkpt>
      <trkpt lat="48.14943" lon="6.31875">
        <ele>353.4004</ele>
        <time>2026-05-17T13:53:48+02:00</time>
      </trkpt>
      <trkpt lat="48.14947" lon="6.3187">
        <ele>353.4004</ele>
        <time>2026-05-17T13:53:49+02:00</time>
      </trkpt>
      <trkpt lat="48.1495" lon="6.31865">
        <ele>353.4004</ele>
        <time>2026-05-17T13:53:50+02:00</time>
      </trkpt>
      <trkpt lat="48.14953" lon="6.31861">
        <ele>353.4004</ele>
        <time>2026-05-17T13:53:51+02:00</time>
      </trkpt>
      <trkpt lat="48.14956" lon="6.31856">
        <ele>353.4004</ele>
        <time>2026-05-17T13:53:52+02:00</time>
      </trkpt>
      <trkpt lat="48.14959" lon="6.31852">
        <ele>353.4004</ele>
        <time>2026-05-17T13:53:53+02:00</time>
      </trkpt>
      <trkpt lat="48.14962" lon="6.31847">
        <ele>353.5</ele>
        <time>2026-05-17T13:53:54+02:00</time>
      </trkpt>
      <trkpt lat="48.14966" lon="6.31843">
        <ele>353.6006</ele>
        <time>2026-05-17T13:53:55+02:00</time>
      </trkpt>
      <trkpt lat="48.1497" lon="6.31838">
        <ele>353.5</ele>
        <time>2026-05-17T13:53:56+02:00</time>
      </trkpt>
      <trkpt lat="48.14974" lon="6.31834">
        <ele>353.6006</ele>
        <time>2026-05-17T13:53:57+02:00</time>
      </trkpt>
      <trkpt lat="48.14977" lon="6.31829">
        <ele>353.7002</ele>
        <time>2026-05-17T13:53:58+02:00</time>
      </trkpt>
      <trkpt lat="48.14981" lon="6.31825">
        <ele>353.6006</ele>
        <time>2026-05-17T13:53:59+02:00</time>
      </trkpt>
      <trkpt lat="48.14985" lon="6.31821">
        <ele>353.6006</ele>
        <time>2026-05-17T13:54:00+02:00</time>
      </trkpt>
      <trkpt lat="48.1499" lon="6.31816">
        <ele>353.6006</ele>
        <time>2026-05-17T13:54:01+02:00</time>
      </trkpt>
      <trkpt lat="48.14994" lon="6.31812">
        <ele>353.7998</ele>
        <time>2026-05-17T13:54:02+02:00</time>
      </trkpt>
      <trkpt lat="48.14998" lon="6.31807">
        <ele>353.7002</ele>
        <time>2026-05-17T13:54:03+02:00</time>
      </trkpt>
      <trkpt lat="48.15003" lon="6.31802">
        <ele>353.7998</ele>
        <time>2026-05-17T13:54:04+02:00</time>
      </trkpt>
      <trkpt lat="48.15007" lon="6.31798">
        <ele>353.9004</ele>
        <time>2026-05-17T13:54:05+02:00</time>
      </trkpt>
      <trkpt lat="48.15011" lon="6.31793">
        <ele>353.9004</ele>
        <time>2026-05-17T13:54:06+02:00</time>
      </trkpt>
      <trkpt lat="48.15015" lon="6.31788">
        <ele>353.9004</ele>
        <time>2026-05-17T13:54:07+02:00</time>
      </trkpt>
      <trkpt lat="48.1502" lon="6.31782">
        <ele>354</ele>
        <time>2026-05-17T13:54:08+02:00</time>
      </trkpt>
      <trkpt lat="48.15024" lon="6.31777">
        <ele>354.2002</ele>
        <time>2026-05-17T13:54:09+02:00</time>
      </trkpt>
      <trkpt lat="48.15029" lon="6.31772">
        <ele>354.2998</ele>
        <time>2026-05-17T13:54:10+02:00</time>
      </trkpt>
      <trkpt lat="48.15033" lon="6.31766">
        <ele>354.2998</ele>
        <time>2026-05-17T13:54:11+02:00</time>
      </trkpt>
      <trkpt lat="48.15037" lon="6.31761">
        <ele>354.4004</ele>
        <time>2026-05-17T13:54:12+02:00</time>
      </trkpt>
      <trkpt lat="48.15041" lon="6.31755">
        <ele>354.4004</ele>
        <time>2026-05-17T13:54:13+02:00</time>
      </trkpt>
      <trkpt lat="48.15046" lon="6.3175">
        <ele>354.7002</ele>
        <time>2026-05-17T13:54:14+02:00</time>
      </trkpt>
      <trkpt lat="48.1505" lon="6.31744">
        <ele>354.5</ele>
        <time>2026-05-17T13:54:15+02:00</time>
      </trkpt>
      <trkpt lat="48.15054" lon="6.31737">
        <ele>354.6006</ele>
        <time>2026-05-17T13:54:16+02:00</time>
      </trkpt>
      <trkpt lat="48.15058" lon="6.31731">
        <ele>354.6006</ele>
        <time>2026-05-17T13:54:17+02:00</time>
      </trkpt>
      <trkpt lat="48.15062" lon="6.31724">
        <ele>354.6006</ele>
        <time>2026-05-17T13:54:18+02:00</time>
      </trkpt>
      <trkpt lat="48.15066" lon="6.31718">
        <ele>354.6006</ele>
        <time>2026-05-17T13:54:19+02:00</time>
      </trkpt>
      <trkpt lat="48.1507" lon="6.31711">
        <ele>354.6006</ele>
        <time>2026-05-17T13:54:20+02:00</time>
      </trkpt>
      <trkpt lat="48.15074" lon="6.31704">
        <ele>354.7002</ele>
        <time>2026-05-17T13:54:21+02:00</time>
      </trkpt>
      <trkpt lat="48.15078" lon="6.31698">
        <ele>354.7002</ele>
        <time>2026-05-17T13:54:22+02:00</time>
      </trkpt>
      <trkpt lat="48.15082" lon="6.31691">
        <ele>354.7998</ele>
        <time>2026-05-17T13:54:23+02:00</time>
      </trkpt>
      <trkpt lat="48.15086" lon="6.31684">
        <ele>354.7998</ele>
        <time>2026-05-17T13:54:24+02:00</time>
      </trkpt>
      <trkpt lat="48.1509" lon="6.31677">
        <ele>354.5</ele>
        <time>2026-05-17T13:54:25+02:00</time>
      </trkpt>
      <trkpt lat="48.15093" lon="6.31669">
        <ele>354.6006</ele>
        <time>2026-05-17T13:54:26+02:00</time>
      </trkpt>
      <trkpt lat="48.15097" lon="6.31662">
        <ele>354.7002</ele>
        <time>2026-05-17T13:54:27+02:00</time>
      </trkpt>
      <trkpt lat="48.15101" lon="6.31655">
        <ele>354.7002</ele>
        <time>2026-05-17T13:54:28+02:00</time>
      </trkpt>
      <trkpt lat="48.15104" lon="6.31647">
        <ele>354.7998</ele>
        <time>2026-05-17T13:54:29+02:00</time>
      </trkpt>
      <trkpt lat="48.15108" lon="6.3164">
        <ele>354.4004</ele>
        <time>2026-05-17T13:54:30+02:00</time>
      </trkpt>
      <trkpt lat="48.15111" lon="6.31633">
        <ele>354.5</ele>
        <time>2026-05-17T13:54:31+02:00</time>
      </trkpt>
      <trkpt lat="48.15115" lon="6.31626">
        <ele>354.7002</ele>
        <time>2026-05-17T13:54:32+02:00</time>
      </trkpt>
      <trkpt lat="48.15118" lon="6.31618">
        <ele>354.2998</ele>
        <time>2026-05-17T13:54:33+02:00</time>
      </trkpt>
      <trkpt lat="48.15122" lon="6.31611">
        <ele>354.7002</ele>
        <time>2026-05-17T13:54:34+02:00</time>
      </trkpt>
      <trkpt lat="48.15125" lon="6.31604">
        <ele>354.2998</ele>
        <time>2026-05-17T13:54:35+02:00</time>
      </trkpt>
      <trkpt lat="48.15129" lon="6.31597">
        <ele>354.2998</ele>
        <time>2026-05-17T13:54:36+02:00</time>
      </trkpt>
      <trkpt lat="48.15132" lon="6.31589">
        <ele>354.5</ele>
        <time>2026-05-17T13:54:37+02:00</time>
      </trkpt>
      <trkpt lat="48.15136" lon="6.31582">
        <ele>354.2002</ele>
        <time>2026-05-17T13:54:38+02:00</time>
      </trkpt>
      <trkpt lat="48.15139" lon="6.31575">
        <ele>354.1006</ele>
        <time>2026-05-17T13:54:39+02:00</time>
      </trkpt>
      <trkpt lat="48.15143" lon="6.31568">
        <ele>354.5</ele>
        <time>2026-05-17T13:54:40+02:00</time>
      </trkpt>
      <trkpt lat="48.15146" lon="6.31561">
        <ele>354.1006</ele>
        <time>2026-05-17T13:54:41+02:00</time>
      </trkpt>
      <trkpt lat="48.15149" lon="6.31554">
        <ele>354.4004</ele>
        <time>2026-05-17T13:54:42+02:00</time>
      </trkpt>
      <trkpt lat="48.15152" lon="6.31547">
        <ele>354.1006</ele>
        <time>2026-05-17T13:54:43+02:00</time>
      </trkpt>
      <trkpt lat="48.15156" lon="6.31539">
        <ele>354.9004</ele>
        <time>2026-05-17T13:54:44+02:00</time>
      </trkpt>
      <trkpt lat="48.15159" lon="6.31532">
        <ele>355</ele>
        <time>2026-05-17T13:54:45+02:00</time>
      </trkpt>
      <trkpt lat="48.15162" lon="6.31525">
        <ele>355.5</ele>
        <time>2026-05-17T13:54:46+02:00</time>
      </trkpt>
      <trkpt lat="48.15166" lon="6.31518">
        <ele>355.6006</ele>
        <time>2026-05-17T13:54:47+02:00</time>
      </trkpt>
      <trkpt lat="48.15169" lon="6.31511">
        <ele>355.2998</ele>
        <time>2026-05-17T13:54:48+02:00</time>
      </trkpt>
      <trkpt lat="48.15173" lon="6.31503">
        <ele>355.1006</ele>
        <time>2026-05-17T13:54:49+02:00</time>
      </trkpt>
      <trkpt lat="48.15177" lon="6.31496">
        <ele>354.7998</ele>
        <time>2026-05-17T13:54:50+02:00</time>
      </trkpt>
      <trkpt lat="48.1518" lon="6.31489">
        <ele>355.5</ele>
        <time>2026-05-17T13:54:51+02:00</time>
      </trkpt>
      <trkpt lat="48.15184" lon="6.31482">
        <ele>355.4004</ele>
        <time>2026-05-17T13:54:52+02:00</time>
      </trkpt>
      <trkpt lat="48.15187" lon="6.31475">
        <ele>355.4004</ele>
        <time>2026-05-17T13:54:53+02:00</time>
      </trkpt>
      <trkpt lat="48.15191" lon="6.31468">
        <ele>354.9004</ele>
        <time>2026-05-17T13:54:54+02:00</time>
      </trkpt>
      <trkpt lat="48.15194" lon="6.3146">
        <ele>354.1006</ele>
        <time>2026-05-17T13:54:55+02:00</time>
      </trkpt>
      <trkpt lat="48.15197" lon="6.31453">
        <ele>354.2002</ele>
        <time>2026-05-17T13:54:56+02:00</time>
      </trkpt>
      <trkpt lat="48.15201" lon="6.31446">
        <ele>354.4004</ele>
        <time>2026-05-17T13:54:57+02:00</time>
      </trkpt>
      <trkpt lat="48.15204" lon="6.31439">
        <ele>354.1006</ele>
        <time>2026-05-17T13:54:58+02:00</time>
      </trkpt>
      <trkpt lat="48.15207" lon="6.31432">
        <ele>354.2998</ele>
        <time>2026-05-17T13:54:59+02:00</time>
      </trkpt>
      <trkpt lat="48.15211" lon="6.31425">
        <ele>354</ele>
        <time>2026-05-17T13:55:00+02:00</time>
      </trkpt>
      <trkpt lat="48.15214" lon="6.31418">
        <ele>354.2002</ele>
        <time>2026-05-17T13:55:01+02:00</time>
      </trkpt>
      <trkpt lat="48.15217" lon="6.31412">
        <ele>354</ele>
        <time>2026-05-17T13:55:02+02:00</time>
      </trkpt>
      <trkpt lat="48.15221" lon="6.31405">
        <ele>354.5</ele>
        <time>2026-05-17T13:55:03+02:00</time>
      </trkpt>
      <trkpt lat="48.15224" lon="6.31398">
        <ele>354.9004</ele>
        <time>2026-05-17T13:55:04+02:00</time>
      </trkpt>
      <trkpt lat="48.15227" lon="6.31391">
        <ele>355.1006</ele>
        <time>2026-05-17T13:55:05+02:00</time>
      </trkpt>
      <trkpt lat="48.1523" lon="6.31384">
        <ele>355</ele>
        <time>2026-05-17T13:55:06+02:00</time>
      </trkpt>
      <trkpt lat="48.15233" lon="6.31377">
        <ele>354.9004</ele>
        <time>2026-05-17T13:55:07+02:00</time>
      </trkpt>
      <trkpt lat="48.15236" lon="6.31371">
        <ele>355</ele>
        <time>2026-05-17T13:55:08+02:00</time>
      </trkpt>
      <trkpt lat="48.15239" lon="6.31364">
        <ele>354.7002</ele>
        <time>2026-05-17T13:55:09+02:00</time>
      </trkpt>
      <trkpt lat="48.15243" lon="6.31358">
        <ele>354.9004</ele>
        <time>2026-05-17T13:55:10+02:00</time>
      </trkpt>
      <trkpt lat="48.15255" lon="6.3133">
        <ele>354.6006</ele>
        <time>2026-05-17T13:55:11+02:00</time>
      </trkpt>
      <trkpt lat="48.15258" lon="6.31323">
        <ele>354.2998</ele>
        <time>2026-05-17T13:55:12+02:00</time>
      </trkpt>
      <trkpt lat="48.15262" lon="6.31316">
        <ele>353.9004</ele>
        <time>2026-05-17T13:55:13+02:00</time>
      </trkpt>
      <trkpt lat="48.15265" lon="6.31309">
        <ele>354.2002</ele>
        <time>2026-05-17T13:55:14+02:00</time>
      </trkpt>
      <trkpt lat="48.15268" lon="6.31302">
        <ele>354.2002</ele>
        <time>2026-05-17T13:55:15+02:00</time>
      </trkpt>
      <trkpt lat="48.15271" lon="6.31295">
        <ele>354.1006</ele>
        <time>2026-05-17T13:55:16+02:00</time>
      </trkpt>
      <trkpt lat="48.15275" lon="6.31288">
        <ele>354.2002</ele>
        <time>2026-05-17T13:55:17+02:00</time>
      </trkpt>
      <trkpt lat="48.15279" lon="6.31281">
        <ele>354.1006</ele>
        <time>2026-05-17T13:55:18+02:00</time>
      </trkpt>
      <trkpt lat="48.15283" lon="6.31275">
        <ele>354.5</ele>
        <time>2026-05-17T13:55:19+02:00</time>
      </trkpt>
      <trkpt lat="48.15286" lon="6.31268">
        <ele>354.5</ele>
        <time>2026-05-17T13:55:20+02:00</time>
      </trkpt>
      <trkpt lat="48.1529" lon="6.31261">
        <ele>354.9004</ele>
        <time>2026-05-17T13:55:21+02:00</time>
      </trkpt>
      <trkpt lat="48.15293" lon="6.31255">
        <ele>355</ele>
        <time>2026-05-17T13:55:22+02:00</time>
      </trkpt>
      <trkpt lat="48.15296" lon="6.31249">
        <ele>355</ele>
        <time>2026-05-17T13:55:23+02:00</time>
      </trkpt>
      <trkpt lat="48.15298" lon="6.31244">
        <ele>355</ele>
        <time>2026-05-17T13:55:24+02:00</time>
      </trkpt>
      <trkpt lat="48.153" lon="6.3124">
        <ele>355</ele>
        <time>2026-05-17T13:55:25+02:00</time>
      </trkpt>
      <trkpt lat="48.15302" lon="6.31237">
        <ele>355</ele>
        <time>2026-05-17T13:55:26+02:00</time>
      </trkpt>
      <trkpt lat="48.15304" lon="6.31234">
        <ele>355.1006</ele>
        <time>2026-05-17T13:55:27+02:00</time>
      </trkpt>
      <trkpt lat="48.15305" lon="6.31231">
        <ele>355.2002</ele>
        <time>2026-05-17T13:55:28+02:00</time>
      </trkpt>
      <trkpt lat="48.15306" lon="6.31226">
        <ele>355.2002</ele>
        <time>2026-05-17T13:55:29+02:00</time>
      </trkpt>
      <trkpt lat="48.15307" lon="6.31221">
        <ele>355.1006</ele>
        <time>2026-05-17T13:55:30+02:00</time>
      </trkpt>
      <trkpt lat="48.15308" lon="6.31215">
        <ele>355.1006</ele>
        <time>2026-05-17T13:55:31+02:00</time>
      </trkpt>
      <trkpt lat="48.1531" lon="6.31209">
        <ele>355.4004</ele>
        <time>2026-05-17T13:55:32+02:00</time>
      </trkpt>
      <trkpt lat="48.15312" lon="6.31203">
        <ele>355.2002</ele>
        <time>2026-05-17T13:55:33+02:00</time>
      </trkpt>
      <trkpt lat="48.15314" lon="6.31198">
        <ele>354.7002</ele>
        <time>2026-05-17T13:55:34+02:00</time>
      </trkpt>
      <trkpt lat="48.15317" lon="6.31192">
        <ele>355</ele>
        <time>2026-05-17T13:55:35+02:00</time>
      </trkpt>
      <trkpt lat="48.1532" lon="6.31187">
        <ele>354.2002</ele>
        <time>2026-05-17T13:55:36+02:00</time>
      </trkpt>
      <trkpt lat="48.15322" lon="6.31181">
        <ele>354.9004</ele>
        <time>2026-05-17T13:55:37+02:00</time>
      </trkpt>
      <trkpt lat="48.15326" lon="6.31175">
        <ele>354.9004</ele>
        <time>2026-05-17T13:55:38+02:00</time>
      </trkpt>
      <trkpt lat="48.15329" lon="6.3117">
        <ele>355.4004</ele>
        <time>2026-05-17T13:55:39+02:00</time>
      </trkpt>
      <trkpt lat="48.15332" lon="6.31164">
        <ele>355.2002</ele>
        <time>2026-05-17T13:55:40+02:00</time>
      </trkpt>
      <trkpt lat="48.15336" lon="6.31158">
        <ele>355.2002</ele>
        <time>2026-05-17T13:55:41+02:00</time>
      </trkpt>
      <trkpt lat="48.15339" lon="6.31152">
        <ele>355</ele>
        <time>2026-05-17T13:55:42+02:00</time>
      </trkpt>
      <trkpt lat="48.15342" lon="6.31146">
        <ele>354.2998</ele>
        <time>2026-05-17T13:55:43+02:00</time>
      </trkpt>
      <trkpt lat="48.15345" lon="6.31139">
        <ele>355</ele>
        <time>2026-05-17T13:55:44+02:00</time>
      </trkpt>
      <trkpt lat="48.15348" lon="6.31132">
        <ele>354.7998</ele>
        <time>2026-05-17T13:55:45+02:00</time>
      </trkpt>
      <trkpt lat="48.15351" lon="6.31126">
        <ele>354.9004</ele>
        <time>2026-05-17T13:55:46+02:00</time>
      </trkpt>
      <trkpt lat="48.15355" lon="6.31119">
        <ele>354.9004</ele>
        <time>2026-05-17T13:55:47+02:00</time>
      </trkpt>
      <trkpt lat="48.15358" lon="6.31112">
        <ele>354.5</ele>
        <time>2026-05-17T13:55:48+02:00</time>
      </trkpt>
      <trkpt lat="48.15362" lon="6.31105">
        <ele>355.2002</ele>
        <time>2026-05-17T13:55:49+02:00</time>
      </trkpt>
      <trkpt lat="48.15366" lon="6.31099">
        <ele>354.7998</ele>
        <time>2026-05-17T13:55:50+02:00</time>
      </trkpt>
      <trkpt lat="48.15369" lon="6.31092">
        <ele>354.9004</ele>
        <time>2026-05-17T13:55:51+02:00</time>
      </trkpt>
      <trkpt lat="48.15373" lon="6.31085">
        <ele>354.7998</ele>
        <time>2026-05-17T13:55:52+02:00</time>
      </trkpt>
      <trkpt lat="48.15376" lon="6.31078">
        <ele>354.1006</ele>
        <time>2026-05-17T13:55:53+02:00</time>
      </trkpt>
      <trkpt lat="48.1538" lon="6.31072">
        <ele>354.9004</ele>
        <time>2026-05-17T13:55:54+02:00</time>
      </trkpt>
      <trkpt lat="48.15384" lon="6.31066">
        <ele>355.2998</ele>
        <time>2026-05-17T13:55:55+02:00</time>
      </trkpt>
      <trkpt lat="48.15388" lon="6.31059">
        <ele>354.7002</ele>
        <time>2026-05-17T13:55:56+02:00</time>
      </trkpt>
      <trkpt lat="48.1539" lon="6.31056">
        <ele>355.4004</ele>
        <time>2026-05-17T13:55:57+02:00</time>
      </trkpt>
      <trkpt lat="48.15396" lon="6.31046">
        <ele>355.2002</ele>
        <time>2026-05-17T13:55:58+02:00</time>
      </trkpt>
      <trkpt lat="48.15401" lon="6.3104">
        <ele>355.2998</ele>
        <time>2026-05-17T13:55:59+02:00</time>
      </trkpt>
      <trkpt lat="48.15405" lon="6.31034">
        <ele>354.7002</ele>
        <time>2026-05-17T13:56:00+02:00</time>
      </trkpt>
      <trkpt lat="48.1541" lon="6.31029">
        <ele>355.7002</ele>
        <time>2026-05-17T13:56:01+02:00</time>
      </trkpt>
      <trkpt lat="48.15415" lon="6.31023">
        <ele>355.7002</ele>
        <time>2026-05-17T13:56:02+02:00</time>
      </trkpt>
      <trkpt lat="48.15419" lon="6.31017">
        <ele>355.5</ele>
        <time>2026-05-17T13:56:03+02:00</time>
      </trkpt>
      <trkpt lat="48.15424" lon="6.31012">
        <ele>356.2998</ele>
        <time>2026-05-17T13:56:04+02:00</time>
      </trkpt>
      <trkpt lat="48.15428" lon="6.31006">
        <ele>355.7002</ele>
        <time>2026-05-17T13:56:05+02:00</time>
      </trkpt>
      <trkpt lat="48.15433" lon="6.31001">
        <ele>356</ele>
        <time>2026-05-17T13:56:06+02:00</time>
      </trkpt>
      <trkpt lat="48.15438" lon="6.30996">
        <ele>356.7998</ele>
        <time>2026-05-17T13:56:07+02:00</time>
      </trkpt>
      <trkpt lat="48.15443" lon="6.30991">
        <ele>356.7002</ele>
        <time>2026-05-17T13:56:08+02:00</time>
      </trkpt>
      <trkpt lat="48.15448" lon="6.30986">
        <ele>357.2998</ele>
        <time>2026-05-17T13:56:09+02:00</time>
      </trkpt>
      <trkpt lat="48.15453" lon="6.30981">
        <ele>357.5</ele>
        <time>2026-05-17T13:56:10+02:00</time>
      </trkpt>
      <trkpt lat="48.15458" lon="6.30977">
        <ele>358.1006</ele>
        <time>2026-05-17T13:56:11+02:00</time>
      </trkpt>
      <trkpt lat="48.15464" lon="6.30972">
        <ele>358</ele>
        <time>2026-05-17T13:56:12+02:00</time>
      </trkpt>
      <trkpt lat="48.15469" lon="6.30968">
        <ele>358</ele>
        <time>2026-05-17T13:56:13+02:00</time>
      </trkpt>
      <trkpt lat="48.15474" lon="6.30964">
        <ele>357.5</ele>
        <time>2026-05-17T13:56:14+02:00</time>
      </trkpt>
      <trkpt lat="48.1548" lon="6.30959">
        <ele>357.7002</ele>
        <time>2026-05-17T13:56:15+02:00</time>
      </trkpt>
      <trkpt lat="48.15485" lon="6.30955">
        <ele>357</ele>
        <time>2026-05-17T13:56:16+02:00</time>
      </trkpt>
      <trkpt lat="48.1549" lon="6.30951">
        <ele>357.2998</ele>
        <time>2026-05-17T13:56:17+02:00</time>
      </trkpt>
      <trkpt lat="48.15496" lon="6.30948">
        <ele>356.7002</ele>
        <time>2026-05-17T13:56:18+02:00</time>
      </trkpt>
      <trkpt lat="48.15498" lon="6.30946">
        <ele>357.1006</ele>
        <time>2026-05-17T13:56:19+02:00</time>
      </trkpt>
      <trkpt lat="48.15506" lon="6.30941">
        <ele>356.9004</ele>
        <time>2026-05-17T13:56:20+02:00</time>
      </trkpt>
      <trkpt lat="48.15512" lon="6.30937">
        <ele>357.1006</ele>
        <time>2026-05-17T13:56:21+02:00</time>
      </trkpt>
      <trkpt lat="48.15518" lon="6.30934">
        <ele>357.2998</ele>
        <time>2026-05-17T13:56:22+02:00</time>
      </trkpt>
      <trkpt lat="48.15523" lon="6.30931">
        <ele>356.5</ele>
        <time>2026-05-17T13:56:23+02:00</time>
      </trkpt>
      <trkpt lat="48.15528" lon="6.30928">
        <ele>356.4004</ele>
        <time>2026-05-17T13:56:24+02:00</time>
      </trkpt>
      <trkpt lat="48.15534" lon="6.30925">
        <ele>356.2998</ele>
        <time>2026-05-17T13:56:25+02:00</time>
      </trkpt>
      <trkpt lat="48.15537" lon="6.30924">
        <ele>355.7002</ele>
        <time>2026-05-17T13:56:26+02:00</time>
      </trkpt>
      <trkpt lat="48.15545" lon="6.30919">
        <ele>355.5</ele>
        <time>2026-05-17T13:56:27+02:00</time>
      </trkpt>
      <trkpt lat="48.15551" lon="6.30916">
        <ele>355.4004</ele>
        <time>2026-05-17T13:56:28+02:00</time>
      </trkpt>
      <trkpt lat="48.15557" lon="6.30913">
        <ele>354.7998</ele>
        <time>2026-05-17T13:56:29+02:00</time>
      </trkpt>
      <trkpt lat="48.15563" lon="6.3091">
        <ele>354.7998</ele>
        <time>2026-05-17T13:56:30+02:00</time>
      </trkpt>
      <trkpt lat="48.15568" lon="6.30907">
        <ele>354.5</ele>
        <time>2026-05-17T13:56:31+02:00</time>
      </trkpt>
      <trkpt lat="48.15574" lon="6.30904">
        <ele>354.4004</ele>
        <time>2026-05-17T13:56:32+02:00</time>
      </trkpt>
      <trkpt lat="48.15579" lon="6.30901">
        <ele>354.4004</ele>
        <time>2026-05-17T13:56:33+02:00</time>
      </trkpt>
      <trkpt lat="48.15585" lon="6.30898">
        <ele>354</ele>
        <time>2026-05-17T13:56:34+02:00</time>
      </trkpt>
      <trkpt lat="48.15591" lon="6.30895">
        <ele>353.9004</ele>
        <time>2026-05-17T13:56:35+02:00</time>
      </trkpt>
      <trkpt lat="48.15597" lon="6.30893">
        <ele>353.9004</ele>
        <time>2026-05-17T13:56:36+02:00</time>
      </trkpt>
      <trkpt lat="48.15602" lon="6.3089">
        <ele>353.9004</ele>
        <time>2026-05-17T13:56:37+02:00</time>
      </trkpt>
      <trkpt lat="48.15608" lon="6.30887">
        <ele>353.6006</ele>
        <time>2026-05-17T13:56:38+02:00</time>
      </trkpt>
      <trkpt lat="48.15611" lon="6.30886">
        <ele>353.6006</ele>
        <time>2026-05-17T13:56:39+02:00</time>
      </trkpt>
      <trkpt lat="48.15619" lon="6.30881">
        <ele>353.4004</ele>
        <time>2026-05-17T13:56:40+02:00</time>
      </trkpt>
      <trkpt lat="48.15625" lon="6.30879">
        <ele>353.6006</ele>
        <time>2026-05-17T13:56:41+02:00</time>
      </trkpt>
      <trkpt lat="48.15631" lon="6.30876">
        <ele>353.7002</ele>
        <time>2026-05-17T13:56:42+02:00</time>
      </trkpt>
      <trkpt lat="48.15637" lon="6.30873">
        <ele>353.9004</ele>
        <time>2026-05-17T13:56:43+02:00</time>
      </trkpt>
      <trkpt lat="48.15642" lon="6.3087">
        <ele>353.9004</ele>
        <time>2026-05-17T13:56:44+02:00</time>
      </trkpt>
      <trkpt lat="48.15648" lon="6.30867">
        <ele>354.1006</ele>
        <time>2026-05-17T13:56:45+02:00</time>
      </trkpt>
      <trkpt lat="48.15653" lon="6.30864">
        <ele>354</ele>
        <time>2026-05-17T13:56:46+02:00</time>
      </trkpt>
      <trkpt lat="48.15659" lon="6.30861">
        <ele>354.1006</ele>
        <time>2026-05-17T13:56:47+02:00</time>
      </trkpt>
      <trkpt lat="48.15664" lon="6.30858">
        <ele>354.2002</ele>
        <time>2026-05-17T13:56:48+02:00</time>
      </trkpt>
      <trkpt lat="48.1567" lon="6.30855">
        <ele>354.1006</ele>
        <time>2026-05-17T13:56:49+02:00</time>
      </trkpt>
      <trkpt lat="48.15676" lon="6.30852">
        <ele>354.2002</ele>
        <time>2026-05-17T13:56:50+02:00</time>
      </trkpt>
      <trkpt lat="48.15682" lon="6.3085">
        <ele>354.2998</ele>
        <time>2026-05-17T13:56:51+02:00</time>
      </trkpt>
      <trkpt lat="48.15687" lon="6.30847">
        <ele>354.4004</ele>
        <time>2026-05-17T13:56:52+02:00</time>
      </trkpt>
      <trkpt lat="48.15693" lon="6.30844">
        <ele>354.4004</ele>
        <time>2026-05-17T13:56:53+02:00</time>
      </trkpt>
      <trkpt lat="48.15699" lon="6.30841">
        <ele>354.5</ele>
        <time>2026-05-17T13:56:54+02:00</time>
      </trkpt>
      <trkpt lat="48.15704" lon="6.30838">
        <ele>354.4004</ele>
        <time>2026-05-17T13:56:55+02:00</time>
      </trkpt>
      <trkpt lat="48.1571" lon="6.30835">
        <ele>354.5</ele>
        <time>2026-05-17T13:56:56+02:00</time>
      </trkpt>
      <trkpt lat="48.15716" lon="6.30832">
        <ele>354.6006</ele>
        <time>2026-05-17T13:56:57+02:00</time>
      </trkpt>
      <trkpt lat="48.15721" lon="6.3083">
        <ele>354.6006</ele>
        <time>2026-05-17T13:56:58+02:00</time>
      </trkpt>
      <trkpt lat="48.15726" lon="6.30827">
        <ele>354.6006</ele>
        <time>2026-05-17T13:56:59+02:00</time>
      </trkpt>
      <trkpt lat="48.15731" lon="6.30824">
        <ele>354.7998</ele>
        <time>2026-05-17T13:57:00+02:00</time>
      </trkpt>
      <trkpt lat="48.15737" lon="6.30821">
        <ele>354.7002</ele>
        <time>2026-05-17T13:57:01+02:00</time>
      </trkpt>
      <trkpt lat="48.15742" lon="6.30819">
        <ele>354.7998</ele>
        <time>2026-05-17T13:57:02+02:00</time>
      </trkpt>
      <trkpt lat="48.15747" lon="6.30816">
        <ele>354.9004</ele>
        <time>2026-05-17T13:57:03+02:00</time>
      </trkpt>
      <trkpt lat="48.15753" lon="6.30813">
        <ele>355</ele>
        <time>2026-05-17T13:57:04+02:00</time>
      </trkpt>
      <trkpt lat="48.15758" lon="6.3081">
        <ele>354.7998</ele>
        <time>2026-05-17T13:57:05+02:00</time>
      </trkpt>
      <trkpt lat="48.15763" lon="6.30807">
        <ele>354.7998</ele>
        <time>2026-05-17T13:57:06+02:00</time>
      </trkpt>
      <trkpt lat="48.15768" lon="6.30805">
        <ele>354.9004</ele>
        <time>2026-05-17T13:57:07+02:00</time>
      </trkpt>
      <trkpt lat="48.15773" lon="6.30802">
        <ele>354.7998</ele>
        <time>2026-05-17T13:57:08+02:00</time>
      </trkpt>
      <trkpt lat="48.15778" lon="6.308">
        <ele>354.7998</ele>
        <time>2026-05-17T13:57:09+02:00</time>
      </trkpt>
      <trkpt lat="48.15783" lon="6.30797">
        <ele>355</ele>
        <time>2026-05-17T13:57:10+02:00</time>
      </trkpt>
      <trkpt lat="48.15787" lon="6.30795">
        <ele>354.7002</ele>
        <time>2026-05-17T13:57:11+02:00</time>
      </trkpt>
      <trkpt lat="48.15793" lon="6.30793">
        <ele>354.9004</ele>
        <time>2026-05-17T13:57:12+02:00</time>
      </trkpt>
      <trkpt lat="48.15798" lon="6.30791">
        <ele>355.2002</ele>
        <time>2026-05-17T13:57:13+02:00</time>
      </trkpt>
      <trkpt lat="48.15803" lon="6.30788">
        <ele>355.5</ele>
        <time>2026-05-17T13:57:14+02:00</time>
      </trkpt>
      <trkpt lat="48.15808" lon="6.30786">
        <ele>355.4004</ele>
        <time>2026-05-17T13:57:15+02:00</time>
      </trkpt>
      <trkpt lat="48.15813" lon="6.30784">
        <ele>355.7998</ele>
        <time>2026-05-17T13:57:16+02:00</time>
      </trkpt>
      <trkpt lat="48.15818" lon="6.30781">
        <ele>355.7998</ele>
        <time>2026-05-17T13:57:17+02:00</time>
      </trkpt>
      <trkpt lat="48.15823" lon="6.30778">
        <ele>355.6006</ele>
        <time>2026-05-17T13:57:18+02:00</time>
      </trkpt>
      <trkpt lat="48.15829" lon="6.30776">
        <ele>355.7998</ele>
        <time>2026-05-17T13:57:19+02:00</time>
      </trkpt>
      <trkpt lat="48.15835" lon="6.30773">
        <ele>356</ele>
        <time>2026-05-17T13:57:20+02:00</time>
      </trkpt>
      <trkpt lat="48.1584" lon="6.30771">
        <ele>356.2002</ele>
        <time>2026-05-17T13:57:21+02:00</time>
      </trkpt>
      <trkpt lat="48.15845" lon="6.30768">
        <ele>355.7998</ele>
        <time>2026-05-17T13:57:22+02:00</time>
      </trkpt>
      <trkpt lat="48.15851" lon="6.30765">
        <ele>355.9004</ele>
        <time>2026-05-17T13:57:23+02:00</time>
      </trkpt>
      <trkpt lat="48.15856" lon="6.30762">
        <ele>356.1006</ele>
        <time>2026-05-17T13:57:24+02:00</time>
      </trkpt>
      <trkpt lat="48.15862" lon="6.30759">
        <ele>355.7002</ele>
        <time>2026-05-17T13:57:25+02:00</time>
      </trkpt>
      <trkpt lat="48.15868" lon="6.30756">
        <ele>355.9004</ele>
        <time>2026-05-17T13:57:26+02:00</time>
      </trkpt>
      <trkpt lat="48.15873" lon="6.30754">
        <ele>356.2002</ele>
        <time>2026-05-17T13:57:27+02:00</time>
      </trkpt>
      <trkpt lat="48.15879" lon="6.30751">
        <ele>356.2002</ele>
        <time>2026-05-17T13:57:28+02:00</time>
      </trkpt>
      <trkpt lat="48.15885" lon="6.30748">
        <ele>356.4004</ele>
        <time>2026-05-17T13:57:29+02:00</time>
      </trkpt>
      <trkpt lat="48.1589" lon="6.30745">
        <ele>356.5</ele>
        <time>2026-05-17T13:57:30+02:00</time>
      </trkpt>
      <trkpt lat="48.15896" lon="6.30742">
        <ele>356.2002</ele>
        <time>2026-05-17T13:57:31+02:00</time>
      </trkpt>
      <trkpt lat="48.15901" lon="6.30739">
        <ele>356.2998</ele>
        <time>2026-05-17T13:57:32+02:00</time>
      </trkpt>
      <trkpt lat="48.15906" lon="6.30736">
        <ele>356.5</ele>
        <time>2026-05-17T13:57:33+02:00</time>
      </trkpt>
      <trkpt lat="48.15912" lon="6.30733">
        <ele>356.1006</ele>
        <time>2026-05-17T13:57:34+02:00</time>
      </trkpt>
      <trkpt lat="48.15917" lon="6.30731">
        <ele>356.2998</ele>
        <time>2026-05-17T13:57:35+02:00</time>
      </trkpt>
      <trkpt lat="48.15923" lon="6.30728">
        <ele>356.4004</ele>
        <time>2026-05-17T13:57:36+02:00</time>
      </trkpt>
      <trkpt lat="48.15928" lon="6.30725">
        <ele>356.2002</ele>
        <time>2026-05-17T13:57:37+02:00</time>
      </trkpt>
      <trkpt lat="48.15934" lon="6.30722">
        <ele>356.4004</ele>
        <time>2026-05-17T13:57:38+02:00</time>
      </trkpt>
      <trkpt lat="48.15939" lon="6.30719">
        <ele>356.6006</ele>
        <time>2026-05-17T13:57:39+02:00</time>
      </trkpt>
      <trkpt lat="48.15945" lon="6.30717">
        <ele>356.6006</ele>
        <time>2026-05-17T13:57:40+02:00</time>
      </trkpt>
      <trkpt lat="48.15951" lon="6.30714">
        <ele>356.9004</ele>
        <time>2026-05-17T13:57:41+02:00</time>
      </trkpt>
      <trkpt lat="48.15956" lon="6.30711">
        <ele>357.2002</ele>
        <time>2026-05-17T13:57:42+02:00</time>
      </trkpt>
      <trkpt lat="48.15961" lon="6.30708">
        <ele>356.6006</ele>
        <time>2026-05-17T13:57:43+02:00</time>
      </trkpt>
      <trkpt lat="48.15967" lon="6.30705">
        <ele>356.7998</ele>
        <time>2026-05-17T13:57:44+02:00</time>
      </trkpt>
      <trkpt lat="48.15972" lon="6.30702">
        <ele>356.7998</ele>
        <time>2026-05-17T13:57:45+02:00</time>
      </trkpt>
      <trkpt lat="48.15978" lon="6.30699">
        <ele>356.1006</ele>
        <time>2026-05-17T13:57:46+02:00</time>
      </trkpt>
      <trkpt lat="48.15983" lon="6.30696">
        <ele>356.1006</ele>
        <time>2026-05-17T13:57:47+02:00</time>
      </trkpt>
      <trkpt lat="48.15989" lon="6.30693">
        <ele>356</ele>
        <time>2026-05-17T13:57:48+02:00</time>
      </trkpt>
      <trkpt lat="48.15994" lon="6.3069">
        <ele>355.4004</ele>
        <time>2026-05-17T13:57:49+02:00</time>
      </trkpt>
      <trkpt lat="48.15999" lon="6.30687">
        <ele>355.4004</ele>
        <time>2026-05-17T13:57:50+02:00</time>
      </trkpt>
      <trkpt lat="48.16005" lon="6.30685">
        <ele>355.4004</ele>
        <time>2026-05-17T13:57:51+02:00</time>
      </trkpt>
      <trkpt lat="48.1601" lon="6.30682">
        <ele>354.9004</ele>
        <time>2026-05-17T13:57:52+02:00</time>
      </trkpt>
      <trkpt lat="48.16016" lon="6.30679">
        <ele>355</ele>
        <time>2026-05-17T13:57:53+02:00</time>
      </trkpt>
      <trkpt lat="48.16021" lon="6.30676">
        <ele>355</ele>
        <time>2026-05-17T13:57:54+02:00</time>
      </trkpt>
      <trkpt lat="48.16026" lon="6.30673">
        <ele>354.7002</ele>
        <time>2026-05-17T13:57:55+02:00</time>
      </trkpt>
      <trkpt lat="48.16032" lon="6.3067">
        <ele>354.7998</ele>
        <time>2026-05-17T13:57:56+02:00</time>
      </trkpt>
      <trkpt lat="48.16038" lon="6.30667">
        <ele>354.7002</ele>
        <time>2026-05-17T13:57:57+02:00</time>
      </trkpt>
      <trkpt lat="48.16043" lon="6.30664">
        <ele>354.5</ele>
        <time>2026-05-17T13:57:58+02:00</time>
      </trkpt>
      <trkpt lat="48.16049" lon="6.30661">
        <ele>354.4004</ele>
        <time>2026-05-17T13:57:59+02:00</time>
      </trkpt>
      <trkpt lat="48.16055" lon="6.30659">
        <ele>354.2998</ele>
        <time>2026-05-17T13:58:00+02:00</time>
      </trkpt>
      <trkpt lat="48.1606" lon="6.30656">
        <ele>354.1006</ele>
        <time>2026-05-17T13:58:01+02:00</time>
      </trkpt>
      <trkpt lat="48.16066" lon="6.30653">
        <ele>354</ele>
        <time>2026-05-17T13:58:02+02:00</time>
      </trkpt>
      <trkpt lat="48.16071" lon="6.3065">
        <ele>354</ele>
        <time>2026-05-17T13:58:03+02:00</time>
      </trkpt>
      <trkpt lat="48.16077" lon="6.30648">
        <ele>353.9004</ele>
        <time>2026-05-17T13:58:04+02:00</time>
      </trkpt>
      <trkpt lat="48.16083" lon="6.30645">
        <ele>353.9004</ele>
        <time>2026-05-17T13:58:05+02:00</time>
      </trkpt>
      <trkpt lat="48.16089" lon="6.30642">
        <ele>353.7998</ele>
        <time>2026-05-17T13:58:06+02:00</time>
      </trkpt>
      <trkpt lat="48.16094" lon="6.30639">
        <ele>353.7998</ele>
        <time>2026-05-17T13:58:07+02:00</time>
      </trkpt>
      <trkpt lat="48.161" lon="6.30637">
        <ele>353.7998</ele>
        <time>2026-05-17T13:58:08+02:00</time>
      </trkpt>
      <trkpt lat="48.16105" lon="6.30634">
        <ele>353.7998</ele>
        <time>2026-05-17T13:58:09+02:00</time>
      </trkpt>
      <trkpt lat="48.16108" lon="6.30633">
        <ele>353.7998</ele>
        <time>2026-05-17T13:58:10+02:00</time>
      </trkpt>
      <trkpt lat="48.16116" lon="6.30629">
        <ele>353.7998</ele>
        <time>2026-05-17T13:58:11+02:00</time>
      </trkpt>
      <trkpt lat="48.16122" lon="6.30626">
        <ele>353.7998</ele>
        <time>2026-05-17T13:58:12+02:00</time>
      </trkpt>
      <trkpt lat="48.16128" lon="6.30623">
        <ele>353.7998</ele>
        <time>2026-05-17T13:58:13+02:00</time>
      </trkpt>
      <trkpt lat="48.16133" lon="6.30621">
        <ele>353.7998</ele>
        <time>2026-05-17T13:58:14+02:00</time>
      </trkpt>
      <trkpt lat="48.16139" lon="6.30618">
        <ele>353.7998</ele>
        <time>2026-05-17T13:58:15+02:00</time>
      </trkpt>
      <trkpt lat="48.16144" lon="6.30616">
        <ele>353.7998</ele>
        <time>2026-05-17T13:58:16+02:00</time>
      </trkpt>
      <trkpt lat="48.16149" lon="6.30613">
        <ele>353.9004</ele>
        <time>2026-05-17T13:58:17+02:00</time>
      </trkpt>
      <trkpt lat="48.16155" lon="6.3061">
        <ele>353.9004</ele>
        <time>2026-05-17T13:58:18+02:00</time>
      </trkpt>
      <trkpt lat="48.1616" lon="6.30608">
        <ele>354</ele>
        <time>2026-05-17T13:58:19+02:00</time>
      </trkpt>
      <trkpt lat="48.16165" lon="6.30605">
        <ele>354</ele>
        <time>2026-05-17T13:58:20+02:00</time>
      </trkpt>
      <trkpt lat="48.1617" lon="6.30602">
        <ele>354.1006</ele>
        <time>2026-05-17T13:58:21+02:00</time>
      </trkpt>
      <trkpt lat="48.16176" lon="6.306">
        <ele>354.1006</ele>
        <time>2026-05-17T13:58:22+02:00</time>
      </trkpt>
      <trkpt lat="48.16181" lon="6.30597">
        <ele>354.2002</ele>
        <time>2026-05-17T13:58:23+02:00</time>
      </trkpt>
      <trkpt lat="48.16186" lon="6.30595">
        <ele>354.4004</ele>
        <time>2026-05-17T13:58:24+02:00</time>
      </trkpt>
      <trkpt lat="48.16191" lon="6.30592">
        <ele>354.5</ele>
        <time>2026-05-17T13:58:25+02:00</time>
      </trkpt>
      <trkpt lat="48.16196" lon="6.3059">
        <ele>354.5</ele>
        <time>2026-05-17T13:58:26+02:00</time>
      </trkpt>
      <trkpt lat="48.16201" lon="6.30587">
        <ele>354.5</ele>
        <time>2026-05-17T13:58:27+02:00</time>
      </trkpt>
      <trkpt lat="48.16206" lon="6.30584">
        <ele>354.6006</ele>
        <time>2026-05-17T13:58:28+02:00</time>
      </trkpt>
      <trkpt lat="48.16212" lon="6.30582">
        <ele>354.7002</ele>
        <time>2026-05-17T13:58:29+02:00</time>
      </trkpt>
      <trkpt lat="48.16214" lon="6.3058">
        <ele>354.7002</ele>
        <time>2026-05-17T13:58:30+02:00</time>
      </trkpt>
      <trkpt lat="48.16222" lon="6.30576">
        <ele>354.7998</ele>
        <time>2026-05-17T13:58:31+02:00</time>
      </trkpt>
      <trkpt lat="48.16227" lon="6.30574">
        <ele>354.9004</ele>
        <time>2026-05-17T13:58:32+02:00</time>
      </trkpt>
      <trkpt lat="48.16233" lon="6.30571">
        <ele>354.9004</ele>
        <time>2026-05-17T13:58:33+02:00</time>
      </trkpt>
      <trkpt lat="48.16238" lon="6.30569">
        <ele>354.9004</ele>
        <time>2026-05-17T13:58:34+02:00</time>
      </trkpt>
      <trkpt lat="48.16243" lon="6.30566">
        <ele>355</ele>
        <time>2026-05-17T13:58:35+02:00</time>
      </trkpt>
      <trkpt lat="48.16248" lon="6.30563">
        <ele>355</ele>
        <time>2026-05-17T13:58:36+02:00</time>
      </trkpt>
      <trkpt lat="48.16254" lon="6.30561">
        <ele>355.2002</ele>
        <time>2026-05-17T13:58:37+02:00</time>
      </trkpt>
      <trkpt lat="48.16259" lon="6.30558">
        <ele>355.2002</ele>
        <time>2026-05-17T13:58:38+02:00</time>
      </trkpt>
      <trkpt lat="48.16264" lon="6.30555">
        <ele>355.2002</ele>
        <time>2026-05-17T13:58:39+02:00</time>
      </trkpt>
      <trkpt lat="48.16269" lon="6.30552">
        <ele>355.2998</ele>
        <time>2026-05-17T13:58:40+02:00</time>
      </trkpt>
      <trkpt lat="48.16275" lon="6.3055">
        <ele>355.5</ele>
        <time>2026-05-17T13:58:41+02:00</time>
      </trkpt>
      <trkpt lat="48.1628" lon="6.30547">
        <ele>355.6006</ele>
        <time>2026-05-17T13:58:42+02:00</time>
      </trkpt>
      <trkpt lat="48.16285" lon="6.30545">
        <ele>355.7002</ele>
        <time>2026-05-17T13:58:43+02:00</time>
      </trkpt>
      <trkpt lat="48.1629" lon="6.30543">
        <ele>355.7998</ele>
        <time>2026-05-17T13:58:44+02:00</time>
      </trkpt>
      <trkpt lat="48.16296" lon="6.30541">
        <ele>355.9004</ele>
        <time>2026-05-17T13:58:45+02:00</time>
      </trkpt>
      <trkpt lat="48.16301" lon="6.30539">
        <ele>356</ele>
        <time>2026-05-17T13:58:46+02:00</time>
      </trkpt>
      <trkpt lat="48.16306" lon="6.30537">
        <ele>356.1006</ele>
        <time>2026-05-17T13:58:47+02:00</time>
      </trkpt>
      <trkpt lat="48.1631" lon="6.30535">
        <ele>356.1006</ele>
        <time>2026-05-17T13:58:48+02:00</time>
      </trkpt>
      <trkpt lat="48.16314" lon="6.30533">
        <ele>356.2002</ele>
        <time>2026-05-17T13:58:49+02:00</time>
      </trkpt>
      <trkpt lat="48.16318" lon="6.30531">
        <ele>356.2998</ele>
        <time>2026-05-17T13:58:50+02:00</time>
      </trkpt>
      <trkpt lat="48.16321" lon="6.30529">
        <ele>356.2002</ele>
        <time>2026-05-17T13:58:51+02:00</time>
      </trkpt>
      <trkpt lat="48.16325" lon="6.30527">
        <ele>356.2998</ele>
        <time>2026-05-17T13:58:52+02:00</time>
      </trkpt>
      <trkpt lat="48.16327" lon="6.30526">
        <ele>356.2998</ele>
        <time>2026-05-17T13:58:53+02:00</time>
      </trkpt>
      <trkpt lat="48.1633" lon="6.30525">
        <ele>356.5</ele>
        <time>2026-05-17T13:58:54+02:00</time>
      </trkpt>
      <trkpt lat="48.16332" lon="6.30524">
        <ele>356.5</ele>
        <time>2026-05-17T13:58:55+02:00</time>
      </trkpt>
      <trkpt lat="48.16334" lon="6.30523">
        <ele>356.6006</ele>
        <time>2026-05-17T13:58:56+02:00</time>
      </trkpt>
      <trkpt lat="48.16337" lon="6.30522">
        <ele>356.6006</ele>
        <time>2026-05-17T13:58:57+02:00</time>
      </trkpt>
      <trkpt lat="48.1634" lon="6.3052">
        <ele>356.7998</ele>
        <time>2026-05-17T13:58:58+02:00</time>
      </trkpt>
      <trkpt lat="48.16343" lon="6.30519">
        <ele>356.7998</ele>
        <time>2026-05-17T13:58:59+02:00</time>
      </trkpt>
      <trkpt lat="48.16347" lon="6.30516">
        <ele>357</ele>
        <time>2026-05-17T13:59:00+02:00</time>
      </trkpt>
      <trkpt lat="48.1635" lon="6.30512">
        <ele>356.9004</ele>
        <time>2026-05-17T13:59:01+02:00</time>
      </trkpt>
      <trkpt lat="48.16354" lon="6.3051">
        <ele>357.1006</ele>
        <time>2026-05-17T13:59:02+02:00</time>
      </trkpt>
      <trkpt lat="48.16357" lon="6.30507">
        <ele>357.2998</ele>
        <time>2026-05-17T13:59:03+02:00</time>
      </trkpt>
      <trkpt lat="48.1636" lon="6.30505">
        <ele>357.2998</ele>
        <time>2026-05-17T13:59:04+02:00</time>
      </trkpt>
      <trkpt lat="48.16363" lon="6.30503">
        <ele>357.2998</ele>
        <time>2026-05-17T13:59:05+02:00</time>
      </trkpt>
      <trkpt lat="48.16366" lon="6.30501">
        <ele>357.2998</ele>
        <time>2026-05-17T13:59:06+02:00</time>
      </trkpt>
      <trkpt lat="48.16369" lon="6.30499">
        <ele>357.4004</ele>
        <time>2026-05-17T13:59:07+02:00</time>
      </trkpt>
      <trkpt lat="48.16373" lon="6.30497">
        <ele>357.4004</ele>
        <time>2026-05-17T13:59:08+02:00</time>
      </trkpt>
      <trkpt lat="48.16376" lon="6.30495">
        <ele>357.4004</ele>
        <time>2026-05-17T13:59:09+02:00</time>
      </trkpt>
      <trkpt lat="48.1638" lon="6.30494">
        <ele>357.6006</ele>
        <time>2026-05-17T13:59:10+02:00</time>
      </trkpt>
      <trkpt lat="48.16384" lon="6.30492">
        <ele>357.6006</ele>
        <time>2026-05-17T13:59:11+02:00</time>
      </trkpt>
      <trkpt lat="48.16388" lon="6.30491">
        <ele>357.7002</ele>
        <time>2026-05-17T13:59:12+02:00</time>
      </trkpt>
      <trkpt lat="48.16392" lon="6.3049">
        <ele>357.7998</ele>
        <time>2026-05-17T13:59:13+02:00</time>
      </trkpt>
      <trkpt lat="48.16397" lon="6.30488">
        <ele>358</ele>
        <time>2026-05-17T13:59:14+02:00</time>
      </trkpt>
      <trkpt lat="48.16399" lon="6.30487">
        <ele>358</ele>
        <time>2026-05-17T13:59:15+02:00</time>
      </trkpt>
      <trkpt lat="48.16406" lon="6.30484">
        <ele>357.9004</ele>
        <time>2026-05-17T13:59:16+02:00</time>
      </trkpt>
      <trkpt lat="48.1641" lon="6.30482">
        <ele>358.1006</ele>
        <time>2026-05-17T13:59:17+02:00</time>
      </trkpt>
      <trkpt lat="48.16414" lon="6.3048">
        <ele>358.1006</ele>
        <time>2026-05-17T13:59:18+02:00</time>
      </trkpt>
      <trkpt lat="48.16417" lon="6.30478">
        <ele>358.2002</ele>
        <time>2026-05-17T13:59:19+02:00</time>
      </trkpt>
      <trkpt lat="48.16418" lon="6.30478">
        <ele>358.2002</ele>
        <time>2026-05-17T13:59:20+02:00</time>
      </trkpt>
      <trkpt lat="48.16419" lon="6.30477">
        <ele>358.1006</ele>
        <time>2026-05-17T13:59:21+02:00</time>
      </trkpt>
      <trkpt lat="48.16419" lon="6.30477">
        <ele>358.1006</ele>
        <time>2026-05-17T13:59:22+02:00</time>
      </trkpt>
      <trkpt lat="48.16419" lon="6.30477">
        <ele>358.1006</ele>
        <time>2026-05-17T13:59:23+02:00</time>
      </trkpt>
      <trkpt lat="48.16419" lon="6.30477">
        <ele>358.1006</ele>
        <time>2026-05-17T13:59:24+02:00</time>
      </trkpt>
      <trkpt lat="48.16408" lon="6.30483">
        <ele>357.9004</ele>
        <time>2026-05-17T13:59:39+02:00</time>
      </trkpt>
      <trkpt lat="48.16405" lon="6.30484">
        <ele>357.9004</ele>
        <time>2026-05-17T13:59:40+02:00</time>
      </trkpt>
      <trkpt lat="48.16402" lon="6.30486">
        <ele>357.7998</ele>
        <time>2026-05-17T13:59:41+02:00</time>
      </trkpt>
      <trkpt lat="48.164" lon="6.30486">
        <ele>357.7998</ele>
        <time>2026-05-17T13:59:42+02:00</time>
      </trkpt>
      <trkpt lat="48.16395" lon="6.30488">
        <ele>357.7998</ele>
        <time>2026-05-17T13:59:43+02:00</time>
      </trkpt>
      <trkpt lat="48.16392" lon="6.30489">
        <ele>357.7998</ele>
        <time>2026-05-17T13:59:44+02:00</time>
      </trkpt>
      <trkpt lat="48.16388" lon="6.3049">
        <ele>357.7002</ele>
        <time>2026-05-17T13:59:45+02:00</time>
      </trkpt>
      <trkpt lat="48.16385" lon="6.30492">
        <ele>357.6006</ele>
        <time>2026-05-17T13:59:46+02:00</time>
      </trkpt>
      <trkpt lat="48.16382" lon="6.30493">
        <ele>357.6006</ele>
        <time>2026-05-17T13:59:47+02:00</time>
      </trkpt>
      <trkpt lat="48.16378" lon="6.30495">
        <ele>357.4004</ele>
        <time>2026-05-17T13:59:48+02:00</time>
      </trkpt>
      <trkpt lat="48.16374" lon="6.30497">
        <ele>357.6006</ele>
        <time>2026-05-17T13:59:49+02:00</time>
      </trkpt>
      <trkpt lat="48.1637" lon="6.30499">
        <ele>357.4004</ele>
        <time>2026-05-17T13:59:50+02:00</time>
      </trkpt>
      <trkpt lat="48.16366" lon="6.30501">
        <ele>357.2998</ele>
        <time>2026-05-17T13:59:51+02:00</time>
      </trkpt>
      <trkpt lat="48.16363" lon="6.30504">
        <ele>357.4004</ele>
        <time>2026-05-17T13:59:52+02:00</time>
      </trkpt>
      <trkpt lat="48.16359" lon="6.30507">
        <ele>357.2998</ele>
        <time>2026-05-17T13:59:53+02:00</time>
      </trkpt>
      <trkpt lat="48.16356" lon="6.3051">
        <ele>357.1006</ele>
        <time>2026-05-17T13:59:54+02:00</time>
      </trkpt>
      <trkpt lat="48.16352" lon="6.30513">
        <ele>357.2002</ele>
        <time>2026-05-17T13:59:55+02:00</time>
      </trkpt>
      <trkpt lat="48.16349" lon="6.30515">
        <ele>357</ele>
        <time>2026-05-17T13:59:56+02:00</time>
      </trkpt>
      <trkpt lat="48.16346" lon="6.30516">
        <ele>357</ele>
        <time>2026-05-17T13:59:57+02:00</time>
      </trkpt>
      <trkpt lat="48.16344" lon="6.30516">
        <ele>356.7998</ele>
        <time>2026-05-17T13:59:58+02:00</time>
      </trkpt>
      <trkpt lat="48.16342" lon="6.30514">
        <ele>356.7998</ele>
        <time>2026-05-17T13:59:59+02:00</time>
      </trkpt>
      <trkpt lat="48.1634" lon="6.3051">
        <ele>356.7998</ele>
        <time>2026-05-17T14:00:00+02:00</time>
      </trkpt>
      <trkpt lat="48.16339" lon="6.30507">
        <ele>356.5</ele>
        <time>2026-05-17T14:00:01+02:00</time>
      </trkpt>
      <trkpt lat="48.16338" lon="6.30503">
        <ele>356.5</ele>
        <time>2026-05-17T14:00:02+02:00</time>
      </trkpt>
      <trkpt lat="48.16337" lon="6.30498">
        <ele>356.5</ele>
        <time>2026-05-17T14:00:03+02:00</time>
      </trkpt>
      <trkpt lat="48.16336" lon="6.30494">
        <ele>356.5</ele>
        <time>2026-05-17T14:00:04+02:00</time>
      </trkpt>
      <trkpt lat="48.16337" lon="6.30489">
        <ele>356.5</ele>
        <time>2026-05-17T14:00:05+02:00</time>
      </trkpt>
      <trkpt lat="48.16339" lon="6.30485">
        <ele>356.4004</ele>
        <time>2026-05-17T14:00:06+02:00</time>
      </trkpt>
      <trkpt lat="48.16342" lon="6.30481">
        <ele>356.5</ele>
        <time>2026-05-17T14:00:07+02:00</time>
      </trkpt>
      <trkpt lat="48.16345" lon="6.30478">
        <ele>356.5</ele>
        <time>2026-05-17T14:00:08+02:00</time>
      </trkpt>
      <trkpt lat="48.1635" lon="6.30475">
        <ele>356.4004</ele>
        <time>2026-05-17T14:00:09+02:00</time>
      </trkpt>
      <trkpt lat="48.16354" lon="6.30472">
        <ele>356.5</ele>
        <time>2026-05-17T14:00:10+02:00</time>
      </trkpt>
      <trkpt lat="48.16358" lon="6.30469">
        <ele>356.5</ele>
        <time>2026-05-17T14:00:11+02:00</time>
      </trkpt>
      <trkpt lat="48.16362" lon="6.30466">
        <ele>356.5</ele>
        <time>2026-05-17T14:00:12+02:00</time>
      </trkpt>
      <trkpt lat="48.16366" lon="6.30463">
        <ele>356.6006</ele>
        <time>2026-05-17T14:00:13+02:00</time>
      </trkpt>
      <trkpt lat="48.1637" lon="6.30461">
        <ele>356.7002</ele>
        <time>2026-05-17T14:00:14+02:00</time>
      </trkpt>
      <trkpt lat="48.16374" lon="6.30459">
        <ele>356.9004</ele>
        <time>2026-05-17T14:00:15+02:00</time>
      </trkpt>
      <trkpt lat="48.16377" lon="6.30456">
        <ele>356.9004</ele>
        <time>2026-05-17T14:00:16+02:00</time>
      </trkpt>
      <trkpt lat="48.1638" lon="6.30455">
        <ele>357</ele>
        <time>2026-05-17T14:00:17+02:00</time>
      </trkpt>
      <trkpt lat="48.16384" lon="6.30454">
        <ele>357</ele>
        <time>2026-05-17T14:00:18+02:00</time>
      </trkpt>
      <trkpt lat="48.16388" lon="6.30452">
        <ele>357.2998</ele>
        <time>2026-05-17T14:00:19+02:00</time>
      </trkpt>
      <trkpt lat="48.16392" lon="6.3045">
        <ele>357.4004</ele>
        <time>2026-05-17T14:00:20+02:00</time>
      </trkpt>
      <trkpt lat="48.16396" lon="6.30447">
        <ele>357.4004</ele>
        <time>2026-05-17T14:00:21+02:00</time>
      </trkpt>
      <trkpt lat="48.164" lon="6.30445">
        <ele>357.4004</ele>
        <time>2026-05-17T14:00:22+02:00</time>
      </trkpt>
      <trkpt lat="48.16404" lon="6.30442">
        <ele>357.6006</ele>
        <time>2026-05-17T14:00:23+02:00</time>
      </trkpt>
      <trkpt lat="48.16408" lon="6.3044">
        <ele>357.6006</ele>
        <time>2026-05-17T14:00:24+02:00</time>
      </trkpt>
      <trkpt lat="48.16412" lon="6.30438">
        <ele>357.7002</ele>
        <time>2026-05-17T14:00:25+02:00</time>
      </trkpt>
      <trkpt lat="48.16414" lon="6.30437">
        <ele>357.7002</ele>
        <time>2026-05-17T14:00:26+02:00</time>
      </trkpt>
      <trkpt lat="48.1642" lon="6.30433">
        <ele>357.9004</ele>
        <time>2026-05-17T14:00:27+02:00</time>
      </trkpt>
      <trkpt lat="48.16424" lon="6.30431">
        <ele>357.9004</ele>
        <time>2026-05-17T14:00:28+02:00</time>
      </trkpt>
      <trkpt lat="48.16427" lon="6.30429">
        <ele>357.9004</ele>
        <time>2026-05-17T14:00:29+02:00</time>
      </trkpt>
      <trkpt lat="48.16431" lon="6.30426">
        <ele>358</ele>
        <time>2026-05-17T14:00:30+02:00</time>
      </trkpt>
      <trkpt lat="48.16434" lon="6.30423">
        <ele>358</ele>
        <time>2026-05-17T14:00:31+02:00</time>
      </trkpt>
      <trkpt lat="48.16437" lon="6.30421">
        <ele>358</ele>
        <time>2026-05-17T14:00:32+02:00</time>
      </trkpt>
      <trkpt lat="48.1644" lon="6.30419">
        <ele>358</ele>
        <time>2026-05-17T14:00:33+02:00</time>
      </trkpt>
      <trkpt lat="48.16442" lon="6.30417">
        <ele>358.1006</ele>
        <time>2026-05-17T14:00:34+02:00</time>
      </trkpt>
      <trkpt lat="48.16444" lon="6.30416">
        <ele>358.1006</ele>
        <time>2026-05-17T14:00:35+02:00</time>
      </trkpt>
      <trkpt lat="48.16445" lon="6.30414">
        <ele>358.1006</ele>
        <time>2026-05-17T14:00:36+02:00</time>
      </trkpt>
      <trkpt lat="48.16445" lon="6.30412">
        <ele>358.1006</ele>
        <time>2026-05-17T14:00:37+02:00</time>
      </trkpt>
      <trkpt lat="48.16445" lon="6.30412">
        <ele>358.1006</ele>
        <time>2026-05-17T14:00:38+02:00</time>
      </trkpt>
      <trkpt lat="48.16445" lon="6.30412">
        <ele>358.1006</ele>
        <time>2026-05-17T14:00:39+02:00</time>
      </trkpt>
      <trkpt lat="48.16445" lon="6.30412">
        <ele>358.1006</ele>
        <time>2026-05-17T14:00:40+02:00</time>
      </trkpt>
      <trkpt lat="48.16445" lon="6.30412">
        <ele>358.1006</ele>
        <time>2026-05-17T14:00:41+02:00</time>
      </trkpt>
      <trkpt lat="48.16436" lon="6.30424">
        <ele>358</ele>
        <time>2026-05-17T14:04:28+02:00</time>
      </trkpt>
      <trkpt lat="48.16433" lon="6.30425">
        <ele>358</ele>
        <time>2026-05-17T14:04:29+02:00</time>
      </trkpt>
      <trkpt lat="48.16431" lon="6.30426">
        <ele>358</ele>
        <time>2026-05-17T14:04:30+02:00</time>
      </trkpt>
      <trkpt lat="48.16429" lon="6.30427">
        <ele>357.9004</ele>
        <time>2026-05-17T14:04:31+02:00</time>
      </trkpt>
      <trkpt lat="48.16426" lon="6.30428">
        <ele>357.9004</ele>
        <time>2026-05-17T14:04:32+02:00</time>
      </trkpt>
      <trkpt lat="48.16424" lon="6.3043">
        <ele>357.9004</ele>
        <time>2026-05-17T14:04:33+02:00</time>
      </trkpt>
      <trkpt lat="48.16421" lon="6.30431">
        <ele>357.9004</ele>
        <time>2026-05-17T14:04:34+02:00</time>
      </trkpt>
      <trkpt lat="48.16418" lon="6.30433">
        <ele>357.7998</ele>
        <time>2026-05-17T14:04:35+02:00</time>
      </trkpt>
      <trkpt lat="48.16415" lon="6.30435">
        <ele>357.7998</ele>
        <time>2026-05-17T14:04:36+02:00</time>
      </trkpt>
      <trkpt lat="48.16412" lon="6.30438">
        <ele>357.7002</ele>
        <time>2026-05-17T14:04:37+02:00</time>
      </trkpt>
      <trkpt lat="48.16411" lon="6.30439">
        <ele>357.7002</ele>
        <time>2026-05-17T14:04:38+02:00</time>
      </trkpt>
      <trkpt lat="48.16405" lon="6.30443">
        <ele>357.6006</ele>
        <time>2026-05-17T14:04:39+02:00</time>
      </trkpt>
      <trkpt lat="48.16402" lon="6.30445">
        <ele>357.4004</ele>
        <time>2026-05-17T14:04:40+02:00</time>
      </trkpt>
      <trkpt lat="48.16398" lon="6.30447">
        <ele>357.4004</ele>
        <time>2026-05-17T14:04:41+02:00</time>
      </trkpt>
      <trkpt lat="48.16395" lon="6.30449">
        <ele>357.4004</ele>
        <time>2026-05-17T14:04:42+02:00</time>
      </trkpt>
      <trkpt lat="48.16391" lon="6.30451">
        <ele>357.2998</ele>
        <time>2026-05-17T14:04:43+02:00</time>
      </trkpt>
      <trkpt lat="48.16387" lon="6.30453">
        <ele>357.1006</ele>
        <time>2026-05-17T14:04:44+02:00</time>
      </trkpt>
      <trkpt lat="48.16384" lon="6.30454">
        <ele>357</ele>
        <time>2026-05-17T14:04:45+02:00</time>
      </trkpt>
      <trkpt lat="48.1638" lon="6.30455">
        <ele>357</ele>
        <time>2026-05-17T14:04:46+02:00</time>
      </trkpt>
      <trkpt lat="48.16377" lon="6.30456">
        <ele>356.9004</ele>
        <time>2026-05-17T14:04:47+02:00</time>
      </trkpt>
      <trkpt lat="48.16373" lon="6.30459">
        <ele>356.7998</ele>
        <time>2026-05-17T14:04:48+02:00</time>
      </trkpt>
      <trkpt lat="48.1637" lon="6.30462">
        <ele>356.7002</ele>
        <time>2026-05-17T14:04:49+02:00</time>
      </trkpt>
      <trkpt lat="48.16366" lon="6.30464">
        <ele>356.6006</ele>
        <time>2026-05-17T14:04:50+02:00</time>
      </trkpt>
      <trkpt lat="48.16362" lon="6.30466">
        <ele>356.5</ele>
        <time>2026-05-17T14:04:51+02:00</time>
      </trkpt>
      <trkpt lat="48.16357" lon="6.30469">
        <ele>356.5</ele>
        <time>2026-05-17T14:04:52+02:00</time>
      </trkpt>
      <trkpt lat="48.16353" lon="6.30471">
        <ele>356.5</ele>
        <time>2026-05-17T14:04:53+02:00</time>
      </trkpt>
      <trkpt lat="48.16348" lon="6.30473">
        <ele>356.4004</ele>
        <time>2026-05-17T14:04:54+02:00</time>
      </trkpt>
      <trkpt lat="48.16345" lon="6.30475">
        <ele>356.4004</ele>
        <time>2026-05-17T14:04:55+02:00</time>
      </trkpt>
      <trkpt lat="48.16342" lon="6.30477">
        <ele>356.4004</ele>
        <time>2026-05-17T14:04:56+02:00</time>
      </trkpt>
      <trkpt lat="48.16339" lon="6.30478">
        <ele>356.4004</ele>
        <time>2026-05-17T14:04:57+02:00</time>
      </trkpt>
      <trkpt lat="48.16337" lon="6.30479">
        <ele>356.4004</ele>
        <time>2026-05-17T14:04:58+02:00</time>
      </trkpt>
      <trkpt lat="48.16335" lon="6.3048">
        <ele>356.4004</ele>
        <time>2026-05-17T14:04:59+02:00</time>
      </trkpt>
      <trkpt lat="48.16334" lon="6.3048">
        <ele>356.4004</ele>
        <time>2026-05-17T14:05:00+02:00</time>
      </trkpt>
      <trkpt lat="48.16332" lon="6.30482">
        <ele>356.2998</ele>
        <time>2026-05-17T14:05:01+02:00</time>
      </trkpt>
      <trkpt lat="48.16331" lon="6.30486">
        <ele>356.2998</ele>
        <time>2026-05-17T14:05:02+02:00</time>
      </trkpt>
      <trkpt lat="48.16332" lon="6.3049">
        <ele>356.2002</ele>
        <time>2026-05-17T14:05:03+02:00</time>
      </trkpt>
      <trkpt lat="48.16333" lon="6.30494">
        <ele>356.2002</ele>
        <time>2026-05-17T14:05:04+02:00</time>
      </trkpt>
      <trkpt lat="48.16334" lon="6.30499">
        <ele>356.5</ele>
        <time>2026-05-17T14:05:05+02:00</time>
      </trkpt>
      <trkpt lat="48.16336" lon="6.30504">
        <ele>356.5</ele>
        <time>2026-05-17T14:05:06+02:00</time>
      </trkpt>
      <trkpt lat="48.16338" lon="6.30509">
        <ele>356.5</ele>
        <time>2026-05-17T14:05:07+02:00</time>
      </trkpt>
      <trkpt lat="48.1634" lon="6.30513">
        <ele>356.7998</ele>
        <time>2026-05-17T14:05:08+02:00</time>
      </trkpt>
      <trkpt lat="48.16344" lon="6.30515">
        <ele>356.7998</ele>
        <time>2026-05-17T14:05:09+02:00</time>
      </trkpt>
      <trkpt lat="48.16346" lon="6.30515">
        <ele>357</ele>
        <time>2026-05-17T14:05:10+02:00</time>
      </trkpt>
      <trkpt lat="48.16352" lon="6.30512">
        <ele>357.1006</ele>
        <time>2026-05-17T14:05:11+02:00</time>
      </trkpt>
      <trkpt lat="48.16356" lon="6.30509">
        <ele>357.1006</ele>
        <time>2026-05-17T14:05:12+02:00</time>
      </trkpt>
      <trkpt lat="48.1636" lon="6.30505">
        <ele>357.2998</ele>
        <time>2026-05-17T14:05:13+02:00</time>
      </trkpt>
      <trkpt lat="48.16364" lon="6.30502">
        <ele>357.2998</ele>
        <time>2026-05-17T14:05:14+02:00</time>
      </trkpt>
      <trkpt lat="48.16369" lon="6.30499">
        <ele>357.4004</ele>
        <time>2026-05-17T14:05:15+02:00</time>
      </trkpt>
      <trkpt lat="48.16374" lon="6.30496">
        <ele>357.6006</ele>
        <time>2026-05-17T14:05:16+02:00</time>
      </trkpt>
      <trkpt lat="48.16379" lon="6.30494">
        <ele>357.4004</ele>
        <time>2026-05-17T14:05:17+02:00</time>
      </trkpt>
      <trkpt lat="48.16384" lon="6.30492">
        <ele>357.6006</ele>
        <time>2026-05-17T14:05:18+02:00</time>
      </trkpt>
      <trkpt lat="48.16389" lon="6.3049">
        <ele>357.7002</ele>
        <time>2026-05-17T14:05:19+02:00</time>
      </trkpt>
      <trkpt lat="48.16394" lon="6.30489">
        <ele>357.7998</ele>
        <time>2026-05-17T14:05:20+02:00</time>
      </trkpt>
      <trkpt lat="48.16399" lon="6.30487">
        <ele>358</ele>
        <time>2026-05-17T14:05:21+02:00</time>
      </trkpt>
      <trkpt lat="48.16404" lon="6.30485">
        <ele>357.9004</ele>
        <time>2026-05-17T14:05:22+02:00</time>
      </trkpt>
      <trkpt lat="48.16409" lon="6.30482">
        <ele>358.1006</ele>
        <time>2026-05-17T14:05:23+02:00</time>
      </trkpt>
      <trkpt lat="48.16414" lon="6.3048">
        <ele>358.1006</ele>
        <time>2026-05-17T14:05:24+02:00</time>
      </trkpt>
      <trkpt lat="48.16419" lon="6.30477">
        <ele>358.1006</ele>
        <time>2026-05-17T14:05:25+02:00</time>
      </trkpt>
      <trkpt lat="48.16424" lon="6.30474">
        <ele>358.2002</ele>
        <time>2026-05-17T14:05:26+02:00</time>
      </trkpt>
      <trkpt lat="48.16429" lon="6.30471">
        <ele>358.2998</ele>
        <time>2026-05-17T14:05:27+02:00</time>
      </trkpt>
      <trkpt lat="48.16434" lon="6.30469">
        <ele>358.4004</ele>
        <time>2026-05-17T14:05:28+02:00</time>
      </trkpt>
      <trkpt lat="48.1644" lon="6.30466">
        <ele>358.5</ele>
        <time>2026-05-17T14:05:29+02:00</time>
      </trkpt>
      <trkpt lat="48.16445" lon="6.30463">
        <ele>358.5</ele>
        <time>2026-05-17T14:05:30+02:00</time>
      </trkpt>
      <trkpt lat="48.16451" lon="6.3046">
        <ele>358.4004</ele>
        <time>2026-05-17T14:05:31+02:00</time>
      </trkpt>
      <trkpt lat="48.16454" lon="6.30458">
        <ele>358.4004</ele>
        <time>2026-05-17T14:05:32+02:00</time>
      </trkpt>
      <trkpt lat="48.16463" lon="6.30454">
        <ele>358.2998</ele>
        <time>2026-05-17T14:05:33+02:00</time>
      </trkpt>
      <trkpt lat="48.16469" lon="6.30451">
        <ele>358.2002</ele>
        <time>2026-05-17T14:05:34+02:00</time>
      </trkpt>
      <trkpt lat="48.16474" lon="6.30449">
        <ele>358.2002</ele>
        <time>2026-05-17T14:05:35+02:00</time>
      </trkpt>
      <trkpt lat="48.1648" lon="6.30446">
        <ele>358.2002</ele>
        <time>2026-05-17T14:05:36+02:00</time>
      </trkpt>
      <trkpt lat="48.16486" lon="6.30443">
        <ele>358.1006</ele>
        <time>2026-05-17T14:05:37+02:00</time>
      </trkpt>
      <trkpt lat="48.16491" lon="6.3044">
        <ele>358.1006</ele>
        <time>2026-05-17T14:05:38+02:00</time>
      </trkpt>
      <trkpt lat="48.16497" lon="6.30437">
        <ele>358.1006</ele>
        <time>2026-05-17T14:05:39+02:00</time>
      </trkpt>
      <trkpt lat="48.16503" lon="6.30434">
        <ele>358.1006</ele>
        <time>2026-05-17T14:05:40+02:00</time>
      </trkpt>
      <trkpt lat="48.16508" lon="6.30431">
        <ele>358.2002</ele>
        <time>2026-05-17T14:05:41+02:00</time>
      </trkpt>
      <trkpt lat="48.16514" lon="6.30429">
        <ele>358.2002</ele>
        <time>2026-05-17T14:05:42+02:00</time>
      </trkpt>
      <trkpt lat="48.1652" lon="6.30426">
        <ele>358.2998</ele>
        <time>2026-05-17T14:05:43+02:00</time>
      </trkpt>
      <trkpt lat="48.16525" lon="6.30423">
        <ele>358.2998</ele>
        <time>2026-05-17T14:05:44+02:00</time>
      </trkpt>
      <trkpt lat="48.16531" lon="6.3042">
        <ele>358.4004</ele>
        <time>2026-05-17T14:05:45+02:00</time>
      </trkpt>
      <trkpt lat="48.16536" lon="6.30417">
        <ele>358.4004</ele>
        <time>2026-05-17T14:05:46+02:00</time>
      </trkpt>
      <trkpt lat="48.16541" lon="6.30414">
        <ele>358.5</ele>
        <time>2026-05-17T14:05:47+02:00</time>
      </trkpt>
      <trkpt lat="48.16547" lon="6.30411">
        <ele>358.5</ele>
        <time>2026-05-17T14:05:48+02:00</time>
      </trkpt>
      <trkpt lat="48.16553" lon="6.30409">
        <ele>358.6006</ele>
        <time>2026-05-17T14:05:49+02:00</time>
      </trkpt>
      <trkpt lat="48.16558" lon="6.30406">
        <ele>358.7002</ele>
        <time>2026-05-17T14:05:50+02:00</time>
      </trkpt>
      <trkpt lat="48.16564" lon="6.30403">
        <ele>358.7998</ele>
        <time>2026-05-17T14:05:51+02:00</time>
      </trkpt>
      <trkpt lat="48.16569" lon="6.304">
        <ele>358.9004</ele>
        <time>2026-05-17T14:05:52+02:00</time>
      </trkpt>
      <trkpt lat="48.16575" lon="6.30397">
        <ele>359.1006</ele>
        <time>2026-05-17T14:05:53+02:00</time>
      </trkpt>
      <trkpt lat="48.16581" lon="6.30394">
        <ele>359.4004</ele>
        <time>2026-05-17T14:05:54+02:00</time>
      </trkpt>
      <trkpt lat="48.16584" lon="6.30392">
        <ele>359.2998</ele>
        <time>2026-05-17T14:05:55+02:00</time>
      </trkpt>
      <trkpt lat="48.16593" lon="6.30387">
        <ele>359.7998</ele>
        <time>2026-05-17T14:05:56+02:00</time>
      </trkpt>
      <trkpt lat="48.16599" lon="6.30385">
        <ele>360</ele>
        <time>2026-05-17T14:05:57+02:00</time>
      </trkpt>
      <trkpt lat="48.16602" lon="6.30383">
        <ele>359.9004</ele>
        <time>2026-05-17T14:05:58+02:00</time>
      </trkpt>
      <trkpt lat="48.16611" lon="6.30379">
        <ele>360.2002</ele>
        <time>2026-05-17T14:05:59+02:00</time>
      </trkpt>
      <trkpt lat="48.16617" lon="6.30376">
        <ele>360.2998</ele>
        <time>2026-05-17T14:06:00+02:00</time>
      </trkpt>
      <trkpt lat="48.16622" lon="6.30373">
        <ele>360.2002</ele>
        <time>2026-05-17T14:06:01+02:00</time>
      </trkpt>
      <trkpt lat="48.16628" lon="6.3037">
        <ele>360.2998</ele>
        <time>2026-05-17T14:06:02+02:00</time>
      </trkpt>
      <trkpt lat="48.16634" lon="6.30368">
        <ele>360.4004</ele>
        <time>2026-05-17T14:06:03+02:00</time>
      </trkpt>
      <trkpt lat="48.16639" lon="6.30365">
        <ele>360.2998</ele>
        <time>2026-05-17T14:06:04+02:00</time>
      </trkpt>
      <trkpt lat="48.16644" lon="6.30362">
        <ele>360.4004</ele>
        <time>2026-05-17T14:06:05+02:00</time>
      </trkpt>
      <trkpt lat="48.1665" lon="6.30359">
        <ele>360.5</ele>
        <time>2026-05-17T14:06:06+02:00</time>
      </trkpt>
      <trkpt lat="48.16655" lon="6.30356">
        <ele>360.2998</ele>
        <time>2026-05-17T14:06:07+02:00</time>
      </trkpt>
      <trkpt lat="48.16661" lon="6.30353">
        <ele>360.5</ele>
        <time>2026-05-17T14:06:08+02:00</time>
      </trkpt>
      <trkpt lat="48.16667" lon="6.3035">
        <ele>360.6006</ele>
        <time>2026-05-17T14:06:09+02:00</time>
      </trkpt>
      <trkpt lat="48.16672" lon="6.30348">
        <ele>360.6006</ele>
        <time>2026-05-17T14:06:10+02:00</time>
      </trkpt>
      <trkpt lat="48.16678" lon="6.30345">
        <ele>360.7002</ele>
        <time>2026-05-17T14:06:11+02:00</time>
      </trkpt>
      <trkpt lat="48.16683" lon="6.30343">
        <ele>360.7002</ele>
        <time>2026-05-17T14:06:12+02:00</time>
      </trkpt>
      <trkpt lat="48.16689" lon="6.3034">
        <ele>360.6006</ele>
        <time>2026-05-17T14:06:13+02:00</time>
      </trkpt>
      <trkpt lat="48.16695" lon="6.30338">
        <ele>360.6006</ele>
        <time>2026-05-17T14:06:14+02:00</time>
      </trkpt>
      <trkpt lat="48.167" lon="6.30336">
        <ele>360.6006</ele>
        <time>2026-05-17T14:06:15+02:00</time>
      </trkpt>
      <trkpt lat="48.16706" lon="6.30334">
        <ele>360.6006</ele>
        <time>2026-05-17T14:06:16+02:00</time>
      </trkpt>
      <trkpt lat="48.16712" lon="6.30332">
        <ele>360.5</ele>
        <time>2026-05-17T14:06:17+02:00</time>
      </trkpt>
      <trkpt lat="48.16718" lon="6.30331">
        <ele>360.4004</ele>
        <time>2026-05-17T14:06:18+02:00</time>
      </trkpt>
      <trkpt lat="48.16724" lon="6.3033">
        <ele>360.4004</ele>
        <time>2026-05-17T14:06:19+02:00</time>
      </trkpt>
      <trkpt lat="48.1673" lon="6.30329">
        <ele>360.4004</ele>
        <time>2026-05-17T14:06:20+02:00</time>
      </trkpt>
      <trkpt lat="48.16736" lon="6.30328">
        <ele>360.4004</ele>
        <time>2026-05-17T14:06:21+02:00</time>
      </trkpt>
      <trkpt lat="48.16741" lon="6.30327">
        <ele>360.4004</ele>
        <time>2026-05-17T14:06:22+02:00</time>
      </trkpt>
      <trkpt lat="48.16747" lon="6.30327">
        <ele>360.4004</ele>
        <time>2026-05-17T14:06:23+02:00</time>
      </trkpt>
      <trkpt lat="48.16753" lon="6.30326">
        <ele>360.4004</ele>
        <time>2026-05-17T14:06:24+02:00</time>
      </trkpt>
      <trkpt lat="48.16759" lon="6.30326">
        <ele>360.5</ele>
        <time>2026-05-17T14:06:25+02:00</time>
      </trkpt>
      <trkpt lat="48.16765" lon="6.30325">
        <ele>360.5</ele>
        <time>2026-05-17T14:06:26+02:00</time>
      </trkpt>
      <trkpt lat="48.16771" lon="6.30326">
        <ele>360.5</ele>
        <time>2026-05-17T14:06:27+02:00</time>
      </trkpt>
      <trkpt lat="48.16776" lon="6.30326">
        <ele>360.6006</ele>
        <time>2026-05-17T14:06:28+02:00</time>
      </trkpt>
      <trkpt lat="48.16781" lon="6.30326">
        <ele>360.7002</ele>
        <time>2026-05-17T14:06:29+02:00</time>
      </trkpt>
      <trkpt lat="48.16786" lon="6.30326">
        <ele>360.7002</ele>
        <time>2026-05-17T14:06:30+02:00</time>
      </trkpt>
      <trkpt lat="48.1679" lon="6.30325">
        <ele>360.7002</ele>
        <time>2026-05-17T14:06:31+02:00</time>
      </trkpt>
      <trkpt lat="48.16794" lon="6.30324">
        <ele>360.7998</ele>
        <time>2026-05-17T14:06:32+02:00</time>
      </trkpt>
      <trkpt lat="48.16798" lon="6.30323">
        <ele>360.7002</ele>
        <time>2026-05-17T14:06:33+02:00</time>
      </trkpt>
      <trkpt lat="48.16801" lon="6.30321">
        <ele>360.7002</ele>
        <time>2026-05-17T14:06:34+02:00</time>
      </trkpt>
      <trkpt lat="48.16803" lon="6.30318">
        <ele>360.7002</ele>
        <time>2026-05-17T14:06:35+02:00</time>
      </trkpt>
      <trkpt lat="48.16805" lon="6.30314">
        <ele>360.6006</ele>
        <time>2026-05-17T14:06:36+02:00</time>
      </trkpt>
      <trkpt lat="48.16805" lon="6.3031">
        <ele>360.6006</ele>
        <time>2026-05-17T14:06:37+02:00</time>
      </trkpt>
      <trkpt lat="48.16805" lon="6.30305">
        <ele>360.5</ele>
        <time>2026-05-17T14:06:38+02:00</time>
      </trkpt>
      <trkpt lat="48.16805" lon="6.30301">
        <ele>360.5</ele>
        <time>2026-05-17T14:06:39+02:00</time>
      </trkpt>
      <trkpt lat="48.16805" lon="6.30297">
        <ele>360.5</ele>
        <time>2026-05-17T14:06:40+02:00</time>
      </trkpt>
      <trkpt lat="48.16806" lon="6.30292">
        <ele>360.5</ele>
        <time>2026-05-17T14:06:41+02:00</time>
      </trkpt>
      <trkpt lat="48.16809" lon="6.30288">
        <ele>360.7002</ele>
        <time>2026-05-17T14:06:42+02:00</time>
      </trkpt>
      <trkpt lat="48.16813" lon="6.30286">
        <ele>360.7002</ele>
        <time>2026-05-17T14:06:43+02:00</time>
      </trkpt>
      <trkpt lat="48.16817" lon="6.30286">
        <ele>360.7998</ele>
        <time>2026-05-17T14:06:44+02:00</time>
      </trkpt>
      <trkpt lat="48.16819" lon="6.30287">
        <ele>360.7998</ele>
        <time>2026-05-17T14:06:45+02:00</time>
      </trkpt>
      <trkpt lat="48.16826" lon="6.30288">
        <ele>360.9004</ele>
        <time>2026-05-17T14:06:46+02:00</time>
      </trkpt>
      <trkpt lat="48.16831" lon="6.30288">
        <ele>361</ele>
        <time>2026-05-17T14:06:47+02:00</time>
      </trkpt>
      <trkpt lat="48.16836" lon="6.30287">
        <ele>361</ele>
        <time>2026-05-17T14:06:48+02:00</time>
      </trkpt>
      <trkpt lat="48.16841" lon="6.30287">
        <ele>361.1006</ele>
        <time>2026-05-17T14:06:49+02:00</time>
      </trkpt>
      <trkpt lat="48.16847" lon="6.30286">
        <ele>361.1006</ele>
        <time>2026-05-17T14:06:50+02:00</time>
      </trkpt>
      <trkpt lat="48.16852" lon="6.30286">
        <ele>361.1006</ele>
        <time>2026-05-17T14:06:51+02:00</time>
      </trkpt>
      <trkpt lat="48.16857" lon="6.30285">
        <ele>361.1006</ele>
        <time>2026-05-17T14:06:52+02:00</time>
      </trkpt>
      <trkpt lat="48.16861" lon="6.30284">
        <ele>361.2998</ele>
        <time>2026-05-17T14:06:53+02:00</time>
      </trkpt>
      <trkpt lat="48.16866" lon="6.30283">
        <ele>361.2998</ele>
        <time>2026-05-17T14:06:54+02:00</time>
      </trkpt>
      <trkpt lat="48.16871" lon="6.30281">
        <ele>361.4004</ele>
        <time>2026-05-17T14:06:55+02:00</time>
      </trkpt>
      <trkpt lat="48.16876" lon="6.3028">
        <ele>361.7002</ele>
        <time>2026-05-17T14:06:56+02:00</time>
      </trkpt>
      <trkpt lat="48.16881" lon="6.30279">
        <ele>361.7002</ele>
        <time>2026-05-17T14:06:57+02:00</time>
      </trkpt>
      <trkpt lat="48.16886" lon="6.30279">
        <ele>361.7998</ele>
        <time>2026-05-17T14:06:58+02:00</time>
      </trkpt>
      <trkpt lat="48.16891" lon="6.30279">
        <ele>361.7998</ele>
        <time>2026-05-17T14:06:59+02:00</time>
      </trkpt>
      <trkpt lat="48.16896" lon="6.30278">
        <ele>361.9004</ele>
        <time>2026-05-17T14:07:00+02:00</time>
      </trkpt>
      <trkpt lat="48.16901" lon="6.30278">
        <ele>361.9004</ele>
        <time>2026-05-17T14:07:01+02:00</time>
      </trkpt>
      <trkpt lat="48.16905" lon="6.30278">
        <ele>361.9004</ele>
        <time>2026-05-17T14:07:02+02:00</time>
      </trkpt>
      <trkpt lat="48.1691" lon="6.30277">
        <ele>361.9004</ele>
        <time>2026-05-17T14:07:03+02:00</time>
      </trkpt>
      <trkpt lat="48.16915" lon="6.30276">
        <ele>362</ele>
        <time>2026-05-17T14:07:04+02:00</time>
      </trkpt>
      <trkpt lat="48.16921" lon="6.30276">
        <ele>362</ele>
        <time>2026-05-17T14:07:05+02:00</time>
      </trkpt>
      <trkpt lat="48.16926" lon="6.30275">
        <ele>362.1006</ele>
        <time>2026-05-17T14:07:06+02:00</time>
      </trkpt>
      <trkpt lat="48.16931" lon="6.30275">
        <ele>362.1006</ele>
        <time>2026-05-17T14:07:07+02:00</time>
      </trkpt>
      <trkpt lat="48.16933" lon="6.30275">
        <ele>362.1006</ele>
        <time>2026-05-17T14:07:08+02:00</time>
      </trkpt>
      <trkpt lat="48.16941" lon="6.30274">
        <ele>362.2002</ele>
        <time>2026-05-17T14:07:09+02:00</time>
      </trkpt>
      <trkpt lat="48.16946" lon="6.30273">
        <ele>362.2002</ele>
        <time>2026-05-17T14:07:10+02:00</time>
      </trkpt>
      <trkpt lat="48.16951" lon="6.30273">
        <ele>362.2998</ele>
        <time>2026-05-17T14:07:11+02:00</time>
      </trkpt>
      <trkpt lat="48.16956" lon="6.30273">
        <ele>362.4004</ele>
        <time>2026-05-17T14:07:12+02:00</time>
      </trkpt>
      <trkpt lat="48.16961" lon="6.30272">
        <ele>362.5</ele>
        <time>2026-05-17T14:07:13+02:00</time>
      </trkpt>
      <trkpt lat="48.16967" lon="6.30272">
        <ele>362.5</ele>
        <time>2026-05-17T14:07:14+02:00</time>
      </trkpt>
      <trkpt lat="48.16972" lon="6.30271">
        <ele>362.7002</ele>
        <time>2026-05-17T14:07:15+02:00</time>
      </trkpt>
      <trkpt lat="48.16978" lon="6.30271">
        <ele>362.7998</ele>
        <time>2026-05-17T14:07:16+02:00</time>
      </trkpt>
      <trkpt lat="48.16983" lon="6.3027">
        <ele>362.9004</ele>
        <time>2026-05-17T14:07:17+02:00</time>
      </trkpt>
      <trkpt lat="48.16989" lon="6.3027">
        <ele>363</ele>
        <time>2026-05-17T14:07:18+02:00</time>
      </trkpt>
      <trkpt lat="48.16994" lon="6.30269">
        <ele>363.1006</ele>
        <time>2026-05-17T14:07:19+02:00</time>
      </trkpt>
      <trkpt lat="48.16999" lon="6.30269">
        <ele>363.2002</ele>
        <time>2026-05-17T14:07:20+02:00</time>
      </trkpt>
      <trkpt lat="48.17005" lon="6.30269">
        <ele>363.2002</ele>
        <time>2026-05-17T14:07:21+02:00</time>
      </trkpt>
      <trkpt lat="48.17008" lon="6.30269">
        <ele>363.2002</ele>
        <time>2026-05-17T14:07:22+02:00</time>
      </trkpt>
      <trkpt lat="48.17016" lon="6.30269">
        <ele>363.4004</ele>
        <time>2026-05-17T14:07:23+02:00</time>
      </trkpt>
      <trkpt lat="48.17021" lon="6.30268">
        <ele>363.5</ele>
        <time>2026-05-17T14:07:24+02:00</time>
      </trkpt>
      <trkpt lat="48.17027" lon="6.30268">
        <ele>363.6006</ele>
        <time>2026-05-17T14:07:25+02:00</time>
      </trkpt>
      <trkpt lat="48.17033" lon="6.30268">
        <ele>363.7002</ele>
        <time>2026-05-17T14:07:26+02:00</time>
      </trkpt>
      <trkpt lat="48.17038" lon="6.30268">
        <ele>363.7998</ele>
        <time>2026-05-17T14:07:27+02:00</time>
      </trkpt>
      <trkpt lat="48.17045" lon="6.30269">
        <ele>364</ele>
        <time>2026-05-17T14:07:28+02:00</time>
      </trkpt>
      <trkpt lat="48.17047" lon="6.30269">
        <ele>364</ele>
        <time>2026-05-17T14:07:29+02:00</time>
      </trkpt>
      <trkpt lat="48.17056" lon="6.30269">
        <ele>364.2002</ele>
        <time>2026-05-17T14:07:30+02:00</time>
      </trkpt>
      <trkpt lat="48.17062" lon="6.3027">
        <ele>364.2002</ele>
        <time>2026-05-17T14:07:31+02:00</time>
      </trkpt>
      <trkpt lat="48.17067" lon="6.30271">
        <ele>364.1006</ele>
        <time>2026-05-17T14:07:32+02:00</time>
      </trkpt>
      <trkpt lat="48.17073" lon="6.30272">
        <ele>364.2002</ele>
        <time>2026-05-17T14:07:33+02:00</time>
      </trkpt>
      <trkpt lat="48.17079" lon="6.30274">
        <ele>364.4004</ele>
        <time>2026-05-17T14:07:34+02:00</time>
      </trkpt>
      <trkpt lat="48.17084" lon="6.30276">
        <ele>364.7998</ele>
        <time>2026-05-17T14:07:35+02:00</time>
      </trkpt>
      <trkpt lat="48.1709" lon="6.30277">
        <ele>365.1006</ele>
        <time>2026-05-17T14:07:36+02:00</time>
      </trkpt>
      <trkpt lat="48.17096" lon="6.3028">
        <ele>365.5</ele>
        <time>2026-05-17T14:07:37+02:00</time>
      </trkpt>
      <trkpt lat="48.17101" lon="6.30282">
        <ele>366</ele>
        <time>2026-05-17T14:07:38+02:00</time>
      </trkpt>
      <trkpt lat="48.17107" lon="6.30284">
        <ele>366.2998</ele>
        <time>2026-05-17T14:07:39+02:00</time>
      </trkpt>
      <trkpt lat="48.17112" lon="6.30287">
        <ele>366.2998</ele>
        <time>2026-05-17T14:07:40+02:00</time>
      </trkpt>
      <trkpt lat="48.17118" lon="6.30289">
        <ele>367</ele>
        <time>2026-05-17T14:07:41+02:00</time>
      </trkpt>
      <trkpt lat="48.17124" lon="6.30292">
        <ele>367.2002</ele>
        <time>2026-05-17T14:07:42+02:00</time>
      </trkpt>
      <trkpt lat="48.17129" lon="6.30295">
        <ele>367.2002</ele>
        <time>2026-05-17T14:07:43+02:00</time>
      </trkpt>
      <trkpt lat="48.17135" lon="6.30298">
        <ele>367.4004</ele>
        <time>2026-05-17T14:07:44+02:00</time>
      </trkpt>
      <trkpt lat="48.1714" lon="6.30301">
        <ele>367.5</ele>
        <time>2026-05-17T14:07:45+02:00</time>
      </trkpt>
      <trkpt lat="48.17146" lon="6.30303">
        <ele>367.5</ele>
        <time>2026-05-17T14:07:46+02:00</time>
      </trkpt>
      <trkpt lat="48.17152" lon="6.30306">
        <ele>367.6006</ele>
        <time>2026-05-17T14:07:47+02:00</time>
      </trkpt>
      <trkpt lat="48.17157" lon="6.30309">
        <ele>367.6006</ele>
        <time>2026-05-17T14:07:48+02:00</time>
      </trkpt>
      <trkpt lat="48.17163" lon="6.30312">
        <ele>367.7002</ele>
        <time>2026-05-17T14:07:49+02:00</time>
      </trkpt>
      <trkpt lat="48.17168" lon="6.30315">
        <ele>367.9004</ele>
        <time>2026-05-17T14:07:50+02:00</time>
      </trkpt>
      <trkpt lat="48.17174" lon="6.30319">
        <ele>368</ele>
        <time>2026-05-17T14:07:51+02:00</time>
      </trkpt>
      <trkpt lat="48.17179" lon="6.30322">
        <ele>368.1006</ele>
        <time>2026-05-17T14:07:52+02:00</time>
      </trkpt>
      <trkpt lat="48.17185" lon="6.30326">
        <ele>368.2998</ele>
        <time>2026-05-17T14:07:53+02:00</time>
      </trkpt>
      <trkpt lat="48.1719" lon="6.30329">
        <ele>368.2998</ele>
        <time>2026-05-17T14:07:54+02:00</time>
      </trkpt>
      <trkpt lat="48.17196" lon="6.30333">
        <ele>368.2998</ele>
        <time>2026-05-17T14:07:55+02:00</time>
      </trkpt>
      <trkpt lat="48.17201" lon="6.30339">
        <ele>368.2998</ele>
        <time>2026-05-17T14:07:56+02:00</time>
      </trkpt>
      <trkpt lat="48.17207" lon="6.30345">
        <ele>368.2998</ele>
        <time>2026-05-17T14:07:57+02:00</time>
      </trkpt>
      <trkpt lat="48.17212" lon="6.3035">
        <ele>368.4004</ele>
        <time>2026-05-17T14:07:58+02:00</time>
      </trkpt>
      <trkpt lat="48.17218" lon="6.30354">
        <ele>368.4004</ele>
        <time>2026-05-17T14:07:59+02:00</time>
      </trkpt>
      <trkpt lat="48.17223" lon="6.30357">
        <ele>368.5</ele>
        <time>2026-05-17T14:08:00+02:00</time>
      </trkpt>
      <trkpt lat="48.17229" lon="6.30359">
        <ele>368.5</ele>
        <time>2026-05-17T14:08:01+02:00</time>
      </trkpt>
      <trkpt lat="48.17235" lon="6.30362">
        <ele>368.5</ele>
        <time>2026-05-17T14:08:02+02:00</time>
      </trkpt>
      <trkpt lat="48.1724" lon="6.30366">
        <ele>368.6006</ele>
        <time>2026-05-17T14:08:03+02:00</time>
      </trkpt>
      <trkpt lat="48.17245" lon="6.3037">
        <ele>368.5</ele>
        <time>2026-05-17T14:08:04+02:00</time>
      </trkpt>
      <trkpt lat="48.1725" lon="6.30375">
        <ele>368.5</ele>
        <time>2026-05-17T14:08:05+02:00</time>
      </trkpt>
      <trkpt lat="48.17256" lon="6.30379">
        <ele>368.6006</ele>
        <time>2026-05-17T14:08:06+02:00</time>
      </trkpt>
      <trkpt lat="48.1726" lon="6.30384">
        <ele>368.6006</ele>
        <time>2026-05-17T14:08:07+02:00</time>
      </trkpt>
      <trkpt lat="48.17266" lon="6.30389">
        <ele>368.7002</ele>
        <time>2026-05-17T14:08:08+02:00</time>
      </trkpt>
      <trkpt lat="48.17271" lon="6.30394">
        <ele>368.7002</ele>
        <time>2026-05-17T14:08:09+02:00</time>
      </trkpt>
      <trkpt lat="48.17276" lon="6.304">
        <ele>368.7998</ele>
        <time>2026-05-17T14:08:10+02:00</time>
      </trkpt>
      <trkpt lat="48.17281" lon="6.30406">
        <ele>368.9004</ele>
        <time>2026-05-17T14:08:11+02:00</time>
      </trkpt>
      <trkpt lat="48.17286" lon="6.30412">
        <ele>369</ele>
        <time>2026-05-17T14:08:12+02:00</time>
      </trkpt>
      <trkpt lat="48.17291" lon="6.30418">
        <ele>369.1006</ele>
        <time>2026-05-17T14:08:13+02:00</time>
      </trkpt>
      <trkpt lat="48.17296" lon="6.30425">
        <ele>369.2002</ele>
        <time>2026-05-17T14:08:14+02:00</time>
      </trkpt>
      <trkpt lat="48.173" lon="6.30432">
        <ele>369.2002</ele>
        <time>2026-05-17T14:08:15+02:00</time>
      </trkpt>
      <trkpt lat="48.17305" lon="6.30439">
        <ele>369.5</ele>
        <time>2026-05-17T14:08:16+02:00</time>
      </trkpt>
      <trkpt lat="48.17309" lon="6.30446">
        <ele>369.9004</ele>
        <time>2026-05-17T14:08:17+02:00</time>
      </trkpt>
      <trkpt lat="48.17314" lon="6.30453">
        <ele>370.2002</ele>
        <time>2026-05-17T14:08:18+02:00</time>
      </trkpt>
      <trkpt lat="48.17318" lon="6.3046">
        <ele>370.2002</ele>
        <time>2026-05-17T14:08:19+02:00</time>
      </trkpt>
      <trkpt lat="48.17322" lon="6.30468">
        <ele>370.4004</ele>
        <time>2026-05-17T14:08:20+02:00</time>
      </trkpt>
      <trkpt lat="48.17323" lon="6.30472">
        <ele>370.5</ele>
        <time>2026-05-17T14:08:21+02:00</time>
      </trkpt>
      <trkpt lat="48.1733" lon="6.30483">
        <ele>370.7002</ele>
        <time>2026-05-17T14:08:22+02:00</time>
      </trkpt>
      <trkpt lat="48.17333" lon="6.30492">
        <ele>370.7002</ele>
        <time>2026-05-17T14:08:23+02:00</time>
      </trkpt>
      <trkpt lat="48.17337" lon="6.305">
        <ele>370.9004</ele>
        <time>2026-05-17T14:08:24+02:00</time>
      </trkpt>
      <trkpt lat="48.1734" lon="6.30508">
        <ele>371</ele>
        <time>2026-05-17T14:08:25+02:00</time>
      </trkpt>
      <trkpt lat="48.17343" lon="6.30517">
        <ele>371.1006</ele>
        <time>2026-05-17T14:08:26+02:00</time>
      </trkpt>
      <trkpt lat="48.17346" lon="6.30526">
        <ele>371.2002</ele>
        <time>2026-05-17T14:08:27+02:00</time>
      </trkpt>
      <trkpt lat="48.17349" lon="6.30535">
        <ele>371.2002</ele>
        <time>2026-05-17T14:08:28+02:00</time>
      </trkpt>
      <trkpt lat="48.17351" lon="6.30543">
        <ele>371.2002</ele>
        <time>2026-05-17T14:08:29+02:00</time>
      </trkpt>
      <trkpt lat="48.17354" lon="6.30552">
        <ele>371.2002</ele>
        <time>2026-05-17T14:08:30+02:00</time>
      </trkpt>
      <trkpt lat="48.17356" lon="6.30561">
        <ele>371.2002</ele>
        <time>2026-05-17T14:08:31+02:00</time>
      </trkpt>
      <trkpt lat="48.17359" lon="6.3057">
        <ele>371.2998</ele>
        <time>2026-05-17T14:08:32+02:00</time>
      </trkpt>
      <trkpt lat="48.1736" lon="6.30579">
        <ele>371.2998</ele>
        <time>2026-05-17T14:08:33+02:00</time>
      </trkpt>
      <trkpt lat="48.17362" lon="6.30588">
        <ele>371.2998</ele>
        <time>2026-05-17T14:08:34+02:00</time>
      </trkpt>
      <trkpt lat="48.17364" lon="6.30596">
        <ele>371.2998</ele>
        <time>2026-05-17T14:08:35+02:00</time>
      </trkpt>
      <trkpt lat="48.17366" lon="6.30605">
        <ele>371.5</ele>
        <time>2026-05-17T14:08:36+02:00</time>
      </trkpt>
      <trkpt lat="48.17368" lon="6.30614">
        <ele>371.5</ele>
        <time>2026-05-17T14:08:37+02:00</time>
      </trkpt>
      <trkpt lat="48.17369" lon="6.30623">
        <ele>371.5</ele>
        <time>2026-05-17T14:08:38+02:00</time>
      </trkpt>
      <trkpt lat="48.1737" lon="6.30632">
        <ele>371.5</ele>
        <time>2026-05-17T14:08:39+02:00</time>
      </trkpt>
      <trkpt lat="48.17372" lon="6.30641">
        <ele>371.9004</ele>
        <time>2026-05-17T14:08:40+02:00</time>
      </trkpt>
      <trkpt lat="48.17373" lon="6.3065">
        <ele>371.9004</ele>
        <time>2026-05-17T14:08:41+02:00</time>
      </trkpt>
      <trkpt lat="48.17375" lon="6.30659">
        <ele>371.7998</ele>
        <time>2026-05-17T14:08:42+02:00</time>
      </trkpt>
      <trkpt lat="48.17376" lon="6.30668">
        <ele>372.4004</ele>
        <time>2026-05-17T14:08:43+02:00</time>
      </trkpt>
      <trkpt lat="48.17377" lon="6.30677">
        <ele>372.4004</ele>
        <time>2026-05-17T14:08:44+02:00</time>
      </trkpt>
      <trkpt lat="48.17378" lon="6.30686">
        <ele>372.4004</ele>
        <time>2026-05-17T14:08:45+02:00</time>
      </trkpt>
      <trkpt lat="48.17379" lon="6.30694">
        <ele>372.4004</ele>
        <time>2026-05-17T14:08:46+02:00</time>
      </trkpt>
      <trkpt lat="48.17379" lon="6.30703">
        <ele>372.4004</ele>
        <time>2026-05-17T14:08:47+02:00</time>
      </trkpt>
      <trkpt lat="48.17379" lon="6.30712">
        <ele>372.4004</ele>
        <time>2026-05-17T14:08:48+02:00</time>
      </trkpt>
      <trkpt lat="48.17379" lon="6.30721">
        <ele>372.4004</ele>
        <time>2026-05-17T14:08:49+02:00</time>
      </trkpt>
      <trkpt lat="48.17379" lon="6.3073">
        <ele>372.4004</ele>
        <time>2026-05-17T14:08:50+02:00</time>
      </trkpt>
      <trkpt lat="48.17379" lon="6.30738">
        <ele>372.2998</ele>
        <time>2026-05-17T14:08:51+02:00</time>
      </trkpt>
      <trkpt lat="48.17379" lon="6.30747">
        <ele>372.2998</ele>
        <time>2026-05-17T14:08:52+02:00</time>
      </trkpt>
      <trkpt lat="48.17378" lon="6.30755">
        <ele>372.2998</ele>
        <time>2026-05-17T14:08:53+02:00</time>
      </trkpt>
      <trkpt lat="48.17378" lon="6.30764">
        <ele>372.2998</ele>
        <time>2026-05-17T14:08:54+02:00</time>
      </trkpt>
      <trkpt lat="48.17378" lon="6.30772">
        <ele>372.2002</ele>
        <time>2026-05-17T14:08:55+02:00</time>
      </trkpt>
      <trkpt lat="48.17378" lon="6.3078">
        <ele>372.2002</ele>
        <time>2026-05-17T14:08:56+02:00</time>
      </trkpt>
      <trkpt lat="48.17378" lon="6.30789">
        <ele>372.2002</ele>
        <time>2026-05-17T14:08:57+02:00</time>
      </trkpt>
      <trkpt lat="48.17378" lon="6.30797">
        <ele>372.2002</ele>
        <time>2026-05-17T14:08:58+02:00</time>
      </trkpt>
      <trkpt lat="48.17378" lon="6.30805">
        <ele>372.2002</ele>
        <time>2026-05-17T14:08:59+02:00</time>
      </trkpt>
      <trkpt lat="48.17378" lon="6.30813">
        <ele>372.2002</ele>
        <time>2026-05-17T14:09:00+02:00</time>
      </trkpt>
      <trkpt lat="48.17378" lon="6.30821">
        <ele>372.2002</ele>
        <time>2026-05-17T14:09:01+02:00</time>
      </trkpt>
      <trkpt lat="48.17377" lon="6.3083">
        <ele>372.2002</ele>
        <time>2026-05-17T14:09:02+02:00</time>
      </trkpt>
      <trkpt lat="48.17377" lon="6.30838">
        <ele>372.2002</ele>
        <time>2026-05-17T14:09:03+02:00</time>
      </trkpt>
      <trkpt lat="48.17376" lon="6.30846">
        <ele>372.2002</ele>
        <time>2026-05-17T14:09:04+02:00</time>
      </trkpt>
      <trkpt lat="48.17376" lon="6.30854">
        <ele>372.1006</ele>
        <time>2026-05-17T14:09:05+02:00</time>
      </trkpt>
      <trkpt lat="48.17376" lon="6.30862">
        <ele>372.1006</ele>
        <time>2026-05-17T14:09:06+02:00</time>
      </trkpt>
      <trkpt lat="48.17376" lon="6.3087">
        <ele>372.1006</ele>
        <time>2026-05-17T14:09:07+02:00</time>
      </trkpt>
      <trkpt lat="48.17376" lon="6.30878">
        <ele>372.1006</ele>
        <time>2026-05-17T14:09:08+02:00</time>
      </trkpt>
      <trkpt lat="48.17376" lon="6.30886">
        <ele>372.1006</ele>
        <time>2026-05-17T14:09:09+02:00</time>
      </trkpt>
      <trkpt lat="48.17376" lon="6.30893">
        <ele>372</ele>
        <time>2026-05-17T14:09:10+02:00</time>
      </trkpt>
      <trkpt lat="48.17376" lon="6.30897">
        <ele>372</ele>
        <time>2026-05-17T14:09:11+02:00</time>
      </trkpt>
      <trkpt lat="48.17376" lon="6.30909">
        <ele>371.6006</ele>
        <time>2026-05-17T14:09:12+02:00</time>
      </trkpt>
      <trkpt lat="48.17376" lon="6.30917">
        <ele>371.6006</ele>
        <time>2026-05-17T14:09:13+02:00</time>
      </trkpt>
      <trkpt lat="48.17376" lon="6.30925">
        <ele>372</ele>
        <time>2026-05-17T14:09:14+02:00</time>
      </trkpt>
      <trkpt lat="48.17376" lon="6.30933">
        <ele>372.5</ele>
        <time>2026-05-17T14:09:15+02:00</time>
      </trkpt>
      <trkpt lat="48.17376" lon="6.30941">
        <ele>372.5</ele>
        <time>2026-05-17T14:09:16+02:00</time>
      </trkpt>
      <trkpt lat="48.17376" lon="6.30949">
        <ele>372.2998</ele>
        <time>2026-05-17T14:09:17+02:00</time>
      </trkpt>
      <trkpt lat="48.17377" lon="6.30957">
        <ele>372.1006</ele>
        <time>2026-05-17T14:09:18+02:00</time>
      </trkpt>
      <trkpt lat="48.17377" lon="6.30965">
        <ele>372.6006</ele>
        <time>2026-05-17T14:09:19+02:00</time>
      </trkpt>
      <trkpt lat="48.17378" lon="6.30973">
        <ele>373</ele>
        <time>2026-05-17T14:09:20+02:00</time>
      </trkpt>
      <trkpt lat="48.17378" lon="6.30981">
        <ele>374.2002</ele>
        <time>2026-05-17T14:09:21+02:00</time>
      </trkpt>
      <trkpt lat="48.17378" lon="6.30989">
        <ele>375.1006</ele>
        <time>2026-05-17T14:09:22+02:00</time>
      </trkpt>
      <trkpt lat="48.17379" lon="6.30997">
        <ele>375.5</ele>
        <time>2026-05-17T14:09:23+02:00</time>
      </trkpt>
      <trkpt lat="48.1738" lon="6.31004">
        <ele>375.5</ele>
        <time>2026-05-17T14:09:24+02:00</time>
      </trkpt>
      <trkpt lat="48.17381" lon="6.31012">
        <ele>375.4004</ele>
        <time>2026-05-17T14:09:25+02:00</time>
      </trkpt>
      <trkpt lat="48.17382" lon="6.3102">
        <ele>373.6006</ele>
        <time>2026-05-17T14:09:26+02:00</time>
      </trkpt>
      <trkpt lat="48.17383" lon="6.31028">
        <ele>373.6006</ele>
        <time>2026-05-17T14:09:27+02:00</time>
      </trkpt>
      <trkpt lat="48.17385" lon="6.31035">
        <ele>373.6006</ele>
        <time>2026-05-17T14:09:28+02:00</time>
      </trkpt>
      <trkpt lat="48.17386" lon="6.31042">
        <ele>373.7002</ele>
        <time>2026-05-17T14:09:29+02:00</time>
      </trkpt>
      <trkpt lat="48.17388" lon="6.3105">
        <ele>372.2002</ele>
        <time>2026-05-17T14:09:30+02:00</time>
      </trkpt>
      <trkpt lat="48.17389" lon="6.31058">
        <ele>372.2998</ele>
        <time>2026-05-17T14:09:31+02:00</time>
      </trkpt>
      <trkpt lat="48.17391" lon="6.31066">
        <ele>372.4004</ele>
        <time>2026-05-17T14:09:32+02:00</time>
      </trkpt>
      <trkpt lat="48.17392" lon="6.31073">
        <ele>372.5</ele>
        <time>2026-05-17T14:09:33+02:00</time>
      </trkpt>
      <trkpt lat="48.17394" lon="6.31081">
        <ele>371.4004</ele>
        <time>2026-05-17T14:09:34+02:00</time>
      </trkpt>
      <trkpt lat="48.17396" lon="6.31088">
        <ele>371.5</ele>
        <time>2026-05-17T14:09:35+02:00</time>
      </trkpt>
      <trkpt lat="48.17398" lon="6.31096">
        <ele>371.6006</ele>
        <time>2026-05-17T14:09:36+02:00</time>
      </trkpt>
      <trkpt lat="48.174" lon="6.31103">
        <ele>371.2002</ele>
        <time>2026-05-17T14:09:37+02:00</time>
      </trkpt>
      <trkpt lat="48.17402" lon="6.31111">
        <ele>371.2998</ele>
        <time>2026-05-17T14:09:38+02:00</time>
      </trkpt>
      <trkpt lat="48.17404" lon="6.31118">
        <ele>371.2002</ele>
        <time>2026-05-17T14:09:39+02:00</time>
      </trkpt>
      <trkpt lat="48.17407" lon="6.31126">
        <ele>372.4004</ele>
        <time>2026-05-17T14:09:40+02:00</time>
      </trkpt>
      <trkpt lat="48.17409" lon="6.31133">
        <ele>372.7002</ele>
        <time>2026-05-17T14:09:41+02:00</time>
      </trkpt>
      <trkpt lat="48.17412" lon="6.3114">
        <ele>373.1006</ele>
        <time>2026-05-17T14:09:42+02:00</time>
      </trkpt>
      <trkpt lat="48.17414" lon="6.31148">
        <ele>373.4004</ele>
        <time>2026-05-17T14:09:43+02:00</time>
      </trkpt>
      <trkpt lat="48.17417" lon="6.31155">
        <ele>372.1006</ele>
        <time>2026-05-17T14:09:44+02:00</time>
      </trkpt>
      <trkpt lat="48.17419" lon="6.31163">
        <ele>371.7998</ele>
        <time>2026-05-17T14:09:45+02:00</time>
      </trkpt>
      <trkpt lat="48.17421" lon="6.3117">
        <ele>371.7002</ele>
        <time>2026-05-17T14:09:46+02:00</time>
      </trkpt>
      <trkpt lat="48.17424" lon="6.31177">
        <ele>370.4004</ele>
        <time>2026-05-17T14:09:47+02:00</time>
      </trkpt>
      <trkpt lat="48.17426" lon="6.31184">
        <ele>370.9004</ele>
        <time>2026-05-17T14:09:48+02:00</time>
      </trkpt>
      <trkpt lat="48.17428" lon="6.31191">
        <ele>372.2002</ele>
        <time>2026-05-17T14:09:49+02:00</time>
      </trkpt>
      <trkpt lat="48.17431" lon="6.31199">
        <ele>373.1006</ele>
        <time>2026-05-17T14:09:50+02:00</time>
      </trkpt>
      <trkpt lat="48.17433" lon="6.31207">
        <ele>373</ele>
        <time>2026-05-17T14:09:51+02:00</time>
      </trkpt>
      <trkpt lat="48.17434" lon="6.31211">
        <ele>373.7002</ele>
        <time>2026-05-17T14:09:52+02:00</time>
      </trkpt>
      <trkpt lat="48.17438" lon="6.31223">
        <ele>374.5</ele>
        <time>2026-05-17T14:09:53+02:00</time>
      </trkpt>
      <trkpt lat="48.17441" lon="6.31231">
        <ele>372.6006</ele>
        <time>2026-05-17T14:09:54+02:00</time>
      </trkpt>
      <trkpt lat="48.17444" lon="6.31239">
        <ele>372.7998</ele>
        <time>2026-05-17T14:09:55+02:00</time>
      </trkpt>
      <trkpt lat="48.17447" lon="6.31247">
        <ele>370.9004</ele>
        <time>2026-05-17T14:09:56+02:00</time>
      </trkpt>
      <trkpt lat="48.1745" lon="6.31255">
        <ele>371.9004</ele>
        <time>2026-05-17T14:09:57+02:00</time>
      </trkpt>
      <trkpt lat="48.17453" lon="6.31263">
        <ele>371.9004</ele>
        <time>2026-05-17T14:09:58+02:00</time>
      </trkpt>
      <trkpt lat="48.17456" lon="6.31271">
        <ele>372.6006</ele>
        <time>2026-05-17T14:09:59+02:00</time>
      </trkpt>
      <trkpt lat="48.17459" lon="6.3128">
        <ele>374.7002</ele>
        <time>2026-05-17T14:10:00+02:00</time>
      </trkpt>
      <trkpt lat="48.17462" lon="6.31288">
        <ele>374.2998</ele>
        <time>2026-05-17T14:10:01+02:00</time>
      </trkpt>
      <trkpt lat="48.17465" lon="6.31296">
        <ele>376.1006</ele>
        <time>2026-05-17T14:10:02+02:00</time>
      </trkpt>
      <trkpt lat="48.17469" lon="6.31305">
        <ele>376.4004</ele>
        <time>2026-05-17T14:10:03+02:00</time>
      </trkpt>
      <trkpt lat="48.17472" lon="6.31313">
        <ele>378.6006</ele>
        <time>2026-05-17T14:10:04+02:00</time>
      </trkpt>
      <trkpt lat="48.17475" lon="6.31322">
        <ele>378.7998</ele>
        <time>2026-05-17T14:10:05+02:00</time>
      </trkpt>
      <trkpt lat="48.17479" lon="6.3133">
        <ele>378.6006</ele>
        <time>2026-05-17T14:10:06+02:00</time>
      </trkpt>
      <trkpt lat="48.17483" lon="6.31339">
        <ele>379.9004</ele>
        <time>2026-05-17T14:10:07+02:00</time>
      </trkpt>
      <trkpt lat="48.17487" lon="6.31347">
        <ele>380.2002</ele>
        <time>2026-05-17T14:10:08+02:00</time>
      </trkpt>
      <trkpt lat="48.17492" lon="6.31356">
        <ele>380.5</ele>
        <time>2026-05-17T14:10:09+02:00</time>
      </trkpt>
      <trkpt lat="48.17496" lon="6.31365">
        <ele>380.6006</ele>
        <time>2026-05-17T14:10:10+02:00</time>
      </trkpt>
      <trkpt lat="48.175" lon="6.31373">
        <ele>381.7002</ele>
        <time>2026-05-17T14:10:11+02:00</time>
      </trkpt>
      <trkpt lat="48.17505" lon="6.31381">
        <ele>382</ele>
        <time>2026-05-17T14:10:12+02:00</time>
      </trkpt>
      <trkpt lat="48.17511" lon="6.31388">
        <ele>382.7002</ele>
        <time>2026-05-17T14:10:13+02:00</time>
      </trkpt>
      <trkpt lat="48.17516" lon="6.31395">
        <ele>382.2998</ele>
        <time>2026-05-17T14:10:14+02:00</time>
      </trkpt>
      <trkpt lat="48.17521" lon="6.31401">
        <ele>382</ele>
        <time>2026-05-17T14:10:15+02:00</time>
      </trkpt>
      <trkpt lat="48.17527" lon="6.31408">
        <ele>381.6006</ele>
        <time>2026-05-17T14:10:16+02:00</time>
      </trkpt>
      <trkpt lat="48.17532" lon="6.31415">
        <ele>382</ele>
        <time>2026-05-17T14:10:17+02:00</time>
      </trkpt>
      <trkpt lat="48.17537" lon="6.31422">
        <ele>381.6006</ele>
        <time>2026-05-17T14:10:18+02:00</time>
      </trkpt>
      <trkpt lat="48.17543" lon="6.31428">
        <ele>381.6006</ele>
        <time>2026-05-17T14:10:19+02:00</time>
      </trkpt>
      <trkpt lat="48.17549" lon="6.31435">
        <ele>380.7002</ele>
        <time>2026-05-17T14:10:20+02:00</time>
      </trkpt>
      <trkpt lat="48.17555" lon="6.3144">
        <ele>379.7998</ele>
        <time>2026-05-17T14:10:21+02:00</time>
      </trkpt>
      <trkpt lat="48.17562" lon="6.31447">
        <ele>378.7002</ele>
        <time>2026-05-17T14:10:22+02:00</time>
      </trkpt>
      <trkpt lat="48.17568" lon="6.31454">
        <ele>378.7002</ele>
        <time>2026-05-17T14:10:23+02:00</time>
      </trkpt>
      <trkpt lat="48.17574" lon="6.31461">
        <ele>377.6006</ele>
        <time>2026-05-17T14:10:24+02:00</time>
      </trkpt>
      <trkpt lat="48.1758" lon="6.31468">
        <ele>375.2002</ele>
        <time>2026-05-17T14:10:25+02:00</time>
      </trkpt>
      <trkpt lat="48.17586" lon="6.31475">
        <ele>373.2002</ele>
        <time>2026-05-17T14:10:26+02:00</time>
      </trkpt>
      <trkpt lat="48.17593" lon="6.31481">
        <ele>371.2002</ele>
        <time>2026-05-17T14:10:27+02:00</time>
      </trkpt>
      <trkpt lat="48.17599" lon="6.31488">
        <ele>370.2998</ele>
        <time>2026-05-17T14:10:28+02:00</time>
      </trkpt>
      <trkpt lat="48.17605" lon="6.31495">
        <ele>370.6006</ele>
        <time>2026-05-17T14:10:29+02:00</time>
      </trkpt>
      <trkpt lat="48.17611" lon="6.31502">
        <ele>370.6006</ele>
        <time>2026-05-17T14:10:30+02:00</time>
      </trkpt>
      <trkpt lat="48.17618" lon="6.31509">
        <ele>370.6006</ele>
        <time>2026-05-17T14:10:31+02:00</time>
      </trkpt>
      <trkpt lat="48.17624" lon="6.31516">
        <ele>370.1006</ele>
        <time>2026-05-17T14:10:32+02:00</time>
      </trkpt>
      <trkpt lat="48.1763" lon="6.31524">
        <ele>370.2998</ele>
        <time>2026-05-17T14:10:33+02:00</time>
      </trkpt>
      <trkpt lat="48.17636" lon="6.31533">
        <ele>370.4004</ele>
        <time>2026-05-17T14:10:34+02:00</time>
      </trkpt>
      <trkpt lat="48.17641" lon="6.31541">
        <ele>370.2998</ele>
        <time>2026-05-17T14:10:35+02:00</time>
      </trkpt>
      <trkpt lat="48.17647" lon="6.3155">
        <ele>370.2998</ele>
        <time>2026-05-17T14:10:36+02:00</time>
      </trkpt>
      <trkpt lat="48.17651" lon="6.31559">
        <ele>370.4004</ele>
        <time>2026-05-17T14:10:37+02:00</time>
      </trkpt>
      <trkpt lat="48.17656" lon="6.31569">
        <ele>371.7998</ele>
        <time>2026-05-17T14:10:38+02:00</time>
      </trkpt>
      <trkpt lat="48.17661" lon="6.31578">
        <ele>371.4004</ele>
        <time>2026-05-17T14:10:39+02:00</time>
      </trkpt>
      <trkpt lat="48.17666" lon="6.31587">
        <ele>370.9004</ele>
        <time>2026-05-17T14:10:40+02:00</time>
      </trkpt>
      <trkpt lat="48.17668" lon="6.31592">
        <ele>370.5</ele>
        <time>2026-05-17T14:10:41+02:00</time>
      </trkpt>
      <trkpt lat="48.17676" lon="6.31605">
        <ele>370.2998</ele>
        <time>2026-05-17T14:10:42+02:00</time>
      </trkpt>
      <trkpt lat="48.1768" lon="6.31614">
        <ele>370.4004</ele>
        <time>2026-05-17T14:10:43+02:00</time>
      </trkpt>
      <trkpt lat="48.17685" lon="6.31623">
        <ele>370.6006</ele>
        <time>2026-05-17T14:10:44+02:00</time>
      </trkpt>
      <trkpt lat="48.17689" lon="6.31633">
        <ele>370.6006</ele>
        <time>2026-05-17T14:10:45+02:00</time>
      </trkpt>
      <trkpt lat="48.17693" lon="6.31642">
        <ele>371.1006</ele>
        <time>2026-05-17T14:10:46+02:00</time>
      </trkpt>
      <trkpt lat="48.17697" lon="6.31652">
        <ele>372</ele>
        <time>2026-05-17T14:10:47+02:00</time>
      </trkpt>
      <trkpt lat="48.17701" lon="6.31661">
        <ele>372</ele>
        <time>2026-05-17T14:10:48+02:00</time>
      </trkpt>
      <trkpt lat="48.17705" lon="6.31671">
        <ele>371.6006</ele>
        <time>2026-05-17T14:10:49+02:00</time>
      </trkpt>
      <trkpt lat="48.17709" lon="6.3168">
        <ele>370.7998</ele>
        <time>2026-05-17T14:10:50+02:00</time>
      </trkpt>
      <trkpt lat="48.17712" lon="6.31689">
        <ele>370.7002</ele>
        <time>2026-05-17T14:10:51+02:00</time>
      </trkpt>
      <trkpt lat="48.17716" lon="6.31698">
        <ele>370.5</ele>
        <time>2026-05-17T14:10:52+02:00</time>
      </trkpt>
      <trkpt lat="48.17719" lon="6.31708">
        <ele>370.7002</ele>
        <time>2026-05-17T14:10:53+02:00</time>
      </trkpt>
      <trkpt lat="48.17723" lon="6.31717">
        <ele>370.7998</ele>
        <time>2026-05-17T14:10:54+02:00</time>
      </trkpt>
      <trkpt lat="48.17726" lon="6.31726">
        <ele>370.9004</ele>
        <time>2026-05-17T14:10:55+02:00</time>
      </trkpt>
      <trkpt lat="48.17729" lon="6.31735">
        <ele>371.2998</ele>
        <time>2026-05-17T14:10:56+02:00</time>
      </trkpt>
      <trkpt lat="48.17733" lon="6.31743">
        <ele>371.2002</ele>
        <time>2026-05-17T14:10:57+02:00</time>
      </trkpt>
      <trkpt lat="48.17736" lon="6.31752">
        <ele>371.7998</ele>
        <time>2026-05-17T14:10:58+02:00</time>
      </trkpt>
      <trkpt lat="48.17739" lon="6.31761">
        <ele>372.2002</ele>
        <time>2026-05-17T14:10:59+02:00</time>
      </trkpt>
      <trkpt lat="48.17743" lon="6.3177">
        <ele>372.1006</ele>
        <time>2026-05-17T14:11:00+02:00</time>
      </trkpt>
      <trkpt lat="48.17746" lon="6.31779">
        <ele>372.2998</ele>
        <time>2026-05-17T14:11:01+02:00</time>
      </trkpt>
      <trkpt lat="48.1775" lon="6.31788">
        <ele>371.6006</ele>
        <time>2026-05-17T14:11:02+02:00</time>
      </trkpt>
      <trkpt lat="48.17753" lon="6.31797">
        <ele>371.7002</ele>
        <time>2026-05-17T14:11:03+02:00</time>
      </trkpt>
      <trkpt lat="48.17756" lon="6.31806">
        <ele>371.2002</ele>
        <time>2026-05-17T14:11:04+02:00</time>
      </trkpt>
      <trkpt lat="48.1776" lon="6.31814">
        <ele>371.1006</ele>
        <time>2026-05-17T14:11:05+02:00</time>
      </trkpt>
      <trkpt lat="48.17763" lon="6.31823">
        <ele>371.4004</ele>
        <time>2026-05-17T14:11:06+02:00</time>
      </trkpt>
      <trkpt lat="48.17765" lon="6.31827">
        <ele>371.4004</ele>
        <time>2026-05-17T14:11:07+02:00</time>
      </trkpt>
      <trkpt lat="48.1777" lon="6.3184">
        <ele>371.7002</ele>
        <time>2026-05-17T14:11:08+02:00</time>
      </trkpt>
      <trkpt lat="48.17773" lon="6.31849">
        <ele>371.4004</ele>
        <time>2026-05-17T14:11:09+02:00</time>
      </trkpt>
      <trkpt lat="48.17776" lon="6.31858">
        <ele>371.6006</ele>
        <time>2026-05-17T14:11:10+02:00</time>
      </trkpt>
      <trkpt lat="48.1778" lon="6.31867">
        <ele>371.2002</ele>
        <time>2026-05-17T14:11:11+02:00</time>
      </trkpt>
      <trkpt lat="48.17783" lon="6.31876">
        <ele>371</ele>
        <time>2026-05-17T14:11:12+02:00</time>
      </trkpt>
      <trkpt lat="48.17786" lon="6.31885">
        <ele>371.2002</ele>
        <time>2026-05-17T14:11:13+02:00</time>
      </trkpt>
      <trkpt lat="48.17789" lon="6.31894">
        <ele>371.2002</ele>
        <time>2026-05-17T14:11:14+02:00</time>
      </trkpt>
      <trkpt lat="48.17792" lon="6.31902">
        <ele>371.5</ele>
        <time>2026-05-17T14:11:15+02:00</time>
      </trkpt>
      <trkpt lat="48.17795" lon="6.31911">
        <ele>371.4004</ele>
        <time>2026-05-17T14:11:16+02:00</time>
      </trkpt>
      <trkpt lat="48.17799" lon="6.31919">
        <ele>371.6006</ele>
        <time>2026-05-17T14:11:17+02:00</time>
      </trkpt>
      <trkpt lat="48.17802" lon="6.31927">
        <ele>371.5</ele>
        <time>2026-05-17T14:11:18+02:00</time>
      </trkpt>
      <trkpt lat="48.17805" lon="6.31935">
        <ele>371.4004</ele>
        <time>2026-05-17T14:11:19+02:00</time>
      </trkpt>
      <trkpt lat="48.17808" lon="6.31943">
        <ele>371.4004</ele>
        <time>2026-05-17T14:11:20+02:00</time>
      </trkpt>
      <trkpt lat="48.1781" lon="6.3195">
        <ele>371.4004</ele>
        <time>2026-05-17T14:11:21+02:00</time>
      </trkpt>
      <trkpt lat="48.17812" lon="6.31954">
        <ele>371.2002</ele>
        <time>2026-05-17T14:11:22+02:00</time>
      </trkpt>
      <trkpt lat="48.17815" lon="6.31965">
        <ele>371.1006</ele>
        <time>2026-05-17T14:11:23+02:00</time>
      </trkpt>
      <trkpt lat="48.17817" lon="6.31972">
        <ele>370.7998</ele>
        <time>2026-05-17T14:11:24+02:00</time>
      </trkpt>
      <trkpt lat="48.17819" lon="6.31979">
        <ele>370.7998</ele>
        <time>2026-05-17T14:11:25+02:00</time>
      </trkpt>
      <trkpt lat="48.17821" lon="6.31985">
        <ele>370.7998</ele>
        <time>2026-05-17T14:11:26+02:00</time>
      </trkpt>
      <trkpt lat="48.17824" lon="6.31992">
        <ele>370.6006</ele>
        <time>2026-05-17T14:11:27+02:00</time>
      </trkpt>
      <trkpt lat="48.17827" lon="6.31999">
        <ele>370.6006</ele>
        <time>2026-05-17T14:11:28+02:00</time>
      </trkpt>
      <trkpt lat="48.17829" lon="6.32007">
        <ele>370.5</ele>
        <time>2026-05-17T14:11:29+02:00</time>
      </trkpt>
      <trkpt lat="48.17832" lon="6.32014">
        <ele>370.5</ele>
        <time>2026-05-17T14:11:30+02:00</time>
      </trkpt>
      <trkpt lat="48.17835" lon="6.32022">
        <ele>370.5</ele>
        <time>2026-05-17T14:11:31+02:00</time>
      </trkpt>
      <trkpt lat="48.17836" lon="6.32026">
        <ele>370.6006</ele>
        <time>2026-05-17T14:11:32+02:00</time>
      </trkpt>
      <trkpt lat="48.1784" lon="6.32037">
        <ele>370.7002</ele>
        <time>2026-05-17T14:11:33+02:00</time>
      </trkpt>
      <trkpt lat="48.17841" lon="6.32045">
        <ele>370.7002</ele>
        <time>2026-05-17T14:11:34+02:00</time>
      </trkpt>
      <trkpt lat="48.17843" lon="6.32053">
        <ele>370.7998</ele>
        <time>2026-05-17T14:11:35+02:00</time>
      </trkpt>
      <trkpt lat="48.17845" lon="6.3206">
        <ele>370.7998</ele>
        <time>2026-05-17T14:11:36+02:00</time>
      </trkpt>
      <trkpt lat="48.17847" lon="6.32068">
        <ele>370.7998</ele>
        <time>2026-05-17T14:11:37+02:00</time>
      </trkpt>
      <trkpt lat="48.17847" lon="6.32075">
        <ele>370.5</ele>
        <time>2026-05-17T14:11:38+02:00</time>
      </trkpt>
      <trkpt lat="48.17848" lon="6.32079">
        <ele>370.5</ele>
        <time>2026-05-17T14:11:39+02:00</time>
      </trkpt>
      <trkpt lat="48.17849" lon="6.3209">
        <ele>370.1006</ele>
        <time>2026-05-17T14:11:40+02:00</time>
      </trkpt>
      <trkpt lat="48.1785" lon="6.32098">
        <ele>369.7002</ele>
        <time>2026-05-17T14:11:41+02:00</time>
      </trkpt>
      <trkpt lat="48.1785" lon="6.32106">
        <ele>369.2998</ele>
        <time>2026-05-17T14:11:42+02:00</time>
      </trkpt>
      <trkpt lat="48.17851" lon="6.32114">
        <ele>368.7998</ele>
        <time>2026-05-17T14:11:43+02:00</time>
      </trkpt>
      <trkpt lat="48.17851" lon="6.32122">
        <ele>368.2002</ele>
        <time>2026-05-17T14:11:44+02:00</time>
      </trkpt>
      <trkpt lat="48.17852" lon="6.3213">
        <ele>367.6006</ele>
        <time>2026-05-17T14:11:45+02:00</time>
      </trkpt>
      <trkpt lat="48.17852" lon="6.32139">
        <ele>367.5</ele>
        <time>2026-05-17T14:11:46+02:00</time>
      </trkpt>
      <trkpt lat="48.17853" lon="6.32148">
        <ele>367.6006</ele>
        <time>2026-05-17T14:11:47+02:00</time>
      </trkpt>
      <trkpt lat="48.17853" lon="6.32157">
        <ele>367.9004</ele>
        <time>2026-05-17T14:11:48+02:00</time>
      </trkpt>
      <trkpt lat="48.17853" lon="6.32166">
        <ele>368.1006</ele>
        <time>2026-05-17T14:11:49+02:00</time>
      </trkpt>
      <trkpt lat="48.17852" lon="6.32171">
        <ele>368.2002</ele>
        <time>2026-05-17T14:11:50+02:00</time>
      </trkpt>
      <trkpt lat="48.17851" lon="6.32185">
        <ele>368.1006</ele>
        <time>2026-05-17T14:11:51+02:00</time>
      </trkpt>
      <trkpt lat="48.1785" lon="6.32194">
        <ele>367.6006</ele>
        <time>2026-05-17T14:11:52+02:00</time>
      </trkpt>
      <trkpt lat="48.17849" lon="6.32203">
        <ele>367.6006</ele>
        <time>2026-05-17T14:11:53+02:00</time>
      </trkpt>
      <trkpt lat="48.17848" lon="6.32212">
        <ele>367.7002</ele>
        <time>2026-05-17T14:11:54+02:00</time>
      </trkpt>
      <trkpt lat="48.17847" lon="6.3222">
        <ele>367.7002</ele>
        <time>2026-05-17T14:11:55+02:00</time>
      </trkpt>
      <trkpt lat="48.17846" lon="6.32229">
        <ele>367.5</ele>
        <time>2026-05-17T14:11:56+02:00</time>
      </trkpt>
      <trkpt lat="48.17844" lon="6.32237">
        <ele>367.2002</ele>
        <time>2026-05-17T14:11:57+02:00</time>
      </trkpt>
      <trkpt lat="48.17843" lon="6.32245">
        <ele>367.2998</ele>
        <time>2026-05-17T14:11:58+02:00</time>
      </trkpt>
      <trkpt lat="48.17841" lon="6.32253">
        <ele>367.5</ele>
        <time>2026-05-17T14:11:59+02:00</time>
      </trkpt>
      <trkpt lat="48.1784" lon="6.32257">
        <ele>367.7002</ele>
        <time>2026-05-17T14:12:00+02:00</time>
      </trkpt>
      <trkpt lat="48.17837" lon="6.32269">
        <ele>367.5</ele>
        <time>2026-05-17T14:12:01+02:00</time>
      </trkpt>
      <trkpt lat="48.17834" lon="6.32276">
        <ele>367.7002</ele>
        <time>2026-05-17T14:12:02+02:00</time>
      </trkpt>
      <trkpt lat="48.17831" lon="6.32283">
        <ele>367.5</ele>
        <time>2026-05-17T14:12:03+02:00</time>
      </trkpt>
      <trkpt lat="48.17828" lon="6.3229">
        <ele>367.6006</ele>
        <time>2026-05-17T14:12:04+02:00</time>
      </trkpt>
      <trkpt lat="48.17825" lon="6.32298">
        <ele>367.5</ele>
        <time>2026-05-17T14:12:05+02:00</time>
      </trkpt>
      <trkpt lat="48.17822" lon="6.32305">
        <ele>367.2998</ele>
        <time>2026-05-17T14:12:06+02:00</time>
      </trkpt>
      <trkpt lat="48.17819" lon="6.32313">
        <ele>367.2998</ele>
        <time>2026-05-17T14:12:07+02:00</time>
      </trkpt>
      <trkpt lat="48.17815" lon="6.3232">
        <ele>366.7998</ele>
        <time>2026-05-17T14:12:08+02:00</time>
      </trkpt>
      <trkpt lat="48.17811" lon="6.32327">
        <ele>366.5</ele>
        <time>2026-05-17T14:12:09+02:00</time>
      </trkpt>
      <trkpt lat="48.17807" lon="6.32334">
        <ele>365.4004</ele>
        <time>2026-05-17T14:12:10+02:00</time>
      </trkpt>
      <trkpt lat="48.17803" lon="6.32341">
        <ele>364.9004</ele>
        <time>2026-05-17T14:12:11+02:00</time>
      </trkpt>
      <trkpt lat="48.17799" lon="6.32348">
        <ele>365.6006</ele>
        <time>2026-05-17T14:12:12+02:00</time>
      </trkpt>
      <trkpt lat="48.17795" lon="6.32356">
        <ele>366.2998</ele>
        <time>2026-05-17T14:12:13+02:00</time>
      </trkpt>
      <trkpt lat="48.17791" lon="6.32363">
        <ele>367.7998</ele>
        <time>2026-05-17T14:12:14+02:00</time>
      </trkpt>
      <trkpt lat="48.17787" lon="6.3237">
        <ele>368.2998</ele>
        <time>2026-05-17T14:12:15+02:00</time>
      </trkpt>
      <trkpt lat="48.17785" lon="6.32373">
        <ele>368.2998</ele>
        <time>2026-05-17T14:12:16+02:00</time>
      </trkpt>
      <trkpt lat="48.1778" lon="6.32384">
        <ele>367.2998</ele>
        <time>2026-05-17T14:12:17+02:00</time>
      </trkpt>
      <trkpt lat="48.17776" lon="6.32391">
        <ele>367</ele>
        <time>2026-05-17T14:12:18+02:00</time>
      </trkpt>
      <trkpt lat="48.17773" lon="6.32398">
        <ele>366.4004</ele>
        <time>2026-05-17T14:12:19+02:00</time>
      </trkpt>
      <trkpt lat="48.17769" lon="6.32405">
        <ele>365.4004</ele>
        <time>2026-05-17T14:12:20+02:00</time>
      </trkpt>
      <trkpt lat="48.17765" lon="6.32413">
        <ele>365</ele>
        <time>2026-05-17T14:12:21+02:00</time>
      </trkpt>
      <trkpt lat="48.17762" lon="6.3242">
        <ele>364.2998</ele>
        <time>2026-05-17T14:12:22+02:00</time>
      </trkpt>
      <trkpt lat="48.17758" lon="6.32427">
        <ele>363.7998</ele>
        <time>2026-05-17T14:12:23+02:00</time>
      </trkpt>
      <trkpt lat="48.17754" lon="6.32434">
        <ele>363.7998</ele>
        <time>2026-05-17T14:12:24+02:00</time>
      </trkpt>
      <trkpt lat="48.1775" lon="6.32442">
        <ele>363.2998</ele>
        <time>2026-05-17T14:12:25+02:00</time>
      </trkpt>
      <trkpt lat="48.17748" lon="6.32445">
        <ele>363.1006</ele>
        <time>2026-05-17T14:12:26+02:00</time>
      </trkpt>
      <trkpt lat="48.17743" lon="6.32456">
        <ele>362.7002</ele>
        <time>2026-05-17T14:12:27+02:00</time>
      </trkpt>
      <trkpt lat="48.17739" lon="6.32463">
        <ele>362.7002</ele>
        <time>2026-05-17T14:12:28+02:00</time>
      </trkpt>
      <trkpt lat="48.17735" lon="6.3247">
        <ele>362.7002</ele>
        <time>2026-05-17T14:12:29+02:00</time>
      </trkpt>
      <trkpt lat="48.17731" lon="6.32477">
        <ele>362.7002</ele>
        <time>2026-05-17T14:12:30+02:00</time>
      </trkpt>
      <trkpt lat="48.17727" lon="6.32484">
        <ele>362.6006</ele>
        <time>2026-05-17T14:12:31+02:00</time>
      </trkpt>
      <trkpt lat="48.17724" lon="6.32491">
        <ele>362.5</ele>
        <time>2026-05-17T14:12:32+02:00</time>
      </trkpt>
      <trkpt lat="48.17722" lon="6.32494">
        <ele>362.5</ele>
        <time>2026-05-17T14:12:33+02:00</time>
      </trkpt>
      <trkpt lat="48.17716" lon="6.32504">
        <ele>362.2998</ele>
        <time>2026-05-17T14:12:34+02:00</time>
      </trkpt>
      <trkpt lat="48.17713" lon="6.3251">
        <ele>362.2998</ele>
        <time>2026-05-17T14:12:35+02:00</time>
      </trkpt>
      <trkpt lat="48.17709" lon="6.32516">
        <ele>362.2002</ele>
        <time>2026-05-17T14:12:36+02:00</time>
      </trkpt>
      <trkpt lat="48.17705" lon="6.32522">
        <ele>362.2002</ele>
        <time>2026-05-17T14:12:37+02:00</time>
      </trkpt>
      <trkpt lat="48.17701" lon="6.32528">
        <ele>362.2998</ele>
        <time>2026-05-17T14:12:38+02:00</time>
      </trkpt>
      <trkpt lat="48.17698" lon="6.32535">
        <ele>362.2998</ele>
        <time>2026-05-17T14:12:39+02:00</time>
      </trkpt>
      <trkpt lat="48.17695" lon="6.32541">
        <ele>362.2998</ele>
        <time>2026-05-17T14:12:40+02:00</time>
      </trkpt>
      <trkpt lat="48.17691" lon="6.32546">
        <ele>362.2998</ele>
        <time>2026-05-17T14:12:41+02:00</time>
      </trkpt>
      <trkpt lat="48.17688" lon="6.32552">
        <ele>362.5</ele>
        <time>2026-05-17T14:12:42+02:00</time>
      </trkpt>
      <trkpt lat="48.17685" lon="6.32558">
        <ele>362.5</ele>
        <time>2026-05-17T14:12:43+02:00</time>
      </trkpt>
      <trkpt lat="48.17681" lon="6.32564">
        <ele>362.6006</ele>
        <time>2026-05-17T14:12:44+02:00</time>
      </trkpt>
      <trkpt lat="48.17677" lon="6.3257">
        <ele>362.7002</ele>
        <time>2026-05-17T14:12:45+02:00</time>
      </trkpt>
      <trkpt lat="48.17674" lon="6.32575">
        <ele>362.7002</ele>
        <time>2026-05-17T14:12:46+02:00</time>
      </trkpt>
      <trkpt lat="48.17671" lon="6.32581">
        <ele>362.7002</ele>
        <time>2026-05-17T14:12:47+02:00</time>
      </trkpt>
      <trkpt lat="48.17667" lon="6.32587">
        <ele>362.7998</ele>
        <time>2026-05-17T14:12:48+02:00</time>
      </trkpt>
      <trkpt lat="48.17664" lon="6.32593">
        <ele>362.7002</ele>
        <time>2026-05-17T14:12:49+02:00</time>
      </trkpt>
      <trkpt lat="48.1766" lon="6.32599">
        <ele>362.6006</ele>
        <time>2026-05-17T14:12:50+02:00</time>
      </trkpt>
      <trkpt lat="48.17656" lon="6.32606">
        <ele>362.6006</ele>
        <time>2026-05-17T14:12:51+02:00</time>
      </trkpt>
      <trkpt lat="48.17652" lon="6.32612">
        <ele>362.4004</ele>
        <time>2026-05-17T14:12:52+02:00</time>
      </trkpt>
      <trkpt lat="48.17649" lon="6.32618">
        <ele>362.2002</ele>
        <time>2026-05-17T14:12:53+02:00</time>
      </trkpt>
      <trkpt lat="48.17645" lon="6.32625">
        <ele>362</ele>
        <time>2026-05-17T14:12:54+02:00</time>
      </trkpt>
      <trkpt lat="48.17642" lon="6.32631">
        <ele>362.1006</ele>
        <time>2026-05-17T14:12:55+02:00</time>
      </trkpt>
      <trkpt lat="48.17638" lon="6.32637">
        <ele>362</ele>
        <time>2026-05-17T14:12:56+02:00</time>
      </trkpt>
      <trkpt lat="48.17634" lon="6.32644">
        <ele>361.7998</ele>
        <time>2026-05-17T14:12:57+02:00</time>
      </trkpt>
      <trkpt lat="48.17631" lon="6.3265">
        <ele>361.7002</ele>
        <time>2026-05-17T14:12:58+02:00</time>
      </trkpt>
      <trkpt lat="48.17627" lon="6.32657">
        <ele>361.7002</ele>
        <time>2026-05-17T14:12:59+02:00</time>
      </trkpt>
      <trkpt lat="48.17624" lon="6.32663">
        <ele>361.6006</ele>
        <time>2026-05-17T14:13:00+02:00</time>
      </trkpt>
      <trkpt lat="48.1762" lon="6.3267">
        <ele>361.4004</ele>
        <time>2026-05-17T14:13:01+02:00</time>
      </trkpt>
      <trkpt lat="48.17617" lon="6.32676">
        <ele>361.2998</ele>
        <time>2026-05-17T14:13:02+02:00</time>
      </trkpt>
      <trkpt lat="48.17613" lon="6.32682">
        <ele>361.4004</ele>
        <time>2026-05-17T14:13:03+02:00</time>
      </trkpt>
      <trkpt lat="48.1761" lon="6.32688">
        <ele>361.4004</ele>
        <time>2026-05-17T14:13:04+02:00</time>
      </trkpt>
      <trkpt lat="48.17606" lon="6.32695">
        <ele>361.2998</ele>
        <time>2026-05-17T14:13:05+02:00</time>
      </trkpt>
      <trkpt lat="48.17602" lon="6.32701">
        <ele>361.2002</ele>
        <time>2026-05-17T14:13:06+02:00</time>
      </trkpt>
      <trkpt lat="48.176" lon="6.32704">
        <ele>361.2002</ele>
        <time>2026-05-17T14:13:07+02:00</time>
      </trkpt>
      <trkpt lat="48.17584" lon="6.32733">
        <ele>361.1006</ele>
        <time>2026-05-17T14:13:08+02:00</time>
      </trkpt>
      <trkpt lat="48.1758" lon="6.32739">
        <ele>361</ele>
        <time>2026-05-17T14:13:09+02:00</time>
      </trkpt>
      <trkpt lat="48.17576" lon="6.32746">
        <ele>360.7998</ele>
        <time>2026-05-17T14:13:10+02:00</time>
      </trkpt>
      <trkpt lat="48.17573" lon="6.32752">
        <ele>360.7998</ele>
        <time>2026-05-17T14:13:11+02:00</time>
      </trkpt>
      <trkpt lat="48.17569" lon="6.32759">
        <ele>360.7002</ele>
        <time>2026-05-17T14:13:12+02:00</time>
      </trkpt>
      <trkpt lat="48.17565" lon="6.32765">
        <ele>360.5</ele>
        <time>2026-05-17T14:13:13+02:00</time>
      </trkpt>
      <trkpt lat="48.17561" lon="6.32771">
        <ele>360.4004</ele>
        <time>2026-05-17T14:13:14+02:00</time>
      </trkpt>
      <trkpt lat="48.17558" lon="6.32778">
        <ele>360.4004</ele>
        <time>2026-05-17T14:13:15+02:00</time>
      </trkpt>
      <trkpt lat="48.17554" lon="6.32784">
        <ele>360.2002</ele>
        <time>2026-05-17T14:13:16+02:00</time>
      </trkpt>
      <trkpt lat="48.1755" lon="6.32791">
        <ele>360</ele>
        <time>2026-05-17T14:13:17+02:00</time>
      </trkpt>
      <trkpt lat="48.17546" lon="6.32797">
        <ele>360</ele>
        <time>2026-05-17T14:13:18+02:00</time>
      </trkpt>
      <trkpt lat="48.17542" lon="6.32803">
        <ele>360</ele>
        <time>2026-05-17T14:13:19+02:00</time>
      </trkpt>
      <trkpt lat="48.17539" lon="6.32809">
        <ele>360</ele>
        <time>2026-05-17T14:13:20+02:00</time>
      </trkpt>
      <trkpt lat="48.17535" lon="6.32816">
        <ele>360.1006</ele>
        <time>2026-05-17T14:13:21+02:00</time>
      </trkpt>
      <trkpt lat="48.17532" lon="6.32822">
        <ele>360</ele>
        <time>2026-05-17T14:13:22+02:00</time>
      </trkpt>
      <trkpt lat="48.1753" lon="6.32825">
        <ele>360.1006</ele>
        <time>2026-05-17T14:13:23+02:00</time>
      </trkpt>
      <trkpt lat="48.17525" lon="6.32836">
        <ele>360</ele>
        <time>2026-05-17T14:13:24+02:00</time>
      </trkpt>
      <trkpt lat="48.17522" lon="6.32842">
        <ele>360.2002</ele>
        <time>2026-05-17T14:13:25+02:00</time>
      </trkpt>
      <trkpt lat="48.17519" lon="6.32849">
        <ele>360.2002</ele>
        <time>2026-05-17T14:13:26+02:00</time>
      </trkpt>
      <trkpt lat="48.17516" lon="6.32856">
        <ele>360.4004</ele>
        <time>2026-05-17T14:13:27+02:00</time>
      </trkpt>
      <trkpt lat="48.17513" lon="6.32863">
        <ele>360.6006</ele>
        <time>2026-05-17T14:13:28+02:00</time>
      </trkpt>
      <trkpt lat="48.17511" lon="6.3287">
        <ele>360.5</ele>
        <time>2026-05-17T14:13:29+02:00</time>
      </trkpt>
      <trkpt lat="48.17508" lon="6.32877">
        <ele>360.4004</ele>
        <time>2026-05-17T14:13:30+02:00</time>
      </trkpt>
      <trkpt lat="48.17505" lon="6.32885">
        <ele>360.6006</ele>
        <time>2026-05-17T14:13:31+02:00</time>
      </trkpt>
      <trkpt lat="48.17503" lon="6.32892">
        <ele>360.5</ele>
        <time>2026-05-17T14:13:32+02:00</time>
      </trkpt>
      <trkpt lat="48.175" lon="6.329">
        <ele>360.7002</ele>
        <time>2026-05-17T14:13:33+02:00</time>
      </trkpt>
      <trkpt lat="48.17497" lon="6.32908">
        <ele>360.6006</ele>
        <time>2026-05-17T14:13:34+02:00</time>
      </trkpt>
      <trkpt lat="48.17495" lon="6.32915">
        <ele>360.9004</ele>
        <time>2026-05-17T14:13:35+02:00</time>
      </trkpt>
      <trkpt lat="48.17492" lon="6.32923">
        <ele>360.7998</ele>
        <time>2026-05-17T14:13:36+02:00</time>
      </trkpt>
      <trkpt lat="48.1749" lon="6.32931">
        <ele>360.9004</ele>
        <time>2026-05-17T14:13:37+02:00</time>
      </trkpt>
      <trkpt lat="48.17488" lon="6.32938">
        <ele>360.7002</ele>
        <time>2026-05-17T14:13:38+02:00</time>
      </trkpt>
      <trkpt lat="48.17486" lon="6.32946">
        <ele>360.5</ele>
        <time>2026-05-17T14:13:39+02:00</time>
      </trkpt>
      <trkpt lat="48.17486" lon="6.32951">
        <ele>360.2998</ele>
        <time>2026-05-17T14:13:40+02:00</time>
      </trkpt>
      <trkpt lat="48.17483" lon="6.32963">
        <ele>360.2998</ele>
        <time>2026-05-17T14:13:41+02:00</time>
      </trkpt>
      <trkpt lat="48.17481" lon="6.32971">
        <ele>360.2002</ele>
        <time>2026-05-17T14:13:42+02:00</time>
      </trkpt>
      <trkpt lat="48.17479" lon="6.32979">
        <ele>359.9004</ele>
        <time>2026-05-17T14:13:43+02:00</time>
      </trkpt>
      <trkpt lat="48.17478" lon="6.32987">
        <ele>359.7998</ele>
        <time>2026-05-17T14:13:44+02:00</time>
      </trkpt>
      <trkpt lat="48.17476" lon="6.32995">
        <ele>359.6006</ele>
        <time>2026-05-17T14:13:45+02:00</time>
      </trkpt>
      <trkpt lat="48.17475" lon="6.33004">
        <ele>359.2998</ele>
        <time>2026-05-17T14:13:46+02:00</time>
      </trkpt>
      <trkpt lat="48.17473" lon="6.33012">
        <ele>359.2002</ele>
        <time>2026-05-17T14:13:47+02:00</time>
      </trkpt>
      <trkpt lat="48.17471" lon="6.33021">
        <ele>359.1006</ele>
        <time>2026-05-17T14:13:48+02:00</time>
      </trkpt>
      <trkpt lat="48.1747" lon="6.33029">
        <ele>359</ele>
        <time>2026-05-17T14:13:49+02:00</time>
      </trkpt>
      <trkpt lat="48.17468" lon="6.33037">
        <ele>359</ele>
        <time>2026-05-17T14:13:50+02:00</time>
      </trkpt>
      <trkpt lat="48.17467" lon="6.33045">
        <ele>359.1006</ele>
        <time>2026-05-17T14:13:51+02:00</time>
      </trkpt>
      <trkpt lat="48.17465" lon="6.33054">
        <ele>359.2002</ele>
        <time>2026-05-17T14:13:52+02:00</time>
      </trkpt>
      <trkpt lat="48.17464" lon="6.33062">
        <ele>359.2998</ele>
        <time>2026-05-17T14:13:53+02:00</time>
      </trkpt>
      <trkpt lat="48.17463" lon="6.33069">
        <ele>359.2998</ele>
        <time>2026-05-17T14:13:54+02:00</time>
      </trkpt>
      <trkpt lat="48.17461" lon="6.33076">
        <ele>359.6006</ele>
        <time>2026-05-17T14:13:55+02:00</time>
      </trkpt>
      <trkpt lat="48.1746" lon="6.33083">
        <ele>359.6006</ele>
        <time>2026-05-17T14:13:56+02:00</time>
      </trkpt>
      <trkpt lat="48.17458" lon="6.33091">
        <ele>359.6006</ele>
        <time>2026-05-17T14:13:57+02:00</time>
      </trkpt>
      <trkpt lat="48.17457" lon="6.33098">
        <ele>359.7002</ele>
        <time>2026-05-17T14:13:58+02:00</time>
      </trkpt>
      <trkpt lat="48.17456" lon="6.33106">
        <ele>359.7002</ele>
        <time>2026-05-17T14:13:59+02:00</time>
      </trkpt>
      <trkpt lat="48.17455" lon="6.33114">
        <ele>359.7998</ele>
        <time>2026-05-17T14:14:00+02:00</time>
      </trkpt>
      <trkpt lat="48.17455" lon="6.33122">
        <ele>359.7998</ele>
        <time>2026-05-17T14:14:01+02:00</time>
      </trkpt>
      <trkpt lat="48.17455" lon="6.3313">
        <ele>359.7998</ele>
        <time>2026-05-17T14:14:02+02:00</time>
      </trkpt>
      <trkpt lat="48.17455" lon="6.33138">
        <ele>359.7002</ele>
        <time>2026-05-17T14:14:03+02:00</time>
      </trkpt>
      <trkpt lat="48.17455" lon="6.33146">
        <ele>359.7002</ele>
        <time>2026-05-17T14:14:04+02:00</time>
      </trkpt>
      <trkpt lat="48.17455" lon="6.33154">
        <ele>359.6006</ele>
        <time>2026-05-17T14:14:05+02:00</time>
      </trkpt>
      <trkpt lat="48.17454" lon="6.33163">
        <ele>359.6006</ele>
        <time>2026-05-17T14:14:06+02:00</time>
      </trkpt>
      <trkpt lat="48.17454" lon="6.33171">
        <ele>359.6006</ele>
        <time>2026-05-17T14:14:07+02:00</time>
      </trkpt>
      <trkpt lat="48.17454" lon="6.3318">
        <ele>359.5</ele>
        <time>2026-05-17T14:14:08+02:00</time>
      </trkpt>
      <trkpt lat="48.17455" lon="6.33188">
        <ele>359.4004</ele>
        <time>2026-05-17T14:14:09+02:00</time>
      </trkpt>
      <trkpt lat="48.17455" lon="6.33197">
        <ele>359.2998</ele>
        <time>2026-05-17T14:14:10+02:00</time>
      </trkpt>
      <trkpt lat="48.17456" lon="6.33206">
        <ele>358.9004</ele>
        <time>2026-05-17T14:14:11+02:00</time>
      </trkpt>
      <trkpt lat="48.17457" lon="6.33215">
        <ele>358.7998</ele>
        <time>2026-05-17T14:14:12+02:00</time>
      </trkpt>
      <trkpt lat="48.17457" lon="6.33224">
        <ele>358.6006</ele>
        <time>2026-05-17T14:14:13+02:00</time>
      </trkpt>
      <trkpt lat="48.17458" lon="6.33233">
        <ele>358.5</ele>
        <time>2026-05-17T14:14:14+02:00</time>
      </trkpt>
      <trkpt lat="48.17459" lon="6.33242">
        <ele>358.2002</ele>
        <time>2026-05-17T14:14:15+02:00</time>
      </trkpt>
      <trkpt lat="48.1746" lon="6.33247">
        <ele>358.2002</ele>
        <time>2026-05-17T14:14:16+02:00</time>
      </trkpt>
      <trkpt lat="48.17462" lon="6.3326">
        <ele>357.9004</ele>
        <time>2026-05-17T14:14:17+02:00</time>
      </trkpt>
      <trkpt lat="48.17463" lon="6.33269">
        <ele>357.7998</ele>
        <time>2026-05-17T14:14:18+02:00</time>
      </trkpt>
      <trkpt lat="48.17465" lon="6.33278">
        <ele>357.7998</ele>
        <time>2026-05-17T14:14:19+02:00</time>
      </trkpt>
      <trkpt lat="48.17466" lon="6.33286">
        <ele>357.7998</ele>
        <time>2026-05-17T14:14:20+02:00</time>
      </trkpt>
      <trkpt lat="48.17468" lon="6.33295">
        <ele>357.7002</ele>
        <time>2026-05-17T14:14:21+02:00</time>
      </trkpt>
      <trkpt lat="48.1747" lon="6.33303">
        <ele>357.7998</ele>
        <time>2026-05-17T14:14:22+02:00</time>
      </trkpt>
      <trkpt lat="48.17472" lon="6.33311">
        <ele>357.7998</ele>
        <time>2026-05-17T14:14:23+02:00</time>
      </trkpt>
      <trkpt lat="48.17474" lon="6.3332">
        <ele>357.7998</ele>
        <time>2026-05-17T14:14:24+02:00</time>
      </trkpt>
      <trkpt lat="48.17475" lon="6.33328">
        <ele>357.9004</ele>
        <time>2026-05-17T14:14:25+02:00</time>
      </trkpt>
      <trkpt lat="48.17477" lon="6.33337">
        <ele>357.9004</ele>
        <time>2026-05-17T14:14:26+02:00</time>
      </trkpt>
      <trkpt lat="48.17479" lon="6.33345">
        <ele>357.7998</ele>
        <time>2026-05-17T14:14:27+02:00</time>
      </trkpt>
      <trkpt lat="48.17481" lon="6.33354">
        <ele>357.9004</ele>
        <time>2026-05-17T14:14:28+02:00</time>
      </trkpt>
      <trkpt lat="48.17483" lon="6.33362">
        <ele>358</ele>
        <time>2026-05-17T14:14:29+02:00</time>
      </trkpt>
      <trkpt lat="48.17484" lon="6.33371">
        <ele>358</ele>
        <time>2026-05-17T14:14:30+02:00</time>
      </trkpt>
      <trkpt lat="48.17485" lon="6.3338">
        <ele>357.7998</ele>
        <time>2026-05-17T14:14:31+02:00</time>
      </trkpt>
      <trkpt lat="48.17486" lon="6.33389">
        <ele>357.7998</ele>
        <time>2026-05-17T14:14:32+02:00</time>
      </trkpt>
      <trkpt lat="48.17486" lon="6.33398">
        <ele>357.7998</ele>
        <time>2026-05-17T14:14:33+02:00</time>
      </trkpt>
      <trkpt lat="48.17486" lon="6.33407">
        <ele>357.9004</ele>
        <time>2026-05-17T14:14:34+02:00</time>
      </trkpt>
      <trkpt lat="48.17486" lon="6.33416">
        <ele>357.9004</ele>
        <time>2026-05-17T14:14:35+02:00</time>
      </trkpt>
      <trkpt lat="48.17486" lon="6.33425">
        <ele>357.9004</ele>
        <time>2026-05-17T14:14:36+02:00</time>
      </trkpt>
      <trkpt lat="48.17486" lon="6.33434">
        <ele>357.9004</ele>
        <time>2026-05-17T14:14:37+02:00</time>
      </trkpt>
      <trkpt lat="48.17485" lon="6.33443">
        <ele>357.9004</ele>
        <time>2026-05-17T14:14:38+02:00</time>
      </trkpt>
      <trkpt lat="48.17484" lon="6.33452">
        <ele>358.2002</ele>
        <time>2026-05-17T14:14:39+02:00</time>
      </trkpt>
      <trkpt lat="48.17483" lon="6.33461">
        <ele>358.2002</ele>
        <time>2026-05-17T14:14:40+02:00</time>
      </trkpt>
      <trkpt lat="48.17482" lon="6.3347">
        <ele>358.2002</ele>
        <time>2026-05-17T14:14:41+02:00</time>
      </trkpt>
      <trkpt lat="48.1748" lon="6.33478">
        <ele>358.1006</ele>
        <time>2026-05-17T14:14:42+02:00</time>
      </trkpt>
      <trkpt lat="48.17478" lon="6.33487">
        <ele>358.4004</ele>
        <time>2026-05-17T14:14:43+02:00</time>
      </trkpt>
      <trkpt lat="48.17476" lon="6.33495">
        <ele>358.4004</ele>
        <time>2026-05-17T14:14:44+02:00</time>
      </trkpt>
      <trkpt lat="48.17473" lon="6.33503">
        <ele>358.5</ele>
        <time>2026-05-17T14:14:45+02:00</time>
      </trkpt>
      <trkpt lat="48.1747" lon="6.3351">
        <ele>358.5</ele>
        <time>2026-05-17T14:14:46+02:00</time>
      </trkpt>
      <trkpt lat="48.17467" lon="6.33518">
        <ele>358.6006</ele>
        <time>2026-05-17T14:14:47+02:00</time>
      </trkpt>
      <trkpt lat="48.17464" lon="6.33526">
        <ele>358.5</ele>
        <time>2026-05-17T14:14:48+02:00</time>
      </trkpt>
      <trkpt lat="48.17462" lon="6.33533">
        <ele>358.5</ele>
        <time>2026-05-17T14:14:49+02:00</time>
      </trkpt>
      <trkpt lat="48.17458" lon="6.33541">
        <ele>358.6006</ele>
        <time>2026-05-17T14:14:50+02:00</time>
      </trkpt>
      <trkpt lat="48.17456" lon="6.3355">
        <ele>358.6006</ele>
        <time>2026-05-17T14:14:51+02:00</time>
      </trkpt>
      <trkpt lat="48.17454" lon="6.33558">
        <ele>358.7998</ele>
        <time>2026-05-17T14:14:52+02:00</time>
      </trkpt>
      <trkpt lat="48.17452" lon="6.33567">
        <ele>358.7998</ele>
        <time>2026-05-17T14:14:53+02:00</time>
      </trkpt>
      <trkpt lat="48.17451" lon="6.33576">
        <ele>358.9004</ele>
        <time>2026-05-17T14:14:54+02:00</time>
      </trkpt>
      <trkpt lat="48.17449" lon="6.33585">
        <ele>359.4004</ele>
        <time>2026-05-17T14:14:55+02:00</time>
      </trkpt>
      <trkpt lat="48.17448" lon="6.33595">
        <ele>359.6006</ele>
        <time>2026-05-17T14:14:56+02:00</time>
      </trkpt>
      <trkpt lat="48.17447" lon="6.33604">
        <ele>359.9004</ele>
        <time>2026-05-17T14:14:57+02:00</time>
      </trkpt>
      <trkpt lat="48.17446" lon="6.33613">
        <ele>360.1006</ele>
        <time>2026-05-17T14:14:58+02:00</time>
      </trkpt>
      <trkpt lat="48.17446" lon="6.33622">
        <ele>360.2998</ele>
        <time>2026-05-17T14:14:59+02:00</time>
      </trkpt>
      <trkpt lat="48.17446" lon="6.33631">
        <ele>360.6006</ele>
        <time>2026-05-17T14:15:00+02:00</time>
      </trkpt>
      <trkpt lat="48.17446" lon="6.3364">
        <ele>360.7998</ele>
        <time>2026-05-17T14:15:01+02:00</time>
      </trkpt>
      <trkpt lat="48.17446" lon="6.33645">
        <ele>360.7998</ele>
        <time>2026-05-17T14:15:02+02:00</time>
      </trkpt>
      <trkpt lat="48.17447" lon="6.33659">
        <ele>361.2002</ele>
        <time>2026-05-17T14:15:03+02:00</time>
      </trkpt>
      <trkpt lat="48.17448" lon="6.33668">
        <ele>361.2998</ele>
        <time>2026-05-17T14:15:04+02:00</time>
      </trkpt>
      <trkpt lat="48.17449" lon="6.33676">
        <ele>361.5</ele>
        <time>2026-05-17T14:15:05+02:00</time>
      </trkpt>
      <trkpt lat="48.17451" lon="6.33685">
        <ele>361.2998</ele>
        <time>2026-05-17T14:15:06+02:00</time>
      </trkpt>
      <trkpt lat="48.17453" lon="6.33694">
        <ele>361.4004</ele>
        <time>2026-05-17T14:15:07+02:00</time>
      </trkpt>
      <trkpt lat="48.17455" lon="6.33702">
        <ele>361.5</ele>
        <time>2026-05-17T14:15:08+02:00</time>
      </trkpt>
      <trkpt lat="48.17457" lon="6.33711">
        <ele>361.1006</ele>
        <time>2026-05-17T14:15:09+02:00</time>
      </trkpt>
      <trkpt lat="48.17459" lon="6.33719">
        <ele>361.1006</ele>
        <time>2026-05-17T14:15:10+02:00</time>
      </trkpt>
      <trkpt lat="48.17462" lon="6.33727">
        <ele>360.6006</ele>
        <time>2026-05-17T14:15:11+02:00</time>
      </trkpt>
      <trkpt lat="48.17464" lon="6.33735">
        <ele>360.5</ele>
        <time>2026-05-17T14:15:12+02:00</time>
      </trkpt>
      <trkpt lat="48.17466" lon="6.33743">
        <ele>360.5</ele>
        <time>2026-05-17T14:15:13+02:00</time>
      </trkpt>
      <trkpt lat="48.17468" lon="6.33751">
        <ele>360.1006</ele>
        <time>2026-05-17T14:15:14+02:00</time>
      </trkpt>
      <trkpt lat="48.17471" lon="6.33759">
        <ele>360</ele>
        <time>2026-05-17T14:15:15+02:00</time>
      </trkpt>
      <trkpt lat="48.17473" lon="6.33768">
        <ele>359.9004</ele>
        <time>2026-05-17T14:15:16+02:00</time>
      </trkpt>
      <trkpt lat="48.17474" lon="6.33776">
        <ele>359.6006</ele>
        <time>2026-05-17T14:15:17+02:00</time>
      </trkpt>
      <trkpt lat="48.17476" lon="6.33785">
        <ele>359.5</ele>
        <time>2026-05-17T14:15:18+02:00</time>
      </trkpt>
      <trkpt lat="48.17478" lon="6.33794">
        <ele>359.5</ele>
        <time>2026-05-17T14:15:19+02:00</time>
      </trkpt>
      <trkpt lat="48.17479" lon="6.33803">
        <ele>359.2002</ele>
        <time>2026-05-17T14:15:20+02:00</time>
      </trkpt>
      <trkpt lat="48.17481" lon="6.33813">
        <ele>359.1006</ele>
        <time>2026-05-17T14:15:21+02:00</time>
      </trkpt>
      <trkpt lat="48.17482" lon="6.33822">
        <ele>359.1006</ele>
        <time>2026-05-17T14:15:22+02:00</time>
      </trkpt>
      <trkpt lat="48.17483" lon="6.33832">
        <ele>359</ele>
        <time>2026-05-17T14:15:23+02:00</time>
      </trkpt>
      <trkpt lat="48.17484" lon="6.33841">
        <ele>359</ele>
        <time>2026-05-17T14:15:24+02:00</time>
      </trkpt>
      <trkpt lat="48.17485" lon="6.33851">
        <ele>358.7002</ele>
        <time>2026-05-17T14:15:25+02:00</time>
      </trkpt>
      <trkpt lat="48.17485" lon="6.33861">
        <ele>358.7002</ele>
        <time>2026-05-17T14:15:26+02:00</time>
      </trkpt>
      <trkpt lat="48.17486" lon="6.33871">
        <ele>358.7002</ele>
        <time>2026-05-17T14:15:27+02:00</time>
      </trkpt>
      <trkpt lat="48.17486" lon="6.3388">
        <ele>358.7002</ele>
        <time>2026-05-17T14:15:28+02:00</time>
      </trkpt>
      <trkpt lat="48.17487" lon="6.3389">
        <ele>358.7998</ele>
        <time>2026-05-17T14:15:29+02:00</time>
      </trkpt>
      <trkpt lat="48.17487" lon="6.339">
        <ele>358.9004</ele>
        <time>2026-05-17T14:15:30+02:00</time>
      </trkpt>
      <trkpt lat="48.17488" lon="6.3391">
        <ele>359</ele>
        <time>2026-05-17T14:15:31+02:00</time>
      </trkpt>
      <trkpt lat="48.17488" lon="6.33919">
        <ele>359</ele>
        <time>2026-05-17T14:15:32+02:00</time>
      </trkpt>
      <trkpt lat="48.17489" lon="6.33929">
        <ele>359.1006</ele>
        <time>2026-05-17T14:15:33+02:00</time>
      </trkpt>
      <trkpt lat="48.17489" lon="6.33939">
        <ele>359.1006</ele>
        <time>2026-05-17T14:15:34+02:00</time>
      </trkpt>
      <trkpt lat="48.1749" lon="6.33948">
        <ele>359.1006</ele>
        <time>2026-05-17T14:15:35+02:00</time>
      </trkpt>
      <trkpt lat="48.1749" lon="6.33958">
        <ele>359.1006</ele>
        <time>2026-05-17T14:15:36+02:00</time>
      </trkpt>
      <trkpt lat="48.17491" lon="6.33968">
        <ele>358.9004</ele>
        <time>2026-05-17T14:15:37+02:00</time>
      </trkpt>
      <trkpt lat="48.17491" lon="6.33977">
        <ele>358.9004</ele>
        <time>2026-05-17T14:15:38+02:00</time>
      </trkpt>
      <trkpt lat="48.17491" lon="6.33987">
        <ele>359</ele>
        <time>2026-05-17T14:15:39+02:00</time>
      </trkpt>
      <trkpt lat="48.17492" lon="6.33997">
        <ele>359</ele>
        <time>2026-05-17T14:15:40+02:00</time>
      </trkpt>
      <trkpt lat="48.17492" lon="6.34007">
        <ele>359</ele>
        <time>2026-05-17T14:15:41+02:00</time>
      </trkpt>
      <trkpt lat="48.17492" lon="6.34016">
        <ele>359</ele>
        <time>2026-05-17T14:15:42+02:00</time>
      </trkpt>
      <trkpt lat="48.17492" lon="6.34026">
        <ele>359</ele>
        <time>2026-05-17T14:15:43+02:00</time>
      </trkpt>
      <trkpt lat="48.17492" lon="6.34036">
        <ele>358.9004</ele>
        <time>2026-05-17T14:15:44+02:00</time>
      </trkpt>
      <trkpt lat="48.17491" lon="6.34046">
        <ele>358.9004</ele>
        <time>2026-05-17T14:15:45+02:00</time>
      </trkpt>
      <trkpt lat="48.17491" lon="6.34055">
        <ele>358.7998</ele>
        <time>2026-05-17T14:15:46+02:00</time>
      </trkpt>
      <trkpt lat="48.1749" lon="6.34064">
        <ele>358.9004</ele>
        <time>2026-05-17T14:15:47+02:00</time>
      </trkpt>
      <trkpt lat="48.17489" lon="6.34074">
        <ele>358.7998</ele>
        <time>2026-05-17T14:15:48+02:00</time>
      </trkpt>
      <trkpt lat="48.17488" lon="6.34083">
        <ele>358.5</ele>
        <time>2026-05-17T14:15:49+02:00</time>
      </trkpt>
      <trkpt lat="48.17487" lon="6.34092">
        <ele>358.4004</ele>
        <time>2026-05-17T14:15:50+02:00</time>
      </trkpt>
      <trkpt lat="48.17486" lon="6.34101">
        <ele>358.2998</ele>
        <time>2026-05-17T14:15:51+02:00</time>
      </trkpt>
      <trkpt lat="48.17484" lon="6.3411">
        <ele>358.4004</ele>
        <time>2026-05-17T14:15:52+02:00</time>
      </trkpt>
      <trkpt lat="48.17483" lon="6.34119">
        <ele>358.2998</ele>
        <time>2026-05-17T14:15:53+02:00</time>
      </trkpt>
      <trkpt lat="48.17482" lon="6.34128">
        <ele>358.2002</ele>
        <time>2026-05-17T14:15:54+02:00</time>
      </trkpt>
      <trkpt lat="48.1748" lon="6.34137">
        <ele>358.1006</ele>
        <time>2026-05-17T14:15:55+02:00</time>
      </trkpt>
      <trkpt lat="48.17478" lon="6.34146">
        <ele>358.2002</ele>
        <time>2026-05-17T14:15:56+02:00</time>
      </trkpt>
      <trkpt lat="48.17476" lon="6.34154">
        <ele>358.1006</ele>
        <time>2026-05-17T14:15:57+02:00</time>
      </trkpt>
      <trkpt lat="48.17474" lon="6.34163">
        <ele>358</ele>
        <time>2026-05-17T14:15:58+02:00</time>
      </trkpt>
      <trkpt lat="48.17473" lon="6.34167">
        <ele>358.1006</ele>
        <time>2026-05-17T14:15:59+02:00</time>
      </trkpt>
      <trkpt lat="48.1747" lon="6.3418">
        <ele>357.9004</ele>
        <time>2026-05-17T14:16:00+02:00</time>
      </trkpt>
      <trkpt lat="48.17467" lon="6.34188">
        <ele>357.9004</ele>
        <time>2026-05-17T14:16:01+02:00</time>
      </trkpt>
      <trkpt lat="48.17465" lon="6.34196">
        <ele>357.7002</ele>
        <time>2026-05-17T14:16:02+02:00</time>
      </trkpt>
      <trkpt lat="48.17462" lon="6.34205">
        <ele>357.6006</ele>
        <time>2026-05-17T14:16:03+02:00</time>
      </trkpt>
      <trkpt lat="48.17459" lon="6.34213">
        <ele>357.6006</ele>
        <time>2026-05-17T14:16:04+02:00</time>
      </trkpt>
      <trkpt lat="48.17457" lon="6.34221">
        <ele>357.5</ele>
        <time>2026-05-17T14:16:05+02:00</time>
      </trkpt>
      <trkpt lat="48.17454" lon="6.34229">
        <ele>357.5</ele>
        <time>2026-05-17T14:16:06+02:00</time>
      </trkpt>
      <trkpt lat="48.17451" lon="6.34237">
        <ele>357.5</ele>
        <time>2026-05-17T14:16:07+02:00</time>
      </trkpt>
      <trkpt lat="48.17449" lon="6.34246">
        <ele>357.7002</ele>
        <time>2026-05-17T14:16:08+02:00</time>
      </trkpt>
      <trkpt lat="48.17446" lon="6.34254">
        <ele>357.7002</ele>
        <time>2026-05-17T14:16:09+02:00</time>
      </trkpt>
      <trkpt lat="48.17444" lon="6.34262">
        <ele>358</ele>
        <time>2026-05-17T14:16:10+02:00</time>
      </trkpt>
      <trkpt lat="48.17441" lon="6.3427">
        <ele>358</ele>
        <time>2026-05-17T14:16:11+02:00</time>
      </trkpt>
      <trkpt lat="48.17439" lon="6.34278">
        <ele>358</ele>
        <time>2026-05-17T14:16:12+02:00</time>
      </trkpt>
      <trkpt lat="48.17437" lon="6.34286">
        <ele>358.2002</ele>
        <time>2026-05-17T14:16:13+02:00</time>
      </trkpt>
      <trkpt lat="48.17434" lon="6.34294">
        <ele>358.2998</ele>
        <time>2026-05-17T14:16:14+02:00</time>
      </trkpt>
      <trkpt lat="48.17432" lon="6.34302">
        <ele>358.5</ele>
        <time>2026-05-17T14:16:15+02:00</time>
      </trkpt>
      <trkpt lat="48.17429" lon="6.3431">
        <ele>358.5</ele>
        <time>2026-05-17T14:16:16+02:00</time>
      </trkpt>
      <trkpt lat="48.17427" lon="6.34318">
        <ele>358.7998</ele>
        <time>2026-05-17T14:16:17+02:00</time>
      </trkpt>
      <trkpt lat="48.17424" lon="6.34326">
        <ele>358.7998</ele>
        <time>2026-05-17T14:16:18+02:00</time>
      </trkpt>
      <trkpt lat="48.17422" lon="6.34334">
        <ele>358.7998</ele>
        <time>2026-05-17T14:16:19+02:00</time>
      </trkpt>
      <trkpt lat="48.1742" lon="6.34342">
        <ele>359</ele>
        <time>2026-05-17T14:16:20+02:00</time>
      </trkpt>
      <trkpt lat="48.17417" lon="6.3435">
        <ele>358.9004</ele>
        <time>2026-05-17T14:16:21+02:00</time>
      </trkpt>
      <trkpt lat="48.17415" lon="6.34358">
        <ele>359</ele>
        <time>2026-05-17T14:16:22+02:00</time>
      </trkpt>
      <trkpt lat="48.17412" lon="6.34366">
        <ele>359</ele>
        <time>2026-05-17T14:16:23+02:00</time>
      </trkpt>
      <trkpt lat="48.17409" lon="6.34374">
        <ele>359</ele>
        <time>2026-05-17T14:16:24+02:00</time>
      </trkpt>
      <trkpt lat="48.17407" lon="6.34382">
        <ele>358.7998</ele>
        <time>2026-05-17T14:16:25+02:00</time>
      </trkpt>
      <trkpt lat="48.17404" lon="6.3439">
        <ele>358.7002</ele>
        <time>2026-05-17T14:16:26+02:00</time>
      </trkpt>
      <trkpt lat="48.17402" lon="6.34398">
        <ele>358.5</ele>
        <time>2026-05-17T14:16:27+02:00</time>
      </trkpt>
      <trkpt lat="48.17399" lon="6.34407">
        <ele>358.4004</ele>
        <time>2026-05-17T14:16:28+02:00</time>
      </trkpt>
      <trkpt lat="48.17396" lon="6.34415">
        <ele>358.2998</ele>
        <time>2026-05-17T14:16:29+02:00</time>
      </trkpt>
      <trkpt lat="48.17394" lon="6.34423">
        <ele>358.2002</ele>
        <time>2026-05-17T14:16:30+02:00</time>
      </trkpt>
      <trkpt lat="48.17391" lon="6.34431">
        <ele>358.2002</ele>
        <time>2026-05-17T14:16:31+02:00</time>
      </trkpt>
      <trkpt lat="48.17388" lon="6.34439">
        <ele>358</ele>
        <time>2026-05-17T14:16:32+02:00</time>
      </trkpt>
      <trkpt lat="48.17386" lon="6.34447">
        <ele>357.9004</ele>
        <time>2026-05-17T14:16:33+02:00</time>
      </trkpt>
      <trkpt lat="48.17383" lon="6.34455">
        <ele>357.7998</ele>
        <time>2026-05-17T14:16:34+02:00</time>
      </trkpt>
      <trkpt lat="48.1738" lon="6.34462">
        <ele>357.7998</ele>
        <time>2026-05-17T14:16:35+02:00</time>
      </trkpt>
      <trkpt lat="48.17377" lon="6.3447">
        <ele>357.7002</ele>
        <time>2026-05-17T14:16:36+02:00</time>
      </trkpt>
      <trkpt lat="48.17374" lon="6.34477">
        <ele>357.9004</ele>
        <time>2026-05-17T14:16:37+02:00</time>
      </trkpt>
      <trkpt lat="48.17371" lon="6.34484">
        <ele>357.7998</ele>
        <time>2026-05-17T14:16:38+02:00</time>
      </trkpt>
      <trkpt lat="48.17367" lon="6.34491">
        <ele>357.9004</ele>
        <time>2026-05-17T14:16:39+02:00</time>
      </trkpt>
      <trkpt lat="48.17364" lon="6.34498">
        <ele>358</ele>
        <time>2026-05-17T14:16:40+02:00</time>
      </trkpt>
      <trkpt lat="48.17361" lon="6.34505">
        <ele>358</ele>
        <time>2026-05-17T14:16:41+02:00</time>
      </trkpt>
      <trkpt lat="48.17357" lon="6.34511">
        <ele>358.2002</ele>
        <time>2026-05-17T14:16:42+02:00</time>
      </trkpt>
      <trkpt lat="48.17354" lon="6.34517">
        <ele>358.2998</ele>
        <time>2026-05-17T14:16:43+02:00</time>
      </trkpt>
      <trkpt lat="48.1735" lon="6.34524">
        <ele>358.6006</ele>
        <time>2026-05-17T14:16:44+02:00</time>
      </trkpt>
      <trkpt lat="48.17346" lon="6.3453">
        <ele>358.7998</ele>
        <time>2026-05-17T14:16:45+02:00</time>
      </trkpt>
      <trkpt lat="48.17342" lon="6.34536">
        <ele>358.7998</ele>
        <time>2026-05-17T14:16:46+02:00</time>
      </trkpt>
      <trkpt lat="48.17338" lon="6.34542">
        <ele>359.1006</ele>
        <time>2026-05-17T14:16:47+02:00</time>
      </trkpt>
      <trkpt lat="48.17334" lon="6.34548">
        <ele>359.5</ele>
        <time>2026-05-17T14:16:48+02:00</time>
      </trkpt>
      <trkpt lat="48.1733" lon="6.34554">
        <ele>359.5</ele>
        <time>2026-05-17T14:16:49+02:00</time>
      </trkpt>
      <trkpt lat="48.17325" lon="6.3456">
        <ele>359.9004</ele>
        <time>2026-05-17T14:16:50+02:00</time>
      </trkpt>
      <trkpt lat="48.17321" lon="6.34566">
        <ele>360.2998</ele>
        <time>2026-05-17T14:16:51+02:00</time>
      </trkpt>
      <trkpt lat="48.17317" lon="6.34572">
        <ele>360.6006</ele>
        <time>2026-05-17T14:16:52+02:00</time>
      </trkpt>
      <trkpt lat="48.17312" lon="6.34578">
        <ele>361</ele>
        <time>2026-05-17T14:16:53+02:00</time>
      </trkpt>
      <trkpt lat="48.17308" lon="6.34584">
        <ele>361.2002</ele>
        <time>2026-05-17T14:16:54+02:00</time>
      </trkpt>
      <trkpt lat="48.17303" lon="6.34589">
        <ele>361.4004</ele>
        <time>2026-05-17T14:16:55+02:00</time>
      </trkpt>
      <trkpt lat="48.17299" lon="6.34595">
        <ele>361.7998</ele>
        <time>2026-05-17T14:16:56+02:00</time>
      </trkpt>
      <trkpt lat="48.17295" lon="6.34601">
        <ele>362.2002</ele>
        <time>2026-05-17T14:16:57+02:00</time>
      </trkpt>
      <trkpt lat="48.1729" lon="6.34607">
        <ele>362.4004</ele>
        <time>2026-05-17T14:16:58+02:00</time>
      </trkpt>
      <trkpt lat="48.17286" lon="6.34613">
        <ele>362.6006</ele>
        <time>2026-05-17T14:16:59+02:00</time>
      </trkpt>
      <trkpt lat="48.17282" lon="6.3462">
        <ele>363</ele>
        <time>2026-05-17T14:17:00+02:00</time>
      </trkpt>
      <trkpt lat="48.17278" lon="6.34626">
        <ele>363.4004</ele>
        <time>2026-05-17T14:17:01+02:00</time>
      </trkpt>
      <trkpt lat="48.17274" lon="6.34632">
        <ele>363.4004</ele>
        <time>2026-05-17T14:17:02+02:00</time>
      </trkpt>
      <trkpt lat="48.1727" lon="6.34639">
        <ele>363.7002</ele>
        <time>2026-05-17T14:17:03+02:00</time>
      </trkpt>
      <trkpt lat="48.17266" lon="6.34646">
        <ele>363.7998</ele>
        <time>2026-05-17T14:17:04+02:00</time>
      </trkpt>
      <trkpt lat="48.17262" lon="6.34652">
        <ele>363.9004</ele>
        <time>2026-05-17T14:17:05+02:00</time>
      </trkpt>
      <trkpt lat="48.17258" lon="6.34659">
        <ele>364</ele>
        <time>2026-05-17T14:17:06+02:00</time>
      </trkpt>
      <trkpt lat="48.17255" lon="6.34666">
        <ele>364.1006</ele>
        <time>2026-05-17T14:17:07+02:00</time>
      </trkpt>
      <trkpt lat="48.17251" lon="6.34672">
        <ele>364.1006</ele>
        <time>2026-05-17T14:17:08+02:00</time>
      </trkpt>
      <trkpt lat="48.17248" lon="6.34679">
        <ele>364.1006</ele>
        <time>2026-05-17T14:17:09+02:00</time>
      </trkpt>
      <trkpt lat="48.17244" lon="6.34685">
        <ele>364.1006</ele>
        <time>2026-05-17T14:17:10+02:00</time>
      </trkpt>
      <trkpt lat="48.17241" lon="6.34692">
        <ele>364.1006</ele>
        <time>2026-05-17T14:17:11+02:00</time>
      </trkpt>
      <trkpt lat="48.17238" lon="6.34699">
        <ele>364.1006</ele>
        <time>2026-05-17T14:17:12+02:00</time>
      </trkpt>
      <trkpt lat="48.17234" lon="6.34706">
        <ele>364.1006</ele>
        <time>2026-05-17T14:17:13+02:00</time>
      </trkpt>
      <trkpt lat="48.17231" lon="6.34713">
        <ele>364</ele>
        <time>2026-05-17T14:17:14+02:00</time>
      </trkpt>
      <trkpt lat="48.17227" lon="6.3472">
        <ele>364</ele>
        <time>2026-05-17T14:17:15+02:00</time>
      </trkpt>
      <trkpt lat="48.17223" lon="6.34727">
        <ele>363.9004</ele>
        <time>2026-05-17T14:17:16+02:00</time>
      </trkpt>
      <trkpt lat="48.1722" lon="6.34734">
        <ele>363.7998</ele>
        <time>2026-05-17T14:17:17+02:00</time>
      </trkpt>
      <trkpt lat="48.17216" lon="6.3474">
        <ele>363.7998</ele>
        <time>2026-05-17T14:17:18+02:00</time>
      </trkpt>
      <trkpt lat="48.17213" lon="6.34747">
        <ele>363.7998</ele>
        <time>2026-05-17T14:17:19+02:00</time>
      </trkpt>
      <trkpt lat="48.1721" lon="6.34754">
        <ele>363.7998</ele>
        <time>2026-05-17T14:17:20+02:00</time>
      </trkpt>
      <trkpt lat="48.17207" lon="6.3476">
        <ele>363.7002</ele>
        <time>2026-05-17T14:17:21+02:00</time>
      </trkpt>
      <trkpt lat="48.17204" lon="6.34766">
        <ele>363.7998</ele>
        <time>2026-05-17T14:17:22+02:00</time>
      </trkpt>
      <trkpt lat="48.17201" lon="6.34773">
        <ele>363.7998</ele>
        <time>2026-05-17T14:17:23+02:00</time>
      </trkpt>
      <trkpt lat="48.17197" lon="6.3478">
        <ele>363.7998</ele>
        <time>2026-05-17T14:17:24+02:00</time>
      </trkpt>
      <trkpt lat="48.17194" lon="6.34787">
        <ele>364</ele>
        <time>2026-05-17T14:17:25+02:00</time>
      </trkpt>
      <trkpt lat="48.17191" lon="6.34794">
        <ele>363.9004</ele>
        <time>2026-05-17T14:17:26+02:00</time>
      </trkpt>
      <trkpt lat="48.17187" lon="6.348">
        <ele>364.1006</ele>
        <time>2026-05-17T14:17:27+02:00</time>
      </trkpt>
      <trkpt lat="48.17184" lon="6.34807">
        <ele>364.2002</ele>
        <time>2026-05-17T14:17:28+02:00</time>
      </trkpt>
      <trkpt lat="48.17181" lon="6.34813">
        <ele>364.2998</ele>
        <time>2026-05-17T14:17:29+02:00</time>
      </trkpt>
      <trkpt lat="48.17178" lon="6.3482">
        <ele>364.2998</ele>
        <time>2026-05-17T14:17:30+02:00</time>
      </trkpt>
      <trkpt lat="48.17175" lon="6.34826">
        <ele>364.2998</ele>
        <time>2026-05-17T14:17:31+02:00</time>
      </trkpt>
      <trkpt lat="48.17172" lon="6.34832">
        <ele>364.5</ele>
        <time>2026-05-17T14:17:32+02:00</time>
      </trkpt>
      <trkpt lat="48.17169" lon="6.34839">
        <ele>364.5</ele>
        <time>2026-05-17T14:17:33+02:00</time>
      </trkpt>
      <trkpt lat="48.17166" lon="6.34845">
        <ele>364.5</ele>
        <time>2026-05-17T14:17:34+02:00</time>
      </trkpt>
      <trkpt lat="48.17164" lon="6.34848">
        <ele>364.6006</ele>
        <time>2026-05-17T14:17:35+02:00</time>
      </trkpt>
      <trkpt lat="48.17159" lon="6.34858">
        <ele>364.5</ele>
        <time>2026-05-17T14:17:36+02:00</time>
      </trkpt>
      <trkpt lat="48.17157" lon="6.34864">
        <ele>364.4004</ele>
        <time>2026-05-17T14:17:37+02:00</time>
      </trkpt>
      <trkpt lat="48.17154" lon="6.3487">
        <ele>364.4004</ele>
        <time>2026-05-17T14:17:38+02:00</time>
      </trkpt>
      <trkpt lat="48.1715" lon="6.34876">
        <ele>364.2998</ele>
        <time>2026-05-17T14:17:39+02:00</time>
      </trkpt>
      <trkpt lat="48.17147" lon="6.34883">
        <ele>364.2998</ele>
        <time>2026-05-17T14:17:40+02:00</time>
      </trkpt>
      <trkpt lat="48.17144" lon="6.34889">
        <ele>364.1006</ele>
        <time>2026-05-17T14:17:41+02:00</time>
      </trkpt>
      <trkpt lat="48.17141" lon="6.34896">
        <ele>364.1006</ele>
        <time>2026-05-17T14:17:42+02:00</time>
      </trkpt>
      <trkpt lat="48.17137" lon="6.34903">
        <ele>363.7998</ele>
        <time>2026-05-17T14:17:43+02:00</time>
      </trkpt>
      <trkpt lat="48.17134" lon="6.3491">
        <ele>363.4004</ele>
        <time>2026-05-17T14:17:44+02:00</time>
      </trkpt>
      <trkpt lat="48.1713" lon="6.34917">
        <ele>363.5</ele>
        <time>2026-05-17T14:17:45+02:00</time>
      </trkpt>
      <trkpt lat="48.17127" lon="6.34924">
        <ele>363.2002</ele>
        <time>2026-05-17T14:17:46+02:00</time>
      </trkpt>
      <trkpt lat="48.17123" lon="6.34931">
        <ele>362.9004</ele>
        <time>2026-05-17T14:17:47+02:00</time>
      </trkpt>
      <trkpt lat="48.1712" lon="6.34938">
        <ele>362.9004</ele>
        <time>2026-05-17T14:17:48+02:00</time>
      </trkpt>
      <trkpt lat="48.17116" lon="6.34945">
        <ele>362.6006</ele>
        <time>2026-05-17T14:17:49+02:00</time>
      </trkpt>
      <trkpt lat="48.17113" lon="6.34952">
        <ele>362.6006</ele>
        <time>2026-05-17T14:17:50+02:00</time>
      </trkpt>
      <trkpt lat="48.1711" lon="6.34958">
        <ele>362.2002</ele>
        <time>2026-05-17T14:17:51+02:00</time>
      </trkpt>
      <trkpt lat="48.17107" lon="6.34965">
        <ele>362.2998</ele>
        <time>2026-05-17T14:17:52+02:00</time>
      </trkpt>
      <trkpt lat="48.17104" lon="6.34972">
        <ele>362.1006</ele>
        <time>2026-05-17T14:17:53+02:00</time>
      </trkpt>
      <trkpt lat="48.171" lon="6.34978">
        <ele>361.7998</ele>
        <time>2026-05-17T14:17:54+02:00</time>
      </trkpt>
      <trkpt lat="48.17097" lon="6.34985">
        <ele>362</ele>
        <time>2026-05-17T14:17:55+02:00</time>
      </trkpt>
      <trkpt lat="48.17094" lon="6.34992">
        <ele>361.6006</ele>
        <time>2026-05-17T14:17:56+02:00</time>
      </trkpt>
      <trkpt lat="48.1709" lon="6.34998">
        <ele>361.7002</ele>
        <time>2026-05-17T14:17:57+02:00</time>
      </trkpt>
      <trkpt lat="48.17087" lon="6.35005">
        <ele>361.2998</ele>
        <time>2026-05-17T14:17:58+02:00</time>
      </trkpt>
      <trkpt lat="48.17084" lon="6.35012">
        <ele>361.6006</ele>
        <time>2026-05-17T14:17:59+02:00</time>
      </trkpt>
      <trkpt lat="48.1708" lon="6.35018">
        <ele>361.2998</ele>
        <time>2026-05-17T14:18:00+02:00</time>
      </trkpt>
      <trkpt lat="48.17077" lon="6.35025">
        <ele>361.4004</ele>
        <time>2026-05-17T14:18:01+02:00</time>
      </trkpt>
      <trkpt lat="48.17074" lon="6.35031">
        <ele>361.6006</ele>
        <time>2026-05-17T14:18:02+02:00</time>
      </trkpt>
      <trkpt lat="48.17071" lon="6.35038">
        <ele>361.7998</ele>
        <time>2026-05-17T14:18:03+02:00</time>
      </trkpt>
      <trkpt lat="48.17067" lon="6.35045">
        <ele>361.9004</ele>
        <time>2026-05-17T14:18:04+02:00</time>
      </trkpt>
      <trkpt lat="48.17064" lon="6.35052">
        <ele>361.9004</ele>
        <time>2026-05-17T14:18:05+02:00</time>
      </trkpt>
      <trkpt lat="48.17061" lon="6.35059">
        <ele>362</ele>
        <time>2026-05-17T14:18:06+02:00</time>
      </trkpt>
      <trkpt lat="48.17057" lon="6.35066">
        <ele>362.1006</ele>
        <time>2026-05-17T14:18:07+02:00</time>
      </trkpt>
      <trkpt lat="48.17054" lon="6.35073">
        <ele>362.1006</ele>
        <time>2026-05-17T14:18:08+02:00</time>
      </trkpt>
      <trkpt lat="48.1705" lon="6.3508">
        <ele>362.2002</ele>
        <time>2026-05-17T14:18:09+02:00</time>
      </trkpt>
      <trkpt lat="48.17047" lon="6.35087">
        <ele>362.2002</ele>
        <time>2026-05-17T14:18:10+02:00</time>
      </trkpt>
      <trkpt lat="48.17043" lon="6.35094">
        <ele>362.2998</ele>
        <time>2026-05-17T14:18:11+02:00</time>
      </trkpt>
      <trkpt lat="48.1704" lon="6.35101">
        <ele>362.2002</ele>
        <time>2026-05-17T14:18:12+02:00</time>
      </trkpt>
      <trkpt lat="48.17037" lon="6.35109">
        <ele>362.2002</ele>
        <time>2026-05-17T14:18:13+02:00</time>
      </trkpt>
      <trkpt lat="48.17033" lon="6.35116">
        <ele>362.1006</ele>
        <time>2026-05-17T14:18:14+02:00</time>
      </trkpt>
      <trkpt lat="48.17029" lon="6.35123">
        <ele>362</ele>
        <time>2026-05-17T14:18:15+02:00</time>
      </trkpt>
      <trkpt lat="48.17026" lon="6.3513">
        <ele>361.9004</ele>
        <time>2026-05-17T14:18:16+02:00</time>
      </trkpt>
      <trkpt lat="48.17022" lon="6.35137">
        <ele>361.9004</ele>
        <time>2026-05-17T14:18:17+02:00</time>
      </trkpt>
      <trkpt lat="48.17018" lon="6.35144">
        <ele>361.7998</ele>
        <time>2026-05-17T14:18:18+02:00</time>
      </trkpt>
      <trkpt lat="48.17014" lon="6.35151">
        <ele>361.7002</ele>
        <time>2026-05-17T14:18:19+02:00</time>
      </trkpt>
      <trkpt lat="48.17011" lon="6.35158">
        <ele>361.6006</ele>
        <time>2026-05-17T14:18:20+02:00</time>
      </trkpt>
      <trkpt lat="48.17008" lon="6.35165">
        <ele>361.5</ele>
        <time>2026-05-17T14:18:21+02:00</time>
      </trkpt>
      <trkpt lat="48.17004" lon="6.35172">
        <ele>361.5</ele>
        <time>2026-05-17T14:18:22+02:00</time>
      </trkpt>
      <trkpt lat="48.17001" lon="6.35179">
        <ele>361.4004</ele>
        <time>2026-05-17T14:18:23+02:00</time>
      </trkpt>
      <trkpt lat="48.16998" lon="6.35185">
        <ele>361.2998</ele>
        <time>2026-05-17T14:18:24+02:00</time>
      </trkpt>
      <trkpt lat="48.16994" lon="6.35192">
        <ele>361.2998</ele>
        <time>2026-05-17T14:18:25+02:00</time>
      </trkpt>
      <trkpt lat="48.16992" lon="6.35199">
        <ele>361.2998</ele>
        <time>2026-05-17T14:18:26+02:00</time>
      </trkpt>
      <trkpt lat="48.16989" lon="6.35206">
        <ele>361.2998</ele>
        <time>2026-05-17T14:18:27+02:00</time>
      </trkpt>
      <trkpt lat="48.16987" lon="6.35213">
        <ele>361.2998</ele>
        <time>2026-05-17T14:18:28+02:00</time>
      </trkpt>
      <trkpt lat="48.16984" lon="6.3522">
        <ele>361.5</ele>
        <time>2026-05-17T14:18:29+02:00</time>
      </trkpt>
      <trkpt lat="48.16981" lon="6.35227">
        <ele>361.5</ele>
        <time>2026-05-17T14:18:30+02:00</time>
      </trkpt>
      <trkpt lat="48.16979" lon="6.35235">
        <ele>361.7998</ele>
        <time>2026-05-17T14:18:31+02:00</time>
      </trkpt>
      <trkpt lat="48.16977" lon="6.35243">
        <ele>361.9004</ele>
        <time>2026-05-17T14:18:32+02:00</time>
      </trkpt>
      <trkpt lat="48.16976" lon="6.3525">
        <ele>361.9004</ele>
        <time>2026-05-17T14:18:33+02:00</time>
      </trkpt>
      <trkpt lat="48.16974" lon="6.35258">
        <ele>362.1006</ele>
        <time>2026-05-17T14:18:34+02:00</time>
      </trkpt>
      <trkpt lat="48.16973" lon="6.35266">
        <ele>362.2002</ele>
        <time>2026-05-17T14:18:35+02:00</time>
      </trkpt>
      <trkpt lat="48.16972" lon="6.35274">
        <ele>362.2998</ele>
        <time>2026-05-17T14:18:36+02:00</time>
      </trkpt>
      <trkpt lat="48.16971" lon="6.35282">
        <ele>362.4004</ele>
        <time>2026-05-17T14:18:37+02:00</time>
      </trkpt>
      <trkpt lat="48.16971" lon="6.3529">
        <ele>362.4004</ele>
        <time>2026-05-17T14:18:38+02:00</time>
      </trkpt>
      <trkpt lat="48.1697" lon="6.35298">
        <ele>362.5</ele>
        <time>2026-05-17T14:18:39+02:00</time>
      </trkpt>
      <trkpt lat="48.1697" lon="6.35306">
        <ele>362.6006</ele>
        <time>2026-05-17T14:18:40+02:00</time>
      </trkpt>
      <trkpt lat="48.16971" lon="6.35314">
        <ele>362.6006</ele>
        <time>2026-05-17T14:18:41+02:00</time>
      </trkpt>
      <trkpt lat="48.16971" lon="6.35322">
        <ele>362.6006</ele>
        <time>2026-05-17T14:18:42+02:00</time>
      </trkpt>
      <trkpt lat="48.16972" lon="6.35331">
        <ele>362.6006</ele>
        <time>2026-05-17T14:18:43+02:00</time>
      </trkpt>
      <trkpt lat="48.16973" lon="6.35339">
        <ele>362.6006</ele>
        <time>2026-05-17T14:18:44+02:00</time>
      </trkpt>
      <trkpt lat="48.16974" lon="6.35347">
        <ele>362.6006</ele>
        <time>2026-05-17T14:18:45+02:00</time>
      </trkpt>
      <trkpt lat="48.16976" lon="6.35355">
        <ele>362.5</ele>
        <time>2026-05-17T14:18:46+02:00</time>
      </trkpt>
      <trkpt lat="48.16977" lon="6.35363">
        <ele>362.4004</ele>
        <time>2026-05-17T14:18:47+02:00</time>
      </trkpt>
      <trkpt lat="48.16979" lon="6.35371">
        <ele>362.2002</ele>
        <time>2026-05-17T14:18:48+02:00</time>
      </trkpt>
      <trkpt lat="48.16981" lon="6.35379">
        <ele>361.9004</ele>
        <time>2026-05-17T14:18:49+02:00</time>
      </trkpt>
      <trkpt lat="48.16983" lon="6.35386">
        <ele>361.9004</ele>
        <time>2026-05-17T14:18:50+02:00</time>
      </trkpt>
      <trkpt lat="48.16985" lon="6.35394">
        <ele>361.6006</ele>
        <time>2026-05-17T14:18:51+02:00</time>
      </trkpt>
      <trkpt lat="48.16988" lon="6.35402">
        <ele>361.2998</ele>
        <time>2026-05-17T14:18:52+02:00</time>
      </trkpt>
      <trkpt lat="48.1699" lon="6.3541">
        <ele>360.9004</ele>
        <time>2026-05-17T14:18:53+02:00</time>
      </trkpt>
      <trkpt lat="48.16993" lon="6.35417">
        <ele>360.2998</ele>
        <time>2026-05-17T14:18:54+02:00</time>
      </trkpt>
      <trkpt lat="48.16997" lon="6.35424">
        <ele>360</ele>
        <time>2026-05-17T14:18:55+02:00</time>
      </trkpt>
      <trkpt lat="48.17" lon="6.3543">
        <ele>359.7998</ele>
        <time>2026-05-17T14:18:56+02:00</time>
      </trkpt>
      <trkpt lat="48.17005" lon="6.35436">
        <ele>359.5</ele>
        <time>2026-05-17T14:18:57+02:00</time>
      </trkpt>
      <trkpt lat="48.17009" lon="6.35443">
        <ele>359.4004</ele>
        <time>2026-05-17T14:18:58+02:00</time>
      </trkpt>
      <trkpt lat="48.17013" lon="6.3545">
        <ele>359.4004</ele>
        <time>2026-05-17T14:18:59+02:00</time>
      </trkpt>
      <trkpt lat="48.17017" lon="6.35456">
        <ele>359.5</ele>
        <time>2026-05-17T14:19:00+02:00</time>
      </trkpt>
      <trkpt lat="48.17021" lon="6.35463">
        <ele>359.5</ele>
        <time>2026-05-17T14:19:01+02:00</time>
      </trkpt>
      <trkpt lat="48.17025" lon="6.3547">
        <ele>359.5</ele>
        <time>2026-05-17T14:19:02+02:00</time>
      </trkpt>
      <trkpt lat="48.17029" lon="6.35477">
        <ele>359.7998</ele>
        <time>2026-05-17T14:19:03+02:00</time>
      </trkpt>
      <trkpt lat="48.17034" lon="6.35484">
        <ele>360.4004</ele>
        <time>2026-05-17T14:19:04+02:00</time>
      </trkpt>
      <trkpt lat="48.17038" lon="6.35491">
        <ele>361.1006</ele>
        <time>2026-05-17T14:19:05+02:00</time>
      </trkpt>
      <trkpt lat="48.17042" lon="6.35498">
        <ele>361.1006</ele>
        <time>2026-05-17T14:19:06+02:00</time>
      </trkpt>
      <trkpt lat="48.17046" lon="6.35505">
        <ele>361.7998</ele>
        <time>2026-05-17T14:19:07+02:00</time>
      </trkpt>
      <trkpt lat="48.1705" lon="6.35511">
        <ele>362.2998</ele>
        <time>2026-05-17T14:19:08+02:00</time>
      </trkpt>
      <trkpt lat="48.17054" lon="6.35519">
        <ele>362.6006</ele>
        <time>2026-05-17T14:19:09+02:00</time>
      </trkpt>
      <trkpt lat="48.17058" lon="6.35525">
        <ele>363</ele>
        <time>2026-05-17T14:19:10+02:00</time>
      </trkpt>
      <trkpt lat="48.17063" lon="6.35532">
        <ele>363.1006</ele>
        <time>2026-05-17T14:19:11+02:00</time>
      </trkpt>
      <trkpt lat="48.17067" lon="6.35539">
        <ele>363.4004</ele>
        <time>2026-05-17T14:19:12+02:00</time>
      </trkpt>
      <trkpt lat="48.17071" lon="6.35546">
        <ele>363.7002</ele>
        <time>2026-05-17T14:19:13+02:00</time>
      </trkpt>
      <trkpt lat="48.17075" lon="6.35552">
        <ele>364.1006</ele>
        <time>2026-05-17T14:19:14+02:00</time>
      </trkpt>
      <trkpt lat="48.17079" lon="6.35559">
        <ele>364</ele>
        <time>2026-05-17T14:19:15+02:00</time>
      </trkpt>
      <trkpt lat="48.17081" lon="6.35563">
        <ele>364.2998</ele>
        <time>2026-05-17T14:19:16+02:00</time>
      </trkpt>
      <trkpt lat="48.17087" lon="6.35573">
        <ele>364.6006</ele>
        <time>2026-05-17T14:19:17+02:00</time>
      </trkpt>
      <trkpt lat="48.17092" lon="6.35578">
        <ele>364.7998</ele>
        <time>2026-05-17T14:19:18+02:00</time>
      </trkpt>
      <trkpt lat="48.17098" lon="6.35582">
        <ele>364.7002</ele>
        <time>2026-05-17T14:19:19+02:00</time>
      </trkpt>
      <trkpt lat="48.17103" lon="6.35585">
        <ele>364.9004</ele>
        <time>2026-05-17T14:19:20+02:00</time>
      </trkpt>
      <trkpt lat="48.17109" lon="6.35587">
        <ele>364.7002</ele>
        <time>2026-05-17T14:19:21+02:00</time>
      </trkpt>
      <trkpt lat="48.17116" lon="6.35588">
        <ele>364.5</ele>
        <time>2026-05-17T14:19:22+02:00</time>
      </trkpt>
      <trkpt lat="48.17121" lon="6.35587">
        <ele>364.2998</ele>
        <time>2026-05-17T14:19:23+02:00</time>
      </trkpt>
      <trkpt lat="48.17127" lon="6.35586">
        <ele>364.1006</ele>
        <time>2026-05-17T14:19:24+02:00</time>
      </trkpt>
      <trkpt lat="48.17133" lon="6.35585">
        <ele>363.9004</ele>
        <time>2026-05-17T14:19:25+02:00</time>
      </trkpt>
      <trkpt lat="48.17139" lon="6.35583">
        <ele>363.5</ele>
        <time>2026-05-17T14:19:26+02:00</time>
      </trkpt>
      <trkpt lat="48.17145" lon="6.35582">
        <ele>363.2998</ele>
        <time>2026-05-17T14:19:27+02:00</time>
      </trkpt>
      <trkpt lat="48.17151" lon="6.3558">
        <ele>363.1006</ele>
        <time>2026-05-17T14:19:28+02:00</time>
      </trkpt>
      <trkpt lat="48.17156" lon="6.35579">
        <ele>362.9004</ele>
        <time>2026-05-17T14:19:29+02:00</time>
      </trkpt>
      <trkpt lat="48.17162" lon="6.35577">
        <ele>362.7002</ele>
        <time>2026-05-17T14:19:30+02:00</time>
      </trkpt>
      <trkpt lat="48.17168" lon="6.35576">
        <ele>362.4004</ele>
        <time>2026-05-17T14:19:31+02:00</time>
      </trkpt>
      <trkpt lat="48.17174" lon="6.35574">
        <ele>362.2998</ele>
        <time>2026-05-17T14:19:32+02:00</time>
      </trkpt>
      <trkpt lat="48.1718" lon="6.35573">
        <ele>362.2002</ele>
        <time>2026-05-17T14:19:33+02:00</time>
      </trkpt>
      <trkpt lat="48.17185" lon="6.35571">
        <ele>362.2002</ele>
        <time>2026-05-17T14:19:34+02:00</time>
      </trkpt>
      <trkpt lat="48.17191" lon="6.3557">
        <ele>362.1006</ele>
        <time>2026-05-17T14:19:35+02:00</time>
      </trkpt>
      <trkpt lat="48.17197" lon="6.35568">
        <ele>362.1006</ele>
        <time>2026-05-17T14:19:36+02:00</time>
      </trkpt>
      <trkpt lat="48.17203" lon="6.35567">
        <ele>362.1006</ele>
        <time>2026-05-17T14:19:37+02:00</time>
      </trkpt>
      <trkpt lat="48.17208" lon="6.35566">
        <ele>362.1006</ele>
        <time>2026-05-17T14:19:38+02:00</time>
      </trkpt>
      <trkpt lat="48.17214" lon="6.35564">
        <ele>362.1006</ele>
        <time>2026-05-17T14:19:39+02:00</time>
      </trkpt>
      <trkpt lat="48.1722" lon="6.35563">
        <ele>362.1006</ele>
        <time>2026-05-17T14:19:40+02:00</time>
      </trkpt>
      <trkpt lat="48.17225" lon="6.35561">
        <ele>362</ele>
        <time>2026-05-17T14:19:41+02:00</time>
      </trkpt>
      <trkpt lat="48.17231" lon="6.3556">
        <ele>362</ele>
        <time>2026-05-17T14:19:42+02:00</time>
      </trkpt>
      <trkpt lat="48.17236" lon="6.35559">
        <ele>362</ele>
        <time>2026-05-17T14:19:43+02:00</time>
      </trkpt>
      <trkpt lat="48.17242" lon="6.35558">
        <ele>362</ele>
        <time>2026-05-17T14:19:44+02:00</time>
      </trkpt>
      <trkpt lat="48.17247" lon="6.35556">
        <ele>362</ele>
        <time>2026-05-17T14:19:45+02:00</time>
      </trkpt>
      <trkpt lat="48.17253" lon="6.35555">
        <ele>362</ele>
        <time>2026-05-17T14:19:46+02:00</time>
      </trkpt>
      <trkpt lat="48.17259" lon="6.35554">
        <ele>362</ele>
        <time>2026-05-17T14:19:47+02:00</time>
      </trkpt>
      <trkpt lat="48.17264" lon="6.35552">
        <ele>362</ele>
        <time>2026-05-17T14:19:48+02:00</time>
      </trkpt>
      <trkpt lat="48.1727" lon="6.35551">
        <ele>362</ele>
        <time>2026-05-17T14:19:49+02:00</time>
      </trkpt>
      <trkpt lat="48.17276" lon="6.35549">
        <ele>361.9004</ele>
        <time>2026-05-17T14:19:50+02:00</time>
      </trkpt>
      <trkpt lat="48.17281" lon="6.35547">
        <ele>361.9004</ele>
        <time>2026-05-17T14:19:51+02:00</time>
      </trkpt>
      <trkpt lat="48.17288" lon="6.35546">
        <ele>361.7002</ele>
        <time>2026-05-17T14:19:52+02:00</time>
      </trkpt>
      <trkpt lat="48.17293" lon="6.35544">
        <ele>361.5</ele>
        <time>2026-05-17T14:19:53+02:00</time>
      </trkpt>
      <trkpt lat="48.17299" lon="6.35542">
        <ele>361.2998</ele>
        <time>2026-05-17T14:19:54+02:00</time>
      </trkpt>
      <trkpt lat="48.17305" lon="6.3554">
        <ele>361.1006</ele>
        <time>2026-05-17T14:19:55+02:00</time>
      </trkpt>
      <trkpt lat="48.17311" lon="6.35539">
        <ele>361</ele>
        <time>2026-05-17T14:19:56+02:00</time>
      </trkpt>
      <trkpt lat="48.17317" lon="6.35537">
        <ele>360.9004</ele>
        <time>2026-05-17T14:19:57+02:00</time>
      </trkpt>
      <trkpt lat="48.17323" lon="6.35535">
        <ele>360.7998</ele>
        <time>2026-05-17T14:19:58+02:00</time>
      </trkpt>
      <trkpt lat="48.17329" lon="6.35533">
        <ele>360.6006</ele>
        <time>2026-05-17T14:19:59+02:00</time>
      </trkpt>
      <trkpt lat="48.17335" lon="6.35531">
        <ele>360.6006</ele>
        <time>2026-05-17T14:20:00+02:00</time>
      </trkpt>
      <trkpt lat="48.17341" lon="6.3553">
        <ele>360.6006</ele>
        <time>2026-05-17T14:20:01+02:00</time>
      </trkpt>
      <trkpt lat="48.17347" lon="6.35528">
        <ele>360.7002</ele>
        <time>2026-05-17T14:20:02+02:00</time>
      </trkpt>
      <trkpt lat="48.17353" lon="6.35526">
        <ele>360.9004</ele>
        <time>2026-05-17T14:20:03+02:00</time>
      </trkpt>
      <trkpt lat="48.17359" lon="6.35525">
        <ele>361.1006</ele>
        <time>2026-05-17T14:20:04+02:00</time>
      </trkpt>
      <trkpt lat="48.17365" lon="6.35523">
        <ele>361</ele>
        <time>2026-05-17T14:20:05+02:00</time>
      </trkpt>
      <trkpt lat="48.17371" lon="6.35521">
        <ele>361.2002</ele>
        <time>2026-05-17T14:20:06+02:00</time>
      </trkpt>
      <trkpt lat="48.17377" lon="6.35519">
        <ele>361.4004</ele>
        <time>2026-05-17T14:20:07+02:00</time>
      </trkpt>
      <trkpt lat="48.17383" lon="6.35518">
        <ele>361.7002</ele>
        <time>2026-05-17T14:20:08+02:00</time>
      </trkpt>
      <trkpt lat="48.17389" lon="6.35516">
        <ele>361.7002</ele>
        <time>2026-05-17T14:20:09+02:00</time>
      </trkpt>
      <trkpt lat="48.17395" lon="6.35514">
        <ele>361.7998</ele>
        <time>2026-05-17T14:20:10+02:00</time>
      </trkpt>
      <trkpt lat="48.17401" lon="6.35512">
        <ele>361.7998</ele>
        <time>2026-05-17T14:20:11+02:00</time>
      </trkpt>
      <trkpt lat="48.17407" lon="6.3551">
        <ele>361.7998</ele>
        <time>2026-05-17T14:20:12+02:00</time>
      </trkpt>
      <trkpt lat="48.17413" lon="6.35508">
        <ele>361.7998</ele>
        <time>2026-05-17T14:20:13+02:00</time>
      </trkpt>
      <trkpt lat="48.17419" lon="6.35507">
        <ele>361.6006</ele>
        <time>2026-05-17T14:20:14+02:00</time>
      </trkpt>
      <trkpt lat="48.17425" lon="6.35505">
        <ele>361.6006</ele>
        <time>2026-05-17T14:20:15+02:00</time>
      </trkpt>
      <trkpt lat="48.17432" lon="6.35503">
        <ele>361.6006</ele>
        <time>2026-05-17T14:20:16+02:00</time>
      </trkpt>
      <trkpt lat="48.17438" lon="6.35502">
        <ele>361.6006</ele>
        <time>2026-05-17T14:20:17+02:00</time>
      </trkpt>
      <trkpt lat="48.17444" lon="6.355">
        <ele>361.6006</ele>
        <time>2026-05-17T14:20:18+02:00</time>
      </trkpt>
      <trkpt lat="48.1745" lon="6.35498">
        <ele>361.5</ele>
        <time>2026-05-17T14:20:19+02:00</time>
      </trkpt>
      <trkpt lat="48.17456" lon="6.35496">
        <ele>361.5</ele>
        <time>2026-05-17T14:20:20+02:00</time>
      </trkpt>
      <trkpt lat="48.17462" lon="6.35495">
        <ele>361.5</ele>
        <time>2026-05-17T14:20:21+02:00</time>
      </trkpt>
      <trkpt lat="48.17467" lon="6.35494">
        <ele>361.5</ele>
        <time>2026-05-17T14:20:22+02:00</time>
      </trkpt>
      <trkpt lat="48.17473" lon="6.35493">
        <ele>361.4004</ele>
        <time>2026-05-17T14:20:23+02:00</time>
      </trkpt>
      <trkpt lat="48.17479" lon="6.35493">
        <ele>361.4004</ele>
        <time>2026-05-17T14:20:24+02:00</time>
      </trkpt>
      <trkpt lat="48.17485" lon="6.35493">
        <ele>361.4004</ele>
        <time>2026-05-17T14:20:25+02:00</time>
      </trkpt>
      <trkpt lat="48.17491" lon="6.35493">
        <ele>361.4004</ele>
        <time>2026-05-17T14:20:26+02:00</time>
      </trkpt>
      <trkpt lat="48.17497" lon="6.35494">
        <ele>361.4004</ele>
        <time>2026-05-17T14:20:27+02:00</time>
      </trkpt>
      <trkpt lat="48.17503" lon="6.35495">
        <ele>361.4004</ele>
        <time>2026-05-17T14:20:28+02:00</time>
      </trkpt>
      <trkpt lat="48.17509" lon="6.35496">
        <ele>361.4004</ele>
        <time>2026-05-17T14:20:29+02:00</time>
      </trkpt>
      <trkpt lat="48.17515" lon="6.35498">
        <ele>361.2998</ele>
        <time>2026-05-17T14:20:30+02:00</time>
      </trkpt>
      <trkpt lat="48.17521" lon="6.355">
        <ele>361.2998</ele>
        <time>2026-05-17T14:20:31+02:00</time>
      </trkpt>
      <trkpt lat="48.17527" lon="6.35503">
        <ele>361.2002</ele>
        <time>2026-05-17T14:20:32+02:00</time>
      </trkpt>
      <trkpt lat="48.17533" lon="6.35506">
        <ele>361.2002</ele>
        <time>2026-05-17T14:20:33+02:00</time>
      </trkpt>
      <trkpt lat="48.17539" lon="6.35508">
        <ele>361.2002</ele>
        <time>2026-05-17T14:20:34+02:00</time>
      </trkpt>
      <trkpt lat="48.17544" lon="6.35513">
        <ele>361.2002</ele>
        <time>2026-05-17T14:20:35+02:00</time>
      </trkpt>
      <trkpt lat="48.1755" lon="6.35517">
        <ele>361.2998</ele>
        <time>2026-05-17T14:20:36+02:00</time>
      </trkpt>
      <trkpt lat="48.17556" lon="6.35522">
        <ele>361.2002</ele>
        <time>2026-05-17T14:20:37+02:00</time>
      </trkpt>
      <trkpt lat="48.17561" lon="6.35526">
        <ele>361.2002</ele>
        <time>2026-05-17T14:20:38+02:00</time>
      </trkpt>
      <trkpt lat="48.17566" lon="6.35531">
        <ele>361.2002</ele>
        <time>2026-05-17T14:20:39+02:00</time>
      </trkpt>
      <trkpt lat="48.17572" lon="6.35536">
        <ele>361.1006</ele>
        <time>2026-05-17T14:20:40+02:00</time>
      </trkpt>
      <trkpt lat="48.17577" lon="6.35541">
        <ele>361.2002</ele>
        <time>2026-05-17T14:20:41+02:00</time>
      </trkpt>
      <trkpt lat="48.17582" lon="6.35547">
        <ele>361.1006</ele>
        <time>2026-05-17T14:20:42+02:00</time>
      </trkpt>
      <trkpt lat="48.17586" lon="6.35552">
        <ele>361.1006</ele>
        <time>2026-05-17T14:20:43+02:00</time>
      </trkpt>
      <trkpt lat="48.1759" lon="6.35558">
        <ele>361.1006</ele>
        <time>2026-05-17T14:20:44+02:00</time>
      </trkpt>
      <trkpt lat="48.17594" lon="6.35563">
        <ele>361.1006</ele>
        <time>2026-05-17T14:20:45+02:00</time>
      </trkpt>
      <trkpt lat="48.17598" lon="6.35569">
        <ele>361.1006</ele>
        <time>2026-05-17T14:20:46+02:00</time>
      </trkpt>
      <trkpt lat="48.17603" lon="6.35575">
        <ele>361.1006</ele>
        <time>2026-05-17T14:20:47+02:00</time>
      </trkpt>
      <trkpt lat="48.17606" lon="6.35581">
        <ele>361.1006</ele>
        <time>2026-05-17T14:20:48+02:00</time>
      </trkpt>
      <trkpt lat="48.1761" lon="6.35588">
        <ele>361</ele>
        <time>2026-05-17T14:20:49+02:00</time>
      </trkpt>
      <trkpt lat="48.17613" lon="6.35596">
        <ele>361</ele>
        <time>2026-05-17T14:20:50+02:00</time>
      </trkpt>
      <trkpt lat="48.17616" lon="6.35603">
        <ele>361</ele>
        <time>2026-05-17T14:20:51+02:00</time>
      </trkpt>
      <trkpt lat="48.17618" lon="6.35611">
        <ele>361</ele>
        <time>2026-05-17T14:20:52+02:00</time>
      </trkpt>
      <trkpt lat="48.1762" lon="6.35615">
        <ele>361</ele>
        <time>2026-05-17T14:20:53+02:00</time>
      </trkpt>
      <trkpt lat="48.17623" lon="6.35628">
        <ele>360.7998</ele>
        <time>2026-05-17T14:20:54+02:00</time>
      </trkpt>
      <trkpt lat="48.17625" lon="6.35637">
        <ele>360.7998</ele>
        <time>2026-05-17T14:20:55+02:00</time>
      </trkpt>
      <trkpt lat="48.17626" lon="6.35646">
        <ele>360.7002</ele>
        <time>2026-05-17T14:20:56+02:00</time>
      </trkpt>
      <trkpt lat="48.17627" lon="6.35656">
        <ele>360.7002</ele>
        <time>2026-05-17T14:20:57+02:00</time>
      </trkpt>
      <trkpt lat="48.17627" lon="6.35665">
        <ele>360.7002</ele>
        <time>2026-05-17T14:20:58+02:00</time>
      </trkpt>
      <trkpt lat="48.17628" lon="6.3567">
        <ele>360.5</ele>
        <time>2026-05-17T14:20:59+02:00</time>
      </trkpt>
      <trkpt lat="48.17629" lon="6.35684">
        <ele>360.5</ele>
        <time>2026-05-17T14:21:00+02:00</time>
      </trkpt>
      <trkpt lat="48.17629" lon="6.35693">
        <ele>360.4004</ele>
        <time>2026-05-17T14:21:01+02:00</time>
      </trkpt>
      <trkpt lat="48.17629" lon="6.35703">
        <ele>360.4004</ele>
        <time>2026-05-17T14:21:02+02:00</time>
      </trkpt>
      <trkpt lat="48.17629" lon="6.35712">
        <ele>360.2998</ele>
        <time>2026-05-17T14:21:03+02:00</time>
      </trkpt>
      <trkpt lat="48.17629" lon="6.35722">
        <ele>360.2998</ele>
        <time>2026-05-17T14:21:04+02:00</time>
      </trkpt>
      <trkpt lat="48.17628" lon="6.35731">
        <ele>359.7002</ele>
        <time>2026-05-17T14:21:05+02:00</time>
      </trkpt>
      <trkpt lat="48.17627" lon="6.3574">
        <ele>359.6006</ele>
        <time>2026-05-17T14:21:06+02:00</time>
      </trkpt>
      <trkpt lat="48.17626" lon="6.35749">
        <ele>359.2002</ele>
        <time>2026-05-17T14:21:07+02:00</time>
      </trkpt>
      <trkpt lat="48.17625" lon="6.35753">
        <ele>359.2002</ele>
        <time>2026-05-17T14:21:08+02:00</time>
      </trkpt>
      <trkpt lat="48.17623" lon="6.35766">
        <ele>358.7002</ele>
        <time>2026-05-17T14:21:09+02:00</time>
      </trkpt>
      <trkpt lat="48.17621" lon="6.35775">
        <ele>358.7998</ele>
        <time>2026-05-17T14:21:10+02:00</time>
      </trkpt>
      <trkpt lat="48.1762" lon="6.3578">
        <ele>358.7998</ele>
        <time>2026-05-17T14:21:11+02:00</time>
      </trkpt>
      <trkpt lat="48.17618" lon="6.35794">
        <ele>358.6006</ele>
        <time>2026-05-17T14:21:12+02:00</time>
      </trkpt>
      <trkpt lat="48.17616" lon="6.35803">
        <ele>358.7998</ele>
        <time>2026-05-17T14:21:13+02:00</time>
      </trkpt>
      <trkpt lat="48.17615" lon="6.35812">
        <ele>358.7998</ele>
        <time>2026-05-17T14:21:14+02:00</time>
      </trkpt>
      <trkpt lat="48.17613" lon="6.35821">
        <ele>358.6006</ele>
        <time>2026-05-17T14:21:15+02:00</time>
      </trkpt>
      <trkpt lat="48.17611" lon="6.35831">
        <ele>358.5</ele>
        <time>2026-05-17T14:21:16+02:00</time>
      </trkpt>
      <trkpt lat="48.1761" lon="6.3584">
        <ele>358.5</ele>
        <time>2026-05-17T14:21:17+02:00</time>
      </trkpt>
      <trkpt lat="48.17608" lon="6.3585">
        <ele>358.4004</ele>
        <time>2026-05-17T14:21:18+02:00</time>
      </trkpt>
      <trkpt lat="48.17607" lon="6.35859">
        <ele>358.2998</ele>
        <time>2026-05-17T14:21:19+02:00</time>
      </trkpt>
      <trkpt lat="48.17605" lon="6.35868">
        <ele>358.2998</ele>
        <time>2026-05-17T14:21:20+02:00</time>
      </trkpt>
      <trkpt lat="48.17603" lon="6.35877">
        <ele>358.5</ele>
        <time>2026-05-17T14:21:21+02:00</time>
      </trkpt>
      <trkpt lat="48.17602" lon="6.35885">
        <ele>358.5</ele>
        <time>2026-05-17T14:21:22+02:00</time>
      </trkpt>
      <trkpt lat="48.176" lon="6.35894">
        <ele>358.5</ele>
        <time>2026-05-17T14:21:23+02:00</time>
      </trkpt>
      <trkpt lat="48.17598" lon="6.35902">
        <ele>358.7002</ele>
        <time>2026-05-17T14:21:24+02:00</time>
      </trkpt>
      <trkpt lat="48.17597" lon="6.35911">
        <ele>358.7002</ele>
        <time>2026-05-17T14:21:25+02:00</time>
      </trkpt>
      <trkpt lat="48.17595" lon="6.35919">
        <ele>358.7002</ele>
        <time>2026-05-17T14:21:26+02:00</time>
      </trkpt>
      <trkpt lat="48.17594" lon="6.35927">
        <ele>358.7002</ele>
        <time>2026-05-17T14:21:27+02:00</time>
      </trkpt>
      <trkpt lat="48.17592" lon="6.35936">
        <ele>359</ele>
        <time>2026-05-17T14:21:28+02:00</time>
      </trkpt>
      <trkpt lat="48.1759" lon="6.35944">
        <ele>359</ele>
        <time>2026-05-17T14:21:29+02:00</time>
      </trkpt>
      <trkpt lat="48.17589" lon="6.35952">
        <ele>359.1006</ele>
        <time>2026-05-17T14:21:30+02:00</time>
      </trkpt>
      <trkpt lat="48.17587" lon="6.3596">
        <ele>359.2998</ele>
        <time>2026-05-17T14:21:31+02:00</time>
      </trkpt>
      <trkpt lat="48.17586" lon="6.35968">
        <ele>359.4004</ele>
        <time>2026-05-17T14:21:32+02:00</time>
      </trkpt>
      <trkpt lat="48.17584" lon="6.35977">
        <ele>359.6006</ele>
        <time>2026-05-17T14:21:33+02:00</time>
      </trkpt>
      <trkpt lat="48.17583" lon="6.35985">
        <ele>359.7002</ele>
        <time>2026-05-17T14:21:34+02:00</time>
      </trkpt>
      <trkpt lat="48.17581" lon="6.35993">
        <ele>359.9004</ele>
        <time>2026-05-17T14:21:35+02:00</time>
      </trkpt>
      <trkpt lat="48.17579" lon="6.36002">
        <ele>359.9004</ele>
        <time>2026-05-17T14:21:36+02:00</time>
      </trkpt>
      <trkpt lat="48.17578" lon="6.3601">
        <ele>359.9004</ele>
        <time>2026-05-17T14:21:37+02:00</time>
      </trkpt>
      <trkpt lat="48.17577" lon="6.36014">
        <ele>360</ele>
        <time>2026-05-17T14:21:38+02:00</time>
      </trkpt>
      <trkpt lat="48.17574" lon="6.36027">
        <ele>360</ele>
        <time>2026-05-17T14:21:39+02:00</time>
      </trkpt>
      <trkpt lat="48.17573" lon="6.36036">
        <ele>359.9004</ele>
        <time>2026-05-17T14:21:40+02:00</time>
      </trkpt>
      <trkpt lat="48.17571" lon="6.36044">
        <ele>359.7998</ele>
        <time>2026-05-17T14:21:41+02:00</time>
      </trkpt>
      <trkpt lat="48.17569" lon="6.36052">
        <ele>359.7998</ele>
        <time>2026-05-17T14:21:42+02:00</time>
      </trkpt>
      <trkpt lat="48.17568" lon="6.36061">
        <ele>359.7998</ele>
        <time>2026-05-17T14:21:43+02:00</time>
      </trkpt>
      <trkpt lat="48.17566" lon="6.36069">
        <ele>359.7998</ele>
        <time>2026-05-17T14:21:44+02:00</time>
      </trkpt>
      <trkpt lat="48.17565" lon="6.36078">
        <ele>359.7998</ele>
        <time>2026-05-17T14:21:45+02:00</time>
      </trkpt>
      <trkpt lat="48.17563" lon="6.36087">
        <ele>360</ele>
        <time>2026-05-17T14:21:46+02:00</time>
      </trkpt>
      <trkpt lat="48.17562" lon="6.36096">
        <ele>360</ele>
        <time>2026-05-17T14:21:47+02:00</time>
      </trkpt>
      <trkpt lat="48.1756" lon="6.36105">
        <ele>360</ele>
        <time>2026-05-17T14:21:48+02:00</time>
      </trkpt>
      <trkpt lat="48.17559" lon="6.36114">
        <ele>360</ele>
        <time>2026-05-17T14:21:49+02:00</time>
      </trkpt>
      <trkpt lat="48.17558" lon="6.36123">
        <ele>360.5</ele>
        <time>2026-05-17T14:21:50+02:00</time>
      </trkpt>
      <trkpt lat="48.17557" lon="6.36132">
        <ele>360.5</ele>
        <time>2026-05-17T14:21:51+02:00</time>
      </trkpt>
      <trkpt lat="48.17555" lon="6.36141">
        <ele>360.2998</ele>
        <time>2026-05-17T14:21:52+02:00</time>
      </trkpt>
      <trkpt lat="48.17554" lon="6.3615">
        <ele>360.2998</ele>
        <time>2026-05-17T14:21:53+02:00</time>
      </trkpt>
      <trkpt lat="48.17553" lon="6.36159">
        <ele>359.7002</ele>
        <time>2026-05-17T14:21:54+02:00</time>
      </trkpt>
      <trkpt lat="48.17552" lon="6.36168">
        <ele>359.6006</ele>
        <time>2026-05-17T14:21:55+02:00</time>
      </trkpt>
      <trkpt lat="48.1755" lon="6.36177">
        <ele>359.5</ele>
        <time>2026-05-17T14:21:56+02:00</time>
      </trkpt>
      <trkpt lat="48.1755" lon="6.36185">
        <ele>359.6006</ele>
        <time>2026-05-17T14:21:57+02:00</time>
      </trkpt>
      <trkpt lat="48.17549" lon="6.36194">
        <ele>359.7998</ele>
        <time>2026-05-17T14:21:58+02:00</time>
      </trkpt>
      <trkpt lat="48.17549" lon="6.36202">
        <ele>359.7998</ele>
        <time>2026-05-17T14:21:59+02:00</time>
      </trkpt>
      <trkpt lat="48.17548" lon="6.36211">
        <ele>359.7998</ele>
        <time>2026-05-17T14:22:00+02:00</time>
      </trkpt>
      <trkpt lat="48.17548" lon="6.36219">
        <ele>359.7998</ele>
        <time>2026-05-17T14:22:01+02:00</time>
      </trkpt>
      <trkpt lat="48.17548" lon="6.36228">
        <ele>359.7998</ele>
        <time>2026-05-17T14:22:02+02:00</time>
      </trkpt>
      <trkpt lat="48.17548" lon="6.36235">
        <ele>359.7998</ele>
        <time>2026-05-17T14:22:03+02:00</time>
      </trkpt>
      <trkpt lat="48.17549" lon="6.36243">
        <ele>359.7998</ele>
        <time>2026-05-17T14:22:04+02:00</time>
      </trkpt>
      <trkpt lat="48.1755" lon="6.36251">
        <ele>359.7998</ele>
        <time>2026-05-17T14:22:05+02:00</time>
      </trkpt>
      <trkpt lat="48.17551" lon="6.36259">
        <ele>359.7998</ele>
        <time>2026-05-17T14:22:06+02:00</time>
      </trkpt>
      <trkpt lat="48.17551" lon="6.36267">
        <ele>359.7998</ele>
        <time>2026-05-17T14:22:07+02:00</time>
      </trkpt>
      <trkpt lat="48.17551" lon="6.36275">
        <ele>359.7998</ele>
        <time>2026-05-17T14:22:08+02:00</time>
      </trkpt>
      <trkpt lat="48.17551" lon="6.36284">
        <ele>359.7998</ele>
        <time>2026-05-17T14:22:09+02:00</time>
      </trkpt>
      <trkpt lat="48.17551" lon="6.36293">
        <ele>359.7998</ele>
        <time>2026-05-17T14:22:10+02:00</time>
      </trkpt>
      <trkpt lat="48.17551" lon="6.36302">
        <ele>359.7998</ele>
        <time>2026-05-17T14:22:11+02:00</time>
      </trkpt>
      <trkpt lat="48.17552" lon="6.3631">
        <ele>359.7998</ele>
        <time>2026-05-17T14:22:12+02:00</time>
      </trkpt>
      <trkpt lat="48.17552" lon="6.36319">
        <ele>359.7998</ele>
        <time>2026-05-17T14:22:13+02:00</time>
      </trkpt>
      <trkpt lat="48.17552" lon="6.36328">
        <ele>359.7998</ele>
        <time>2026-05-17T14:22:14+02:00</time>
      </trkpt>
      <trkpt lat="48.17552" lon="6.36337">
        <ele>359.7998</ele>
        <time>2026-05-17T14:22:15+02:00</time>
      </trkpt>
      <trkpt lat="48.17552" lon="6.36346">
        <ele>359.7998</ele>
        <time>2026-05-17T14:22:16+02:00</time>
      </trkpt>
      <trkpt lat="48.17552" lon="6.36355">
        <ele>359.9004</ele>
        <time>2026-05-17T14:22:17+02:00</time>
      </trkpt>
      <trkpt lat="48.17552" lon="6.36363">
        <ele>359.9004</ele>
        <time>2026-05-17T14:22:18+02:00</time>
      </trkpt>
      <trkpt lat="48.17553" lon="6.36372">
        <ele>359.9004</ele>
        <time>2026-05-17T14:22:19+02:00</time>
      </trkpt>
      <trkpt lat="48.17553" lon="6.3638">
        <ele>359.9004</ele>
        <time>2026-05-17T14:22:20+02:00</time>
      </trkpt>
      <trkpt lat="48.17554" lon="6.36388">
        <ele>359.7002</ele>
        <time>2026-05-17T14:22:21+02:00</time>
      </trkpt>
      <trkpt lat="48.17555" lon="6.36396">
        <ele>359.7002</ele>
        <time>2026-05-17T14:22:22+02:00</time>
      </trkpt>
      <trkpt lat="48.17557" lon="6.36404">
        <ele>359.9004</ele>
        <time>2026-05-17T14:22:23+02:00</time>
      </trkpt>
      <trkpt lat="48.17558" lon="6.36413">
        <ele>360.2002</ele>
        <time>2026-05-17T14:22:24+02:00</time>
      </trkpt>
      <trkpt lat="48.1756" lon="6.36421">
        <ele>360.2002</ele>
        <time>2026-05-17T14:22:25+02:00</time>
      </trkpt>
      <trkpt lat="48.17562" lon="6.36429">
        <ele>360.4004</ele>
        <time>2026-05-17T14:22:26+02:00</time>
      </trkpt>
      <trkpt lat="48.17564" lon="6.36437">
        <ele>360.6006</ele>
        <time>2026-05-17T14:22:27+02:00</time>
      </trkpt>
      <trkpt lat="48.17566" lon="6.36445">
        <ele>360.2998</ele>
        <time>2026-05-17T14:22:28+02:00</time>
      </trkpt>
      <trkpt lat="48.17568" lon="6.36453">
        <ele>360.4004</ele>
        <time>2026-05-17T14:22:29+02:00</time>
      </trkpt>
      <trkpt lat="48.17571" lon="6.36461">
        <ele>360.1006</ele>
        <time>2026-05-17T14:22:30+02:00</time>
      </trkpt>
      <trkpt lat="48.17572" lon="6.36465">
        <ele>360.1006</ele>
        <time>2026-05-17T14:22:31+02:00</time>
      </trkpt>
      <trkpt lat="48.17576" lon="6.36476">
        <ele>360.2998</ele>
        <time>2026-05-17T14:22:32+02:00</time>
      </trkpt>
      <trkpt lat="48.17579" lon="6.36483">
        <ele>360.2998</ele>
        <time>2026-05-17T14:22:33+02:00</time>
      </trkpt>
      <trkpt lat="48.17583" lon="6.3649">
        <ele>360.2998</ele>
        <time>2026-05-17T14:22:34+02:00</time>
      </trkpt>
      <trkpt lat="48.17586" lon="6.36497">
        <ele>360.5</ele>
        <time>2026-05-17T14:22:35+02:00</time>
      </trkpt>
      <trkpt lat="48.1759" lon="6.36504">
        <ele>360.4004</ele>
        <time>2026-05-17T14:22:36+02:00</time>
      </trkpt>
      <trkpt lat="48.17594" lon="6.36511">
        <ele>360.2002</ele>
        <time>2026-05-17T14:22:37+02:00</time>
      </trkpt>
      <trkpt lat="48.17597" lon="6.36518">
        <ele>360.2998</ele>
        <time>2026-05-17T14:22:38+02:00</time>
      </trkpt>
      <trkpt lat="48.17601" lon="6.36524">
        <ele>360.2998</ele>
        <time>2026-05-17T14:22:39+02:00</time>
      </trkpt>
      <trkpt lat="48.17605" lon="6.36531">
        <ele>360.2002</ele>
        <time>2026-05-17T14:22:40+02:00</time>
      </trkpt>
      <trkpt lat="48.1761" lon="6.36537">
        <ele>360.2002</ele>
        <time>2026-05-17T14:22:41+02:00</time>
      </trkpt>
      <trkpt lat="48.17614" lon="6.36543">
        <ele>360.1006</ele>
        <time>2026-05-17T14:22:42+02:00</time>
      </trkpt>
      <trkpt lat="48.17619" lon="6.36549">
        <ele>359.9004</ele>
        <time>2026-05-17T14:22:43+02:00</time>
      </trkpt>
      <trkpt lat="48.17624" lon="6.36554">
        <ele>359.7002</ele>
        <time>2026-05-17T14:22:44+02:00</time>
      </trkpt>
      <trkpt lat="48.17629" lon="6.3656">
        <ele>359.7002</ele>
        <time>2026-05-17T14:22:45+02:00</time>
      </trkpt>
      <trkpt lat="48.17634" lon="6.36566">
        <ele>359.7002</ele>
        <time>2026-05-17T14:22:46+02:00</time>
      </trkpt>
      <trkpt lat="48.17639" lon="6.36571">
        <ele>359.6006</ele>
        <time>2026-05-17T14:22:47+02:00</time>
      </trkpt>
      <trkpt lat="48.17645" lon="6.36576">
        <ele>359.6006</ele>
        <time>2026-05-17T14:22:48+02:00</time>
      </trkpt>
      <trkpt lat="48.1765" lon="6.36581">
        <ele>359.7002</ele>
        <time>2026-05-17T14:22:49+02:00</time>
      </trkpt>
      <trkpt lat="48.17655" lon="6.36586">
        <ele>359.6006</ele>
        <time>2026-05-17T14:22:50+02:00</time>
      </trkpt>
      <trkpt lat="48.1766" lon="6.36591">
        <ele>359.6006</ele>
        <time>2026-05-17T14:22:51+02:00</time>
      </trkpt>
      <trkpt lat="48.17665" lon="6.36597">
        <ele>359.6006</ele>
        <time>2026-05-17T14:22:52+02:00</time>
      </trkpt>
      <trkpt lat="48.1767" lon="6.36602">
        <ele>359.5</ele>
        <time>2026-05-17T14:22:53+02:00</time>
      </trkpt>
      <trkpt lat="48.17676" lon="6.36607">
        <ele>359.5</ele>
        <time>2026-05-17T14:22:54+02:00</time>
      </trkpt>
      <trkpt lat="48.1768" lon="6.36612">
        <ele>359.6006</ele>
        <time>2026-05-17T14:22:55+02:00</time>
      </trkpt>
      <trkpt lat="48.17686" lon="6.36617">
        <ele>359.6006</ele>
        <time>2026-05-17T14:22:56+02:00</time>
      </trkpt>
      <trkpt lat="48.17691" lon="6.36622">
        <ele>359.7002</ele>
        <time>2026-05-17T14:22:57+02:00</time>
      </trkpt>
      <trkpt lat="48.17697" lon="6.36627">
        <ele>359.7002</ele>
        <time>2026-05-17T14:22:58+02:00</time>
      </trkpt>
      <trkpt lat="48.17702" lon="6.36633">
        <ele>359.5</ele>
        <time>2026-05-17T14:22:59+02:00</time>
      </trkpt>
      <trkpt lat="48.17707" lon="6.36638">
        <ele>359.5</ele>
        <time>2026-05-17T14:23:00+02:00</time>
      </trkpt>
      <trkpt lat="48.17712" lon="6.36643">
        <ele>359.5</ele>
        <time>2026-05-17T14:23:01+02:00</time>
      </trkpt>
      <trkpt lat="48.17717" lon="6.36648">
        <ele>359.7002</ele>
        <time>2026-05-17T14:23:02+02:00</time>
      </trkpt>
      <trkpt lat="48.17723" lon="6.36654">
        <ele>359.9004</ele>
        <time>2026-05-17T14:23:03+02:00</time>
      </trkpt>
      <trkpt lat="48.17728" lon="6.36659">
        <ele>360.2002</ele>
        <time>2026-05-17T14:23:04+02:00</time>
      </trkpt>
      <trkpt lat="48.17734" lon="6.36664">
        <ele>360.7998</ele>
        <time>2026-05-17T14:23:05+02:00</time>
      </trkpt>
      <trkpt lat="48.17739" lon="6.36669">
        <ele>361.2002</ele>
        <time>2026-05-17T14:23:06+02:00</time>
      </trkpt>
      <trkpt lat="48.17742" lon="6.36672">
        <ele>361.7002</ele>
        <time>2026-05-17T14:23:07+02:00</time>
      </trkpt>
      <trkpt lat="48.17749" lon="6.36681">
        <ele>361.9004</ele>
        <time>2026-05-17T14:23:08+02:00</time>
      </trkpt>
      <trkpt lat="48.17754" lon="6.36686">
        <ele>362.1006</ele>
        <time>2026-05-17T14:23:09+02:00</time>
      </trkpt>
      <trkpt lat="48.17759" lon="6.36693">
        <ele>361.7998</ele>
        <time>2026-05-17T14:23:10+02:00</time>
      </trkpt>
      <trkpt lat="48.17763" lon="6.36699">
        <ele>362.2998</ele>
        <time>2026-05-17T14:23:11+02:00</time>
      </trkpt>
      <trkpt lat="48.17768" lon="6.36706">
        <ele>362.4004</ele>
        <time>2026-05-17T14:23:12+02:00</time>
      </trkpt>
      <trkpt lat="48.17772" lon="6.36712">
        <ele>362.4004</ele>
        <time>2026-05-17T14:23:13+02:00</time>
      </trkpt>
      <trkpt lat="48.17776" lon="6.3672">
        <ele>362</ele>
        <time>2026-05-17T14:23:14+02:00</time>
      </trkpt>
      <trkpt lat="48.1778" lon="6.36727">
        <ele>361.9004</ele>
        <time>2026-05-17T14:23:15+02:00</time>
      </trkpt>
      <trkpt lat="48.17784" lon="6.36734">
        <ele>362.4004</ele>
        <time>2026-05-17T14:23:16+02:00</time>
      </trkpt>
      <trkpt lat="48.17788" lon="6.36742">
        <ele>362.4004</ele>
        <time>2026-05-17T14:23:17+02:00</time>
      </trkpt>
      <trkpt lat="48.17791" lon="6.36749">
        <ele>362</ele>
        <time>2026-05-17T14:23:18+02:00</time>
      </trkpt>
      <trkpt lat="48.17794" lon="6.36757">
        <ele>361.7002</ele>
        <time>2026-05-17T14:23:19+02:00</time>
      </trkpt>
      <trkpt lat="48.17797" lon="6.36765">
        <ele>361</ele>
        <time>2026-05-17T14:23:20+02:00</time>
      </trkpt>
      <trkpt lat="48.178" lon="6.36773">
        <ele>360.9004</ele>
        <time>2026-05-17T14:23:21+02:00</time>
      </trkpt>
      <trkpt lat="48.17803" lon="6.36782">
        <ele>360.6006</ele>
        <time>2026-05-17T14:23:22+02:00</time>
      </trkpt>
      <trkpt lat="48.17805" lon="6.36791">
        <ele>360.9004</ele>
        <time>2026-05-17T14:23:23+02:00</time>
      </trkpt>
      <trkpt lat="48.17808" lon="6.36799">
        <ele>360.6006</ele>
        <time>2026-05-17T14:23:24+02:00</time>
      </trkpt>
      <trkpt lat="48.17809" lon="6.36808">
        <ele>360.4004</ele>
        <time>2026-05-17T14:23:25+02:00</time>
      </trkpt>
      <trkpt lat="48.17811" lon="6.36817">
        <ele>360.5</ele>
        <time>2026-05-17T14:23:26+02:00</time>
      </trkpt>
      <trkpt lat="48.17813" lon="6.36825">
        <ele>360.2998</ele>
        <time>2026-05-17T14:23:27+02:00</time>
      </trkpt>
      <trkpt lat="48.17814" lon="6.36834">
        <ele>360.2002</ele>
        <time>2026-05-17T14:23:28+02:00</time>
      </trkpt>
      <trkpt lat="48.17816" lon="6.36843">
        <ele>360.1006</ele>
        <time>2026-05-17T14:23:29+02:00</time>
      </trkpt>
      <trkpt lat="48.17817" lon="6.36852">
        <ele>360.1006</ele>
        <time>2026-05-17T14:23:30+02:00</time>
      </trkpt>
      <trkpt lat="48.17817" lon="6.36862">
        <ele>359.9004</ele>
        <time>2026-05-17T14:23:31+02:00</time>
      </trkpt>
      <trkpt lat="48.17818" lon="6.36871">
        <ele>359.7998</ele>
        <time>2026-05-17T14:23:32+02:00</time>
      </trkpt>
      <trkpt lat="48.17819" lon="6.36881">
        <ele>359.6006</ele>
        <time>2026-05-17T14:23:33+02:00</time>
      </trkpt>
      <trkpt lat="48.1782" lon="6.3689">
        <ele>359.6006</ele>
        <time>2026-05-17T14:23:34+02:00</time>
      </trkpt>
      <trkpt lat="48.1782" lon="6.369">
        <ele>359.5</ele>
        <time>2026-05-17T14:23:35+02:00</time>
      </trkpt>
      <trkpt lat="48.1782" lon="6.3691">
        <ele>359.4004</ele>
        <time>2026-05-17T14:23:36+02:00</time>
      </trkpt>
      <trkpt lat="48.1782" lon="6.3692">
        <ele>359.2998</ele>
        <time>2026-05-17T14:23:37+02:00</time>
      </trkpt>
      <trkpt lat="48.17819" lon="6.3693">
        <ele>359.2002</ele>
        <time>2026-05-17T14:23:38+02:00</time>
      </trkpt>
      <trkpt lat="48.17818" lon="6.3694">
        <ele>359.1006</ele>
        <time>2026-05-17T14:23:39+02:00</time>
      </trkpt>
      <trkpt lat="48.17817" lon="6.3695">
        <ele>358.9004</ele>
        <time>2026-05-17T14:23:40+02:00</time>
      </trkpt>
      <trkpt lat="48.17816" lon="6.36959">
        <ele>358.9004</ele>
        <time>2026-05-17T14:23:41+02:00</time>
      </trkpt>
      <trkpt lat="48.17815" lon="6.36969">
        <ele>358.7998</ele>
        <time>2026-05-17T14:23:42+02:00</time>
      </trkpt>
      <trkpt lat="48.17813" lon="6.36978">
        <ele>358.7002</ele>
        <time>2026-05-17T14:23:43+02:00</time>
      </trkpt>
      <trkpt lat="48.17812" lon="6.36988">
        <ele>358.6006</ele>
        <time>2026-05-17T14:23:44+02:00</time>
      </trkpt>
      <trkpt lat="48.1781" lon="6.36997">
        <ele>358.5</ele>
        <time>2026-05-17T14:23:45+02:00</time>
      </trkpt>
      <trkpt lat="48.17808" lon="6.37006">
        <ele>358.4004</ele>
        <time>2026-05-17T14:23:46+02:00</time>
      </trkpt>
      <trkpt lat="48.17806" lon="6.37015">
        <ele>358.4004</ele>
        <time>2026-05-17T14:23:47+02:00</time>
      </trkpt>
      <trkpt lat="48.17804" lon="6.37024">
        <ele>358.5</ele>
        <time>2026-05-17T14:23:48+02:00</time>
      </trkpt>
      <trkpt lat="48.17802" lon="6.37032">
        <ele>358.6006</ele>
        <time>2026-05-17T14:23:49+02:00</time>
      </trkpt>
      <trkpt lat="48.178" lon="6.37041">
        <ele>358.7998</ele>
        <time>2026-05-17T14:23:50+02:00</time>
      </trkpt>
      <trkpt lat="48.17799" lon="6.3705">
        <ele>359</ele>
        <time>2026-05-17T14:23:51+02:00</time>
      </trkpt>
      <trkpt lat="48.17797" lon="6.37058">
        <ele>359.1006</ele>
        <time>2026-05-17T14:23:52+02:00</time>
      </trkpt>
      <trkpt lat="48.17795" lon="6.37066">
        <ele>359.2998</ele>
        <time>2026-05-17T14:23:53+02:00</time>
      </trkpt>
      <trkpt lat="48.17793" lon="6.37075">
        <ele>359.4004</ele>
        <time>2026-05-17T14:23:54+02:00</time>
      </trkpt>
      <trkpt lat="48.17791" lon="6.37084">
        <ele>359.5</ele>
        <time>2026-05-17T14:23:55+02:00</time>
      </trkpt>
      <trkpt lat="48.1779" lon="6.37093">
        <ele>359.6006</ele>
        <time>2026-05-17T14:23:56+02:00</time>
      </trkpt>
      <trkpt lat="48.17787" lon="6.37101">
        <ele>359.6006</ele>
        <time>2026-05-17T14:23:57+02:00</time>
      </trkpt>
      <trkpt lat="48.17785" lon="6.3711">
        <ele>359.6006</ele>
        <time>2026-05-17T14:23:58+02:00</time>
      </trkpt>
      <trkpt lat="48.17783" lon="6.37118">
        <ele>359.6006</ele>
        <time>2026-05-17T14:23:59+02:00</time>
      </trkpt>
      <trkpt lat="48.17782" lon="6.37127">
        <ele>359.9004</ele>
        <time>2026-05-17T14:24:00+02:00</time>
      </trkpt>
      <trkpt lat="48.1778" lon="6.37135">
        <ele>360.2002</ele>
        <time>2026-05-17T14:24:01+02:00</time>
      </trkpt>
      <trkpt lat="48.17778" lon="6.37144">
        <ele>360.6006</ele>
        <time>2026-05-17T14:24:02+02:00</time>
      </trkpt>
      <trkpt lat="48.17775" lon="6.37153">
        <ele>360.4004</ele>
        <time>2026-05-17T14:24:03+02:00</time>
      </trkpt>
      <trkpt lat="48.17774" lon="6.37161">
        <ele>360.5</ele>
        <time>2026-05-17T14:24:04+02:00</time>
      </trkpt>
      <trkpt lat="48.17772" lon="6.3717">
        <ele>360.5</ele>
        <time>2026-05-17T14:24:05+02:00</time>
      </trkpt>
      <trkpt lat="48.1777" lon="6.37179">
        <ele>360</ele>
        <time>2026-05-17T14:24:06+02:00</time>
      </trkpt>
      <trkpt lat="48.17768" lon="6.37187">
        <ele>360</ele>
        <time>2026-05-17T14:24:07+02:00</time>
      </trkpt>
      <trkpt lat="48.17766" lon="6.37196">
        <ele>359.7998</ele>
        <time>2026-05-17T14:24:08+02:00</time>
      </trkpt>
      <trkpt lat="48.17764" lon="6.37205">
        <ele>359.6006</ele>
        <time>2026-05-17T14:24:09+02:00</time>
      </trkpt>
      <trkpt lat="48.17762" lon="6.37214">
        <ele>359.6006</ele>
        <time>2026-05-17T14:24:10+02:00</time>
      </trkpt>
      <trkpt lat="48.17761" lon="6.37223">
        <ele>359.7002</ele>
        <time>2026-05-17T14:24:11+02:00</time>
      </trkpt>
      <trkpt lat="48.17759" lon="6.37232">
        <ele>359.7002</ele>
        <time>2026-05-17T14:24:12+02:00</time>
      </trkpt>
      <trkpt lat="48.17758" lon="6.37241">
        <ele>359.6006</ele>
        <time>2026-05-17T14:24:13+02:00</time>
      </trkpt>
      <trkpt lat="48.17756" lon="6.3725">
        <ele>359.2998</ele>
        <time>2026-05-17T14:24:14+02:00</time>
      </trkpt>
      <trkpt lat="48.17755" lon="6.3726">
        <ele>359.6006</ele>
        <time>2026-05-17T14:24:15+02:00</time>
      </trkpt>
      <trkpt lat="48.17754" lon="6.37269">
        <ele>360.2998</ele>
        <time>2026-05-17T14:24:16+02:00</time>
      </trkpt>
      <trkpt lat="48.17754" lon="6.37278">
        <ele>361</ele>
        <time>2026-05-17T14:24:17+02:00</time>
      </trkpt>
      <trkpt lat="48.17754" lon="6.37287">
        <ele>361.2998</ele>
        <time>2026-05-17T14:24:18+02:00</time>
      </trkpt>
      <trkpt lat="48.17754" lon="6.37296">
        <ele>361.2002</ele>
        <time>2026-05-17T14:24:19+02:00</time>
      </trkpt>
      <trkpt lat="48.17754" lon="6.37305">
        <ele>360.7002</ele>
        <time>2026-05-17T14:24:20+02:00</time>
      </trkpt>
      <trkpt lat="48.17754" lon="6.37315">
        <ele>360.4004</ele>
        <time>2026-05-17T14:24:21+02:00</time>
      </trkpt>
      <trkpt lat="48.17754" lon="6.37324">
        <ele>360.2998</ele>
        <time>2026-05-17T14:24:22+02:00</time>
      </trkpt>
      <trkpt lat="48.17755" lon="6.37333">
        <ele>360.2998</ele>
        <time>2026-05-17T14:24:23+02:00</time>
      </trkpt>
      <trkpt lat="48.17756" lon="6.37342">
        <ele>360.2998</ele>
        <time>2026-05-17T14:24:24+02:00</time>
      </trkpt>
      <trkpt lat="48.17758" lon="6.37351">
        <ele>360.4004</ele>
        <time>2026-05-17T14:24:25+02:00</time>
      </trkpt>
      <trkpt lat="48.17759" lon="6.3736">
        <ele>360.5</ele>
        <time>2026-05-17T14:24:26+02:00</time>
      </trkpt>
      <trkpt lat="48.17761" lon="6.37369">
        <ele>359.9004</ele>
        <time>2026-05-17T14:24:27+02:00</time>
      </trkpt>
      <trkpt lat="48.17763" lon="6.37378">
        <ele>360</ele>
        <time>2026-05-17T14:24:28+02:00</time>
      </trkpt>
      <trkpt lat="48.17764" lon="6.37387">
        <ele>360.1006</ele>
        <time>2026-05-17T14:24:29+02:00</time>
      </trkpt>
      <trkpt lat="48.17766" lon="6.37396">
        <ele>360.4004</ele>
        <time>2026-05-17T14:24:30+02:00</time>
      </trkpt>
      <trkpt lat="48.17769" lon="6.37405">
        <ele>361.5</ele>
        <time>2026-05-17T14:24:31+02:00</time>
      </trkpt>
      <trkpt lat="48.17772" lon="6.37413">
        <ele>360.7002</ele>
        <time>2026-05-17T14:24:32+02:00</time>
      </trkpt>
      <trkpt lat="48.17775" lon="6.3742">
        <ele>361.7002</ele>
        <time>2026-05-17T14:24:33+02:00</time>
      </trkpt>
      <trkpt lat="48.17779" lon="6.37428">
        <ele>361.5</ele>
        <time>2026-05-17T14:24:34+02:00</time>
      </trkpt>
      <trkpt lat="48.17782" lon="6.37435">
        <ele>362.2998</ele>
        <time>2026-05-17T14:24:35+02:00</time>
      </trkpt>
      <trkpt lat="48.17785" lon="6.37443">
        <ele>362.4004</ele>
        <time>2026-05-17T14:24:36+02:00</time>
      </trkpt>
      <trkpt lat="48.17788" lon="6.3745">
        <ele>362.7998</ele>
        <time>2026-05-17T14:24:37+02:00</time>
      </trkpt>
      <trkpt lat="48.17792" lon="6.37456">
        <ele>363.4004</ele>
        <time>2026-05-17T14:24:38+02:00</time>
      </trkpt>
      <trkpt lat="48.17795" lon="6.37463">
        <ele>362.7002</ele>
        <time>2026-05-17T14:24:39+02:00</time>
      </trkpt>
      <trkpt lat="48.17799" lon="6.3747">
        <ele>363.2998</ele>
        <time>2026-05-17T14:24:40+02:00</time>
      </trkpt>
      <trkpt lat="48.17803" lon="6.37476">
        <ele>363.2998</ele>
        <time>2026-05-17T14:24:41+02:00</time>
      </trkpt>
      <trkpt lat="48.17807" lon="6.37483">
        <ele>363.5</ele>
        <time>2026-05-17T14:24:42+02:00</time>
      </trkpt>
      <trkpt lat="48.17811" lon="6.37489">
        <ele>363</ele>
        <time>2026-05-17T14:24:43+02:00</time>
      </trkpt>
      <trkpt lat="48.17816" lon="6.37496">
        <ele>363.4004</ele>
        <time>2026-05-17T14:24:44+02:00</time>
      </trkpt>
      <trkpt lat="48.1782" lon="6.37502">
        <ele>362.7002</ele>
        <time>2026-05-17T14:24:45+02:00</time>
      </trkpt>
      <trkpt lat="48.17824" lon="6.37508">
        <ele>361.5</ele>
        <time>2026-05-17T14:24:46+02:00</time>
      </trkpt>
      <trkpt lat="48.17829" lon="6.37515">
        <ele>360.2998</ele>
        <time>2026-05-17T14:24:47+02:00</time>
      </trkpt>
      <trkpt lat="48.17834" lon="6.37521">
        <ele>359.7998</ele>
        <time>2026-05-17T14:24:48+02:00</time>
      </trkpt>
      <trkpt lat="48.17839" lon="6.37528">
        <ele>360.4004</ele>
        <time>2026-05-17T14:24:49+02:00</time>
      </trkpt>
      <trkpt lat="48.17844" lon="6.37534">
        <ele>360.6006</ele>
        <time>2026-05-17T14:24:50+02:00</time>
      </trkpt>
      <trkpt lat="48.17848" lon="6.3754">
        <ele>360</ele>
        <time>2026-05-17T14:24:51+02:00</time>
      </trkpt>
      <trkpt lat="48.17853" lon="6.37546">
        <ele>360</ele>
        <time>2026-05-17T14:24:52+02:00</time>
      </trkpt>
      <trkpt lat="48.17857" lon="6.37553">
        <ele>359.9004</ele>
        <time>2026-05-17T14:24:53+02:00</time>
      </trkpt>
      <trkpt lat="48.17862" lon="6.37559">
        <ele>360.5</ele>
        <time>2026-05-17T14:24:54+02:00</time>
      </trkpt>
      <trkpt lat="48.17866" lon="6.37565">
        <ele>360.2998</ele>
        <time>2026-05-17T14:24:55+02:00</time>
      </trkpt>
      <trkpt lat="48.1787" lon="6.37572">
        <ele>360.5</ele>
        <time>2026-05-17T14:24:56+02:00</time>
      </trkpt>
      <trkpt lat="48.17875" lon="6.37579">
        <ele>360.2002</ele>
        <time>2026-05-17T14:24:57+02:00</time>
      </trkpt>
      <trkpt lat="48.17878" lon="6.37586">
        <ele>360.2002</ele>
        <time>2026-05-17T14:24:58+02:00</time>
      </trkpt>
      <trkpt lat="48.17882" lon="6.37593">
        <ele>359.7002</ele>
        <time>2026-05-17T14:24:59+02:00</time>
      </trkpt>
      <trkpt lat="48.17886" lon="6.376">
        <ele>359.4004</ele>
        <time>2026-05-17T14:25:00+02:00</time>
      </trkpt>
      <trkpt lat="48.1789" lon="6.37608">
        <ele>359.5</ele>
        <time>2026-05-17T14:25:01+02:00</time>
      </trkpt>
      <trkpt lat="48.17893" lon="6.37615">
        <ele>359.5</ele>
        <time>2026-05-17T14:25:02+02:00</time>
      </trkpt>
      <trkpt lat="48.17897" lon="6.37622">
        <ele>359.7002</ele>
        <time>2026-05-17T14:25:03+02:00</time>
      </trkpt>
      <trkpt lat="48.179" lon="6.3763">
        <ele>359.7002</ele>
        <time>2026-05-17T14:25:04+02:00</time>
      </trkpt>
      <trkpt lat="48.17902" lon="6.37638">
        <ele>359.7002</ele>
        <time>2026-05-17T14:25:05+02:00</time>
      </trkpt>
      <trkpt lat="48.17904" lon="6.37646">
        <ele>359.9004</ele>
        <time>2026-05-17T14:25:06+02:00</time>
      </trkpt>
      <trkpt lat="48.17907" lon="6.37654">
        <ele>359.7998</ele>
        <time>2026-05-17T14:25:07+02:00</time>
      </trkpt>
      <trkpt lat="48.17909" lon="6.37662">
        <ele>359.7002</ele>
        <time>2026-05-17T14:25:08+02:00</time>
      </trkpt>
      <trkpt lat="48.17912" lon="6.37671">
        <ele>359.6006</ele>
        <time>2026-05-17T14:25:09+02:00</time>
      </trkpt>
      <trkpt lat="48.17914" lon="6.37679">
        <ele>359.7002</ele>
        <time>2026-05-17T14:25:10+02:00</time>
      </trkpt>
      <trkpt lat="48.17915" lon="6.37688">
        <ele>359.6006</ele>
        <time>2026-05-17T14:25:11+02:00</time>
      </trkpt>
      <trkpt lat="48.17917" lon="6.37697">
        <ele>359.6006</ele>
        <time>2026-05-17T14:25:12+02:00</time>
      </trkpt>
      <trkpt lat="48.17919" lon="6.37706">
        <ele>359.5</ele>
        <time>2026-05-17T14:25:13+02:00</time>
      </trkpt>
      <trkpt lat="48.1792" lon="6.37715">
        <ele>359.5</ele>
        <time>2026-05-17T14:25:14+02:00</time>
      </trkpt>
      <trkpt lat="48.17921" lon="6.37725">
        <ele>359.5</ele>
        <time>2026-05-17T14:25:15+02:00</time>
      </trkpt>
      <trkpt lat="48.17922" lon="6.37734">
        <ele>359.5</ele>
        <time>2026-05-17T14:25:16+02:00</time>
      </trkpt>
      <trkpt lat="48.17922" lon="6.37744">
        <ele>359.5</ele>
        <time>2026-05-17T14:25:17+02:00</time>
      </trkpt>
      <trkpt lat="48.17923" lon="6.37753">
        <ele>359.5</ele>
        <time>2026-05-17T14:25:18+02:00</time>
      </trkpt>
      <trkpt lat="48.17923" lon="6.37758">
        <ele>359.5</ele>
        <time>2026-05-17T14:25:19+02:00</time>
      </trkpt>
      <trkpt lat="48.17924" lon="6.37772">
        <ele>359.5</ele>
        <time>2026-05-17T14:25:20+02:00</time>
      </trkpt>
      <trkpt lat="48.17923" lon="6.37782">
        <ele>359.5</ele>
        <time>2026-05-17T14:25:21+02:00</time>
      </trkpt>
      <trkpt lat="48.17923" lon="6.37791">
        <ele>359.4004</ele>
        <time>2026-05-17T14:25:22+02:00</time>
      </trkpt>
      <trkpt lat="48.17923" lon="6.37801">
        <ele>359.4004</ele>
        <time>2026-05-17T14:25:23+02:00</time>
      </trkpt>
      <trkpt lat="48.17922" lon="6.3781">
        <ele>359.4004</ele>
        <time>2026-05-17T14:25:24+02:00</time>
      </trkpt>
      <trkpt lat="48.1792" lon="6.3782">
        <ele>359.4004</ele>
        <time>2026-05-17T14:25:25+02:00</time>
      </trkpt>
      <trkpt lat="48.17919" lon="6.37829">
        <ele>359.5</ele>
        <time>2026-05-17T14:25:26+02:00</time>
      </trkpt>
      <trkpt lat="48.17917" lon="6.37838">
        <ele>359.4004</ele>
        <time>2026-05-17T14:25:27+02:00</time>
      </trkpt>
      <trkpt lat="48.17916" lon="6.37843">
        <ele>359.2998</ele>
        <time>2026-05-17T14:25:28+02:00</time>
      </trkpt>
      <trkpt lat="48.17914" lon="6.37856">
        <ele>359.2002</ele>
        <time>2026-05-17T14:25:29+02:00</time>
      </trkpt>
      <trkpt lat="48.17912" lon="6.37865">
        <ele>359.2002</ele>
        <time>2026-05-17T14:25:30+02:00</time>
      </trkpt>
      <trkpt lat="48.17909" lon="6.37874">
        <ele>359.1006</ele>
        <time>2026-05-17T14:25:31+02:00</time>
      </trkpt>
      <trkpt lat="48.17907" lon="6.37883">
        <ele>359.1006</ele>
        <time>2026-05-17T14:25:32+02:00</time>
      </trkpt>
      <trkpt lat="48.17905" lon="6.37891">
        <ele>359</ele>
        <time>2026-05-17T14:25:33+02:00</time>
      </trkpt>
      <trkpt lat="48.17903" lon="6.37899">
        <ele>358.7998</ele>
        <time>2026-05-17T14:25:34+02:00</time>
      </trkpt>
      <trkpt lat="48.179" lon="6.37907">
        <ele>358.7998</ele>
        <time>2026-05-17T14:25:35+02:00</time>
      </trkpt>
      <trkpt lat="48.17898" lon="6.37915">
        <ele>358.7002</ele>
        <time>2026-05-17T14:25:36+02:00</time>
      </trkpt>
      <trkpt lat="48.17896" lon="6.37923">
        <ele>358.7002</ele>
        <time>2026-05-17T14:25:37+02:00</time>
      </trkpt>
      <trkpt lat="48.17893" lon="6.37931">
        <ele>358.7002</ele>
        <time>2026-05-17T14:25:38+02:00</time>
      </trkpt>
      <trkpt lat="48.17891" lon="6.37939">
        <ele>358.7002</ele>
        <time>2026-05-17T14:25:39+02:00</time>
      </trkpt>
      <trkpt lat="48.17888" lon="6.37947">
        <ele>358.7998</ele>
        <time>2026-05-17T14:25:40+02:00</time>
      </trkpt>
      <trkpt lat="48.17886" lon="6.37955">
        <ele>358.7998</ele>
        <time>2026-05-17T14:25:41+02:00</time>
      </trkpt>
      <trkpt lat="48.17883" lon="6.37963">
        <ele>358.7998</ele>
        <time>2026-05-17T14:25:42+02:00</time>
      </trkpt>
      <trkpt lat="48.17881" lon="6.37971">
        <ele>358.7998</ele>
        <time>2026-05-17T14:25:43+02:00</time>
      </trkpt>
      <trkpt lat="48.17878" lon="6.37978">
        <ele>358.9004</ele>
        <time>2026-05-17T14:25:44+02:00</time>
      </trkpt>
      <trkpt lat="48.17876" lon="6.37986">
        <ele>358.9004</ele>
        <time>2026-05-17T14:25:45+02:00</time>
      </trkpt>
      <trkpt lat="48.17874" lon="6.37994">
        <ele>358.9004</ele>
        <time>2026-05-17T14:25:46+02:00</time>
      </trkpt>
      <trkpt lat="48.17871" lon="6.38002">
        <ele>359.1006</ele>
        <time>2026-05-17T14:25:47+02:00</time>
      </trkpt>
      <trkpt lat="48.17869" lon="6.3801">
        <ele>359.2002</ele>
        <time>2026-05-17T14:25:48+02:00</time>
      </trkpt>
      <trkpt lat="48.17866" lon="6.38018">
        <ele>359.4004</ele>
        <time>2026-05-17T14:25:49+02:00</time>
      </trkpt>
      <trkpt lat="48.17864" lon="6.38026">
        <ele>359.4004</ele>
        <time>2026-05-17T14:25:50+02:00</time>
      </trkpt>
      <trkpt lat="48.17861" lon="6.38034">
        <ele>359.6006</ele>
        <time>2026-05-17T14:25:51+02:00</time>
      </trkpt>
      <trkpt lat="48.17859" lon="6.38042">
        <ele>359.6006</ele>
        <time>2026-05-17T14:25:52+02:00</time>
      </trkpt>
      <trkpt lat="48.17856" lon="6.3805">
        <ele>359.7002</ele>
        <time>2026-05-17T14:25:53+02:00</time>
      </trkpt>
      <trkpt lat="48.17854" lon="6.38059">
        <ele>359.7002</ele>
        <time>2026-05-17T14:25:54+02:00</time>
      </trkpt>
      <trkpt lat="48.17851" lon="6.38067">
        <ele>359.7002</ele>
        <time>2026-05-17T14:25:55+02:00</time>
      </trkpt>
      <trkpt lat="48.17849" lon="6.38075">
        <ele>359.7998</ele>
        <time>2026-05-17T14:25:56+02:00</time>
      </trkpt>
      <trkpt lat="48.17846" lon="6.38084">
        <ele>359.7998</ele>
        <time>2026-05-17T14:25:57+02:00</time>
      </trkpt>
      <trkpt lat="48.17844" lon="6.38092">
        <ele>359.7998</ele>
        <time>2026-05-17T14:25:58+02:00</time>
      </trkpt>
      <trkpt lat="48.17841" lon="6.38101">
        <ele>359.7998</ele>
        <time>2026-05-17T14:25:59+02:00</time>
      </trkpt>
      <trkpt lat="48.1784" lon="6.38109">
        <ele>359.9004</ele>
        <time>2026-05-17T14:26:00+02:00</time>
      </trkpt>
      <trkpt lat="48.17837" lon="6.38118">
        <ele>360</ele>
        <time>2026-05-17T14:26:01+02:00</time>
      </trkpt>
      <trkpt lat="48.17835" lon="6.38126">
        <ele>360</ele>
        <time>2026-05-17T14:26:02+02:00</time>
      </trkpt>
      <trkpt lat="48.17833" lon="6.38135">
        <ele>360.1006</ele>
        <time>2026-05-17T14:26:03+02:00</time>
      </trkpt>
      <trkpt lat="48.17832" lon="6.38144">
        <ele>360.1006</ele>
        <time>2026-05-17T14:26:04+02:00</time>
      </trkpt>
      <trkpt lat="48.1783" lon="6.38152">
        <ele>360.1006</ele>
        <time>2026-05-17T14:26:05+02:00</time>
      </trkpt>
      <trkpt lat="48.17829" lon="6.38161">
        <ele>360.1006</ele>
        <time>2026-05-17T14:26:06+02:00</time>
      </trkpt>
      <trkpt lat="48.17828" lon="6.3817">
        <ele>360.2002</ele>
        <time>2026-05-17T14:26:07+02:00</time>
      </trkpt>
      <trkpt lat="48.17827" lon="6.38179">
        <ele>360.2002</ele>
        <time>2026-05-17T14:26:08+02:00</time>
      </trkpt>
      <trkpt lat="48.17825" lon="6.38187">
        <ele>360.2998</ele>
        <time>2026-05-17T14:26:09+02:00</time>
      </trkpt>
      <trkpt lat="48.17824" lon="6.38197">
        <ele>360.4004</ele>
        <time>2026-05-17T14:26:10+02:00</time>
      </trkpt>
      <trkpt lat="48.17824" lon="6.38206">
        <ele>360.5</ele>
        <time>2026-05-17T14:26:11+02:00</time>
      </trkpt>
      <trkpt lat="48.17823" lon="6.38215">
        <ele>360.6006</ele>
        <time>2026-05-17T14:26:12+02:00</time>
      </trkpt>
      <trkpt lat="48.17822" lon="6.38224">
        <ele>360.7002</ele>
        <time>2026-05-17T14:26:13+02:00</time>
      </trkpt>
      <trkpt lat="48.17822" lon="6.38234">
        <ele>360.7998</ele>
        <time>2026-05-17T14:26:14+02:00</time>
      </trkpt>
      <trkpt lat="48.17822" lon="6.38243">
        <ele>360.9004</ele>
        <time>2026-05-17T14:26:15+02:00</time>
      </trkpt>
      <trkpt lat="48.17822" lon="6.38252">
        <ele>361</ele>
        <time>2026-05-17T14:26:16+02:00</time>
      </trkpt>
      <trkpt lat="48.17822" lon="6.38261">
        <ele>361.2002</ele>
        <time>2026-05-17T14:26:17+02:00</time>
      </trkpt>
      <trkpt lat="48.17823" lon="6.3827">
        <ele>361.4004</ele>
        <time>2026-05-17T14:26:18+02:00</time>
      </trkpt>
      <trkpt lat="48.17823" lon="6.38278">
        <ele>361.6006</ele>
        <time>2026-05-17T14:26:19+02:00</time>
      </trkpt>
      <trkpt lat="48.17824" lon="6.38287">
        <ele>361.7998</ele>
        <time>2026-05-17T14:26:20+02:00</time>
      </trkpt>
      <trkpt lat="48.17824" lon="6.38296">
        <ele>361.9004</ele>
        <time>2026-05-17T14:26:21+02:00</time>
      </trkpt>
      <trkpt lat="48.17824" lon="6.38304">
        <ele>362.1006</ele>
        <time>2026-05-17T14:26:22+02:00</time>
      </trkpt>
      <trkpt lat="48.17825" lon="6.38313">
        <ele>362.2998</ele>
        <time>2026-05-17T14:26:23+02:00</time>
      </trkpt>
      <trkpt lat="48.17826" lon="6.38322">
        <ele>362.5</ele>
        <time>2026-05-17T14:26:24+02:00</time>
      </trkpt>
      <trkpt lat="48.17827" lon="6.38331">
        <ele>362.6006</ele>
        <time>2026-05-17T14:26:25+02:00</time>
      </trkpt>
      <trkpt lat="48.17829" lon="6.38339">
        <ele>362.6006</ele>
        <time>2026-05-17T14:26:26+02:00</time>
      </trkpt>
      <trkpt lat="48.1783" lon="6.38348">
        <ele>362.7002</ele>
        <time>2026-05-17T14:26:27+02:00</time>
      </trkpt>
      <trkpt lat="48.17832" lon="6.38356">
        <ele>362.7002</ele>
        <time>2026-05-17T14:26:28+02:00</time>
      </trkpt>
      <trkpt lat="48.17834" lon="6.38365">
        <ele>362.7998</ele>
        <time>2026-05-17T14:26:29+02:00</time>
      </trkpt>
      <trkpt lat="48.17836" lon="6.38373">
        <ele>362.7998</ele>
        <time>2026-05-17T14:26:30+02:00</time>
      </trkpt>
      <trkpt lat="48.17838" lon="6.38381">
        <ele>362.7998</ele>
        <time>2026-05-17T14:26:31+02:00</time>
      </trkpt>
      <trkpt lat="48.17841" lon="6.38389">
        <ele>362.7998</ele>
        <time>2026-05-17T14:26:32+02:00</time>
      </trkpt>
      <trkpt lat="48.17843" lon="6.38397">
        <ele>362.7998</ele>
        <time>2026-05-17T14:26:33+02:00</time>
      </trkpt>
      <trkpt lat="48.17845" lon="6.38401">
        <ele>362.6006</ele>
        <time>2026-05-17T14:26:34+02:00</time>
      </trkpt>
      <trkpt lat="48.17848" lon="6.38413">
        <ele>362.5</ele>
        <time>2026-05-17T14:26:35+02:00</time>
      </trkpt>
      <trkpt lat="48.1785" lon="6.3842">
        <ele>362.5</ele>
        <time>2026-05-17T14:26:36+02:00</time>
      </trkpt>
      <trkpt lat="48.17853" lon="6.38428">
        <ele>362.4004</ele>
        <time>2026-05-17T14:26:37+02:00</time>
      </trkpt>
      <trkpt lat="48.17854" lon="6.38435">
        <ele>362.2998</ele>
        <time>2026-05-17T14:26:38+02:00</time>
      </trkpt>
      <trkpt lat="48.17857" lon="6.38443">
        <ele>362.2998</ele>
        <time>2026-05-17T14:26:39+02:00</time>
      </trkpt>
      <trkpt lat="48.17859" lon="6.3845">
        <ele>362.2998</ele>
        <time>2026-05-17T14:26:40+02:00</time>
      </trkpt>
      <trkpt lat="48.17861" lon="6.38458">
        <ele>362.2998</ele>
        <time>2026-05-17T14:26:41+02:00</time>
      </trkpt>
      <trkpt lat="48.17863" lon="6.38465">
        <ele>362.2998</ele>
        <time>2026-05-17T14:26:42+02:00</time>
      </trkpt>
      <trkpt lat="48.17866" lon="6.38472">
        <ele>362.4004</ele>
        <time>2026-05-17T14:26:43+02:00</time>
      </trkpt>
      <trkpt lat="48.17869" lon="6.38479">
        <ele>362.5</ele>
        <time>2026-05-17T14:26:44+02:00</time>
      </trkpt>
      <trkpt lat="48.17872" lon="6.38486">
        <ele>362.7002</ele>
        <time>2026-05-17T14:26:45+02:00</time>
      </trkpt>
      <trkpt lat="48.17875" lon="6.38493">
        <ele>362.6006</ele>
        <time>2026-05-17T14:26:46+02:00</time>
      </trkpt>
      <trkpt lat="48.17878" lon="6.38499">
        <ele>362.7998</ele>
        <time>2026-05-17T14:26:47+02:00</time>
      </trkpt>
      <trkpt lat="48.17881" lon="6.38506">
        <ele>363</ele>
        <time>2026-05-17T14:26:48+02:00</time>
      </trkpt>
      <trkpt lat="48.17885" lon="6.38512">
        <ele>363.2998</ele>
        <time>2026-05-17T14:26:49+02:00</time>
      </trkpt>
      <trkpt lat="48.17886" lon="6.38516">
        <ele>363.2002</ele>
        <time>2026-05-17T14:26:50+02:00</time>
      </trkpt>
      <trkpt lat="48.17892" lon="6.38525">
        <ele>363.5</ele>
        <time>2026-05-17T14:26:51+02:00</time>
      </trkpt>
      <trkpt lat="48.17896" lon="6.38531">
        <ele>363.9004</ele>
        <time>2026-05-17T14:26:52+02:00</time>
      </trkpt>
      <trkpt lat="48.17899" lon="6.38537">
        <ele>363.7998</ele>
        <time>2026-05-17T14:26:53+02:00</time>
      </trkpt>
      <trkpt lat="48.17903" lon="6.38542">
        <ele>364.1006</ele>
        <time>2026-05-17T14:26:54+02:00</time>
      </trkpt>
      <trkpt lat="48.17905" lon="6.38548">
        <ele>364.6006</ele>
        <time>2026-05-17T14:26:55+02:00</time>
      </trkpt>
      <trkpt lat="48.17908" lon="6.38553">
        <ele>364.5</ele>
        <time>2026-05-17T14:26:56+02:00</time>
      </trkpt>
      <trkpt lat="48.17911" lon="6.38558">
        <ele>364.9004</ele>
        <time>2026-05-17T14:26:57+02:00</time>
      </trkpt>
      <trkpt lat="48.17914" lon="6.38563">
        <ele>364.7998</ele>
        <time>2026-05-17T14:26:58+02:00</time>
      </trkpt>
      <trkpt lat="48.17915" lon="6.38565">
        <ele>365.1006</ele>
        <time>2026-05-17T14:26:59+02:00</time>
      </trkpt>
      <trkpt lat="48.1792" lon="6.38571">
        <ele>365</ele>
        <time>2026-05-17T14:27:00+02:00</time>
      </trkpt>
      <trkpt lat="48.17925" lon="6.38575">
        <ele>365.2998</ele>
        <time>2026-05-17T14:27:01+02:00</time>
      </trkpt>
      <trkpt lat="48.17927" lon="6.38577">
        <ele>365.1006</ele>
        <time>2026-05-17T14:27:02+02:00</time>
      </trkpt>
      <trkpt lat="48.17933" lon="6.38585">
        <ele>365.4004</ele>
        <time>2026-05-17T14:27:03+02:00</time>
      </trkpt>
      <trkpt lat="48.17938" lon="6.3859">
        <ele>365.7002</ele>
        <time>2026-05-17T14:27:04+02:00</time>
      </trkpt>
      <trkpt lat="48.17955" lon="6.38615">
        <ele>366.2998</ele>
        <time>2026-05-17T14:27:05+02:00</time>
      </trkpt>
      <trkpt lat="48.1796" lon="6.38621">
        <ele>366.2002</ele>
        <time>2026-05-17T14:27:06+02:00</time>
      </trkpt>
      <trkpt lat="48.17964" lon="6.38627">
        <ele>366.7002</ele>
        <time>2026-05-17T14:27:07+02:00</time>
      </trkpt>
      <trkpt lat="48.17969" lon="6.38633">
        <ele>367.1006</ele>
        <time>2026-05-17T14:27:08+02:00</time>
      </trkpt>
      <trkpt lat="48.17973" lon="6.3864">
        <ele>367</ele>
        <time>2026-05-17T14:27:09+02:00</time>
      </trkpt>
      <trkpt lat="48.17977" lon="6.38646">
        <ele>367.2998</ele>
        <time>2026-05-17T14:27:10+02:00</time>
      </trkpt>
      <trkpt lat="48.17981" lon="6.38651">
        <ele>367.7002</ele>
        <time>2026-05-17T14:27:11+02:00</time>
      </trkpt>
      <trkpt lat="48.17985" lon="6.38657">
        <ele>367.5</ele>
        <time>2026-05-17T14:27:12+02:00</time>
      </trkpt>
      <trkpt lat="48.17988" lon="6.38663">
        <ele>367.9004</ele>
        <time>2026-05-17T14:27:13+02:00</time>
      </trkpt>
      <trkpt lat="48.17992" lon="6.38667">
        <ele>368.1006</ele>
        <time>2026-05-17T14:27:14+02:00</time>
      </trkpt>
      <trkpt lat="48.17995" lon="6.38672">
        <ele>368</ele>
        <time>2026-05-17T14:27:15+02:00</time>
      </trkpt>
      <trkpt lat="48.17999" lon="6.38677">
        <ele>368.2998</ele>
        <time>2026-05-17T14:27:16+02:00</time>
      </trkpt>
      <trkpt lat="48.18003" lon="6.38682">
        <ele>368.2002</ele>
        <time>2026-05-17T14:27:17+02:00</time>
      </trkpt>
      <trkpt lat="48.18007" lon="6.38686">
        <ele>368.2998</ele>
        <time>2026-05-17T14:27:18+02:00</time>
      </trkpt>
      <trkpt lat="48.1801" lon="6.38691">
        <ele>368.2998</ele>
        <time>2026-05-17T14:27:19+02:00</time>
      </trkpt>
      <trkpt lat="48.18014" lon="6.38695">
        <ele>368.5</ele>
        <time>2026-05-17T14:27:20+02:00</time>
      </trkpt>
      <trkpt lat="48.18018" lon="6.38699">
        <ele>368.2002</ele>
        <time>2026-05-17T14:27:21+02:00</time>
      </trkpt>
      <trkpt lat="48.18022" lon="6.38704">
        <ele>368.5</ele>
        <time>2026-05-17T14:27:22+02:00</time>
      </trkpt>
      <trkpt lat="48.18025" lon="6.38708">
        <ele>368.1006</ele>
        <time>2026-05-17T14:27:23+02:00</time>
      </trkpt>
      <trkpt lat="48.1803" lon="6.38714">
        <ele>367.9004</ele>
        <time>2026-05-17T14:27:24+02:00</time>
      </trkpt>
      <trkpt lat="48.18034" lon="6.38719">
        <ele>367.7998</ele>
        <time>2026-05-17T14:27:25+02:00</time>
      </trkpt>
      <trkpt lat="48.18038" lon="6.38724">
        <ele>367.7998</ele>
        <time>2026-05-17T14:27:26+02:00</time>
      </trkpt>
      <trkpt lat="48.18043" lon="6.3873">
        <ele>367.7002</ele>
        <time>2026-05-17T14:27:27+02:00</time>
      </trkpt>
      <trkpt lat="48.18047" lon="6.38736">
        <ele>367.5</ele>
        <time>2026-05-17T14:27:28+02:00</time>
      </trkpt>
      <trkpt lat="48.18051" lon="6.38742">
        <ele>366.9004</ele>
        <time>2026-05-17T14:27:29+02:00</time>
      </trkpt>
      <trkpt lat="48.18055" lon="6.38748">
        <ele>367</ele>
        <time>2026-05-17T14:27:30+02:00</time>
      </trkpt>
      <trkpt lat="48.1806" lon="6.38754">
        <ele>366.4004</ele>
        <time>2026-05-17T14:27:31+02:00</time>
      </trkpt>
      <trkpt lat="48.18064" lon="6.3876">
        <ele>365.7002</ele>
        <time>2026-05-17T14:27:32+02:00</time>
      </trkpt>
      <trkpt lat="48.18068" lon="6.38766">
        <ele>365.6006</ele>
        <time>2026-05-17T14:27:33+02:00</time>
      </trkpt>
      <trkpt lat="48.18072" lon="6.38772">
        <ele>364.9004</ele>
        <time>2026-05-17T14:27:34+02:00</time>
      </trkpt>
      <trkpt lat="48.18076" lon="6.38779">
        <ele>364.2002</ele>
        <time>2026-05-17T14:27:35+02:00</time>
      </trkpt>
      <trkpt lat="48.1808" lon="6.38785">
        <ele>363.7002</ele>
        <time>2026-05-17T14:27:36+02:00</time>
      </trkpt>
      <trkpt lat="48.18084" lon="6.38792">
        <ele>363.5</ele>
        <time>2026-05-17T14:27:37+02:00</time>
      </trkpt>
      <trkpt lat="48.18088" lon="6.38799">
        <ele>362.7998</ele>
        <time>2026-05-17T14:27:38+02:00</time>
      </trkpt>
      <trkpt lat="48.18092" lon="6.38806">
        <ele>362.2002</ele>
        <time>2026-05-17T14:27:39+02:00</time>
      </trkpt>
      <trkpt lat="48.18096" lon="6.38813">
        <ele>362.2002</ele>
        <time>2026-05-17T14:27:40+02:00</time>
      </trkpt>
      <trkpt lat="48.181" lon="6.38821">
        <ele>361.9004</ele>
        <time>2026-05-17T14:27:41+02:00</time>
      </trkpt>
      <trkpt lat="48.18103" lon="6.38829">
        <ele>361.7002</ele>
        <time>2026-05-17T14:27:42+02:00</time>
      </trkpt>
      <trkpt lat="48.18107" lon="6.38836">
        <ele>361.7002</ele>
        <time>2026-05-17T14:27:43+02:00</time>
      </trkpt>
      <trkpt lat="48.1811" lon="6.38844">
        <ele>361.5</ele>
        <time>2026-05-17T14:27:44+02:00</time>
      </trkpt>
      <trkpt lat="48.18113" lon="6.38852">
        <ele>361.7002</ele>
        <time>2026-05-17T14:27:45+02:00</time>
      </trkpt>
      <trkpt lat="48.18117" lon="6.38859">
        <ele>361.7998</ele>
        <time>2026-05-17T14:27:46+02:00</time>
      </trkpt>
      <trkpt lat="48.1812" lon="6.38866">
        <ele>361.7998</ele>
        <time>2026-05-17T14:27:47+02:00</time>
      </trkpt>
      <trkpt lat="48.18123" lon="6.38874">
        <ele>362</ele>
        <time>2026-05-17T14:27:48+02:00</time>
      </trkpt>
      <trkpt lat="48.18126" lon="6.38881">
        <ele>361.7998</ele>
        <time>2026-05-17T14:27:49+02:00</time>
      </trkpt>
      <trkpt lat="48.18129" lon="6.38889">
        <ele>361.7998</ele>
        <time>2026-05-17T14:27:50+02:00</time>
      </trkpt>
      <trkpt lat="48.18132" lon="6.38896">
        <ele>361.6006</ele>
        <time>2026-05-17T14:27:51+02:00</time>
      </trkpt>
      <trkpt lat="48.18135" lon="6.38902">
        <ele>361.5</ele>
        <time>2026-05-17T14:27:52+02:00</time>
      </trkpt>
      <trkpt lat="48.18138" lon="6.38909">
        <ele>361.1006</ele>
        <time>2026-05-17T14:27:53+02:00</time>
      </trkpt>
      <trkpt lat="48.18141" lon="6.38917">
        <ele>361</ele>
        <time>2026-05-17T14:27:54+02:00</time>
      </trkpt>
      <trkpt lat="48.18143" lon="6.38925">
        <ele>360.2998</ele>
        <time>2026-05-17T14:27:55+02:00</time>
      </trkpt>
      <trkpt lat="48.18146" lon="6.38934">
        <ele>360.1006</ele>
        <time>2026-05-17T14:27:56+02:00</time>
      </trkpt>
      <trkpt lat="48.18147" lon="6.38938">
        <ele>360.1006</ele>
        <time>2026-05-17T14:27:57+02:00</time>
      </trkpt>
      <trkpt lat="48.18151" lon="6.3895">
        <ele>359.5</ele>
        <time>2026-05-17T14:27:58+02:00</time>
      </trkpt>
      <trkpt lat="48.18154" lon="6.38957">
        <ele>359.2998</ele>
        <time>2026-05-17T14:27:59+02:00</time>
      </trkpt>
      <trkpt lat="48.18157" lon="6.38965">
        <ele>359.2998</ele>
        <time>2026-05-17T14:28:00+02:00</time>
      </trkpt>
      <trkpt lat="48.1816" lon="6.38972">
        <ele>359.4004</ele>
        <time>2026-05-17T14:28:01+02:00</time>
      </trkpt>
      <trkpt lat="48.18163" lon="6.38979">
        <ele>359.4004</ele>
        <time>2026-05-17T14:28:02+02:00</time>
      </trkpt>
      <trkpt lat="48.18166" lon="6.38987">
        <ele>359.4004</ele>
        <time>2026-05-17T14:28:03+02:00</time>
      </trkpt>
      <trkpt lat="48.18169" lon="6.38994">
        <ele>359.4004</ele>
        <time>2026-05-17T14:28:04+02:00</time>
      </trkpt>
      <trkpt lat="48.18172" lon="6.39001">
        <ele>359.4004</ele>
        <time>2026-05-17T14:28:05+02:00</time>
      </trkpt>
      <trkpt lat="48.18176" lon="6.39008">
        <ele>359.4004</ele>
        <time>2026-05-17T14:28:06+02:00</time>
      </trkpt>
      <trkpt lat="48.1818" lon="6.39014">
        <ele>359.4004</ele>
        <time>2026-05-17T14:28:07+02:00</time>
      </trkpt>
      <trkpt lat="48.18184" lon="6.3902">
        <ele>359.4004</ele>
        <time>2026-05-17T14:28:08+02:00</time>
      </trkpt>
      <trkpt lat="48.18189" lon="6.39026">
        <ele>359.4004</ele>
        <time>2026-05-17T14:28:09+02:00</time>
      </trkpt>
      <trkpt lat="48.18194" lon="6.39032">
        <ele>359.4004</ele>
        <time>2026-05-17T14:28:10+02:00</time>
      </trkpt>
      <trkpt lat="48.18198" lon="6.39037">
        <ele>359.4004</ele>
        <time>2026-05-17T14:28:11+02:00</time>
      </trkpt>
      <trkpt lat="48.18202" lon="6.39041">
        <ele>359.4004</ele>
        <time>2026-05-17T14:28:12+02:00</time>
      </trkpt>
      <trkpt lat="48.18207" lon="6.39045">
        <ele>359.4004</ele>
        <time>2026-05-17T14:28:13+02:00</time>
      </trkpt>
      <trkpt lat="48.18212" lon="6.39049">
        <ele>359.4004</ele>
        <time>2026-05-17T14:28:14+02:00</time>
      </trkpt>
      <trkpt lat="48.18218" lon="6.39052">
        <ele>359.5</ele>
        <time>2026-05-17T14:28:15+02:00</time>
      </trkpt>
      <trkpt lat="48.18223" lon="6.39055">
        <ele>359.7002</ele>
        <time>2026-05-17T14:28:16+02:00</time>
      </trkpt>
      <trkpt lat="48.18228" lon="6.39058">
        <ele>359.7002</ele>
        <time>2026-05-17T14:28:17+02:00</time>
      </trkpt>
      <trkpt lat="48.18234" lon="6.3906">
        <ele>359.7998</ele>
        <time>2026-05-17T14:28:18+02:00</time>
      </trkpt>
      <trkpt lat="48.18239" lon="6.39062">
        <ele>360.4004</ele>
        <time>2026-05-17T14:28:19+02:00</time>
      </trkpt>
      <trkpt lat="48.18245" lon="6.39063">
        <ele>360.7002</ele>
        <time>2026-05-17T14:28:20+02:00</time>
      </trkpt>
      <trkpt lat="48.18251" lon="6.39064">
        <ele>361</ele>
        <time>2026-05-17T14:28:21+02:00</time>
      </trkpt>
      <trkpt lat="48.18256" lon="6.39064">
        <ele>361.4004</ele>
        <time>2026-05-17T14:28:22+02:00</time>
      </trkpt>
      <trkpt lat="48.18262" lon="6.39064">
        <ele>361.7998</ele>
        <time>2026-05-17T14:28:23+02:00</time>
      </trkpt>
      <trkpt lat="48.18268" lon="6.39063">
        <ele>362.2002</ele>
        <time>2026-05-17T14:28:24+02:00</time>
      </trkpt>
      <trkpt lat="48.18274" lon="6.39061">
        <ele>362.5</ele>
        <time>2026-05-17T14:28:25+02:00</time>
      </trkpt>
      <trkpt lat="48.18279" lon="6.39059">
        <ele>362.6006</ele>
        <time>2026-05-17T14:28:26+02:00</time>
      </trkpt>
      <trkpt lat="48.18285" lon="6.39057">
        <ele>363</ele>
        <time>2026-05-17T14:28:27+02:00</time>
      </trkpt>
      <trkpt lat="48.18291" lon="6.39054">
        <ele>363.4004</ele>
        <time>2026-05-17T14:28:28+02:00</time>
      </trkpt>
      <trkpt lat="48.18297" lon="6.39051">
        <ele>363.2002</ele>
        <time>2026-05-17T14:28:29+02:00</time>
      </trkpt>
      <trkpt lat="48.18303" lon="6.39049">
        <ele>364</ele>
        <time>2026-05-17T14:28:30+02:00</time>
      </trkpt>
      <trkpt lat="48.18308" lon="6.39045">
        <ele>364</ele>
        <time>2026-05-17T14:28:31+02:00</time>
      </trkpt>
      <trkpt lat="48.18314" lon="6.39042">
        <ele>364.1006</ele>
        <time>2026-05-17T14:28:32+02:00</time>
      </trkpt>
      <trkpt lat="48.18319" lon="6.39039">
        <ele>364.4004</ele>
        <time>2026-05-17T14:28:33+02:00</time>
      </trkpt>
      <trkpt lat="48.18325" lon="6.39036">
        <ele>364.5</ele>
        <time>2026-05-17T14:28:34+02:00</time>
      </trkpt>
      <trkpt lat="48.18331" lon="6.39032">
        <ele>364.2002</ele>
        <time>2026-05-17T14:28:35+02:00</time>
      </trkpt>
      <trkpt lat="48.18336" lon="6.39029">
        <ele>364.2998</ele>
        <time>2026-05-17T14:28:36+02:00</time>
      </trkpt>
      <trkpt lat="48.18342" lon="6.39026">
        <ele>364</ele>
        <time>2026-05-17T14:28:37+02:00</time>
      </trkpt>
      <trkpt lat="48.18348" lon="6.39023">
        <ele>364.2002</ele>
        <time>2026-05-17T14:28:38+02:00</time>
      </trkpt>
      <trkpt lat="48.18353" lon="6.39019">
        <ele>364.4004</ele>
        <time>2026-05-17T14:28:39+02:00</time>
      </trkpt>
      <trkpt lat="48.18359" lon="6.39016">
        <ele>364.2998</ele>
        <time>2026-05-17T14:28:40+02:00</time>
      </trkpt>
      <trkpt lat="48.18365" lon="6.39013">
        <ele>364.5</ele>
        <time>2026-05-17T14:28:41+02:00</time>
      </trkpt>
      <trkpt lat="48.18371" lon="6.39009">
        <ele>364.4004</ele>
        <time>2026-05-17T14:28:42+02:00</time>
      </trkpt>
      <trkpt lat="48.18377" lon="6.39006">
        <ele>364.6006</ele>
        <time>2026-05-17T14:28:43+02:00</time>
      </trkpt>
      <trkpt lat="48.18382" lon="6.39003">
        <ele>364.7998</ele>
        <time>2026-05-17T14:28:44+02:00</time>
      </trkpt>
      <trkpt lat="48.18388" lon="6.39">
        <ele>364.6006</ele>
        <time>2026-05-17T14:28:45+02:00</time>
      </trkpt>
      <trkpt lat="48.18392" lon="6.38998">
        <ele>364.7002</ele>
        <time>2026-05-17T14:28:46+02:00</time>
      </trkpt>
      <trkpt lat="48.184" lon="6.38992">
        <ele>364.2002</ele>
        <time>2026-05-17T14:28:47+02:00</time>
      </trkpt>
      <trkpt lat="48.18406" lon="6.38988">
        <ele>363.7998</ele>
        <time>2026-05-17T14:28:48+02:00</time>
      </trkpt>
      <trkpt lat="48.18412" lon="6.38984">
        <ele>363.5</ele>
        <time>2026-05-17T14:28:49+02:00</time>
      </trkpt>
      <trkpt lat="48.18418" lon="6.38981">
        <ele>362.4004</ele>
        <time>2026-05-17T14:28:50+02:00</time>
      </trkpt>
      <trkpt lat="48.18424" lon="6.38977">
        <ele>362.1006</ele>
        <time>2026-05-17T14:28:51+02:00</time>
      </trkpt>
      <trkpt lat="48.18426" lon="6.38975">
        <ele>361.5</ele>
        <time>2026-05-17T14:28:52+02:00</time>
      </trkpt>
      <trkpt lat="48.18434" lon="6.3897">
        <ele>361.5</ele>
        <time>2026-05-17T14:28:53+02:00</time>
      </trkpt>
      <trkpt lat="48.1844" lon="6.38967">
        <ele>361.5</ele>
        <time>2026-05-17T14:28:54+02:00</time>
      </trkpt>
      <trkpt lat="48.18442" lon="6.38965">
        <ele>361.1006</ele>
        <time>2026-05-17T14:28:55+02:00</time>
      </trkpt>
      <trkpt lat="48.18451" lon="6.38961">
        <ele>361.2002</ele>
        <time>2026-05-17T14:28:56+02:00</time>
      </trkpt>
      <trkpt lat="48.18456" lon="6.38958">
        <ele>360.7998</ele>
        <time>2026-05-17T14:28:57+02:00</time>
      </trkpt>
      <trkpt lat="48.18462" lon="6.38955">
        <ele>360.7998</ele>
        <time>2026-05-17T14:28:58+02:00</time>
      </trkpt>
      <trkpt lat="48.18467" lon="6.38952">
        <ele>360.9004</ele>
        <time>2026-05-17T14:28:59+02:00</time>
      </trkpt>
      <trkpt lat="48.18472" lon="6.38949">
        <ele>360.4004</ele>
        <time>2026-05-17T14:29:00+02:00</time>
      </trkpt>
      <trkpt lat="48.18478" lon="6.38946">
        <ele>360.5</ele>
        <time>2026-05-17T14:29:01+02:00</time>
      </trkpt>
      <trkpt lat="48.18484" lon="6.38943">
        <ele>360.5</ele>
        <time>2026-05-17T14:29:02+02:00</time>
      </trkpt>
      <trkpt lat="48.1849" lon="6.3894">
        <ele>359.7002</ele>
        <time>2026-05-17T14:29:03+02:00</time>
      </trkpt>
      <trkpt lat="48.18492" lon="6.38938">
        <ele>359.7002</ele>
        <time>2026-05-17T14:29:04+02:00</time>
      </trkpt>
      <trkpt lat="48.18501" lon="6.38933">
        <ele>359.6006</ele>
        <time>2026-05-17T14:29:05+02:00</time>
      </trkpt>
      <trkpt lat="48.18506" lon="6.3893">
        <ele>358.9004</ele>
        <time>2026-05-17T14:29:06+02:00</time>
      </trkpt>
      <trkpt lat="48.18512" lon="6.38927">
        <ele>359</ele>
        <time>2026-05-17T14:29:07+02:00</time>
      </trkpt>
      <trkpt lat="48.18517" lon="6.38923">
        <ele>358.6006</ele>
        <time>2026-05-17T14:29:08+02:00</time>
      </trkpt>
      <trkpt lat="48.18523" lon="6.3892">
        <ele>358.7998</ele>
        <time>2026-05-17T14:29:09+02:00</time>
      </trkpt>
      <trkpt lat="48.18528" lon="6.38917">
        <ele>358.9004</ele>
        <time>2026-05-17T14:29:10+02:00</time>
      </trkpt>
      <trkpt lat="48.18533" lon="6.38913">
        <ele>358.5</ele>
        <time>2026-05-17T14:29:11+02:00</time>
      </trkpt>
      <trkpt lat="48.18539" lon="6.3891">
        <ele>358.6006</ele>
        <time>2026-05-17T14:29:12+02:00</time>
      </trkpt>
      <trkpt lat="48.18544" lon="6.38907">
        <ele>358.7002</ele>
        <time>2026-05-17T14:29:13+02:00</time>
      </trkpt>
      <trkpt lat="48.1855" lon="6.38904">
        <ele>358</ele>
        <time>2026-05-17T14:29:14+02:00</time>
      </trkpt>
      <trkpt lat="48.18556" lon="6.389">
        <ele>358</ele>
        <time>2026-05-17T14:29:15+02:00</time>
      </trkpt>
      <trkpt lat="48.18561" lon="6.38897">
        <ele>357</ele>
        <time>2026-05-17T14:29:16+02:00</time>
      </trkpt>
      <trkpt lat="48.18567" lon="6.38894">
        <ele>356.9004</ele>
        <time>2026-05-17T14:29:17+02:00</time>
      </trkpt>
      <trkpt lat="48.18573" lon="6.38892">
        <ele>356.9004</ele>
        <time>2026-05-17T14:29:18+02:00</time>
      </trkpt>
      <trkpt lat="48.18579" lon="6.38889">
        <ele>356.2002</ele>
        <time>2026-05-17T14:29:19+02:00</time>
      </trkpt>
      <trkpt lat="48.18585" lon="6.38887">
        <ele>356.2002</ele>
        <time>2026-05-17T14:29:20+02:00</time>
      </trkpt>
      <trkpt lat="48.18591" lon="6.38884">
        <ele>356.1006</ele>
        <time>2026-05-17T14:29:21+02:00</time>
      </trkpt>
      <trkpt lat="48.18597" lon="6.38883">
        <ele>356.1006</ele>
        <time>2026-05-17T14:29:22+02:00</time>
      </trkpt>
      <trkpt lat="48.18603" lon="6.38881">
        <ele>356</ele>
        <time>2026-05-17T14:29:23+02:00</time>
      </trkpt>
      <trkpt lat="48.1861" lon="6.3888">
        <ele>355.5</ele>
        <time>2026-05-17T14:29:24+02:00</time>
      </trkpt>
      <trkpt lat="48.18616" lon="6.38879">
        <ele>355.5</ele>
        <time>2026-05-17T14:29:25+02:00</time>
      </trkpt>
      <trkpt lat="48.18622" lon="6.38878">
        <ele>355.6006</ele>
        <time>2026-05-17T14:29:26+02:00</time>
      </trkpt>
      <trkpt lat="48.18628" lon="6.38878">
        <ele>355.7998</ele>
        <time>2026-05-17T14:29:27+02:00</time>
      </trkpt>
      <trkpt lat="48.18635" lon="6.38878">
        <ele>356.7002</ele>
        <time>2026-05-17T14:29:28+02:00</time>
      </trkpt>
      <trkpt lat="48.18641" lon="6.38878">
        <ele>357.2998</ele>
        <time>2026-05-17T14:29:29+02:00</time>
      </trkpt>
      <trkpt lat="48.18648" lon="6.38878">
        <ele>358</ele>
        <time>2026-05-17T14:29:30+02:00</time>
      </trkpt>
      <trkpt lat="48.18654" lon="6.38879">
        <ele>358.7998</ele>
        <time>2026-05-17T14:29:31+02:00</time>
      </trkpt>
      <trkpt lat="48.1866" lon="6.38881">
        <ele>360.2002</ele>
        <time>2026-05-17T14:29:32+02:00</time>
      </trkpt>
      <trkpt lat="48.18667" lon="6.38882">
        <ele>360.9004</ele>
        <time>2026-05-17T14:29:33+02:00</time>
      </trkpt>
      <trkpt lat="48.18673" lon="6.38884">
        <ele>361.4004</ele>
        <time>2026-05-17T14:29:34+02:00</time>
      </trkpt>
      <trkpt lat="48.18679" lon="6.38886">
        <ele>361.5</ele>
        <time>2026-05-17T14:29:35+02:00</time>
      </trkpt>
      <trkpt lat="48.18685" lon="6.38889">
        <ele>361.5</ele>
        <time>2026-05-17T14:29:36+02:00</time>
      </trkpt>
      <trkpt lat="48.18691" lon="6.38891">
        <ele>361.2002</ele>
        <time>2026-05-17T14:29:37+02:00</time>
      </trkpt>
      <trkpt lat="48.18696" lon="6.38894">
        <ele>361.1006</ele>
        <time>2026-05-17T14:29:38+02:00</time>
      </trkpt>
      <trkpt lat="48.18702" lon="6.38897">
        <ele>361.1006</ele>
        <time>2026-05-17T14:29:39+02:00</time>
      </trkpt>
      <trkpt lat="48.18708" lon="6.389">
        <ele>361.1006</ele>
        <time>2026-05-17T14:29:40+02:00</time>
      </trkpt>
      <trkpt lat="48.18714" lon="6.38904">
        <ele>361.1006</ele>
        <time>2026-05-17T14:29:41+02:00</time>
      </trkpt>
      <trkpt lat="48.18719" lon="6.38908">
        <ele>361.7998</ele>
        <time>2026-05-17T14:29:42+02:00</time>
      </trkpt>
      <trkpt lat="48.18724" lon="6.38913">
        <ele>362.1006</ele>
        <time>2026-05-17T14:29:43+02:00</time>
      </trkpt>
      <trkpt lat="48.18729" lon="6.38918">
        <ele>362.4004</ele>
        <time>2026-05-17T14:29:44+02:00</time>
      </trkpt>
      <trkpt lat="48.18734" lon="6.38922">
        <ele>362.2002</ele>
        <time>2026-05-17T14:29:45+02:00</time>
      </trkpt>
      <trkpt lat="48.18739" lon="6.38926">
        <ele>361.4004</ele>
        <time>2026-05-17T14:29:46+02:00</time>
      </trkpt>
      <trkpt lat="48.18744" lon="6.38929">
        <ele>361.2998</ele>
        <time>2026-05-17T14:29:47+02:00</time>
      </trkpt>
      <trkpt lat="48.1875" lon="6.38932">
        <ele>361.2998</ele>
        <time>2026-05-17T14:29:48+02:00</time>
      </trkpt>
      <trkpt lat="48.18755" lon="6.38934">
        <ele>361.1006</ele>
        <time>2026-05-17T14:29:49+02:00</time>
      </trkpt>
      <trkpt lat="48.1876" lon="6.38937">
        <ele>361.1006</ele>
        <time>2026-05-17T14:29:50+02:00</time>
      </trkpt>
      <trkpt lat="48.18763" lon="6.38941">
        <ele>361</ele>
        <time>2026-05-17T14:29:51+02:00</time>
      </trkpt>
      <trkpt lat="48.18766" lon="6.38945">
        <ele>361</ele>
        <time>2026-05-17T14:29:52+02:00</time>
      </trkpt>
      <trkpt lat="48.18768" lon="6.3895">
        <ele>360.9004</ele>
        <time>2026-05-17T14:29:53+02:00</time>
      </trkpt>
      <trkpt lat="48.18771" lon="6.38955">
        <ele>360.9004</ele>
        <time>2026-05-17T14:29:54+02:00</time>
      </trkpt>
      <trkpt lat="48.18774" lon="6.38959">
        <ele>361</ele>
        <time>2026-05-17T14:29:55+02:00</time>
      </trkpt>
      <trkpt lat="48.18777" lon="6.38963">
        <ele>361</ele>
        <time>2026-05-17T14:29:56+02:00</time>
      </trkpt>
      <trkpt lat="48.1878" lon="6.38968">
        <ele>361.1006</ele>
        <time>2026-05-17T14:29:57+02:00</time>
      </trkpt>
      <trkpt lat="48.18783" lon="6.38972">
        <ele>361.1006</ele>
        <time>2026-05-17T14:29:58+02:00</time>
      </trkpt>
      <trkpt lat="48.18786" lon="6.38977">
        <ele>361</ele>
        <time>2026-05-17T14:29:59+02:00</time>
      </trkpt>
      <trkpt lat="48.18789" lon="6.38981">
        <ele>361</ele>
        <time>2026-05-17T14:30:00+02:00</time>
      </trkpt>
      <trkpt lat="48.18792" lon="6.38986">
        <ele>360.7002</ele>
        <time>2026-05-17T14:30:01+02:00</time>
      </trkpt>
      <trkpt lat="48.18795" lon="6.38991">
        <ele>360.9004</ele>
        <time>2026-05-17T14:30:02+02:00</time>
      </trkpt>
      <trkpt lat="48.18798" lon="6.38996">
        <ele>360.7998</ele>
        <time>2026-05-17T14:30:03+02:00</time>
      </trkpt>
      <trkpt lat="48.188" lon="6.39001">
        <ele>361</ele>
        <time>2026-05-17T14:30:04+02:00</time>
      </trkpt>
      <trkpt lat="48.18803" lon="6.39006">
        <ele>361</ele>
        <time>2026-05-17T14:30:05+02:00</time>
      </trkpt>
      <trkpt lat="48.18806" lon="6.39011">
        <ele>361.2002</ele>
        <time>2026-05-17T14:30:06+02:00</time>
      </trkpt>
      <trkpt lat="48.18808" lon="6.39016">
        <ele>361.2002</ele>
        <time>2026-05-17T14:30:07+02:00</time>
      </trkpt>
      <trkpt lat="48.1881" lon="6.39022">
        <ele>361.2998</ele>
        <time>2026-05-17T14:30:08+02:00</time>
      </trkpt>
      <trkpt lat="48.18812" lon="6.39028">
        <ele>361.2002</ele>
        <time>2026-05-17T14:30:09+02:00</time>
      </trkpt>
      <trkpt lat="48.18814" lon="6.39034">
        <ele>361.2002</ele>
        <time>2026-05-17T14:30:10+02:00</time>
      </trkpt>
      <trkpt lat="48.18815" lon="6.39036">
        <ele>361.6006</ele>
        <time>2026-05-17T14:30:11+02:00</time>
      </trkpt>
      <trkpt lat="48.18818" lon="6.39046">
        <ele>361.2998</ele>
        <time>2026-05-17T14:30:12+02:00</time>
      </trkpt>
      <trkpt lat="48.18821" lon="6.39053">
        <ele>360.9004</ele>
        <time>2026-05-17T14:30:13+02:00</time>
      </trkpt>
      <trkpt lat="48.18823" lon="6.3906">
        <ele>360.9004</ele>
        <time>2026-05-17T14:30:14+02:00</time>
      </trkpt>
      <trkpt lat="48.18825" lon="6.39068">
        <ele>360.9004</ele>
        <time>2026-05-17T14:30:15+02:00</time>
      </trkpt>
      <trkpt lat="48.18827" lon="6.39077">
        <ele>361.1006</ele>
        <time>2026-05-17T14:30:16+02:00</time>
      </trkpt>
      <trkpt lat="48.18829" lon="6.39086">
        <ele>361.6006</ele>
        <time>2026-05-17T14:30:17+02:00</time>
      </trkpt>
      <trkpt lat="48.18831" lon="6.39095">
        <ele>361.4004</ele>
        <time>2026-05-17T14:30:18+02:00</time>
      </trkpt>
      <trkpt lat="48.18833" lon="6.39104">
        <ele>361.7002</ele>
        <time>2026-05-17T14:30:19+02:00</time>
      </trkpt>
      <trkpt lat="48.18836" lon="6.39114">
        <ele>361.1006</ele>
        <time>2026-05-17T14:30:20+02:00</time>
      </trkpt>
      <trkpt lat="48.18839" lon="6.39123">
        <ele>361.2002</ele>
        <time>2026-05-17T14:30:21+02:00</time>
      </trkpt>
      <trkpt lat="48.18841" lon="6.39132">
        <ele>361.2002</ele>
        <time>2026-05-17T14:30:22+02:00</time>
      </trkpt>
      <trkpt lat="48.18844" lon="6.3914">
        <ele>361.4004</ele>
        <time>2026-05-17T14:30:23+02:00</time>
      </trkpt>
      <trkpt lat="48.18847" lon="6.39149">
        <ele>361.1006</ele>
        <time>2026-05-17T14:30:24+02:00</time>
      </trkpt>
      <trkpt lat="48.1885" lon="6.39157">
        <ele>360.7002</ele>
        <time>2026-05-17T14:30:25+02:00</time>
      </trkpt>
      <trkpt lat="48.18854" lon="6.39165">
        <ele>360.9004</ele>
        <time>2026-05-17T14:30:26+02:00</time>
      </trkpt>
      <trkpt lat="48.18857" lon="6.39173">
        <ele>361.1006</ele>
        <time>2026-05-17T14:30:27+02:00</time>
      </trkpt>
      <trkpt lat="48.1886" lon="6.39181">
        <ele>361.2002</ele>
        <time>2026-05-17T14:30:28+02:00</time>
      </trkpt>
      <trkpt lat="48.18862" lon="6.39189">
        <ele>361.2998</ele>
        <time>2026-05-17T14:30:29+02:00</time>
      </trkpt>
      <trkpt lat="48.18865" lon="6.39197">
        <ele>361.4004</ele>
        <time>2026-05-17T14:30:30+02:00</time>
      </trkpt>
      <trkpt lat="48.18868" lon="6.39205">
        <ele>361.2998</ele>
        <time>2026-05-17T14:30:31+02:00</time>
      </trkpt>
      <trkpt lat="48.18871" lon="6.39212">
        <ele>362</ele>
        <time>2026-05-17T14:30:32+02:00</time>
      </trkpt>
      <trkpt lat="48.18873" lon="6.39221">
        <ele>362</ele>
        <time>2026-05-17T14:30:33+02:00</time>
      </trkpt>
      <trkpt lat="48.18876" lon="6.39229">
        <ele>362.9004</ele>
        <time>2026-05-17T14:30:34+02:00</time>
      </trkpt>
      <trkpt lat="48.18878" lon="6.39237">
        <ele>362.9004</ele>
        <time>2026-05-17T14:30:35+02:00</time>
      </trkpt>
      <trkpt lat="48.18881" lon="6.39245">
        <ele>362.4004</ele>
        <time>2026-05-17T14:30:36+02:00</time>
      </trkpt>
      <trkpt lat="48.18883" lon="6.39254">
        <ele>361.7002</ele>
        <time>2026-05-17T14:30:37+02:00</time>
      </trkpt>
      <trkpt lat="48.18885" lon="6.39262">
        <ele>361.5</ele>
        <time>2026-05-17T14:30:38+02:00</time>
      </trkpt>
      <trkpt lat="48.18887" lon="6.3927">
        <ele>361.1006</ele>
        <time>2026-05-17T14:30:39+02:00</time>
      </trkpt>
      <trkpt lat="48.1889" lon="6.39278">
        <ele>361.1006</ele>
        <time>2026-05-17T14:30:40+02:00</time>
      </trkpt>
      <trkpt lat="48.18892" lon="6.39286">
        <ele>361.1006</ele>
        <time>2026-05-17T14:30:41+02:00</time>
      </trkpt>
      <trkpt lat="48.18894" lon="6.39294">
        <ele>361.5</ele>
        <time>2026-05-17T14:30:42+02:00</time>
      </trkpt>
      <trkpt lat="48.18896" lon="6.39303">
        <ele>361.5</ele>
        <time>2026-05-17T14:30:43+02:00</time>
      </trkpt>
      <trkpt lat="48.18898" lon="6.39311">
        <ele>361.9004</ele>
        <time>2026-05-17T14:30:44+02:00</time>
      </trkpt>
      <trkpt lat="48.189" lon="6.3932">
        <ele>361.7998</ele>
        <time>2026-05-17T14:30:45+02:00</time>
      </trkpt>
      <trkpt lat="48.189" lon="6.39324">
        <ele>361.7998</ele>
        <time>2026-05-17T14:30:46+02:00</time>
      </trkpt>
      <trkpt lat="48.18902" lon="6.39336">
        <ele>361.6006</ele>
        <time>2026-05-17T14:30:47+02:00</time>
      </trkpt>
      <trkpt lat="48.18903" lon="6.39344">
        <ele>361.6006</ele>
        <time>2026-05-17T14:30:48+02:00</time>
      </trkpt>
      <trkpt lat="48.18904" lon="6.39348">
        <ele>362.4004</ele>
        <time>2026-05-17T14:30:49+02:00</time>
      </trkpt>
      <trkpt lat="48.18906" lon="6.3936">
        <ele>362.4004</ele>
        <time>2026-05-17T14:30:50+02:00</time>
      </trkpt>
      <trkpt lat="48.18907" lon="6.39367">
        <ele>362.4004</ele>
        <time>2026-05-17T14:30:51+02:00</time>
      </trkpt>
      <trkpt lat="48.18908" lon="6.39375">
        <ele>362.1006</ele>
        <time>2026-05-17T14:30:52+02:00</time>
      </trkpt>
      <trkpt lat="48.18909" lon="6.39383">
        <ele>361.9004</ele>
        <time>2026-05-17T14:30:53+02:00</time>
      </trkpt>
      <trkpt lat="48.1891" lon="6.39391">
        <ele>361.4004</ele>
        <time>2026-05-17T14:30:54+02:00</time>
      </trkpt>
      <trkpt lat="48.18911" lon="6.39399">
        <ele>361.2998</ele>
        <time>2026-05-17T14:30:55+02:00</time>
      </trkpt>
      <trkpt lat="48.18913" lon="6.39408">
        <ele>361.2998</ele>
        <time>2026-05-17T14:30:56+02:00</time>
      </trkpt>
      <trkpt lat="48.18914" lon="6.39416">
        <ele>361.4004</ele>
        <time>2026-05-17T14:30:57+02:00</time>
      </trkpt>
      <trkpt lat="48.18915" lon="6.39425">
        <ele>361.4004</ele>
        <time>2026-05-17T14:30:58+02:00</time>
      </trkpt>
      <trkpt lat="48.18916" lon="6.39433">
        <ele>361.4004</ele>
        <time>2026-05-17T14:30:59+02:00</time>
      </trkpt>
      <trkpt lat="48.18917" lon="6.39441">
        <ele>361.4004</ele>
        <time>2026-05-17T14:31:00+02:00</time>
      </trkpt>
      <trkpt lat="48.18918" lon="6.39449">
        <ele>361.4004</ele>
        <time>2026-05-17T14:31:01+02:00</time>
      </trkpt>
      <trkpt lat="48.1892" lon="6.39458">
        <ele>361.4004</ele>
        <time>2026-05-17T14:31:02+02:00</time>
      </trkpt>
      <trkpt lat="48.18921" lon="6.39466">
        <ele>361.7002</ele>
        <time>2026-05-17T14:31:03+02:00</time>
      </trkpt>
      <trkpt lat="48.18922" lon="6.39474">
        <ele>361.7002</ele>
        <time>2026-05-17T14:31:04+02:00</time>
      </trkpt>
      <trkpt lat="48.18923" lon="6.39483">
        <ele>361.7002</ele>
        <time>2026-05-17T14:31:05+02:00</time>
      </trkpt>
      <trkpt lat="48.18925" lon="6.39491">
        <ele>361.6006</ele>
        <time>2026-05-17T14:31:06+02:00</time>
      </trkpt>
      <trkpt lat="48.18926" lon="6.395">
        <ele>361.6006</ele>
        <time>2026-05-17T14:31:07+02:00</time>
      </trkpt>
      <trkpt lat="48.18927" lon="6.39508">
        <ele>362</ele>
        <time>2026-05-17T14:31:08+02:00</time>
      </trkpt>
      <trkpt lat="48.18928" lon="6.39517">
        <ele>362</ele>
        <time>2026-05-17T14:31:09+02:00</time>
      </trkpt>
      <trkpt lat="48.18929" lon="6.39527">
        <ele>361.9004</ele>
        <time>2026-05-17T14:31:10+02:00</time>
      </trkpt>
      <trkpt lat="48.18931" lon="6.39536">
        <ele>361.4004</ele>
        <time>2026-05-17T14:31:11+02:00</time>
      </trkpt>
      <trkpt lat="48.18932" lon="6.39545">
        <ele>361</ele>
        <time>2026-05-17T14:31:12+02:00</time>
      </trkpt>
      <trkpt lat="48.18933" lon="6.39554">
        <ele>361.1006</ele>
        <time>2026-05-17T14:31:13+02:00</time>
      </trkpt>
      <trkpt lat="48.18935" lon="6.39563">
        <ele>361</ele>
        <time>2026-05-17T14:31:14+02:00</time>
      </trkpt>
      <trkpt lat="48.18936" lon="6.39572">
        <ele>361.1006</ele>
        <time>2026-05-17T14:31:15+02:00</time>
      </trkpt>
      <trkpt lat="48.18937" lon="6.39582">
        <ele>361.2998</ele>
        <time>2026-05-17T14:31:16+02:00</time>
      </trkpt>
      <trkpt lat="48.18939" lon="6.39591">
        <ele>361.2998</ele>
        <time>2026-05-17T14:31:17+02:00</time>
      </trkpt>
      <trkpt lat="48.1894" lon="6.39601">
        <ele>361.4004</ele>
        <time>2026-05-17T14:31:18+02:00</time>
      </trkpt>
      <trkpt lat="48.1894" lon="6.39611">
        <ele>361.4004</ele>
        <time>2026-05-17T14:31:19+02:00</time>
      </trkpt>
      <trkpt lat="48.18942" lon="6.3962">
        <ele>361.4004</ele>
        <time>2026-05-17T14:31:20+02:00</time>
      </trkpt>
      <trkpt lat="48.18943" lon="6.39629">
        <ele>361.5</ele>
        <time>2026-05-17T14:31:21+02:00</time>
      </trkpt>
      <trkpt lat="48.18943" lon="6.39634">
        <ele>361.5</ele>
        <time>2026-05-17T14:31:22+02:00</time>
      </trkpt>
      <trkpt lat="48.18945" lon="6.39647">
        <ele>361.2998</ele>
        <time>2026-05-17T14:31:23+02:00</time>
      </trkpt>
      <trkpt lat="48.18946" lon="6.39656">
        <ele>361.2998</ele>
        <time>2026-05-17T14:31:24+02:00</time>
      </trkpt>
      <trkpt lat="48.18947" lon="6.39665">
        <ele>361.2998</ele>
        <time>2026-05-17T14:31:25+02:00</time>
      </trkpt>
      <trkpt lat="48.18948" lon="6.39674">
        <ele>361.2998</ele>
        <time>2026-05-17T14:31:26+02:00</time>
      </trkpt>
      <trkpt lat="48.1895" lon="6.39682">
        <ele>361.7998</ele>
        <time>2026-05-17T14:31:27+02:00</time>
      </trkpt>
      <trkpt lat="48.18951" lon="6.39691">
        <ele>361.7998</ele>
        <time>2026-05-17T14:31:28+02:00</time>
      </trkpt>
      <trkpt lat="48.18953" lon="6.397">
        <ele>361.7998</ele>
        <time>2026-05-17T14:31:29+02:00</time>
      </trkpt>
      <trkpt lat="48.18954" lon="6.39708">
        <ele>361.9004</ele>
        <time>2026-05-17T14:31:30+02:00</time>
      </trkpt>
      <trkpt lat="48.18956" lon="6.39717">
        <ele>363.1006</ele>
        <time>2026-05-17T14:31:31+02:00</time>
      </trkpt>
      <trkpt lat="48.18957" lon="6.39726">
        <ele>363.2002</ele>
        <time>2026-05-17T14:31:32+02:00</time>
      </trkpt>
      <trkpt lat="48.18958" lon="6.39734">
        <ele>363.2998</ele>
        <time>2026-05-17T14:31:33+02:00</time>
      </trkpt>
      <trkpt lat="48.1896" lon="6.39742">
        <ele>363.2998</ele>
        <time>2026-05-17T14:31:34+02:00</time>
      </trkpt>
      <trkpt lat="48.18961" lon="6.39751">
        <ele>364.5</ele>
        <time>2026-05-17T14:31:35+02:00</time>
      </trkpt>
      <trkpt lat="48.18963" lon="6.3976">
        <ele>364.6006</ele>
        <time>2026-05-17T14:31:36+02:00</time>
      </trkpt>
      <trkpt lat="48.18964" lon="6.39768">
        <ele>364.7002</ele>
        <time>2026-05-17T14:31:37+02:00</time>
      </trkpt>
      <trkpt lat="48.18965" lon="6.39777">
        <ele>364.5</ele>
        <time>2026-05-17T14:31:38+02:00</time>
      </trkpt>
      <trkpt lat="48.18966" lon="6.39785">
        <ele>364.4004</ele>
        <time>2026-05-17T14:31:39+02:00</time>
      </trkpt>
      <trkpt lat="48.18967" lon="6.39794">
        <ele>366</ele>
        <time>2026-05-17T14:31:40+02:00</time>
      </trkpt>
      <trkpt lat="48.18968" lon="6.39802">
        <ele>366</ele>
        <time>2026-05-17T14:31:41+02:00</time>
      </trkpt>
      <trkpt lat="48.18969" lon="6.39811">
        <ele>366.1006</ele>
        <time>2026-05-17T14:31:42+02:00</time>
      </trkpt>
      <trkpt lat="48.18969" lon="6.3982">
        <ele>366.1006</ele>
        <time>2026-05-17T14:31:43+02:00</time>
      </trkpt>
      <trkpt lat="48.1897" lon="6.39829">
        <ele>366</ele>
        <time>2026-05-17T14:31:44+02:00</time>
      </trkpt>
      <trkpt lat="48.18971" lon="6.39837">
        <ele>364.7002</ele>
        <time>2026-05-17T14:31:45+02:00</time>
      </trkpt>
      <trkpt lat="48.18972" lon="6.39846">
        <ele>363.1006</ele>
        <time>2026-05-17T14:31:46+02:00</time>
      </trkpt>
      <trkpt lat="48.18973" lon="6.39856">
        <ele>361.7998</ele>
        <time>2026-05-17T14:31:47+02:00</time>
      </trkpt>
      <trkpt lat="48.18974" lon="6.39865">
        <ele>361.2998</ele>
        <time>2026-05-17T14:31:48+02:00</time>
      </trkpt>
      <trkpt lat="48.18974" lon="6.39869">
        <ele>361.1006</ele>
        <time>2026-05-17T14:31:49+02:00</time>
      </trkpt>
      <trkpt lat="48.18976" lon="6.39883">
        <ele>361.2002</ele>
        <time>2026-05-17T14:31:50+02:00</time>
      </trkpt>
      <trkpt lat="48.18976" lon="6.39892">
        <ele>361.5</ele>
        <time>2026-05-17T14:31:51+02:00</time>
      </trkpt>
      <trkpt lat="48.18977" lon="6.39901">
        <ele>361.2002</ele>
        <time>2026-05-17T14:31:52+02:00</time>
      </trkpt>
      <trkpt lat="48.18979" lon="6.3991">
        <ele>361.7002</ele>
        <time>2026-05-17T14:31:53+02:00</time>
      </trkpt>
      <trkpt lat="48.1898" lon="6.3992">
        <ele>361.5</ele>
        <time>2026-05-17T14:31:54+02:00</time>
      </trkpt>
      <trkpt lat="48.18981" lon="6.39929">
        <ele>361.5</ele>
        <time>2026-05-17T14:31:55+02:00</time>
      </trkpt>
      <trkpt lat="48.18982" lon="6.39937">
        <ele>361.5</ele>
        <time>2026-05-17T14:31:56+02:00</time>
      </trkpt>
      <trkpt lat="48.18984" lon="6.39946">
        <ele>363.1006</ele>
        <time>2026-05-17T14:31:57+02:00</time>
      </trkpt>
      <trkpt lat="48.18985" lon="6.39955">
        <ele>363.2002</ele>
        <time>2026-05-17T14:31:58+02:00</time>
      </trkpt>
      <trkpt lat="48.18986" lon="6.39964">
        <ele>363.2998</ele>
        <time>2026-05-17T14:31:59+02:00</time>
      </trkpt>
      <trkpt lat="48.18987" lon="6.39973">
        <ele>363.4004</ele>
        <time>2026-05-17T14:32:00+02:00</time>
      </trkpt>
      <trkpt lat="48.18988" lon="6.39982">
        <ele>363.2998</ele>
        <time>2026-05-17T14:32:01+02:00</time>
      </trkpt>
      <trkpt lat="48.1899" lon="6.39992">
        <ele>364.2002</ele>
        <time>2026-05-17T14:32:02+02:00</time>
      </trkpt>
      <trkpt lat="48.18992" lon="6.40001">
        <ele>363</ele>
        <time>2026-05-17T14:32:03+02:00</time>
      </trkpt>
      <trkpt lat="48.18993" lon="6.4001">
        <ele>361.7998</ele>
        <time>2026-05-17T14:32:04+02:00</time>
      </trkpt>
      <trkpt lat="48.18994" lon="6.40019">
        <ele>360.7002</ele>
        <time>2026-05-17T14:32:05+02:00</time>
      </trkpt>
      <trkpt lat="48.18996" lon="6.40028">
        <ele>360.7998</ele>
        <time>2026-05-17T14:32:06+02:00</time>
      </trkpt>
      <trkpt lat="48.18997" lon="6.40037">
        <ele>360.6006</ele>
        <time>2026-05-17T14:32:07+02:00</time>
      </trkpt>
      <trkpt lat="48.18998" lon="6.40046">
        <ele>360.7998</ele>
        <time>2026-05-17T14:32:08+02:00</time>
      </trkpt>
      <trkpt lat="48.18999" lon="6.40055">
        <ele>361.2002</ele>
        <time>2026-05-17T14:32:09+02:00</time>
      </trkpt>
      <trkpt lat="48.19" lon="6.40064">
        <ele>361.6006</ele>
        <time>2026-05-17T14:32:10+02:00</time>
      </trkpt>
      <trkpt lat="48.19001" lon="6.40073">
        <ele>361.4004</ele>
        <time>2026-05-17T14:32:11+02:00</time>
      </trkpt>
      <trkpt lat="48.19002" lon="6.40082">
        <ele>361.4004</ele>
        <time>2026-05-17T14:32:12+02:00</time>
      </trkpt>
      <trkpt lat="48.19004" lon="6.4009">
        <ele>361.5</ele>
        <time>2026-05-17T14:32:13+02:00</time>
      </trkpt>
      <trkpt lat="48.19005" lon="6.40099">
        <ele>361.2998</ele>
        <time>2026-05-17T14:32:14+02:00</time>
      </trkpt>
      <trkpt lat="48.19006" lon="6.40109">
        <ele>361.2998</ele>
        <time>2026-05-17T14:32:15+02:00</time>
      </trkpt>
      <trkpt lat="48.19007" lon="6.40117">
        <ele>360.5</ele>
        <time>2026-05-17T14:32:16+02:00</time>
      </trkpt>
      <trkpt lat="48.19009" lon="6.40126">
        <ele>360.6006</ele>
        <time>2026-05-17T14:32:17+02:00</time>
      </trkpt>
      <trkpt lat="48.19011" lon="6.40134">
        <ele>361.9004</ele>
        <time>2026-05-17T14:32:18+02:00</time>
      </trkpt>
      <trkpt lat="48.19013" lon="6.40142">
        <ele>361</ele>
        <time>2026-05-17T14:32:19+02:00</time>
      </trkpt>
      <trkpt lat="48.19016" lon="6.4015">
        <ele>362.2002</ele>
        <time>2026-05-17T14:32:20+02:00</time>
      </trkpt>
      <trkpt lat="48.19019" lon="6.40157">
        <ele>362</ele>
        <time>2026-05-17T14:32:21+02:00</time>
      </trkpt>
      <trkpt lat="48.19022" lon="6.40165">
        <ele>363.2002</ele>
        <time>2026-05-17T14:32:22+02:00</time>
      </trkpt>
      <trkpt lat="48.19026" lon="6.40174">
        <ele>363.7002</ele>
        <time>2026-05-17T14:32:23+02:00</time>
      </trkpt>
      <trkpt lat="48.1903" lon="6.40182">
        <ele>364.9004</ele>
        <time>2026-05-17T14:32:24+02:00</time>
      </trkpt>
      <trkpt lat="48.19033" lon="6.4019">
        <ele>366.4004</ele>
        <time>2026-05-17T14:32:25+02:00</time>
      </trkpt>
      <trkpt lat="48.19037" lon="6.40197">
        <ele>365.1006</ele>
        <time>2026-05-17T14:32:26+02:00</time>
      </trkpt>
      <trkpt lat="48.1904" lon="6.40202">
        <ele>365.1006</ele>
        <time>2026-05-17T14:32:27+02:00</time>
      </trkpt>
      <trkpt lat="48.19045" lon="6.40207">
        <ele>362.9004</ele>
        <time>2026-05-17T14:32:28+02:00</time>
      </trkpt>
      <trkpt lat="48.19049" lon="6.40212">
        <ele>361.1006</ele>
        <time>2026-05-17T14:32:29+02:00</time>
      </trkpt>
      <trkpt lat="48.19054" lon="6.40217">
        <ele>360.4004</ele>
        <time>2026-05-17T14:32:30+02:00</time>
      </trkpt>
      <trkpt lat="48.19058" lon="6.40222">
        <ele>360.7002</ele>
        <time>2026-05-17T14:32:31+02:00</time>
      </trkpt>
      <trkpt lat="48.19062" lon="6.40226">
        <ele>360.2998</ele>
        <time>2026-05-17T14:32:32+02:00</time>
      </trkpt>
      <trkpt lat="48.19067" lon="6.4023">
        <ele>360.7002</ele>
        <time>2026-05-17T14:32:33+02:00</time>
      </trkpt>
      <trkpt lat="48.19073" lon="6.40233">
        <ele>360.7002</ele>
        <time>2026-05-17T14:32:34+02:00</time>
      </trkpt>
      <trkpt lat="48.19078" lon="6.40235">
        <ele>361.2002</ele>
        <time>2026-05-17T14:32:35+02:00</time>
      </trkpt>
      <trkpt lat="48.19083" lon="6.40238">
        <ele>361.2998</ele>
        <time>2026-05-17T14:32:36+02:00</time>
      </trkpt>
      <trkpt lat="48.19088" lon="6.40242">
        <ele>362</ele>
        <time>2026-05-17T14:32:37+02:00</time>
      </trkpt>
      <trkpt lat="48.19093" lon="6.40245">
        <ele>362.9004</ele>
        <time>2026-05-17T14:32:38+02:00</time>
      </trkpt>
      <trkpt lat="48.19097" lon="6.40249">
        <ele>361.7002</ele>
        <time>2026-05-17T14:32:39+02:00</time>
      </trkpt>
      <trkpt lat="48.19101" lon="6.40253">
        <ele>362.5</ele>
        <time>2026-05-17T14:32:40+02:00</time>
      </trkpt>
      <trkpt lat="48.19105" lon="6.40256">
        <ele>362.6006</ele>
        <time>2026-05-17T14:32:41+02:00</time>
      </trkpt>
      <trkpt lat="48.19109" lon="6.4026">
        <ele>362.6006</ele>
        <time>2026-05-17T14:32:42+02:00</time>
      </trkpt>
      <trkpt lat="48.19112" lon="6.40264">
        <ele>362.7002</ele>
        <time>2026-05-17T14:32:43+02:00</time>
      </trkpt>
      <trkpt lat="48.19115" lon="6.40269">
        <ele>362.7002</ele>
        <time>2026-05-17T14:32:44+02:00</time>
      </trkpt>
      <trkpt lat="48.19118" lon="6.40273">
        <ele>362.1006</ele>
        <time>2026-05-17T14:32:45+02:00</time>
      </trkpt>
      <trkpt lat="48.19121" lon="6.40278">
        <ele>363.1006</ele>
        <time>2026-05-17T14:32:46+02:00</time>
      </trkpt>
      <trkpt lat="48.19124" lon="6.40284">
        <ele>361.9004</ele>
        <time>2026-05-17T14:32:47+02:00</time>
      </trkpt>
      <trkpt lat="48.19127" lon="6.40289">
        <ele>362.7998</ele>
        <time>2026-05-17T14:32:48+02:00</time>
      </trkpt>
      <trkpt lat="48.1913" lon="6.40295">
        <ele>362.7998</ele>
        <time>2026-05-17T14:32:49+02:00</time>
      </trkpt>
      <trkpt lat="48.19133" lon="6.40301">
        <ele>363.2998</ele>
        <time>2026-05-17T14:32:50+02:00</time>
      </trkpt>
      <trkpt lat="48.19135" lon="6.40307">
        <ele>362.6006</ele>
        <time>2026-05-17T14:32:51+02:00</time>
      </trkpt>
      <trkpt lat="48.19137" lon="6.40313">
        <ele>362.6006</ele>
        <time>2026-05-17T14:32:52+02:00</time>
      </trkpt>
      <trkpt lat="48.19138" lon="6.4032">
        <ele>362.4004</ele>
        <time>2026-05-17T14:32:53+02:00</time>
      </trkpt>
      <trkpt lat="48.19141" lon="6.40326">
        <ele>361.2998</ele>
        <time>2026-05-17T14:32:54+02:00</time>
      </trkpt>
      <trkpt lat="48.19142" lon="6.40333">
        <ele>361.2998</ele>
        <time>2026-05-17T14:32:55+02:00</time>
      </trkpt>
      <trkpt lat="48.19143" lon="6.40341">
        <ele>361.6006</ele>
        <time>2026-05-17T14:32:56+02:00</time>
      </trkpt>
      <trkpt lat="48.19145" lon="6.40348">
        <ele>361.1006</ele>
        <time>2026-05-17T14:32:57+02:00</time>
      </trkpt>
      <trkpt lat="48.19145" lon="6.40356">
        <ele>361.2998</ele>
        <time>2026-05-17T14:32:58+02:00</time>
      </trkpt>
      <trkpt lat="48.19146" lon="6.40363">
        <ele>361.2998</ele>
        <time>2026-05-17T14:32:59+02:00</time>
      </trkpt>
      <trkpt lat="48.19146" lon="6.40371">
        <ele>361.2998</ele>
        <time>2026-05-17T14:33:00+02:00</time>
      </trkpt>
      <trkpt lat="48.19146" lon="6.40379">
        <ele>361.2998</ele>
        <time>2026-05-17T14:33:01+02:00</time>
      </trkpt>
      <trkpt lat="48.19146" lon="6.40386">
        <ele>361.2998</ele>
        <time>2026-05-17T14:33:02+02:00</time>
      </trkpt>
      <trkpt lat="48.19146" lon="6.40394">
        <ele>361.2998</ele>
        <time>2026-05-17T14:33:03+02:00</time>
      </trkpt>
      <trkpt lat="48.19146" lon="6.40402">
        <ele>361.2998</ele>
        <time>2026-05-17T14:33:04+02:00</time>
      </trkpt>
      <trkpt lat="48.19146" lon="6.4041">
        <ele>361.4004</ele>
        <time>2026-05-17T14:33:05+02:00</time>
      </trkpt>
      <trkpt lat="48.19146" lon="6.40418">
        <ele>361.4004</ele>
        <time>2026-05-17T14:33:06+02:00</time>
      </trkpt>
      <trkpt lat="48.19146" lon="6.40426">
        <ele>361.4004</ele>
        <time>2026-05-17T14:33:07+02:00</time>
      </trkpt>
      <trkpt lat="48.19146" lon="6.40435">
        <ele>361.4004</ele>
        <time>2026-05-17T14:33:08+02:00</time>
      </trkpt>
      <trkpt lat="48.19146" lon="6.40443">
        <ele>361.4004</ele>
        <time>2026-05-17T14:33:09+02:00</time>
      </trkpt>
      <trkpt lat="48.19146" lon="6.40452">
        <ele>361.4004</ele>
        <time>2026-05-17T14:33:10+02:00</time>
      </trkpt>
      <trkpt lat="48.19146" lon="6.40461">
        <ele>361.5</ele>
        <time>2026-05-17T14:33:11+02:00</time>
      </trkpt>
      <trkpt lat="48.19146" lon="6.40469">
        <ele>361.5</ele>
        <time>2026-05-17T14:33:12+02:00</time>
      </trkpt>
      <trkpt lat="48.19146" lon="6.40478">
        <ele>361.5</ele>
        <time>2026-05-17T14:33:13+02:00</time>
      </trkpt>
      <trkpt lat="48.19146" lon="6.40487">
        <ele>361.5</ele>
        <time>2026-05-17T14:33:14+02:00</time>
      </trkpt>
      <trkpt lat="48.19146" lon="6.40496">
        <ele>361.5</ele>
        <time>2026-05-17T14:33:15+02:00</time>
      </trkpt>
      <trkpt lat="48.19146" lon="6.40505">
        <ele>361.6006</ele>
        <time>2026-05-17T14:33:16+02:00</time>
      </trkpt>
      <trkpt lat="48.19146" lon="6.40514">
        <ele>361.6006</ele>
        <time>2026-05-17T14:33:17+02:00</time>
      </trkpt>
      <trkpt lat="48.19147" lon="6.40523">
        <ele>361.6006</ele>
        <time>2026-05-17T14:33:18+02:00</time>
      </trkpt>
      <trkpt lat="48.19147" lon="6.40528">
        <ele>361.6006</ele>
        <time>2026-05-17T14:33:19+02:00</time>
      </trkpt>
      <trkpt lat="48.19148" lon="6.40542">
        <ele>361.7002</ele>
        <time>2026-05-17T14:33:20+02:00</time>
      </trkpt>
      <trkpt lat="48.19148" lon="6.40551">
        <ele>361.7002</ele>
        <time>2026-05-17T14:33:21+02:00</time>
      </trkpt>
      <trkpt lat="48.19148" lon="6.40561">
        <ele>361.7002</ele>
        <time>2026-05-17T14:33:22+02:00</time>
      </trkpt>
      <trkpt lat="48.19149" lon="6.4057">
        <ele>361.7998</ele>
        <time>2026-05-17T14:33:23+02:00</time>
      </trkpt>
      <trkpt lat="48.1915" lon="6.40578">
        <ele>361.4004</ele>
        <time>2026-05-17T14:33:24+02:00</time>
      </trkpt>
      <trkpt lat="48.19151" lon="6.40583">
        <ele>361.4004</ele>
        <time>2026-05-17T14:33:25+02:00</time>
      </trkpt>
      <trkpt lat="48.19152" lon="6.40596">
        <ele>361.6006</ele>
        <time>2026-05-17T14:33:26+02:00</time>
      </trkpt>
      <trkpt lat="48.19154" lon="6.40605">
        <ele>362.1006</ele>
        <time>2026-05-17T14:33:27+02:00</time>
      </trkpt>
      <trkpt lat="48.19155" lon="6.40614">
        <ele>362.6006</ele>
        <time>2026-05-17T14:33:28+02:00</time>
      </trkpt>
      <trkpt lat="48.19156" lon="6.40623">
        <ele>362.6006</ele>
        <time>2026-05-17T14:33:29+02:00</time>
      </trkpt>
      <trkpt lat="48.19158" lon="6.40632">
        <ele>363</ele>
        <time>2026-05-17T14:33:30+02:00</time>
      </trkpt>
      <trkpt lat="48.19159" lon="6.40641">
        <ele>363.2002</ele>
        <time>2026-05-17T14:33:31+02:00</time>
      </trkpt>
      <trkpt lat="48.1916" lon="6.4065">
        <ele>363.2002</ele>
        <time>2026-05-17T14:33:32+02:00</time>
      </trkpt>
      <trkpt lat="48.19161" lon="6.40659">
        <ele>363.2998</ele>
        <time>2026-05-17T14:33:33+02:00</time>
      </trkpt>
      <trkpt lat="48.19162" lon="6.40668">
        <ele>362.6006</ele>
        <time>2026-05-17T14:33:34+02:00</time>
      </trkpt>
      <trkpt lat="48.19163" lon="6.40677">
        <ele>362.6006</ele>
        <time>2026-05-17T14:33:35+02:00</time>
      </trkpt>
      <trkpt lat="48.19165" lon="6.40686">
        <ele>362.6006</ele>
        <time>2026-05-17T14:33:36+02:00</time>
      </trkpt>
      <trkpt lat="48.19166" lon="6.40695">
        <ele>362.6006</ele>
        <time>2026-05-17T14:33:37+02:00</time>
      </trkpt>
      <trkpt lat="48.19167" lon="6.40704">
        <ele>362</ele>
        <time>2026-05-17T14:33:38+02:00</time>
      </trkpt>
      <trkpt lat="48.19169" lon="6.40713">
        <ele>362</ele>
        <time>2026-05-17T14:33:39+02:00</time>
      </trkpt>
      <trkpt lat="48.1917" lon="6.40722">
        <ele>362</ele>
        <time>2026-05-17T14:33:40+02:00</time>
      </trkpt>
      <trkpt lat="48.19172" lon="6.4073">
        <ele>362</ele>
        <time>2026-05-17T14:33:41+02:00</time>
      </trkpt>
      <trkpt lat="48.19173" lon="6.40739">
        <ele>361.5</ele>
        <time>2026-05-17T14:33:42+02:00</time>
      </trkpt>
      <trkpt lat="48.19174" lon="6.40748">
        <ele>361.5</ele>
        <time>2026-05-17T14:33:43+02:00</time>
      </trkpt>
      <trkpt lat="48.19175" lon="6.40756">
        <ele>361.5</ele>
        <time>2026-05-17T14:33:44+02:00</time>
      </trkpt>
      <trkpt lat="48.19176" lon="6.40765">
        <ele>361.6006</ele>
        <time>2026-05-17T14:33:45+02:00</time>
      </trkpt>
      <trkpt lat="48.19177" lon="6.40773">
        <ele>361.6006</ele>
        <time>2026-05-17T14:33:46+02:00</time>
      </trkpt>
      <trkpt lat="48.19179" lon="6.40782">
        <ele>361.2998</ele>
        <time>2026-05-17T14:33:47+02:00</time>
      </trkpt>
      <trkpt lat="48.1918" lon="6.40791">
        <ele>361.4004</ele>
        <time>2026-05-17T14:33:48+02:00</time>
      </trkpt>
      <trkpt lat="48.19181" lon="6.40799">
        <ele>362</ele>
        <time>2026-05-17T14:33:49+02:00</time>
      </trkpt>
      <trkpt lat="48.19182" lon="6.40808">
        <ele>362.7002</ele>
        <time>2026-05-17T14:33:50+02:00</time>
      </trkpt>
      <trkpt lat="48.19183" lon="6.40816">
        <ele>363.4004</ele>
        <time>2026-05-17T14:33:51+02:00</time>
      </trkpt>
      <trkpt lat="48.19185" lon="6.40824">
        <ele>363.2998</ele>
        <time>2026-05-17T14:33:52+02:00</time>
      </trkpt>
      <trkpt lat="48.19186" lon="6.40833">
        <ele>363.4004</ele>
        <time>2026-05-17T14:33:53+02:00</time>
      </trkpt>
      <trkpt lat="48.19188" lon="6.40842">
        <ele>363.2998</ele>
        <time>2026-05-17T14:33:54+02:00</time>
      </trkpt>
      <trkpt lat="48.1919" lon="6.40851">
        <ele>362.6006</ele>
        <time>2026-05-17T14:33:55+02:00</time>
      </trkpt>
      <trkpt lat="48.19191" lon="6.40861">
        <ele>362.7998</ele>
        <time>2026-05-17T14:33:56+02:00</time>
      </trkpt>
      <trkpt lat="48.19194" lon="6.40871">
        <ele>363.1006</ele>
        <time>2026-05-17T14:33:57+02:00</time>
      </trkpt>
      <trkpt lat="48.19196" lon="6.40881">
        <ele>362.7998</ele>
        <time>2026-05-17T14:33:58+02:00</time>
      </trkpt>
      <trkpt lat="48.192" lon="6.4089">
        <ele>363.1006</ele>
        <time>2026-05-17T14:33:59+02:00</time>
      </trkpt>
      <trkpt lat="48.19203" lon="6.409">
        <ele>362.7002</ele>
        <time>2026-05-17T14:34:00+02:00</time>
      </trkpt>
      <trkpt lat="48.19206" lon="6.40909">
        <ele>363.4004</ele>
        <time>2026-05-17T14:34:01+02:00</time>
      </trkpt>
      <trkpt lat="48.1921" lon="6.40918">
        <ele>363.2998</ele>
        <time>2026-05-17T14:34:02+02:00</time>
      </trkpt>
      <trkpt lat="48.19213" lon="6.40926">
        <ele>363.1006</ele>
        <time>2026-05-17T14:34:03+02:00</time>
      </trkpt>
      <trkpt lat="48.19216" lon="6.40934">
        <ele>363.4004</ele>
        <time>2026-05-17T14:34:04+02:00</time>
      </trkpt>
      <trkpt lat="48.19219" lon="6.40942">
        <ele>362.7002</ele>
        <time>2026-05-17T14:34:05+02:00</time>
      </trkpt>
      <trkpt lat="48.19222" lon="6.40949">
        <ele>362.7002</ele>
        <time>2026-05-17T14:34:06+02:00</time>
      </trkpt>
      <trkpt lat="48.19224" lon="6.40953">
        <ele>361.9004</ele>
        <time>2026-05-17T14:34:07+02:00</time>
      </trkpt>
      <trkpt lat="48.19229" lon="6.40965">
        <ele>362.4004</ele>
        <time>2026-05-17T14:34:08+02:00</time>
      </trkpt>
      <trkpt lat="48.19232" lon="6.40972">
        <ele>362.7002</ele>
        <time>2026-05-17T14:34:09+02:00</time>
      </trkpt>
      <trkpt lat="48.19235" lon="6.4098">
        <ele>363.4004</ele>
        <time>2026-05-17T14:34:10+02:00</time>
      </trkpt>
      <trkpt lat="48.19237" lon="6.40987">
        <ele>363.2998</ele>
        <time>2026-05-17T14:34:11+02:00</time>
      </trkpt>
      <trkpt lat="48.1924" lon="6.40994">
        <ele>363.4004</ele>
        <time>2026-05-17T14:34:12+02:00</time>
      </trkpt>
      <trkpt lat="48.19241" lon="6.41002">
        <ele>363.2998</ele>
        <time>2026-05-17T14:34:13+02:00</time>
      </trkpt>
      <trkpt lat="48.19244" lon="6.41009">
        <ele>362.5</ele>
        <time>2026-05-17T14:34:14+02:00</time>
      </trkpt>
      <trkpt lat="48.19246" lon="6.41016">
        <ele>362.5</ele>
        <time>2026-05-17T14:34:15+02:00</time>
      </trkpt>
      <trkpt lat="48.19249" lon="6.41021">
        <ele>361.7998</ele>
        <time>2026-05-17T14:34:16+02:00</time>
      </trkpt>
      <trkpt lat="48.19253" lon="6.41026">
        <ele>361.4004</ele>
        <time>2026-05-17T14:34:17+02:00</time>
      </trkpt>
      <trkpt lat="48.19257" lon="6.41031">
        <ele>361.7998</ele>
        <time>2026-05-17T14:34:18+02:00</time>
      </trkpt>
      <trkpt lat="48.1926" lon="6.41035">
        <ele>361.7002</ele>
        <time>2026-05-17T14:34:19+02:00</time>
      </trkpt>
      <trkpt lat="48.19262" lon="6.41039">
        <ele>362.1006</ele>
        <time>2026-05-17T14:34:20+02:00</time>
      </trkpt>
      <trkpt lat="48.19264" lon="6.41043">
        <ele>362.1006</ele>
        <time>2026-05-17T14:34:21+02:00</time>
      </trkpt>
      <trkpt lat="48.19266" lon="6.41046">
        <ele>362.1006</ele>
        <time>2026-05-17T14:34:22+02:00</time>
      </trkpt>
      <trkpt lat="48.19268" lon="6.41049">
        <ele>362.1006</ele>
        <time>2026-05-17T14:34:23+02:00</time>
      </trkpt>
      <trkpt lat="48.19271" lon="6.41054">
        <ele>361.5</ele>
        <time>2026-05-17T14:34:24+02:00</time>
      </trkpt>
      <trkpt lat="48.19273" lon="6.41059">
        <ele>361.5</ele>
        <time>2026-05-17T14:34:25+02:00</time>
      </trkpt>
      <trkpt lat="48.19275" lon="6.41065">
        <ele>361.5</ele>
        <time>2026-05-17T14:34:26+02:00</time>
      </trkpt>
      <trkpt lat="48.19278" lon="6.41072">
        <ele>361.2002</ele>
        <time>2026-05-17T14:34:27+02:00</time>
      </trkpt>
      <trkpt lat="48.1928" lon="6.4108">
        <ele>361.2002</ele>
        <time>2026-05-17T14:34:28+02:00</time>
      </trkpt>
      <trkpt lat="48.19282" lon="6.41084">
        <ele>361.2998</ele>
        <time>2026-05-17T14:34:29+02:00</time>
      </trkpt>
      <trkpt lat="48.19286" lon="6.41097">
        <ele>360.5</ele>
        <time>2026-05-17T14:34:30+02:00</time>
      </trkpt>
      <trkpt lat="48.1929" lon="6.41106">
        <ele>359.7998</ele>
        <time>2026-05-17T14:34:31+02:00</time>
      </trkpt>
      <trkpt lat="48.19293" lon="6.41115">
        <ele>358.6006</ele>
        <time>2026-05-17T14:34:32+02:00</time>
      </trkpt>
      <trkpt lat="48.19297" lon="6.41123">
        <ele>355.7998</ele>
        <time>2026-05-17T14:34:33+02:00</time>
      </trkpt>
      <trkpt lat="48.19301" lon="6.41131">
        <ele>351.7002</ele>
        <time>2026-05-17T14:34:34+02:00</time>
      </trkpt>
      <trkpt lat="48.19304" lon="6.41139">
        <ele>348.2998</ele>
        <time>2026-05-17T14:34:35+02:00</time>
      </trkpt>
      <trkpt lat="48.19307" lon="6.41147">
        <ele>347.7002</ele>
        <time>2026-05-17T14:34:36+02:00</time>
      </trkpt>
      <trkpt lat="48.19311" lon="6.41155">
        <ele>349.7002</ele>
        <time>2026-05-17T14:34:37+02:00</time>
      </trkpt>
      <trkpt lat="48.19314" lon="6.41162">
        <ele>349</ele>
        <time>2026-05-17T14:34:38+02:00</time>
      </trkpt>
      <trkpt lat="48.19317" lon="6.4117">
        <ele>351.5</ele>
        <time>2026-05-17T14:34:39+02:00</time>
      </trkpt>
      <trkpt lat="48.1932" lon="6.41179">
        <ele>351.5</ele>
        <time>2026-05-17T14:34:40+02:00</time>
      </trkpt>
      <trkpt lat="48.19323" lon="6.41187">
        <ele>353.2002</ele>
        <time>2026-05-17T14:34:41+02:00</time>
      </trkpt>
      <trkpt lat="48.19324" lon="6.41196">
        <ele>352.7998</ele>
        <time>2026-05-17T14:34:42+02:00</time>
      </trkpt>
      <trkpt lat="48.19325" lon="6.41205">
        <ele>352.6006</ele>
        <time>2026-05-17T14:34:43+02:00</time>
      </trkpt>
      <trkpt lat="48.19325" lon="6.41214">
        <ele>352.5</ele>
        <time>2026-05-17T14:34:44+02:00</time>
      </trkpt>
      <trkpt lat="48.19325" lon="6.41222">
        <ele>352.4004</ele>
        <time>2026-05-17T14:34:45+02:00</time>
      </trkpt>
      <trkpt lat="48.19325" lon="6.41231">
        <ele>352.2998</ele>
        <time>2026-05-17T14:34:46+02:00</time>
      </trkpt>
      <trkpt lat="48.19324" lon="6.41239">
        <ele>352.2998</ele>
        <time>2026-05-17T14:34:47+02:00</time>
      </trkpt>
      <trkpt lat="48.19322" lon="6.41248">
        <ele>352.2998</ele>
        <time>2026-05-17T14:34:48+02:00</time>
      </trkpt>
      <trkpt lat="48.19321" lon="6.41257">
        <ele>350</ele>
        <time>2026-05-17T14:34:49+02:00</time>
      </trkpt>
      <trkpt lat="48.1932" lon="6.41265">
        <ele>351.1006</ele>
        <time>2026-05-17T14:34:50+02:00</time>
      </trkpt>
      <trkpt lat="48.19319" lon="6.41273">
        <ele>352.4004</ele>
        <time>2026-05-17T14:34:51+02:00</time>
      </trkpt>
      <trkpt lat="48.19317" lon="6.41281">
        <ele>353.2998</ele>
        <time>2026-05-17T14:34:52+02:00</time>
      </trkpt>
      <trkpt lat="48.19316" lon="6.4129">
        <ele>354</ele>
        <time>2026-05-17T14:34:53+02:00</time>
      </trkpt>
      <trkpt lat="48.19315" lon="6.41298">
        <ele>352.5</ele>
        <time>2026-05-17T14:34:54+02:00</time>
      </trkpt>
      <trkpt lat="48.19314" lon="6.41307">
        <ele>352.6006</ele>
        <time>2026-05-17T14:34:55+02:00</time>
      </trkpt>
      <trkpt lat="48.19313" lon="6.41316">
        <ele>352.7998</ele>
        <time>2026-05-17T14:34:56+02:00</time>
      </trkpt>
      <trkpt lat="48.19312" lon="6.41325">
        <ele>353.1006</ele>
        <time>2026-05-17T14:34:57+02:00</time>
      </trkpt>
      <trkpt lat="48.19312" lon="6.41334">
        <ele>353.5</ele>
        <time>2026-05-17T14:34:58+02:00</time>
      </trkpt>
      <trkpt lat="48.19311" lon="6.41338">
        <ele>353.9004</ele>
        <time>2026-05-17T14:34:59+02:00</time>
      </trkpt>
      <trkpt lat="48.19311" lon="6.41351">
        <ele>354.4004</ele>
        <time>2026-05-17T14:35:00+02:00</time>
      </trkpt>
      <trkpt lat="48.1931" lon="6.4136">
        <ele>354.9004</ele>
        <time>2026-05-17T14:35:01+02:00</time>
      </trkpt>
      <trkpt lat="48.19309" lon="6.4137">
        <ele>354.2002</ele>
        <time>2026-05-17T14:35:02+02:00</time>
      </trkpt>
      <trkpt lat="48.19307" lon="6.4138">
        <ele>355</ele>
        <time>2026-05-17T14:35:03+02:00</time>
      </trkpt>
      <trkpt lat="48.19306" lon="6.41391">
        <ele>355.7998</ele>
        <time>2026-05-17T14:35:04+02:00</time>
      </trkpt>
      <trkpt lat="48.19304" lon="6.41403">
        <ele>354.7998</ele>
        <time>2026-05-17T14:35:05+02:00</time>
      </trkpt>
      <trkpt lat="48.19302" lon="6.41415">
        <ele>355.9004</ele>
        <time>2026-05-17T14:35:06+02:00</time>
      </trkpt>
      <trkpt lat="48.19301" lon="6.41426">
        <ele>356.2002</ele>
        <time>2026-05-17T14:35:07+02:00</time>
      </trkpt>
      <trkpt lat="48.19299" lon="6.41437">
        <ele>356.2998</ele>
        <time>2026-05-17T14:35:08+02:00</time>
      </trkpt>
      <trkpt lat="48.19298" lon="6.41443">
        <ele>354.9004</ele>
        <time>2026-05-17T14:35:09+02:00</time>
      </trkpt>
      <trkpt lat="48.19296" lon="6.41459">
        <ele>355.7998</ele>
        <time>2026-05-17T14:35:10+02:00</time>
      </trkpt>
      <trkpt lat="48.19294" lon="6.4147">
        <ele>356.6006</ele>
        <time>2026-05-17T14:35:11+02:00</time>
      </trkpt>
      <trkpt lat="48.19292" lon="6.4148">
        <ele>355.9004</ele>
        <time>2026-05-17T14:35:12+02:00</time>
      </trkpt>
      <trkpt lat="48.1929" lon="6.41489">
        <ele>356.2998</ele>
        <time>2026-05-17T14:35:13+02:00</time>
      </trkpt>
      <trkpt lat="48.19288" lon="6.41498">
        <ele>356.2998</ele>
        <time>2026-05-17T14:35:14+02:00</time>
      </trkpt>
      <trkpt lat="48.19287" lon="6.41506">
        <ele>356.1006</ele>
        <time>2026-05-17T14:35:15+02:00</time>
      </trkpt>
      <trkpt lat="48.19286" lon="6.41514">
        <ele>353.9004</ele>
        <time>2026-05-17T14:35:16+02:00</time>
      </trkpt>
      <trkpt lat="48.19286" lon="6.41523">
        <ele>353.6006</ele>
        <time>2026-05-17T14:35:17+02:00</time>
      </trkpt>
      <trkpt lat="48.19285" lon="6.41531">
        <ele>353.4004</ele>
        <time>2026-05-17T14:35:18+02:00</time>
      </trkpt>
      <trkpt lat="48.19284" lon="6.41539">
        <ele>353.2002</ele>
        <time>2026-05-17T14:35:19+02:00</time>
      </trkpt>
      <trkpt lat="48.19283" lon="6.41548">
        <ele>352.9004</ele>
        <time>2026-05-17T14:35:20+02:00</time>
      </trkpt>
      <trkpt lat="48.19283" lon="6.41558">
        <ele>352.6006</ele>
        <time>2026-05-17T14:35:21+02:00</time>
      </trkpt>
      <trkpt lat="48.19282" lon="6.41567">
        <ele>352.1006</ele>
        <time>2026-05-17T14:35:22+02:00</time>
      </trkpt>
      <trkpt lat="48.19281" lon="6.41572">
        <ele>350.1006</ele>
        <time>2026-05-17T14:35:23+02:00</time>
      </trkpt>
      <trkpt lat="48.19278" lon="6.41588">
        <ele>349</ele>
        <time>2026-05-17T14:35:24+02:00</time>
      </trkpt>
      <trkpt lat="48.19276" lon="6.41599">
        <ele>347.9004</ele>
        <time>2026-05-17T14:35:25+02:00</time>
      </trkpt>
      <trkpt lat="48.19274" lon="6.41611">
        <ele>344.5</ele>
        <time>2026-05-17T14:35:26+02:00</time>
      </trkpt>
      <trkpt lat="48.19273" lon="6.41622">
        <ele>344</ele>
        <time>2026-05-17T14:35:27+02:00</time>
      </trkpt>
      <trkpt lat="48.19273" lon="6.41633">
        <ele>343.7998</ele>
        <time>2026-05-17T14:35:28+02:00</time>
      </trkpt>
      <trkpt lat="48.19273" lon="6.41645">
        <ele>344</ele>
        <time>2026-05-17T14:35:29+02:00</time>
      </trkpt>
      <trkpt lat="48.19275" lon="6.41655">
        <ele>344.2002</ele>
        <time>2026-05-17T14:35:30+02:00</time>
      </trkpt>
      <trkpt lat="48.19278" lon="6.41665">
        <ele>344.4004</ele>
        <time>2026-05-17T14:35:31+02:00</time>
      </trkpt>
      <trkpt lat="48.19281" lon="6.41674">
        <ele>344.4004</ele>
        <time>2026-05-17T14:35:32+02:00</time>
      </trkpt>
      <trkpt lat="48.19285" lon="6.41683">
        <ele>344.4004</ele>
        <time>2026-05-17T14:35:33+02:00</time>
      </trkpt>
      <trkpt lat="48.19288" lon="6.41691">
        <ele>344.1006</ele>
        <time>2026-05-17T14:35:34+02:00</time>
      </trkpt>
      <trkpt lat="48.19291" lon="6.41699">
        <ele>344.1006</ele>
        <time>2026-05-17T14:35:35+02:00</time>
      </trkpt>
      <trkpt lat="48.19294" lon="6.41707">
        <ele>343.9004</ele>
        <time>2026-05-17T14:35:36+02:00</time>
      </trkpt>
      <trkpt lat="48.19298" lon="6.41715">
        <ele>344.1006</ele>
        <time>2026-05-17T14:35:37+02:00</time>
      </trkpt>
      <trkpt lat="48.19301" lon="6.41724">
        <ele>344.2998</ele>
        <time>2026-05-17T14:35:38+02:00</time>
      </trkpt>
      <trkpt lat="48.19304" lon="6.41732">
        <ele>344.2998</ele>
        <time>2026-05-17T14:35:39+02:00</time>
      </trkpt>
      <trkpt lat="48.19307" lon="6.41741">
        <ele>344.5</ele>
        <time>2026-05-17T14:35:40+02:00</time>
      </trkpt>
      <trkpt lat="48.1931" lon="6.41749">
        <ele>344.2002</ele>
        <time>2026-05-17T14:35:41+02:00</time>
      </trkpt>
      <trkpt lat="48.19314" lon="6.41756">
        <ele>344.2002</ele>
        <time>2026-05-17T14:35:42+02:00</time>
      </trkpt>
      <trkpt lat="48.19318" lon="6.41764">
        <ele>343.7998</ele>
        <time>2026-05-17T14:35:43+02:00</time>
      </trkpt>
      <trkpt lat="48.19322" lon="6.41771">
        <ele>343.7002</ele>
        <time>2026-05-17T14:35:44+02:00</time>
      </trkpt>
      <trkpt lat="48.19326" lon="6.41779">
        <ele>343.7998</ele>
        <time>2026-05-17T14:35:45+02:00</time>
      </trkpt>
      <trkpt lat="48.19329" lon="6.41788">
        <ele>344.2002</ele>
        <time>2026-05-17T14:35:46+02:00</time>
      </trkpt>
      <trkpt lat="48.19333" lon="6.41797">
        <ele>344.5</ele>
        <time>2026-05-17T14:35:47+02:00</time>
      </trkpt>
      <trkpt lat="48.19336" lon="6.41808">
        <ele>344.1006</ele>
        <time>2026-05-17T14:35:48+02:00</time>
      </trkpt>
      <trkpt lat="48.19341" lon="6.41818">
        <ele>343.7002</ele>
        <time>2026-05-17T14:35:49+02:00</time>
      </trkpt>
      <trkpt lat="48.19345" lon="6.41828">
        <ele>343.2002</ele>
        <time>2026-05-17T14:35:50+02:00</time>
      </trkpt>
      <trkpt lat="48.1935" lon="6.41838">
        <ele>343.2002</ele>
        <time>2026-05-17T14:35:51+02:00</time>
      </trkpt>
      <trkpt lat="48.19356" lon="6.41846">
        <ele>343.2998</ele>
        <time>2026-05-17T14:35:52+02:00</time>
      </trkpt>
      <trkpt lat="48.19362" lon="6.41852">
        <ele>343.2002</ele>
        <time>2026-05-17T14:35:53+02:00</time>
      </trkpt>
      <trkpt lat="48.19368" lon="6.41857">
        <ele>343.2002</ele>
        <time>2026-05-17T14:35:54+02:00</time>
      </trkpt>
      <trkpt lat="48.19375" lon="6.41862">
        <ele>343.1006</ele>
        <time>2026-05-17T14:35:55+02:00</time>
      </trkpt>
      <trkpt lat="48.19381" lon="6.41866">
        <ele>343.2998</ele>
        <time>2026-05-17T14:35:56+02:00</time>
      </trkpt>
      <trkpt lat="48.19387" lon="6.41871">
        <ele>343.5</ele>
        <time>2026-05-17T14:35:57+02:00</time>
      </trkpt>
      <trkpt lat="48.19393" lon="6.41875">
        <ele>343.7002</ele>
        <time>2026-05-17T14:35:58+02:00</time>
      </trkpt>
      <trkpt lat="48.19399" lon="6.41879">
        <ele>343.4004</ele>
        <time>2026-05-17T14:35:59+02:00</time>
      </trkpt>
      <trkpt lat="48.19405" lon="6.41883">
        <ele>343.2998</ele>
        <time>2026-05-17T14:36:00+02:00</time>
      </trkpt>
      <trkpt lat="48.19411" lon="6.41888">
        <ele>343</ele>
        <time>2026-05-17T14:36:01+02:00</time>
      </trkpt>
      <trkpt lat="48.19417" lon="6.41893">
        <ele>342.9004</ele>
        <time>2026-05-17T14:36:02+02:00</time>
      </trkpt>
      <trkpt lat="48.19422" lon="6.41896">
        <ele>343</ele>
        <time>2026-05-17T14:36:03+02:00</time>
      </trkpt>
      <trkpt lat="48.19428" lon="6.41898">
        <ele>343</ele>
        <time>2026-05-17T14:36:04+02:00</time>
      </trkpt>
      <trkpt lat="48.19434" lon="6.41899">
        <ele>343</ele>
        <time>2026-05-17T14:36:05+02:00</time>
      </trkpt>
      <trkpt lat="48.19439" lon="6.41901">
        <ele>343.1006</ele>
        <time>2026-05-17T14:36:06+02:00</time>
      </trkpt>
      <trkpt lat="48.19442" lon="6.41903">
        <ele>342.7002</ele>
        <time>2026-05-17T14:36:07+02:00</time>
      </trkpt>
      <trkpt lat="48.19444" lon="6.41904">
        <ele>342.7002</ele>
        <time>2026-05-17T14:36:08+02:00</time>
      </trkpt>
      <trkpt lat="48.19444" lon="6.41904">
        <ele>342.7002</ele>
        <time>2026-05-17T14:36:09+02:00</time>
      </trkpt>
      <trkpt lat="48.19444" lon="6.41904">
        <ele>342.7002</ele>
        <time>2026-05-17T14:36:10+02:00</time>
      </trkpt>
      <trkpt lat="48.19444" lon="6.41904">
        <ele>342.7002</ele>
        <time>2026-05-17T14:36:11+02:00</time>
      </trkpt>
      <trkpt lat="48.19444" lon="6.41904">
        <ele>342.7002</ele>
        <time>2026-05-17T14:36:12+02:00</time>
      </trkpt>
      <trkpt lat="48.19444" lon="6.41904">
        <ele>342.7002</ele>
        <time>2026-05-17T14:36:13+02:00</time>
      </trkpt>
      <trkpt lat="48.19461" lon="6.41912">
        <ele>342.2998</ele>
        <time>2026-05-17T14:36:17+02:00</time>
      </trkpt>
      <trkpt lat="48.19466" lon="6.41917">
        <ele>342.4004</ele>
        <time>2026-05-17T14:36:18+02:00</time>
      </trkpt>
      <trkpt lat="48.19471" lon="6.41922">
        <ele>342.5</ele>
        <time>2026-05-17T14:36:19+02:00</time>
      </trkpt>
      <trkpt lat="48.19477" lon="6.41927">
        <ele>342.7002</ele>
        <time>2026-05-17T14:36:20+02:00</time>
      </trkpt>
      <trkpt lat="48.19483" lon="6.41932">
        <ele>342.7002</ele>
        <time>2026-05-17T14:36:21+02:00</time>
      </trkpt>
      <trkpt lat="48.19489" lon="6.41936">
        <ele>342.9004</ele>
        <time>2026-05-17T14:36:22+02:00</time>
      </trkpt>
      <trkpt lat="48.19496" lon="6.4194">
        <ele>342.6006</ele>
        <time>2026-05-17T14:36:23+02:00</time>
      </trkpt>
      <trkpt lat="48.19502" lon="6.41944">
        <ele>342.5</ele>
        <time>2026-05-17T14:36:24+02:00</time>
      </trkpt>
      <trkpt lat="48.19508" lon="6.41947">
        <ele>342.2002</ele>
        <time>2026-05-17T14:36:25+02:00</time>
      </trkpt>
      <trkpt lat="48.19514" lon="6.41951">
        <ele>342.2998</ele>
        <time>2026-05-17T14:36:26+02:00</time>
      </trkpt>
      <trkpt lat="48.1952" lon="6.41955">
        <ele>342.2998</ele>
        <time>2026-05-17T14:36:27+02:00</time>
      </trkpt>
      <trkpt lat="48.19526" lon="6.41959">
        <ele>342.6006</ele>
        <time>2026-05-17T14:36:28+02:00</time>
      </trkpt>
      <trkpt lat="48.19532" lon="6.41963">
        <ele>342.7002</ele>
        <time>2026-05-17T14:36:29+02:00</time>
      </trkpt>
      <trkpt lat="48.19538" lon="6.41967">
        <ele>342.7998</ele>
        <time>2026-05-17T14:36:30+02:00</time>
      </trkpt>
      <trkpt lat="48.19544" lon="6.41971">
        <ele>342.5</ele>
        <time>2026-05-17T14:36:31+02:00</time>
      </trkpt>
      <trkpt lat="48.19549" lon="6.41975">
        <ele>342.5</ele>
        <time>2026-05-17T14:36:32+02:00</time>
      </trkpt>
      <trkpt lat="48.19555" lon="6.41979">
        <ele>342.4004</ele>
        <time>2026-05-17T14:36:33+02:00</time>
      </trkpt>
      <trkpt lat="48.19561" lon="6.41983">
        <ele>342.2998</ele>
        <time>2026-05-17T14:36:34+02:00</time>
      </trkpt>
      <trkpt lat="48.19567" lon="6.41986">
        <ele>342.2998</ele>
        <time>2026-05-17T14:36:35+02:00</time>
      </trkpt>
      <trkpt lat="48.19573" lon="6.41988">
        <ele>342.2998</ele>
        <time>2026-05-17T14:36:36+02:00</time>
      </trkpt>
      <trkpt lat="48.19579" lon="6.41991">
        <ele>342.2998</ele>
        <time>2026-05-17T14:36:37+02:00</time>
      </trkpt>
      <trkpt lat="48.19585" lon="6.41994">
        <ele>342.4004</ele>
        <time>2026-05-17T14:36:38+02:00</time>
      </trkpt>
      <trkpt lat="48.19592" lon="6.41997">
        <ele>342.5</ele>
        <time>2026-05-17T14:36:39+02:00</time>
      </trkpt>
      <trkpt lat="48.19598" lon="6.42002">
        <ele>342.5</ele>
        <time>2026-05-17T14:36:40+02:00</time>
      </trkpt>
      <trkpt lat="48.19605" lon="6.42007">
        <ele>342.4004</ele>
        <time>2026-05-17T14:36:41+02:00</time>
      </trkpt>
      <trkpt lat="48.19613" lon="6.42012">
        <ele>342.4004</ele>
        <time>2026-05-17T14:36:42+02:00</time>
      </trkpt>
      <trkpt lat="48.1962" lon="6.42017">
        <ele>342.2998</ele>
        <time>2026-05-17T14:36:43+02:00</time>
      </trkpt>
      <trkpt lat="48.19627" lon="6.42022">
        <ele>342.4004</ele>
        <time>2026-05-17T14:36:44+02:00</time>
      </trkpt>
      <trkpt lat="48.19634" lon="6.42026">
        <ele>342.4004</ele>
        <time>2026-05-17T14:36:45+02:00</time>
      </trkpt>
      <trkpt lat="48.1964" lon="6.4203">
        <ele>342.4004</ele>
        <time>2026-05-17T14:36:46+02:00</time>
      </trkpt>
      <trkpt lat="48.19647" lon="6.42035">
        <ele>342.2002</ele>
        <time>2026-05-17T14:36:47+02:00</time>
      </trkpt>
      <trkpt lat="48.19654" lon="6.42038">
        <ele>341.7002</ele>
        <time>2026-05-17T14:36:48+02:00</time>
      </trkpt>
      <trkpt lat="48.1966" lon="6.42042">
        <ele>341.1006</ele>
        <time>2026-05-17T14:36:49+02:00</time>
      </trkpt>
      <trkpt lat="48.19667" lon="6.42047">
        <ele>340.7998</ele>
        <time>2026-05-17T14:36:50+02:00</time>
      </trkpt>
      <trkpt lat="48.19673" lon="6.42051">
        <ele>340.7002</ele>
        <time>2026-05-17T14:36:51+02:00</time>
      </trkpt>
      <trkpt lat="48.19679" lon="6.42056">
        <ele>340.5</ele>
        <time>2026-05-17T14:36:52+02:00</time>
      </trkpt>
      <trkpt lat="48.19685" lon="6.42061">
        <ele>340.1006</ele>
        <time>2026-05-17T14:36:53+02:00</time>
      </trkpt>
      <trkpt lat="48.19691" lon="6.42066">
        <ele>339.4004</ele>
        <time>2026-05-17T14:36:54+02:00</time>
      </trkpt>
      <trkpt lat="48.19697" lon="6.4207">
        <ele>339</ele>
        <time>2026-05-17T14:36:55+02:00</time>
      </trkpt>
      <trkpt lat="48.19703" lon="6.42073">
        <ele>338.7002</ele>
        <time>2026-05-17T14:36:56+02:00</time>
      </trkpt>
      <trkpt lat="48.1971" lon="6.42076">
        <ele>338.6006</ele>
        <time>2026-05-17T14:36:57+02:00</time>
      </trkpt>
      <trkpt lat="48.19716" lon="6.42078">
        <ele>338.4004</ele>
        <time>2026-05-17T14:36:58+02:00</time>
      </trkpt>
      <trkpt lat="48.19723" lon="6.42081">
        <ele>338.2998</ele>
        <time>2026-05-17T14:36:59+02:00</time>
      </trkpt>
      <trkpt lat="48.19729" lon="6.42084">
        <ele>338.2998</ele>
        <time>2026-05-17T14:37:00+02:00</time>
      </trkpt>
      <trkpt lat="48.19736" lon="6.42089">
        <ele>338.4004</ele>
        <time>2026-05-17T14:37:01+02:00</time>
      </trkpt>
      <trkpt lat="48.19743" lon="6.42093">
        <ele>338.2002</ele>
        <time>2026-05-17T14:37:02+02:00</time>
      </trkpt>
      <trkpt lat="48.19751" lon="6.42097">
        <ele>337.9004</ele>
        <time>2026-05-17T14:37:03+02:00</time>
      </trkpt>
      <trkpt lat="48.19758" lon="6.42103">
        <ele>337.6006</ele>
        <time>2026-05-17T14:37:04+02:00</time>
      </trkpt>
      <trkpt lat="48.19764" lon="6.42108">
        <ele>337.5</ele>
        <time>2026-05-17T14:37:05+02:00</time>
      </trkpt>
      <trkpt lat="48.19771" lon="6.42114">
        <ele>337.2998</ele>
        <time>2026-05-17T14:37:06+02:00</time>
      </trkpt>
      <trkpt lat="48.19776" lon="6.42122">
        <ele>336.7998</ele>
        <time>2026-05-17T14:37:07+02:00</time>
      </trkpt>
      <trkpt lat="48.19781" lon="6.4213">
        <ele>336</ele>
        <time>2026-05-17T14:37:08+02:00</time>
      </trkpt>
      <trkpt lat="48.19785" lon="6.42139">
        <ele>335.4004</ele>
        <time>2026-05-17T14:37:09+02:00</time>
      </trkpt>
      <trkpt lat="48.1979" lon="6.42147">
        <ele>335.6006</ele>
        <time>2026-05-17T14:37:10+02:00</time>
      </trkpt>
      <trkpt lat="48.19793" lon="6.42156">
        <ele>335.9004</ele>
        <time>2026-05-17T14:37:11+02:00</time>
      </trkpt>
      <trkpt lat="48.19797" lon="6.42165">
        <ele>336.1006</ele>
        <time>2026-05-17T14:37:12+02:00</time>
      </trkpt>
      <trkpt lat="48.19801" lon="6.42174">
        <ele>335.7002</ele>
        <time>2026-05-17T14:37:13+02:00</time>
      </trkpt>
      <trkpt lat="48.19805" lon="6.42182">
        <ele>335.5</ele>
        <time>2026-05-17T14:37:14+02:00</time>
      </trkpt>
      <trkpt lat="48.19808" lon="6.42191">
        <ele>335.4004</ele>
        <time>2026-05-17T14:37:15+02:00</time>
      </trkpt>
      <trkpt lat="48.19812" lon="6.422">
        <ele>335.2998</ele>
        <time>2026-05-17T14:37:16+02:00</time>
      </trkpt>
      <trkpt lat="48.19816" lon="6.42208">
        <ele>335.5</ele>
        <time>2026-05-17T14:37:17+02:00</time>
      </trkpt>
      <trkpt lat="48.19821" lon="6.42217">
        <ele>335.5</ele>
        <time>2026-05-17T14:37:18+02:00</time>
      </trkpt>
      <trkpt lat="48.19825" lon="6.42225">
        <ele>335.4004</ele>
        <time>2026-05-17T14:37:19+02:00</time>
      </trkpt>
      <trkpt lat="48.19829" lon="6.42232">
        <ele>335.2998</ele>
        <time>2026-05-17T14:37:20+02:00</time>
      </trkpt>
      <trkpt lat="48.19833" lon="6.42239">
        <ele>335.2998</ele>
        <time>2026-05-17T14:37:21+02:00</time>
      </trkpt>
      <trkpt lat="48.19837" lon="6.42247">
        <ele>335.5</ele>
        <time>2026-05-17T14:37:22+02:00</time>
      </trkpt>
      <trkpt lat="48.1984" lon="6.42254">
        <ele>335.6006</ele>
        <time>2026-05-17T14:37:23+02:00</time>
      </trkpt>
      <trkpt lat="48.19843" lon="6.42261">
        <ele>335.7998</ele>
        <time>2026-05-17T14:37:24+02:00</time>
      </trkpt>
      <trkpt lat="48.19846" lon="6.42268">
        <ele>335.7002</ele>
        <time>2026-05-17T14:37:25+02:00</time>
      </trkpt>
      <trkpt lat="48.1985" lon="6.42275">
        <ele>335.7002</ele>
        <time>2026-05-17T14:37:26+02:00</time>
      </trkpt>
      <trkpt lat="48.19853" lon="6.42282">
        <ele>335.5</ele>
        <time>2026-05-17T14:37:27+02:00</time>
      </trkpt>
      <trkpt lat="48.19856" lon="6.42291">
        <ele>335.2998</ele>
        <time>2026-05-17T14:37:28+02:00</time>
      </trkpt>
      <trkpt lat="48.19859" lon="6.42299">
        <ele>335.2998</ele>
        <time>2026-05-17T14:37:29+02:00</time>
      </trkpt>
      <trkpt lat="48.19862" lon="6.42308">
        <ele>335.5</ele>
        <time>2026-05-17T14:37:30+02:00</time>
      </trkpt>
      <trkpt lat="48.19864" lon="6.42312">
        <ele>335.5</ele>
        <time>2026-05-17T14:37:31+02:00</time>
      </trkpt>
      <trkpt lat="48.1987" lon="6.42324">
        <ele>335.5</ele>
        <time>2026-05-17T14:37:32+02:00</time>
      </trkpt>
      <trkpt lat="48.19874" lon="6.42332">
        <ele>335.4004</ele>
        <time>2026-05-17T14:37:33+02:00</time>
      </trkpt>
      <trkpt lat="48.19877" lon="6.4234">
        <ele>335.5</ele>
        <time>2026-05-17T14:37:34+02:00</time>
      </trkpt>
      <trkpt lat="48.19881" lon="6.42348">
        <ele>335.5</ele>
        <time>2026-05-17T14:37:35+02:00</time>
      </trkpt>
      <trkpt lat="48.19884" lon="6.42355">
        <ele>335.5</ele>
        <time>2026-05-17T14:37:36+02:00</time>
      </trkpt>
      <trkpt lat="48.19887" lon="6.42362">
        <ele>335.5</ele>
        <time>2026-05-17T14:37:37+02:00</time>
      </trkpt>
      <trkpt lat="48.1989" lon="6.4237">
        <ele>335.5</ele>
        <time>2026-05-17T14:37:38+02:00</time>
      </trkpt>
      <trkpt lat="48.19893" lon="6.42377">
        <ele>335.5</ele>
        <time>2026-05-17T14:37:39+02:00</time>
      </trkpt>
      <trkpt lat="48.19897" lon="6.42385">
        <ele>335.4004</ele>
        <time>2026-05-17T14:37:40+02:00</time>
      </trkpt>
      <trkpt lat="48.19901" lon="6.42393">
        <ele>335.4004</ele>
        <time>2026-05-17T14:37:41+02:00</time>
      </trkpt>
      <trkpt lat="48.19904" lon="6.42401">
        <ele>335.4004</ele>
        <time>2026-05-17T14:37:42+02:00</time>
      </trkpt>
      <trkpt lat="48.19908" lon="6.42409">
        <ele>335.5</ele>
        <time>2026-05-17T14:37:43+02:00</time>
      </trkpt>
      <trkpt lat="48.19911" lon="6.42418">
        <ele>335.5</ele>
        <time>2026-05-17T14:37:44+02:00</time>
      </trkpt>
      <trkpt lat="48.19915" lon="6.42426">
        <ele>335.5</ele>
        <time>2026-05-17T14:37:45+02:00</time>
      </trkpt>
      <trkpt lat="48.19918" lon="6.42434">
        <ele>335.4004</ele>
        <time>2026-05-17T14:37:46+02:00</time>
      </trkpt>
      <trkpt lat="48.19922" lon="6.42443">
        <ele>335.4004</ele>
        <time>2026-05-17T14:37:47+02:00</time>
      </trkpt>
      <trkpt lat="48.19925" lon="6.42451">
        <ele>335.4004</ele>
        <time>2026-05-17T14:37:48+02:00</time>
      </trkpt>
      <trkpt lat="48.19929" lon="6.4246">
        <ele>335.4004</ele>
        <time>2026-05-17T14:37:49+02:00</time>
      </trkpt>
      <trkpt lat="48.19933" lon="6.42469">
        <ele>335.4004</ele>
        <time>2026-05-17T14:37:50+02:00</time>
      </trkpt>
      <trkpt lat="48.19936" lon="6.42478">
        <ele>335.4004</ele>
        <time>2026-05-17T14:37:51+02:00</time>
      </trkpt>
      <trkpt lat="48.1994" lon="6.42487">
        <ele>335.4004</ele>
        <time>2026-05-17T14:37:52+02:00</time>
      </trkpt>
      <trkpt lat="48.19943" lon="6.42495">
        <ele>335.4004</ele>
        <time>2026-05-17T14:37:53+02:00</time>
      </trkpt>
      <trkpt lat="48.19945" lon="6.425">
        <ele>335.2998</ele>
        <time>2026-05-17T14:37:54+02:00</time>
      </trkpt>
      <trkpt lat="48.19949" lon="6.42514">
        <ele>335.4004</ele>
        <time>2026-05-17T14:37:55+02:00</time>
      </trkpt>
      <trkpt lat="48.19953" lon="6.42523">
        <ele>335.4004</ele>
        <time>2026-05-17T14:37:56+02:00</time>
      </trkpt>
      <trkpt lat="48.19956" lon="6.42533">
        <ele>335.5</ele>
        <time>2026-05-17T14:37:57+02:00</time>
      </trkpt>
      <trkpt lat="48.19958" lon="6.42542">
        <ele>335.4004</ele>
        <time>2026-05-17T14:37:58+02:00</time>
      </trkpt>
      <trkpt lat="48.19962" lon="6.42551">
        <ele>335.4004</ele>
        <time>2026-05-17T14:37:59+02:00</time>
      </trkpt>
      <trkpt lat="48.19965" lon="6.42561">
        <ele>335.2998</ele>
        <time>2026-05-17T14:38:00+02:00</time>
      </trkpt>
      <trkpt lat="48.19969" lon="6.4257">
        <ele>335.2002</ele>
        <time>2026-05-17T14:38:01+02:00</time>
      </trkpt>
      <trkpt lat="48.19972" lon="6.42578">
        <ele>335.2998</ele>
        <time>2026-05-17T14:38:02+02:00</time>
      </trkpt>
      <trkpt lat="48.19977" lon="6.42586">
        <ele>335.4004</ele>
        <time>2026-05-17T14:38:03+02:00</time>
      </trkpt>
      <trkpt lat="48.19981" lon="6.42595">
        <ele>335.4004</ele>
        <time>2026-05-17T14:38:04+02:00</time>
      </trkpt>
      <trkpt lat="48.19984" lon="6.42604">
        <ele>335.4004</ele>
        <time>2026-05-17T14:38:05+02:00</time>
      </trkpt>
      <trkpt lat="48.19987" lon="6.42614">
        <ele>335.4004</ele>
        <time>2026-05-17T14:38:06+02:00</time>
      </trkpt>
      <trkpt lat="48.19991" lon="6.42625">
        <ele>335.4004</ele>
        <time>2026-05-17T14:38:07+02:00</time>
      </trkpt>
      <trkpt lat="48.19994" lon="6.42636">
        <ele>335.5</ele>
        <time>2026-05-17T14:38:08+02:00</time>
      </trkpt>
      <trkpt lat="48.19999" lon="6.42648">
        <ele>335.5</ele>
        <time>2026-05-17T14:38:09+02:00</time>
      </trkpt>
      <trkpt lat="48.20003" lon="6.42658">
        <ele>335.4004</ele>
        <time>2026-05-17T14:38:10+02:00</time>
      </trkpt>
      <trkpt lat="48.20007" lon="6.42669">
        <ele>335.4004</ele>
        <time>2026-05-17T14:38:11+02:00</time>
      </trkpt>
      <trkpt lat="48.20012" lon="6.42679">
        <ele>335.2998</ele>
        <time>2026-05-17T14:38:12+02:00</time>
      </trkpt>
      <trkpt lat="48.20017" lon="6.42688">
        <ele>335.2998</ele>
        <time>2026-05-17T14:38:13+02:00</time>
      </trkpt>
      <trkpt lat="48.20022" lon="6.42697">
        <ele>335.4004</ele>
        <time>2026-05-17T14:38:14+02:00</time>
      </trkpt>
      <trkpt lat="48.20027" lon="6.42705">
        <ele>335.2998</ele>
        <time>2026-05-17T14:38:15+02:00</time>
      </trkpt>
      <trkpt lat="48.20033" lon="6.42712">
        <ele>335.2998</ele>
        <time>2026-05-17T14:38:16+02:00</time>
      </trkpt>
      <trkpt lat="48.20039" lon="6.42719">
        <ele>335.2002</ele>
        <time>2026-05-17T14:38:17+02:00</time>
      </trkpt>
      <trkpt lat="48.20044" lon="6.42726">
        <ele>335</ele>
        <time>2026-05-17T14:38:18+02:00</time>
      </trkpt>
      <trkpt lat="48.2005" lon="6.42732">
        <ele>334.9004</ele>
        <time>2026-05-17T14:38:19+02:00</time>
      </trkpt>
      <trkpt lat="48.20056" lon="6.42738">
        <ele>334.6006</ele>
        <time>2026-05-17T14:38:20+02:00</time>
      </trkpt>
      <trkpt lat="48.20062" lon="6.42744">
        <ele>334.4004</ele>
        <time>2026-05-17T14:38:21+02:00</time>
      </trkpt>
      <trkpt lat="48.20067" lon="6.4275">
        <ele>334.4004</ele>
        <time>2026-05-17T14:38:22+02:00</time>
      </trkpt>
      <trkpt lat="48.20073" lon="6.42757">
        <ele>334.2998</ele>
        <time>2026-05-17T14:38:23+02:00</time>
      </trkpt>
      <trkpt lat="48.20079" lon="6.42763">
        <ele>334.2002</ele>
        <time>2026-05-17T14:38:24+02:00</time>
      </trkpt>
      <trkpt lat="48.20085" lon="6.42769">
        <ele>334.1006</ele>
        <time>2026-05-17T14:38:25+02:00</time>
      </trkpt>
      <trkpt lat="48.2009" lon="6.42775">
        <ele>334.2002</ele>
        <time>2026-05-17T14:38:26+02:00</time>
      </trkpt>
      <trkpt lat="48.20096" lon="6.42781">
        <ele>334.2998</ele>
        <time>2026-05-17T14:38:27+02:00</time>
      </trkpt>
      <trkpt lat="48.20101" lon="6.42787">
        <ele>334.5</ele>
        <time>2026-05-17T14:38:28+02:00</time>
      </trkpt>
      <trkpt lat="48.20107" lon="6.42794">
        <ele>334.5</ele>
        <time>2026-05-17T14:38:29+02:00</time>
      </trkpt>
      <trkpt lat="48.20113" lon="6.428">
        <ele>334.5</ele>
        <time>2026-05-17T14:38:30+02:00</time>
      </trkpt>
      <trkpt lat="48.20118" lon="6.42806">
        <ele>334.5</ele>
        <time>2026-05-17T14:38:31+02:00</time>
      </trkpt>
      <trkpt lat="48.20124" lon="6.42812">
        <ele>334.5</ele>
        <time>2026-05-17T14:38:32+02:00</time>
      </trkpt>
      <trkpt lat="48.2013" lon="6.42816">
        <ele>334.4004</ele>
        <time>2026-05-17T14:38:33+02:00</time>
      </trkpt>
      <trkpt lat="48.20136" lon="6.42819">
        <ele>334.2998</ele>
        <time>2026-05-17T14:38:34+02:00</time>
      </trkpt>
      <trkpt lat="48.20138" lon="6.4282">
        <ele>334.2998</ele>
        <time>2026-05-17T14:38:35+02:00</time>
      </trkpt>
      <trkpt lat="48.20144" lon="6.42824">
        <ele>334</ele>
        <time>2026-05-17T14:38:36+02:00</time>
      </trkpt>
      <trkpt lat="48.20147" lon="6.42826">
        <ele>333.7998</ele>
        <time>2026-05-17T14:38:37+02:00</time>
      </trkpt>
      <trkpt lat="48.2015" lon="6.42829">
        <ele>333.7002</ele>
        <time>2026-05-17T14:38:38+02:00</time>
      </trkpt>
      <trkpt lat="48.20152" lon="6.42831">
        <ele>333.5</ele>
        <time>2026-05-17T14:38:39+02:00</time>
      </trkpt>
      <trkpt lat="48.20154" lon="6.42834">
        <ele>333.5</ele>
        <time>2026-05-17T14:38:40+02:00</time>
      </trkpt>
      <trkpt lat="48.20156" lon="6.42839">
        <ele>333.4004</ele>
        <time>2026-05-17T14:38:41+02:00</time>
      </trkpt>
      <trkpt lat="48.2016" lon="6.42844">
        <ele>333.4004</ele>
        <time>2026-05-17T14:38:42+02:00</time>
      </trkpt>
      <trkpt lat="48.20164" lon="6.4285">
        <ele>333.5</ele>
        <time>2026-05-17T14:38:43+02:00</time>
      </trkpt>
      <trkpt lat="48.2017" lon="6.42856">
        <ele>333.4004</ele>
        <time>2026-05-17T14:38:44+02:00</time>
      </trkpt>
      <trkpt lat="48.20175" lon="6.42862">
        <ele>333.2998</ele>
        <time>2026-05-17T14:38:45+02:00</time>
      </trkpt>
      <trkpt lat="48.2018" lon="6.42868">
        <ele>333.2998</ele>
        <time>2026-05-17T14:38:46+02:00</time>
      </trkpt>
      <trkpt lat="48.20186" lon="6.42874">
        <ele>333.2998</ele>
        <time>2026-05-17T14:38:47+02:00</time>
      </trkpt>
      <trkpt lat="48.20192" lon="6.4288">
        <ele>333.2002</ele>
        <time>2026-05-17T14:38:48+02:00</time>
      </trkpt>
      <trkpt lat="48.20197" lon="6.42886">
        <ele>332.7998</ele>
        <time>2026-05-17T14:38:49+02:00</time>
      </trkpt>
      <trkpt lat="48.20203" lon="6.42892">
        <ele>332.4004</ele>
        <time>2026-05-17T14:38:50+02:00</time>
      </trkpt>
      <trkpt lat="48.20209" lon="6.42899">
        <ele>332.4004</ele>
        <time>2026-05-17T14:38:51+02:00</time>
      </trkpt>
      <trkpt lat="48.20215" lon="6.42905">
        <ele>332.5</ele>
        <time>2026-05-17T14:38:52+02:00</time>
      </trkpt>
      <trkpt lat="48.2022" lon="6.4291">
        <ele>332.5</ele>
        <time>2026-05-17T14:38:53+02:00</time>
      </trkpt>
      <trkpt lat="48.20226" lon="6.42916">
        <ele>332.4004</ele>
        <time>2026-05-17T14:38:54+02:00</time>
      </trkpt>
      <trkpt lat="48.20231" lon="6.42922">
        <ele>332.4004</ele>
        <time>2026-05-17T14:38:55+02:00</time>
      </trkpt>
      <trkpt lat="48.20237" lon="6.42928">
        <ele>332.4004</ele>
        <time>2026-05-17T14:38:56+02:00</time>
      </trkpt>
      <trkpt lat="48.20242" lon="6.42934">
        <ele>332.5</ele>
        <time>2026-05-17T14:38:57+02:00</time>
      </trkpt>
      <trkpt lat="48.20247" lon="6.4294">
        <ele>332.5</ele>
        <time>2026-05-17T14:38:58+02:00</time>
      </trkpt>
      <trkpt lat="48.20253" lon="6.42946">
        <ele>332.5</ele>
        <time>2026-05-17T14:38:59+02:00</time>
      </trkpt>
      <trkpt lat="48.20259" lon="6.42951">
        <ele>332.5</ele>
        <time>2026-05-17T14:39:00+02:00</time>
      </trkpt>
      <trkpt lat="48.20264" lon="6.42957">
        <ele>332.5</ele>
        <time>2026-05-17T14:39:01+02:00</time>
      </trkpt>
      <trkpt lat="48.2027" lon="6.42963">
        <ele>332.4004</ele>
        <time>2026-05-17T14:39:02+02:00</time>
      </trkpt>
      <trkpt lat="48.20275" lon="6.42969">
        <ele>332.2998</ele>
        <time>2026-05-17T14:39:03+02:00</time>
      </trkpt>
      <trkpt lat="48.20281" lon="6.42975">
        <ele>332</ele>
        <time>2026-05-17T14:39:04+02:00</time>
      </trkpt>
      <trkpt lat="48.20287" lon="6.42981">
        <ele>331.7998</ele>
        <time>2026-05-17T14:39:05+02:00</time>
      </trkpt>
      <trkpt lat="48.20292" lon="6.42987">
        <ele>331.5</ele>
        <time>2026-05-17T14:39:06+02:00</time>
      </trkpt>
      <trkpt lat="48.20299" lon="6.42993">
        <ele>331.4004</ele>
        <time>2026-05-17T14:39:07+02:00</time>
      </trkpt>
      <trkpt lat="48.20304" lon="6.42998">
        <ele>331.4004</ele>
        <time>2026-05-17T14:39:08+02:00</time>
      </trkpt>
      <trkpt lat="48.2031" lon="6.43004">
        <ele>331.5</ele>
        <time>2026-05-17T14:39:09+02:00</time>
      </trkpt>
      <trkpt lat="48.20316" lon="6.43009">
        <ele>331.4004</ele>
        <time>2026-05-17T14:39:10+02:00</time>
      </trkpt>
      <trkpt lat="48.20322" lon="6.43015">
        <ele>331.4004</ele>
        <time>2026-05-17T14:39:11+02:00</time>
      </trkpt>
      <trkpt lat="48.20328" lon="6.4302">
        <ele>331.4004</ele>
        <time>2026-05-17T14:39:12+02:00</time>
      </trkpt>
      <trkpt lat="48.20334" lon="6.43026">
        <ele>331.4004</ele>
        <time>2026-05-17T14:39:13+02:00</time>
      </trkpt>
      <trkpt lat="48.2034" lon="6.43032">
        <ele>331.5</ele>
        <time>2026-05-17T14:39:14+02:00</time>
      </trkpt>
      <trkpt lat="48.20347" lon="6.43037">
        <ele>331.2998</ele>
        <time>2026-05-17T14:39:15+02:00</time>
      </trkpt>
      <trkpt lat="48.20353" lon="6.43043">
        <ele>331.2002</ele>
        <time>2026-05-17T14:39:16+02:00</time>
      </trkpt>
      <trkpt lat="48.20359" lon="6.43048">
        <ele>330.7998</ele>
        <time>2026-05-17T14:39:17+02:00</time>
      </trkpt>
      <trkpt lat="48.20365" lon="6.43054">
        <ele>330.4004</ele>
        <time>2026-05-17T14:39:18+02:00</time>
      </trkpt>
      <trkpt lat="48.20371" lon="6.43059">
        <ele>330.4004</ele>
        <time>2026-05-17T14:39:19+02:00</time>
      </trkpt>
      <trkpt lat="48.20377" lon="6.43065">
        <ele>330.5</ele>
        <time>2026-05-17T14:39:20+02:00</time>
      </trkpt>
      <trkpt lat="48.20384" lon="6.4307">
        <ele>330.5</ele>
        <time>2026-05-17T14:39:21+02:00</time>
      </trkpt>
      <trkpt lat="48.2039" lon="6.43076">
        <ele>330.2998</ele>
        <time>2026-05-17T14:39:22+02:00</time>
      </trkpt>
      <trkpt lat="48.20396" lon="6.43081">
        <ele>330</ele>
        <time>2026-05-17T14:39:23+02:00</time>
      </trkpt>
      <trkpt lat="48.20402" lon="6.43086">
        <ele>329.7002</ele>
        <time>2026-05-17T14:39:24+02:00</time>
      </trkpt>
      <trkpt lat="48.20408" lon="6.43092">
        <ele>329.5</ele>
        <time>2026-05-17T14:39:25+02:00</time>
      </trkpt>
      <trkpt lat="48.20414" lon="6.43097">
        <ele>329.6006</ele>
        <time>2026-05-17T14:39:26+02:00</time>
      </trkpt>
      <trkpt lat="48.20421" lon="6.43102">
        <ele>330.2002</ele>
        <time>2026-05-17T14:39:27+02:00</time>
      </trkpt>
      <trkpt lat="48.20427" lon="6.43106">
        <ele>330.4004</ele>
        <time>2026-05-17T14:39:28+02:00</time>
      </trkpt>
      <trkpt lat="48.20434" lon="6.4311">
        <ele>330.2002</ele>
        <time>2026-05-17T14:39:29+02:00</time>
      </trkpt>
      <trkpt lat="48.20441" lon="6.43114">
        <ele>330</ele>
        <time>2026-05-17T14:39:30+02:00</time>
      </trkpt>
      <trkpt lat="48.20448" lon="6.43117">
        <ele>329.7002</ele>
        <time>2026-05-17T14:39:31+02:00</time>
      </trkpt>
      <trkpt lat="48.20455" lon="6.43121">
        <ele>329.4004</ele>
        <time>2026-05-17T14:39:32+02:00</time>
      </trkpt>
      <trkpt lat="48.20461" lon="6.43124">
        <ele>329.2002</ele>
        <time>2026-05-17T14:39:33+02:00</time>
      </trkpt>
      <trkpt lat="48.20468" lon="6.43128">
        <ele>329.2002</ele>
        <time>2026-05-17T14:39:34+02:00</time>
      </trkpt>
      <trkpt lat="48.20475" lon="6.43132">
        <ele>329.2002</ele>
        <time>2026-05-17T14:39:35+02:00</time>
      </trkpt>
      <trkpt lat="48.20481" lon="6.43137">
        <ele>329.5</ele>
        <time>2026-05-17T14:39:36+02:00</time>
      </trkpt>
      <trkpt lat="48.20487" lon="6.43142">
        <ele>329.5</ele>
        <time>2026-05-17T14:39:37+02:00</time>
      </trkpt>
      <trkpt lat="48.20493" lon="6.43148">
        <ele>329.4004</ele>
        <time>2026-05-17T14:39:38+02:00</time>
      </trkpt>
      <trkpt lat="48.20499" lon="6.43154">
        <ele>329.4004</ele>
        <time>2026-05-17T14:39:39+02:00</time>
      </trkpt>
      <trkpt lat="48.20505" lon="6.4316">
        <ele>329.4004</ele>
        <time>2026-05-17T14:39:40+02:00</time>
      </trkpt>
      <trkpt lat="48.20508" lon="6.43163">
        <ele>329.6006</ele>
        <time>2026-05-17T14:39:41+02:00</time>
      </trkpt>
      <trkpt lat="48.20516" lon="6.43173">
        <ele>329</ele>
        <time>2026-05-17T14:39:42+02:00</time>
      </trkpt>
      <trkpt lat="48.20521" lon="6.4318">
        <ele>328.7998</ele>
        <time>2026-05-17T14:39:43+02:00</time>
      </trkpt>
      <trkpt lat="48.20526" lon="6.43187">
        <ele>328.4004</ele>
        <time>2026-05-17T14:39:44+02:00</time>
      </trkpt>
      <trkpt lat="48.20532" lon="6.43194">
        <ele>328</ele>
        <time>2026-05-17T14:39:45+02:00</time>
      </trkpt>
      <trkpt lat="48.20536" lon="6.43202">
        <ele>328</ele>
        <time>2026-05-17T14:39:46+02:00</time>
      </trkpt>
      <trkpt lat="48.2054" lon="6.4321">
        <ele>328.1006</ele>
        <time>2026-05-17T14:39:47+02:00</time>
      </trkpt>
      <trkpt lat="48.20543" lon="6.43219">
        <ele>328.1006</ele>
        <time>2026-05-17T14:39:48+02:00</time>
      </trkpt>
      <trkpt lat="48.20546" lon="6.43226">
        <ele>328</ele>
        <time>2026-05-17T14:39:49+02:00</time>
      </trkpt>
      <trkpt lat="48.2055" lon="6.43233">
        <ele>328</ele>
        <time>2026-05-17T14:39:50+02:00</time>
      </trkpt>
      <trkpt lat="48.20554" lon="6.4324">
        <ele>328.1006</ele>
        <time>2026-05-17T14:39:51+02:00</time>
      </trkpt>
      <trkpt lat="48.20559" lon="6.43245">
        <ele>328.2998</ele>
        <time>2026-05-17T14:39:52+02:00</time>
      </trkpt>
      <trkpt lat="48.20564" lon="6.43248">
        <ele>328.5</ele>
        <time>2026-05-17T14:39:53+02:00</time>
      </trkpt>
      <trkpt lat="48.20569" lon="6.43251">
        <ele>328.4004</ele>
        <time>2026-05-17T14:39:54+02:00</time>
      </trkpt>
      <trkpt lat="48.20574" lon="6.43254">
        <ele>328.4004</ele>
        <time>2026-05-17T14:39:55+02:00</time>
      </trkpt>
      <trkpt lat="48.20579" lon="6.43258">
        <ele>328.2998</ele>
        <time>2026-05-17T14:39:56+02:00</time>
      </trkpt>
      <trkpt lat="48.20583" lon="6.43264">
        <ele>328</ele>
        <time>2026-05-17T14:39:57+02:00</time>
      </trkpt>
      <trkpt lat="48.20588" lon="6.4327">
        <ele>328.1006</ele>
        <time>2026-05-17T14:39:58+02:00</time>
      </trkpt>
      <trkpt lat="48.20594" lon="6.43277">
        <ele>328.1006</ele>
        <time>2026-05-17T14:39:59+02:00</time>
      </trkpt>
      <trkpt lat="48.20599" lon="6.43285">
        <ele>327.7002</ele>
        <time>2026-05-17T14:40:00+02:00</time>
      </trkpt>
      <trkpt lat="48.20604" lon="6.43293">
        <ele>327.4004</ele>
        <time>2026-05-17T14:40:01+02:00</time>
      </trkpt>
      <trkpt lat="48.2061" lon="6.433">
        <ele>327.4004</ele>
        <time>2026-05-17T14:40:02+02:00</time>
      </trkpt>
      <trkpt lat="48.20615" lon="6.43308">
        <ele>327.5</ele>
        <time>2026-05-17T14:40:03+02:00</time>
      </trkpt>
      <trkpt lat="48.2062" lon="6.43315">
        <ele>327.5</ele>
        <time>2026-05-17T14:40:04+02:00</time>
      </trkpt>
      <trkpt lat="48.20625" lon="6.43322">
        <ele>327.1006</ele>
        <time>2026-05-17T14:40:05+02:00</time>
      </trkpt>
      <trkpt lat="48.2063" lon="6.43328">
        <ele>327</ele>
        <time>2026-05-17T14:40:06+02:00</time>
      </trkpt>
      <trkpt lat="48.20635" lon="6.43335">
        <ele>327.2998</ele>
        <time>2026-05-17T14:40:07+02:00</time>
      </trkpt>
      <trkpt lat="48.2064" lon="6.43342">
        <ele>327.5</ele>
        <time>2026-05-17T14:40:08+02:00</time>
      </trkpt>
      <trkpt lat="48.20644" lon="6.43349">
        <ele>327.2002</ele>
        <time>2026-05-17T14:40:09+02:00</time>
      </trkpt>
      <trkpt lat="48.20649" lon="6.43355">
        <ele>326.6006</ele>
        <time>2026-05-17T14:40:10+02:00</time>
      </trkpt>
      <trkpt lat="48.20654" lon="6.43362">
        <ele>326.5</ele>
        <time>2026-05-17T14:40:11+02:00</time>
      </trkpt>
      <trkpt lat="48.20658" lon="6.43368">
        <ele>326.4004</ele>
        <time>2026-05-17T14:40:12+02:00</time>
      </trkpt>
      <trkpt lat="48.20663" lon="6.43374">
        <ele>326.5</ele>
        <time>2026-05-17T14:40:13+02:00</time>
      </trkpt>
      <trkpt lat="48.20667" lon="6.4338">
        <ele>326.4004</ele>
        <time>2026-05-17T14:40:14+02:00</time>
      </trkpt>
      <trkpt lat="48.20672" lon="6.43387">
        <ele>326.2998</ele>
        <time>2026-05-17T14:40:15+02:00</time>
      </trkpt>
      <trkpt lat="48.20677" lon="6.43393">
        <ele>326.2002</ele>
        <time>2026-05-17T14:40:16+02:00</time>
      </trkpt>
      <trkpt lat="48.20682" lon="6.43399">
        <ele>326.4004</ele>
        <time>2026-05-17T14:40:17+02:00</time>
      </trkpt>
      <trkpt lat="48.20687" lon="6.43405">
        <ele>326.5</ele>
        <time>2026-05-17T14:40:18+02:00</time>
      </trkpt>
      <trkpt lat="48.20692" lon="6.43411">
        <ele>326.4004</ele>
        <time>2026-05-17T14:40:19+02:00</time>
      </trkpt>
      <trkpt lat="48.20696" lon="6.43419">
        <ele>326.1006</ele>
        <time>2026-05-17T14:40:20+02:00</time>
      </trkpt>
      <trkpt lat="48.20701" lon="6.43427">
        <ele>326.1006</ele>
        <time>2026-05-17T14:40:21+02:00</time>
      </trkpt>
      <trkpt lat="48.20705" lon="6.43434">
        <ele>326.1006</ele>
        <time>2026-05-17T14:40:22+02:00</time>
      </trkpt>
      <trkpt lat="48.2071" lon="6.43442">
        <ele>326.4004</ele>
        <time>2026-05-17T14:40:23+02:00</time>
      </trkpt>
      <trkpt lat="48.20715" lon="6.43449">
        <ele>326.1006</ele>
        <time>2026-05-17T14:40:24+02:00</time>
      </trkpt>
      <trkpt lat="48.20719" lon="6.43457">
        <ele>325.6006</ele>
        <time>2026-05-17T14:40:25+02:00</time>
      </trkpt>
      <trkpt lat="48.20724" lon="6.43464">
        <ele>325.4004</ele>
        <time>2026-05-17T14:40:26+02:00</time>
      </trkpt>
      <trkpt lat="48.2073" lon="6.4347">
        <ele>325.5</ele>
        <time>2026-05-17T14:40:27+02:00</time>
      </trkpt>
      <trkpt lat="48.20735" lon="6.43476">
        <ele>325.2998</ele>
        <time>2026-05-17T14:40:28+02:00</time>
      </trkpt>
      <trkpt lat="48.20739" lon="6.43482">
        <ele>325</ele>
        <time>2026-05-17T14:40:29+02:00</time>
      </trkpt>
      <trkpt lat="48.20744" lon="6.43489">
        <ele>325</ele>
        <time>2026-05-17T14:40:30+02:00</time>
      </trkpt>
      <trkpt lat="48.2075" lon="6.43497">
        <ele>325.1006</ele>
        <time>2026-05-17T14:40:31+02:00</time>
      </trkpt>
      <trkpt lat="48.20755" lon="6.43505">
        <ele>325.2998</ele>
        <time>2026-05-17T14:40:32+02:00</time>
      </trkpt>
      <trkpt lat="48.2076" lon="6.43514">
        <ele>325.5</ele>
        <time>2026-05-17T14:40:33+02:00</time>
      </trkpt>
      <trkpt lat="48.20766" lon="6.43522">
        <ele>325.2998</ele>
        <time>2026-05-17T14:40:34+02:00</time>
      </trkpt>
      <trkpt lat="48.20772" lon="6.4353">
        <ele>325.2002</ele>
        <time>2026-05-17T14:40:35+02:00</time>
      </trkpt>
      <trkpt lat="48.20776" lon="6.43539">
        <ele>325.2998</ele>
        <time>2026-05-17T14:40:36+02:00</time>
      </trkpt>
      <trkpt lat="48.20781" lon="6.43547">
        <ele>325.5</ele>
        <time>2026-05-17T14:40:37+02:00</time>
      </trkpt>
      <trkpt lat="48.20785" lon="6.43556">
        <ele>325.5</ele>
        <time>2026-05-17T14:40:38+02:00</time>
      </trkpt>
      <trkpt lat="48.20789" lon="6.43565">
        <ele>325.2002</ele>
        <time>2026-05-17T14:40:39+02:00</time>
      </trkpt>
      <trkpt lat="48.20793" lon="6.43574">
        <ele>324.6006</ele>
        <time>2026-05-17T14:40:40+02:00</time>
      </trkpt>
      <trkpt lat="48.20796" lon="6.43584">
        <ele>324.4004</ele>
        <time>2026-05-17T14:40:41+02:00</time>
      </trkpt>
      <trkpt lat="48.20799" lon="6.43594">
        <ele>324.2002</ele>
        <time>2026-05-17T14:40:42+02:00</time>
      </trkpt>
      <trkpt lat="48.20802" lon="6.43603">
        <ele>324.2002</ele>
        <time>2026-05-17T14:40:43+02:00</time>
      </trkpt>
      <trkpt lat="48.20805" lon="6.43613">
        <ele>324.5</ele>
        <time>2026-05-17T14:40:44+02:00</time>
      </trkpt>
      <trkpt lat="48.20808" lon="6.43623">
        <ele>324.5</ele>
        <time>2026-05-17T14:40:45+02:00</time>
      </trkpt>
      <trkpt lat="48.2081" lon="6.43633">
        <ele>324.4004</ele>
        <time>2026-05-17T14:40:46+02:00</time>
      </trkpt>
      <trkpt lat="48.20814" lon="6.43642">
        <ele>324.4004</ele>
        <time>2026-05-17T14:40:47+02:00</time>
      </trkpt>
      <trkpt lat="48.20816" lon="6.43653">
        <ele>324.2002</ele>
        <time>2026-05-17T14:40:48+02:00</time>
      </trkpt>
      <trkpt lat="48.20819" lon="6.43662">
        <ele>324.2998</ele>
        <time>2026-05-17T14:40:49+02:00</time>
      </trkpt>
      <trkpt lat="48.20823" lon="6.43672">
        <ele>324.2998</ele>
        <time>2026-05-17T14:40:50+02:00</time>
      </trkpt>
      <trkpt lat="48.20826" lon="6.43681">
        <ele>324.4004</ele>
        <time>2026-05-17T14:40:51+02:00</time>
      </trkpt>
      <trkpt lat="48.2083" lon="6.4369">
        <ele>324.5</ele>
        <time>2026-05-17T14:40:52+02:00</time>
      </trkpt>
      <trkpt lat="48.20834" lon="6.43698">
        <ele>324.4004</ele>
        <time>2026-05-17T14:40:53+02:00</time>
      </trkpt>
      <trkpt lat="48.20837" lon="6.43708">
        <ele>324.4004</ele>
        <time>2026-05-17T14:40:54+02:00</time>
      </trkpt>
      <trkpt lat="48.2084" lon="6.43719">
        <ele>324.2002</ele>
        <time>2026-05-17T14:40:55+02:00</time>
      </trkpt>
      <trkpt lat="48.20843" lon="6.43731">
        <ele>324.2002</ele>
        <time>2026-05-17T14:40:56+02:00</time>
      </trkpt>
      <trkpt lat="48.20847" lon="6.43742">
        <ele>324.2002</ele>
        <time>2026-05-17T14:40:57+02:00</time>
      </trkpt>
      <trkpt lat="48.2085" lon="6.43753">
        <ele>324.2998</ele>
        <time>2026-05-17T14:40:58+02:00</time>
      </trkpt>
      <trkpt lat="48.20854" lon="6.43764">
        <ele>324.2998</ele>
        <time>2026-05-17T14:40:59+02:00</time>
      </trkpt>
      <trkpt lat="48.20857" lon="6.43775">
        <ele>324.5</ele>
        <time>2026-05-17T14:41:00+02:00</time>
      </trkpt>
      <trkpt lat="48.2086" lon="6.43785">
        <ele>324.5</ele>
        <time>2026-05-17T14:41:01+02:00</time>
      </trkpt>
      <trkpt lat="48.20863" lon="6.43795">
        <ele>324.4004</ele>
        <time>2026-05-17T14:41:02+02:00</time>
      </trkpt>
      <trkpt lat="48.20866" lon="6.43805">
        <ele>324.1006</ele>
        <time>2026-05-17T14:41:03+02:00</time>
      </trkpt>
      <trkpt lat="48.20869" lon="6.43814">
        <ele>324.1006</ele>
        <time>2026-05-17T14:41:04+02:00</time>
      </trkpt>
      <trkpt lat="48.2088" lon="6.4385">
        <ele>324.4004</ele>
        <time>2026-05-17T14:41:05+02:00</time>
      </trkpt>
      <trkpt lat="48.20883" lon="6.43859">
        <ele>324.6006</ele>
        <time>2026-05-17T14:41:06+02:00</time>
      </trkpt>
      <trkpt lat="48.20885" lon="6.43866">
        <ele>324.6006</ele>
        <time>2026-05-17T14:41:07+02:00</time>
      </trkpt>
      <trkpt lat="48.20888" lon="6.43873">
        <ele>324.4004</ele>
        <time>2026-05-17T14:41:08+02:00</time>
      </trkpt>
      <trkpt lat="48.20891" lon="6.4388">
        <ele>324.5</ele>
        <time>2026-05-17T14:41:09+02:00</time>
      </trkpt>
      <trkpt lat="48.20893" lon="6.43887">
        <ele>324</ele>
        <time>2026-05-17T14:41:10+02:00</time>
      </trkpt>
      <trkpt lat="48.20896" lon="6.43894">
        <ele>324.6006</ele>
        <time>2026-05-17T14:41:11+02:00</time>
      </trkpt>
      <trkpt lat="48.20897" lon="6.43898">
        <ele>324.6006</ele>
        <time>2026-05-17T14:41:12+02:00</time>
      </trkpt>
      <trkpt lat="48.209" lon="6.43909">
        <ele>323.7998</ele>
        <time>2026-05-17T14:41:13+02:00</time>
      </trkpt>
      <trkpt lat="48.20902" lon="6.43915">
        <ele>323.7002</ele>
        <time>2026-05-17T14:41:14+02:00</time>
      </trkpt>
      <trkpt lat="48.20904" lon="6.4392">
        <ele>322.7002</ele>
        <time>2026-05-17T14:41:15+02:00</time>
      </trkpt>
      <trkpt lat="48.20906" lon="6.43925">
        <ele>323.2998</ele>
        <time>2026-05-17T14:41:16+02:00</time>
      </trkpt>
      <trkpt lat="48.20908" lon="6.43929">
        <ele>322.4004</ele>
        <time>2026-05-17T14:41:17+02:00</time>
      </trkpt>
      <trkpt lat="48.2091" lon="6.43933">
        <ele>322.4004</ele>
        <time>2026-05-17T14:41:18+02:00</time>
      </trkpt>
      <trkpt lat="48.20911" lon="6.43936">
        <ele>322.4004</ele>
        <time>2026-05-17T14:41:19+02:00</time>
      </trkpt>
      <trkpt lat="48.20912" lon="6.43939">
        <ele>322.6006</ele>
        <time>2026-05-17T14:41:20+02:00</time>
      </trkpt>
      <trkpt lat="48.20913" lon="6.4394">
        <ele>322.6006</ele>
        <time>2026-05-17T14:41:21+02:00</time>
      </trkpt>
      <trkpt lat="48.20913" lon="6.43941">
        <ele>322.6006</ele>
        <time>2026-05-17T14:41:22+02:00</time>
      </trkpt>
      <trkpt lat="48.20913" lon="6.43941">
        <ele>322.6006</ele>
        <time>2026-05-17T14:41:23+02:00</time>
      </trkpt>
      <trkpt lat="48.20913" lon="6.43941">
        <ele>322.6006</ele>
        <time>2026-05-17T14:41:24+02:00</time>
      </trkpt>
      <trkpt lat="48.20913" lon="6.43941">
        <ele>322.6006</ele>
        <time>2026-05-17T14:41:25+02:00</time>
      </trkpt>
      <trkpt lat="48.20906" lon="6.43924">
        <ele>323.2998</ele>
        <time>2026-05-17T14:42:16+02:00</time>
      </trkpt>
      <trkpt lat="48.20905" lon="6.4392">
        <ele>322.7002</ele>
        <time>2026-05-17T14:42:17+02:00</time>
      </trkpt>
      <trkpt lat="48.20903" lon="6.43916">
        <ele>323.7002</ele>
        <time>2026-05-17T14:42:18+02:00</time>
      </trkpt>
      <trkpt lat="48.20901" lon="6.43911">
        <ele>323.7002</ele>
        <time>2026-05-17T14:42:19+02:00</time>
      </trkpt>
      <trkpt lat="48.20899" lon="6.43906">
        <ele>323.7998</ele>
        <time>2026-05-17T14:42:20+02:00</time>
      </trkpt>
      <trkpt lat="48.20897" lon="6.43901">
        <ele>324.6006</ele>
        <time>2026-05-17T14:42:21+02:00</time>
      </trkpt>
      <trkpt lat="48.20895" lon="6.43896">
        <ele>324.6006</ele>
        <time>2026-05-17T14:42:22+02:00</time>
      </trkpt>
      <trkpt lat="48.20894" lon="6.43892">
        <ele>324</ele>
        <time>2026-05-17T14:42:23+02:00</time>
      </trkpt>
      <trkpt lat="48.20892" lon="6.43887">
        <ele>324</ele>
        <time>2026-05-17T14:42:24+02:00</time>
      </trkpt>
      <trkpt lat="48.20891" lon="6.43884">
        <ele>324.5</ele>
        <time>2026-05-17T14:42:25+02:00</time>
      </trkpt>
      <trkpt lat="48.20891" lon="6.4388">
        <ele>324.5</ele>
        <time>2026-05-17T14:42:26+02:00</time>
      </trkpt>
      <trkpt lat="48.2089" lon="6.43877">
        <ele>324.5</ele>
        <time>2026-05-17T14:42:27+02:00</time>
      </trkpt>
      <trkpt lat="48.20889" lon="6.43875">
        <ele>325</ele>
        <time>2026-05-17T14:42:28+02:00</time>
      </trkpt>
      <trkpt lat="48.20889" lon="6.43875">
        <ele>325</ele>
        <time>2026-05-17T14:42:29+02:00</time>
      </trkpt>
      <trkpt lat="48.20889" lon="6.43874">
        <ele>325</ele>
        <time>2026-05-17T14:42:30+02:00</time>
      </trkpt>
      <trkpt lat="48.20889" lon="6.43874">
        <ele>325</ele>
        <time>2026-05-17T14:42:31+02:00</time>
      </trkpt>
      <trkpt lat="48.20889" lon="6.43874">
        <ele>325</ele>
        <time>2026-05-17T14:42:32+02:00</time>
      </trkpt>
      <trkpt lat="48.20891" lon="6.43885">
        <ele>324</ele>
        <time>2026-05-17T14:43:21+02:00</time>
      </trkpt>
      <trkpt lat="48.20892" lon="6.4389">
        <ele>324</ele>
        <time>2026-05-17T14:43:22+02:00</time>
      </trkpt>
      <trkpt lat="48.20894" lon="6.43895">
        <ele>323.6006</ele>
        <time>2026-05-17T14:43:23+02:00</time>
      </trkpt>
      <trkpt lat="48.20896" lon="6.439">
        <ele>324.6006</ele>
        <time>2026-05-17T14:43:24+02:00</time>
      </trkpt>
      <trkpt lat="48.20897" lon="6.43906">
        <ele>323.7998</ele>
        <time>2026-05-17T14:43:25+02:00</time>
      </trkpt>
      <trkpt lat="48.20899" lon="6.43912">
        <ele>323</ele>
        <time>2026-05-17T14:43:26+02:00</time>
      </trkpt>
      <trkpt lat="48.20902" lon="6.43918">
        <ele>323.7002</ele>
        <time>2026-05-17T14:43:27+02:00</time>
      </trkpt>
      <trkpt lat="48.20905" lon="6.43924">
        <ele>322.7002</ele>
        <time>2026-05-17T14:43:28+02:00</time>
      </trkpt>
      <trkpt lat="48.20907" lon="6.4393">
        <ele>322.4004</ele>
        <time>2026-05-17T14:43:29+02:00</time>
      </trkpt>
      <trkpt lat="48.2091" lon="6.43936">
        <ele>322.4004</ele>
        <time>2026-05-17T14:43:30+02:00</time>
      </trkpt>
      <trkpt lat="48.20913" lon="6.43942">
        <ele>322.6006</ele>
        <time>2026-05-17T14:43:31+02:00</time>
      </trkpt>
      <trkpt lat="48.20915" lon="6.43948">
        <ele>322.2002</ele>
        <time>2026-05-17T14:43:32+02:00</time>
      </trkpt>
      <trkpt lat="48.20918" lon="6.43954">
        <ele>321.5</ele>
        <time>2026-05-17T14:43:33+02:00</time>
      </trkpt>
      <trkpt lat="48.2092" lon="6.43957">
        <ele>321.5</ele>
        <time>2026-05-17T14:43:34+02:00</time>
      </trkpt>
      <trkpt lat="48.20923" lon="6.43966">
        <ele>320.9004</ele>
        <time>2026-05-17T14:43:35+02:00</time>
      </trkpt>
      <trkpt lat="48.20926" lon="6.43973">
        <ele>320</ele>
        <time>2026-05-17T14:43:36+02:00</time>
      </trkpt>
      <trkpt lat="48.20929" lon="6.43979">
        <ele>320.5</ele>
        <time>2026-05-17T14:43:37+02:00</time>
      </trkpt>
      <trkpt lat="48.20932" lon="6.43986">
        <ele>320.2998</ele>
        <time>2026-05-17T14:43:38+02:00</time>
      </trkpt>
      <trkpt lat="48.20936" lon="6.43992">
        <ele>321.7002</ele>
        <time>2026-05-17T14:43:39+02:00</time>
      </trkpt>
      <trkpt lat="48.20939" lon="6.43999">
        <ele>321.7002</ele>
        <time>2026-05-17T14:43:40+02:00</time>
      </trkpt>
      <trkpt lat="48.20942" lon="6.44006">
        <ele>322.2998</ele>
        <time>2026-05-17T14:43:41+02:00</time>
      </trkpt>
      <trkpt lat="48.20946" lon="6.44013">
        <ele>322.9004</ele>
        <time>2026-05-17T14:43:42+02:00</time>
      </trkpt>
      <trkpt lat="48.2095" lon="6.4402">
        <ele>321.7998</ele>
        <time>2026-05-17T14:43:43+02:00</time>
      </trkpt>
      <trkpt lat="48.20954" lon="6.44027">
        <ele>320.7002</ele>
        <time>2026-05-17T14:43:44+02:00</time>
      </trkpt>
      <trkpt lat="48.20957" lon="6.44034">
        <ele>319.7998</ele>
        <time>2026-05-17T14:43:45+02:00</time>
      </trkpt>
      <trkpt lat="48.2096" lon="6.4404">
        <ele>319.2002</ele>
        <time>2026-05-17T14:43:46+02:00</time>
      </trkpt>
      <trkpt lat="48.20963" lon="6.44047">
        <ele>319.2002</ele>
        <time>2026-05-17T14:43:47+02:00</time>
      </trkpt>
      <trkpt lat="48.20966" lon="6.44055">
        <ele>318</ele>
        <time>2026-05-17T14:43:48+02:00</time>
      </trkpt>
      <trkpt lat="48.2097" lon="6.44061">
        <ele>317.2002</ele>
        <time>2026-05-17T14:43:49+02:00</time>
      </trkpt>
      <trkpt lat="48.20973" lon="6.44067">
        <ele>316.9004</ele>
        <time>2026-05-17T14:43:50+02:00</time>
      </trkpt>
      <trkpt lat="48.20976" lon="6.44072">
        <ele>316.7998</ele>
        <time>2026-05-17T14:43:51+02:00</time>
      </trkpt>
      <trkpt lat="48.20979" lon="6.44076">
        <ele>316.9004</ele>
        <time>2026-05-17T14:43:52+02:00</time>
      </trkpt>
      <trkpt lat="48.20981" lon="6.4408">
        <ele>317.1006</ele>
        <time>2026-05-17T14:43:53+02:00</time>
      </trkpt>
      <trkpt lat="48.20983" lon="6.44084">
        <ele>317.1006</ele>
        <time>2026-05-17T14:43:54+02:00</time>
      </trkpt>
      <trkpt lat="48.20984" lon="6.44088">
        <ele>317.1006</ele>
        <time>2026-05-17T14:43:55+02:00</time>
      </trkpt>
      <trkpt lat="48.20984" lon="6.44091">
        <ele>317.2002</ele>
        <time>2026-05-17T14:43:56+02:00</time>
      </trkpt>
      <trkpt lat="48.20984" lon="6.44094">
        <ele>317.2002</ele>
        <time>2026-05-17T14:43:57+02:00</time>
      </trkpt>
      <trkpt lat="48.20984" lon="6.44097">
        <ele>317.2002</ele>
        <time>2026-05-17T14:43:58+02:00</time>
      </trkpt>
      <trkpt lat="48.20983" lon="6.44099">
        <ele>317.2002</ele>
        <time>2026-05-17T14:43:59+02:00</time>
      </trkpt>
      <trkpt lat="48.20982" lon="6.44101">
        <ele>317.2002</ele>
        <time>2026-05-17T14:44:00+02:00</time>
      </trkpt>
      <trkpt lat="48.2098" lon="6.44103">
        <ele>317.5</ele>
        <time>2026-05-17T14:44:01+02:00</time>
      </trkpt>
      <trkpt lat="48.20979" lon="6.44103">
        <ele>317.5</ele>
        <time>2026-05-17T14:44:02+02:00</time>
      </trkpt>
      <trkpt lat="48.20978" lon="6.44104">
        <ele>317.5</ele>
        <time>2026-05-17T14:44:03+02:00</time>
      </trkpt>
      <trkpt lat="48.20978" lon="6.44104">
        <ele>317.5</ele>
        <time>2026-05-17T14:44:04+02:00</time>
      </trkpt>
      <trkpt lat="48.20978" lon="6.44104">
        <ele>317.5</ele>
        <time>2026-05-17T14:44:05+02:00</time>
      </trkpt>
      <trkpt lat="48.20978" lon="6.44104">
        <ele>317.5</ele>
        <time>2026-05-17T14:44:06+02:00</time>
      </trkpt>
      <trkpt lat="48.20973" lon="6.44122">
        <ele>317.7998</ele>
        <time>2026-05-17T14:44:31+02:00</time>
      </trkpt>
      <trkpt lat="48.20973" lon="6.44125">
        <ele>317.7002</ele>
        <time>2026-05-17T14:44:32+02:00</time>
      </trkpt>
      <trkpt lat="48.20974" lon="6.44128">
        <ele>317.7002</ele>
        <time>2026-05-17T14:44:33+02:00</time>
      </trkpt>
      <trkpt lat="48.20974" lon="6.4413">
        <ele>317.7002</ele>
        <time>2026-05-17T14:44:34+02:00</time>
      </trkpt>
      <trkpt lat="48.20975" lon="6.44132">
        <ele>317.5</ele>
        <time>2026-05-17T14:44:35+02:00</time>
      </trkpt>
      <trkpt lat="48.20976" lon="6.44135">
        <ele>317.4004</ele>
        <time>2026-05-17T14:44:36+02:00</time>
      </trkpt>
      <trkpt lat="48.20977" lon="6.44138">
        <ele>317.4004</ele>
        <time>2026-05-17T14:44:37+02:00</time>
      </trkpt>
      <trkpt lat="48.20978" lon="6.44142">
        <ele>317.4004</ele>
        <time>2026-05-17T14:44:38+02:00</time>
      </trkpt>
      <trkpt lat="48.20981" lon="6.44147">
        <ele>317</ele>
        <time>2026-05-17T14:44:39+02:00</time>
      </trkpt>
      <trkpt lat="48.20983" lon="6.44152">
        <ele>316.7002</ele>
        <time>2026-05-17T14:44:40+02:00</time>
      </trkpt>
      <trkpt lat="48.20985" lon="6.44157">
        <ele>316.7002</ele>
        <time>2026-05-17T14:44:41+02:00</time>
      </trkpt>
      <trkpt lat="48.20988" lon="6.44163">
        <ele>316</ele>
        <time>2026-05-17T14:44:42+02:00</time>
      </trkpt>
      <trkpt lat="48.20991" lon="6.44169">
        <ele>315.5</ele>
        <time>2026-05-17T14:44:43+02:00</time>
      </trkpt>
      <trkpt lat="48.20994" lon="6.44175">
        <ele>315.2998</ele>
        <time>2026-05-17T14:44:44+02:00</time>
      </trkpt>
      <trkpt lat="48.20998" lon="6.44181">
        <ele>314.6006</ele>
        <time>2026-05-17T14:44:45+02:00</time>
      </trkpt>
      <trkpt lat="48.21003" lon="6.44186">
        <ele>314.1006</ele>
        <time>2026-05-17T14:44:46+02:00</time>
      </trkpt>
      <trkpt lat="48.21008" lon="6.44192">
        <ele>314</ele>
        <time>2026-05-17T14:44:47+02:00</time>
      </trkpt>
      <trkpt lat="48.21013" lon="6.44197">
        <ele>313.6006</ele>
        <time>2026-05-17T14:44:48+02:00</time>
      </trkpt>
      <trkpt lat="48.21019" lon="6.44202">
        <ele>313.6006</ele>
        <time>2026-05-17T14:44:49+02:00</time>
      </trkpt>
      <trkpt lat="48.21026" lon="6.44206">
        <ele>313</ele>
        <time>2026-05-17T14:44:50+02:00</time>
      </trkpt>
      <trkpt lat="48.21032" lon="6.44209">
        <ele>312.9004</ele>
        <time>2026-05-17T14:44:51+02:00</time>
      </trkpt>
      <trkpt lat="48.21038" lon="6.44212">
        <ele>312.2998</ele>
        <time>2026-05-17T14:44:52+02:00</time>
      </trkpt>
      <trkpt lat="48.21042" lon="6.44213">
        <ele>312.2998</ele>
        <time>2026-05-17T14:44:53+02:00</time>
      </trkpt>
      <trkpt lat="48.21043" lon="6.44213">
        <ele>312.2998</ele>
        <time>2026-05-17T14:44:54+02:00</time>
      </trkpt>
      <trkpt lat="48.21043" lon="6.44212">
        <ele>312.2998</ele>
        <time>2026-05-17T14:44:55+02:00</time>
      </trkpt>
      <trkpt lat="48.21043" lon="6.44212">
        <ele>312.2998</ele>
        <time>2026-05-17T14:44:56+02:00</time>
      </trkpt>
      <trkpt lat="48.21043" lon="6.44212">
        <ele>312.2998</ele>
        <time>2026-05-17T14:44:57+02:00</time>
      </trkpt>
      <trkpt lat="48.21043" lon="6.44212">
        <ele>312.2998</ele>
        <time>2026-05-17T14:44:58+02:00</time>
      </trkpt>
      <trkpt lat="48.21043" lon="6.44212">
        <ele>312.2998</ele>
        <time>2026-05-17T14:44:59+02:00</time>
      </trkpt>
      <trkpt lat="48.21039" lon="6.44217">
        <ele>312.2998</ele>
        <time>2026-05-17T14:45:05+02:00</time>
      </trkpt>
      <trkpt lat="48.21039" lon="6.44213">
        <ele>312.2998</ele>
        <time>2026-05-17T14:45:06+02:00</time>
      </trkpt>
      <trkpt lat="48.2104" lon="6.4421">
        <ele>312.9004</ele>
        <time>2026-05-17T14:45:07+02:00</time>
      </trkpt>
      <trkpt lat="48.21042" lon="6.44209">
        <ele>312.9004</ele>
        <time>2026-05-17T14:45:08+02:00</time>
      </trkpt>
      <trkpt lat="48.21045" lon="6.44209">
        <ele>312.7998</ele>
        <time>2026-05-17T14:45:09+02:00</time>
      </trkpt>
      <trkpt lat="48.21048" lon="6.44208">
        <ele>312.7998</ele>
        <time>2026-05-17T14:45:10+02:00</time>
      </trkpt>
      <trkpt lat="48.21051" lon="6.44207">
        <ele>312.7002</ele>
        <time>2026-05-17T14:45:11+02:00</time>
      </trkpt>
      <trkpt lat="48.21053" lon="6.44206">
        <ele>312.7002</ele>
        <time>2026-05-17T14:45:12+02:00</time>
      </trkpt>
      <trkpt lat="48.21056" lon="6.44205">
        <ele>312.7002</ele>
        <time>2026-05-17T14:45:13+02:00</time>
      </trkpt>
      <trkpt lat="48.2106" lon="6.44205">
        <ele>312.7002</ele>
        <time>2026-05-17T14:45:14+02:00</time>
      </trkpt>
      <trkpt lat="48.21064" lon="6.44204">
        <ele>312.7002</ele>
        <time>2026-05-17T14:45:15+02:00</time>
      </trkpt>
      <trkpt lat="48.21068" lon="6.44204">
        <ele>312.7002</ele>
        <time>2026-05-17T14:45:16+02:00</time>
      </trkpt>
      <trkpt lat="48.21072" lon="6.44203">
        <ele>312.7002</ele>
        <time>2026-05-17T14:45:17+02:00</time>
      </trkpt>
      <trkpt lat="48.21077" lon="6.44202">
        <ele>313</ele>
        <time>2026-05-17T14:45:18+02:00</time>
      </trkpt>
      <trkpt lat="48.21082" lon="6.44202">
        <ele>313</ele>
        <time>2026-05-17T14:45:19+02:00</time>
      </trkpt>
      <trkpt lat="48.21086" lon="6.442">
        <ele>313</ele>
        <time>2026-05-17T14:45:20+02:00</time>
      </trkpt>
      <trkpt lat="48.2109" lon="6.44199">
        <ele>313.1006</ele>
        <time>2026-05-17T14:45:21+02:00</time>
      </trkpt>
      <trkpt lat="48.21095" lon="6.44197">
        <ele>313.2002</ele>
        <time>2026-05-17T14:45:22+02:00</time>
      </trkpt>
      <trkpt lat="48.21097" lon="6.44196">
        <ele>313.2002</ele>
        <time>2026-05-17T14:45:23+02:00</time>
      </trkpt>
      <trkpt lat="48.21105" lon="6.44193">
        <ele>313.2998</ele>
        <time>2026-05-17T14:45:24+02:00</time>
      </trkpt>
      <trkpt lat="48.21109" lon="6.4419">
        <ele>313.4004</ele>
        <time>2026-05-17T14:45:25+02:00</time>
      </trkpt>
      <trkpt lat="48.21114" lon="6.44187">
        <ele>313.6006</ele>
        <time>2026-05-17T14:45:26+02:00</time>
      </trkpt>
      <trkpt lat="48.21119" lon="6.44184">
        <ele>313.5</ele>
        <time>2026-05-17T14:45:27+02:00</time>
      </trkpt>
      <trkpt lat="48.21124" lon="6.4418">
        <ele>313.7002</ele>
        <time>2026-05-17T14:45:28+02:00</time>
      </trkpt>
      <trkpt lat="48.21129" lon="6.44176">
        <ele>313.5</ele>
        <time>2026-05-17T14:45:29+02:00</time>
      </trkpt>
      <trkpt lat="48.21134" lon="6.44173">
        <ele>313.7002</ele>
        <time>2026-05-17T14:45:30+02:00</time>
      </trkpt>
      <trkpt lat="48.21139" lon="6.44169">
        <ele>314</ele>
        <time>2026-05-17T14:45:31+02:00</time>
      </trkpt>
      <trkpt lat="48.21144" lon="6.44165">
        <ele>314</ele>
        <time>2026-05-17T14:45:32+02:00</time>
      </trkpt>
      <trkpt lat="48.21149" lon="6.44161">
        <ele>314.2002</ele>
        <time>2026-05-17T14:45:33+02:00</time>
      </trkpt>
      <trkpt lat="48.21154" lon="6.44157">
        <ele>314</ele>
        <time>2026-05-17T14:45:34+02:00</time>
      </trkpt>
      <trkpt lat="48.21159" lon="6.44154">
        <ele>314.1006</ele>
        <time>2026-05-17T14:45:35+02:00</time>
      </trkpt>
      <trkpt lat="48.21165" lon="6.4415">
        <ele>313.7998</ele>
        <time>2026-05-17T14:45:36+02:00</time>
      </trkpt>
      <trkpt lat="48.2117" lon="6.44146">
        <ele>313.9004</ele>
        <time>2026-05-17T14:45:37+02:00</time>
      </trkpt>
      <trkpt lat="48.21175" lon="6.44142">
        <ele>313.5</ele>
        <time>2026-05-17T14:45:38+02:00</time>
      </trkpt>
      <trkpt lat="48.2118" lon="6.44138">
        <ele>313.5</ele>
        <time>2026-05-17T14:45:39+02:00</time>
      </trkpt>
      <trkpt lat="48.21186" lon="6.44135">
        <ele>313.6006</ele>
        <time>2026-05-17T14:45:40+02:00</time>
      </trkpt>
      <trkpt lat="48.21191" lon="6.44131">
        <ele>313.2002</ele>
        <time>2026-05-17T14:45:41+02:00</time>
      </trkpt>
      <trkpt lat="48.21196" lon="6.44127">
        <ele>313.2998</ele>
        <time>2026-05-17T14:45:42+02:00</time>
      </trkpt>
      <trkpt lat="48.21201" lon="6.44123">
        <ele>312.9004</ele>
        <time>2026-05-17T14:45:43+02:00</time>
      </trkpt>
      <trkpt lat="48.21206" lon="6.44119">
        <ele>313</ele>
        <time>2026-05-17T14:45:44+02:00</time>
      </trkpt>
      <trkpt lat="48.21212" lon="6.44115">
        <ele>312.9004</ele>
        <time>2026-05-17T14:45:45+02:00</time>
      </trkpt>
      <trkpt lat="48.21217" lon="6.44111">
        <ele>313.2998</ele>
        <time>2026-05-17T14:45:46+02:00</time>
      </trkpt>
      <trkpt lat="48.21222" lon="6.44107">
        <ele>313.4004</ele>
        <time>2026-05-17T14:45:47+02:00</time>
      </trkpt>
      <trkpt lat="48.21227" lon="6.44103">
        <ele>313.6006</ele>
        <time>2026-05-17T14:45:48+02:00</time>
      </trkpt>
      <trkpt lat="48.21233" lon="6.44099">
        <ele>313.2002</ele>
        <time>2026-05-17T14:45:49+02:00</time>
      </trkpt>
      <trkpt lat="48.21238" lon="6.44095">
        <ele>313.2998</ele>
        <time>2026-05-17T14:45:50+02:00</time>
      </trkpt>
      <trkpt lat="48.21241" lon="6.44093">
        <ele>313.2998</ele>
        <time>2026-05-17T14:45:51+02:00</time>
      </trkpt>
      <trkpt lat="48.21249" lon="6.44087">
        <ele>312.9004</ele>
        <time>2026-05-17T14:45:52+02:00</time>
      </trkpt>
      <trkpt lat="48.21254" lon="6.44083">
        <ele>313</ele>
        <time>2026-05-17T14:45:53+02:00</time>
      </trkpt>
      <trkpt lat="48.2126" lon="6.4408">
        <ele>312.6006</ele>
        <time>2026-05-17T14:45:54+02:00</time>
      </trkpt>
      <trkpt lat="48.21265" lon="6.44076">
        <ele>312.6006</ele>
        <time>2026-05-17T14:45:55+02:00</time>
      </trkpt>
      <trkpt lat="48.21271" lon="6.44072">
        <ele>312.4004</ele>
        <time>2026-05-17T14:45:56+02:00</time>
      </trkpt>
      <trkpt lat="48.21276" lon="6.44068">
        <ele>312.5</ele>
        <time>2026-05-17T14:45:57+02:00</time>
      </trkpt>
      <trkpt lat="48.21281" lon="6.44064">
        <ele>312.6006</ele>
        <time>2026-05-17T14:45:58+02:00</time>
      </trkpt>
      <trkpt lat="48.21286" lon="6.4406">
        <ele>312.9004</ele>
        <time>2026-05-17T14:45:59+02:00</time>
      </trkpt>
      <trkpt lat="48.21291" lon="6.44057">
        <ele>313.2002</ele>
        <time>2026-05-17T14:46:00+02:00</time>
      </trkpt>
      <trkpt lat="48.21296" lon="6.44053">
        <ele>312.9004</ele>
        <time>2026-05-17T14:46:01+02:00</time>
      </trkpt>
      <trkpt lat="48.21301" lon="6.4405">
        <ele>312.9004</ele>
        <time>2026-05-17T14:46:02+02:00</time>
      </trkpt>
      <trkpt lat="48.21306" lon="6.44046">
        <ele>312.7002</ele>
        <time>2026-05-17T14:46:03+02:00</time>
      </trkpt>
      <trkpt lat="48.21311" lon="6.44042">
        <ele>312.7002</ele>
        <time>2026-05-17T14:46:04+02:00</time>
      </trkpt>
      <trkpt lat="48.21316" lon="6.44039">
        <ele>312.6006</ele>
        <time>2026-05-17T14:46:05+02:00</time>
      </trkpt>
      <trkpt lat="48.21321" lon="6.44035">
        <ele>312.6006</ele>
        <time>2026-05-17T14:46:06+02:00</time>
      </trkpt>
      <trkpt lat="48.21326" lon="6.44031">
        <ele>312.5</ele>
        <time>2026-05-17T14:46:07+02:00</time>
      </trkpt>
      <trkpt lat="48.21332" lon="6.44027">
        <ele>312.2998</ele>
        <time>2026-05-17T14:46:08+02:00</time>
      </trkpt>
      <trkpt lat="48.21336" lon="6.44023">
        <ele>312.2998</ele>
        <time>2026-05-17T14:46:09+02:00</time>
      </trkpt>
      <trkpt lat="48.21341" lon="6.44019">
        <ele>312.4004</ele>
        <time>2026-05-17T14:46:10+02:00</time>
      </trkpt>
      <trkpt lat="48.21347" lon="6.44015">
        <ele>312.6006</ele>
        <time>2026-05-17T14:46:11+02:00</time>
      </trkpt>
      <trkpt lat="48.21352" lon="6.44012">
        <ele>312.5</ele>
        <time>2026-05-17T14:46:12+02:00</time>
      </trkpt>
      <trkpt lat="48.21357" lon="6.44008">
        <ele>312.6006</ele>
        <time>2026-05-17T14:46:13+02:00</time>
      </trkpt>
      <trkpt lat="48.21362" lon="6.44005">
        <ele>312.7002</ele>
        <time>2026-05-17T14:46:14+02:00</time>
      </trkpt>
      <trkpt lat="48.21367" lon="6.44003">
        <ele>312.5</ele>
        <time>2026-05-17T14:46:15+02:00</time>
      </trkpt>
      <trkpt lat="48.21373" lon="6.44">
        <ele>312.5</ele>
        <time>2026-05-17T14:46:16+02:00</time>
      </trkpt>
      <trkpt lat="48.21378" lon="6.43997">
        <ele>312.5</ele>
        <time>2026-05-17T14:46:17+02:00</time>
      </trkpt>
      <trkpt lat="48.21383" lon="6.43995">
        <ele>312.7998</ele>
        <time>2026-05-17T14:46:18+02:00</time>
      </trkpt>
      <trkpt lat="48.21389" lon="6.43992">
        <ele>313.1006</ele>
        <time>2026-05-17T14:46:19+02:00</time>
      </trkpt>
      <trkpt lat="48.21394" lon="6.43989">
        <ele>313.5</ele>
        <time>2026-05-17T14:46:20+02:00</time>
      </trkpt>
      <trkpt lat="48.214" lon="6.43986">
        <ele>313.4004</ele>
        <time>2026-05-17T14:46:21+02:00</time>
      </trkpt>
      <trkpt lat="48.21406" lon="6.43983">
        <ele>313.4004</ele>
        <time>2026-05-17T14:46:22+02:00</time>
      </trkpt>
      <trkpt lat="48.21411" lon="6.43981">
        <ele>313.4004</ele>
        <time>2026-05-17T14:46:23+02:00</time>
      </trkpt>
      <trkpt lat="48.21417" lon="6.43979">
        <ele>312.9004</ele>
        <time>2026-05-17T14:46:24+02:00</time>
      </trkpt>
      <trkpt lat="48.21422" lon="6.43976">
        <ele>312.9004</ele>
        <time>2026-05-17T14:46:25+02:00</time>
      </trkpt>
      <trkpt lat="48.21428" lon="6.43974">
        <ele>312.9004</ele>
        <time>2026-05-17T14:46:26+02:00</time>
      </trkpt>
      <trkpt lat="48.21434" lon="6.43972">
        <ele>312.9004</ele>
        <time>2026-05-17T14:46:27+02:00</time>
      </trkpt>
      <trkpt lat="48.2144" lon="6.4397">
        <ele>312.6006</ele>
        <time>2026-05-17T14:46:28+02:00</time>
      </trkpt>
      <trkpt lat="48.21446" lon="6.43968">
        <ele>312.7002</ele>
        <time>2026-05-17T14:46:29+02:00</time>
      </trkpt>
      <trkpt lat="48.21452" lon="6.43966">
        <ele>312.7998</ele>
        <time>2026-05-17T14:46:30+02:00</time>
      </trkpt>
      <trkpt lat="48.21457" lon="6.43963">
        <ele>313</ele>
        <time>2026-05-17T14:46:31+02:00</time>
      </trkpt>
      <trkpt lat="48.21464" lon="6.43961">
        <ele>313</ele>
        <time>2026-05-17T14:46:32+02:00</time>
      </trkpt>
      <trkpt lat="48.2147" lon="6.43959">
        <ele>313.2002</ele>
        <time>2026-05-17T14:46:33+02:00</time>
      </trkpt>
      <trkpt lat="48.21476" lon="6.43956">
        <ele>313.2002</ele>
        <time>2026-05-17T14:46:34+02:00</time>
      </trkpt>
      <trkpt lat="48.21482" lon="6.43954">
        <ele>313.2998</ele>
        <time>2026-05-17T14:46:35+02:00</time>
      </trkpt>
      <trkpt lat="48.21488" lon="6.43952">
        <ele>313.1006</ele>
        <time>2026-05-17T14:46:36+02:00</time>
      </trkpt>
      <trkpt lat="48.21494" lon="6.43949">
        <ele>313.1006</ele>
        <time>2026-05-17T14:46:37+02:00</time>
      </trkpt>
      <trkpt lat="48.215" lon="6.43947">
        <ele>313.1006</ele>
        <time>2026-05-17T14:46:38+02:00</time>
      </trkpt>
      <trkpt lat="48.21506" lon="6.43945">
        <ele>313.2002</ele>
        <time>2026-05-17T14:46:39+02:00</time>
      </trkpt>
      <trkpt lat="48.21512" lon="6.43942">
        <ele>312.9004</ele>
        <time>2026-05-17T14:46:40+02:00</time>
      </trkpt>
      <trkpt lat="48.21518" lon="6.43939">
        <ele>313</ele>
        <time>2026-05-17T14:46:41+02:00</time>
      </trkpt>
      <trkpt lat="48.21523" lon="6.43937">
        <ele>313.1006</ele>
        <time>2026-05-17T14:46:42+02:00</time>
      </trkpt>
      <trkpt lat="48.2153" lon="6.43935">
        <ele>313.2002</ele>
        <time>2026-05-17T14:46:43+02:00</time>
      </trkpt>
      <trkpt lat="48.21535" lon="6.43933">
        <ele>313.2002</ele>
        <time>2026-05-17T14:46:44+02:00</time>
      </trkpt>
      <trkpt lat="48.21541" lon="6.4393">
        <ele>313.2998</ele>
        <time>2026-05-17T14:46:45+02:00</time>
      </trkpt>
      <trkpt lat="48.21547" lon="6.43928">
        <ele>313.4004</ele>
        <time>2026-05-17T14:46:46+02:00</time>
      </trkpt>
      <trkpt lat="48.21553" lon="6.43926">
        <ele>313.2002</ele>
        <time>2026-05-17T14:46:47+02:00</time>
      </trkpt>
      <trkpt lat="48.21559" lon="6.43924">
        <ele>313.2002</ele>
        <time>2026-05-17T14:46:48+02:00</time>
      </trkpt>
      <trkpt lat="48.21564" lon="6.43921">
        <ele>313.2002</ele>
        <time>2026-05-17T14:46:49+02:00</time>
      </trkpt>
      <trkpt lat="48.21569" lon="6.43919">
        <ele>313.2002</ele>
        <time>2026-05-17T14:46:50+02:00</time>
      </trkpt>
      <trkpt lat="48.21575" lon="6.43917">
        <ele>313</ele>
        <time>2026-05-17T14:46:51+02:00</time>
      </trkpt>
      <trkpt lat="48.21579" lon="6.43915">
        <ele>313</ele>
        <time>2026-05-17T14:46:52+02:00</time>
      </trkpt>
      <trkpt lat="48.21584" lon="6.43913">
        <ele>313</ele>
        <time>2026-05-17T14:46:53+02:00</time>
      </trkpt>
      <trkpt lat="48.21588" lon="6.4391">
        <ele>312.9004</ele>
        <time>2026-05-17T14:46:54+02:00</time>
      </trkpt>
      <trkpt lat="48.21592" lon="6.43907">
        <ele>312.9004</ele>
        <time>2026-05-17T14:46:55+02:00</time>
      </trkpt>
      <trkpt lat="48.21596" lon="6.43904">
        <ele>312.9004</ele>
        <time>2026-05-17T14:46:56+02:00</time>
      </trkpt>
      <trkpt lat="48.216" lon="6.43901">
        <ele>312.7002</ele>
        <time>2026-05-17T14:46:57+02:00</time>
      </trkpt>
      <trkpt lat="48.21605" lon="6.439">
        <ele>312.7998</ele>
        <time>2026-05-17T14:46:58+02:00</time>
      </trkpt>
      <trkpt lat="48.21609" lon="6.43898">
        <ele>312.7998</ele>
        <time>2026-05-17T14:46:59+02:00</time>
      </trkpt>
      <trkpt lat="48.21613" lon="6.43898">
        <ele>312.7998</ele>
        <time>2026-05-17T14:47:00+02:00</time>
      </trkpt>
      <trkpt lat="48.21617" lon="6.43898">
        <ele>313</ele>
        <time>2026-05-17T14:47:01+02:00</time>
      </trkpt>
      <trkpt lat="48.21621" lon="6.43898">
        <ele>313</ele>
        <time>2026-05-17T14:47:02+02:00</time>
      </trkpt>
      <trkpt lat="48.21625" lon="6.43897">
        <ele>313</ele>
        <time>2026-05-17T14:47:03+02:00</time>
      </trkpt>
      <trkpt lat="48.21628" lon="6.43897">
        <ele>313.1006</ele>
        <time>2026-05-17T14:47:04+02:00</time>
      </trkpt>
      <trkpt lat="48.21631" lon="6.43897">
        <ele>313.1006</ele>
        <time>2026-05-17T14:47:05+02:00</time>
      </trkpt>
      <trkpt lat="48.21632" lon="6.43897">
        <ele>313.1006</ele>
        <time>2026-05-17T14:47:06+02:00</time>
      </trkpt>
      <trkpt lat="48.21634" lon="6.43897">
        <ele>313.1006</ele>
        <time>2026-05-17T14:47:07+02:00</time>
      </trkpt>
      <trkpt lat="48.21637" lon="6.43897">
        <ele>313.1006</ele>
        <time>2026-05-17T14:47:08+02:00</time>
      </trkpt>
      <trkpt lat="48.21639" lon="6.43897">
        <ele>313.1006</ele>
        <time>2026-05-17T14:47:09+02:00</time>
      </trkpt>
      <trkpt lat="48.21641" lon="6.43896">
        <ele>313.1006</ele>
        <time>2026-05-17T14:47:10+02:00</time>
      </trkpt>
      <trkpt lat="48.21645" lon="6.43895">
        <ele>313.1006</ele>
        <time>2026-05-17T14:47:11+02:00</time>
      </trkpt>
      <trkpt lat="48.21649" lon="6.43894">
        <ele>313.1006</ele>
        <time>2026-05-17T14:47:12+02:00</time>
      </trkpt>
      <trkpt lat="48.21654" lon="6.43893">
        <ele>312.9004</ele>
        <time>2026-05-17T14:47:13+02:00</time>
      </trkpt>
      <trkpt lat="48.2166" lon="6.43891">
        <ele>312.7998</ele>
        <time>2026-05-17T14:47:14+02:00</time>
      </trkpt>
      <trkpt lat="48.21665" lon="6.43889">
        <ele>312.7002</ele>
        <time>2026-05-17T14:47:15+02:00</time>
      </trkpt>
      <trkpt lat="48.2167" lon="6.43888">
        <ele>312.5</ele>
        <time>2026-05-17T14:47:16+02:00</time>
      </trkpt>
      <trkpt lat="48.21676" lon="6.43886">
        <ele>312.2998</ele>
        <time>2026-05-17T14:47:17+02:00</time>
      </trkpt>
      <trkpt lat="48.21681" lon="6.43883">
        <ele>312.2002</ele>
        <time>2026-05-17T14:47:18+02:00</time>
      </trkpt>
      <trkpt lat="48.21687" lon="6.4388">
        <ele>312</ele>
        <time>2026-05-17T14:47:19+02:00</time>
      </trkpt>
      <trkpt lat="48.21692" lon="6.43876">
        <ele>312</ele>
        <time>2026-05-17T14:47:20+02:00</time>
      </trkpt>
      <trkpt lat="48.21697" lon="6.43872">
        <ele>311.7998</ele>
        <time>2026-05-17T14:47:21+02:00</time>
      </trkpt>
      <trkpt lat="48.21703" lon="6.43869">
        <ele>311.6006</ele>
        <time>2026-05-17T14:47:22+02:00</time>
      </trkpt>
      <trkpt lat="48.21709" lon="6.43867">
        <ele>311.5</ele>
        <time>2026-05-17T14:47:23+02:00</time>
      </trkpt>
      <trkpt lat="48.21715" lon="6.43864">
        <ele>311.2998</ele>
        <time>2026-05-17T14:47:24+02:00</time>
      </trkpt>
      <trkpt lat="48.21721" lon="6.43861">
        <ele>311.1006</ele>
        <time>2026-05-17T14:47:25+02:00</time>
      </trkpt>
      <trkpt lat="48.21727" lon="6.43858">
        <ele>311</ele>
        <time>2026-05-17T14:47:26+02:00</time>
      </trkpt>
      <trkpt lat="48.21733" lon="6.43856">
        <ele>310.7998</ele>
        <time>2026-05-17T14:47:27+02:00</time>
      </trkpt>
      <trkpt lat="48.21739" lon="6.43853">
        <ele>310.6006</ele>
        <time>2026-05-17T14:47:28+02:00</time>
      </trkpt>
      <trkpt lat="48.21745" lon="6.43851">
        <ele>310.5</ele>
        <time>2026-05-17T14:47:29+02:00</time>
      </trkpt>
      <trkpt lat="48.21752" lon="6.43848">
        <ele>310.4004</ele>
        <time>2026-05-17T14:47:30+02:00</time>
      </trkpt>
      <trkpt lat="48.21758" lon="6.43846">
        <ele>310.2998</ele>
        <time>2026-05-17T14:47:31+02:00</time>
      </trkpt>
      <trkpt lat="48.21765" lon="6.43843">
        <ele>310</ele>
        <time>2026-05-17T14:47:32+02:00</time>
      </trkpt>
      <trkpt lat="48.21771" lon="6.43841">
        <ele>309.9004</ele>
        <time>2026-05-17T14:47:33+02:00</time>
      </trkpt>
      <trkpt lat="48.21778" lon="6.43839">
        <ele>309.7002</ele>
        <time>2026-05-17T14:47:34+02:00</time>
      </trkpt>
      <trkpt lat="48.21784" lon="6.43836">
        <ele>309.6006</ele>
        <time>2026-05-17T14:47:35+02:00</time>
      </trkpt>
      <trkpt lat="48.2179" lon="6.43834">
        <ele>309.4004</ele>
        <time>2026-05-17T14:47:36+02:00</time>
      </trkpt>
      <trkpt lat="48.21796" lon="6.43831">
        <ele>309.4004</ele>
        <time>2026-05-17T14:47:37+02:00</time>
      </trkpt>
      <trkpt lat="48.21802" lon="6.43829">
        <ele>309.2998</ele>
        <time>2026-05-17T14:47:38+02:00</time>
      </trkpt>
      <trkpt lat="48.21805" lon="6.43828">
        <ele>309.2002</ele>
        <time>2026-05-17T14:47:39+02:00</time>
      </trkpt>
      <trkpt lat="48.21814" lon="6.43824">
        <ele>309.1006</ele>
        <time>2026-05-17T14:47:40+02:00</time>
      </trkpt>
      <trkpt lat="48.2182" lon="6.43822">
        <ele>309</ele>
        <time>2026-05-17T14:47:41+02:00</time>
      </trkpt>
      <trkpt lat="48.21826" lon="6.4382">
        <ele>308.9004</ele>
        <time>2026-05-17T14:47:42+02:00</time>
      </trkpt>
      <trkpt lat="48.21832" lon="6.43818">
        <ele>308.9004</ele>
        <time>2026-05-17T14:47:43+02:00</time>
      </trkpt>
      <trkpt lat="48.21838" lon="6.43816">
        <ele>308.7998</ele>
        <time>2026-05-17T14:47:44+02:00</time>
      </trkpt>
      <trkpt lat="48.21844" lon="6.43813">
        <ele>308.5</ele>
        <time>2026-05-17T14:47:45+02:00</time>
      </trkpt>
      <trkpt lat="48.2185" lon="6.43811">
        <ele>308.4004</ele>
        <time>2026-05-17T14:47:46+02:00</time>
      </trkpt>
      <trkpt lat="48.21856" lon="6.43809">
        <ele>308.2998</ele>
        <time>2026-05-17T14:47:47+02:00</time>
      </trkpt>
      <trkpt lat="48.21861" lon="6.43806">
        <ele>308.2998</ele>
        <time>2026-05-17T14:47:48+02:00</time>
      </trkpt>
      <trkpt lat="48.21868" lon="6.43803">
        <ele>308.2998</ele>
        <time>2026-05-17T14:47:49+02:00</time>
      </trkpt>
      <trkpt lat="48.21874" lon="6.43801">
        <ele>308.4004</ele>
        <time>2026-05-17T14:47:50+02:00</time>
      </trkpt>
      <trkpt lat="48.2188" lon="6.43799">
        <ele>308.6006</ele>
        <time>2026-05-17T14:47:51+02:00</time>
      </trkpt>
      <trkpt lat="48.21885" lon="6.43796">
        <ele>309</ele>
        <time>2026-05-17T14:47:52+02:00</time>
      </trkpt>
      <trkpt lat="48.21892" lon="6.43794">
        <ele>309.1006</ele>
        <time>2026-05-17T14:47:53+02:00</time>
      </trkpt>
      <trkpt lat="48.21898" lon="6.43791">
        <ele>309.1006</ele>
        <time>2026-05-17T14:47:54+02:00</time>
      </trkpt>
      <trkpt lat="48.21904" lon="6.43789">
        <ele>309</ele>
        <time>2026-05-17T14:47:55+02:00</time>
      </trkpt>
      <trkpt lat="48.21909" lon="6.43787">
        <ele>309</ele>
        <time>2026-05-17T14:47:56+02:00</time>
      </trkpt>
      <trkpt lat="48.21916" lon="6.43785">
        <ele>309</ele>
        <time>2026-05-17T14:47:57+02:00</time>
      </trkpt>
      <trkpt lat="48.21921" lon="6.43783">
        <ele>309</ele>
        <time>2026-05-17T14:47:58+02:00</time>
      </trkpt>
      <trkpt lat="48.21927" lon="6.4378">
        <ele>308.7002</ele>
        <time>2026-05-17T14:47:59+02:00</time>
      </trkpt>
      <trkpt lat="48.21933" lon="6.43778">
        <ele>308.7002</ele>
        <time>2026-05-17T14:48:00+02:00</time>
      </trkpt>
      <trkpt lat="48.21938" lon="6.43775">
        <ele>308.7002</ele>
        <time>2026-05-17T14:48:01+02:00</time>
      </trkpt>
      <trkpt lat="48.21945" lon="6.43773">
        <ele>308.4004</ele>
        <time>2026-05-17T14:48:02+02:00</time>
      </trkpt>
      <trkpt lat="48.2195" lon="6.43771">
        <ele>308.4004</ele>
        <time>2026-05-17T14:48:03+02:00</time>
      </trkpt>
      <trkpt lat="48.21956" lon="6.43769">
        <ele>308.4004</ele>
        <time>2026-05-17T14:48:04+02:00</time>
      </trkpt>
      <trkpt lat="48.21962" lon="6.43767">
        <ele>308.5</ele>
        <time>2026-05-17T14:48:05+02:00</time>
      </trkpt>
      <trkpt lat="48.21967" lon="6.43765">
        <ele>308.7998</ele>
        <time>2026-05-17T14:48:06+02:00</time>
      </trkpt>
      <trkpt lat="48.21972" lon="6.43762">
        <ele>308.7998</ele>
        <time>2026-05-17T14:48:07+02:00</time>
      </trkpt>
      <trkpt lat="48.21977" lon="6.4376">
        <ele>309.2002</ele>
        <time>2026-05-17T14:48:08+02:00</time>
      </trkpt>
      <trkpt lat="48.2198" lon="6.43759">
        <ele>309.2002</ele>
        <time>2026-05-17T14:48:09+02:00</time>
      </trkpt>
      <trkpt lat="48.21988" lon="6.43756">
        <ele>309.4004</ele>
        <time>2026-05-17T14:48:10+02:00</time>
      </trkpt>
      <trkpt lat="48.21994" lon="6.43754">
        <ele>309.1006</ele>
        <time>2026-05-17T14:48:11+02:00</time>
      </trkpt>
      <trkpt lat="48.22" lon="6.43751">
        <ele>309.1006</ele>
        <time>2026-05-17T14:48:12+02:00</time>
      </trkpt>
      <trkpt lat="48.22006" lon="6.43749">
        <ele>309.1006</ele>
        <time>2026-05-17T14:48:13+02:00</time>
      </trkpt>
      <trkpt lat="48.22012" lon="6.43747">
        <ele>308.7002</ele>
        <time>2026-05-17T14:48:14+02:00</time>
      </trkpt>
      <trkpt lat="48.22018" lon="6.43745">
        <ele>308.7002</ele>
        <time>2026-05-17T14:48:15+02:00</time>
      </trkpt>
      <trkpt lat="48.22024" lon="6.43742">
        <ele>308.7002</ele>
        <time>2026-05-17T14:48:16+02:00</time>
      </trkpt>
      <trkpt lat="48.2203" lon="6.4374">
        <ele>308.7002</ele>
        <time>2026-05-17T14:48:17+02:00</time>
      </trkpt>
      <trkpt lat="48.22036" lon="6.43737">
        <ele>308.2998</ele>
        <time>2026-05-17T14:48:18+02:00</time>
      </trkpt>
      <trkpt lat="48.22042" lon="6.43735">
        <ele>308.2998</ele>
        <time>2026-05-17T14:48:19+02:00</time>
      </trkpt>
      <trkpt lat="48.22048" lon="6.43733">
        <ele>308.2002</ele>
        <time>2026-05-17T14:48:20+02:00</time>
      </trkpt>
      <trkpt lat="48.22054" lon="6.4373">
        <ele>307.9004</ele>
        <time>2026-05-17T14:48:21+02:00</time>
      </trkpt>
      <trkpt lat="48.22061" lon="6.43727">
        <ele>308</ele>
        <time>2026-05-17T14:48:22+02:00</time>
      </trkpt>
      <trkpt lat="48.22066" lon="6.43725">
        <ele>307.9004</ele>
        <time>2026-05-17T14:48:23+02:00</time>
      </trkpt>
      <trkpt lat="48.22073" lon="6.43722">
        <ele>307.2998</ele>
        <time>2026-05-17T14:48:24+02:00</time>
      </trkpt>
      <trkpt lat="48.22078" lon="6.4372">
        <ele>307.4004</ele>
        <time>2026-05-17T14:48:25+02:00</time>
      </trkpt>
      <trkpt lat="48.22084" lon="6.43717">
        <ele>306.7002</ele>
        <time>2026-05-17T14:48:26+02:00</time>
      </trkpt>
      <trkpt lat="48.2209" lon="6.43714">
        <ele>305.4004</ele>
        <time>2026-05-17T14:48:27+02:00</time>
      </trkpt>
      <trkpt lat="48.22096" lon="6.43712">
        <ele>305.6006</ele>
        <time>2026-05-17T14:48:28+02:00</time>
      </trkpt>
      <trkpt lat="48.22101" lon="6.4371">
        <ele>305.6006</ele>
        <time>2026-05-17T14:48:29+02:00</time>
      </trkpt>
      <trkpt lat="48.22107" lon="6.43708">
        <ele>305.5</ele>
        <time>2026-05-17T14:48:30+02:00</time>
      </trkpt>
      <trkpt lat="48.22113" lon="6.43705">
        <ele>305.5</ele>
        <time>2026-05-17T14:48:31+02:00</time>
      </trkpt>
      <trkpt lat="48.22119" lon="6.43703">
        <ele>305.7998</ele>
        <time>2026-05-17T14:48:32+02:00</time>
      </trkpt>
      <trkpt lat="48.22125" lon="6.437">
        <ele>305.7002</ele>
        <time>2026-05-17T14:48:33+02:00</time>
      </trkpt>
      <trkpt lat="48.22131" lon="6.43698">
        <ele>305.7002</ele>
        <time>2026-05-17T14:48:34+02:00</time>
      </trkpt>
      <trkpt lat="48.22133" lon="6.43697">
        <ele>305.7002</ele>
        <time>2026-05-17T14:48:35+02:00</time>
      </trkpt>
      <trkpt lat="48.22142" lon="6.43693">
        <ele>305.9004</ele>
        <time>2026-05-17T14:48:36+02:00</time>
      </trkpt>
      <trkpt lat="48.22148" lon="6.4369">
        <ele>305.9004</ele>
        <time>2026-05-17T14:48:37+02:00</time>
      </trkpt>
      <trkpt lat="48.22154" lon="6.43688">
        <ele>305.7998</ele>
        <time>2026-05-17T14:48:38+02:00</time>
      </trkpt>
      <trkpt lat="48.2216" lon="6.43685">
        <ele>306</ele>
        <time>2026-05-17T14:48:39+02:00</time>
      </trkpt>
      <trkpt lat="48.22166" lon="6.43683">
        <ele>305.9004</ele>
        <time>2026-05-17T14:48:40+02:00</time>
      </trkpt>
      <trkpt lat="48.22172" lon="6.43681">
        <ele>305.9004</ele>
        <time>2026-05-17T14:48:41+02:00</time>
      </trkpt>
      <trkpt lat="48.22178" lon="6.43678">
        <ele>306</ele>
        <time>2026-05-17T14:48:42+02:00</time>
      </trkpt>
      <trkpt lat="48.22184" lon="6.43676">
        <ele>306</ele>
        <time>2026-05-17T14:48:43+02:00</time>
      </trkpt>
      <trkpt lat="48.2219" lon="6.43673">
        <ele>305.9004</ele>
        <time>2026-05-17T14:48:44+02:00</time>
      </trkpt>
      <trkpt lat="48.22196" lon="6.4367">
        <ele>305.9004</ele>
        <time>2026-05-17T14:48:45+02:00</time>
      </trkpt>
      <trkpt lat="48.22202" lon="6.43668">
        <ele>305.7998</ele>
        <time>2026-05-17T14:48:46+02:00</time>
      </trkpt>
      <trkpt lat="48.22207" lon="6.43666">
        <ele>305.7998</ele>
        <time>2026-05-17T14:48:47+02:00</time>
      </trkpt>
      <trkpt lat="48.22213" lon="6.43663">
        <ele>305.7002</ele>
        <time>2026-05-17T14:48:48+02:00</time>
      </trkpt>
      <trkpt lat="48.22219" lon="6.43661">
        <ele>305.5</ele>
        <time>2026-05-17T14:48:49+02:00</time>
      </trkpt>
      <trkpt lat="48.22224" lon="6.43659">
        <ele>305.5</ele>
        <time>2026-05-17T14:48:50+02:00</time>
      </trkpt>
      <trkpt lat="48.2223" lon="6.43656">
        <ele>305.5</ele>
        <time>2026-05-17T14:48:51+02:00</time>
      </trkpt>
      <trkpt lat="48.22232" lon="6.43655">
        <ele>305.5</ele>
        <time>2026-05-17T14:48:52+02:00</time>
      </trkpt>
      <trkpt lat="48.2224" lon="6.43651">
        <ele>305.4004</ele>
        <time>2026-05-17T14:48:53+02:00</time>
      </trkpt>
      <trkpt lat="48.22245" lon="6.43648">
        <ele>305.4004</ele>
        <time>2026-05-17T14:48:54+02:00</time>
      </trkpt>
      <trkpt lat="48.2225" lon="6.43646">
        <ele>305.4004</ele>
        <time>2026-05-17T14:48:55+02:00</time>
      </trkpt>
      <trkpt lat="48.22254" lon="6.43644">
        <ele>305.4004</ele>
        <time>2026-05-17T14:48:56+02:00</time>
      </trkpt>
      <trkpt lat="48.22259" lon="6.43642">
        <ele>305.4004</ele>
        <time>2026-05-17T14:48:57+02:00</time>
      </trkpt>
      <trkpt lat="48.22262" lon="6.43642">
        <ele>305.4004</ele>
        <time>2026-05-17T14:48:58+02:00</time>
      </trkpt>
      <trkpt lat="48.22265" lon="6.43641">
        <ele>305.4004</ele>
        <time>2026-05-17T14:48:59+02:00</time>
      </trkpt>
      <trkpt lat="48.22268" lon="6.43642">
        <ele>305.4004</ele>
        <time>2026-05-17T14:49:00+02:00</time>
      </trkpt>
      <trkpt lat="48.22271" lon="6.43642">
        <ele>305.4004</ele>
        <time>2026-05-17T14:49:01+02:00</time>
      </trkpt>
      <trkpt lat="48.22274" lon="6.43644">
        <ele>305.4004</ele>
        <time>2026-05-17T14:49:02+02:00</time>
      </trkpt>
      <trkpt lat="48.22278" lon="6.43645">
        <ele>305.5</ele>
        <time>2026-05-17T14:49:03+02:00</time>
      </trkpt>
      <trkpt lat="48.22282" lon="6.43646">
        <ele>305.5</ele>
        <time>2026-05-17T14:49:04+02:00</time>
      </trkpt>
      <trkpt lat="48.22287" lon="6.43647">
        <ele>305.5</ele>
        <time>2026-05-17T14:49:05+02:00</time>
      </trkpt>
      <trkpt lat="48.22292" lon="6.43647">
        <ele>305.5</ele>
        <time>2026-05-17T14:49:06+02:00</time>
      </trkpt>
      <trkpt lat="48.22297" lon="6.43645">
        <ele>305.5</ele>
        <time>2026-05-17T14:49:07+02:00</time>
      </trkpt>
      <trkpt lat="48.22303" lon="6.43644">
        <ele>305.2998</ele>
        <time>2026-05-17T14:49:08+02:00</time>
      </trkpt>
      <trkpt lat="48.22309" lon="6.43641">
        <ele>305.2998</ele>
        <time>2026-05-17T14:49:09+02:00</time>
      </trkpt>
      <trkpt lat="48.22315" lon="6.43638">
        <ele>305.5</ele>
        <time>2026-05-17T14:49:10+02:00</time>
      </trkpt>
      <trkpt lat="48.22321" lon="6.43636">
        <ele>305.7998</ele>
        <time>2026-05-17T14:49:11+02:00</time>
      </trkpt>
      <trkpt lat="48.22327" lon="6.43633">
        <ele>306.2998</ele>
        <time>2026-05-17T14:49:12+02:00</time>
      </trkpt>
      <trkpt lat="48.22333" lon="6.4363">
        <ele>306.9004</ele>
        <time>2026-05-17T14:49:13+02:00</time>
      </trkpt>
      <trkpt lat="48.22338" lon="6.43627">
        <ele>307.1006</ele>
        <time>2026-05-17T14:49:14+02:00</time>
      </trkpt>
      <trkpt lat="48.22343" lon="6.43626">
        <ele>307.2002</ele>
        <time>2026-05-17T14:49:15+02:00</time>
      </trkpt>
      <trkpt lat="48.22348" lon="6.43626">
        <ele>307.2002</ele>
        <time>2026-05-17T14:49:16+02:00</time>
      </trkpt>
      <trkpt lat="48.22353" lon="6.4363">
        <ele>307.4004</ele>
        <time>2026-05-17T14:49:17+02:00</time>
      </trkpt>
      <trkpt lat="48.22357" lon="6.43635">
        <ele>307.4004</ele>
        <time>2026-05-17T14:49:18+02:00</time>
      </trkpt>
      <trkpt lat="48.2236" lon="6.43641">
        <ele>307.6006</ele>
        <time>2026-05-17T14:49:19+02:00</time>
      </trkpt>
      <trkpt lat="48.22365" lon="6.43647">
        <ele>307.7002</ele>
        <time>2026-05-17T14:49:20+02:00</time>
      </trkpt>
      <trkpt lat="48.2237" lon="6.43652">
        <ele>308</ele>
        <time>2026-05-17T14:49:21+02:00</time>
      </trkpt>
      <trkpt lat="48.22374" lon="6.43657">
        <ele>307.7998</ele>
        <time>2026-05-17T14:49:22+02:00</time>
      </trkpt>
      <trkpt lat="48.2238" lon="6.43662">
        <ele>307.6006</ele>
        <time>2026-05-17T14:49:23+02:00</time>
      </trkpt>
      <trkpt lat="48.22385" lon="6.43667">
        <ele>307.9004</ele>
        <time>2026-05-17T14:49:24+02:00</time>
      </trkpt>
      <trkpt lat="48.2239" lon="6.43672">
        <ele>307.2998</ele>
        <time>2026-05-17T14:49:25+02:00</time>
      </trkpt>
      <trkpt lat="48.22396" lon="6.43676">
        <ele>307.9004</ele>
        <time>2026-05-17T14:49:26+02:00</time>
      </trkpt>
      <trkpt lat="48.22402" lon="6.43679">
        <ele>308.2998</ele>
        <time>2026-05-17T14:49:27+02:00</time>
      </trkpt>
      <trkpt lat="48.22407" lon="6.4368">
        <ele>309.1006</ele>
        <time>2026-05-17T14:49:28+02:00</time>
      </trkpt>
      <trkpt lat="48.22413" lon="6.43679">
        <ele>309.5</ele>
        <time>2026-05-17T14:49:29+02:00</time>
      </trkpt>
      <trkpt lat="48.22418" lon="6.43677">
        <ele>310.1006</ele>
        <time>2026-05-17T14:49:30+02:00</time>
      </trkpt>
      <trkpt lat="48.22423" lon="6.43674">
        <ele>310.5</ele>
        <time>2026-05-17T14:49:31+02:00</time>
      </trkpt>
      <trkpt lat="48.22428" lon="6.4367">
        <ele>311.2002</ele>
        <time>2026-05-17T14:49:32+02:00</time>
      </trkpt>
      <trkpt lat="48.22432" lon="6.43665">
        <ele>311.2002</ele>
        <time>2026-05-17T14:49:33+02:00</time>
      </trkpt>
      <trkpt lat="48.22436" lon="6.43658">
        <ele>311.2002</ele>
        <time>2026-05-17T14:49:34+02:00</time>
      </trkpt>
      <trkpt lat="48.2244" lon="6.43652">
        <ele>310.9004</ele>
        <time>2026-05-17T14:49:35+02:00</time>
      </trkpt>
      <trkpt lat="48.22444" lon="6.43645">
        <ele>310.9004</ele>
        <time>2026-05-17T14:49:36+02:00</time>
      </trkpt>
      <trkpt lat="48.22447" lon="6.4364">
        <ele>310</ele>
        <time>2026-05-17T14:49:37+02:00</time>
      </trkpt>
      <trkpt lat="48.22451" lon="6.43635">
        <ele>309.2002</ele>
        <time>2026-05-17T14:49:38+02:00</time>
      </trkpt>
      <trkpt lat="48.22455" lon="6.43632">
        <ele>309.2002</ele>
        <time>2026-05-17T14:49:39+02:00</time>
      </trkpt>
      <trkpt lat="48.2246" lon="6.4363">
        <ele>309.2002</ele>
        <time>2026-05-17T14:49:40+02:00</time>
      </trkpt>
      <trkpt lat="48.22465" lon="6.43629">
        <ele>309.2998</ele>
        <time>2026-05-17T14:49:41+02:00</time>
      </trkpt>
      <trkpt lat="48.2247" lon="6.43627">
        <ele>308.5</ele>
        <time>2026-05-17T14:49:42+02:00</time>
      </trkpt>
      <trkpt lat="48.22475" lon="6.43626">
        <ele>308.5</ele>
        <time>2026-05-17T14:49:43+02:00</time>
      </trkpt>
      <trkpt lat="48.2248" lon="6.43624">
        <ele>308.6006</ele>
        <time>2026-05-17T14:49:44+02:00</time>
      </trkpt>
      <trkpt lat="48.22483" lon="6.43619">
        <ele>308.6006</ele>
        <time>2026-05-17T14:49:45+02:00</time>
      </trkpt>
      <trkpt lat="48.22485" lon="6.43612">
        <ele>307.9004</ele>
        <time>2026-05-17T14:49:46+02:00</time>
      </trkpt>
      <trkpt lat="48.22487" lon="6.43604">
        <ele>306.9004</ele>
        <time>2026-05-17T14:49:47+02:00</time>
      </trkpt>
      <trkpt lat="48.2249" lon="6.43597">
        <ele>306.1006</ele>
        <time>2026-05-17T14:49:48+02:00</time>
      </trkpt>
      <trkpt lat="48.22495" lon="6.43592">
        <ele>305.6006</ele>
        <time>2026-05-17T14:49:49+02:00</time>
      </trkpt>
      <trkpt lat="48.225" lon="6.43589">
        <ele>305.6006</ele>
        <time>2026-05-17T14:49:50+02:00</time>
      </trkpt>
      <trkpt lat="48.22506" lon="6.43587">
        <ele>305.6006</ele>
        <time>2026-05-17T14:49:51+02:00</time>
      </trkpt>
      <trkpt lat="48.22512" lon="6.43586">
        <ele>305.6006</ele>
        <time>2026-05-17T14:49:52+02:00</time>
      </trkpt>
      <trkpt lat="48.22518" lon="6.43584">
        <ele>305.5</ele>
        <time>2026-05-17T14:49:53+02:00</time>
      </trkpt>
      <trkpt lat="48.22524" lon="6.43583">
        <ele>305.5</ele>
        <time>2026-05-17T14:49:54+02:00</time>
      </trkpt>
      <trkpt lat="48.2253" lon="6.43582">
        <ele>305.5</ele>
        <time>2026-05-17T14:49:55+02:00</time>
      </trkpt>
      <trkpt lat="48.22535" lon="6.43582">
        <ele>305.6006</ele>
        <time>2026-05-17T14:49:56+02:00</time>
      </trkpt>
      <trkpt lat="48.22542" lon="6.43581">
        <ele>305.5</ele>
        <time>2026-05-17T14:49:57+02:00</time>
      </trkpt>
      <trkpt lat="48.22547" lon="6.43582">
        <ele>305.5</ele>
        <time>2026-05-17T14:49:58+02:00</time>
      </trkpt>
      <trkpt lat="48.22553" lon="6.43582">
        <ele>305.5</ele>
        <time>2026-05-17T14:49:59+02:00</time>
      </trkpt>
      <trkpt lat="48.22559" lon="6.43581">
        <ele>305.4004</ele>
        <time>2026-05-17T14:50:00+02:00</time>
      </trkpt>
      <trkpt lat="48.22565" lon="6.43583">
        <ele>305.4004</ele>
        <time>2026-05-17T14:50:01+02:00</time>
      </trkpt>
      <trkpt lat="48.22571" lon="6.43584">
        <ele>305.4004</ele>
        <time>2026-05-17T14:50:02+02:00</time>
      </trkpt>
      <trkpt lat="48.22577" lon="6.43586">
        <ele>306</ele>
        <time>2026-05-17T14:50:03+02:00</time>
      </trkpt>
      <trkpt lat="48.22584" lon="6.43586">
        <ele>306.1006</ele>
        <time>2026-05-17T14:50:04+02:00</time>
      </trkpt>
      <trkpt lat="48.2259" lon="6.43587">
        <ele>306.1006</ele>
        <time>2026-05-17T14:50:05+02:00</time>
      </trkpt>
      <trkpt lat="48.22596" lon="6.43589">
        <ele>306.2002</ele>
        <time>2026-05-17T14:50:06+02:00</time>
      </trkpt>
      <trkpt lat="48.22603" lon="6.4359">
        <ele>306.2002</ele>
        <time>2026-05-17T14:50:07+02:00</time>
      </trkpt>
      <trkpt lat="48.22608" lon="6.43591">
        <ele>306.2998</ele>
        <time>2026-05-17T14:50:08+02:00</time>
      </trkpt>
      <trkpt lat="48.22613" lon="6.43592">
        <ele>306.2998</ele>
        <time>2026-05-17T14:50:09+02:00</time>
      </trkpt>
      <trkpt lat="48.22619" lon="6.43594">
        <ele>307.5</ele>
        <time>2026-05-17T14:50:10+02:00</time>
      </trkpt>
      <trkpt lat="48.22625" lon="6.43595">
        <ele>307.6006</ele>
        <time>2026-05-17T14:50:11+02:00</time>
      </trkpt>
      <trkpt lat="48.22631" lon="6.43597">
        <ele>307.6006</ele>
        <time>2026-05-17T14:50:12+02:00</time>
      </trkpt>
      <trkpt lat="48.22637" lon="6.43598">
        <ele>307.7002</ele>
        <time>2026-05-17T14:50:13+02:00</time>
      </trkpt>
      <trkpt lat="48.22642" lon="6.43599">
        <ele>307.7002</ele>
        <time>2026-05-17T14:50:14+02:00</time>
      </trkpt>
      <trkpt lat="48.22648" lon="6.43601">
        <ele>307.7002</ele>
        <time>2026-05-17T14:50:15+02:00</time>
      </trkpt>
      <trkpt lat="48.22654" lon="6.43602">
        <ele>308.7998</ele>
        <time>2026-05-17T14:50:16+02:00</time>
      </trkpt>
      <trkpt lat="48.22659" lon="6.43604">
        <ele>308.7998</ele>
        <time>2026-05-17T14:50:17+02:00</time>
      </trkpt>
      <trkpt lat="48.22665" lon="6.43606">
        <ele>308.7998</ele>
        <time>2026-05-17T14:50:18+02:00</time>
      </trkpt>
      <trkpt lat="48.22671" lon="6.43608">
        <ele>308.7998</ele>
        <time>2026-05-17T14:50:19+02:00</time>
      </trkpt>
      <trkpt lat="48.22677" lon="6.43609">
        <ele>308.7002</ele>
        <time>2026-05-17T14:50:20+02:00</time>
      </trkpt>
      <trkpt lat="48.22682" lon="6.4361">
        <ele>308.7002</ele>
        <time>2026-05-17T14:50:21+02:00</time>
      </trkpt>
      <trkpt lat="48.22687" lon="6.43611">
        <ele>309.5</ele>
        <time>2026-05-17T14:50:22+02:00</time>
      </trkpt>
      <trkpt lat="48.22692" lon="6.43613">
        <ele>309.4004</ele>
        <time>2026-05-17T14:50:23+02:00</time>
      </trkpt>
      <trkpt lat="48.22697" lon="6.43614">
        <ele>309.2998</ele>
        <time>2026-05-17T14:50:24+02:00</time>
      </trkpt>
      <trkpt lat="48.22703" lon="6.43616">
        <ele>309.1006</ele>
        <time>2026-05-17T14:50:25+02:00</time>
      </trkpt>
      <trkpt lat="48.22708" lon="6.43617">
        <ele>308.7998</ele>
        <time>2026-05-17T14:50:26+02:00</time>
      </trkpt>
      <trkpt lat="48.22714" lon="6.43618">
        <ele>308.4004</ele>
        <time>2026-05-17T14:50:27+02:00</time>
      </trkpt>
      <trkpt lat="48.22719" lon="6.4362">
        <ele>308.9004</ele>
        <time>2026-05-17T14:50:28+02:00</time>
      </trkpt>
      <trkpt lat="48.22725" lon="6.43621">
        <ele>308.1006</ele>
        <time>2026-05-17T14:50:29+02:00</time>
      </trkpt>
      <trkpt lat="48.2273" lon="6.43623">
        <ele>308.1006</ele>
        <time>2026-05-17T14:50:30+02:00</time>
      </trkpt>
      <trkpt lat="48.22736" lon="6.43625">
        <ele>307.7002</ele>
        <time>2026-05-17T14:50:31+02:00</time>
      </trkpt>
      <trkpt lat="48.22741" lon="6.43626">
        <ele>307.2998</ele>
        <time>2026-05-17T14:50:32+02:00</time>
      </trkpt>
      <trkpt lat="48.22747" lon="6.43628">
        <ele>307.7998</ele>
        <time>2026-05-17T14:50:33+02:00</time>
      </trkpt>
      <trkpt lat="48.22753" lon="6.43629">
        <ele>307.5</ele>
        <time>2026-05-17T14:50:34+02:00</time>
      </trkpt>
      <trkpt lat="48.22759" lon="6.43631">
        <ele>307.2998</ele>
        <time>2026-05-17T14:50:35+02:00</time>
      </trkpt>
      <trkpt lat="48.22764" lon="6.43633">
        <ele>307.2002</ele>
        <time>2026-05-17T14:50:36+02:00</time>
      </trkpt>
      <trkpt lat="48.2277" lon="6.43635">
        <ele>307.1006</ele>
        <time>2026-05-17T14:50:37+02:00</time>
      </trkpt>
      <trkpt lat="48.22776" lon="6.43636">
        <ele>307.5</ele>
        <time>2026-05-17T14:50:38+02:00</time>
      </trkpt>
      <trkpt lat="48.22782" lon="6.43638">
        <ele>307.5</ele>
        <time>2026-05-17T14:50:39+02:00</time>
      </trkpt>
      <trkpt lat="48.22787" lon="6.4364">
        <ele>307.5</ele>
        <time>2026-05-17T14:50:40+02:00</time>
      </trkpt>
      <trkpt lat="48.22793" lon="6.43641">
        <ele>307.5</ele>
        <time>2026-05-17T14:50:41+02:00</time>
      </trkpt>
      <trkpt lat="48.22799" lon="6.43643">
        <ele>307.5</ele>
        <time>2026-05-17T14:50:42+02:00</time>
      </trkpt>
      <trkpt lat="48.22805" lon="6.43645">
        <ele>308</ele>
        <time>2026-05-17T14:50:43+02:00</time>
      </trkpt>
      <trkpt lat="48.22811" lon="6.43646">
        <ele>308</ele>
        <time>2026-05-17T14:50:44+02:00</time>
      </trkpt>
      <trkpt lat="48.22817" lon="6.43648">
        <ele>308</ele>
        <time>2026-05-17T14:50:45+02:00</time>
      </trkpt>
      <trkpt lat="48.22822" lon="6.4365">
        <ele>307.9004</ele>
        <time>2026-05-17T14:50:46+02:00</time>
      </trkpt>
      <trkpt lat="48.22826" lon="6.43651">
        <ele>307.9004</ele>
        <time>2026-05-17T14:50:47+02:00</time>
      </trkpt>
      <trkpt lat="48.2283" lon="6.43652">
        <ele>307.7998</ele>
        <time>2026-05-17T14:50:48+02:00</time>
      </trkpt>
      <trkpt lat="48.22835" lon="6.43654">
        <ele>307.9004</ele>
        <time>2026-05-17T14:50:49+02:00</time>
      </trkpt>
      <trkpt lat="48.22839" lon="6.43655">
        <ele>307.7998</ele>
        <time>2026-05-17T14:50:50+02:00</time>
      </trkpt>
      <trkpt lat="48.22844" lon="6.43656">
        <ele>307.7998</ele>
        <time>2026-05-17T14:50:51+02:00</time>
      </trkpt>
      <trkpt lat="48.22848" lon="6.43657">
        <ele>307.6006</ele>
        <time>2026-05-17T14:50:52+02:00</time>
      </trkpt>
      <trkpt lat="48.22853" lon="6.43658">
        <ele>307.5</ele>
        <time>2026-05-17T14:50:53+02:00</time>
      </trkpt>
      <trkpt lat="48.22858" lon="6.4366">
        <ele>307.2998</ele>
        <time>2026-05-17T14:50:54+02:00</time>
      </trkpt>
      <trkpt lat="48.22864" lon="6.43661">
        <ele>307.2002</ele>
        <time>2026-05-17T14:50:55+02:00</time>
      </trkpt>
      <trkpt lat="48.22869" lon="6.43663">
        <ele>307.5</ele>
        <time>2026-05-17T14:50:56+02:00</time>
      </trkpt>
      <trkpt lat="48.22875" lon="6.43664">
        <ele>307.2998</ele>
        <time>2026-05-17T14:50:57+02:00</time>
      </trkpt>
      <trkpt lat="48.2288" lon="6.43666">
        <ele>307.1006</ele>
        <time>2026-05-17T14:50:58+02:00</time>
      </trkpt>
      <trkpt lat="48.22886" lon="6.43668">
        <ele>307</ele>
        <time>2026-05-17T14:50:59+02:00</time>
      </trkpt>
      <trkpt lat="48.22891" lon="6.4367">
        <ele>306.7998</ele>
        <time>2026-05-17T14:51:00+02:00</time>
      </trkpt>
      <trkpt lat="48.22897" lon="6.43672">
        <ele>306.9004</ele>
        <time>2026-05-17T14:51:01+02:00</time>
      </trkpt>
      <trkpt lat="48.22903" lon="6.43674">
        <ele>306.7002</ele>
        <time>2026-05-17T14:51:02+02:00</time>
      </trkpt>
      <trkpt lat="48.22909" lon="6.43676">
        <ele>306.5</ele>
        <time>2026-05-17T14:51:03+02:00</time>
      </trkpt>
      <trkpt lat="48.22912" lon="6.43677">
        <ele>306.5</ele>
        <time>2026-05-17T14:51:04+02:00</time>
      </trkpt>
      <trkpt lat="48.22921" lon="6.4368">
        <ele>306.4004</ele>
        <time>2026-05-17T14:51:05+02:00</time>
      </trkpt>
      <trkpt lat="48.22927" lon="6.43682">
        <ele>306.2998</ele>
        <time>2026-05-17T14:51:06+02:00</time>
      </trkpt>
      <trkpt lat="48.22933" lon="6.43683">
        <ele>306.2002</ele>
        <time>2026-05-17T14:51:07+02:00</time>
      </trkpt>
      <trkpt lat="48.22936" lon="6.43684">
        <ele>306.2002</ele>
        <time>2026-05-17T14:51:08+02:00</time>
      </trkpt>
      <trkpt lat="48.22945" lon="6.43687">
        <ele>306.1006</ele>
        <time>2026-05-17T14:51:09+02:00</time>
      </trkpt>
      <trkpt lat="48.22951" lon="6.43689">
        <ele>306.2998</ele>
        <time>2026-05-17T14:51:10+02:00</time>
      </trkpt>
      <trkpt lat="48.22957" lon="6.43691">
        <ele>306.2998</ele>
        <time>2026-05-17T14:51:11+02:00</time>
      </trkpt>
      <trkpt lat="48.22963" lon="6.43694">
        <ele>306.4004</ele>
        <time>2026-05-17T14:51:12+02:00</time>
      </trkpt>
      <trkpt lat="48.2297" lon="6.43696">
        <ele>306.5</ele>
        <time>2026-05-17T14:51:13+02:00</time>
      </trkpt>
      <trkpt lat="48.22975" lon="6.43698">
        <ele>306.4004</ele>
        <time>2026-05-17T14:51:14+02:00</time>
      </trkpt>
      <trkpt lat="48.22981" lon="6.43699">
        <ele>306.2998</ele>
        <time>2026-05-17T14:51:15+02:00</time>
      </trkpt>
      <trkpt lat="48.22987" lon="6.43701">
        <ele>306</ele>
        <time>2026-05-17T14:51:16+02:00</time>
      </trkpt>
      <trkpt lat="48.22993" lon="6.43703">
        <ele>305.9004</ele>
        <time>2026-05-17T14:51:17+02:00</time>
      </trkpt>
      <trkpt lat="48.22999" lon="6.43704">
        <ele>305.7998</ele>
        <time>2026-05-17T14:51:18+02:00</time>
      </trkpt>
      <trkpt lat="48.23005" lon="6.43706">
        <ele>305.9004</ele>
        <time>2026-05-17T14:51:19+02:00</time>
      </trkpt>
      <trkpt lat="48.23011" lon="6.43708">
        <ele>305.7998</ele>
        <time>2026-05-17T14:51:20+02:00</time>
      </trkpt>
      <trkpt lat="48.23017" lon="6.43711">
        <ele>305.7002</ele>
        <time>2026-05-17T14:51:21+02:00</time>
      </trkpt>
      <trkpt lat="48.23023" lon="6.43713">
        <ele>305.6006</ele>
        <time>2026-05-17T14:51:22+02:00</time>
      </trkpt>
      <trkpt lat="48.23029" lon="6.43716">
        <ele>305.4004</ele>
        <time>2026-05-17T14:51:23+02:00</time>
      </trkpt>
      <trkpt lat="48.23034" lon="6.43718">
        <ele>305.2998</ele>
        <time>2026-05-17T14:51:24+02:00</time>
      </trkpt>
      <trkpt lat="48.2304" lon="6.43721">
        <ele>305.2002</ele>
        <time>2026-05-17T14:51:25+02:00</time>
      </trkpt>
      <trkpt lat="48.23045" lon="6.43724">
        <ele>304.7002</ele>
        <time>2026-05-17T14:51:26+02:00</time>
      </trkpt>
      <trkpt lat="48.2305" lon="6.43726">
        <ele>304.7002</ele>
        <time>2026-05-17T14:51:27+02:00</time>
      </trkpt>
      <trkpt lat="48.23055" lon="6.43729">
        <ele>304.6006</ele>
        <time>2026-05-17T14:51:28+02:00</time>
      </trkpt>
      <trkpt lat="48.23061" lon="6.43732">
        <ele>304</ele>
        <time>2026-05-17T14:51:29+02:00</time>
      </trkpt>
      <trkpt lat="48.23066" lon="6.43735">
        <ele>303.9004</ele>
        <time>2026-05-17T14:51:30+02:00</time>
      </trkpt>
      <trkpt lat="48.23071" lon="6.43738">
        <ele>303.7998</ele>
        <time>2026-05-17T14:51:31+02:00</time>
      </trkpt>
      <trkpt lat="48.23077" lon="6.43742">
        <ele>303.1006</ele>
        <time>2026-05-17T14:51:32+02:00</time>
      </trkpt>
      <trkpt lat="48.23083" lon="6.43745">
        <ele>303.2002</ele>
        <time>2026-05-17T14:51:33+02:00</time>
      </trkpt>
      <trkpt lat="48.23089" lon="6.43748">
        <ele>302</ele>
        <time>2026-05-17T14:51:34+02:00</time>
      </trkpt>
      <trkpt lat="48.23094" lon="6.43752">
        <ele>302.1006</ele>
        <time>2026-05-17T14:51:35+02:00</time>
      </trkpt>
      <trkpt lat="48.23099" lon="6.43756">
        <ele>300.1006</ele>
        <time>2026-05-17T14:51:36+02:00</time>
      </trkpt>
      <trkpt lat="48.23104" lon="6.43761">
        <ele>300.2998</ele>
        <time>2026-05-17T14:51:37+02:00</time>
      </trkpt>
      <trkpt lat="48.2311" lon="6.43765">
        <ele>298.7002</ele>
        <time>2026-05-17T14:51:38+02:00</time>
      </trkpt>
      <trkpt lat="48.23115" lon="6.43769">
        <ele>299.9004</ele>
        <time>2026-05-17T14:51:39+02:00</time>
      </trkpt>
      <trkpt lat="48.2312" lon="6.43773">
        <ele>301.7002</ele>
        <time>2026-05-17T14:51:40+02:00</time>
      </trkpt>
      <trkpt lat="48.23125" lon="6.43777">
        <ele>302.5</ele>
        <time>2026-05-17T14:51:41+02:00</time>
      </trkpt>
      <trkpt lat="48.2313" lon="6.43782">
        <ele>300.9004</ele>
        <time>2026-05-17T14:51:42+02:00</time>
      </trkpt>
      <trkpt lat="48.23133" lon="6.43784">
        <ele>301.9004</ele>
        <time>2026-05-17T14:51:43+02:00</time>
      </trkpt>
      <trkpt lat="48.2314" lon="6.43791">
        <ele>301.1006</ele>
        <time>2026-05-17T14:51:44+02:00</time>
      </trkpt>
      <trkpt lat="48.23145" lon="6.43795">
        <ele>302.6006</ele>
        <time>2026-05-17T14:51:45+02:00</time>
      </trkpt>
      <trkpt lat="48.2315" lon="6.438">
        <ele>303.1006</ele>
        <time>2026-05-17T14:51:46+02:00</time>
      </trkpt>
      <trkpt lat="48.23155" lon="6.43804">
        <ele>304.1006</ele>
        <time>2026-05-17T14:51:47+02:00</time>
      </trkpt>
      <trkpt lat="48.2316" lon="6.43809">
        <ele>304</ele>
        <time>2026-05-17T14:51:48+02:00</time>
      </trkpt>
      <trkpt lat="48.23165" lon="6.43813">
        <ele>304.7002</ele>
        <time>2026-05-17T14:51:49+02:00</time>
      </trkpt>
      <trkpt lat="48.23168" lon="6.43816">
        <ele>303.7002</ele>
        <time>2026-05-17T14:51:50+02:00</time>
      </trkpt>
      <trkpt lat="48.23176" lon="6.43822">
        <ele>304.7002</ele>
        <time>2026-05-17T14:51:51+02:00</time>
      </trkpt>
      <trkpt lat="48.23181" lon="6.43826">
        <ele>304.7998</ele>
        <time>2026-05-17T14:51:52+02:00</time>
      </trkpt>
      <trkpt lat="48.23185" lon="6.4383">
        <ele>305</ele>
        <time>2026-05-17T14:51:53+02:00</time>
      </trkpt>
      <trkpt lat="48.2319" lon="6.43835">
        <ele>305</ele>
        <time>2026-05-17T14:51:54+02:00</time>
      </trkpt>
      <trkpt lat="48.23195" lon="6.43839">
        <ele>305.2998</ele>
        <time>2026-05-17T14:51:55+02:00</time>
      </trkpt>
      <trkpt lat="48.232" lon="6.43844">
        <ele>305.2002</ele>
        <time>2026-05-17T14:51:56+02:00</time>
      </trkpt>
      <trkpt lat="48.23205" lon="6.43848">
        <ele>305.2002</ele>
        <time>2026-05-17T14:51:57+02:00</time>
      </trkpt>
      <trkpt lat="48.2321" lon="6.43853">
        <ele>305</ele>
        <time>2026-05-17T14:51:58+02:00</time>
      </trkpt>
      <trkpt lat="48.23214" lon="6.43858">
        <ele>305.1006</ele>
        <time>2026-05-17T14:51:59+02:00</time>
      </trkpt>
      <trkpt lat="48.23219" lon="6.43863">
        <ele>305.2002</ele>
        <time>2026-05-17T14:52:00+02:00</time>
      </trkpt>
      <trkpt lat="48.23225" lon="6.43867">
        <ele>305.5</ele>
        <time>2026-05-17T14:52:01+02:00</time>
      </trkpt>
      <trkpt lat="48.2323" lon="6.43872">
        <ele>306</ele>
        <time>2026-05-17T14:52:02+02:00</time>
      </trkpt>
      <trkpt lat="48.23235" lon="6.43876">
        <ele>306.4004</ele>
        <time>2026-05-17T14:52:03+02:00</time>
      </trkpt>
      <trkpt lat="48.2324" lon="6.4388">
        <ele>306.5</ele>
        <time>2026-05-17T14:52:04+02:00</time>
      </trkpt>
      <trkpt lat="48.23245" lon="6.43884">
        <ele>306.5</ele>
        <time>2026-05-17T14:52:05+02:00</time>
      </trkpt>
      <trkpt lat="48.2325" lon="6.43888">
        <ele>306.1006</ele>
        <time>2026-05-17T14:52:06+02:00</time>
      </trkpt>
      <trkpt lat="48.23255" lon="6.43893">
        <ele>306.1006</ele>
        <time>2026-05-17T14:52:07+02:00</time>
      </trkpt>
      <trkpt lat="48.23259" lon="6.43898">
        <ele>306.4004</ele>
        <time>2026-05-17T14:52:08+02:00</time>
      </trkpt>
      <trkpt lat="48.23264" lon="6.43902">
        <ele>306.7002</ele>
        <time>2026-05-17T14:52:09+02:00</time>
      </trkpt>
      <trkpt lat="48.23269" lon="6.43906">
        <ele>306.7998</ele>
        <time>2026-05-17T14:52:10+02:00</time>
      </trkpt>
      <trkpt lat="48.23274" lon="6.4391">
        <ele>306.5</ele>
        <time>2026-05-17T14:52:11+02:00</time>
      </trkpt>
      <trkpt lat="48.23279" lon="6.43914">
        <ele>306</ele>
        <time>2026-05-17T14:52:12+02:00</time>
      </trkpt>
      <trkpt lat="48.23284" lon="6.43919">
        <ele>306.1006</ele>
        <time>2026-05-17T14:52:13+02:00</time>
      </trkpt>
      <trkpt lat="48.23288" lon="6.43923">
        <ele>306</ele>
        <time>2026-05-17T14:52:14+02:00</time>
      </trkpt>
      <trkpt lat="48.23293" lon="6.43927">
        <ele>305.9004</ele>
        <time>2026-05-17T14:52:15+02:00</time>
      </trkpt>
      <trkpt lat="48.23298" lon="6.43931">
        <ele>306.2002</ele>
        <time>2026-05-17T14:52:16+02:00</time>
      </trkpt>
      <trkpt lat="48.23303" lon="6.43935">
        <ele>306.1006</ele>
        <time>2026-05-17T14:52:17+02:00</time>
      </trkpt>
      <trkpt lat="48.23305" lon="6.43938">
        <ele>306.2998</ele>
        <time>2026-05-17T14:52:18+02:00</time>
      </trkpt>
      <trkpt lat="48.23312" lon="6.43944">
        <ele>306.2998</ele>
        <time>2026-05-17T14:52:19+02:00</time>
      </trkpt>
      <trkpt lat="48.23317" lon="6.43949">
        <ele>306.6006</ele>
        <time>2026-05-17T14:52:20+02:00</time>
      </trkpt>
      <trkpt lat="48.23322" lon="6.43953">
        <ele>306.7002</ele>
        <time>2026-05-17T14:52:21+02:00</time>
      </trkpt>
      <trkpt lat="48.23327" lon="6.43957">
        <ele>307</ele>
        <time>2026-05-17T14:52:22+02:00</time>
      </trkpt>
      <trkpt lat="48.23332" lon="6.43962">
        <ele>307.2998</ele>
        <time>2026-05-17T14:52:23+02:00</time>
      </trkpt>
      <trkpt lat="48.23337" lon="6.43966">
        <ele>307.5</ele>
        <time>2026-05-17T14:52:24+02:00</time>
      </trkpt>
      <trkpt lat="48.23342" lon="6.43971">
        <ele>307.7002</ele>
        <time>2026-05-17T14:52:25+02:00</time>
      </trkpt>
      <trkpt lat="48.23346" lon="6.43975">
        <ele>307.7002</ele>
        <time>2026-05-17T14:52:26+02:00</time>
      </trkpt>
      <trkpt lat="48.23351" lon="6.4398">
        <ele>307.6006</ele>
        <time>2026-05-17T14:52:27+02:00</time>
      </trkpt>
      <trkpt lat="48.23356" lon="6.43984">
        <ele>307.7998</ele>
        <time>2026-05-17T14:52:28+02:00</time>
      </trkpt>
      <trkpt lat="48.23361" lon="6.43988">
        <ele>307.2998</ele>
        <time>2026-05-17T14:52:29+02:00</time>
      </trkpt>
      <trkpt lat="48.23366" lon="6.43991">
        <ele>307.4004</ele>
        <time>2026-05-17T14:52:30+02:00</time>
      </trkpt>
      <trkpt lat="48.23371" lon="6.43994">
        <ele>307.2998</ele>
        <time>2026-05-17T14:52:31+02:00</time>
      </trkpt>
      <trkpt lat="48.23377" lon="6.43996">
        <ele>307.2998</ele>
        <time>2026-05-17T14:52:32+02:00</time>
      </trkpt>
      <trkpt lat="48.23382" lon="6.43998">
        <ele>306.2998</ele>
        <time>2026-05-17T14:52:33+02:00</time>
      </trkpt>
      <trkpt lat="48.23388" lon="6.43999">
        <ele>306.1006</ele>
        <time>2026-05-17T14:52:34+02:00</time>
      </trkpt>
      <trkpt lat="48.23393" lon="6.44">
        <ele>306.1006</ele>
        <time>2026-05-17T14:52:35+02:00</time>
      </trkpt>
      <trkpt lat="48.23398" lon="6.44">
        <ele>305.9004</ele>
        <time>2026-05-17T14:52:36+02:00</time>
      </trkpt>
      <trkpt lat="48.23404" lon="6.44">
        <ele>305.7002</ele>
        <time>2026-05-17T14:52:37+02:00</time>
      </trkpt>
      <trkpt lat="48.23409" lon="6.44">
        <ele>305.4004</ele>
        <time>2026-05-17T14:52:38+02:00</time>
      </trkpt>
      <trkpt lat="48.23415" lon="6.43999">
        <ele>305</ele>
        <time>2026-05-17T14:52:39+02:00</time>
      </trkpt>
      <trkpt lat="48.2342" lon="6.43997">
        <ele>304.4004</ele>
        <time>2026-05-17T14:52:40+02:00</time>
      </trkpt>
      <trkpt lat="48.23425" lon="6.43996">
        <ele>304</ele>
        <time>2026-05-17T14:52:41+02:00</time>
      </trkpt>
      <trkpt lat="48.23431" lon="6.43994">
        <ele>303.5</ele>
        <time>2026-05-17T14:52:42+02:00</time>
      </trkpt>
      <trkpt lat="48.23436" lon="6.43993">
        <ele>303.5</ele>
        <time>2026-05-17T14:52:43+02:00</time>
      </trkpt>
      <trkpt lat="48.23442" lon="6.43991">
        <ele>303.5</ele>
        <time>2026-05-17T14:52:44+02:00</time>
      </trkpt>
      <trkpt lat="48.23447" lon="6.43989">
        <ele>303.5</ele>
        <time>2026-05-17T14:52:45+02:00</time>
      </trkpt>
      <trkpt lat="48.23452" lon="6.43987">
        <ele>303.7998</ele>
        <time>2026-05-17T14:52:46+02:00</time>
      </trkpt>
      <trkpt lat="48.23457" lon="6.43985">
        <ele>303.7002</ele>
        <time>2026-05-17T14:52:47+02:00</time>
      </trkpt>
      <trkpt lat="48.23462" lon="6.43983">
        <ele>303.7002</ele>
        <time>2026-05-17T14:52:48+02:00</time>
      </trkpt>
      <trkpt lat="48.23464" lon="6.43982">
        <ele>303.7002</ele>
        <time>2026-05-17T14:52:49+02:00</time>
      </trkpt>
      <trkpt lat="48.23472" lon="6.43979">
        <ele>304.2002</ele>
        <time>2026-05-17T14:52:50+02:00</time>
      </trkpt>
      <trkpt lat="48.23477" lon="6.43978">
        <ele>304.1006</ele>
        <time>2026-05-17T14:52:51+02:00</time>
      </trkpt>
      <trkpt lat="48.23482" lon="6.43976">
        <ele>304.1006</ele>
        <time>2026-05-17T14:52:52+02:00</time>
      </trkpt>
      <trkpt lat="48.23486" lon="6.43977">
        <ele>304</ele>
        <time>2026-05-17T14:52:53+02:00</time>
      </trkpt>
      <trkpt lat="48.2349" lon="6.43977">
        <ele>304</ele>
        <time>2026-05-17T14:52:54+02:00</time>
      </trkpt>
      <trkpt lat="48.23494" lon="6.43978">
        <ele>304</ele>
        <time>2026-05-17T14:52:55+02:00</time>
      </trkpt>
      <trkpt lat="48.23498" lon="6.43977">
        <ele>303.9004</ele>
        <time>2026-05-17T14:52:56+02:00</time>
      </trkpt>
      <trkpt lat="48.23502" lon="6.43977">
        <ele>303.9004</ele>
        <time>2026-05-17T14:52:57+02:00</time>
      </trkpt>
      <trkpt lat="48.23507" lon="6.43977">
        <ele>303.9004</ele>
        <time>2026-05-17T14:52:58+02:00</time>
      </trkpt>
      <trkpt lat="48.23512" lon="6.43976">
        <ele>303.9004</ele>
        <time>2026-05-17T14:52:59+02:00</time>
      </trkpt>
      <trkpt lat="48.23517" lon="6.43974">
        <ele>303.7998</ele>
        <time>2026-05-17T14:53:00+02:00</time>
      </trkpt>
      <trkpt lat="48.23523" lon="6.43973">
        <ele>303.7998</ele>
        <time>2026-05-17T14:53:01+02:00</time>
      </trkpt>
      <trkpt lat="48.23528" lon="6.43971">
        <ele>303.7998</ele>
        <time>2026-05-17T14:53:02+02:00</time>
      </trkpt>
      <trkpt lat="48.23535" lon="6.43969">
        <ele>304.1006</ele>
        <time>2026-05-17T14:53:03+02:00</time>
      </trkpt>
      <trkpt lat="48.23541" lon="6.43966">
        <ele>304.1006</ele>
        <time>2026-05-17T14:53:04+02:00</time>
      </trkpt>
      <trkpt lat="48.23547" lon="6.43964">
        <ele>304</ele>
        <time>2026-05-17T14:53:05+02:00</time>
      </trkpt>
      <trkpt lat="48.23554" lon="6.43962">
        <ele>303.9004</ele>
        <time>2026-05-17T14:53:06+02:00</time>
      </trkpt>
      <trkpt lat="48.2356" lon="6.4396">
        <ele>304.2002</ele>
        <time>2026-05-17T14:53:07+02:00</time>
      </trkpt>
      <trkpt lat="48.23567" lon="6.43958">
        <ele>304.1006</ele>
        <time>2026-05-17T14:53:08+02:00</time>
      </trkpt>
      <trkpt lat="48.23573" lon="6.43956">
        <ele>304</ele>
        <time>2026-05-17T14:53:09+02:00</time>
      </trkpt>
      <trkpt lat="48.23579" lon="6.43954">
        <ele>304</ele>
        <time>2026-05-17T14:53:10+02:00</time>
      </trkpt>
      <trkpt lat="48.23585" lon="6.43952">
        <ele>304.1006</ele>
        <time>2026-05-17T14:53:11+02:00</time>
      </trkpt>
      <trkpt lat="48.23591" lon="6.43951">
        <ele>304</ele>
        <time>2026-05-17T14:53:12+02:00</time>
      </trkpt>
      <trkpt lat="48.23596" lon="6.43949">
        <ele>303.9004</ele>
        <time>2026-05-17T14:53:13+02:00</time>
      </trkpt>
      <trkpt lat="48.23602" lon="6.43947">
        <ele>303.7998</ele>
        <time>2026-05-17T14:53:14+02:00</time>
      </trkpt>
      <trkpt lat="48.23607" lon="6.43945">
        <ele>303.7002</ele>
        <time>2026-05-17T14:53:15+02:00</time>
      </trkpt>
      <trkpt lat="48.23613" lon="6.43944">
        <ele>303.7002</ele>
        <time>2026-05-17T14:53:16+02:00</time>
      </trkpt>
      <trkpt lat="48.23618" lon="6.43943">
        <ele>303.6006</ele>
        <time>2026-05-17T14:53:17+02:00</time>
      </trkpt>
      <trkpt lat="48.23624" lon="6.43941">
        <ele>303.5</ele>
        <time>2026-05-17T14:53:18+02:00</time>
      </trkpt>
      <trkpt lat="48.2363" lon="6.43939">
        <ele>303.4004</ele>
        <time>2026-05-17T14:53:19+02:00</time>
      </trkpt>
      <trkpt lat="48.23635" lon="6.43937">
        <ele>303.2002</ele>
        <time>2026-05-17T14:53:20+02:00</time>
      </trkpt>
      <trkpt lat="48.23641" lon="6.43935">
        <ele>303.2002</ele>
        <time>2026-05-17T14:53:21+02:00</time>
      </trkpt>
      <trkpt lat="48.23647" lon="6.43933">
        <ele>303.1006</ele>
        <time>2026-05-17T14:53:22+02:00</time>
      </trkpt>
      <trkpt lat="48.23652" lon="6.4393">
        <ele>303</ele>
        <time>2026-05-17T14:53:23+02:00</time>
      </trkpt>
      <trkpt lat="48.23658" lon="6.43928">
        <ele>302.9004</ele>
        <time>2026-05-17T14:53:24+02:00</time>
      </trkpt>
      <trkpt lat="48.23663" lon="6.43926">
        <ele>302.7998</ele>
        <time>2026-05-17T14:53:25+02:00</time>
      </trkpt>
      <trkpt lat="48.2367" lon="6.43923">
        <ele>302.7998</ele>
        <time>2026-05-17T14:53:26+02:00</time>
      </trkpt>
      <trkpt lat="48.23675" lon="6.43921">
        <ele>302.7002</ele>
        <time>2026-05-17T14:53:27+02:00</time>
      </trkpt>
      <trkpt lat="48.23681" lon="6.43918">
        <ele>302.7998</ele>
        <time>2026-05-17T14:53:28+02:00</time>
      </trkpt>
      <trkpt lat="48.23686" lon="6.43916">
        <ele>303</ele>
        <time>2026-05-17T14:53:29+02:00</time>
      </trkpt>
      <trkpt lat="48.23692" lon="6.43913">
        <ele>303.2998</ele>
        <time>2026-05-17T14:53:30+02:00</time>
      </trkpt>
      <trkpt lat="48.23698" lon="6.4391">
        <ele>303.5</ele>
        <time>2026-05-17T14:53:31+02:00</time>
      </trkpt>
      <trkpt lat="48.237" lon="6.43909">
        <ele>303.5</ele>
        <time>2026-05-17T14:53:32+02:00</time>
      </trkpt>
      <trkpt lat="48.23709" lon="6.43905">
        <ele>303.2998</ele>
        <time>2026-05-17T14:53:33+02:00</time>
      </trkpt>
      <trkpt lat="48.23715" lon="6.43901">
        <ele>303.2998</ele>
        <time>2026-05-17T14:53:34+02:00</time>
      </trkpt>
      <trkpt lat="48.2372" lon="6.43896">
        <ele>303.2002</ele>
        <time>2026-05-17T14:53:35+02:00</time>
      </trkpt>
      <trkpt lat="48.23725" lon="6.43891">
        <ele>303</ele>
        <time>2026-05-17T14:53:36+02:00</time>
      </trkpt>
      <trkpt lat="48.23731" lon="6.43886">
        <ele>303</ele>
        <time>2026-05-17T14:53:37+02:00</time>
      </trkpt>
      <trkpt lat="48.23736" lon="6.43881">
        <ele>302.7998</ele>
        <time>2026-05-17T14:53:38+02:00</time>
      </trkpt>
      <trkpt lat="48.23741" lon="6.43877">
        <ele>302.7998</ele>
        <time>2026-05-17T14:53:39+02:00</time>
      </trkpt>
      <trkpt lat="48.23746" lon="6.43872">
        <ele>302.7998</ele>
        <time>2026-05-17T14:53:40+02:00</time>
      </trkpt>
      <trkpt lat="48.23751" lon="6.43868">
        <ele>302.9004</ele>
        <time>2026-05-17T14:53:41+02:00</time>
      </trkpt>
      <trkpt lat="48.23756" lon="6.43863">
        <ele>303.1006</ele>
        <time>2026-05-17T14:53:42+02:00</time>
      </trkpt>
      <trkpt lat="48.23761" lon="6.43858">
        <ele>303</ele>
        <time>2026-05-17T14:53:43+02:00</time>
      </trkpt>
      <trkpt lat="48.23766" lon="6.43853">
        <ele>302.9004</ele>
        <time>2026-05-17T14:53:44+02:00</time>
      </trkpt>
      <trkpt lat="48.23771" lon="6.43848">
        <ele>302.6006</ele>
        <time>2026-05-17T14:53:45+02:00</time>
      </trkpt>
      <trkpt lat="48.23776" lon="6.43843">
        <ele>302.6006</ele>
        <time>2026-05-17T14:53:46+02:00</time>
      </trkpt>
      <trkpt lat="48.23781" lon="6.43838">
        <ele>302.6006</ele>
        <time>2026-05-17T14:53:47+02:00</time>
      </trkpt>
      <trkpt lat="48.23786" lon="6.43833">
        <ele>302.9004</ele>
        <time>2026-05-17T14:53:48+02:00</time>
      </trkpt>
      <trkpt lat="48.23792" lon="6.43827">
        <ele>302.7998</ele>
        <time>2026-05-17T14:53:49+02:00</time>
      </trkpt>
      <trkpt lat="48.23797" lon="6.43821">
        <ele>302.9004</ele>
        <time>2026-05-17T14:53:50+02:00</time>
      </trkpt>
      <trkpt lat="48.23802" lon="6.43814">
        <ele>302.7998</ele>
        <time>2026-05-17T14:53:51+02:00</time>
      </trkpt>
      <trkpt lat="48.23808" lon="6.43808">
        <ele>302.7002</ele>
        <time>2026-05-17T14:53:52+02:00</time>
      </trkpt>
      <trkpt lat="48.23813" lon="6.43802">
        <ele>302.7002</ele>
        <time>2026-05-17T14:53:53+02:00</time>
      </trkpt>
      <trkpt lat="48.23818" lon="6.43795">
        <ele>303.1006</ele>
        <time>2026-05-17T14:53:54+02:00</time>
      </trkpt>
      <trkpt lat="48.23822" lon="6.43788">
        <ele>303.2998</ele>
        <time>2026-05-17T14:53:55+02:00</time>
      </trkpt>
      <trkpt lat="48.23827" lon="6.43781">
        <ele>303.2002</ele>
        <time>2026-05-17T14:53:56+02:00</time>
      </trkpt>
      <trkpt lat="48.23832" lon="6.43774">
        <ele>303.2002</ele>
        <time>2026-05-17T14:53:57+02:00</time>
      </trkpt>
      <trkpt lat="48.23836" lon="6.43767">
        <ele>302.9004</ele>
        <time>2026-05-17T14:53:58+02:00</time>
      </trkpt>
      <trkpt lat="48.23841" lon="6.4376">
        <ele>303.4004</ele>
        <time>2026-05-17T14:53:59+02:00</time>
      </trkpt>
      <trkpt lat="48.23845" lon="6.43753">
        <ele>303.6006</ele>
        <time>2026-05-17T14:54:00+02:00</time>
      </trkpt>
      <trkpt lat="48.2385" lon="6.43746">
        <ele>303.2998</ele>
        <time>2026-05-17T14:54:01+02:00</time>
      </trkpt>
      <trkpt lat="48.23854" lon="6.43739">
        <ele>303.2998</ele>
        <time>2026-05-17T14:54:02+02:00</time>
      </trkpt>
      <trkpt lat="48.23858" lon="6.43732">
        <ele>302.7002</ele>
        <time>2026-05-17T14:54:03+02:00</time>
      </trkpt>
      <trkpt lat="48.23863" lon="6.43726">
        <ele>302.6006</ele>
        <time>2026-05-17T14:54:04+02:00</time>
      </trkpt>
      <trkpt lat="48.23867" lon="6.4372">
        <ele>302.6006</ele>
        <time>2026-05-17T14:54:05+02:00</time>
      </trkpt>
      <trkpt lat="48.23871" lon="6.43714">
        <ele>302.6006</ele>
        <time>2026-05-17T14:54:06+02:00</time>
      </trkpt>
      <trkpt lat="48.23874" lon="6.43707">
        <ele>302.6006</ele>
        <time>2026-05-17T14:54:07+02:00</time>
      </trkpt>
      <trkpt lat="48.23879" lon="6.43701">
        <ele>302.2998</ele>
        <time>2026-05-17T14:54:08+02:00</time>
      </trkpt>
      <trkpt lat="48.23883" lon="6.43695">
        <ele>302.2998</ele>
        <time>2026-05-17T14:54:09+02:00</time>
      </trkpt>
      <trkpt lat="48.23887" lon="6.43689">
        <ele>302.5</ele>
        <time>2026-05-17T14:54:10+02:00</time>
      </trkpt>
      <trkpt lat="48.23892" lon="6.43682">
        <ele>302.6006</ele>
        <time>2026-05-17T14:54:11+02:00</time>
      </trkpt>
      <trkpt lat="48.23895" lon="6.43676">
        <ele>302.4004</ele>
        <time>2026-05-17T14:54:12+02:00</time>
      </trkpt>
      <trkpt lat="48.239" lon="6.43669">
        <ele>302.2002</ele>
        <time>2026-05-17T14:54:13+02:00</time>
      </trkpt>
      <trkpt lat="48.23903" lon="6.43663">
        <ele>302.5</ele>
        <time>2026-05-17T14:54:14+02:00</time>
      </trkpt>
      <trkpt lat="48.23908" lon="6.43656">
        <ele>302.2002</ele>
        <time>2026-05-17T14:54:15+02:00</time>
      </trkpt>
      <trkpt lat="48.23912" lon="6.4365">
        <ele>302.4004</ele>
        <time>2026-05-17T14:54:16+02:00</time>
      </trkpt>
      <trkpt lat="48.23916" lon="6.43644">
        <ele>302.4004</ele>
        <time>2026-05-17T14:54:17+02:00</time>
      </trkpt>
      <trkpt lat="48.2392" lon="6.43638">
        <ele>302.7998</ele>
        <time>2026-05-17T14:54:18+02:00</time>
      </trkpt>
      <trkpt lat="48.23924" lon="6.43631">
        <ele>302.2002</ele>
        <time>2026-05-17T14:54:19+02:00</time>
      </trkpt>
      <trkpt lat="48.23927" lon="6.43625">
        <ele>302.2002</ele>
        <time>2026-05-17T14:54:20+02:00</time>
      </trkpt>
      <trkpt lat="48.23931" lon="6.43619">
        <ele>302.6006</ele>
        <time>2026-05-17T14:54:21+02:00</time>
      </trkpt>
      <trkpt lat="48.23935" lon="6.43613">
        <ele>302.2998</ele>
        <time>2026-05-17T14:54:22+02:00</time>
      </trkpt>
      <trkpt lat="48.23939" lon="6.43607">
        <ele>302.4004</ele>
        <time>2026-05-17T14:54:23+02:00</time>
      </trkpt>
      <trkpt lat="48.23943" lon="6.43601">
        <ele>302.2998</ele>
        <time>2026-05-17T14:54:24+02:00</time>
      </trkpt>
      <trkpt lat="48.23948" lon="6.43594">
        <ele>302.2998</ele>
        <time>2026-05-17T14:54:25+02:00</time>
      </trkpt>
      <trkpt lat="48.23952" lon="6.43588">
        <ele>302.2002</ele>
        <time>2026-05-17T14:54:26+02:00</time>
      </trkpt>
      <trkpt lat="48.23956" lon="6.43582">
        <ele>302.2998</ele>
        <time>2026-05-17T14:54:27+02:00</time>
      </trkpt>
      <trkpt lat="48.23961" lon="6.43576">
        <ele>302.7998</ele>
        <time>2026-05-17T14:54:28+02:00</time>
      </trkpt>
      <trkpt lat="48.23965" lon="6.4357">
        <ele>302.5</ele>
        <time>2026-05-17T14:54:29+02:00</time>
      </trkpt>
      <trkpt lat="48.23969" lon="6.43564">
        <ele>302.1006</ele>
        <time>2026-05-17T14:54:30+02:00</time>
      </trkpt>
      <trkpt lat="48.23972" lon="6.43557">
        <ele>302.1006</ele>
        <time>2026-05-17T14:54:31+02:00</time>
      </trkpt>
      <trkpt lat="48.23976" lon="6.43551">
        <ele>302.1006</ele>
        <time>2026-05-17T14:54:32+02:00</time>
      </trkpt>
      <trkpt lat="48.2398" lon="6.43545">
        <ele>302.5</ele>
        <time>2026-05-17T14:54:33+02:00</time>
      </trkpt>
      <trkpt lat="48.23984" lon="6.43539">
        <ele>303.4004</ele>
        <time>2026-05-17T14:54:34+02:00</time>
      </trkpt>
      <trkpt lat="48.23988" lon="6.43533">
        <ele>303.4004</ele>
        <time>2026-05-17T14:54:35+02:00</time>
      </trkpt>
      <trkpt lat="48.23992" lon="6.43527">
        <ele>303.5</ele>
        <time>2026-05-17T14:54:36+02:00</time>
      </trkpt>
      <trkpt lat="48.23996" lon="6.43522">
        <ele>302.7998</ele>
        <time>2026-05-17T14:54:37+02:00</time>
      </trkpt>
      <trkpt lat="48.24" lon="6.43516">
        <ele>302.4004</ele>
        <time>2026-05-17T14:54:38+02:00</time>
      </trkpt>
      <trkpt lat="48.24004" lon="6.4351">
        <ele>302.1006</ele>
        <time>2026-05-17T14:54:39+02:00</time>
      </trkpt>
      <trkpt lat="48.24008" lon="6.43504">
        <ele>302.2002</ele>
        <time>2026-05-17T14:54:40+02:00</time>
      </trkpt>
      <trkpt lat="48.24012" lon="6.43498">
        <ele>302.2002</ele>
        <time>2026-05-17T14:54:41+02:00</time>
      </trkpt>
      <trkpt lat="48.24016" lon="6.43492">
        <ele>302.2002</ele>
        <time>2026-05-17T14:54:42+02:00</time>
      </trkpt>
      <trkpt lat="48.2402" lon="6.43486">
        <ele>302</ele>
        <time>2026-05-17T14:54:43+02:00</time>
      </trkpt>
      <trkpt lat="48.24024" lon="6.4348">
        <ele>301.9004</ele>
        <time>2026-05-17T14:54:44+02:00</time>
      </trkpt>
      <trkpt lat="48.24028" lon="6.43474">
        <ele>301.9004</ele>
        <time>2026-05-17T14:54:45+02:00</time>
      </trkpt>
      <trkpt lat="48.24032" lon="6.43468">
        <ele>302.1006</ele>
        <time>2026-05-17T14:54:46+02:00</time>
      </trkpt>
      <trkpt lat="48.24035" lon="6.43462">
        <ele>302.1006</ele>
        <time>2026-05-17T14:54:47+02:00</time>
      </trkpt>
      <trkpt lat="48.2404" lon="6.43456">
        <ele>301.7998</ele>
        <time>2026-05-17T14:54:48+02:00</time>
      </trkpt>
      <trkpt lat="48.24043" lon="6.43449">
        <ele>301.7998</ele>
        <time>2026-05-17T14:54:49+02:00</time>
      </trkpt>
      <trkpt lat="48.24047" lon="6.43443">
        <ele>301.7002</ele>
        <time>2026-05-17T14:54:50+02:00</time>
      </trkpt>
      <trkpt lat="48.24051" lon="6.43437">
        <ele>302.2002</ele>
        <time>2026-05-17T14:54:51+02:00</time>
      </trkpt>
      <trkpt lat="48.24056" lon="6.43431">
        <ele>301.9004</ele>
        <time>2026-05-17T14:54:52+02:00</time>
      </trkpt>
      <trkpt lat="48.24059" lon="6.43425">
        <ele>301.9004</ele>
        <time>2026-05-17T14:54:53+02:00</time>
      </trkpt>
      <trkpt lat="48.24064" lon="6.43419">
        <ele>301.7002</ele>
        <time>2026-05-17T14:54:54+02:00</time>
      </trkpt>
      <trkpt lat="48.24067" lon="6.43412">
        <ele>301.9004</ele>
        <time>2026-05-17T14:54:55+02:00</time>
      </trkpt>
      <trkpt lat="48.2407" lon="6.43409">
        <ele>301.6006</ele>
        <time>2026-05-17T14:54:56+02:00</time>
      </trkpt>
      <trkpt lat="48.24075" lon="6.434">
        <ele>301.7002</ele>
        <time>2026-05-17T14:54:57+02:00</time>
      </trkpt>
      <trkpt lat="48.24079" lon="6.43395">
        <ele>302</ele>
        <time>2026-05-17T14:54:58+02:00</time>
      </trkpt>
      <trkpt lat="48.24083" lon="6.43389">
        <ele>301.7002</ele>
        <time>2026-05-17T14:54:59+02:00</time>
      </trkpt>
      <trkpt lat="48.24087" lon="6.43383">
        <ele>301.6006</ele>
        <time>2026-05-17T14:55:00+02:00</time>
      </trkpt>
      <trkpt lat="48.24091" lon="6.43377">
        <ele>301.6006</ele>
        <time>2026-05-17T14:55:01+02:00</time>
      </trkpt>
      <trkpt lat="48.24095" lon="6.43371">
        <ele>301.5</ele>
        <time>2026-05-17T14:55:02+02:00</time>
      </trkpt>
      <trkpt lat="48.24096" lon="6.43368">
        <ele>301.7002</ele>
        <time>2026-05-17T14:55:03+02:00</time>
      </trkpt>
      <trkpt lat="48.24103" lon="6.43359">
        <ele>301.6006</ele>
        <time>2026-05-17T14:55:04+02:00</time>
      </trkpt>
      <trkpt lat="48.24106" lon="6.43353">
        <ele>301.6006</ele>
        <time>2026-05-17T14:55:05+02:00</time>
      </trkpt>
      <trkpt lat="48.2411" lon="6.43347">
        <ele>301.5</ele>
        <time>2026-05-17T14:55:06+02:00</time>
      </trkpt>
      <trkpt lat="48.24114" lon="6.43341">
        <ele>301.2998</ele>
        <time>2026-05-17T14:55:07+02:00</time>
      </trkpt>
      <trkpt lat="48.24118" lon="6.43335">
        <ele>301.7998</ele>
        <time>2026-05-17T14:55:08+02:00</time>
      </trkpt>
      <trkpt lat="48.24122" lon="6.43329">
        <ele>301.7998</ele>
        <time>2026-05-17T14:55:09+02:00</time>
      </trkpt>
      <trkpt lat="48.24125" lon="6.43324">
        <ele>302.5</ele>
        <time>2026-05-17T14:55:10+02:00</time>
      </trkpt>
      <trkpt lat="48.24129" lon="6.43318">
        <ele>303.1006</ele>
        <time>2026-05-17T14:55:11+02:00</time>
      </trkpt>
      <trkpt lat="48.24133" lon="6.43312">
        <ele>302.9004</ele>
        <time>2026-05-17T14:55:12+02:00</time>
      </trkpt>
      <trkpt lat="48.24137" lon="6.43307">
        <ele>302.7002</ele>
        <time>2026-05-17T14:55:13+02:00</time>
      </trkpt>
      <trkpt lat="48.24141" lon="6.43301">
        <ele>302.7002</ele>
        <time>2026-05-17T14:55:14+02:00</time>
      </trkpt>
      <trkpt lat="48.24144" lon="6.43295">
        <ele>302.2998</ele>
        <time>2026-05-17T14:55:15+02:00</time>
      </trkpt>
      <trkpt lat="48.24148" lon="6.43289">
        <ele>302.4004</ele>
        <time>2026-05-17T14:55:16+02:00</time>
      </trkpt>
      <trkpt lat="48.24152" lon="6.43283">
        <ele>303</ele>
        <time>2026-05-17T14:55:17+02:00</time>
      </trkpt>
      <trkpt lat="48.24156" lon="6.43277">
        <ele>302.6006</ele>
        <time>2026-05-17T14:55:18+02:00</time>
      </trkpt>
      <trkpt lat="48.2416" lon="6.43271">
        <ele>302.5</ele>
        <time>2026-05-17T14:55:19+02:00</time>
      </trkpt>
      <trkpt lat="48.24164" lon="6.43265">
        <ele>302.7998</ele>
        <time>2026-05-17T14:55:20+02:00</time>
      </trkpt>
      <trkpt lat="48.24168" lon="6.4326">
        <ele>302.1006</ele>
        <time>2026-05-17T14:55:21+02:00</time>
      </trkpt>
      <trkpt lat="48.24172" lon="6.43254">
        <ele>302.2998</ele>
        <time>2026-05-17T14:55:22+02:00</time>
      </trkpt>
      <trkpt lat="48.24176" lon="6.43248">
        <ele>302.7998</ele>
        <time>2026-05-17T14:55:23+02:00</time>
      </trkpt>
      <trkpt lat="48.2418" lon="6.43242">
        <ele>302.5</ele>
        <time>2026-05-17T14:55:24+02:00</time>
      </trkpt>
      <trkpt lat="48.24184" lon="6.43236">
        <ele>302.4004</ele>
        <time>2026-05-17T14:55:25+02:00</time>
      </trkpt>
      <trkpt lat="48.24188" lon="6.4323">
        <ele>302.6006</ele>
        <time>2026-05-17T14:55:26+02:00</time>
      </trkpt>
      <trkpt lat="48.24193" lon="6.43224">
        <ele>302</ele>
        <time>2026-05-17T14:55:27+02:00</time>
      </trkpt>
      <trkpt lat="48.24196" lon="6.43218">
        <ele>301.9004</ele>
        <time>2026-05-17T14:55:28+02:00</time>
      </trkpt>
      <trkpt lat="48.24201" lon="6.43212">
        <ele>301.9004</ele>
        <time>2026-05-17T14:55:29+02:00</time>
      </trkpt>
      <trkpt lat="48.24205" lon="6.43206">
        <ele>302.4004</ele>
        <time>2026-05-17T14:55:30+02:00</time>
      </trkpt>
      <trkpt lat="48.24209" lon="6.432">
        <ele>301.9004</ele>
        <time>2026-05-17T14:55:31+02:00</time>
      </trkpt>
      <trkpt lat="48.24214" lon="6.43194">
        <ele>301.7998</ele>
        <time>2026-05-17T14:55:32+02:00</time>
      </trkpt>
      <trkpt lat="48.24218" lon="6.43188">
        <ele>301.9004</ele>
        <time>2026-05-17T14:55:33+02:00</time>
      </trkpt>
      <trkpt lat="48.24223" lon="6.43182">
        <ele>301.6006</ele>
        <time>2026-05-17T14:55:34+02:00</time>
      </trkpt>
      <trkpt lat="48.24227" lon="6.43176">
        <ele>302</ele>
        <time>2026-05-17T14:55:35+02:00</time>
      </trkpt>
      <trkpt lat="48.24231" lon="6.4317">
        <ele>301.7002</ele>
        <time>2026-05-17T14:55:36+02:00</time>
      </trkpt>
      <trkpt lat="48.24236" lon="6.43164">
        <ele>301.2998</ele>
        <time>2026-05-17T14:55:37+02:00</time>
      </trkpt>
      <trkpt lat="48.24241" lon="6.43158">
        <ele>301.2002</ele>
        <time>2026-05-17T14:55:38+02:00</time>
      </trkpt>
      <trkpt lat="48.24246" lon="6.43153">
        <ele>301.7998</ele>
        <time>2026-05-17T14:55:39+02:00</time>
      </trkpt>
      <trkpt lat="48.2425" lon="6.43147">
        <ele>301.7998</ele>
        <time>2026-05-17T14:55:40+02:00</time>
      </trkpt>
      <trkpt lat="48.24255" lon="6.43141">
        <ele>302.5</ele>
        <time>2026-05-17T14:55:41+02:00</time>
      </trkpt>
      <trkpt lat="48.2426" lon="6.43135">
        <ele>303.1006</ele>
        <time>2026-05-17T14:55:42+02:00</time>
      </trkpt>
      <trkpt lat="48.24264" lon="6.4313">
        <ele>302.6006</ele>
        <time>2026-05-17T14:55:43+02:00</time>
      </trkpt>
      <trkpt lat="48.24269" lon="6.43125">
        <ele>302.2998</ele>
        <time>2026-05-17T14:55:44+02:00</time>
      </trkpt>
      <trkpt lat="48.24273" lon="6.4312">
        <ele>302.9004</ele>
        <time>2026-05-17T14:55:45+02:00</time>
      </trkpt>
      <trkpt lat="48.24277" lon="6.43116">
        <ele>302.2002</ele>
        <time>2026-05-17T14:55:46+02:00</time>
      </trkpt>
      <trkpt lat="48.24282" lon="6.43111">
        <ele>302.7002</ele>
        <time>2026-05-17T14:55:47+02:00</time>
      </trkpt>
      <trkpt lat="48.24287" lon="6.43107">
        <ele>302.5</ele>
        <time>2026-05-17T14:55:48+02:00</time>
      </trkpt>
      <trkpt lat="48.24292" lon="6.43103">
        <ele>302.2998</ele>
        <time>2026-05-17T14:55:49+02:00</time>
      </trkpt>
      <trkpt lat="48.24297" lon="6.43098">
        <ele>302</ele>
        <time>2026-05-17T14:55:50+02:00</time>
      </trkpt>
      <trkpt lat="48.24302" lon="6.43094">
        <ele>301.6006</ele>
        <time>2026-05-17T14:55:51+02:00</time>
      </trkpt>
      <trkpt lat="48.24307" lon="6.4309">
        <ele>301.4004</ele>
        <time>2026-05-17T14:55:52+02:00</time>
      </trkpt>
      <trkpt lat="48.24312" lon="6.43086">
        <ele>302.1006</ele>
        <time>2026-05-17T14:55:53+02:00</time>
      </trkpt>
      <trkpt lat="48.24317" lon="6.43081">
        <ele>302.7002</ele>
        <time>2026-05-17T14:55:54+02:00</time>
      </trkpt>
      <trkpt lat="48.24323" lon="6.43077">
        <ele>302.6006</ele>
        <time>2026-05-17T14:55:55+02:00</time>
      </trkpt>
      <trkpt lat="48.24328" lon="6.43072">
        <ele>302.7002</ele>
        <time>2026-05-17T14:55:56+02:00</time>
      </trkpt>
      <trkpt lat="48.24333" lon="6.43068">
        <ele>301.9004</ele>
        <time>2026-05-17T14:55:57+02:00</time>
      </trkpt>
      <trkpt lat="48.24338" lon="6.43063">
        <ele>302</ele>
        <time>2026-05-17T14:55:58+02:00</time>
      </trkpt>
      <trkpt lat="48.24343" lon="6.43059">
        <ele>301.7002</ele>
        <time>2026-05-17T14:55:59+02:00</time>
      </trkpt>
      <trkpt lat="48.24348" lon="6.43054">
        <ele>301.7002</ele>
        <time>2026-05-17T14:56:00+02:00</time>
      </trkpt>
      <trkpt lat="48.24354" lon="6.4305">
        <ele>302.2002</ele>
        <time>2026-05-17T14:56:01+02:00</time>
      </trkpt>
      <trkpt lat="48.24358" lon="6.43046">
        <ele>302.2002</ele>
        <time>2026-05-17T14:56:02+02:00</time>
      </trkpt>
      <trkpt lat="48.24363" lon="6.43041">
        <ele>302.2998</ele>
        <time>2026-05-17T14:56:03+02:00</time>
      </trkpt>
      <trkpt lat="48.24368" lon="6.43037">
        <ele>302.7002</ele>
        <time>2026-05-17T14:56:04+02:00</time>
      </trkpt>
      <trkpt lat="48.24374" lon="6.43033">
        <ele>302.6006</ele>
        <time>2026-05-17T14:56:05+02:00</time>
      </trkpt>
      <trkpt lat="48.24379" lon="6.43028">
        <ele>303.1006</ele>
        <time>2026-05-17T14:56:06+02:00</time>
      </trkpt>
      <trkpt lat="48.24383" lon="6.43024">
        <ele>303.2002</ele>
        <time>2026-05-17T14:56:07+02:00</time>
      </trkpt>
      <trkpt lat="48.24388" lon="6.4302">
        <ele>303.2002</ele>
        <time>2026-05-17T14:56:08+02:00</time>
      </trkpt>
      <trkpt lat="48.24393" lon="6.43016">
        <ele>303.2998</ele>
        <time>2026-05-17T14:56:09+02:00</time>
      </trkpt>
      <trkpt lat="48.24397" lon="6.43012">
        <ele>303.6006</ele>
        <time>2026-05-17T14:56:10+02:00</time>
      </trkpt>
      <trkpt lat="48.24402" lon="6.43008">
        <ele>303.7002</ele>
        <time>2026-05-17T14:56:11+02:00</time>
      </trkpt>
      <trkpt lat="48.24405" lon="6.43004">
        <ele>303.7002</ele>
        <time>2026-05-17T14:56:12+02:00</time>
      </trkpt>
      <trkpt lat="48.2441" lon="6.43001">
        <ele>303.9004</ele>
        <time>2026-05-17T14:56:13+02:00</time>
      </trkpt>
      <trkpt lat="48.24412" lon="6.42999">
        <ele>304.2002</ele>
        <time>2026-05-17T14:56:14+02:00</time>
      </trkpt>
      <trkpt lat="48.24418" lon="6.42993">
        <ele>304.2002</ele>
        <time>2026-05-17T14:56:15+02:00</time>
      </trkpt>
      <trkpt lat="48.2442" lon="6.42988">
        <ele>304.1006</ele>
        <time>2026-05-17T14:56:16+02:00</time>
      </trkpt>
      <trkpt lat="48.24423" lon="6.42982">
        <ele>303.9004</ele>
        <time>2026-05-17T14:56:17+02:00</time>
      </trkpt>
      <trkpt lat="48.24426" lon="6.42976">
        <ele>303.9004</ele>
        <time>2026-05-17T14:56:18+02:00</time>
      </trkpt>
      <trkpt lat="48.24428" lon="6.4297">
        <ele>303.7002</ele>
        <time>2026-05-17T14:56:19+02:00</time>
      </trkpt>
      <trkpt lat="48.24431" lon="6.42964">
        <ele>303.6006</ele>
        <time>2026-05-17T14:56:20+02:00</time>
      </trkpt>
      <trkpt lat="48.24434" lon="6.42958">
        <ele>303.6006</ele>
        <time>2026-05-17T14:56:21+02:00</time>
      </trkpt>
      <trkpt lat="48.24437" lon="6.42953">
        <ele>303.4004</ele>
        <time>2026-05-17T14:56:22+02:00</time>
      </trkpt>
      <trkpt lat="48.2444" lon="6.42947">
        <ele>303</ele>
        <time>2026-05-17T14:56:23+02:00</time>
      </trkpt>
      <trkpt lat="48.24442" lon="6.42941">
        <ele>303</ele>
        <time>2026-05-17T14:56:24+02:00</time>
      </trkpt>
      <trkpt lat="48.24445" lon="6.42936">
        <ele>302.7002</ele>
        <time>2026-05-17T14:56:25+02:00</time>
      </trkpt>
      <trkpt lat="48.24447" lon="6.42931">
        <ele>302.1006</ele>
        <time>2026-05-17T14:56:26+02:00</time>
      </trkpt>
      <trkpt lat="48.24449" lon="6.42926">
        <ele>302.1006</ele>
        <time>2026-05-17T14:56:27+02:00</time>
      </trkpt>
      <trkpt lat="48.24451" lon="6.42921">
        <ele>301.5</ele>
        <time>2026-05-17T14:56:28+02:00</time>
      </trkpt>
      <trkpt lat="48.24453" lon="6.42916">
        <ele>301.6006</ele>
        <time>2026-05-17T14:56:29+02:00</time>
      </trkpt>
      <trkpt lat="48.24456" lon="6.4291">
        <ele>301.2998</ele>
        <time>2026-05-17T14:56:30+02:00</time>
      </trkpt>
      <trkpt lat="48.24458" lon="6.42905">
        <ele>301.2002</ele>
        <time>2026-05-17T14:56:31+02:00</time>
      </trkpt>
      <trkpt lat="48.24461" lon="6.42899">
        <ele>301.2002</ele>
        <time>2026-05-17T14:56:32+02:00</time>
      </trkpt>
      <trkpt lat="48.24463" lon="6.42894">
        <ele>301.2002</ele>
        <time>2026-05-17T14:56:33+02:00</time>
      </trkpt>
      <trkpt lat="48.24466" lon="6.42888">
        <ele>301.1006</ele>
        <time>2026-05-17T14:56:34+02:00</time>
      </trkpt>
      <trkpt lat="48.24469" lon="6.42882">
        <ele>301.2002</ele>
        <time>2026-05-17T14:56:35+02:00</time>
      </trkpt>
      <trkpt lat="48.24471" lon="6.42876">
        <ele>301</ele>
        <time>2026-05-17T14:56:36+02:00</time>
      </trkpt>
      <trkpt lat="48.24474" lon="6.4287">
        <ele>301</ele>
        <time>2026-05-17T14:56:37+02:00</time>
      </trkpt>
      <trkpt lat="48.24477" lon="6.42864">
        <ele>301</ele>
        <time>2026-05-17T14:56:38+02:00</time>
      </trkpt>
      <trkpt lat="48.2448" lon="6.42857">
        <ele>301.1006</ele>
        <time>2026-05-17T14:56:39+02:00</time>
      </trkpt>
      <trkpt lat="48.24482" lon="6.42851">
        <ele>300.7998</ele>
        <time>2026-05-17T14:56:40+02:00</time>
      </trkpt>
      <trkpt lat="48.24485" lon="6.42845">
        <ele>300.6006</ele>
        <time>2026-05-17T14:56:41+02:00</time>
      </trkpt>
      <trkpt lat="48.24486" lon="6.42842">
        <ele>300.7002</ele>
        <time>2026-05-17T14:56:42+02:00</time>
      </trkpt>
      <trkpt lat="48.24489" lon="6.42833">
        <ele>300.7002</ele>
        <time>2026-05-17T14:56:43+02:00</time>
      </trkpt>
      <trkpt lat="48.24492" lon="6.42828">
        <ele>300.7002</ele>
        <time>2026-05-17T14:56:44+02:00</time>
      </trkpt>
      <trkpt lat="48.24494" lon="6.42823">
        <ele>300.7002</ele>
        <time>2026-05-17T14:56:45+02:00</time>
      </trkpt>
      <trkpt lat="48.24496" lon="6.42817">
        <ele>300.7002</ele>
        <time>2026-05-17T14:56:46+02:00</time>
      </trkpt>
      <trkpt lat="48.24498" lon="6.42812">
        <ele>300.7998</ele>
        <time>2026-05-17T14:56:47+02:00</time>
      </trkpt>
      <trkpt lat="48.24501" lon="6.42808">
        <ele>300.7998</ele>
        <time>2026-05-17T14:56:48+02:00</time>
      </trkpt>
      <trkpt lat="48.24503" lon="6.42802">
        <ele>301.2002</ele>
        <time>2026-05-17T14:56:49+02:00</time>
      </trkpt>
      <trkpt lat="48.24505" lon="6.42797">
        <ele>301.2002</ele>
        <time>2026-05-17T14:56:50+02:00</time>
      </trkpt>
      <trkpt lat="48.24508" lon="6.42791">
        <ele>301.4004</ele>
        <time>2026-05-17T14:56:51+02:00</time>
      </trkpt>
      <trkpt lat="48.24511" lon="6.42786">
        <ele>301.4004</ele>
        <time>2026-05-17T14:56:52+02:00</time>
      </trkpt>
      <trkpt lat="48.24514" lon="6.4278">
        <ele>301.2998</ele>
        <time>2026-05-17T14:56:53+02:00</time>
      </trkpt>
      <trkpt lat="48.24517" lon="6.42774">
        <ele>300.9004</ele>
        <time>2026-05-17T14:56:54+02:00</time>
      </trkpt>
      <trkpt lat="48.2452" lon="6.42769">
        <ele>301.1006</ele>
        <time>2026-05-17T14:56:55+02:00</time>
      </trkpt>
      <trkpt lat="48.24524" lon="6.42763">
        <ele>301.2002</ele>
        <time>2026-05-17T14:56:56+02:00</time>
      </trkpt>
      <trkpt lat="48.24527" lon="6.42757">
        <ele>301.7998</ele>
        <time>2026-05-17T14:56:57+02:00</time>
      </trkpt>
      <trkpt lat="48.24531" lon="6.42752">
        <ele>302.1006</ele>
        <time>2026-05-17T14:56:58+02:00</time>
      </trkpt>
      <trkpt lat="48.24536" lon="6.42747">
        <ele>301.5</ele>
        <time>2026-05-17T14:56:59+02:00</time>
      </trkpt>
      <trkpt lat="48.2454" lon="6.42742">
        <ele>301</ele>
        <time>2026-05-17T14:57:00+02:00</time>
      </trkpt>
      <trkpt lat="48.24544" lon="6.42736">
        <ele>301.2998</ele>
        <time>2026-05-17T14:57:01+02:00</time>
      </trkpt>
      <trkpt lat="48.24545" lon="6.42734">
        <ele>301.2998</ele>
        <time>2026-05-17T14:57:02+02:00</time>
      </trkpt>
      <trkpt lat="48.24552" lon="6.42726">
        <ele>302</ele>
        <time>2026-05-17T14:57:03+02:00</time>
      </trkpt>
      <trkpt lat="48.24556" lon="6.42721">
        <ele>302.4004</ele>
        <time>2026-05-17T14:57:04+02:00</time>
      </trkpt>
      <trkpt lat="48.24561" lon="6.42716">
        <ele>301.9004</ele>
        <time>2026-05-17T14:57:05+02:00</time>
      </trkpt>
      <trkpt lat="48.24566" lon="6.42711">
        <ele>302.2998</ele>
        <time>2026-05-17T14:57:06+02:00</time>
      </trkpt>
      <trkpt lat="48.24571" lon="6.42706">
        <ele>301.5</ele>
        <time>2026-05-17T14:57:07+02:00</time>
      </trkpt>
      <trkpt lat="48.24575" lon="6.42701">
        <ele>302.1006</ele>
        <time>2026-05-17T14:57:08+02:00</time>
      </trkpt>
      <trkpt lat="48.24591" lon="6.42683">
        <ele>301.6006</ele>
        <time>2026-05-17T14:57:09+02:00</time>
      </trkpt>
      <trkpt lat="48.24595" lon="6.42679">
        <ele>301.7002</ele>
        <time>2026-05-17T14:57:10+02:00</time>
      </trkpt>
      <trkpt lat="48.24598" lon="6.42674">
        <ele>300.9004</ele>
        <time>2026-05-17T14:57:11+02:00</time>
      </trkpt>
      <trkpt lat="48.24602" lon="6.4267">
        <ele>301.1006</ele>
        <time>2026-05-17T14:57:12+02:00</time>
      </trkpt>
      <trkpt lat="48.24606" lon="6.42667">
        <ele>301.5</ele>
        <time>2026-05-17T14:57:13+02:00</time>
      </trkpt>
      <trkpt lat="48.2461" lon="6.42665">
        <ele>301.1006</ele>
        <time>2026-05-17T14:57:14+02:00</time>
      </trkpt>
      <trkpt lat="48.24613" lon="6.42662">
        <ele>301.6006</ele>
        <time>2026-05-17T14:57:15+02:00</time>
      </trkpt>
      <trkpt lat="48.24616" lon="6.4266">
        <ele>301.6006</ele>
        <time>2026-05-17T14:57:16+02:00</time>
      </trkpt>
      <trkpt lat="48.24619" lon="6.42658">
        <ele>302.2002</ele>
        <time>2026-05-17T14:57:17+02:00</time>
      </trkpt>
      <trkpt lat="48.24622" lon="6.42657">
        <ele>301.7998</ele>
        <time>2026-05-17T14:57:18+02:00</time>
      </trkpt>
      <trkpt lat="48.24625" lon="6.42656">
        <ele>302.2002</ele>
        <time>2026-05-17T14:57:19+02:00</time>
      </trkpt>
      <trkpt lat="48.24627" lon="6.42656">
        <ele>302.2002</ele>
        <time>2026-05-17T14:57:20+02:00</time>
      </trkpt>
      <trkpt lat="48.24629" lon="6.42657">
        <ele>302.2998</ele>
        <time>2026-05-17T14:57:21+02:00</time>
      </trkpt>
      <trkpt lat="48.2463" lon="6.42657">
        <ele>302.2998</ele>
        <time>2026-05-17T14:57:22+02:00</time>
      </trkpt>
      <trkpt lat="48.2463" lon="6.42657">
        <ele>302.2998</ele>
        <time>2026-05-17T14:57:23+02:00</time>
      </trkpt>
      <trkpt lat="48.2463" lon="6.42657">
        <ele>302.2998</ele>
        <time>2026-05-17T14:57:24+02:00</time>
      </trkpt>
      <trkpt lat="48.2463" lon="6.42657">
        <ele>302.2998</ele>
        <time>2026-05-17T14:57:25+02:00</time>
      </trkpt>
      <trkpt lat="48.2463" lon="6.42657">
        <ele>302.2998</ele>
        <time>2026-05-17T14:57:26+02:00</time>
      </trkpt>
      <trkpt lat="48.2463" lon="6.42657">
        <ele>302.2998</ele>
        <time>2026-05-17T14:57:27+02:00</time>
      </trkpt>
      <trkpt lat="48.24693" lon="6.42553">
        <ele>300.6006</ele>
        <time>2026-05-17T15:04:19+02:00</time>
      </trkpt>
      <trkpt lat="48.24697" lon="6.42549">
        <ele>300.5</ele>
        <time>2026-05-17T15:04:20+02:00</time>
      </trkpt>
      <trkpt lat="48.24701" lon="6.42546">
        <ele>300.5</ele>
        <time>2026-05-17T15:04:21+02:00</time>
      </trkpt>
      <trkpt lat="48.24706" lon="6.42542">
        <ele>300.7002</ele>
        <time>2026-05-17T15:04:22+02:00</time>
      </trkpt>
      <trkpt lat="48.24711" lon="6.42538">
        <ele>300.6006</ele>
        <time>2026-05-17T15:04:23+02:00</time>
      </trkpt>
      <trkpt lat="48.24716" lon="6.42535">
        <ele>300.9004</ele>
        <time>2026-05-17T15:04:24+02:00</time>
      </trkpt>
      <trkpt lat="48.24721" lon="6.42532">
        <ele>300.9004</ele>
        <time>2026-05-17T15:04:25+02:00</time>
      </trkpt>
      <trkpt lat="48.24726" lon="6.42528">
        <ele>301.4004</ele>
        <time>2026-05-17T15:04:26+02:00</time>
      </trkpt>
      <trkpt lat="48.24731" lon="6.42524">
        <ele>301.4004</ele>
        <time>2026-05-17T15:04:27+02:00</time>
      </trkpt>
      <trkpt lat="48.24737" lon="6.42521">
        <ele>301</ele>
        <time>2026-05-17T15:04:28+02:00</time>
      </trkpt>
      <trkpt lat="48.24741" lon="6.42518">
        <ele>301.4004</ele>
        <time>2026-05-17T15:04:29+02:00</time>
      </trkpt>
      <trkpt lat="48.24747" lon="6.42516">
        <ele>301</ele>
        <time>2026-05-17T15:04:30+02:00</time>
      </trkpt>
      <trkpt lat="48.24753" lon="6.42514">
        <ele>300.6006</ele>
        <time>2026-05-17T15:04:31+02:00</time>
      </trkpt>
      <trkpt lat="48.24758" lon="6.42513">
        <ele>300.2998</ele>
        <time>2026-05-17T15:04:32+02:00</time>
      </trkpt>
      <trkpt lat="48.24764" lon="6.42512">
        <ele>300.2998</ele>
        <time>2026-05-17T15:04:33+02:00</time>
      </trkpt>
      <trkpt lat="48.24769" lon="6.4251">
        <ele>300.5</ele>
        <time>2026-05-17T15:04:34+02:00</time>
      </trkpt>
      <trkpt lat="48.24774" lon="6.42508">
        <ele>300.4004</ele>
        <time>2026-05-17T15:04:35+02:00</time>
      </trkpt>
      <trkpt lat="48.2478" lon="6.42506">
        <ele>300.2998</ele>
        <time>2026-05-17T15:04:36+02:00</time>
      </trkpt>
      <trkpt lat="48.24786" lon="6.42504">
        <ele>300.2998</ele>
        <time>2026-05-17T15:04:37+02:00</time>
      </trkpt>
      <trkpt lat="48.24791" lon="6.42503">
        <ele>300.2998</ele>
        <time>2026-05-17T15:04:38+02:00</time>
      </trkpt>
      <trkpt lat="48.24797" lon="6.42501">
        <ele>300.5</ele>
        <time>2026-05-17T15:04:39+02:00</time>
      </trkpt>
      <trkpt lat="48.24803" lon="6.425">
        <ele>300.5</ele>
        <time>2026-05-17T15:04:40+02:00</time>
      </trkpt>
      <trkpt lat="48.24809" lon="6.42499">
        <ele>300.5</ele>
        <time>2026-05-17T15:04:41+02:00</time>
      </trkpt>
      <trkpt lat="48.24815" lon="6.42498">
        <ele>300.5</ele>
        <time>2026-05-17T15:04:42+02:00</time>
      </trkpt>
      <trkpt lat="48.24821" lon="6.42497">
        <ele>300.5</ele>
        <time>2026-05-17T15:04:43+02:00</time>
      </trkpt>
      <trkpt lat="48.24827" lon="6.42497">
        <ele>300.5</ele>
        <time>2026-05-17T15:04:44+02:00</time>
      </trkpt>
      <trkpt lat="48.24832" lon="6.42496">
        <ele>300.5</ele>
        <time>2026-05-17T15:04:45+02:00</time>
      </trkpt>
      <trkpt lat="48.24838" lon="6.42495">
        <ele>300.4004</ele>
        <time>2026-05-17T15:04:46+02:00</time>
      </trkpt>
      <trkpt lat="48.24844" lon="6.42493">
        <ele>300.7002</ele>
        <time>2026-05-17T15:04:47+02:00</time>
      </trkpt>
      <trkpt lat="48.2485" lon="6.42492">
        <ele>300.7002</ele>
        <time>2026-05-17T15:04:48+02:00</time>
      </trkpt>
      <trkpt lat="48.24856" lon="6.42491">
        <ele>300.6006</ele>
        <time>2026-05-17T15:04:49+02:00</time>
      </trkpt>
      <trkpt lat="48.24861" lon="6.42491">
        <ele>300.5</ele>
        <time>2026-05-17T15:04:50+02:00</time>
      </trkpt>
      <trkpt lat="48.24867" lon="6.4249">
        <ele>300.5</ele>
        <time>2026-05-17T15:04:51+02:00</time>
      </trkpt>
      <trkpt lat="48.24872" lon="6.42489">
        <ele>300.4004</ele>
        <time>2026-05-17T15:04:52+02:00</time>
      </trkpt>
      <trkpt lat="48.24878" lon="6.42488">
        <ele>300.4004</ele>
        <time>2026-05-17T15:04:53+02:00</time>
      </trkpt>
      <trkpt lat="48.24883" lon="6.42487">
        <ele>300.4004</ele>
        <time>2026-05-17T15:04:54+02:00</time>
      </trkpt>
      <trkpt lat="48.24889" lon="6.42486">
        <ele>300.4004</ele>
        <time>2026-05-17T15:04:55+02:00</time>
      </trkpt>
      <trkpt lat="48.24894" lon="6.42485">
        <ele>300.7998</ele>
        <time>2026-05-17T15:04:56+02:00</time>
      </trkpt>
      <trkpt lat="48.249" lon="6.42484">
        <ele>300.7998</ele>
        <time>2026-05-17T15:04:57+02:00</time>
      </trkpt>
      <trkpt lat="48.24906" lon="6.42484">
        <ele>300.7998</ele>
        <time>2026-05-17T15:04:58+02:00</time>
      </trkpt>
      <trkpt lat="48.24911" lon="6.42483">
        <ele>300.7998</ele>
        <time>2026-05-17T15:04:59+02:00</time>
      </trkpt>
      <trkpt lat="48.24917" lon="6.42482">
        <ele>300.7998</ele>
        <time>2026-05-17T15:05:00+02:00</time>
      </trkpt>
      <trkpt lat="48.24922" lon="6.42481">
        <ele>300.7998</ele>
        <time>2026-05-17T15:05:01+02:00</time>
      </trkpt>
      <trkpt lat="48.24927" lon="6.42481">
        <ele>300.7998</ele>
        <time>2026-05-17T15:05:02+02:00</time>
      </trkpt>
      <trkpt lat="48.24933" lon="6.4248">
        <ele>300.7002</ele>
        <time>2026-05-17T15:05:03+02:00</time>
      </trkpt>
      <trkpt lat="48.24938" lon="6.42479">
        <ele>300.7002</ele>
        <time>2026-05-17T15:05:04+02:00</time>
      </trkpt>
      <trkpt lat="48.24944" lon="6.42478">
        <ele>300.7002</ele>
        <time>2026-05-17T15:05:05+02:00</time>
      </trkpt>
      <trkpt lat="48.24949" lon="6.42477">
        <ele>301.2002</ele>
        <time>2026-05-17T15:05:06+02:00</time>
      </trkpt>
      <trkpt lat="48.24954" lon="6.42476">
        <ele>301.2002</ele>
        <time>2026-05-17T15:05:07+02:00</time>
      </trkpt>
      <trkpt lat="48.24959" lon="6.42475">
        <ele>301.2002</ele>
        <time>2026-05-17T15:05:08+02:00</time>
      </trkpt>
      <trkpt lat="48.24965" lon="6.42475">
        <ele>301.2002</ele>
        <time>2026-05-17T15:05:09+02:00</time>
      </trkpt>
      <trkpt lat="48.2497" lon="6.42475">
        <ele>301.1006</ele>
        <time>2026-05-17T15:05:10+02:00</time>
      </trkpt>
      <trkpt lat="48.24975" lon="6.42474">
        <ele>301.1006</ele>
        <time>2026-05-17T15:05:11+02:00</time>
      </trkpt>
      <trkpt lat="48.24981" lon="6.42474">
        <ele>301.1006</ele>
        <time>2026-05-17T15:05:12+02:00</time>
      </trkpt>
      <trkpt lat="48.24986" lon="6.42473">
        <ele>301.1006</ele>
        <time>2026-05-17T15:05:13+02:00</time>
      </trkpt>
      <trkpt lat="48.24991" lon="6.42472">
        <ele>301</ele>
        <time>2026-05-17T15:05:14+02:00</time>
      </trkpt>
      <trkpt lat="48.24996" lon="6.42471">
        <ele>301</ele>
        <time>2026-05-17T15:05:15+02:00</time>
      </trkpt>
      <trkpt lat="48.25001" lon="6.4247">
        <ele>300.9004</ele>
        <time>2026-05-17T15:05:16+02:00</time>
      </trkpt>
      <trkpt lat="48.25006" lon="6.42469">
        <ele>300.9004</ele>
        <time>2026-05-17T15:05:17+02:00</time>
      </trkpt>
      <trkpt lat="48.25012" lon="6.42468">
        <ele>301.2998</ele>
        <time>2026-05-17T15:05:18+02:00</time>
      </trkpt>
      <trkpt lat="48.25017" lon="6.42467">
        <ele>301.2002</ele>
        <time>2026-05-17T15:05:19+02:00</time>
      </trkpt>
      <trkpt lat="48.25022" lon="6.42466">
        <ele>301.2002</ele>
        <time>2026-05-17T15:05:20+02:00</time>
      </trkpt>
      <trkpt lat="48.25028" lon="6.42464">
        <ele>301.2002</ele>
        <time>2026-05-17T15:05:21+02:00</time>
      </trkpt>
      <trkpt lat="48.25033" lon="6.42463">
        <ele>301.2002</ele>
        <time>2026-05-17T15:05:22+02:00</time>
      </trkpt>
      <trkpt lat="48.25039" lon="6.42461">
        <ele>301.2002</ele>
        <time>2026-05-17T15:05:23+02:00</time>
      </trkpt>
      <trkpt lat="48.25044" lon="6.42459">
        <ele>301.5</ele>
        <time>2026-05-17T15:05:24+02:00</time>
      </trkpt>
      <trkpt lat="48.25049" lon="6.42457">
        <ele>301.2998</ele>
        <time>2026-05-17T15:05:25+02:00</time>
      </trkpt>
      <trkpt lat="48.25055" lon="6.42455">
        <ele>301</ele>
        <time>2026-05-17T15:05:26+02:00</time>
      </trkpt>
      <trkpt lat="48.2506" lon="6.42453">
        <ele>300.4004</ele>
        <time>2026-05-17T15:05:27+02:00</time>
      </trkpt>
      <trkpt lat="48.25066" lon="6.42451">
        <ele>300.2002</ele>
        <time>2026-05-17T15:05:28+02:00</time>
      </trkpt>
      <trkpt lat="48.25071" lon="6.42449">
        <ele>300</ele>
        <time>2026-05-17T15:05:29+02:00</time>
      </trkpt>
      <trkpt lat="48.25076" lon="6.42448">
        <ele>299.9004</ele>
        <time>2026-05-17T15:05:30+02:00</time>
      </trkpt>
      <trkpt lat="48.25082" lon="6.42445">
        <ele>299.9004</ele>
        <time>2026-05-17T15:05:31+02:00</time>
      </trkpt>
      <trkpt lat="48.25087" lon="6.42444">
        <ele>299.7998</ele>
        <time>2026-05-17T15:05:32+02:00</time>
      </trkpt>
      <trkpt lat="48.25089" lon="6.42443">
        <ele>299.7998</ele>
        <time>2026-05-17T15:05:33+02:00</time>
      </trkpt>
      <trkpt lat="48.25097" lon="6.42441">
        <ele>300</ele>
        <time>2026-05-17T15:05:34+02:00</time>
      </trkpt>
      <trkpt lat="48.25102" lon="6.42438">
        <ele>299.7998</ele>
        <time>2026-05-17T15:05:35+02:00</time>
      </trkpt>
      <trkpt lat="48.25105" lon="6.42435">
        <ele>299.5</ele>
        <time>2026-05-17T15:05:36+02:00</time>
      </trkpt>
      <trkpt lat="48.2511" lon="6.42431">
        <ele>299.5</ele>
        <time>2026-05-17T15:05:37+02:00</time>
      </trkpt>
      <trkpt lat="48.25115" lon="6.42426">
        <ele>299.5</ele>
        <time>2026-05-17T15:05:38+02:00</time>
      </trkpt>
      <trkpt lat="48.2512" lon="6.42422">
        <ele>299.6006</ele>
        <time>2026-05-17T15:05:39+02:00</time>
      </trkpt>
      <trkpt lat="48.25125" lon="6.42419">
        <ele>299.6006</ele>
        <time>2026-05-17T15:05:40+02:00</time>
      </trkpt>
      <trkpt lat="48.2513" lon="6.42415">
        <ele>299.7002</ele>
        <time>2026-05-17T15:05:41+02:00</time>
      </trkpt>
      <trkpt lat="48.25135" lon="6.42412">
        <ele>299.6006</ele>
        <time>2026-05-17T15:05:42+02:00</time>
      </trkpt>
      <trkpt lat="48.2514" lon="6.42409">
        <ele>299.6006</ele>
        <time>2026-05-17T15:05:43+02:00</time>
      </trkpt>
      <trkpt lat="48.25144" lon="6.42406">
        <ele>299.7998</ele>
        <time>2026-05-17T15:05:44+02:00</time>
      </trkpt>
      <trkpt lat="48.25149" lon="6.42403">
        <ele>299.7998</ele>
        <time>2026-05-17T15:05:45+02:00</time>
      </trkpt>
      <trkpt lat="48.25153" lon="6.42399">
        <ele>300.1006</ele>
        <time>2026-05-17T15:05:46+02:00</time>
      </trkpt>
      <trkpt lat="48.25158" lon="6.42395">
        <ele>300.1006</ele>
        <time>2026-05-17T15:05:47+02:00</time>
      </trkpt>
      <trkpt lat="48.25163" lon="6.42391">
        <ele>300.2002</ele>
        <time>2026-05-17T15:05:48+02:00</time>
      </trkpt>
      <trkpt lat="48.25167" lon="6.42387">
        <ele>299.9004</ele>
        <time>2026-05-17T15:05:49+02:00</time>
      </trkpt>
      <trkpt lat="48.25172" lon="6.42383">
        <ele>299.7002</ele>
        <time>2026-05-17T15:05:50+02:00</time>
      </trkpt>
      <trkpt lat="48.25177" lon="6.42379">
        <ele>299.6006</ele>
        <time>2026-05-17T15:05:51+02:00</time>
      </trkpt>
      <trkpt lat="48.25182" lon="6.42375">
        <ele>299.6006</ele>
        <time>2026-05-17T15:05:52+02:00</time>
      </trkpt>
      <trkpt lat="48.25186" lon="6.4237">
        <ele>299.7998</ele>
        <time>2026-05-17T15:05:53+02:00</time>
      </trkpt>
      <trkpt lat="48.25191" lon="6.42366">
        <ele>299.7998</ele>
        <time>2026-05-17T15:05:54+02:00</time>
      </trkpt>
      <trkpt lat="48.25195" lon="6.42362">
        <ele>299.9004</ele>
        <time>2026-05-17T15:05:55+02:00</time>
      </trkpt>
      <trkpt lat="48.252" lon="6.42358">
        <ele>299.9004</ele>
        <time>2026-05-17T15:05:56+02:00</time>
      </trkpt>
      <trkpt lat="48.25203" lon="6.42353">
        <ele>300</ele>
        <time>2026-05-17T15:05:57+02:00</time>
      </trkpt>
      <trkpt lat="48.25207" lon="6.42349">
        <ele>299.9004</ele>
        <time>2026-05-17T15:05:58+02:00</time>
      </trkpt>
      <trkpt lat="48.25211" lon="6.42345">
        <ele>300</ele>
        <time>2026-05-17T15:05:59+02:00</time>
      </trkpt>
      <trkpt lat="48.25215" lon="6.42341">
        <ele>299.7998</ele>
        <time>2026-05-17T15:06:00+02:00</time>
      </trkpt>
      <trkpt lat="48.25218" lon="6.42337">
        <ele>299.7998</ele>
        <time>2026-05-17T15:06:01+02:00</time>
      </trkpt>
      <trkpt lat="48.25221" lon="6.42333">
        <ele>299.7998</ele>
        <time>2026-05-17T15:06:02+02:00</time>
      </trkpt>
      <trkpt lat="48.25224" lon="6.4233">
        <ele>299.9004</ele>
        <time>2026-05-17T15:06:03+02:00</time>
      </trkpt>
      <trkpt lat="48.25228" lon="6.42326">
        <ele>299.9004</ele>
        <time>2026-05-17T15:06:04+02:00</time>
      </trkpt>
      <trkpt lat="48.25231" lon="6.42321">
        <ele>299.7998</ele>
        <time>2026-05-17T15:06:05+02:00</time>
      </trkpt>
      <trkpt lat="48.25235" lon="6.42318">
        <ele>299.7002</ele>
        <time>2026-05-17T15:06:06+02:00</time>
      </trkpt>
      <trkpt lat="48.2524" lon="6.42314">
        <ele>299.5</ele>
        <time>2026-05-17T15:06:07+02:00</time>
      </trkpt>
      <trkpt lat="48.25244" lon="6.42309">
        <ele>299.6006</ele>
        <time>2026-05-17T15:06:08+02:00</time>
      </trkpt>
      <trkpt lat="48.25248" lon="6.42305">
        <ele>299.7002</ele>
        <time>2026-05-17T15:06:09+02:00</time>
      </trkpt>
      <trkpt lat="48.25252" lon="6.42301">
        <ele>299.7002</ele>
        <time>2026-05-17T15:06:10+02:00</time>
      </trkpt>
      <trkpt lat="48.25255" lon="6.42296">
        <ele>300</ele>
        <time>2026-05-17T15:06:11+02:00</time>
      </trkpt>
      <trkpt lat="48.25259" lon="6.42293">
        <ele>300</ele>
        <time>2026-05-17T15:06:12+02:00</time>
      </trkpt>
      <trkpt lat="48.25263" lon="6.4229">
        <ele>300</ele>
        <time>2026-05-17T15:06:13+02:00</time>
      </trkpt>
      <trkpt lat="48.25266" lon="6.42287">
        <ele>300.2002</ele>
        <time>2026-05-17T15:06:14+02:00</time>
      </trkpt>
      <trkpt lat="48.25269" lon="6.42284">
        <ele>300.1006</ele>
        <time>2026-05-17T15:06:15+02:00</time>
      </trkpt>
      <trkpt lat="48.25273" lon="6.4228">
        <ele>300.1006</ele>
        <time>2026-05-17T15:06:16+02:00</time>
      </trkpt>
      <trkpt lat="48.25277" lon="6.42275">
        <ele>299.9004</ele>
        <time>2026-05-17T15:06:17+02:00</time>
      </trkpt>
      <trkpt lat="48.25281" lon="6.42271">
        <ele>299.9004</ele>
        <time>2026-05-17T15:06:18+02:00</time>
      </trkpt>
      <trkpt lat="48.25285" lon="6.42266">
        <ele>299.9004</ele>
        <time>2026-05-17T15:06:19+02:00</time>
      </trkpt>
      <trkpt lat="48.25289" lon="6.42262">
        <ele>300.1006</ele>
        <time>2026-05-17T15:06:20+02:00</time>
      </trkpt>
      <trkpt lat="48.25294" lon="6.42257">
        <ele>300</ele>
        <time>2026-05-17T15:06:21+02:00</time>
      </trkpt>
      <trkpt lat="48.25296" lon="6.42255">
        <ele>300</ele>
        <time>2026-05-17T15:06:22+02:00</time>
      </trkpt>
      <trkpt lat="48.25303" lon="6.42248">
        <ele>299.7998</ele>
        <time>2026-05-17T15:06:23+02:00</time>
      </trkpt>
      <trkpt lat="48.25308" lon="6.42243">
        <ele>299.7002</ele>
        <time>2026-05-17T15:06:24+02:00</time>
      </trkpt>
      <trkpt lat="48.25312" lon="6.42238">
        <ele>299.5</ele>
        <time>2026-05-17T15:06:25+02:00</time>
      </trkpt>
      <trkpt lat="48.25317" lon="6.42233">
        <ele>299.4004</ele>
        <time>2026-05-17T15:06:26+02:00</time>
      </trkpt>
      <trkpt lat="48.25321" lon="6.42229">
        <ele>299.4004</ele>
        <time>2026-05-17T15:06:27+02:00</time>
      </trkpt>
      <trkpt lat="48.25326" lon="6.42224">
        <ele>299.4004</ele>
        <time>2026-05-17T15:06:28+02:00</time>
      </trkpt>
      <trkpt lat="48.2533" lon="6.42219">
        <ele>299.4004</ele>
        <time>2026-05-17T15:06:29+02:00</time>
      </trkpt>
      <trkpt lat="48.25335" lon="6.42213">
        <ele>299.2998</ele>
        <time>2026-05-17T15:06:30+02:00</time>
      </trkpt>
      <trkpt lat="48.2534" lon="6.42208">
        <ele>299.2998</ele>
        <time>2026-05-17T15:06:31+02:00</time>
      </trkpt>
      <trkpt lat="48.25344" lon="6.42203">
        <ele>299.4004</ele>
        <time>2026-05-17T15:06:32+02:00</time>
      </trkpt>
      <trkpt lat="48.25348" lon="6.42198">
        <ele>299.5</ele>
        <time>2026-05-17T15:06:33+02:00</time>
      </trkpt>
      <trkpt lat="48.25353" lon="6.42194">
        <ele>299.5</ele>
        <time>2026-05-17T15:06:34+02:00</time>
      </trkpt>
      <trkpt lat="48.25358" lon="6.42188">
        <ele>299.7998</ele>
        <time>2026-05-17T15:06:35+02:00</time>
      </trkpt>
      <trkpt lat="48.25363" lon="6.42183">
        <ele>299.9004</ele>
        <time>2026-05-17T15:06:36+02:00</time>
      </trkpt>
      <trkpt lat="48.25367" lon="6.42178">
        <ele>299.7998</ele>
        <time>2026-05-17T15:06:37+02:00</time>
      </trkpt>
      <trkpt lat="48.25371" lon="6.42174">
        <ele>299.7002</ele>
        <time>2026-05-17T15:06:38+02:00</time>
      </trkpt>
      <trkpt lat="48.25375" lon="6.4217">
        <ele>299.6006</ele>
        <time>2026-05-17T15:06:39+02:00</time>
      </trkpt>
      <trkpt lat="48.25379" lon="6.42165">
        <ele>299.6006</ele>
        <time>2026-05-17T15:06:40+02:00</time>
      </trkpt>
      <trkpt lat="48.25383" lon="6.42161">
        <ele>299.7998</ele>
        <time>2026-05-17T15:06:41+02:00</time>
      </trkpt>
      <trkpt lat="48.25387" lon="6.42156">
        <ele>299.7998</ele>
        <time>2026-05-17T15:06:42+02:00</time>
      </trkpt>
      <trkpt lat="48.2539" lon="6.42152">
        <ele>299.9004</ele>
        <time>2026-05-17T15:06:43+02:00</time>
      </trkpt>
      <trkpt lat="48.25393" lon="6.42148">
        <ele>299.7998</ele>
        <time>2026-05-17T15:06:44+02:00</time>
      </trkpt>
      <trkpt lat="48.25397" lon="6.42145">
        <ele>299.7002</ele>
        <time>2026-05-17T15:06:45+02:00</time>
      </trkpt>
      <trkpt lat="48.25401" lon="6.42142">
        <ele>299.5</ele>
        <time>2026-05-17T15:06:46+02:00</time>
      </trkpt>
      <trkpt lat="48.25404" lon="6.42138">
        <ele>299.5</ele>
        <time>2026-05-17T15:06:47+02:00</time>
      </trkpt>
      <trkpt lat="48.25408" lon="6.42134">
        <ele>299.5</ele>
        <time>2026-05-17T15:06:48+02:00</time>
      </trkpt>
      <trkpt lat="48.25413" lon="6.4213">
        <ele>299.4004</ele>
        <time>2026-05-17T15:06:49+02:00</time>
      </trkpt>
      <trkpt lat="48.25417" lon="6.42126">
        <ele>299.4004</ele>
        <time>2026-05-17T15:06:50+02:00</time>
      </trkpt>
      <trkpt lat="48.25421" lon="6.42123">
        <ele>299.4004</ele>
        <time>2026-05-17T15:06:51+02:00</time>
      </trkpt>
      <trkpt lat="48.25426" lon="6.42119">
        <ele>299.6006</ele>
        <time>2026-05-17T15:06:52+02:00</time>
      </trkpt>
      <trkpt lat="48.2543" lon="6.42115">
        <ele>299.6006</ele>
        <time>2026-05-17T15:06:53+02:00</time>
      </trkpt>
      <trkpt lat="48.25434" lon="6.42111">
        <ele>299.6006</ele>
        <time>2026-05-17T15:06:54+02:00</time>
      </trkpt>
      <trkpt lat="48.25438" lon="6.42107">
        <ele>299.5</ele>
        <time>2026-05-17T15:06:55+02:00</time>
      </trkpt>
      <trkpt lat="48.25442" lon="6.42103">
        <ele>299.6006</ele>
        <time>2026-05-17T15:06:56+02:00</time>
      </trkpt>
      <trkpt lat="48.25445" lon="6.421">
        <ele>299.6006</ele>
        <time>2026-05-17T15:06:57+02:00</time>
      </trkpt>
      <trkpt lat="48.25448" lon="6.42096">
        <ele>299.5</ele>
        <time>2026-05-17T15:06:58+02:00</time>
      </trkpt>
      <trkpt lat="48.2545" lon="6.42093">
        <ele>299.5</ele>
        <time>2026-05-17T15:06:59+02:00</time>
      </trkpt>
      <trkpt lat="48.25453" lon="6.42089">
        <ele>299.4004</ele>
        <time>2026-05-17T15:07:00+02:00</time>
      </trkpt>
      <trkpt lat="48.25456" lon="6.42085">
        <ele>299.4004</ele>
        <time>2026-05-17T15:07:01+02:00</time>
      </trkpt>
      <trkpt lat="48.25458" lon="6.42081">
        <ele>299.4004</ele>
        <time>2026-05-17T15:07:02+02:00</time>
      </trkpt>
      <trkpt lat="48.2546" lon="6.42078">
        <ele>299.4004</ele>
        <time>2026-05-17T15:07:03+02:00</time>
      </trkpt>
      <trkpt lat="48.25462" lon="6.42075">
        <ele>299.4004</ele>
        <time>2026-05-17T15:07:04+02:00</time>
      </trkpt>
      <trkpt lat="48.25463" lon="6.42071">
        <ele>299.4004</ele>
        <time>2026-05-17T15:07:05+02:00</time>
      </trkpt>
      <trkpt lat="48.25463" lon="6.42067">
        <ele>299.4004</ele>
        <time>2026-05-17T15:07:06+02:00</time>
      </trkpt>
      <trkpt lat="48.25461" lon="6.42063">
        <ele>299.5</ele>
        <time>2026-05-17T15:07:07+02:00</time>
      </trkpt>
      <trkpt lat="48.25459" lon="6.42058">
        <ele>299.5</ele>
        <time>2026-05-17T15:07:08+02:00</time>
      </trkpt>
      <trkpt lat="48.25457" lon="6.42052">
        <ele>299.6006</ele>
        <time>2026-05-17T15:07:09+02:00</time>
      </trkpt>
      <trkpt lat="48.25456" lon="6.42049">
        <ele>299.7002</ele>
        <time>2026-05-17T15:07:10+02:00</time>
      </trkpt>
      <trkpt lat="48.25451" lon="6.42038">
        <ele>300.1006</ele>
        <time>2026-05-17T15:07:11+02:00</time>
      </trkpt>
      <trkpt lat="48.25448" lon="6.42031">
        <ele>300.1006</ele>
        <time>2026-05-17T15:07:12+02:00</time>
      </trkpt>
      <trkpt lat="48.25444" lon="6.42024">
        <ele>300.2998</ele>
        <time>2026-05-17T15:07:13+02:00</time>
      </trkpt>
      <trkpt lat="48.25442" lon="6.4202">
        <ele>300.2998</ele>
        <time>2026-05-17T15:07:14+02:00</time>
      </trkpt>
      <trkpt lat="48.25437" lon="6.42009">
        <ele>300.5</ele>
        <time>2026-05-17T15:07:15+02:00</time>
      </trkpt>
      <trkpt lat="48.25434" lon="6.42001">
        <ele>300.6006</ele>
        <time>2026-05-17T15:07:16+02:00</time>
      </trkpt>
      <trkpt lat="48.2543" lon="6.41994">
        <ele>300.7002</ele>
        <time>2026-05-17T15:07:17+02:00</time>
      </trkpt>
      <trkpt lat="48.25427" lon="6.41986">
        <ele>300.9004</ele>
        <time>2026-05-17T15:07:18+02:00</time>
      </trkpt>
      <trkpt lat="48.25424" lon="6.4198">
        <ele>300.9004</ele>
        <time>2026-05-17T15:07:19+02:00</time>
      </trkpt>
      <trkpt lat="48.25421" lon="6.41973">
        <ele>301</ele>
        <time>2026-05-17T15:07:20+02:00</time>
      </trkpt>
      <trkpt lat="48.25417" lon="6.41967">
        <ele>301.2002</ele>
        <time>2026-05-17T15:07:21+02:00</time>
      </trkpt>
      <trkpt lat="48.25415" lon="6.41961">
        <ele>301.2998</ele>
        <time>2026-05-17T15:07:22+02:00</time>
      </trkpt>
      <trkpt lat="48.25412" lon="6.41956">
        <ele>301.2998</ele>
        <time>2026-05-17T15:07:23+02:00</time>
      </trkpt>
      <trkpt lat="48.2541" lon="6.41952">
        <ele>301.4004</ele>
        <time>2026-05-17T15:07:24+02:00</time>
      </trkpt>
      <trkpt lat="48.25408" lon="6.41948">
        <ele>301.4004</ele>
        <time>2026-05-17T15:07:25+02:00</time>
      </trkpt>
      <trkpt lat="48.25407" lon="6.41945">
        <ele>301.4004</ele>
        <time>2026-05-17T15:07:26+02:00</time>
      </trkpt>
      <trkpt lat="48.25406" lon="6.41941">
        <ele>301.4004</ele>
        <time>2026-05-17T15:07:27+02:00</time>
      </trkpt>
      <trkpt lat="48.25404" lon="6.41938">
        <ele>301.6006</ele>
        <time>2026-05-17T15:07:28+02:00</time>
      </trkpt>
      <trkpt lat="48.25401" lon="6.41934">
        <ele>301.6006</ele>
        <time>2026-05-17T15:07:29+02:00</time>
      </trkpt>
      <trkpt lat="48.25399" lon="6.4193">
        <ele>301.7998</ele>
        <time>2026-05-17T15:07:30+02:00</time>
      </trkpt>
      <trkpt lat="48.25397" lon="6.41925">
        <ele>301.7998</ele>
        <time>2026-05-17T15:07:31+02:00</time>
      </trkpt>
      <trkpt lat="48.25396" lon="6.41919">
        <ele>301.7002</ele>
        <time>2026-05-17T15:07:32+02:00</time>
      </trkpt>
      <trkpt lat="48.25395" lon="6.41913">
        <ele>301.7002</ele>
        <time>2026-05-17T15:07:33+02:00</time>
      </trkpt>
      <trkpt lat="48.25393" lon="6.41907">
        <ele>301.9004</ele>
        <time>2026-05-17T15:07:34+02:00</time>
      </trkpt>
      <trkpt lat="48.25392" lon="6.41901">
        <ele>301.7998</ele>
        <time>2026-05-17T15:07:35+02:00</time>
      </trkpt>
      <trkpt lat="48.25389" lon="6.41896">
        <ele>301.7998</ele>
        <time>2026-05-17T15:07:36+02:00</time>
      </trkpt>
      <trkpt lat="48.25387" lon="6.41891">
        <ele>301.7998</ele>
        <time>2026-05-17T15:07:37+02:00</time>
      </trkpt>
      <trkpt lat="48.25383" lon="6.41887">
        <ele>301.7998</ele>
        <time>2026-05-17T15:07:38+02:00</time>
      </trkpt>
      <trkpt lat="48.2538" lon="6.41882">
        <ele>301.7998</ele>
        <time>2026-05-17T15:07:39+02:00</time>
      </trkpt>
      <trkpt lat="48.25376" lon="6.41878">
        <ele>301.9004</ele>
        <time>2026-05-17T15:07:40+02:00</time>
      </trkpt>
      <trkpt lat="48.25373" lon="6.41874">
        <ele>301.7998</ele>
        <time>2026-05-17T15:07:41+02:00</time>
      </trkpt>
      <trkpt lat="48.25369" lon="6.4187">
        <ele>301.7998</ele>
        <time>2026-05-17T15:07:42+02:00</time>
      </trkpt>
      <trkpt lat="48.25366" lon="6.41865">
        <ele>301.6006</ele>
        <time>2026-05-17T15:07:43+02:00</time>
      </trkpt>
      <trkpt lat="48.25362" lon="6.41861">
        <ele>301.6006</ele>
        <time>2026-05-17T15:07:44+02:00</time>
      </trkpt>
      <trkpt lat="48.25358" lon="6.41857">
        <ele>301.4004</ele>
        <time>2026-05-17T15:07:45+02:00</time>
      </trkpt>
      <trkpt lat="48.25355" lon="6.41852">
        <ele>301.4004</ele>
        <time>2026-05-17T15:07:46+02:00</time>
      </trkpt>
      <trkpt lat="48.25351" lon="6.41848">
        <ele>301.1006</ele>
        <time>2026-05-17T15:07:47+02:00</time>
      </trkpt>
      <trkpt lat="48.25347" lon="6.41843">
        <ele>301</ele>
        <time>2026-05-17T15:07:48+02:00</time>
      </trkpt>
      <trkpt lat="48.25343" lon="6.4184">
        <ele>300.9004</ele>
        <time>2026-05-17T15:07:49+02:00</time>
      </trkpt>
      <trkpt lat="48.25338" lon="6.41837">
        <ele>300.7998</ele>
        <time>2026-05-17T15:07:50+02:00</time>
      </trkpt>
      <trkpt lat="48.25334" lon="6.41834">
        <ele>300.7998</ele>
        <time>2026-05-17T15:07:51+02:00</time>
      </trkpt>
      <trkpt lat="48.2533" lon="6.41831">
        <ele>300.7002</ele>
        <time>2026-05-17T15:07:52+02:00</time>
      </trkpt>
      <trkpt lat="48.25327" lon="6.41827">
        <ele>300.7002</ele>
        <time>2026-05-17T15:07:53+02:00</time>
      </trkpt>
      <trkpt lat="48.25324" lon="6.41822">
        <ele>300.6006</ele>
        <time>2026-05-17T15:07:54+02:00</time>
      </trkpt>
      <trkpt lat="48.25321" lon="6.41818">
        <ele>300.6006</ele>
        <time>2026-05-17T15:07:55+02:00</time>
      </trkpt>
      <trkpt lat="48.25318" lon="6.41813">
        <ele>300.5</ele>
        <time>2026-05-17T15:07:56+02:00</time>
      </trkpt>
      <trkpt lat="48.25314" lon="6.41809">
        <ele>300.6006</ele>
        <time>2026-05-17T15:07:57+02:00</time>
      </trkpt>
      <trkpt lat="48.25311" lon="6.41804">
        <ele>300.5</ele>
        <time>2026-05-17T15:07:58+02:00</time>
      </trkpt>
      <trkpt lat="48.25309" lon="6.418">
        <ele>300.5</ele>
        <time>2026-05-17T15:07:59+02:00</time>
      </trkpt>
      <trkpt lat="48.25306" lon="6.41796">
        <ele>300.6006</ele>
        <time>2026-05-17T15:08:00+02:00</time>
      </trkpt>
      <trkpt lat="48.25303" lon="6.41792">
        <ele>300.6006</ele>
        <time>2026-05-17T15:08:01+02:00</time>
      </trkpt>
      <trkpt lat="48.25301" lon="6.41788">
        <ele>300.7002</ele>
        <time>2026-05-17T15:08:02+02:00</time>
      </trkpt>
      <trkpt lat="48.253" lon="6.41783">
        <ele>300.7002</ele>
        <time>2026-05-17T15:08:03+02:00</time>
      </trkpt>
      <trkpt lat="48.253" lon="6.41778">
        <ele>300.7002</ele>
        <time>2026-05-17T15:08:04+02:00</time>
      </trkpt>
      <trkpt lat="48.253" lon="6.41773">
        <ele>300.7002</ele>
        <time>2026-05-17T15:08:05+02:00</time>
      </trkpt>
      <trkpt lat="48.25302" lon="6.41768">
        <ele>300.7002</ele>
        <time>2026-05-17T15:08:06+02:00</time>
      </trkpt>
      <trkpt lat="48.25305" lon="6.41764">
        <ele>300.6006</ele>
        <time>2026-05-17T15:08:07+02:00</time>
      </trkpt>
      <trkpt lat="48.25308" lon="6.41759">
        <ele>300.6006</ele>
        <time>2026-05-17T15:08:08+02:00</time>
      </trkpt>
      <trkpt lat="48.2531" lon="6.41755">
        <ele>300.6006</ele>
        <time>2026-05-17T15:08:09+02:00</time>
      </trkpt>
      <trkpt lat="48.25314" lon="6.4175">
        <ele>300.6006</ele>
        <time>2026-05-17T15:08:10+02:00</time>
      </trkpt>
      <trkpt lat="48.25317" lon="6.41745">
        <ele>300.5</ele>
        <time>2026-05-17T15:08:11+02:00</time>
      </trkpt>
      <trkpt lat="48.2532" lon="6.4174">
        <ele>300.5</ele>
        <time>2026-05-17T15:08:12+02:00</time>
      </trkpt>
      <trkpt lat="48.25323" lon="6.41736">
        <ele>300.5</ele>
        <time>2026-05-17T15:08:13+02:00</time>
      </trkpt>
      <trkpt lat="48.25327" lon="6.41731">
        <ele>300.5</ele>
        <time>2026-05-17T15:08:14+02:00</time>
      </trkpt>
      <trkpt lat="48.2533" lon="6.41727">
        <ele>300.6006</ele>
        <time>2026-05-17T15:08:15+02:00</time>
      </trkpt>
      <trkpt lat="48.25333" lon="6.41723">
        <ele>300.5</ele>
        <time>2026-05-17T15:08:16+02:00</time>
      </trkpt>
      <trkpt lat="48.25337" lon="6.41719">
        <ele>300.6006</ele>
        <time>2026-05-17T15:08:17+02:00</time>
      </trkpt>
      <trkpt lat="48.25339" lon="6.41715">
        <ele>300.6006</ele>
        <time>2026-05-17T15:08:18+02:00</time>
      </trkpt>
      <trkpt lat="48.25342" lon="6.41711">
        <ele>300.6006</ele>
        <time>2026-05-17T15:08:19+02:00</time>
      </trkpt>
      <trkpt lat="48.25343" lon="6.41706">
        <ele>300.6006</ele>
        <time>2026-05-17T15:08:20+02:00</time>
      </trkpt>
      <trkpt lat="48.25344" lon="6.41701">
        <ele>300.7002</ele>
        <time>2026-05-17T15:08:21+02:00</time>
      </trkpt>
      <trkpt lat="48.25343" lon="6.41696">
        <ele>300.7002</ele>
        <time>2026-05-17T15:08:22+02:00</time>
      </trkpt>
      <trkpt lat="48.25342" lon="6.41693">
        <ele>300.7002</ele>
        <time>2026-05-17T15:08:23+02:00</time>
      </trkpt>
      <trkpt lat="48.25341" lon="6.41691">
        <ele>300.7002</ele>
        <time>2026-05-17T15:08:24+02:00</time>
      </trkpt>
      <trkpt lat="48.25341" lon="6.4169">
        <ele>300.7002</ele>
        <time>2026-05-17T15:08:25+02:00</time>
      </trkpt>
      <trkpt lat="48.2534" lon="6.4169">
        <ele>300.7002</ele>
        <time>2026-05-17T15:08:26+02:00</time>
      </trkpt>
      <trkpt lat="48.25341" lon="6.4169">
        <ele>300.7002</ele>
        <time>2026-05-17T15:08:27+02:00</time>
      </trkpt>
      <trkpt lat="48.25341" lon="6.4169">
        <ele>300.7002</ele>
        <time>2026-05-17T15:08:28+02:00</time>
      </trkpt>
      <trkpt lat="48.25341" lon="6.4169">
        <ele>300.7002</ele>
        <time>2026-05-17T15:08:29+02:00</time>
      </trkpt>
      <trkpt lat="48.25341" lon="6.4169">
        <ele>300.7002</ele>
        <time>2026-05-17T15:35:49+02:00</time>
      </trkpt>
      <trkpt lat="48.25341" lon="6.4169">
        <ele>300.7002</ele>
        <time>2026-05-17T15:35:50+02:00</time>
      </trkpt>
      <trkpt lat="48.25341" lon="6.4169">
        <ele>300.7002</ele>
        <time>2026-05-17T15:36:48+02:00</time>
      </trkpt>
      <trkpt lat="48.25341" lon="6.4169">
        <ele>300.7002</ele>
        <time>2026-05-17T15:36:49+02:00</time>
      </trkpt>
      <trkpt lat="48.25341" lon="6.4169">
        <ele>300.7002</ele>
        <time>2026-05-17T15:36:50+02:00</time>
      </trkpt>
      <trkpt lat="48.25341" lon="6.4169">
        <ele>300.7002</ele>
        <time>2026-05-17T15:36:51+02:00</time>
      </trkpt>
      <trkpt lat="48.25341" lon="6.4169">
        <ele>300.7002</ele>
        <time>2026-05-17T15:36:52+02:00</time>
      </trkpt>
      <trkpt lat="48.25341" lon="6.4169">
        <ele>300.7002</ele>
        <time>2026-05-17T15:36:53+02:00</time>
      </trkpt>
      <trkpt lat="48.25337" lon="6.41701">
        <ele>300.7002</ele>
        <time>2026-05-17T15:36:54+02:00</time>
      </trkpt>
      <trkpt lat="48.25337" lon="6.41704">
        <ele>300.7002</ele>
        <time>2026-05-17T15:36:55+02:00</time>
      </trkpt>
      <trkpt lat="48.25337" lon="6.41708">
        <ele>300.7002</ele>
        <time>2026-05-17T15:36:56+02:00</time>
      </trkpt>
      <trkpt lat="48.25337" lon="6.41711">
        <ele>300.7002</ele>
        <time>2026-05-17T15:36:57+02:00</time>
      </trkpt>
      <trkpt lat="48.25335" lon="6.41713">
        <ele>300.7002</ele>
        <time>2026-05-17T15:36:58+02:00</time>
      </trkpt>
      <trkpt lat="48.25333" lon="6.41716">
        <ele>300.6006</ele>
        <time>2026-05-17T15:36:59+02:00</time>
      </trkpt>
      <trkpt lat="48.2533" lon="6.41719">
        <ele>300.6006</ele>
        <time>2026-05-17T15:37:00+02:00</time>
      </trkpt>
      <trkpt lat="48.25327" lon="6.41721">
        <ele>300.6006</ele>
        <time>2026-05-17T15:37:01+02:00</time>
      </trkpt>
      <trkpt lat="48.25324" lon="6.41725">
        <ele>300.6006</ele>
        <time>2026-05-17T15:37:02+02:00</time>
      </trkpt>
      <trkpt lat="48.25321" lon="6.41729">
        <ele>300.6006</ele>
        <time>2026-05-17T15:37:03+02:00</time>
      </trkpt>
      <trkpt lat="48.25318" lon="6.41733">
        <ele>300.6006</ele>
        <time>2026-05-17T15:37:04+02:00</time>
      </trkpt>
      <trkpt lat="48.25314" lon="6.41737">
        <ele>300.6006</ele>
        <time>2026-05-17T15:37:05+02:00</time>
      </trkpt>
      <trkpt lat="48.25311" lon="6.41742">
        <ele>300.6006</ele>
        <time>2026-05-17T15:37:06+02:00</time>
      </trkpt>
      <trkpt lat="48.25308" lon="6.41747">
        <ele>300.6006</ele>
        <time>2026-05-17T15:37:07+02:00</time>
      </trkpt>
      <trkpt lat="48.25306" lon="6.41752">
        <ele>300.6006</ele>
        <time>2026-05-17T15:37:08+02:00</time>
      </trkpt>
      <trkpt lat="48.25303" lon="6.41757">
        <ele>300.6006</ele>
        <time>2026-05-17T15:37:09+02:00</time>
      </trkpt>
      <trkpt lat="48.253" lon="6.41761">
        <ele>300.7002</ele>
        <time>2026-05-17T15:37:10+02:00</time>
      </trkpt>
      <trkpt lat="48.25297" lon="6.41766">
        <ele>300.7002</ele>
        <time>2026-05-17T15:37:11+02:00</time>
      </trkpt>
      <trkpt lat="48.25295" lon="6.41771">
        <ele>300.7998</ele>
        <time>2026-05-17T15:37:12+02:00</time>
      </trkpt>
      <trkpt lat="48.25294" lon="6.41777">
        <ele>300.7998</ele>
        <time>2026-05-17T15:37:13+02:00</time>
      </trkpt>
      <trkpt lat="48.25295" lon="6.41782">
        <ele>300.7998</ele>
        <time>2026-05-17T15:37:14+02:00</time>
      </trkpt>
      <trkpt lat="48.25298" lon="6.41787">
        <ele>300.7002</ele>
        <time>2026-05-17T15:37:15+02:00</time>
      </trkpt>
      <trkpt lat="48.25301" lon="6.41792">
        <ele>300.7002</ele>
        <time>2026-05-17T15:37:16+02:00</time>
      </trkpt>
      <trkpt lat="48.25303" lon="6.41796">
        <ele>300.6006</ele>
        <time>2026-05-17T15:37:17+02:00</time>
      </trkpt>
      <trkpt lat="48.25306" lon="6.41801">
        <ele>300.6006</ele>
        <time>2026-05-17T15:37:18+02:00</time>
      </trkpt>
      <trkpt lat="48.25309" lon="6.41806">
        <ele>300.5</ele>
        <time>2026-05-17T15:37:19+02:00</time>
      </trkpt>
      <trkpt lat="48.25312" lon="6.41812">
        <ele>300.6006</ele>
        <time>2026-05-17T15:37:20+02:00</time>
      </trkpt>
      <trkpt lat="48.25316" lon="6.41817">
        <ele>300.6006</ele>
        <time>2026-05-17T15:37:21+02:00</time>
      </trkpt>
      <trkpt lat="48.25319" lon="6.41821">
        <ele>300.6006</ele>
        <time>2026-05-17T15:37:22+02:00</time>
      </trkpt>
      <trkpt lat="48.25323" lon="6.41826">
        <ele>300.7002</ele>
        <time>2026-05-17T15:37:23+02:00</time>
      </trkpt>
      <trkpt lat="48.25328" lon="6.4183">
        <ele>300.7002</ele>
        <time>2026-05-17T15:37:24+02:00</time>
      </trkpt>
      <trkpt lat="48.25333" lon="6.41833">
        <ele>300.7002</ele>
        <time>2026-05-17T15:37:25+02:00</time>
      </trkpt>
      <trkpt lat="48.25338" lon="6.41836">
        <ele>300.7998</ele>
        <time>2026-05-17T15:37:26+02:00</time>
      </trkpt>
      <trkpt lat="48.25343" lon="6.41839">
        <ele>300.9004</ele>
        <time>2026-05-17T15:37:27+02:00</time>
      </trkpt>
      <trkpt lat="48.25348" lon="6.41843">
        <ele>301</ele>
        <time>2026-05-17T15:37:28+02:00</time>
      </trkpt>
      <trkpt lat="48.25352" lon="6.41848">
        <ele>301.1006</ele>
        <time>2026-05-17T15:37:29+02:00</time>
      </trkpt>
      <trkpt lat="48.25356" lon="6.41853">
        <ele>301.4004</ele>
        <time>2026-05-17T15:37:30+02:00</time>
      </trkpt>
      <trkpt lat="48.25361" lon="6.41858">
        <ele>301.4004</ele>
        <time>2026-05-17T15:37:31+02:00</time>
      </trkpt>
      <trkpt lat="48.25365" lon="6.41863">
        <ele>301.6006</ele>
        <time>2026-05-17T15:37:32+02:00</time>
      </trkpt>
      <trkpt lat="48.25367" lon="6.41866">
        <ele>301.6006</ele>
        <time>2026-05-17T15:37:33+02:00</time>
      </trkpt>
      <trkpt lat="48.25373" lon="6.41874">
        <ele>301.7998</ele>
        <time>2026-05-17T15:37:34+02:00</time>
      </trkpt>
      <trkpt lat="48.25377" lon="6.41878">
        <ele>301.9004</ele>
        <time>2026-05-17T15:37:35+02:00</time>
      </trkpt>
      <trkpt lat="48.25382" lon="6.41883">
        <ele>301.7998</ele>
        <time>2026-05-17T15:37:36+02:00</time>
      </trkpt>
      <trkpt lat="48.25385" lon="6.41889">
        <ele>301.7998</ele>
        <time>2026-05-17T15:37:37+02:00</time>
      </trkpt>
      <trkpt lat="48.25388" lon="6.41895">
        <ele>301.9004</ele>
        <time>2026-05-17T15:37:38+02:00</time>
      </trkpt>
      <trkpt lat="48.2539" lon="6.41902">
        <ele>301.9004</ele>
        <time>2026-05-17T15:37:39+02:00</time>
      </trkpt>
      <trkpt lat="48.25392" lon="6.41909">
        <ele>301.9004</ele>
        <time>2026-05-17T15:37:40+02:00</time>
      </trkpt>
      <trkpt lat="48.25393" lon="6.41915">
        <ele>301.9004</ele>
        <time>2026-05-17T15:37:41+02:00</time>
      </trkpt>
      <trkpt lat="48.25395" lon="6.41922">
        <ele>301.7998</ele>
        <time>2026-05-17T15:37:42+02:00</time>
      </trkpt>
      <trkpt lat="48.25399" lon="6.41928">
        <ele>301.7998</ele>
        <time>2026-05-17T15:37:43+02:00</time>
      </trkpt>
      <trkpt lat="48.25401" lon="6.41934">
        <ele>301.6006</ele>
        <time>2026-05-17T15:37:44+02:00</time>
      </trkpt>
      <trkpt lat="48.25404" lon="6.41941">
        <ele>301.6006</ele>
        <time>2026-05-17T15:37:45+02:00</time>
      </trkpt>
      <trkpt lat="48.25408" lon="6.41947">
        <ele>301.4004</ele>
        <time>2026-05-17T15:37:46+02:00</time>
      </trkpt>
      <trkpt lat="48.25411" lon="6.41954">
        <ele>301.4004</ele>
        <time>2026-05-17T15:37:47+02:00</time>
      </trkpt>
      <trkpt lat="48.25414" lon="6.41961">
        <ele>301.2998</ele>
        <time>2026-05-17T15:37:48+02:00</time>
      </trkpt>
      <trkpt lat="48.25418" lon="6.41967">
        <ele>301.1006</ele>
        <time>2026-05-17T15:37:49+02:00</time>
      </trkpt>
      <trkpt lat="48.25422" lon="6.41974">
        <ele>301</ele>
        <time>2026-05-17T15:37:50+02:00</time>
      </trkpt>
      <trkpt lat="48.25425" lon="6.41982">
        <ele>300.9004</ele>
        <time>2026-05-17T15:37:51+02:00</time>
      </trkpt>
      <trkpt lat="48.25429" lon="6.41989">
        <ele>300.7002</ele>
        <time>2026-05-17T15:37:52+02:00</time>
      </trkpt>
      <trkpt lat="48.25432" lon="6.41996">
        <ele>300.7002</ele>
        <time>2026-05-17T15:37:53+02:00</time>
      </trkpt>
      <trkpt lat="48.25435" lon="6.42003">
        <ele>300.5</ele>
        <time>2026-05-17T15:37:54+02:00</time>
      </trkpt>
      <trkpt lat="48.25438" lon="6.42011">
        <ele>300.5</ele>
        <time>2026-05-17T15:37:55+02:00</time>
      </trkpt>
      <trkpt lat="48.25441" lon="6.42019">
        <ele>300.2998</ele>
        <time>2026-05-17T15:37:56+02:00</time>
      </trkpt>
      <trkpt lat="48.25445" lon="6.42027">
        <ele>300.2998</ele>
        <time>2026-05-17T15:37:57+02:00</time>
      </trkpt>
      <trkpt lat="48.25448" lon="6.42034">
        <ele>300.1006</ele>
        <time>2026-05-17T15:37:58+02:00</time>
      </trkpt>
      <trkpt lat="48.25452" lon="6.42041">
        <ele>299.9004</ele>
        <time>2026-05-17T15:37:59+02:00</time>
      </trkpt>
      <trkpt lat="48.25455" lon="6.42048">
        <ele>299.7002</ele>
        <time>2026-05-17T15:38:00+02:00</time>
      </trkpt>
      <trkpt lat="48.25458" lon="6.42054">
        <ele>299.6006</ele>
        <time>2026-05-17T15:38:01+02:00</time>
      </trkpt>
      <trkpt lat="48.25462" lon="6.42061">
        <ele>299.5</ele>
        <time>2026-05-17T15:38:02+02:00</time>
      </trkpt>
      <trkpt lat="48.25465" lon="6.42067">
        <ele>299.4004</ele>
        <time>2026-05-17T15:38:03+02:00</time>
      </trkpt>
      <trkpt lat="48.25467" lon="6.42073">
        <ele>299.4004</ele>
        <time>2026-05-17T15:38:04+02:00</time>
      </trkpt>
      <trkpt lat="48.2547" lon="6.42077">
        <ele>299.5</ele>
        <time>2026-05-17T15:38:05+02:00</time>
      </trkpt>
      <trkpt lat="48.25472" lon="6.42081">
        <ele>299.5</ele>
        <time>2026-05-17T15:38:06+02:00</time>
      </trkpt>
      <trkpt lat="48.25474" lon="6.42085">
        <ele>299.9004</ele>
        <time>2026-05-17T15:38:07+02:00</time>
      </trkpt>
      <trkpt lat="48.25476" lon="6.42089">
        <ele>299.9004</ele>
        <time>2026-05-17T15:38:08+02:00</time>
      </trkpt>
      <trkpt lat="48.2548" lon="6.42092">
        <ele>300.2998</ele>
        <time>2026-05-17T15:38:09+02:00</time>
      </trkpt>
      <trkpt lat="48.25484" lon="6.42093">
        <ele>300.2998</ele>
        <time>2026-05-17T15:38:10+02:00</time>
      </trkpt>
      <trkpt lat="48.25489" lon="6.42092">
        <ele>300.4004</ele>
        <time>2026-05-17T15:38:11+02:00</time>
      </trkpt>
      <trkpt lat="48.25494" lon="6.42089">
        <ele>300.4004</ele>
        <time>2026-05-17T15:38:12+02:00</time>
      </trkpt>
      <trkpt lat="48.25498" lon="6.42085">
        <ele>300.5</ele>
        <time>2026-05-17T15:38:13+02:00</time>
      </trkpt>
      <trkpt lat="48.25503" lon="6.42081">
        <ele>300.5</ele>
        <time>2026-05-17T15:38:14+02:00</time>
      </trkpt>
      <trkpt lat="48.25508" lon="6.42077">
        <ele>300.5</ele>
        <time>2026-05-17T15:38:15+02:00</time>
      </trkpt>
      <trkpt lat="48.25513" lon="6.42072">
        <ele>300.4004</ele>
        <time>2026-05-17T15:38:16+02:00</time>
      </trkpt>
      <trkpt lat="48.25517" lon="6.42067">
        <ele>300.5</ele>
        <time>2026-05-17T15:38:17+02:00</time>
      </trkpt>
      <trkpt lat="48.25522" lon="6.42061">
        <ele>300.4004</ele>
        <time>2026-05-17T15:38:18+02:00</time>
      </trkpt>
      <trkpt lat="48.25527" lon="6.42056">
        <ele>300.2002</ele>
        <time>2026-05-17T15:38:19+02:00</time>
      </trkpt>
      <trkpt lat="48.25532" lon="6.42051">
        <ele>300.2002</ele>
        <time>2026-05-17T15:38:20+02:00</time>
      </trkpt>
      <trkpt lat="48.25536" lon="6.42046">
        <ele>300</ele>
        <time>2026-05-17T15:38:21+02:00</time>
      </trkpt>
      <trkpt lat="48.25541" lon="6.4204">
        <ele>300.1006</ele>
        <time>2026-05-17T15:38:22+02:00</time>
      </trkpt>
      <trkpt lat="48.25546" lon="6.42035">
        <ele>300</ele>
        <time>2026-05-17T15:38:23+02:00</time>
      </trkpt>
      <trkpt lat="48.25551" lon="6.4203">
        <ele>300</ele>
        <time>2026-05-17T15:38:24+02:00</time>
      </trkpt>
      <trkpt lat="48.25554" lon="6.42028">
        <ele>300</ele>
        <time>2026-05-17T15:38:25+02:00</time>
      </trkpt>
      <trkpt lat="48.25561" lon="6.42019">
        <ele>300</ele>
        <time>2026-05-17T15:38:26+02:00</time>
      </trkpt>
      <trkpt lat="48.25566" lon="6.42014">
        <ele>300</ele>
        <time>2026-05-17T15:38:27+02:00</time>
      </trkpt>
      <trkpt lat="48.25572" lon="6.42008">
        <ele>300.1006</ele>
        <time>2026-05-17T15:38:28+02:00</time>
      </trkpt>
      <trkpt lat="48.25577" lon="6.42003">
        <ele>300.1006</ele>
        <time>2026-05-17T15:38:29+02:00</time>
      </trkpt>
      <trkpt lat="48.25582" lon="6.41997">
        <ele>300.1006</ele>
        <time>2026-05-17T15:38:30+02:00</time>
      </trkpt>
      <trkpt lat="48.25587" lon="6.41992">
        <ele>300.1006</ele>
        <time>2026-05-17T15:38:31+02:00</time>
      </trkpt>
      <trkpt lat="48.25592" lon="6.41987">
        <ele>300.1006</ele>
        <time>2026-05-17T15:38:32+02:00</time>
      </trkpt>
      <trkpt lat="48.25597" lon="6.41981">
        <ele>300.2002</ele>
        <time>2026-05-17T15:38:33+02:00</time>
      </trkpt>
      <trkpt lat="48.25601" lon="6.41976">
        <ele>300.2002</ele>
        <time>2026-05-17T15:38:34+02:00</time>
      </trkpt>
      <trkpt lat="48.25606" lon="6.4197">
        <ele>300.2002</ele>
        <time>2026-05-17T15:38:35+02:00</time>
      </trkpt>
      <trkpt lat="48.2561" lon="6.41966">
        <ele>300.2002</ele>
        <time>2026-05-17T15:38:36+02:00</time>
      </trkpt>
      <trkpt lat="48.25615" lon="6.41961">
        <ele>300.2998</ele>
        <time>2026-05-17T15:38:37+02:00</time>
      </trkpt>
      <trkpt lat="48.25619" lon="6.41956">
        <ele>300.2998</ele>
        <time>2026-05-17T15:38:38+02:00</time>
      </trkpt>
      <trkpt lat="48.25624" lon="6.41951">
        <ele>300.4004</ele>
        <time>2026-05-17T15:38:39+02:00</time>
      </trkpt>
      <trkpt lat="48.25628" lon="6.41947">
        <ele>300.4004</ele>
        <time>2026-05-17T15:38:40+02:00</time>
      </trkpt>
      <trkpt lat="48.25632" lon="6.41942">
        <ele>300.4004</ele>
        <time>2026-05-17T15:38:41+02:00</time>
      </trkpt>
      <trkpt lat="48.25634" lon="6.4194">
        <ele>300.4004</ele>
        <time>2026-05-17T15:38:42+02:00</time>
      </trkpt>
      <trkpt lat="48.2564" lon="6.41933">
        <ele>300.4004</ele>
        <time>2026-05-17T15:38:43+02:00</time>
      </trkpt>
      <trkpt lat="48.25644" lon="6.41929">
        <ele>300.4004</ele>
        <time>2026-05-17T15:38:44+02:00</time>
      </trkpt>
      <trkpt lat="48.25648" lon="6.41924">
        <ele>300.4004</ele>
        <time>2026-05-17T15:38:45+02:00</time>
      </trkpt>
      <trkpt lat="48.25652" lon="6.41919">
        <ele>300.4004</ele>
        <time>2026-05-17T15:38:46+02:00</time>
      </trkpt>
      <trkpt lat="48.25656" lon="6.41914">
        <ele>300.4004</ele>
        <time>2026-05-17T15:38:47+02:00</time>
      </trkpt>
      <trkpt lat="48.2566" lon="6.41909">
        <ele>300.5</ele>
        <time>2026-05-17T15:38:48+02:00</time>
      </trkpt>
      <trkpt lat="48.25664" lon="6.41903">
        <ele>300.5</ele>
        <time>2026-05-17T15:38:49+02:00</time>
      </trkpt>
      <trkpt lat="48.25668" lon="6.41898">
        <ele>300.5</ele>
        <time>2026-05-17T15:38:50+02:00</time>
      </trkpt>
      <trkpt lat="48.25672" lon="6.41892">
        <ele>300.4004</ele>
        <time>2026-05-17T15:38:51+02:00</time>
      </trkpt>
      <trkpt lat="48.25676" lon="6.41887">
        <ele>300.4004</ele>
        <time>2026-05-17T15:38:52+02:00</time>
      </trkpt>
      <trkpt lat="48.25681" lon="6.41882">
        <ele>300.2998</ele>
        <time>2026-05-17T15:38:53+02:00</time>
      </trkpt>
      <trkpt lat="48.25685" lon="6.41878">
        <ele>300.2998</ele>
        <time>2026-05-17T15:38:54+02:00</time>
      </trkpt>
      <trkpt lat="48.25689" lon="6.41873">
        <ele>300.2002</ele>
        <time>2026-05-17T15:38:55+02:00</time>
      </trkpt>
      <trkpt lat="48.25694" lon="6.41868">
        <ele>300.1006</ele>
        <time>2026-05-17T15:38:56+02:00</time>
      </trkpt>
      <trkpt lat="48.25698" lon="6.41864">
        <ele>300</ele>
        <time>2026-05-17T15:38:57+02:00</time>
      </trkpt>
      <trkpt lat="48.25702" lon="6.41859">
        <ele>299.9004</ele>
        <time>2026-05-17T15:38:58+02:00</time>
      </trkpt>
      <trkpt lat="48.25706" lon="6.41855">
        <ele>299.9004</ele>
        <time>2026-05-17T15:38:59+02:00</time>
      </trkpt>
      <trkpt lat="48.25711" lon="6.4185">
        <ele>299.7002</ele>
        <time>2026-05-17T15:39:00+02:00</time>
      </trkpt>
      <trkpt lat="48.25715" lon="6.41846">
        <ele>299.7002</ele>
        <time>2026-05-17T15:39:01+02:00</time>
      </trkpt>
      <trkpt lat="48.2572" lon="6.41841">
        <ele>299.6006</ele>
        <time>2026-05-17T15:39:02+02:00</time>
      </trkpt>
      <trkpt lat="48.25724" lon="6.41836">
        <ele>299.6006</ele>
        <time>2026-05-17T15:39:03+02:00</time>
      </trkpt>
      <trkpt lat="48.25728" lon="6.41831">
        <ele>299.5</ele>
        <time>2026-05-17T15:39:04+02:00</time>
      </trkpt>
      <trkpt lat="48.25733" lon="6.41827">
        <ele>299.4004</ele>
        <time>2026-05-17T15:39:05+02:00</time>
      </trkpt>
      <trkpt lat="48.25737" lon="6.41822">
        <ele>299.2998</ele>
        <time>2026-05-17T15:39:06+02:00</time>
      </trkpt>
      <trkpt lat="48.25741" lon="6.41818">
        <ele>299.2998</ele>
        <time>2026-05-17T15:39:07+02:00</time>
      </trkpt>
      <trkpt lat="48.25745" lon="6.41813">
        <ele>299.2002</ele>
        <time>2026-05-17T15:39:08+02:00</time>
      </trkpt>
      <trkpt lat="48.25749" lon="6.41808">
        <ele>299.1006</ele>
        <time>2026-05-17T15:39:09+02:00</time>
      </trkpt>
      <trkpt lat="48.25754" lon="6.41804">
        <ele>299.1006</ele>
        <time>2026-05-17T15:39:10+02:00</time>
      </trkpt>
      <trkpt lat="48.25758" lon="6.41799">
        <ele>299.1006</ele>
        <time>2026-05-17T15:39:11+02:00</time>
      </trkpt>
      <trkpt lat="48.25762" lon="6.41794">
        <ele>299</ele>
        <time>2026-05-17T15:39:12+02:00</time>
      </trkpt>
      <trkpt lat="48.25764" lon="6.41792">
        <ele>299</ele>
        <time>2026-05-17T15:39:13+02:00</time>
      </trkpt>
      <trkpt lat="48.25771" lon="6.41785">
        <ele>299</ele>
        <time>2026-05-17T15:39:14+02:00</time>
      </trkpt>
      <trkpt lat="48.25775" lon="6.4178">
        <ele>299</ele>
        <time>2026-05-17T15:39:15+02:00</time>
      </trkpt>
      <trkpt lat="48.25779" lon="6.41776">
        <ele>298.9004</ele>
        <time>2026-05-17T15:39:16+02:00</time>
      </trkpt>
      <trkpt lat="48.25784" lon="6.41771">
        <ele>298.9004</ele>
        <time>2026-05-17T15:39:17+02:00</time>
      </trkpt>
      <trkpt lat="48.25788" lon="6.41766">
        <ele>298.9004</ele>
        <time>2026-05-17T15:39:18+02:00</time>
      </trkpt>
      <trkpt lat="48.25792" lon="6.41762">
        <ele>298.9004</ele>
        <time>2026-05-17T15:39:19+02:00</time>
      </trkpt>
      <trkpt lat="48.25796" lon="6.41758">
        <ele>298.9004</ele>
        <time>2026-05-17T15:39:20+02:00</time>
      </trkpt>
      <trkpt lat="48.25799" lon="6.41755">
        <ele>298.9004</ele>
        <time>2026-05-17T15:39:21+02:00</time>
      </trkpt>
      <trkpt lat="48.25805" lon="6.41748">
        <ele>298.9004</ele>
        <time>2026-05-17T15:39:22+02:00</time>
      </trkpt>
      <trkpt lat="48.25809" lon="6.41744">
        <ele>298.9004</ele>
        <time>2026-05-17T15:39:23+02:00</time>
      </trkpt>
      <trkpt lat="48.25814" lon="6.41739">
        <ele>298.9004</ele>
        <time>2026-05-17T15:39:24+02:00</time>
      </trkpt>
      <trkpt lat="48.25819" lon="6.41734">
        <ele>299</ele>
        <time>2026-05-17T15:39:25+02:00</time>
      </trkpt>
      <trkpt lat="48.25823" lon="6.41729">
        <ele>299.1006</ele>
        <time>2026-05-17T15:39:26+02:00</time>
      </trkpt>
      <trkpt lat="48.25828" lon="6.41724">
        <ele>299.1006</ele>
        <time>2026-05-17T15:39:27+02:00</time>
      </trkpt>
      <trkpt lat="48.25832" lon="6.4172">
        <ele>299.1006</ele>
        <time>2026-05-17T15:39:28+02:00</time>
      </trkpt>
      <trkpt lat="48.25836" lon="6.41715">
        <ele>299.1006</ele>
        <time>2026-05-17T15:39:29+02:00</time>
      </trkpt>
      <trkpt lat="48.2584" lon="6.41711">
        <ele>299.2002</ele>
        <time>2026-05-17T15:39:30+02:00</time>
      </trkpt>
      <trkpt lat="48.25845" lon="6.41706">
        <ele>299.2002</ele>
        <time>2026-05-17T15:39:31+02:00</time>
      </trkpt>
      <trkpt lat="48.25849" lon="6.41701">
        <ele>299.2998</ele>
        <time>2026-05-17T15:39:32+02:00</time>
      </trkpt>
      <trkpt lat="48.25853" lon="6.41697">
        <ele>299.2998</ele>
        <time>2026-05-17T15:39:33+02:00</time>
      </trkpt>
      <trkpt lat="48.25858" lon="6.41692">
        <ele>299.4004</ele>
        <time>2026-05-17T15:39:34+02:00</time>
      </trkpt>
      <trkpt lat="48.25862" lon="6.41687">
        <ele>299.5</ele>
        <time>2026-05-17T15:39:35+02:00</time>
      </trkpt>
      <trkpt lat="48.25866" lon="6.41683">
        <ele>299.5</ele>
        <time>2026-05-17T15:39:36+02:00</time>
      </trkpt>
      <trkpt lat="48.25871" lon="6.41678">
        <ele>299.6006</ele>
        <time>2026-05-17T15:39:37+02:00</time>
      </trkpt>
      <trkpt lat="48.25875" lon="6.41673">
        <ele>299.5</ele>
        <time>2026-05-17T15:39:38+02:00</time>
      </trkpt>
      <trkpt lat="48.25879" lon="6.41669">
        <ele>299.6006</ele>
        <time>2026-05-17T15:39:39+02:00</time>
      </trkpt>
      <trkpt lat="48.25884" lon="6.41664">
        <ele>299.5</ele>
        <time>2026-05-17T15:39:40+02:00</time>
      </trkpt>
      <trkpt lat="48.25888" lon="6.41659">
        <ele>299.4004</ele>
        <time>2026-05-17T15:39:41+02:00</time>
      </trkpt>
      <trkpt lat="48.25893" lon="6.41654">
        <ele>299.2998</ele>
        <time>2026-05-17T15:39:42+02:00</time>
      </trkpt>
      <trkpt lat="48.25897" lon="6.41649">
        <ele>299.2998</ele>
        <time>2026-05-17T15:39:43+02:00</time>
      </trkpt>
      <trkpt lat="48.25901" lon="6.41645">
        <ele>299.2002</ele>
        <time>2026-05-17T15:39:44+02:00</time>
      </trkpt>
      <trkpt lat="48.25906" lon="6.41639">
        <ele>299.1006</ele>
        <time>2026-05-17T15:39:45+02:00</time>
      </trkpt>
      <trkpt lat="48.2591" lon="6.41635">
        <ele>299</ele>
        <time>2026-05-17T15:39:46+02:00</time>
      </trkpt>
      <trkpt lat="48.25914" lon="6.4163">
        <ele>299</ele>
        <time>2026-05-17T15:39:47+02:00</time>
      </trkpt>
      <trkpt lat="48.25919" lon="6.41625">
        <ele>298.7998</ele>
        <time>2026-05-17T15:39:48+02:00</time>
      </trkpt>
      <trkpt lat="48.25923" lon="6.4162">
        <ele>298.7002</ele>
        <time>2026-05-17T15:39:49+02:00</time>
      </trkpt>
      <trkpt lat="48.25927" lon="6.41615">
        <ele>298.6006</ele>
        <time>2026-05-17T15:39:50+02:00</time>
      </trkpt>
      <trkpt lat="48.25932" lon="6.4161">
        <ele>298.4004</ele>
        <time>2026-05-17T15:39:51+02:00</time>
      </trkpt>
      <trkpt lat="48.25936" lon="6.41605">
        <ele>298.4004</ele>
        <time>2026-05-17T15:39:52+02:00</time>
      </trkpt>
      <trkpt lat="48.25941" lon="6.416">
        <ele>298.2002</ele>
        <time>2026-05-17T15:39:53+02:00</time>
      </trkpt>
      <trkpt lat="48.25945" lon="6.41595">
        <ele>298.2002</ele>
        <time>2026-05-17T15:39:54+02:00</time>
      </trkpt>
      <trkpt lat="48.25949" lon="6.4159">
        <ele>298</ele>
        <time>2026-05-17T15:39:55+02:00</time>
      </trkpt>
      <trkpt lat="48.25954" lon="6.41585">
        <ele>298</ele>
        <time>2026-05-17T15:39:56+02:00</time>
      </trkpt>
      <trkpt lat="48.25958" lon="6.4158">
        <ele>297.9004</ele>
        <time>2026-05-17T15:39:57+02:00</time>
      </trkpt>
      <trkpt lat="48.25963" lon="6.41575">
        <ele>297.7998</ele>
        <time>2026-05-17T15:39:58+02:00</time>
      </trkpt>
      <trkpt lat="48.25967" lon="6.41571">
        <ele>297.7998</ele>
        <time>2026-05-17T15:39:59+02:00</time>
      </trkpt>
      <trkpt lat="48.25971" lon="6.41566">
        <ele>297.7002</ele>
        <time>2026-05-17T15:40:00+02:00</time>
      </trkpt>
      <trkpt lat="48.25976" lon="6.41562">
        <ele>297.7002</ele>
        <time>2026-05-17T15:40:01+02:00</time>
      </trkpt>
      <trkpt lat="48.2598" lon="6.41557">
        <ele>297.6006</ele>
        <time>2026-05-17T15:40:02+02:00</time>
      </trkpt>
      <trkpt lat="48.25985" lon="6.41552">
        <ele>297.6006</ele>
        <time>2026-05-17T15:40:03+02:00</time>
      </trkpt>
      <trkpt lat="48.25989" lon="6.41547">
        <ele>297.6006</ele>
        <time>2026-05-17T15:40:04+02:00</time>
      </trkpt>
      <trkpt lat="48.25993" lon="6.41543">
        <ele>297.6006</ele>
        <time>2026-05-17T15:40:05+02:00</time>
      </trkpt>
      <trkpt lat="48.25998" lon="6.41538">
        <ele>297.5</ele>
        <time>2026-05-17T15:40:06+02:00</time>
      </trkpt>
      <trkpt lat="48.26002" lon="6.41533">
        <ele>297.6006</ele>
        <time>2026-05-17T15:40:07+02:00</time>
      </trkpt>
      <trkpt lat="48.26007" lon="6.41529">
        <ele>297.6006</ele>
        <time>2026-05-17T15:40:08+02:00</time>
      </trkpt>
      <trkpt lat="48.26011" lon="6.41524">
        <ele>297.6006</ele>
        <time>2026-05-17T15:40:09+02:00</time>
      </trkpt>
      <trkpt lat="48.26016" lon="6.41519">
        <ele>297.5</ele>
        <time>2026-05-17T15:40:10+02:00</time>
      </trkpt>
      <trkpt lat="48.2602" lon="6.41514">
        <ele>297.5</ele>
        <time>2026-05-17T15:40:11+02:00</time>
      </trkpt>
      <trkpt lat="48.26024" lon="6.41509">
        <ele>297.5</ele>
        <time>2026-05-17T15:40:12+02:00</time>
      </trkpt>
      <trkpt lat="48.26029" lon="6.41505">
        <ele>297.5</ele>
        <time>2026-05-17T15:40:13+02:00</time>
      </trkpt>
      <trkpt lat="48.26033" lon="6.415">
        <ele>297.5</ele>
        <time>2026-05-17T15:40:14+02:00</time>
      </trkpt>
      <trkpt lat="48.26037" lon="6.41496">
        <ele>297.5</ele>
        <time>2026-05-17T15:40:15+02:00</time>
      </trkpt>
      <trkpt lat="48.26042" lon="6.41491">
        <ele>297.5</ele>
        <time>2026-05-17T15:40:16+02:00</time>
      </trkpt>
      <trkpt lat="48.26046" lon="6.41487">
        <ele>297.5</ele>
        <time>2026-05-17T15:40:17+02:00</time>
      </trkpt>
      <trkpt lat="48.2605" lon="6.41482">
        <ele>297.5</ele>
        <time>2026-05-17T15:40:18+02:00</time>
      </trkpt>
      <trkpt lat="48.26055" lon="6.41477">
        <ele>297.5</ele>
        <time>2026-05-17T15:40:19+02:00</time>
      </trkpt>
      <trkpt lat="48.26059" lon="6.41472">
        <ele>297.5</ele>
        <time>2026-05-17T15:40:20+02:00</time>
      </trkpt>
      <trkpt lat="48.26063" lon="6.41467">
        <ele>297.5</ele>
        <time>2026-05-17T15:40:21+02:00</time>
      </trkpt>
      <trkpt lat="48.26066" lon="6.41463">
        <ele>297.6006</ele>
        <time>2026-05-17T15:40:22+02:00</time>
      </trkpt>
      <trkpt lat="48.26071" lon="6.41459">
        <ele>297.6006</ele>
        <time>2026-05-17T15:40:23+02:00</time>
      </trkpt>
      <trkpt lat="48.26075" lon="6.41455">
        <ele>297.6006</ele>
        <time>2026-05-17T15:40:24+02:00</time>
      </trkpt>
      <trkpt lat="48.2608" lon="6.4145">
        <ele>297.6006</ele>
        <time>2026-05-17T15:40:25+02:00</time>
      </trkpt>
      <trkpt lat="48.26084" lon="6.41446">
        <ele>297.6006</ele>
        <time>2026-05-17T15:40:26+02:00</time>
      </trkpt>
      <trkpt lat="48.26089" lon="6.41441">
        <ele>297.7002</ele>
        <time>2026-05-17T15:40:27+02:00</time>
      </trkpt>
      <trkpt lat="48.26093" lon="6.41436">
        <ele>297.7002</ele>
        <time>2026-05-17T15:40:28+02:00</time>
      </trkpt>
      <trkpt lat="48.26098" lon="6.41431">
        <ele>297.7998</ele>
        <time>2026-05-17T15:40:29+02:00</time>
      </trkpt>
      <trkpt lat="48.26103" lon="6.41426">
        <ele>297.7998</ele>
        <time>2026-05-17T15:40:30+02:00</time>
      </trkpt>
      <trkpt lat="48.26108" lon="6.41421">
        <ele>297.7998</ele>
        <time>2026-05-17T15:40:31+02:00</time>
      </trkpt>
      <trkpt lat="48.26112" lon="6.41416">
        <ele>297.9004</ele>
        <time>2026-05-17T15:40:32+02:00</time>
      </trkpt>
      <trkpt lat="48.26117" lon="6.41411">
        <ele>298</ele>
        <time>2026-05-17T15:40:33+02:00</time>
      </trkpt>
      <trkpt lat="48.26122" lon="6.41405">
        <ele>298</ele>
        <time>2026-05-17T15:40:34+02:00</time>
      </trkpt>
      <trkpt lat="48.26126" lon="6.414">
        <ele>298.1006</ele>
        <time>2026-05-17T15:40:35+02:00</time>
      </trkpt>
      <trkpt lat="48.26131" lon="6.41395">
        <ele>298.1006</ele>
        <time>2026-05-17T15:40:36+02:00</time>
      </trkpt>
      <trkpt lat="48.26136" lon="6.4139">
        <ele>298.1006</ele>
        <time>2026-05-17T15:40:37+02:00</time>
      </trkpt>
      <trkpt lat="48.26141" lon="6.41385">
        <ele>298.2002</ele>
        <time>2026-05-17T15:40:38+02:00</time>
      </trkpt>
      <trkpt lat="48.26145" lon="6.4138">
        <ele>298.2998</ele>
        <time>2026-05-17T15:40:39+02:00</time>
      </trkpt>
      <trkpt lat="48.2615" lon="6.41374">
        <ele>298.4004</ele>
        <time>2026-05-17T15:40:40+02:00</time>
      </trkpt>
      <trkpt lat="48.26155" lon="6.41369">
        <ele>298.5</ele>
        <time>2026-05-17T15:40:41+02:00</time>
      </trkpt>
      <trkpt lat="48.26159" lon="6.41364">
        <ele>298.5</ele>
        <time>2026-05-17T15:40:42+02:00</time>
      </trkpt>
      <trkpt lat="48.26164" lon="6.4136">
        <ele>298.6006</ele>
        <time>2026-05-17T15:40:43+02:00</time>
      </trkpt>
      <trkpt lat="48.26169" lon="6.41355">
        <ele>298.6006</ele>
        <time>2026-05-17T15:40:44+02:00</time>
      </trkpt>
      <trkpt lat="48.26173" lon="6.4135">
        <ele>298.7002</ele>
        <time>2026-05-17T15:40:45+02:00</time>
      </trkpt>
      <trkpt lat="48.26178" lon="6.41346">
        <ele>298.7002</ele>
        <time>2026-05-17T15:40:46+02:00</time>
      </trkpt>
      <trkpt lat="48.26182" lon="6.41341">
        <ele>298.7998</ele>
        <time>2026-05-17T15:40:47+02:00</time>
      </trkpt>
      <trkpt lat="48.26187" lon="6.41335">
        <ele>298.9004</ele>
        <time>2026-05-17T15:40:48+02:00</time>
      </trkpt>
      <trkpt lat="48.26191" lon="6.4133">
        <ele>298.7998</ele>
        <time>2026-05-17T15:40:49+02:00</time>
      </trkpt>
      <trkpt lat="48.26196" lon="6.41326">
        <ele>298.9004</ele>
        <time>2026-05-17T15:40:50+02:00</time>
      </trkpt>
      <trkpt lat="48.262" lon="6.41321">
        <ele>298.7998</ele>
        <time>2026-05-17T15:40:51+02:00</time>
      </trkpt>
      <trkpt lat="48.26205" lon="6.41316">
        <ele>299</ele>
        <time>2026-05-17T15:40:52+02:00</time>
      </trkpt>
      <trkpt lat="48.2621" lon="6.41311">
        <ele>298.9004</ele>
        <time>2026-05-17T15:40:53+02:00</time>
      </trkpt>
      <trkpt lat="48.26215" lon="6.41306">
        <ele>299</ele>
        <time>2026-05-17T15:40:54+02:00</time>
      </trkpt>
      <trkpt lat="48.26219" lon="6.41301">
        <ele>299.1006</ele>
        <time>2026-05-17T15:40:55+02:00</time>
      </trkpt>
      <trkpt lat="48.26223" lon="6.41297">
        <ele>299.1006</ele>
        <time>2026-05-17T15:40:56+02:00</time>
      </trkpt>
      <trkpt lat="48.26227" lon="6.41292">
        <ele>299.1006</ele>
        <time>2026-05-17T15:40:57+02:00</time>
      </trkpt>
      <trkpt lat="48.26231" lon="6.41288">
        <ele>299.1006</ele>
        <time>2026-05-17T15:40:58+02:00</time>
      </trkpt>
      <trkpt lat="48.26235" lon="6.41283">
        <ele>299.1006</ele>
        <time>2026-05-17T15:40:59+02:00</time>
      </trkpt>
      <trkpt lat="48.2624" lon="6.41278">
        <ele>299.1006</ele>
        <time>2026-05-17T15:41:00+02:00</time>
      </trkpt>
      <trkpt lat="48.26244" lon="6.41274">
        <ele>299.1006</ele>
        <time>2026-05-17T15:41:01+02:00</time>
      </trkpt>
      <trkpt lat="48.26248" lon="6.41269">
        <ele>299.1006</ele>
        <time>2026-05-17T15:41:02+02:00</time>
      </trkpt>
      <trkpt lat="48.26253" lon="6.41264">
        <ele>299.1006</ele>
        <time>2026-05-17T15:41:03+02:00</time>
      </trkpt>
      <trkpt lat="48.26257" lon="6.41259">
        <ele>299.1006</ele>
        <time>2026-05-17T15:41:04+02:00</time>
      </trkpt>
      <trkpt lat="48.26262" lon="6.41254">
        <ele>299.1006</ele>
        <time>2026-05-17T15:41:05+02:00</time>
      </trkpt>
      <trkpt lat="48.26266" lon="6.4125">
        <ele>299.1006</ele>
        <time>2026-05-17T15:41:06+02:00</time>
      </trkpt>
      <trkpt lat="48.26271" lon="6.41244">
        <ele>299.1006</ele>
        <time>2026-05-17T15:41:07+02:00</time>
      </trkpt>
      <trkpt lat="48.26275" lon="6.41239">
        <ele>299</ele>
        <time>2026-05-17T15:41:08+02:00</time>
      </trkpt>
      <trkpt lat="48.2628" lon="6.41234">
        <ele>299</ele>
        <time>2026-05-17T15:41:09+02:00</time>
      </trkpt>
      <trkpt lat="48.26285" lon="6.41229">
        <ele>299.1006</ele>
        <time>2026-05-17T15:41:10+02:00</time>
      </trkpt>
      <trkpt lat="48.26289" lon="6.41224">
        <ele>299.2002</ele>
        <time>2026-05-17T15:41:11+02:00</time>
      </trkpt>
      <trkpt lat="48.26294" lon="6.41218">
        <ele>299.1006</ele>
        <time>2026-05-17T15:41:12+02:00</time>
      </trkpt>
      <trkpt lat="48.26299" lon="6.41213">
        <ele>299.1006</ele>
        <time>2026-05-17T15:41:13+02:00</time>
      </trkpt>
      <trkpt lat="48.26304" lon="6.41208">
        <ele>299.2002</ele>
        <time>2026-05-17T15:41:14+02:00</time>
      </trkpt>
      <trkpt lat="48.26309" lon="6.41203">
        <ele>299.1006</ele>
        <time>2026-05-17T15:41:15+02:00</time>
      </trkpt>
      <trkpt lat="48.26313" lon="6.41198">
        <ele>299.1006</ele>
        <time>2026-05-17T15:41:16+02:00</time>
      </trkpt>
      <trkpt lat="48.26318" lon="6.41193">
        <ele>299</ele>
        <time>2026-05-17T15:41:17+02:00</time>
      </trkpt>
      <trkpt lat="48.26323" lon="6.41188">
        <ele>298.9004</ele>
        <time>2026-05-17T15:41:18+02:00</time>
      </trkpt>
      <trkpt lat="48.26327" lon="6.41182">
        <ele>298.9004</ele>
        <time>2026-05-17T15:41:19+02:00</time>
      </trkpt>
      <trkpt lat="48.26332" lon="6.41177">
        <ele>298.7998</ele>
        <time>2026-05-17T15:41:20+02:00</time>
      </trkpt>
      <trkpt lat="48.26336" lon="6.41172">
        <ele>298.7002</ele>
        <time>2026-05-17T15:41:21+02:00</time>
      </trkpt>
      <trkpt lat="48.26341" lon="6.41167">
        <ele>298.7002</ele>
        <time>2026-05-17T15:41:22+02:00</time>
      </trkpt>
      <trkpt lat="48.26345" lon="6.41162">
        <ele>298.5</ele>
        <time>2026-05-17T15:41:23+02:00</time>
      </trkpt>
      <trkpt lat="48.26347" lon="6.4116">
        <ele>298.5</ele>
        <time>2026-05-17T15:41:24+02:00</time>
      </trkpt>
      <trkpt lat="48.26354" lon="6.41152">
        <ele>298.2998</ele>
        <time>2026-05-17T15:41:25+02:00</time>
      </trkpt>
      <trkpt lat="48.26358" lon="6.41147">
        <ele>298.1006</ele>
        <time>2026-05-17T15:41:26+02:00</time>
      </trkpt>
      <trkpt lat="48.26363" lon="6.41142">
        <ele>297.7998</ele>
        <time>2026-05-17T15:41:27+02:00</time>
      </trkpt>
      <trkpt lat="48.26367" lon="6.41137">
        <ele>297.5</ele>
        <time>2026-05-17T15:41:28+02:00</time>
      </trkpt>
      <trkpt lat="48.26372" lon="6.41132">
        <ele>297.2998</ele>
        <time>2026-05-17T15:41:29+02:00</time>
      </trkpt>
      <trkpt lat="48.26376" lon="6.41127">
        <ele>297.2002</ele>
        <time>2026-05-17T15:41:30+02:00</time>
      </trkpt>
      <trkpt lat="48.26381" lon="6.41122">
        <ele>297</ele>
        <time>2026-05-17T15:41:31+02:00</time>
      </trkpt>
      <trkpt lat="48.26386" lon="6.41117">
        <ele>296.7998</ele>
        <time>2026-05-17T15:41:32+02:00</time>
      </trkpt>
      <trkpt lat="48.2639" lon="6.41112">
        <ele>296.6006</ele>
        <time>2026-05-17T15:41:33+02:00</time>
      </trkpt>
      <trkpt lat="48.26395" lon="6.41107">
        <ele>296.4004</ele>
        <time>2026-05-17T15:41:34+02:00</time>
      </trkpt>
      <trkpt lat="48.26399" lon="6.41102">
        <ele>296.5</ele>
        <time>2026-05-17T15:41:35+02:00</time>
      </trkpt>
      <trkpt lat="48.26404" lon="6.41097">
        <ele>296.2998</ele>
        <time>2026-05-17T15:41:36+02:00</time>
      </trkpt>
      <trkpt lat="48.26409" lon="6.41092">
        <ele>296.1006</ele>
        <time>2026-05-17T15:41:37+02:00</time>
      </trkpt>
      <trkpt lat="48.26413" lon="6.41087">
        <ele>295.9004</ele>
        <time>2026-05-17T15:41:38+02:00</time>
      </trkpt>
      <trkpt lat="48.26418" lon="6.41082">
        <ele>295.9004</ele>
        <time>2026-05-17T15:41:39+02:00</time>
      </trkpt>
      <trkpt lat="48.26422" lon="6.41077">
        <ele>296</ele>
        <time>2026-05-17T15:41:40+02:00</time>
      </trkpt>
      <trkpt lat="48.26427" lon="6.41072">
        <ele>295.7998</ele>
        <time>2026-05-17T15:41:41+02:00</time>
      </trkpt>
      <trkpt lat="48.26432" lon="6.41067">
        <ele>295.7002</ele>
        <time>2026-05-17T15:41:42+02:00</time>
      </trkpt>
      <trkpt lat="48.26436" lon="6.41062">
        <ele>295.4004</ele>
        <time>2026-05-17T15:41:43+02:00</time>
      </trkpt>
      <trkpt lat="48.26441" lon="6.41058">
        <ele>295.7002</ele>
        <time>2026-05-17T15:41:44+02:00</time>
      </trkpt>
      <trkpt lat="48.26445" lon="6.41053">
        <ele>295.7002</ele>
        <time>2026-05-17T15:41:45+02:00</time>
      </trkpt>
      <trkpt lat="48.2645" lon="6.41048">
        <ele>296</ele>
        <time>2026-05-17T15:41:46+02:00</time>
      </trkpt>
      <trkpt lat="48.26452" lon="6.41045">
        <ele>296</ele>
        <time>2026-05-17T15:41:47+02:00</time>
      </trkpt>
      <trkpt lat="48.26458" lon="6.41038">
        <ele>296</ele>
        <time>2026-05-17T15:41:48+02:00</time>
      </trkpt>
      <trkpt lat="48.26462" lon="6.41033">
        <ele>296.2002</ele>
        <time>2026-05-17T15:41:49+02:00</time>
      </trkpt>
      <trkpt lat="48.26466" lon="6.41027">
        <ele>296.1006</ele>
        <time>2026-05-17T15:41:50+02:00</time>
      </trkpt>
      <trkpt lat="48.2647" lon="6.41022">
        <ele>296.1006</ele>
        <time>2026-05-17T15:41:51+02:00</time>
      </trkpt>
      <trkpt lat="48.26474" lon="6.41017">
        <ele>296.2998</ele>
        <time>2026-05-17T15:41:52+02:00</time>
      </trkpt>
      <trkpt lat="48.26478" lon="6.41012">
        <ele>296.2002</ele>
        <time>2026-05-17T15:41:53+02:00</time>
      </trkpt>
      <trkpt lat="48.26482" lon="6.41008">
        <ele>296.4004</ele>
        <time>2026-05-17T15:41:54+02:00</time>
      </trkpt>
      <trkpt lat="48.26486" lon="6.41005">
        <ele>296.2998</ele>
        <time>2026-05-17T15:41:55+02:00</time>
      </trkpt>
      <trkpt lat="48.26491" lon="6.41002">
        <ele>296.2998</ele>
        <time>2026-05-17T15:41:56+02:00</time>
      </trkpt>
      <trkpt lat="48.26495" lon="6.41">
        <ele>296.4004</ele>
        <time>2026-05-17T15:41:57+02:00</time>
      </trkpt>
      <trkpt lat="48.26498" lon="6.40997">
        <ele>296.2998</ele>
        <time>2026-05-17T15:41:58+02:00</time>
      </trkpt>
      <trkpt lat="48.26502" lon="6.40995">
        <ele>296.2998</ele>
        <time>2026-05-17T15:41:59+02:00</time>
      </trkpt>
      <trkpt lat="48.26505" lon="6.40991">
        <ele>296.2998</ele>
        <time>2026-05-17T15:42:00+02:00</time>
      </trkpt>
      <trkpt lat="48.2651" lon="6.40986">
        <ele>296.2002</ele>
        <time>2026-05-17T15:42:01+02:00</time>
      </trkpt>
      <trkpt lat="48.26515" lon="6.4098">
        <ele>296.2998</ele>
        <time>2026-05-17T15:42:02+02:00</time>
      </trkpt>
      <trkpt lat="48.2652" lon="6.40975">
        <ele>296.2998</ele>
        <time>2026-05-17T15:42:03+02:00</time>
      </trkpt>
      <trkpt lat="48.26526" lon="6.4097">
        <ele>296.2998</ele>
        <time>2026-05-17T15:42:04+02:00</time>
      </trkpt>
      <trkpt lat="48.26532" lon="6.40965">
        <ele>296.2998</ele>
        <time>2026-05-17T15:42:05+02:00</time>
      </trkpt>
      <trkpt lat="48.26537" lon="6.40959">
        <ele>296.2998</ele>
        <time>2026-05-17T15:42:06+02:00</time>
      </trkpt>
      <trkpt lat="48.26543" lon="6.40954">
        <ele>296.2998</ele>
        <time>2026-05-17T15:42:07+02:00</time>
      </trkpt>
      <trkpt lat="48.26549" lon="6.40948">
        <ele>296.4004</ele>
        <time>2026-05-17T15:42:08+02:00</time>
      </trkpt>
      <trkpt lat="48.26554" lon="6.40942">
        <ele>296.4004</ele>
        <time>2026-05-17T15:42:09+02:00</time>
      </trkpt>
      <trkpt lat="48.26559" lon="6.40936">
        <ele>296.6006</ele>
        <time>2026-05-17T15:42:10+02:00</time>
      </trkpt>
      <trkpt lat="48.26564" lon="6.4093">
        <ele>296.7998</ele>
        <time>2026-05-17T15:42:11+02:00</time>
      </trkpt>
      <trkpt lat="48.26569" lon="6.40925">
        <ele>296.7998</ele>
        <time>2026-05-17T15:42:12+02:00</time>
      </trkpt>
      <trkpt lat="48.26574" lon="6.40919">
        <ele>296.9004</ele>
        <time>2026-05-17T15:42:13+02:00</time>
      </trkpt>
      <trkpt lat="48.26579" lon="6.40914">
        <ele>297</ele>
        <time>2026-05-17T15:42:14+02:00</time>
      </trkpt>
      <trkpt lat="48.26584" lon="6.40908">
        <ele>297</ele>
        <time>2026-05-17T15:42:15+02:00</time>
      </trkpt>
      <trkpt lat="48.26589" lon="6.40903">
        <ele>297.1006</ele>
        <time>2026-05-17T15:42:16+02:00</time>
      </trkpt>
      <trkpt lat="48.26591" lon="6.409">
        <ele>297.1006</ele>
        <time>2026-05-17T15:42:17+02:00</time>
      </trkpt>
      <trkpt lat="48.26599" lon="6.40892">
        <ele>297.1006</ele>
        <time>2026-05-17T15:42:18+02:00</time>
      </trkpt>
      <trkpt lat="48.26604" lon="6.40886">
        <ele>297.2002</ele>
        <time>2026-05-17T15:42:19+02:00</time>
      </trkpt>
      <trkpt lat="48.26609" lon="6.4088">
        <ele>297.2002</ele>
        <time>2026-05-17T15:42:20+02:00</time>
      </trkpt>
      <trkpt lat="48.26615" lon="6.40875">
        <ele>297.1006</ele>
        <time>2026-05-17T15:42:21+02:00</time>
      </trkpt>
      <trkpt lat="48.26619" lon="6.40869">
        <ele>297.1006</ele>
        <time>2026-05-17T15:42:22+02:00</time>
      </trkpt>
      <trkpt lat="48.26625" lon="6.40863">
        <ele>297.1006</ele>
        <time>2026-05-17T15:42:23+02:00</time>
      </trkpt>
      <trkpt lat="48.2663" lon="6.40857">
        <ele>296.9004</ele>
        <time>2026-05-17T15:42:24+02:00</time>
      </trkpt>
      <trkpt lat="48.26635" lon="6.40852">
        <ele>296.9004</ele>
        <time>2026-05-17T15:42:25+02:00</time>
      </trkpt>
      <trkpt lat="48.2664" lon="6.40846">
        <ele>296.7998</ele>
        <time>2026-05-17T15:42:26+02:00</time>
      </trkpt>
      <trkpt lat="48.26645" lon="6.40841">
        <ele>296.7998</ele>
        <time>2026-05-17T15:42:27+02:00</time>
      </trkpt>
      <trkpt lat="48.26651" lon="6.40835">
        <ele>296.7002</ele>
        <time>2026-05-17T15:42:28+02:00</time>
      </trkpt>
      <trkpt lat="48.26656" lon="6.4083">
        <ele>296.6006</ele>
        <time>2026-05-17T15:42:29+02:00</time>
      </trkpt>
      <trkpt lat="48.26661" lon="6.40825">
        <ele>296.5</ele>
        <time>2026-05-17T15:42:30+02:00</time>
      </trkpt>
      <trkpt lat="48.26666" lon="6.40819">
        <ele>296.5</ele>
        <time>2026-05-17T15:42:31+02:00</time>
      </trkpt>
      <trkpt lat="48.26671" lon="6.40814">
        <ele>296.4004</ele>
        <time>2026-05-17T15:42:32+02:00</time>
      </trkpt>
      <trkpt lat="48.26676" lon="6.40809">
        <ele>296.2998</ele>
        <time>2026-05-17T15:42:33+02:00</time>
      </trkpt>
      <trkpt lat="48.26681" lon="6.40804">
        <ele>296.2998</ele>
        <time>2026-05-17T15:42:34+02:00</time>
      </trkpt>
      <trkpt lat="48.26685" lon="6.40799">
        <ele>296.2998</ele>
        <time>2026-05-17T15:42:35+02:00</time>
      </trkpt>
      <trkpt lat="48.2669" lon="6.40795">
        <ele>296.2002</ele>
        <time>2026-05-17T15:42:36+02:00</time>
      </trkpt>
      <trkpt lat="48.26694" lon="6.4079">
        <ele>296.2998</ele>
        <time>2026-05-17T15:42:37+02:00</time>
      </trkpt>
      <trkpt lat="48.26698" lon="6.40786">
        <ele>296.2998</ele>
        <time>2026-05-17T15:42:38+02:00</time>
      </trkpt>
      <trkpt lat="48.26703" lon="6.40782">
        <ele>296.2998</ele>
        <time>2026-05-17T15:42:39+02:00</time>
      </trkpt>
      <trkpt lat="48.26707" lon="6.40779">
        <ele>296.2998</ele>
        <time>2026-05-17T15:42:40+02:00</time>
      </trkpt>
      <trkpt lat="48.26711" lon="6.40778">
        <ele>296.2002</ele>
        <time>2026-05-17T15:42:41+02:00</time>
      </trkpt>
      <trkpt lat="48.26713" lon="6.4078">
        <ele>296.2002</ele>
        <time>2026-05-17T15:42:42+02:00</time>
      </trkpt>
      <trkpt lat="48.26714" lon="6.40784">
        <ele>296.2002</ele>
        <time>2026-05-17T15:42:43+02:00</time>
      </trkpt>
      <trkpt lat="48.26713" lon="6.40789">
        <ele>296.2002</ele>
        <time>2026-05-17T15:42:44+02:00</time>
      </trkpt>
      <trkpt lat="48.26713" lon="6.40794">
        <ele>296.2002</ele>
        <time>2026-05-17T15:42:45+02:00</time>
      </trkpt>
      <trkpt lat="48.26712" lon="6.408">
        <ele>296.2002</ele>
        <time>2026-05-17T15:42:46+02:00</time>
      </trkpt>
      <trkpt lat="48.26711" lon="6.40806">
        <ele>296.1006</ele>
        <time>2026-05-17T15:42:47+02:00</time>
      </trkpt>
      <trkpt lat="48.26711" lon="6.40813">
        <ele>296.1006</ele>
        <time>2026-05-17T15:42:48+02:00</time>
      </trkpt>
      <trkpt lat="48.26712" lon="6.4082">
        <ele>296.1006</ele>
        <time>2026-05-17T15:42:49+02:00</time>
      </trkpt>
      <trkpt lat="48.26713" lon="6.40828">
        <ele>296</ele>
        <time>2026-05-17T15:42:50+02:00</time>
      </trkpt>
      <trkpt lat="48.26714" lon="6.40835">
        <ele>295.9004</ele>
        <time>2026-05-17T15:42:51+02:00</time>
      </trkpt>
      <trkpt lat="48.26717" lon="6.40843">
        <ele>295.7998</ele>
        <time>2026-05-17T15:42:52+02:00</time>
      </trkpt>
      <trkpt lat="48.26719" lon="6.4085">
        <ele>295.7002</ele>
        <time>2026-05-17T15:42:53+02:00</time>
      </trkpt>
      <trkpt lat="48.26722" lon="6.40856">
        <ele>295.7002</ele>
        <time>2026-05-17T15:42:54+02:00</time>
      </trkpt>
      <trkpt lat="48.26727" lon="6.40861">
        <ele>295.7002</ele>
        <time>2026-05-17T15:42:55+02:00</time>
      </trkpt>
      <trkpt lat="48.26731" lon="6.40866">
        <ele>295.6006</ele>
        <time>2026-05-17T15:42:56+02:00</time>
      </trkpt>
      <trkpt lat="48.26735" lon="6.4087">
        <ele>295.7002</ele>
        <time>2026-05-17T15:42:57+02:00</time>
      </trkpt>
      <trkpt lat="48.2674" lon="6.40873">
        <ele>295.6006</ele>
        <time>2026-05-17T15:42:58+02:00</time>
      </trkpt>
      <trkpt lat="48.26745" lon="6.40874">
        <ele>295.6006</ele>
        <time>2026-05-17T15:42:59+02:00</time>
      </trkpt>
      <trkpt lat="48.2675" lon="6.40872">
        <ele>295.7002</ele>
        <time>2026-05-17T15:43:00+02:00</time>
      </trkpt>
      <trkpt lat="48.26755" lon="6.40868">
        <ele>295.7002</ele>
        <time>2026-05-17T15:43:01+02:00</time>
      </trkpt>
      <trkpt lat="48.26758" lon="6.40862">
        <ele>295.7998</ele>
        <time>2026-05-17T15:43:02+02:00</time>
      </trkpt>
      <trkpt lat="48.2676" lon="6.40855">
        <ele>295.7998</ele>
        <time>2026-05-17T15:43:03+02:00</time>
      </trkpt>
      <trkpt lat="48.26763" lon="6.40847">
        <ele>295.7998</ele>
        <time>2026-05-17T15:43:04+02:00</time>
      </trkpt>
      <trkpt lat="48.26765" lon="6.4084">
        <ele>295.9004</ele>
        <time>2026-05-17T15:43:05+02:00</time>
      </trkpt>
      <trkpt lat="48.26768" lon="6.40833">
        <ele>295.9004</ele>
        <time>2026-05-17T15:43:06+02:00</time>
      </trkpt>
      <trkpt lat="48.26771" lon="6.40825">
        <ele>295.9004</ele>
        <time>2026-05-17T15:43:07+02:00</time>
      </trkpt>
      <trkpt lat="48.26773" lon="6.40818">
        <ele>295.9004</ele>
        <time>2026-05-17T15:43:08+02:00</time>
      </trkpt>
      <trkpt lat="48.26775" lon="6.40811">
        <ele>296</ele>
        <time>2026-05-17T15:43:09+02:00</time>
      </trkpt>
      <trkpt lat="48.26778" lon="6.40803">
        <ele>296</ele>
        <time>2026-05-17T15:43:10+02:00</time>
      </trkpt>
      <trkpt lat="48.26781" lon="6.40796">
        <ele>296</ele>
        <time>2026-05-17T15:43:11+02:00</time>
      </trkpt>
      <trkpt lat="48.26783" lon="6.40789">
        <ele>296.1006</ele>
        <time>2026-05-17T15:43:12+02:00</time>
      </trkpt>
      <trkpt lat="48.26786" lon="6.40781">
        <ele>296.1006</ele>
        <time>2026-05-17T15:43:13+02:00</time>
      </trkpt>
      <trkpt lat="48.26788" lon="6.40774">
        <ele>296.2002</ele>
        <time>2026-05-17T15:43:14+02:00</time>
      </trkpt>
      <trkpt lat="48.26791" lon="6.40767">
        <ele>296.2002</ele>
        <time>2026-05-17T15:43:15+02:00</time>
      </trkpt>
      <trkpt lat="48.26794" lon="6.4076">
        <ele>296.2998</ele>
        <time>2026-05-17T15:43:16+02:00</time>
      </trkpt>
      <trkpt lat="48.26798" lon="6.40754">
        <ele>296.2002</ele>
        <time>2026-05-17T15:43:17+02:00</time>
      </trkpt>
      <trkpt lat="48.26801" lon="6.40748">
        <ele>296.2998</ele>
        <time>2026-05-17T15:43:18+02:00</time>
      </trkpt>
      <trkpt lat="48.26804" lon="6.40742">
        <ele>296.4004</ele>
        <time>2026-05-17T15:43:19+02:00</time>
      </trkpt>
      <trkpt lat="48.26808" lon="6.40737">
        <ele>296.2998</ele>
        <time>2026-05-17T15:43:20+02:00</time>
      </trkpt>
      <trkpt lat="48.26811" lon="6.40731">
        <ele>296.4004</ele>
        <time>2026-05-17T15:43:21+02:00</time>
      </trkpt>
      <trkpt lat="48.26814" lon="6.40725">
        <ele>296.5</ele>
        <time>2026-05-17T15:43:22+02:00</time>
      </trkpt>
      <trkpt lat="48.26816" lon="6.40719">
        <ele>296.5</ele>
        <time>2026-05-17T15:43:23+02:00</time>
      </trkpt>
      <trkpt lat="48.26817" lon="6.40712">
        <ele>296.5</ele>
        <time>2026-05-17T15:43:24+02:00</time>
      </trkpt>
      <trkpt lat="48.26819" lon="6.40706">
        <ele>296.6006</ele>
        <time>2026-05-17T15:43:25+02:00</time>
      </trkpt>
      <trkpt lat="48.2682" lon="6.40699">
        <ele>296.7998</ele>
        <time>2026-05-17T15:43:26+02:00</time>
      </trkpt>
      <trkpt lat="48.26821" lon="6.40693">
        <ele>296.7998</ele>
        <time>2026-05-17T15:43:27+02:00</time>
      </trkpt>
      <trkpt lat="48.26821" lon="6.4069">
        <ele>296.9004</ele>
        <time>2026-05-17T15:43:28+02:00</time>
      </trkpt>
      <trkpt lat="48.26823" lon="6.4068">
        <ele>296.9004</ele>
        <time>2026-05-17T15:43:29+02:00</time>
      </trkpt>
      <trkpt lat="48.26824" lon="6.40673">
        <ele>297</ele>
        <time>2026-05-17T15:43:30+02:00</time>
      </trkpt>
      <trkpt lat="48.26825" lon="6.40667">
        <ele>297</ele>
        <time>2026-05-17T15:43:31+02:00</time>
      </trkpt>
      <trkpt lat="48.26827" lon="6.4066">
        <ele>297.1006</ele>
        <time>2026-05-17T15:43:32+02:00</time>
      </trkpt>
      <trkpt lat="48.26829" lon="6.40654">
        <ele>297.1006</ele>
        <time>2026-05-17T15:43:33+02:00</time>
      </trkpt>
      <trkpt lat="48.26832" lon="6.40647">
        <ele>297.2002</ele>
        <time>2026-05-17T15:43:34+02:00</time>
      </trkpt>
      <trkpt lat="48.26833" lon="6.40644">
        <ele>297.2002</ele>
        <time>2026-05-17T15:43:35+02:00</time>
      </trkpt>
      <trkpt lat="48.26837" lon="6.40635">
        <ele>297.2998</ele>
        <time>2026-05-17T15:43:36+02:00</time>
      </trkpt>
      <trkpt lat="48.26841" lon="6.40629">
        <ele>297.2998</ele>
        <time>2026-05-17T15:43:37+02:00</time>
      </trkpt>
      <trkpt lat="48.26845" lon="6.40624">
        <ele>297.2998</ele>
        <time>2026-05-17T15:43:38+02:00</time>
      </trkpt>
      <trkpt lat="48.26849" lon="6.4062">
        <ele>297.2998</ele>
        <time>2026-05-17T15:43:39+02:00</time>
      </trkpt>
      <trkpt lat="48.26853" lon="6.40615">
        <ele>297.1006</ele>
        <time>2026-05-17T15:43:40+02:00</time>
      </trkpt>
      <trkpt lat="48.26857" lon="6.40611">
        <ele>297</ele>
        <time>2026-05-17T15:43:41+02:00</time>
      </trkpt>
      <trkpt lat="48.26861" lon="6.40606">
        <ele>297</ele>
        <time>2026-05-17T15:43:42+02:00</time>
      </trkpt>
      <trkpt lat="48.26866" lon="6.40602">
        <ele>296.9004</ele>
        <time>2026-05-17T15:43:43+02:00</time>
      </trkpt>
      <trkpt lat="48.2687" lon="6.40597">
        <ele>296.7002</ele>
        <time>2026-05-17T15:43:44+02:00</time>
      </trkpt>
      <trkpt lat="48.26874" lon="6.40593">
        <ele>296.5</ele>
        <time>2026-05-17T15:43:45+02:00</time>
      </trkpt>
      <trkpt lat="48.26878" lon="6.40589">
        <ele>296.5</ele>
        <time>2026-05-17T15:43:46+02:00</time>
      </trkpt>
      <trkpt lat="48.26883" lon="6.40584">
        <ele>296.4004</ele>
        <time>2026-05-17T15:43:47+02:00</time>
      </trkpt>
      <trkpt lat="48.26887" lon="6.4058">
        <ele>296.2998</ele>
        <time>2026-05-17T15:43:48+02:00</time>
      </trkpt>
      <trkpt lat="48.26891" lon="6.40576">
        <ele>296.2998</ele>
        <time>2026-05-17T15:43:49+02:00</time>
      </trkpt>
      <trkpt lat="48.26896" lon="6.40571">
        <ele>296.2998</ele>
        <time>2026-05-17T15:43:50+02:00</time>
      </trkpt>
      <trkpt lat="48.269" lon="6.40567">
        <ele>296.2002</ele>
        <time>2026-05-17T15:43:51+02:00</time>
      </trkpt>
      <trkpt lat="48.26902" lon="6.40565">
        <ele>296.2002</ele>
        <time>2026-05-17T15:43:52+02:00</time>
      </trkpt>
      <trkpt lat="48.26908" lon="6.4056">
        <ele>296.2002</ele>
        <time>2026-05-17T15:43:53+02:00</time>
      </trkpt>
      <trkpt lat="48.26912" lon="6.40556">
        <ele>296.1006</ele>
        <time>2026-05-17T15:43:54+02:00</time>
      </trkpt>
      <trkpt lat="48.26917" lon="6.40552">
        <ele>296.2002</ele>
        <time>2026-05-17T15:43:55+02:00</time>
      </trkpt>
      <trkpt lat="48.26921" lon="6.40548">
        <ele>296.1006</ele>
        <time>2026-05-17T15:43:56+02:00</time>
      </trkpt>
      <trkpt lat="48.26925" lon="6.40543">
        <ele>296.2002</ele>
        <time>2026-05-17T15:43:57+02:00</time>
      </trkpt>
      <trkpt lat="48.26929" lon="6.40539">
        <ele>296.1006</ele>
        <time>2026-05-17T15:43:58+02:00</time>
      </trkpt>
      <trkpt lat="48.26933" lon="6.40536">
        <ele>296.2002</ele>
        <time>2026-05-17T15:43:59+02:00</time>
      </trkpt>
      <trkpt lat="48.26938" lon="6.40532">
        <ele>296.2002</ele>
        <time>2026-05-17T15:44:00+02:00</time>
      </trkpt>
      <trkpt lat="48.26942" lon="6.40528">
        <ele>296.2998</ele>
        <time>2026-05-17T15:44:01+02:00</time>
      </trkpt>
      <trkpt lat="48.26946" lon="6.40524">
        <ele>296.2998</ele>
        <time>2026-05-17T15:44:02+02:00</time>
      </trkpt>
      <trkpt lat="48.26951" lon="6.4052">
        <ele>296.4004</ele>
        <time>2026-05-17T15:44:03+02:00</time>
      </trkpt>
      <trkpt lat="48.26955" lon="6.40516">
        <ele>296.4004</ele>
        <time>2026-05-17T15:44:04+02:00</time>
      </trkpt>
      <trkpt lat="48.26959" lon="6.40512">
        <ele>296.4004</ele>
        <time>2026-05-17T15:44:05+02:00</time>
      </trkpt>
      <trkpt lat="48.26964" lon="6.40509">
        <ele>296.5</ele>
        <time>2026-05-17T15:44:06+02:00</time>
      </trkpt>
      <trkpt lat="48.26969" lon="6.40505">
        <ele>296.5</ele>
        <time>2026-05-17T15:44:07+02:00</time>
      </trkpt>
      <trkpt lat="48.26973" lon="6.40501">
        <ele>296.7002</ele>
        <time>2026-05-17T15:44:08+02:00</time>
      </trkpt>
      <trkpt lat="48.26978" lon="6.40497">
        <ele>296.7998</ele>
        <time>2026-05-17T15:44:09+02:00</time>
      </trkpt>
      <trkpt lat="48.26983" lon="6.40493">
        <ele>297</ele>
        <time>2026-05-17T15:44:10+02:00</time>
      </trkpt>
      <trkpt lat="48.26988" lon="6.40489">
        <ele>297</ele>
        <time>2026-05-17T15:44:11+02:00</time>
      </trkpt>
      <trkpt lat="48.26993" lon="6.40485">
        <ele>297.2002</ele>
        <time>2026-05-17T15:44:12+02:00</time>
      </trkpt>
      <trkpt lat="48.26998" lon="6.40482">
        <ele>297.2998</ele>
        <time>2026-05-17T15:44:13+02:00</time>
      </trkpt>
      <trkpt lat="48.27002" lon="6.40477">
        <ele>297.4004</ele>
        <time>2026-05-17T15:44:14+02:00</time>
      </trkpt>
      <trkpt lat="48.27007" lon="6.40473">
        <ele>297.5</ele>
        <time>2026-05-17T15:44:15+02:00</time>
      </trkpt>
      <trkpt lat="48.27012" lon="6.40469">
        <ele>297.6006</ele>
        <time>2026-05-17T15:44:16+02:00</time>
      </trkpt>
      <trkpt lat="48.27017" lon="6.40465">
        <ele>297.7002</ele>
        <time>2026-05-17T15:44:17+02:00</time>
      </trkpt>
      <trkpt lat="48.27022" lon="6.40461">
        <ele>297.7998</ele>
        <time>2026-05-17T15:44:18+02:00</time>
      </trkpt>
      <trkpt lat="48.27027" lon="6.40458">
        <ele>297.9004</ele>
        <time>2026-05-17T15:44:19+02:00</time>
      </trkpt>
      <trkpt lat="48.27032" lon="6.40454">
        <ele>298</ele>
        <time>2026-05-17T15:44:20+02:00</time>
      </trkpt>
      <trkpt lat="48.27037" lon="6.4045">
        <ele>298.1006</ele>
        <time>2026-05-17T15:44:21+02:00</time>
      </trkpt>
      <trkpt lat="48.27042" lon="6.40447">
        <ele>298.2002</ele>
        <time>2026-05-17T15:44:22+02:00</time>
      </trkpt>
      <trkpt lat="48.27046" lon="6.40443">
        <ele>298.2998</ele>
        <time>2026-05-17T15:44:23+02:00</time>
      </trkpt>
      <trkpt lat="48.27051" lon="6.40439">
        <ele>298.4004</ele>
        <time>2026-05-17T15:44:24+02:00</time>
      </trkpt>
      <trkpt lat="48.27056" lon="6.40436">
        <ele>298.4004</ele>
        <time>2026-05-17T15:44:25+02:00</time>
      </trkpt>
      <trkpt lat="48.27061" lon="6.40432">
        <ele>298.4004</ele>
        <time>2026-05-17T15:44:26+02:00</time>
      </trkpt>
      <trkpt lat="48.27066" lon="6.40429">
        <ele>298.5</ele>
        <time>2026-05-17T15:44:27+02:00</time>
      </trkpt>
      <trkpt lat="48.27071" lon="6.40425">
        <ele>298.4004</ele>
        <time>2026-05-17T15:44:28+02:00</time>
      </trkpt>
      <trkpt lat="48.27076" lon="6.40421">
        <ele>298.5</ele>
        <time>2026-05-17T15:44:29+02:00</time>
      </trkpt>
      <trkpt lat="48.27079" lon="6.40419">
        <ele>298.5</ele>
        <time>2026-05-17T15:44:30+02:00</time>
      </trkpt>
      <trkpt lat="48.27086" lon="6.40413">
        <ele>298.7002</ele>
        <time>2026-05-17T15:44:31+02:00</time>
      </trkpt>
      <trkpt lat="48.27091" lon="6.4041">
        <ele>298.7002</ele>
        <time>2026-05-17T15:44:32+02:00</time>
      </trkpt>
      <trkpt lat="48.27096" lon="6.40406">
        <ele>298.7002</ele>
        <time>2026-05-17T15:44:33+02:00</time>
      </trkpt>
      <trkpt lat="48.27101" lon="6.40403">
        <ele>298.7002</ele>
        <time>2026-05-17T15:44:34+02:00</time>
      </trkpt>
      <trkpt lat="48.27106" lon="6.40399">
        <ele>298.6006</ele>
        <time>2026-05-17T15:44:35+02:00</time>
      </trkpt>
      <trkpt lat="48.2711" lon="6.40396">
        <ele>298.6006</ele>
        <time>2026-05-17T15:44:36+02:00</time>
      </trkpt>
      <trkpt lat="48.27116" lon="6.40392">
        <ele>298.7002</ele>
        <time>2026-05-17T15:44:37+02:00</time>
      </trkpt>
      <trkpt lat="48.27121" lon="6.40389">
        <ele>298.6006</ele>
        <time>2026-05-17T15:44:38+02:00</time>
      </trkpt>
      <trkpt lat="48.27126" lon="6.40385">
        <ele>298.6006</ele>
        <time>2026-05-17T15:44:39+02:00</time>
      </trkpt>
      <trkpt lat="48.27131" lon="6.40382">
        <ele>298.5</ele>
        <time>2026-05-17T15:44:40+02:00</time>
      </trkpt>
      <trkpt lat="48.27136" lon="6.40379">
        <ele>298.5</ele>
        <time>2026-05-17T15:44:41+02:00</time>
      </trkpt>
      <trkpt lat="48.27141" lon="6.40376">
        <ele>298.6006</ele>
        <time>2026-05-17T15:44:42+02:00</time>
      </trkpt>
      <trkpt lat="48.27146" lon="6.40372">
        <ele>298.5</ele>
        <time>2026-05-17T15:44:43+02:00</time>
      </trkpt>
      <trkpt lat="48.27151" lon="6.40369">
        <ele>298.5</ele>
        <time>2026-05-17T15:44:44+02:00</time>
      </trkpt>
      <trkpt lat="48.27156" lon="6.40367">
        <ele>298.6006</ele>
        <time>2026-05-17T15:44:45+02:00</time>
      </trkpt>
      <trkpt lat="48.27161" lon="6.40364">
        <ele>298.2998</ele>
        <time>2026-05-17T15:44:46+02:00</time>
      </trkpt>
      <trkpt lat="48.27166" lon="6.40361">
        <ele>298.2998</ele>
        <time>2026-05-17T15:44:47+02:00</time>
      </trkpt>
      <trkpt lat="48.27168" lon="6.40359">
        <ele>298.2998</ele>
        <time>2026-05-17T15:44:48+02:00</time>
      </trkpt>
      <trkpt lat="48.27176" lon="6.40355">
        <ele>297.9004</ele>
        <time>2026-05-17T15:44:49+02:00</time>
      </trkpt>
      <trkpt lat="48.27181" lon="6.40352">
        <ele>297.7998</ele>
        <time>2026-05-17T15:44:50+02:00</time>
      </trkpt>
      <trkpt lat="48.27186" lon="6.40348">
        <ele>297.4004</ele>
        <time>2026-05-17T15:44:51+02:00</time>
      </trkpt>
      <trkpt lat="48.27192" lon="6.40346">
        <ele>297.2998</ele>
        <time>2026-05-17T15:44:52+02:00</time>
      </trkpt>
      <trkpt lat="48.27197" lon="6.40343">
        <ele>297.2002</ele>
        <time>2026-05-17T15:44:53+02:00</time>
      </trkpt>
      <trkpt lat="48.27202" lon="6.4034">
        <ele>297.1006</ele>
        <time>2026-05-17T15:44:54+02:00</time>
      </trkpt>
      <trkpt lat="48.27207" lon="6.40337">
        <ele>296.7998</ele>
        <time>2026-05-17T15:44:55+02:00</time>
      </trkpt>
      <trkpt lat="48.27213" lon="6.40334">
        <ele>296.6006</ele>
        <time>2026-05-17T15:44:56+02:00</time>
      </trkpt>
      <trkpt lat="48.27218" lon="6.40331">
        <ele>296.4004</ele>
        <time>2026-05-17T15:44:57+02:00</time>
      </trkpt>
      <trkpt lat="48.27223" lon="6.40328">
        <ele>296.2998</ele>
        <time>2026-05-17T15:44:58+02:00</time>
      </trkpt>
      <trkpt lat="48.27229" lon="6.40325">
        <ele>296.2002</ele>
        <time>2026-05-17T15:44:59+02:00</time>
      </trkpt>
      <trkpt lat="48.27234" lon="6.40322">
        <ele>296</ele>
        <time>2026-05-17T15:45:00+02:00</time>
      </trkpt>
      <trkpt lat="48.2724" lon="6.40319">
        <ele>295.9004</ele>
        <time>2026-05-17T15:45:01+02:00</time>
      </trkpt>
      <trkpt lat="48.27245" lon="6.40316">
        <ele>295.9004</ele>
        <time>2026-05-17T15:45:02+02:00</time>
      </trkpt>
      <trkpt lat="48.2725" lon="6.40313">
        <ele>295.7002</ele>
        <time>2026-05-17T15:45:03+02:00</time>
      </trkpt>
      <trkpt lat="48.27256" lon="6.40311">
        <ele>295.7002</ele>
        <time>2026-05-17T15:45:04+02:00</time>
      </trkpt>
      <trkpt lat="48.27261" lon="6.40308">
        <ele>295.7002</ele>
        <time>2026-05-17T15:45:05+02:00</time>
      </trkpt>
      <trkpt lat="48.27267" lon="6.40304">
        <ele>295.7002</ele>
        <time>2026-05-17T15:45:06+02:00</time>
      </trkpt>
      <trkpt lat="48.27272" lon="6.40301">
        <ele>295.7998</ele>
        <time>2026-05-17T15:45:07+02:00</time>
      </trkpt>
      <trkpt lat="48.27278" lon="6.40298">
        <ele>295.7998</ele>
        <time>2026-05-17T15:45:08+02:00</time>
      </trkpt>
      <trkpt lat="48.27283" lon="6.40296">
        <ele>295.7998</ele>
        <time>2026-05-17T15:45:09+02:00</time>
      </trkpt>
      <trkpt lat="48.27289" lon="6.40293">
        <ele>295.7998</ele>
        <time>2026-05-17T15:45:10+02:00</time>
      </trkpt>
      <trkpt lat="48.27294" lon="6.40291">
        <ele>295.7998</ele>
        <time>2026-05-17T15:45:11+02:00</time>
      </trkpt>
      <trkpt lat="48.27297" lon="6.40289">
        <ele>295.7998</ele>
        <time>2026-05-17T15:45:12+02:00</time>
      </trkpt>
      <trkpt lat="48.27304" lon="6.40285">
        <ele>295.9004</ele>
        <time>2026-05-17T15:45:13+02:00</time>
      </trkpt>
      <trkpt lat="48.2731" lon="6.40283">
        <ele>295.9004</ele>
        <time>2026-05-17T15:45:14+02:00</time>
      </trkpt>
      <trkpt lat="48.27315" lon="6.4028">
        <ele>295.9004</ele>
        <time>2026-05-17T15:45:15+02:00</time>
      </trkpt>
      <trkpt lat="48.2732" lon="6.40278">
        <ele>296</ele>
        <time>2026-05-17T15:45:16+02:00</time>
      </trkpt>
      <trkpt lat="48.27326" lon="6.40276">
        <ele>296</ele>
        <time>2026-05-17T15:45:17+02:00</time>
      </trkpt>
      <trkpt lat="48.27331" lon="6.40273">
        <ele>295.9004</ele>
        <time>2026-05-17T15:45:18+02:00</time>
      </trkpt>
      <trkpt lat="48.27334" lon="6.40272">
        <ele>295.9004</ele>
        <time>2026-05-17T15:45:19+02:00</time>
      </trkpt>
      <trkpt lat="48.27343" lon="6.40269">
        <ele>295.9004</ele>
        <time>2026-05-17T15:45:20+02:00</time>
      </trkpt>
      <trkpt lat="48.27348" lon="6.40267">
        <ele>295.9004</ele>
        <time>2026-05-17T15:45:21+02:00</time>
      </trkpt>
      <trkpt lat="48.27354" lon="6.40264">
        <ele>295.7002</ele>
        <time>2026-05-17T15:45:22+02:00</time>
      </trkpt>
      <trkpt lat="48.2736" lon="6.40262">
        <ele>295.7002</ele>
        <time>2026-05-17T15:45:23+02:00</time>
      </trkpt>
      <trkpt lat="48.27366" lon="6.4026">
        <ele>295.5</ele>
        <time>2026-05-17T15:45:24+02:00</time>
      </trkpt>
      <trkpt lat="48.27371" lon="6.40257">
        <ele>295.5</ele>
        <time>2026-05-17T15:45:25+02:00</time>
      </trkpt>
      <trkpt lat="48.27376" lon="6.40255">
        <ele>295.4004</ele>
        <time>2026-05-17T15:45:26+02:00</time>
      </trkpt>
      <trkpt lat="48.27382" lon="6.40253">
        <ele>295.2998</ele>
        <time>2026-05-17T15:45:27+02:00</time>
      </trkpt>
      <trkpt lat="48.27387" lon="6.4025">
        <ele>295.2002</ele>
        <time>2026-05-17T15:45:28+02:00</time>
      </trkpt>
      <trkpt lat="48.27392" lon="6.40248">
        <ele>295.1006</ele>
        <time>2026-05-17T15:45:29+02:00</time>
      </trkpt>
      <trkpt lat="48.27398" lon="6.40246">
        <ele>295</ele>
        <time>2026-05-17T15:45:30+02:00</time>
      </trkpt>
      <trkpt lat="48.27403" lon="6.40244">
        <ele>294.9004</ele>
        <time>2026-05-17T15:45:31+02:00</time>
      </trkpt>
      <trkpt lat="48.27408" lon="6.40242">
        <ele>294.7998</ele>
        <time>2026-05-17T15:45:32+02:00</time>
      </trkpt>
      <trkpt lat="48.27413" lon="6.4024">
        <ele>294.7998</ele>
        <time>2026-05-17T15:45:33+02:00</time>
      </trkpt>
      <trkpt lat="48.27419" lon="6.40238">
        <ele>294.7002</ele>
        <time>2026-05-17T15:45:34+02:00</time>
      </trkpt>
      <trkpt lat="48.27424" lon="6.40236">
        <ele>294.7002</ele>
        <time>2026-05-17T15:45:35+02:00</time>
      </trkpt>
      <trkpt lat="48.27429" lon="6.40234">
        <ele>294.7002</ele>
        <time>2026-05-17T15:45:36+02:00</time>
      </trkpt>
      <trkpt lat="48.27435" lon="6.40231">
        <ele>294.6006</ele>
        <time>2026-05-17T15:45:37+02:00</time>
      </trkpt>
      <trkpt lat="48.2744" lon="6.4023">
        <ele>294.6006</ele>
        <time>2026-05-17T15:45:38+02:00</time>
      </trkpt>
      <trkpt lat="48.27445" lon="6.40228">
        <ele>294.6006</ele>
        <time>2026-05-17T15:45:39+02:00</time>
      </trkpt>
      <trkpt lat="48.2745" lon="6.40226">
        <ele>294.6006</ele>
        <time>2026-05-17T15:45:40+02:00</time>
      </trkpt>
      <trkpt lat="48.27455" lon="6.40224">
        <ele>294.5</ele>
        <time>2026-05-17T15:45:41+02:00</time>
      </trkpt>
      <trkpt lat="48.27461" lon="6.40223">
        <ele>294.5</ele>
        <time>2026-05-17T15:45:42+02:00</time>
      </trkpt>
      <trkpt lat="48.27466" lon="6.40221">
        <ele>294.4004</ele>
        <time>2026-05-17T15:45:43+02:00</time>
      </trkpt>
      <trkpt lat="48.27472" lon="6.40219">
        <ele>294.5</ele>
        <time>2026-05-17T15:45:44+02:00</time>
      </trkpt>
      <trkpt lat="48.27477" lon="6.40217">
        <ele>294.4004</ele>
        <time>2026-05-17T15:45:45+02:00</time>
      </trkpt>
      <trkpt lat="48.27483" lon="6.40215">
        <ele>294.4004</ele>
        <time>2026-05-17T15:45:46+02:00</time>
      </trkpt>
      <trkpt lat="48.27488" lon="6.40213">
        <ele>294.2998</ele>
        <time>2026-05-17T15:45:47+02:00</time>
      </trkpt>
      <trkpt lat="48.27493" lon="6.40211">
        <ele>294.4004</ele>
        <time>2026-05-17T15:45:48+02:00</time>
      </trkpt>
      <trkpt lat="48.27498" lon="6.40208">
        <ele>294.2998</ele>
        <time>2026-05-17T15:45:49+02:00</time>
      </trkpt>
      <trkpt lat="48.27502" lon="6.40206">
        <ele>294.2998</ele>
        <time>2026-05-17T15:45:50+02:00</time>
      </trkpt>
      <trkpt lat="48.27506" lon="6.40204">
        <ele>294.1006</ele>
        <time>2026-05-17T15:45:51+02:00</time>
      </trkpt>
      <trkpt lat="48.27511" lon="6.40202">
        <ele>294.1006</ele>
        <time>2026-05-17T15:45:52+02:00</time>
      </trkpt>
      <trkpt lat="48.27516" lon="6.402">
        <ele>293.7998</ele>
        <time>2026-05-17T15:45:53+02:00</time>
      </trkpt>
      <trkpt lat="48.27521" lon="6.40198">
        <ele>293.6006</ele>
        <time>2026-05-17T15:45:54+02:00</time>
      </trkpt>
      <trkpt lat="48.27526" lon="6.40196">
        <ele>293.4004</ele>
        <time>2026-05-17T15:45:55+02:00</time>
      </trkpt>
      <trkpt lat="48.2753" lon="6.40195">
        <ele>293.4004</ele>
        <time>2026-05-17T15:45:56+02:00</time>
      </trkpt>
      <trkpt lat="48.27535" lon="6.40193">
        <ele>293.5</ele>
        <time>2026-05-17T15:45:57+02:00</time>
      </trkpt>
      <trkpt lat="48.27539" lon="6.40192">
        <ele>293.2002</ele>
        <time>2026-05-17T15:45:58+02:00</time>
      </trkpt>
      <trkpt lat="48.27543" lon="6.40193">
        <ele>292.7998</ele>
        <time>2026-05-17T15:45:59+02:00</time>
      </trkpt>
      <trkpt lat="48.27547" lon="6.40194">
        <ele>292.2998</ele>
        <time>2026-05-17T15:46:00+02:00</time>
      </trkpt>
      <trkpt lat="48.2755" lon="6.40196">
        <ele>291.7998</ele>
        <time>2026-05-17T15:46:01+02:00</time>
      </trkpt>
      <trkpt lat="48.27551" lon="6.40197">
        <ele>291.7998</ele>
        <time>2026-05-17T15:46:02+02:00</time>
      </trkpt>
      <trkpt lat="48.27554" lon="6.40197">
        <ele>291.2002</ele>
        <time>2026-05-17T15:46:03+02:00</time>
      </trkpt>
      <trkpt lat="48.27554" lon="6.40197">
        <ele>291.2002</ele>
        <time>2026-05-17T15:46:04+02:00</time>
      </trkpt>
      <trkpt lat="48.27554" lon="6.40197">
        <ele>291.2002</ele>
        <time>2026-05-17T15:46:05+02:00</time>
      </trkpt>
      <trkpt lat="48.27554" lon="6.40197">
        <ele>291.2002</ele>
        <time>2026-05-17T15:46:06+02:00</time>
      </trkpt>
      <trkpt lat="48.27554" lon="6.40197">
        <ele>291.2002</ele>
        <time>2026-05-17T15:46:07+02:00</time>
      </trkpt>
      <trkpt lat="48.27577" lon="6.40192">
        <ele>291.1006</ele>
        <time>2026-05-17T15:47:04+02:00</time>
      </trkpt>
      <trkpt lat="48.27582" lon="6.40191">
        <ele>291.1006</ele>
        <time>2026-05-17T15:47:05+02:00</time>
      </trkpt>
      <trkpt lat="48.27586" lon="6.40189">
        <ele>291</ele>
        <time>2026-05-17T15:47:06+02:00</time>
      </trkpt>
      <trkpt lat="48.27591" lon="6.40187">
        <ele>291</ele>
        <time>2026-05-17T15:47:07+02:00</time>
      </trkpt>
      <trkpt lat="48.27596" lon="6.40185">
        <ele>291.1006</ele>
        <time>2026-05-17T15:47:08+02:00</time>
      </trkpt>
      <trkpt lat="48.27619" lon="6.40177">
        <ele>291</ele>
        <time>2026-05-17T15:47:09+02:00</time>
      </trkpt>
      <trkpt lat="48.27624" lon="6.40175">
        <ele>290.9004</ele>
        <time>2026-05-17T15:47:10+02:00</time>
      </trkpt>
      <trkpt lat="48.2763" lon="6.40173">
        <ele>290.9004</ele>
        <time>2026-05-17T15:47:11+02:00</time>
      </trkpt>
      <trkpt lat="48.27635" lon="6.40172">
        <ele>290.9004</ele>
        <time>2026-05-17T15:47:12+02:00</time>
      </trkpt>
      <trkpt lat="48.2764" lon="6.4017">
        <ele>290.9004</ele>
        <time>2026-05-17T15:47:13+02:00</time>
      </trkpt>
      <trkpt lat="48.27645" lon="6.40168">
        <ele>290.9004</ele>
        <time>2026-05-17T15:47:14+02:00</time>
      </trkpt>
      <trkpt lat="48.2765" lon="6.40166">
        <ele>290.9004</ele>
        <time>2026-05-17T15:47:15+02:00</time>
      </trkpt>
      <trkpt lat="48.27655" lon="6.40165">
        <ele>290.9004</ele>
        <time>2026-05-17T15:47:16+02:00</time>
      </trkpt>
      <trkpt lat="48.27661" lon="6.40163">
        <ele>290.9004</ele>
        <time>2026-05-17T15:47:17+02:00</time>
      </trkpt>
      <trkpt lat="48.27666" lon="6.40162">
        <ele>290.9004</ele>
        <time>2026-05-17T15:47:18+02:00</time>
      </trkpt>
      <trkpt lat="48.27671" lon="6.4016">
        <ele>290.9004</ele>
        <time>2026-05-17T15:47:19+02:00</time>
      </trkpt>
      <trkpt lat="48.27677" lon="6.40158">
        <ele>290.9004</ele>
        <time>2026-05-17T15:47:20+02:00</time>
      </trkpt>
      <trkpt lat="48.27682" lon="6.40157">
        <ele>290.9004</ele>
        <time>2026-05-17T15:47:21+02:00</time>
      </trkpt>
      <trkpt lat="48.27687" lon="6.40155">
        <ele>290.9004</ele>
        <time>2026-05-17T15:47:22+02:00</time>
      </trkpt>
      <trkpt lat="48.27693" lon="6.40154">
        <ele>290.7998</ele>
        <time>2026-05-17T15:47:23+02:00</time>
      </trkpt>
      <trkpt lat="48.27698" lon="6.40152">
        <ele>290.7998</ele>
        <time>2026-05-17T15:47:24+02:00</time>
      </trkpt>
      <trkpt lat="48.27704" lon="6.4015">
        <ele>290.9004</ele>
        <time>2026-05-17T15:47:25+02:00</time>
      </trkpt>
      <trkpt lat="48.27709" lon="6.40148">
        <ele>290.9004</ele>
        <time>2026-05-17T15:47:26+02:00</time>
      </trkpt>
      <trkpt lat="48.27715" lon="6.40146">
        <ele>290.9004</ele>
        <time>2026-05-17T15:47:27+02:00</time>
      </trkpt>
      <trkpt lat="48.2772" lon="6.40144">
        <ele>290.7998</ele>
        <time>2026-05-17T15:47:28+02:00</time>
      </trkpt>
      <trkpt lat="48.27725" lon="6.40143">
        <ele>290.7998</ele>
        <time>2026-05-17T15:47:29+02:00</time>
      </trkpt>
      <trkpt lat="48.27731" lon="6.40141">
        <ele>291</ele>
        <time>2026-05-17T15:47:30+02:00</time>
      </trkpt>
      <trkpt lat="48.27733" lon="6.4014">
        <ele>291</ele>
        <time>2026-05-17T15:47:31+02:00</time>
      </trkpt>
      <trkpt lat="48.27741" lon="6.40138">
        <ele>290.9004</ele>
        <time>2026-05-17T15:47:32+02:00</time>
      </trkpt>
      <trkpt lat="48.27747" lon="6.40136">
        <ele>290.7998</ele>
        <time>2026-05-17T15:47:33+02:00</time>
      </trkpt>
      <trkpt lat="48.27752" lon="6.40134">
        <ele>290.7002</ele>
        <time>2026-05-17T15:47:34+02:00</time>
      </trkpt>
      <trkpt lat="48.27757" lon="6.40132">
        <ele>291</ele>
        <time>2026-05-17T15:47:35+02:00</time>
      </trkpt>
      <trkpt lat="48.27763" lon="6.4013">
        <ele>290.9004</ele>
        <time>2026-05-17T15:47:36+02:00</time>
      </trkpt>
      <trkpt lat="48.27768" lon="6.40129">
        <ele>290.7998</ele>
        <time>2026-05-17T15:47:37+02:00</time>
      </trkpt>
      <trkpt lat="48.27774" lon="6.40127">
        <ele>290.7002</ele>
        <time>2026-05-17T15:47:38+02:00</time>
      </trkpt>
      <trkpt lat="48.2778" lon="6.40125">
        <ele>290.9004</ele>
        <time>2026-05-17T15:47:39+02:00</time>
      </trkpt>
      <trkpt lat="48.27785" lon="6.40123">
        <ele>290.7002</ele>
        <time>2026-05-17T15:47:40+02:00</time>
      </trkpt>
      <trkpt lat="48.27791" lon="6.40121">
        <ele>290.6006</ele>
        <time>2026-05-17T15:47:41+02:00</time>
      </trkpt>
      <trkpt lat="48.27796" lon="6.4012">
        <ele>290.5</ele>
        <time>2026-05-17T15:47:42+02:00</time>
      </trkpt>
      <trkpt lat="48.27801" lon="6.40118">
        <ele>290.4004</ele>
        <time>2026-05-17T15:47:43+02:00</time>
      </trkpt>
      <trkpt lat="48.27806" lon="6.40117">
        <ele>290.2998</ele>
        <time>2026-05-17T15:47:44+02:00</time>
      </trkpt>
      <trkpt lat="48.27811" lon="6.40116">
        <ele>290.5</ele>
        <time>2026-05-17T15:47:45+02:00</time>
      </trkpt>
      <trkpt lat="48.27816" lon="6.40114">
        <ele>290.5</ele>
        <time>2026-05-17T15:47:46+02:00</time>
      </trkpt>
      <trkpt lat="48.2782" lon="6.40113">
        <ele>290.4004</ele>
        <time>2026-05-17T15:47:47+02:00</time>
      </trkpt>
      <trkpt lat="48.27825" lon="6.40111">
        <ele>290.2998</ele>
        <time>2026-05-17T15:47:48+02:00</time>
      </trkpt>
      <trkpt lat="48.27829" lon="6.4011">
        <ele>290.2002</ele>
        <time>2026-05-17T15:47:49+02:00</time>
      </trkpt>
      <trkpt lat="48.27834" lon="6.40108">
        <ele>290.4004</ele>
        <time>2026-05-17T15:47:50+02:00</time>
      </trkpt>
      <trkpt lat="48.27839" lon="6.40107">
        <ele>290.4004</ele>
        <time>2026-05-17T15:47:51+02:00</time>
      </trkpt>
      <trkpt lat="48.27844" lon="6.40106">
        <ele>290.2998</ele>
        <time>2026-05-17T15:47:52+02:00</time>
      </trkpt>
      <trkpt lat="48.27849" lon="6.40104">
        <ele>290.2998</ele>
        <time>2026-05-17T15:47:53+02:00</time>
      </trkpt>
      <trkpt lat="48.27854" lon="6.40103">
        <ele>290.2998</ele>
        <time>2026-05-17T15:47:54+02:00</time>
      </trkpt>
      <trkpt lat="48.27858" lon="6.40101">
        <ele>290.2998</ele>
        <time>2026-05-17T15:47:55+02:00</time>
      </trkpt>
      <trkpt lat="48.27863" lon="6.401">
        <ele>290.2998</ele>
        <time>2026-05-17T15:47:56+02:00</time>
      </trkpt>
      <trkpt lat="48.27868" lon="6.40098">
        <ele>290.5</ele>
        <time>2026-05-17T15:47:57+02:00</time>
      </trkpt>
      <trkpt lat="48.27873" lon="6.40096">
        <ele>290.5</ele>
        <time>2026-05-17T15:47:58+02:00</time>
      </trkpt>
      <trkpt lat="48.27877" lon="6.40094">
        <ele>290.5</ele>
        <time>2026-05-17T15:47:59+02:00</time>
      </trkpt>
      <trkpt lat="48.27882" lon="6.40093">
        <ele>290.6006</ele>
        <time>2026-05-17T15:48:00+02:00</time>
      </trkpt>
      <trkpt lat="48.27886" lon="6.40091">
        <ele>290.7002</ele>
        <time>2026-05-17T15:48:01+02:00</time>
      </trkpt>
      <trkpt lat="48.27891" lon="6.40089">
        <ele>291.2002</ele>
        <time>2026-05-17T15:48:02+02:00</time>
      </trkpt>
      <trkpt lat="48.27894" lon="6.40088">
        <ele>291.2002</ele>
        <time>2026-05-17T15:48:03+02:00</time>
      </trkpt>
      <trkpt lat="48.27901" lon="6.40086">
        <ele>291.2998</ele>
        <time>2026-05-17T15:48:04+02:00</time>
      </trkpt>
      <trkpt lat="48.27906" lon="6.40085">
        <ele>291.5</ele>
        <time>2026-05-17T15:48:05+02:00</time>
      </trkpt>
      <trkpt lat="48.27911" lon="6.40083">
        <ele>291.6006</ele>
        <time>2026-05-17T15:48:06+02:00</time>
      </trkpt>
      <trkpt lat="48.27917" lon="6.40082">
        <ele>292.2998</ele>
        <time>2026-05-17T15:48:07+02:00</time>
      </trkpt>
      <trkpt lat="48.27922" lon="6.4008">
        <ele>292.4004</ele>
        <time>2026-05-17T15:48:08+02:00</time>
      </trkpt>
      <trkpt lat="48.27928" lon="6.40079">
        <ele>292.5</ele>
        <time>2026-05-17T15:48:09+02:00</time>
      </trkpt>
      <trkpt lat="48.27933" lon="6.40077">
        <ele>292.7002</ele>
        <time>2026-05-17T15:48:10+02:00</time>
      </trkpt>
      <trkpt lat="48.27939" lon="6.40075">
        <ele>292.7998</ele>
        <time>2026-05-17T15:48:11+02:00</time>
      </trkpt>
      <trkpt lat="48.27944" lon="6.40073">
        <ele>293.2998</ele>
        <time>2026-05-17T15:48:12+02:00</time>
      </trkpt>
      <trkpt lat="48.2795" lon="6.40071">
        <ele>293.4004</ele>
        <time>2026-05-17T15:48:13+02:00</time>
      </trkpt>
      <trkpt lat="48.27955" lon="6.4007">
        <ele>293.5</ele>
        <time>2026-05-17T15:48:14+02:00</time>
      </trkpt>
      <trkpt lat="48.27961" lon="6.40068">
        <ele>293.6006</ele>
        <time>2026-05-17T15:48:15+02:00</time>
      </trkpt>
      <trkpt lat="48.27966" lon="6.40067">
        <ele>293.6006</ele>
        <time>2026-05-17T15:48:16+02:00</time>
      </trkpt>
      <trkpt lat="48.27972" lon="6.40065">
        <ele>293.7998</ele>
        <time>2026-05-17T15:48:17+02:00</time>
      </trkpt>
      <trkpt lat="48.27978" lon="6.40063">
        <ele>293.7002</ele>
        <time>2026-05-17T15:48:18+02:00</time>
      </trkpt>
      <trkpt lat="48.27983" lon="6.40062">
        <ele>293.6006</ele>
        <time>2026-05-17T15:48:19+02:00</time>
      </trkpt>
      <trkpt lat="48.27989" lon="6.4006">
        <ele>293.4004</ele>
        <time>2026-05-17T15:48:20+02:00</time>
      </trkpt>
      <trkpt lat="48.27995" lon="6.40059">
        <ele>293.2998</ele>
        <time>2026-05-17T15:48:21+02:00</time>
      </trkpt>
      <trkpt lat="48.28001" lon="6.40057">
        <ele>293.1006</ele>
        <time>2026-05-17T15:48:22+02:00</time>
      </trkpt>
      <trkpt lat="48.28006" lon="6.40055">
        <ele>293</ele>
        <time>2026-05-17T15:48:23+02:00</time>
      </trkpt>
      <trkpt lat="48.28013" lon="6.40053">
        <ele>292.7998</ele>
        <time>2026-05-17T15:48:24+02:00</time>
      </trkpt>
      <trkpt lat="48.28019" lon="6.40051">
        <ele>292.6006</ele>
        <time>2026-05-17T15:48:25+02:00</time>
      </trkpt>
      <trkpt lat="48.28025" lon="6.40049">
        <ele>292.2998</ele>
        <time>2026-05-17T15:48:26+02:00</time>
      </trkpt>
      <trkpt lat="48.28031" lon="6.40047">
        <ele>292.1006</ele>
        <time>2026-05-17T15:48:27+02:00</time>
      </trkpt>
      <trkpt lat="48.28037" lon="6.40045">
        <ele>291.9004</ele>
        <time>2026-05-17T15:48:28+02:00</time>
      </trkpt>
      <trkpt lat="48.28043" lon="6.40043">
        <ele>291.6006</ele>
        <time>2026-05-17T15:48:29+02:00</time>
      </trkpt>
      <trkpt lat="48.28049" lon="6.40041">
        <ele>291.2998</ele>
        <time>2026-05-17T15:48:30+02:00</time>
      </trkpt>
      <trkpt lat="48.28055" lon="6.40039">
        <ele>291.1006</ele>
        <time>2026-05-17T15:48:31+02:00</time>
      </trkpt>
      <trkpt lat="48.28061" lon="6.40037">
        <ele>290.9004</ele>
        <time>2026-05-17T15:48:32+02:00</time>
      </trkpt>
      <trkpt lat="48.28067" lon="6.40035">
        <ele>290.7002</ele>
        <time>2026-05-17T15:48:33+02:00</time>
      </trkpt>
      <trkpt lat="48.28073" lon="6.40032">
        <ele>290.6006</ele>
        <time>2026-05-17T15:48:34+02:00</time>
      </trkpt>
      <trkpt lat="48.28079" lon="6.4003">
        <ele>290.6006</ele>
        <time>2026-05-17T15:48:35+02:00</time>
      </trkpt>
      <trkpt lat="48.28085" lon="6.40029">
        <ele>290.5</ele>
        <time>2026-05-17T15:48:36+02:00</time>
      </trkpt>
      <trkpt lat="48.2809" lon="6.40027">
        <ele>290.5</ele>
        <time>2026-05-17T15:48:37+02:00</time>
      </trkpt>
      <trkpt lat="48.28097" lon="6.40025">
        <ele>290.4004</ele>
        <time>2026-05-17T15:48:38+02:00</time>
      </trkpt>
      <trkpt lat="48.28102" lon="6.40023">
        <ele>290.4004</ele>
        <time>2026-05-17T15:48:39+02:00</time>
      </trkpt>
      <trkpt lat="48.28108" lon="6.40021">
        <ele>290.6006</ele>
        <time>2026-05-17T15:48:40+02:00</time>
      </trkpt>
      <trkpt lat="48.28114" lon="6.40019">
        <ele>290.7002</ele>
        <time>2026-05-17T15:48:41+02:00</time>
      </trkpt>
      <trkpt lat="48.2812" lon="6.40017">
        <ele>290.7002</ele>
        <time>2026-05-17T15:48:42+02:00</time>
      </trkpt>
      <trkpt lat="48.28123" lon="6.40016">
        <ele>290.7002</ele>
        <time>2026-05-17T15:48:43+02:00</time>
      </trkpt>
      <trkpt lat="48.28132" lon="6.40013">
        <ele>290.9004</ele>
        <time>2026-05-17T15:48:44+02:00</time>
      </trkpt>
      <trkpt lat="48.28138" lon="6.40011">
        <ele>290.9004</ele>
        <time>2026-05-17T15:48:45+02:00</time>
      </trkpt>
      <trkpt lat="48.28144" lon="6.40009">
        <ele>290.9004</ele>
        <time>2026-05-17T15:48:46+02:00</time>
      </trkpt>
      <trkpt lat="48.2815" lon="6.40007">
        <ele>290.9004</ele>
        <time>2026-05-17T15:48:47+02:00</time>
      </trkpt>
      <trkpt lat="48.28156" lon="6.40005">
        <ele>291.2002</ele>
        <time>2026-05-17T15:48:48+02:00</time>
      </trkpt>
      <trkpt lat="48.28163" lon="6.40003">
        <ele>291.2002</ele>
        <time>2026-05-17T15:48:49+02:00</time>
      </trkpt>
      <trkpt lat="48.28166" lon="6.40002">
        <ele>291.1006</ele>
        <time>2026-05-17T15:48:50+02:00</time>
      </trkpt>
      <trkpt lat="48.28174" lon="6.39998">
        <ele>291.1006</ele>
        <time>2026-05-17T15:48:51+02:00</time>
      </trkpt>
      <trkpt lat="48.2818" lon="6.39996">
        <ele>291.2998</ele>
        <time>2026-05-17T15:48:52+02:00</time>
      </trkpt>
      <trkpt lat="48.28186" lon="6.39993">
        <ele>291.2002</ele>
        <time>2026-05-17T15:48:53+02:00</time>
      </trkpt>
      <trkpt lat="48.28192" lon="6.39991">
        <ele>291.1006</ele>
        <time>2026-05-17T15:48:54+02:00</time>
      </trkpt>
      <trkpt lat="48.28198" lon="6.39989">
        <ele>291</ele>
        <time>2026-05-17T15:48:55+02:00</time>
      </trkpt>
      <trkpt lat="48.28204" lon="6.39988">
        <ele>290.9004</ele>
        <time>2026-05-17T15:48:56+02:00</time>
      </trkpt>
      <trkpt lat="48.28209" lon="6.39985">
        <ele>291</ele>
        <time>2026-05-17T15:48:57+02:00</time>
      </trkpt>
      <trkpt lat="48.28214" lon="6.39982">
        <ele>290.9004</ele>
        <time>2026-05-17T15:48:58+02:00</time>
      </trkpt>
      <trkpt lat="48.28219" lon="6.3998">
        <ele>290.7998</ele>
        <time>2026-05-17T15:48:59+02:00</time>
      </trkpt>
      <trkpt lat="48.28224" lon="6.39977">
        <ele>291</ele>
        <time>2026-05-17T15:49:00+02:00</time>
      </trkpt>
      <trkpt lat="48.28229" lon="6.39976">
        <ele>290.9004</ele>
        <time>2026-05-17T15:49:01+02:00</time>
      </trkpt>
      <trkpt lat="48.28235" lon="6.39975">
        <ele>290.7998</ele>
        <time>2026-05-17T15:49:02+02:00</time>
      </trkpt>
      <trkpt lat="48.2824" lon="6.39973">
        <ele>290.7998</ele>
        <time>2026-05-17T15:49:03+02:00</time>
      </trkpt>
      <trkpt lat="48.28246" lon="6.39971">
        <ele>290.7998</ele>
        <time>2026-05-17T15:49:04+02:00</time>
      </trkpt>
      <trkpt lat="48.28251" lon="6.39969">
        <ele>290.9004</ele>
        <time>2026-05-17T15:49:05+02:00</time>
      </trkpt>
      <trkpt lat="48.28257" lon="6.39968">
        <ele>290.7998</ele>
        <time>2026-05-17T15:49:06+02:00</time>
      </trkpt>
      <trkpt lat="48.28263" lon="6.39967">
        <ele>290.7998</ele>
        <time>2026-05-17T15:49:07+02:00</time>
      </trkpt>
      <trkpt lat="48.28269" lon="6.39965">
        <ele>290.7998</ele>
        <time>2026-05-17T15:49:08+02:00</time>
      </trkpt>
      <trkpt lat="48.28275" lon="6.39963">
        <ele>290.7998</ele>
        <time>2026-05-17T15:49:09+02:00</time>
      </trkpt>
      <trkpt lat="48.28281" lon="6.39962">
        <ele>291</ele>
        <time>2026-05-17T15:49:10+02:00</time>
      </trkpt>
      <trkpt lat="48.28287" lon="6.3996">
        <ele>291</ele>
        <time>2026-05-17T15:49:11+02:00</time>
      </trkpt>
      <trkpt lat="48.28293" lon="6.39957">
        <ele>291.1006</ele>
        <time>2026-05-17T15:49:12+02:00</time>
      </trkpt>
      <trkpt lat="48.28299" lon="6.39955">
        <ele>291.1006</ele>
        <time>2026-05-17T15:49:13+02:00</time>
      </trkpt>
      <trkpt lat="48.28304" lon="6.39953">
        <ele>291.4004</ele>
        <time>2026-05-17T15:49:14+02:00</time>
      </trkpt>
      <trkpt lat="48.2831" lon="6.3995">
        <ele>291.4004</ele>
        <time>2026-05-17T15:49:15+02:00</time>
      </trkpt>
      <trkpt lat="48.28315" lon="6.39947">
        <ele>291.4004</ele>
        <time>2026-05-17T15:49:16+02:00</time>
      </trkpt>
      <trkpt lat="48.2832" lon="6.39944">
        <ele>291.6006</ele>
        <time>2026-05-17T15:49:17+02:00</time>
      </trkpt>
      <trkpt lat="48.28326" lon="6.39941">
        <ele>291.5</ele>
        <time>2026-05-17T15:49:18+02:00</time>
      </trkpt>
      <trkpt lat="48.28331" lon="6.39939">
        <ele>291.5</ele>
        <time>2026-05-17T15:49:19+02:00</time>
      </trkpt>
      <trkpt lat="48.28337" lon="6.39937">
        <ele>291.5</ele>
        <time>2026-05-17T15:49:20+02:00</time>
      </trkpt>
      <trkpt lat="48.28343" lon="6.39936">
        <ele>291.5</ele>
        <time>2026-05-17T15:49:21+02:00</time>
      </trkpt>
      <trkpt lat="48.28348" lon="6.39936">
        <ele>291.5</ele>
        <time>2026-05-17T15:49:22+02:00</time>
      </trkpt>
      <trkpt lat="48.28354" lon="6.39936">
        <ele>291.4004</ele>
        <time>2026-05-17T15:49:23+02:00</time>
      </trkpt>
      <trkpt lat="48.28359" lon="6.39938">
        <ele>291.2998</ele>
        <time>2026-05-17T15:49:24+02:00</time>
      </trkpt>
      <trkpt lat="48.28365" lon="6.39939">
        <ele>291.2002</ele>
        <time>2026-05-17T15:49:25+02:00</time>
      </trkpt>
      <trkpt lat="48.2837" lon="6.39939">
        <ele>291.1006</ele>
        <time>2026-05-17T15:49:26+02:00</time>
      </trkpt>
      <trkpt lat="48.28375" lon="6.39939">
        <ele>291.1006</ele>
        <time>2026-05-17T15:49:27+02:00</time>
      </trkpt>
      <trkpt lat="48.28381" lon="6.39937">
        <ele>291</ele>
        <time>2026-05-17T15:49:28+02:00</time>
      </trkpt>
      <trkpt lat="48.28388" lon="6.39936">
        <ele>290.9004</ele>
        <time>2026-05-17T15:49:29+02:00</time>
      </trkpt>
      <trkpt lat="48.28394" lon="6.39934">
        <ele>290.7998</ele>
        <time>2026-05-17T15:49:30+02:00</time>
      </trkpt>
      <trkpt lat="48.28401" lon="6.39932">
        <ele>290.7998</ele>
        <time>2026-05-17T15:49:31+02:00</time>
      </trkpt>
      <trkpt lat="48.28407" lon="6.3993">
        <ele>290.7002</ele>
        <time>2026-05-17T15:49:32+02:00</time>
      </trkpt>
      <trkpt lat="48.28413" lon="6.39928">
        <ele>290.6006</ele>
        <time>2026-05-17T15:49:33+02:00</time>
      </trkpt>
      <trkpt lat="48.28419" lon="6.39927">
        <ele>290.7002</ele>
        <time>2026-05-17T15:49:34+02:00</time>
      </trkpt>
      <trkpt lat="48.28425" lon="6.39925">
        <ele>290.6006</ele>
        <time>2026-05-17T15:49:35+02:00</time>
      </trkpt>
      <trkpt lat="48.28431" lon="6.39924">
        <ele>290.6006</ele>
        <time>2026-05-17T15:49:36+02:00</time>
      </trkpt>
      <trkpt lat="48.28437" lon="6.39923">
        <ele>290.6006</ele>
        <time>2026-05-17T15:49:37+02:00</time>
      </trkpt>
      <trkpt lat="48.28443" lon="6.39921">
        <ele>290.6006</ele>
        <time>2026-05-17T15:49:38+02:00</time>
      </trkpt>
      <trkpt lat="48.28448" lon="6.39918">
        <ele>290.7998</ele>
        <time>2026-05-17T15:49:39+02:00</time>
      </trkpt>
      <trkpt lat="48.28453" lon="6.39916">
        <ele>290.7998</ele>
        <time>2026-05-17T15:49:40+02:00</time>
      </trkpt>
      <trkpt lat="48.28458" lon="6.39913">
        <ele>290.7998</ele>
        <time>2026-05-17T15:49:41+02:00</time>
      </trkpt>
      <trkpt lat="48.28464" lon="6.39911">
        <ele>290.7998</ele>
        <time>2026-05-17T15:49:42+02:00</time>
      </trkpt>
      <trkpt lat="48.2847" lon="6.39909">
        <ele>291.1006</ele>
        <time>2026-05-17T15:49:43+02:00</time>
      </trkpt>
      <trkpt lat="48.28475" lon="6.39907">
        <ele>291.2002</ele>
        <time>2026-05-17T15:49:44+02:00</time>
      </trkpt>
      <trkpt lat="48.28481" lon="6.39905">
        <ele>291.2002</ele>
        <time>2026-05-17T15:49:45+02:00</time>
      </trkpt>
      <trkpt lat="48.28487" lon="6.39903">
        <ele>291.2002</ele>
        <time>2026-05-17T15:49:46+02:00</time>
      </trkpt>
      <trkpt lat="48.28493" lon="6.39901">
        <ele>291.5</ele>
        <time>2026-05-17T15:49:47+02:00</time>
      </trkpt>
      <trkpt lat="48.28499" lon="6.39899">
        <ele>291.5</ele>
        <time>2026-05-17T15:49:48+02:00</time>
      </trkpt>
      <trkpt lat="48.28504" lon="6.39897">
        <ele>291.5</ele>
        <time>2026-05-17T15:49:49+02:00</time>
      </trkpt>
      <trkpt lat="48.28507" lon="6.39896">
        <ele>291.5</ele>
        <time>2026-05-17T15:49:50+02:00</time>
      </trkpt>
      <trkpt lat="48.28516" lon="6.39893">
        <ele>291.7002</ele>
        <time>2026-05-17T15:49:51+02:00</time>
      </trkpt>
      <trkpt lat="48.28522" lon="6.39891">
        <ele>291.6006</ele>
        <time>2026-05-17T15:49:52+02:00</time>
      </trkpt>
      <trkpt lat="48.28528" lon="6.39889">
        <ele>291.6006</ele>
        <time>2026-05-17T15:49:53+02:00</time>
      </trkpt>
      <trkpt lat="48.28533" lon="6.39888">
        <ele>291.5</ele>
        <time>2026-05-17T15:49:54+02:00</time>
      </trkpt>
      <trkpt lat="48.28539" lon="6.39886">
        <ele>291.2998</ele>
        <time>2026-05-17T15:49:55+02:00</time>
      </trkpt>
      <trkpt lat="48.28544" lon="6.39884">
        <ele>291.5</ele>
        <time>2026-05-17T15:49:56+02:00</time>
      </trkpt>
      <trkpt lat="48.2855" lon="6.39882">
        <ele>291.4004</ele>
        <time>2026-05-17T15:49:57+02:00</time>
      </trkpt>
      <trkpt lat="48.28555" lon="6.3988">
        <ele>291.2002</ele>
        <time>2026-05-17T15:49:58+02:00</time>
      </trkpt>
      <trkpt lat="48.28561" lon="6.39879">
        <ele>291.1006</ele>
        <time>2026-05-17T15:49:59+02:00</time>
      </trkpt>
      <trkpt lat="48.28567" lon="6.39877">
        <ele>290.9004</ele>
        <time>2026-05-17T15:50:00+02:00</time>
      </trkpt>
      <trkpt lat="48.28573" lon="6.39875">
        <ele>291</ele>
        <time>2026-05-17T15:50:01+02:00</time>
      </trkpt>
      <trkpt lat="48.28579" lon="6.39874">
        <ele>290.7998</ele>
        <time>2026-05-17T15:50:02+02:00</time>
      </trkpt>
      <trkpt lat="48.28584" lon="6.39872">
        <ele>290.6006</ele>
        <time>2026-05-17T15:50:03+02:00</time>
      </trkpt>
      <trkpt lat="48.2859" lon="6.3987">
        <ele>290.4004</ele>
        <time>2026-05-17T15:50:04+02:00</time>
      </trkpt>
      <trkpt lat="48.28596" lon="6.39868">
        <ele>290.2002</ele>
        <time>2026-05-17T15:50:05+02:00</time>
      </trkpt>
      <trkpt lat="48.28602" lon="6.39866">
        <ele>290.4004</ele>
        <time>2026-05-17T15:50:06+02:00</time>
      </trkpt>
      <trkpt lat="48.28608" lon="6.39864">
        <ele>290.2998</ele>
        <time>2026-05-17T15:50:07+02:00</time>
      </trkpt>
      <trkpt lat="48.28614" lon="6.39862">
        <ele>290.1006</ele>
        <time>2026-05-17T15:50:08+02:00</time>
      </trkpt>
      <trkpt lat="48.2862" lon="6.39861">
        <ele>290</ele>
        <time>2026-05-17T15:50:09+02:00</time>
      </trkpt>
      <trkpt lat="48.28626" lon="6.39859">
        <ele>290.2998</ele>
        <time>2026-05-17T15:50:10+02:00</time>
      </trkpt>
      <trkpt lat="48.28628" lon="6.39858">
        <ele>290.2002</ele>
        <time>2026-05-17T15:50:11+02:00</time>
      </trkpt>
      <trkpt lat="48.28637" lon="6.39855">
        <ele>290.1006</ele>
        <time>2026-05-17T15:50:12+02:00</time>
      </trkpt>
      <trkpt lat="48.28643" lon="6.39853">
        <ele>290</ele>
        <time>2026-05-17T15:50:13+02:00</time>
      </trkpt>
      <trkpt lat="48.28648" lon="6.39851">
        <ele>289.9004</ele>
        <time>2026-05-17T15:50:14+02:00</time>
      </trkpt>
      <trkpt lat="48.28654" lon="6.39849">
        <ele>290.1006</ele>
        <time>2026-05-17T15:50:15+02:00</time>
      </trkpt>
      <trkpt lat="48.2866" lon="6.39848">
        <ele>290</ele>
        <time>2026-05-17T15:50:16+02:00</time>
      </trkpt>
      <trkpt lat="48.28665" lon="6.39846">
        <ele>290</ele>
        <time>2026-05-17T15:50:17+02:00</time>
      </trkpt>
      <trkpt lat="48.28671" lon="6.39844">
        <ele>289.9004</ele>
        <time>2026-05-17T15:50:18+02:00</time>
      </trkpt>
      <trkpt lat="48.28677" lon="6.39842">
        <ele>290.1006</ele>
        <time>2026-05-17T15:50:19+02:00</time>
      </trkpt>
      <trkpt lat="48.28683" lon="6.39839">
        <ele>290</ele>
        <time>2026-05-17T15:50:20+02:00</time>
      </trkpt>
      <trkpt lat="48.28689" lon="6.39837">
        <ele>289.9004</ele>
        <time>2026-05-17T15:50:21+02:00</time>
      </trkpt>
      <trkpt lat="48.28695" lon="6.39835">
        <ele>289.7998</ele>
        <time>2026-05-17T15:50:22+02:00</time>
      </trkpt>
      <trkpt lat="48.28701" lon="6.39834">
        <ele>289.7002</ele>
        <time>2026-05-17T15:50:23+02:00</time>
      </trkpt>
      <trkpt lat="48.28706" lon="6.39832">
        <ele>289.9004</ele>
        <time>2026-05-17T15:50:24+02:00</time>
      </trkpt>
      <trkpt lat="48.28713" lon="6.3983">
        <ele>289.9004</ele>
        <time>2026-05-17T15:50:25+02:00</time>
      </trkpt>
      <trkpt lat="48.28718" lon="6.39828">
        <ele>289.7998</ele>
        <time>2026-05-17T15:50:26+02:00</time>
      </trkpt>
      <trkpt lat="48.28724" lon="6.39826">
        <ele>289.7002</ele>
        <time>2026-05-17T15:50:27+02:00</time>
      </trkpt>
      <trkpt lat="48.2873" lon="6.39824">
        <ele>289.9004</ele>
        <time>2026-05-17T15:50:28+02:00</time>
      </trkpt>
      <trkpt lat="48.28736" lon="6.39823">
        <ele>289.7002</ele>
        <time>2026-05-17T15:50:29+02:00</time>
      </trkpt>
      <trkpt lat="48.28742" lon="6.39821">
        <ele>289.4004</ele>
        <time>2026-05-17T15:50:30+02:00</time>
      </trkpt>
      <trkpt lat="48.28748" lon="6.39819">
        <ele>288.7002</ele>
        <time>2026-05-17T15:50:31+02:00</time>
      </trkpt>
      <trkpt lat="48.28754" lon="6.39817">
        <ele>288.4004</ele>
        <time>2026-05-17T15:50:32+02:00</time>
      </trkpt>
      <trkpt lat="48.2876" lon="6.39815">
        <ele>288.5</ele>
        <time>2026-05-17T15:50:33+02:00</time>
      </trkpt>
      <trkpt lat="48.28766" lon="6.39813">
        <ele>288.1006</ele>
        <time>2026-05-17T15:50:34+02:00</time>
      </trkpt>
      <trkpt lat="48.28772" lon="6.39812">
        <ele>287.6006</ele>
        <time>2026-05-17T15:50:35+02:00</time>
      </trkpt>
      <trkpt lat="48.28779" lon="6.3981">
        <ele>287.1006</ele>
        <time>2026-05-17T15:50:36+02:00</time>
      </trkpt>
      <trkpt lat="48.28785" lon="6.39808">
        <ele>286.7002</ele>
        <time>2026-05-17T15:50:37+02:00</time>
      </trkpt>
      <trkpt lat="48.28791" lon="6.39806">
        <ele>286.7002</ele>
        <time>2026-05-17T15:50:38+02:00</time>
      </trkpt>
      <trkpt lat="48.28797" lon="6.39804">
        <ele>286.7002</ele>
        <time>2026-05-17T15:50:39+02:00</time>
      </trkpt>
      <trkpt lat="48.28803" lon="6.39802">
        <ele>286.7002</ele>
        <time>2026-05-17T15:50:40+02:00</time>
      </trkpt>
      <trkpt lat="48.28809" lon="6.398">
        <ele>286.7002</ele>
        <time>2026-05-17T15:50:41+02:00</time>
      </trkpt>
      <trkpt lat="48.28814" lon="6.39798">
        <ele>286.7002</ele>
        <time>2026-05-17T15:50:42+02:00</time>
      </trkpt>
      <trkpt lat="48.2882" lon="6.39796">
        <ele>286.7002</ele>
        <time>2026-05-17T15:50:43+02:00</time>
      </trkpt>
      <trkpt lat="48.28826" lon="6.39794">
        <ele>286.7002</ele>
        <time>2026-05-17T15:50:44+02:00</time>
      </trkpt>
      <trkpt lat="48.28831" lon="6.39792">
        <ele>286.7002</ele>
        <time>2026-05-17T15:50:45+02:00</time>
      </trkpt>
      <trkpt lat="48.28837" lon="6.3979">
        <ele>286.5</ele>
        <time>2026-05-17T15:50:46+02:00</time>
      </trkpt>
      <trkpt lat="48.28843" lon="6.39788">
        <ele>286.5</ele>
        <time>2026-05-17T15:50:47+02:00</time>
      </trkpt>
      <trkpt lat="48.28848" lon="6.39786">
        <ele>286.6006</ele>
        <time>2026-05-17T15:50:48+02:00</time>
      </trkpt>
      <trkpt lat="48.28855" lon="6.39784">
        <ele>286.6006</ele>
        <time>2026-05-17T15:50:49+02:00</time>
      </trkpt>
      <trkpt lat="48.28861" lon="6.39783">
        <ele>286.6006</ele>
        <time>2026-05-17T15:50:50+02:00</time>
      </trkpt>
      <trkpt lat="48.28867" lon="6.39781">
        <ele>286.2998</ele>
        <time>2026-05-17T15:50:51+02:00</time>
      </trkpt>
      <trkpt lat="48.28872" lon="6.3978">
        <ele>286.2998</ele>
        <time>2026-05-17T15:50:52+02:00</time>
      </trkpt>
      <trkpt lat="48.28879" lon="6.39778">
        <ele>286.2002</ele>
        <time>2026-05-17T15:50:53+02:00</time>
      </trkpt>
      <trkpt lat="48.28885" lon="6.39776">
        <ele>286.2002</ele>
        <time>2026-05-17T15:50:54+02:00</time>
      </trkpt>
      <trkpt lat="48.28891" lon="6.39775">
        <ele>286.2002</ele>
        <time>2026-05-17T15:50:55+02:00</time>
      </trkpt>
      <trkpt lat="48.28896" lon="6.39773">
        <ele>286.2002</ele>
        <time>2026-05-17T15:50:56+02:00</time>
      </trkpt>
      <trkpt lat="48.28903" lon="6.39772">
        <ele>286.2002</ele>
        <time>2026-05-17T15:50:57+02:00</time>
      </trkpt>
      <trkpt lat="48.28909" lon="6.3977">
        <ele>286.2002</ele>
        <time>2026-05-17T15:50:58+02:00</time>
      </trkpt>
      <trkpt lat="48.28915" lon="6.39768">
        <ele>286.2002</ele>
        <time>2026-05-17T15:50:59+02:00</time>
      </trkpt>
      <trkpt lat="48.28921" lon="6.39767">
        <ele>286.2002</ele>
        <time>2026-05-17T15:51:00+02:00</time>
      </trkpt>
      <trkpt lat="48.28928" lon="6.39766">
        <ele>286.2002</ele>
        <time>2026-05-17T15:51:01+02:00</time>
      </trkpt>
      <trkpt lat="48.28934" lon="6.39765">
        <ele>286.2002</ele>
        <time>2026-05-17T15:51:02+02:00</time>
      </trkpt>
      <trkpt lat="48.2894" lon="6.39764">
        <ele>286.2998</ele>
        <time>2026-05-17T15:51:03+02:00</time>
      </trkpt>
      <trkpt lat="48.28947" lon="6.39763">
        <ele>286.2998</ele>
        <time>2026-05-17T15:51:04+02:00</time>
      </trkpt>
      <trkpt lat="48.28953" lon="6.39762">
        <ele>286.2998</ele>
        <time>2026-05-17T15:51:05+02:00</time>
      </trkpt>
      <trkpt lat="48.28959" lon="6.39761">
        <ele>286.2002</ele>
        <time>2026-05-17T15:51:06+02:00</time>
      </trkpt>
      <trkpt lat="48.28965" lon="6.39761">
        <ele>286.2002</ele>
        <time>2026-05-17T15:51:07+02:00</time>
      </trkpt>
      <trkpt lat="48.28971" lon="6.3976">
        <ele>286.2002</ele>
        <time>2026-05-17T15:51:08+02:00</time>
      </trkpt>
      <trkpt lat="48.28977" lon="6.3976">
        <ele>286.2002</ele>
        <time>2026-05-17T15:51:09+02:00</time>
      </trkpt>
      <trkpt lat="48.28983" lon="6.3976">
        <ele>286.2002</ele>
        <time>2026-05-17T15:51:10+02:00</time>
      </trkpt>
      <trkpt lat="48.28989" lon="6.39759">
        <ele>286.2002</ele>
        <time>2026-05-17T15:51:11+02:00</time>
      </trkpt>
      <trkpt lat="48.28995" lon="6.39759">
        <ele>286.2002</ele>
        <time>2026-05-17T15:51:12+02:00</time>
      </trkpt>
      <trkpt lat="48.29001" lon="6.39758">
        <ele>286.1006</ele>
        <time>2026-05-17T15:51:13+02:00</time>
      </trkpt>
      <trkpt lat="48.29007" lon="6.39758">
        <ele>286.1006</ele>
        <time>2026-05-17T15:51:14+02:00</time>
      </trkpt>
      <trkpt lat="48.29014" lon="6.39758">
        <ele>286.1006</ele>
        <time>2026-05-17T15:51:15+02:00</time>
      </trkpt>
      <trkpt lat="48.2902" lon="6.39758">
        <ele>286.1006</ele>
        <time>2026-05-17T15:51:16+02:00</time>
      </trkpt>
      <trkpt lat="48.29026" lon="6.39758">
        <ele>286.1006</ele>
        <time>2026-05-17T15:51:17+02:00</time>
      </trkpt>
      <trkpt lat="48.29032" lon="6.39758">
        <ele>286.1006</ele>
        <time>2026-05-17T15:51:18+02:00</time>
      </trkpt>
      <trkpt lat="48.29038" lon="6.39758">
        <ele>286.1006</ele>
        <time>2026-05-17T15:51:19+02:00</time>
      </trkpt>
      <trkpt lat="48.29044" lon="6.39758">
        <ele>286.1006</ele>
        <time>2026-05-17T15:51:20+02:00</time>
      </trkpt>
      <trkpt lat="48.29051" lon="6.39758">
        <ele>286</ele>
        <time>2026-05-17T15:51:21+02:00</time>
      </trkpt>
      <trkpt lat="48.29056" lon="6.39758">
        <ele>286</ele>
        <time>2026-05-17T15:51:22+02:00</time>
      </trkpt>
      <trkpt lat="48.29062" lon="6.39758">
        <ele>286</ele>
        <time>2026-05-17T15:51:23+02:00</time>
      </trkpt>
      <trkpt lat="48.29069" lon="6.39757">
        <ele>285.9004</ele>
        <time>2026-05-17T15:51:24+02:00</time>
      </trkpt>
      <trkpt lat="48.29074" lon="6.39756">
        <ele>286.1006</ele>
        <time>2026-05-17T15:51:25+02:00</time>
      </trkpt>
      <trkpt lat="48.2908" lon="6.39756">
        <ele>286.1006</ele>
        <time>2026-05-17T15:51:26+02:00</time>
      </trkpt>
      <trkpt lat="48.29086" lon="6.39757">
        <ele>285.9004</ele>
        <time>2026-05-17T15:51:27+02:00</time>
      </trkpt>
      <trkpt lat="48.29092" lon="6.39756">
        <ele>286</ele>
        <time>2026-05-17T15:51:28+02:00</time>
      </trkpt>
      <trkpt lat="48.29098" lon="6.39756">
        <ele>286</ele>
        <time>2026-05-17T15:51:29+02:00</time>
      </trkpt>
      <trkpt lat="48.29104" lon="6.39755">
        <ele>286</ele>
        <time>2026-05-17T15:51:30+02:00</time>
      </trkpt>
      <trkpt lat="48.29109" lon="6.39755">
        <ele>286</ele>
        <time>2026-05-17T15:51:31+02:00</time>
      </trkpt>
      <trkpt lat="48.29115" lon="6.39755">
        <ele>286</ele>
        <time>2026-05-17T15:51:32+02:00</time>
      </trkpt>
      <trkpt lat="48.29121" lon="6.39754">
        <ele>286</ele>
        <time>2026-05-17T15:51:33+02:00</time>
      </trkpt>
      <trkpt lat="48.29126" lon="6.39754">
        <ele>285.9004</ele>
        <time>2026-05-17T15:51:34+02:00</time>
      </trkpt>
      <trkpt lat="48.29133" lon="6.39754">
        <ele>285.9004</ele>
        <time>2026-05-17T15:51:35+02:00</time>
      </trkpt>
      <trkpt lat="48.29139" lon="6.39753">
        <ele>285.9004</ele>
        <time>2026-05-17T15:51:36+02:00</time>
      </trkpt>
      <trkpt lat="48.29144" lon="6.39753">
        <ele>285.7998</ele>
        <time>2026-05-17T15:51:37+02:00</time>
      </trkpt>
      <trkpt lat="48.29151" lon="6.39753">
        <ele>285.7998</ele>
        <time>2026-05-17T15:51:38+02:00</time>
      </trkpt>
      <trkpt lat="48.29157" lon="6.39752">
        <ele>285.7998</ele>
        <time>2026-05-17T15:51:39+02:00</time>
      </trkpt>
      <trkpt lat="48.29163" lon="6.39752">
        <ele>285.7998</ele>
        <time>2026-05-17T15:51:40+02:00</time>
      </trkpt>
      <trkpt lat="48.29169" lon="6.39751">
        <ele>285.7002</ele>
        <time>2026-05-17T15:51:41+02:00</time>
      </trkpt>
      <trkpt lat="48.29176" lon="6.39751">
        <ele>285.7002</ele>
        <time>2026-05-17T15:51:42+02:00</time>
      </trkpt>
      <trkpt lat="48.29182" lon="6.3975">
        <ele>285.7002</ele>
        <time>2026-05-17T15:51:43+02:00</time>
      </trkpt>
      <trkpt lat="48.29189" lon="6.3975">
        <ele>285.7002</ele>
        <time>2026-05-17T15:51:44+02:00</time>
      </trkpt>
      <trkpt lat="48.29195" lon="6.39749">
        <ele>285.6006</ele>
        <time>2026-05-17T15:51:45+02:00</time>
      </trkpt>
      <trkpt lat="48.29199" lon="6.39749">
        <ele>285.5</ele>
        <time>2026-05-17T15:51:46+02:00</time>
      </trkpt>
      <trkpt lat="48.29208" lon="6.39747">
        <ele>285.6006</ele>
        <time>2026-05-17T15:51:47+02:00</time>
      </trkpt>
      <trkpt lat="48.29215" lon="6.39747">
        <ele>285.7998</ele>
        <time>2026-05-17T15:51:48+02:00</time>
      </trkpt>
      <trkpt lat="48.29221" lon="6.39747">
        <ele>286.2998</ele>
        <time>2026-05-17T15:51:49+02:00</time>
      </trkpt>
      <trkpt lat="48.29227" lon="6.39747">
        <ele>287.2998</ele>
        <time>2026-05-17T15:51:50+02:00</time>
      </trkpt>
      <trkpt lat="48.29233" lon="6.39746">
        <ele>289.4004</ele>
        <time>2026-05-17T15:51:51+02:00</time>
      </trkpt>
      <trkpt lat="48.29239" lon="6.39746">
        <ele>289.5</ele>
        <time>2026-05-17T15:51:52+02:00</time>
      </trkpt>
      <trkpt lat="48.29245" lon="6.39746">
        <ele>289.6006</ele>
        <time>2026-05-17T15:51:53+02:00</time>
      </trkpt>
      <trkpt lat="48.2925" lon="6.39745">
        <ele>289.6006</ele>
        <time>2026-05-17T15:51:54+02:00</time>
      </trkpt>
      <trkpt lat="48.29257" lon="6.39745">
        <ele>289.7002</ele>
        <time>2026-05-17T15:51:55+02:00</time>
      </trkpt>
      <trkpt lat="48.29263" lon="6.39745">
        <ele>289.7002</ele>
        <time>2026-05-17T15:51:56+02:00</time>
      </trkpt>
      <trkpt lat="48.29269" lon="6.39745">
        <ele>289.7002</ele>
        <time>2026-05-17T15:51:57+02:00</time>
      </trkpt>
      <trkpt lat="48.29275" lon="6.39745">
        <ele>289.7998</ele>
        <time>2026-05-17T15:51:58+02:00</time>
      </trkpt>
      <trkpt lat="48.29281" lon="6.39745">
        <ele>289.7998</ele>
        <time>2026-05-17T15:51:59+02:00</time>
      </trkpt>
      <trkpt lat="48.29287" lon="6.39745">
        <ele>289.9004</ele>
        <time>2026-05-17T15:52:00+02:00</time>
      </trkpt>
      <trkpt lat="48.29293" lon="6.39744">
        <ele>289.7998</ele>
        <time>2026-05-17T15:52:01+02:00</time>
      </trkpt>
      <trkpt lat="48.29299" lon="6.39744">
        <ele>289.7998</ele>
        <time>2026-05-17T15:52:02+02:00</time>
      </trkpt>
      <trkpt lat="48.29304" lon="6.39744">
        <ele>289.7002</ele>
        <time>2026-05-17T15:52:03+02:00</time>
      </trkpt>
      <trkpt lat="48.2931" lon="6.39744">
        <ele>289.5</ele>
        <time>2026-05-17T15:52:04+02:00</time>
      </trkpt>
      <trkpt lat="48.29316" lon="6.39744">
        <ele>289.4004</ele>
        <time>2026-05-17T15:52:05+02:00</time>
      </trkpt>
      <trkpt lat="48.29322" lon="6.39744">
        <ele>289.2998</ele>
        <time>2026-05-17T15:52:06+02:00</time>
      </trkpt>
      <trkpt lat="48.29328" lon="6.39743">
        <ele>289.2002</ele>
        <time>2026-05-17T15:52:07+02:00</time>
      </trkpt>
      <trkpt lat="48.29334" lon="6.39743">
        <ele>289</ele>
        <time>2026-05-17T15:52:08+02:00</time>
      </trkpt>
      <trkpt lat="48.2934" lon="6.39743">
        <ele>288.9004</ele>
        <time>2026-05-17T15:52:09+02:00</time>
      </trkpt>
      <trkpt lat="48.29347" lon="6.39743">
        <ele>288.7998</ele>
        <time>2026-05-17T15:52:10+02:00</time>
      </trkpt>
      <trkpt lat="48.29352" lon="6.39743">
        <ele>288.7998</ele>
        <time>2026-05-17T15:52:11+02:00</time>
      </trkpt>
      <trkpt lat="48.29358" lon="6.39743">
        <ele>288.7998</ele>
        <time>2026-05-17T15:52:12+02:00</time>
      </trkpt>
      <trkpt lat="48.29364" lon="6.39743">
        <ele>288.7998</ele>
        <time>2026-05-17T15:52:13+02:00</time>
      </trkpt>
      <trkpt lat="48.2937" lon="6.39743">
        <ele>288.9004</ele>
        <time>2026-05-17T15:52:14+02:00</time>
      </trkpt>
      <trkpt lat="48.29376" lon="6.39743">
        <ele>288.9004</ele>
        <time>2026-05-17T15:52:15+02:00</time>
      </trkpt>
      <trkpt lat="48.29382" lon="6.39743">
        <ele>288.9004</ele>
        <time>2026-05-17T15:52:16+02:00</time>
      </trkpt>
      <trkpt lat="48.29388" lon="6.39743">
        <ele>289</ele>
        <time>2026-05-17T15:52:17+02:00</time>
      </trkpt>
      <trkpt lat="48.29394" lon="6.39743">
        <ele>289</ele>
        <time>2026-05-17T15:52:18+02:00</time>
      </trkpt>
      <trkpt lat="48.294" lon="6.39743">
        <ele>289</ele>
        <time>2026-05-17T15:52:19+02:00</time>
      </trkpt>
      <trkpt lat="48.29406" lon="6.39743">
        <ele>289</ele>
        <time>2026-05-17T15:52:20+02:00</time>
      </trkpt>
      <trkpt lat="48.29413" lon="6.39742">
        <ele>289</ele>
        <time>2026-05-17T15:52:21+02:00</time>
      </trkpt>
      <trkpt lat="48.29415" lon="6.39742">
        <ele>289</ele>
        <time>2026-05-17T15:52:22+02:00</time>
      </trkpt>
      <trkpt lat="48.29424" lon="6.39741">
        <ele>289</ele>
        <time>2026-05-17T15:52:23+02:00</time>
      </trkpt>
      <trkpt lat="48.29429" lon="6.3974">
        <ele>289</ele>
        <time>2026-05-17T15:52:24+02:00</time>
      </trkpt>
      <trkpt lat="48.29435" lon="6.39739">
        <ele>289.9004</ele>
        <time>2026-05-17T15:52:25+02:00</time>
      </trkpt>
      <trkpt lat="48.2944" lon="6.39739">
        <ele>289.9004</ele>
        <time>2026-05-17T15:52:26+02:00</time>
      </trkpt>
      <trkpt lat="48.29446" lon="6.39738">
        <ele>289.9004</ele>
        <time>2026-05-17T15:52:27+02:00</time>
      </trkpt>
      <trkpt lat="48.29452" lon="6.39738">
        <ele>289.9004</ele>
        <time>2026-05-17T15:52:28+02:00</time>
      </trkpt>
      <trkpt lat="48.29457" lon="6.39737">
        <ele>289.7998</ele>
        <time>2026-05-17T15:52:29+02:00</time>
      </trkpt>
      <trkpt lat="48.29463" lon="6.39737">
        <ele>289.7998</ele>
        <time>2026-05-17T15:52:30+02:00</time>
      </trkpt>
      <trkpt lat="48.29468" lon="6.39736">
        <ele>289.7002</ele>
        <time>2026-05-17T15:52:31+02:00</time>
      </trkpt>
      <trkpt lat="48.29474" lon="6.39735">
        <ele>289.6006</ele>
        <time>2026-05-17T15:52:32+02:00</time>
      </trkpt>
      <trkpt lat="48.2948" lon="6.39734">
        <ele>289.5</ele>
        <time>2026-05-17T15:52:33+02:00</time>
      </trkpt>
      <trkpt lat="48.29486" lon="6.39733">
        <ele>289.2998</ele>
        <time>2026-05-17T15:52:34+02:00</time>
      </trkpt>
      <trkpt lat="48.29492" lon="6.39731">
        <ele>289.2002</ele>
        <time>2026-05-17T15:52:35+02:00</time>
      </trkpt>
      <trkpt lat="48.29498" lon="6.3973">
        <ele>290.4004</ele>
        <time>2026-05-17T15:52:36+02:00</time>
      </trkpt>
      <trkpt lat="48.29504" lon="6.39729">
        <ele>290.2998</ele>
        <time>2026-05-17T15:52:37+02:00</time>
      </trkpt>
      <trkpt lat="48.2951" lon="6.39727">
        <ele>290.2002</ele>
        <time>2026-05-17T15:52:38+02:00</time>
      </trkpt>
      <trkpt lat="48.29516" lon="6.39725">
        <ele>290.1006</ele>
        <time>2026-05-17T15:52:39+02:00</time>
      </trkpt>
      <trkpt lat="48.29522" lon="6.39724">
        <ele>289.9004</ele>
        <time>2026-05-17T15:52:40+02:00</time>
      </trkpt>
      <trkpt lat="48.29529" lon="6.39722">
        <ele>289.7998</ele>
        <time>2026-05-17T15:52:41+02:00</time>
      </trkpt>
      <trkpt lat="48.29535" lon="6.39721">
        <ele>291</ele>
        <time>2026-05-17T15:52:42+02:00</time>
      </trkpt>
      <trkpt lat="48.29541" lon="6.3972">
        <ele>290.9004</ele>
        <time>2026-05-17T15:52:43+02:00</time>
      </trkpt>
      <trkpt lat="48.29547" lon="6.39718">
        <ele>290.7998</ele>
        <time>2026-05-17T15:52:44+02:00</time>
      </trkpt>
      <trkpt lat="48.29553" lon="6.39717">
        <ele>290.7002</ele>
        <time>2026-05-17T15:52:45+02:00</time>
      </trkpt>
      <trkpt lat="48.29559" lon="6.39716">
        <ele>290.6006</ele>
        <time>2026-05-17T15:52:46+02:00</time>
      </trkpt>
      <trkpt lat="48.29566" lon="6.39714">
        <ele>290.5</ele>
        <time>2026-05-17T15:52:47+02:00</time>
      </trkpt>
      <trkpt lat="48.29572" lon="6.39713">
        <ele>291.4004</ele>
        <time>2026-05-17T15:52:48+02:00</time>
      </trkpt>
      <trkpt lat="48.29579" lon="6.39711">
        <ele>291.2998</ele>
        <time>2026-05-17T15:52:49+02:00</time>
      </trkpt>
      <trkpt lat="48.29585" lon="6.39709">
        <ele>291.1006</ele>
        <time>2026-05-17T15:52:50+02:00</time>
      </trkpt>
      <trkpt lat="48.29591" lon="6.39707">
        <ele>291</ele>
        <time>2026-05-17T15:52:51+02:00</time>
      </trkpt>
      <trkpt lat="48.29598" lon="6.39705">
        <ele>290.7998</ele>
        <time>2026-05-17T15:52:52+02:00</time>
      </trkpt>
      <trkpt lat="48.29604" lon="6.39702">
        <ele>291.4004</ele>
        <time>2026-05-17T15:52:53+02:00</time>
      </trkpt>
      <trkpt lat="48.2961" lon="6.397">
        <ele>291.1006</ele>
        <time>2026-05-17T15:52:54+02:00</time>
      </trkpt>
      <trkpt lat="48.29616" lon="6.39697">
        <ele>290.7998</ele>
        <time>2026-05-17T15:52:55+02:00</time>
      </trkpt>
      <trkpt lat="48.29622" lon="6.39695">
        <ele>291.4004</ele>
        <time>2026-05-17T15:52:56+02:00</time>
      </trkpt>
      <trkpt lat="48.29629" lon="6.39692">
        <ele>291.1006</ele>
        <time>2026-05-17T15:52:57+02:00</time>
      </trkpt>
      <trkpt lat="48.29635" lon="6.39689">
        <ele>290.7002</ele>
        <time>2026-05-17T15:52:58+02:00</time>
      </trkpt>
      <trkpt lat="48.29641" lon="6.39687">
        <ele>291.5</ele>
        <time>2026-05-17T15:52:59+02:00</time>
      </trkpt>
      <trkpt lat="48.29647" lon="6.39684">
        <ele>291.1006</ele>
        <time>2026-05-17T15:53:00+02:00</time>
      </trkpt>
      <trkpt lat="48.29653" lon="6.39681">
        <ele>290.7002</ele>
        <time>2026-05-17T15:53:01+02:00</time>
      </trkpt>
      <trkpt lat="48.29659" lon="6.39678">
        <ele>291.2998</ele>
        <time>2026-05-17T15:53:02+02:00</time>
      </trkpt>
      <trkpt lat="48.29664" lon="6.39676">
        <ele>290.9004</ele>
        <time>2026-05-17T15:53:03+02:00</time>
      </trkpt>
      <trkpt lat="48.2967" lon="6.39673">
        <ele>290.5</ele>
        <time>2026-05-17T15:53:04+02:00</time>
      </trkpt>
      <trkpt lat="48.29675" lon="6.39669">
        <ele>290.7002</ele>
        <time>2026-05-17T15:53:05+02:00</time>
      </trkpt>
      <trkpt lat="48.29681" lon="6.39667">
        <ele>290.2998</ele>
        <time>2026-05-17T15:53:06+02:00</time>
      </trkpt>
      <trkpt lat="48.29686" lon="6.39664">
        <ele>289.7998</ele>
        <time>2026-05-17T15:53:07+02:00</time>
      </trkpt>
      <trkpt lat="48.29691" lon="6.39661">
        <ele>289.9004</ele>
        <time>2026-05-17T15:53:08+02:00</time>
      </trkpt>
      <trkpt lat="48.29697" lon="6.39657">
        <ele>289.6006</ele>
        <time>2026-05-17T15:53:09+02:00</time>
      </trkpt>
      <trkpt lat="48.29702" lon="6.39654">
        <ele>289.2998</ele>
        <time>2026-05-17T15:53:10+02:00</time>
      </trkpt>
      <trkpt lat="48.29708" lon="6.39651">
        <ele>289.9004</ele>
        <time>2026-05-17T15:53:11+02:00</time>
      </trkpt>
      <trkpt lat="48.29714" lon="6.39647">
        <ele>289.5</ele>
        <time>2026-05-17T15:53:12+02:00</time>
      </trkpt>
      <trkpt lat="48.29719" lon="6.39644">
        <ele>290.1006</ele>
        <time>2026-05-17T15:53:13+02:00</time>
      </trkpt>
      <trkpt lat="48.29725" lon="6.3964">
        <ele>289.7002</ele>
        <time>2026-05-17T15:53:14+02:00</time>
      </trkpt>
      <trkpt lat="48.29731" lon="6.39636">
        <ele>290</ele>
        <time>2026-05-17T15:53:15+02:00</time>
      </trkpt>
      <trkpt lat="48.29737" lon="6.39633">
        <ele>289.5</ele>
        <time>2026-05-17T15:53:16+02:00</time>
      </trkpt>
      <trkpt lat="48.29743" lon="6.3963">
        <ele>289</ele>
        <time>2026-05-17T15:53:17+02:00</time>
      </trkpt>
      <trkpt lat="48.29749" lon="6.39626">
        <ele>289.6006</ele>
        <time>2026-05-17T15:53:18+02:00</time>
      </trkpt>
      <trkpt lat="48.29755" lon="6.39623">
        <ele>289.2002</ele>
        <time>2026-05-17T15:53:19+02:00</time>
      </trkpt>
      <trkpt lat="48.29761" lon="6.39619">
        <ele>288.7002</ele>
        <time>2026-05-17T15:53:20+02:00</time>
      </trkpt>
      <trkpt lat="48.29767" lon="6.39615">
        <ele>289.5</ele>
        <time>2026-05-17T15:53:21+02:00</time>
      </trkpt>
      <trkpt lat="48.29773" lon="6.39612">
        <ele>289.1006</ele>
        <time>2026-05-17T15:53:22+02:00</time>
      </trkpt>
      <trkpt lat="48.29778" lon="6.39609">
        <ele>290.1006</ele>
        <time>2026-05-17T15:53:23+02:00</time>
      </trkpt>
      <trkpt lat="48.29784" lon="6.39606">
        <ele>289.7002</ele>
        <time>2026-05-17T15:53:24+02:00</time>
      </trkpt>
      <trkpt lat="48.29789" lon="6.39603">
        <ele>289.2998</ele>
        <time>2026-05-17T15:53:25+02:00</time>
      </trkpt>
      <trkpt lat="48.29795" lon="6.396">
        <ele>290</ele>
        <time>2026-05-17T15:53:26+02:00</time>
      </trkpt>
      <trkpt lat="48.29801" lon="6.39597">
        <ele>289.7002</ele>
        <time>2026-05-17T15:53:27+02:00</time>
      </trkpt>
      <trkpt lat="48.29806" lon="6.39593">
        <ele>290</ele>
        <time>2026-05-17T15:53:28+02:00</time>
      </trkpt>
      <trkpt lat="48.29812" lon="6.3959">
        <ele>289.6006</ele>
        <time>2026-05-17T15:53:29+02:00</time>
      </trkpt>
      <trkpt lat="48.29818" lon="6.39586">
        <ele>289.2998</ele>
        <time>2026-05-17T15:53:30+02:00</time>
      </trkpt>
      <trkpt lat="48.29823" lon="6.39582">
        <ele>289.5</ele>
        <time>2026-05-17T15:53:31+02:00</time>
      </trkpt>
      <trkpt lat="48.2983" lon="6.39579">
        <ele>289.2998</ele>
        <time>2026-05-17T15:53:32+02:00</time>
      </trkpt>
      <trkpt lat="48.29835" lon="6.39575">
        <ele>289.7998</ele>
        <time>2026-05-17T15:53:33+02:00</time>
      </trkpt>
      <trkpt lat="48.29841" lon="6.39572">
        <ele>289.5</ele>
        <time>2026-05-17T15:53:34+02:00</time>
      </trkpt>
      <trkpt lat="48.29846" lon="6.39568">
        <ele>289.1006</ele>
        <time>2026-05-17T15:53:35+02:00</time>
      </trkpt>
      <trkpt lat="48.29852" lon="6.39565">
        <ele>289.2998</ele>
        <time>2026-05-17T15:53:36+02:00</time>
      </trkpt>
      <trkpt lat="48.29857" lon="6.39562">
        <ele>288.9004</ele>
        <time>2026-05-17T15:53:37+02:00</time>
      </trkpt>
      <trkpt lat="48.29863" lon="6.39559">
        <ele>288.6006</ele>
        <time>2026-05-17T15:53:38+02:00</time>
      </trkpt>
      <trkpt lat="48.29868" lon="6.39556">
        <ele>288.7002</ele>
        <time>2026-05-17T15:53:39+02:00</time>
      </trkpt>
      <trkpt lat="48.29872" lon="6.39552">
        <ele>288.7002</ele>
        <time>2026-05-17T15:53:40+02:00</time>
      </trkpt>
      <trkpt lat="48.29878" lon="6.39549">
        <ele>288.5</ele>
        <time>2026-05-17T15:53:41+02:00</time>
      </trkpt>
      <trkpt lat="48.29883" lon="6.39545">
        <ele>288.2002</ele>
        <time>2026-05-17T15:53:42+02:00</time>
      </trkpt>
      <trkpt lat="48.29888" lon="6.39542">
        <ele>287.9004</ele>
        <time>2026-05-17T15:53:43+02:00</time>
      </trkpt>
      <trkpt lat="48.29893" lon="6.39538">
        <ele>287.7998</ele>
        <time>2026-05-17T15:53:44+02:00</time>
      </trkpt>
      <trkpt lat="48.29899" lon="6.39533">
        <ele>288.1006</ele>
        <time>2026-05-17T15:53:45+02:00</time>
      </trkpt>
      <trkpt lat="48.29904" lon="6.39528">
        <ele>288.1006</ele>
        <time>2026-05-17T15:53:46+02:00</time>
      </trkpt>
      <trkpt lat="48.29909" lon="6.39524">
        <ele>288.2002</ele>
        <time>2026-05-17T15:53:47+02:00</time>
      </trkpt>
      <trkpt lat="48.29914" lon="6.39521">
        <ele>287.9004</ele>
        <time>2026-05-17T15:53:48+02:00</time>
      </trkpt>
      <trkpt lat="48.29919" lon="6.39518">
        <ele>287.5</ele>
        <time>2026-05-17T15:53:49+02:00</time>
      </trkpt>
      <trkpt lat="48.29925" lon="6.39516">
        <ele>287.2002</ele>
        <time>2026-05-17T15:53:50+02:00</time>
      </trkpt>
      <trkpt lat="48.29929" lon="6.39515">
        <ele>287.5</ele>
        <time>2026-05-17T15:53:51+02:00</time>
      </trkpt>
      <trkpt lat="48.29934" lon="6.39514">
        <ele>287.2998</ele>
        <time>2026-05-17T15:53:52+02:00</time>
      </trkpt>
      <trkpt lat="48.29938" lon="6.39512">
        <ele>287</ele>
        <time>2026-05-17T15:53:53+02:00</time>
      </trkpt>
      <trkpt lat="48.29941" lon="6.3951">
        <ele>286.7998</ele>
        <time>2026-05-17T15:53:54+02:00</time>
      </trkpt>
      <trkpt lat="48.29945" lon="6.39508">
        <ele>286.7998</ele>
        <time>2026-05-17T15:53:55+02:00</time>
      </trkpt>
      <trkpt lat="48.2995" lon="6.39504">
        <ele>286.7002</ele>
        <time>2026-05-17T15:53:56+02:00</time>
      </trkpt>
      <trkpt lat="48.29955" lon="6.39501">
        <ele>286.5</ele>
        <time>2026-05-17T15:53:57+02:00</time>
      </trkpt>
      <trkpt lat="48.29961" lon="6.39497">
        <ele>286.6006</ele>
        <time>2026-05-17T15:53:58+02:00</time>
      </trkpt>
      <trkpt lat="48.29968" lon="6.39492">
        <ele>286.5</ele>
        <time>2026-05-17T15:53:59+02:00</time>
      </trkpt>
      <trkpt lat="48.29974" lon="6.39488">
        <ele>286.6006</ele>
        <time>2026-05-17T15:54:00+02:00</time>
      </trkpt>
      <trkpt lat="48.29981" lon="6.39484">
        <ele>286.5</ele>
        <time>2026-05-17T15:54:01+02:00</time>
      </trkpt>
      <trkpt lat="48.29988" lon="6.39481">
        <ele>286.5</ele>
        <time>2026-05-17T15:54:02+02:00</time>
      </trkpt>
      <trkpt lat="48.29995" lon="6.39477">
        <ele>286.5</ele>
        <time>2026-05-17T15:54:03+02:00</time>
      </trkpt>
      <trkpt lat="48.30001" lon="6.39473">
        <ele>286.4004</ele>
        <time>2026-05-17T15:54:04+02:00</time>
      </trkpt>
      <trkpt lat="48.30007" lon="6.39469">
        <ele>286.6006</ele>
        <time>2026-05-17T15:54:05+02:00</time>
      </trkpt>
      <trkpt lat="48.30013" lon="6.39466">
        <ele>286.6006</ele>
        <time>2026-05-17T15:54:06+02:00</time>
      </trkpt>
      <trkpt lat="48.30019" lon="6.39462">
        <ele>286.7002</ele>
        <time>2026-05-17T15:54:07+02:00</time>
      </trkpt>
      <trkpt lat="48.30024" lon="6.39458">
        <ele>286.7002</ele>
        <time>2026-05-17T15:54:08+02:00</time>
      </trkpt>
      <trkpt lat="48.3003" lon="6.39455">
        <ele>286.9004</ele>
        <time>2026-05-17T15:54:09+02:00</time>
      </trkpt>
      <trkpt lat="48.30036" lon="6.39451">
        <ele>286.9004</ele>
        <time>2026-05-17T15:54:10+02:00</time>
      </trkpt>
      <trkpt lat="48.30042" lon="6.39448">
        <ele>286.9004</ele>
        <time>2026-05-17T15:54:11+02:00</time>
      </trkpt>
      <trkpt lat="48.30048" lon="6.39445">
        <ele>287.1006</ele>
        <time>2026-05-17T15:54:12+02:00</time>
      </trkpt>
      <trkpt lat="48.30053" lon="6.39441">
        <ele>287.1006</ele>
        <time>2026-05-17T15:54:13+02:00</time>
      </trkpt>
      <trkpt lat="48.30059" lon="6.39438">
        <ele>287.1006</ele>
        <time>2026-05-17T15:54:14+02:00</time>
      </trkpt>
      <trkpt lat="48.30065" lon="6.39434">
        <ele>287.1006</ele>
        <time>2026-05-17T15:54:15+02:00</time>
      </trkpt>
      <trkpt lat="48.30071" lon="6.39431">
        <ele>287.1006</ele>
        <time>2026-05-17T15:54:16+02:00</time>
      </trkpt>
      <trkpt lat="48.30076" lon="6.39427">
        <ele>287.1006</ele>
        <time>2026-05-17T15:54:17+02:00</time>
      </trkpt>
      <trkpt lat="48.30082" lon="6.39424">
        <ele>287.1006</ele>
        <time>2026-05-17T15:54:18+02:00</time>
      </trkpt>
      <trkpt lat="48.30087" lon="6.3942">
        <ele>287.1006</ele>
        <time>2026-05-17T15:54:19+02:00</time>
      </trkpt>
      <trkpt lat="48.30094" lon="6.39417">
        <ele>287.1006</ele>
        <time>2026-05-17T15:54:20+02:00</time>
      </trkpt>
      <trkpt lat="48.30099" lon="6.39413">
        <ele>287.2002</ele>
        <time>2026-05-17T15:54:21+02:00</time>
      </trkpt>
      <trkpt lat="48.30105" lon="6.3941">
        <ele>287.2002</ele>
        <time>2026-05-17T15:54:22+02:00</time>
      </trkpt>
      <trkpt lat="48.3011" lon="6.39406">
        <ele>287.2998</ele>
        <time>2026-05-17T15:54:23+02:00</time>
      </trkpt>
      <trkpt lat="48.30116" lon="6.39403">
        <ele>287.4004</ele>
        <time>2026-05-17T15:54:24+02:00</time>
      </trkpt>
      <trkpt lat="48.30121" lon="6.39399">
        <ele>287.5</ele>
        <time>2026-05-17T15:54:25+02:00</time>
      </trkpt>
      <trkpt lat="48.30127" lon="6.39396">
        <ele>287.5</ele>
        <time>2026-05-17T15:54:26+02:00</time>
      </trkpt>
      <trkpt lat="48.30132" lon="6.39392">
        <ele>287.7002</ele>
        <time>2026-05-17T15:54:27+02:00</time>
      </trkpt>
      <trkpt lat="48.30137" lon="6.39388">
        <ele>287.7998</ele>
        <time>2026-05-17T15:54:28+02:00</time>
      </trkpt>
      <trkpt lat="48.30143" lon="6.39385">
        <ele>288</ele>
        <time>2026-05-17T15:54:29+02:00</time>
      </trkpt>
      <trkpt lat="48.30148" lon="6.39382">
        <ele>288.1006</ele>
        <time>2026-05-17T15:54:30+02:00</time>
      </trkpt>
      <trkpt lat="48.30154" lon="6.39378">
        <ele>288.2998</ele>
        <time>2026-05-17T15:54:31+02:00</time>
      </trkpt>
      <trkpt lat="48.3016" lon="6.39376">
        <ele>288.4004</ele>
        <time>2026-05-17T15:54:32+02:00</time>
      </trkpt>
      <trkpt lat="48.30165" lon="6.39373">
        <ele>288.5</ele>
        <time>2026-05-17T15:54:33+02:00</time>
      </trkpt>
      <trkpt lat="48.30171" lon="6.3937">
        <ele>288.6006</ele>
        <time>2026-05-17T15:54:34+02:00</time>
      </trkpt>
      <trkpt lat="48.30176" lon="6.39366">
        <ele>288.7998</ele>
        <time>2026-05-17T15:54:35+02:00</time>
      </trkpt>
      <trkpt lat="48.30181" lon="6.39363">
        <ele>288.9004</ele>
        <time>2026-05-17T15:54:36+02:00</time>
      </trkpt>
      <trkpt lat="48.30187" lon="6.3936">
        <ele>289.2002</ele>
        <time>2026-05-17T15:54:37+02:00</time>
      </trkpt>
      <trkpt lat="48.30192" lon="6.39357">
        <ele>289.2002</ele>
        <time>2026-05-17T15:54:38+02:00</time>
      </trkpt>
      <trkpt lat="48.30198" lon="6.39354">
        <ele>289.2002</ele>
        <time>2026-05-17T15:54:39+02:00</time>
      </trkpt>
      <trkpt lat="48.30203" lon="6.39351">
        <ele>289.4004</ele>
        <time>2026-05-17T15:54:40+02:00</time>
      </trkpt>
      <trkpt lat="48.30209" lon="6.39347">
        <ele>289.2998</ele>
        <time>2026-05-17T15:54:41+02:00</time>
      </trkpt>
      <trkpt lat="48.30214" lon="6.39344">
        <ele>289.4004</ele>
        <time>2026-05-17T15:54:42+02:00</time>
      </trkpt>
      <trkpt lat="48.30219" lon="6.39341">
        <ele>289.2002</ele>
        <time>2026-05-17T15:54:43+02:00</time>
      </trkpt>
      <trkpt lat="48.30225" lon="6.39338">
        <ele>288.9004</ele>
        <time>2026-05-17T15:54:44+02:00</time>
      </trkpt>
      <trkpt lat="48.3023" lon="6.39334">
        <ele>288.7002</ele>
        <time>2026-05-17T15:54:45+02:00</time>
      </trkpt>
      <trkpt lat="48.30235" lon="6.39331">
        <ele>288.4004</ele>
        <time>2026-05-17T15:54:46+02:00</time>
      </trkpt>
      <trkpt lat="48.30241" lon="6.39328">
        <ele>288.1006</ele>
        <time>2026-05-17T15:54:47+02:00</time>
      </trkpt>
      <trkpt lat="48.30246" lon="6.39325">
        <ele>288.2002</ele>
        <time>2026-05-17T15:54:48+02:00</time>
      </trkpt>
      <trkpt lat="48.30251" lon="6.39322">
        <ele>288</ele>
        <time>2026-05-17T15:54:49+02:00</time>
      </trkpt>
      <trkpt lat="48.30256" lon="6.39319">
        <ele>287.7002</ele>
        <time>2026-05-17T15:54:50+02:00</time>
      </trkpt>
      <trkpt lat="48.30262" lon="6.39316">
        <ele>287.7998</ele>
        <time>2026-05-17T15:54:51+02:00</time>
      </trkpt>
      <trkpt lat="48.30267" lon="6.39313">
        <ele>287.5</ele>
        <time>2026-05-17T15:54:52+02:00</time>
      </trkpt>
      <trkpt lat="48.30273" lon="6.3931">
        <ele>287.1006</ele>
        <time>2026-05-17T15:54:53+02:00</time>
      </trkpt>
      <trkpt lat="48.30278" lon="6.39307">
        <ele>287</ele>
        <time>2026-05-17T15:54:54+02:00</time>
      </trkpt>
      <trkpt lat="48.30284" lon="6.39303">
        <ele>286.7002</ele>
        <time>2026-05-17T15:54:55+02:00</time>
      </trkpt>
      <trkpt lat="48.30287" lon="6.39301">
        <ele>287</ele>
        <time>2026-05-17T15:54:56+02:00</time>
      </trkpt>
      <trkpt lat="48.30295" lon="6.39296">
        <ele>286.4004</ele>
        <time>2026-05-17T15:54:57+02:00</time>
      </trkpt>
      <trkpt lat="48.303" lon="6.39292">
        <ele>286.9004</ele>
        <time>2026-05-17T15:54:58+02:00</time>
      </trkpt>
      <trkpt lat="48.30306" lon="6.39289">
        <ele>286.7002</ele>
        <time>2026-05-17T15:54:59+02:00</time>
      </trkpt>
      <trkpt lat="48.30308" lon="6.39287">
        <ele>286.5</ele>
        <time>2026-05-17T15:55:00+02:00</time>
      </trkpt>
      <trkpt lat="48.30317" lon="6.39282">
        <ele>286.5</ele>
        <time>2026-05-17T15:55:01+02:00</time>
      </trkpt>
      <trkpt lat="48.30322" lon="6.39279">
        <ele>286.2002</ele>
        <time>2026-05-17T15:55:02+02:00</time>
      </trkpt>
      <trkpt lat="48.30327" lon="6.39275">
        <ele>286.1006</ele>
        <time>2026-05-17T15:55:03+02:00</time>
      </trkpt>
      <trkpt lat="48.30333" lon="6.39272">
        <ele>285.7998</ele>
        <time>2026-05-17T15:55:04+02:00</time>
      </trkpt>
      <trkpt lat="48.30338" lon="6.39269">
        <ele>285.4004</ele>
        <time>2026-05-17T15:55:05+02:00</time>
      </trkpt>
      <trkpt lat="48.30343" lon="6.39266">
        <ele>285.6006</ele>
        <time>2026-05-17T15:55:06+02:00</time>
      </trkpt>
      <trkpt lat="48.30349" lon="6.39263">
        <ele>285.4004</ele>
        <time>2026-05-17T15:55:07+02:00</time>
      </trkpt>
      <trkpt lat="48.30354" lon="6.39259">
        <ele>285.2002</ele>
        <time>2026-05-17T15:55:08+02:00</time>
      </trkpt>
      <trkpt lat="48.3036" lon="6.39256">
        <ele>285.5</ele>
        <time>2026-05-17T15:55:09+02:00</time>
      </trkpt>
      <trkpt lat="48.30366" lon="6.39253">
        <ele>285.2998</ele>
        <time>2026-05-17T15:55:10+02:00</time>
      </trkpt>
      <trkpt lat="48.30371" lon="6.39249">
        <ele>285.4004</ele>
        <time>2026-05-17T15:55:11+02:00</time>
      </trkpt>
      <trkpt lat="48.30377" lon="6.39246">
        <ele>285.2998</ele>
        <time>2026-05-17T15:55:12+02:00</time>
      </trkpt>
      <trkpt lat="48.30383" lon="6.39242">
        <ele>285.2002</ele>
        <time>2026-05-17T15:55:13+02:00</time>
      </trkpt>
      <trkpt lat="48.30388" lon="6.39238">
        <ele>285.2002</ele>
        <time>2026-05-17T15:55:14+02:00</time>
      </trkpt>
      <trkpt lat="48.30394" lon="6.39234">
        <ele>285.1006</ele>
        <time>2026-05-17T15:55:15+02:00</time>
      </trkpt>
      <trkpt lat="48.304" lon="6.39231">
        <ele>285.1006</ele>
        <time>2026-05-17T15:55:16+02:00</time>
      </trkpt>
      <trkpt lat="48.30406" lon="6.39227">
        <ele>284.9004</ele>
        <time>2026-05-17T15:55:17+02:00</time>
      </trkpt>
      <trkpt lat="48.30412" lon="6.39224">
        <ele>285</ele>
        <time>2026-05-17T15:55:18+02:00</time>
      </trkpt>
      <trkpt lat="48.30417" lon="6.39221">
        <ele>285</ele>
        <time>2026-05-17T15:55:19+02:00</time>
      </trkpt>
      <trkpt lat="48.30423" lon="6.39217">
        <ele>284.9004</ele>
        <time>2026-05-17T15:55:20+02:00</time>
      </trkpt>
      <trkpt lat="48.30429" lon="6.39214">
        <ele>285</ele>
        <time>2026-05-17T15:55:21+02:00</time>
      </trkpt>
      <trkpt lat="48.30435" lon="6.39211">
        <ele>284.9004</ele>
        <time>2026-05-17T15:55:22+02:00</time>
      </trkpt>
      <trkpt lat="48.3044" lon="6.39208">
        <ele>284.7998</ele>
        <time>2026-05-17T15:55:23+02:00</time>
      </trkpt>
      <trkpt lat="48.30446" lon="6.39205">
        <ele>284.9004</ele>
        <time>2026-05-17T15:55:24+02:00</time>
      </trkpt>
      <trkpt lat="48.30452" lon="6.39202">
        <ele>284.7998</ele>
        <time>2026-05-17T15:55:25+02:00</time>
      </trkpt>
      <trkpt lat="48.30457" lon="6.39199">
        <ele>284.7002</ele>
        <time>2026-05-17T15:55:26+02:00</time>
      </trkpt>
      <trkpt lat="48.30462" lon="6.39195">
        <ele>285</ele>
        <time>2026-05-17T15:55:27+02:00</time>
      </trkpt>
      <trkpt lat="48.30468" lon="6.39192">
        <ele>285</ele>
        <time>2026-05-17T15:55:28+02:00</time>
      </trkpt>
      <trkpt lat="48.30473" lon="6.39188">
        <ele>285.2998</ele>
        <time>2026-05-17T15:55:29+02:00</time>
      </trkpt>
      <trkpt lat="48.30479" lon="6.39185">
        <ele>285.2998</ele>
        <time>2026-05-17T15:55:30+02:00</time>
      </trkpt>
      <trkpt lat="48.30485" lon="6.39181">
        <ele>285.6006</ele>
        <time>2026-05-17T15:55:31+02:00</time>
      </trkpt>
      <trkpt lat="48.3049" lon="6.39178">
        <ele>285.6006</ele>
        <time>2026-05-17T15:55:32+02:00</time>
      </trkpt>
      <trkpt lat="48.30496" lon="6.39174">
        <ele>285.6006</ele>
        <time>2026-05-17T15:55:33+02:00</time>
      </trkpt>
      <trkpt lat="48.30502" lon="6.39171">
        <ele>285.7002</ele>
        <time>2026-05-17T15:55:34+02:00</time>
      </trkpt>
      <trkpt lat="48.30508" lon="6.39168">
        <ele>285.4004</ele>
        <time>2026-05-17T15:55:35+02:00</time>
      </trkpt>
      <trkpt lat="48.30514" lon="6.39164">
        <ele>285.1006</ele>
        <time>2026-05-17T15:55:36+02:00</time>
      </trkpt>
      <trkpt lat="48.3052" lon="6.39161">
        <ele>285.2002</ele>
        <time>2026-05-17T15:55:37+02:00</time>
      </trkpt>
      <trkpt lat="48.30526" lon="6.39157">
        <ele>285.1006</ele>
        <time>2026-05-17T15:55:38+02:00</time>
      </trkpt>
      <trkpt lat="48.30533" lon="6.39153">
        <ele>285.5</ele>
        <time>2026-05-17T15:55:39+02:00</time>
      </trkpt>
      <trkpt lat="48.30538" lon="6.39149">
        <ele>285.5</ele>
        <time>2026-05-17T15:55:40+02:00</time>
      </trkpt>
      <trkpt lat="48.30544" lon="6.39145">
        <ele>285.9004</ele>
        <time>2026-05-17T15:55:41+02:00</time>
      </trkpt>
      <trkpt lat="48.3055" lon="6.39141">
        <ele>285.9004</ele>
        <time>2026-05-17T15:55:42+02:00</time>
      </trkpt>
      <trkpt lat="48.30556" lon="6.39137">
        <ele>286.2002</ele>
        <time>2026-05-17T15:55:43+02:00</time>
      </trkpt>
      <trkpt lat="48.30559" lon="6.39135">
        <ele>286.2002</ele>
        <time>2026-05-17T15:55:44+02:00</time>
      </trkpt>
      <trkpt lat="48.30568" lon="6.39129">
        <ele>286.4004</ele>
        <time>2026-05-17T15:55:45+02:00</time>
      </trkpt>
      <trkpt lat="48.30574" lon="6.39125">
        <ele>286.5</ele>
        <time>2026-05-17T15:55:46+02:00</time>
      </trkpt>
      <trkpt lat="48.3058" lon="6.39121">
        <ele>286.7002</ele>
        <time>2026-05-17T15:55:47+02:00</time>
      </trkpt>
      <trkpt lat="48.30586" lon="6.39117">
        <ele>286.7998</ele>
        <time>2026-05-17T15:55:48+02:00</time>
      </trkpt>
      <trkpt lat="48.30592" lon="6.39112">
        <ele>287</ele>
        <time>2026-05-17T15:55:49+02:00</time>
      </trkpt>
      <trkpt lat="48.30598" lon="6.39108">
        <ele>287.1006</ele>
        <time>2026-05-17T15:55:50+02:00</time>
      </trkpt>
      <trkpt lat="48.30604" lon="6.39104">
        <ele>287.1006</ele>
        <time>2026-05-17T15:55:51+02:00</time>
      </trkpt>
      <trkpt lat="48.3061" lon="6.39099">
        <ele>287.2002</ele>
        <time>2026-05-17T15:55:52+02:00</time>
      </trkpt>
      <trkpt lat="48.30615" lon="6.39095">
        <ele>287.2002</ele>
        <time>2026-05-17T15:55:53+02:00</time>
      </trkpt>
      <trkpt lat="48.30621" lon="6.3909">
        <ele>287.2998</ele>
        <time>2026-05-17T15:55:54+02:00</time>
      </trkpt>
      <trkpt lat="48.30626" lon="6.39085">
        <ele>287.2998</ele>
        <time>2026-05-17T15:55:55+02:00</time>
      </trkpt>
      <trkpt lat="48.30632" lon="6.39081">
        <ele>287.4004</ele>
        <time>2026-05-17T15:55:56+02:00</time>
      </trkpt>
      <trkpt lat="48.30637" lon="6.39076">
        <ele>287.2998</ele>
        <time>2026-05-17T15:55:57+02:00</time>
      </trkpt>
      <trkpt lat="48.30643" lon="6.39071">
        <ele>287.4004</ele>
        <time>2026-05-17T15:55:58+02:00</time>
      </trkpt>
      <trkpt lat="48.30649" lon="6.39067">
        <ele>287.5</ele>
        <time>2026-05-17T15:55:59+02:00</time>
      </trkpt>
      <trkpt lat="48.30655" lon="6.39062">
        <ele>287.5</ele>
        <time>2026-05-17T15:56:00+02:00</time>
      </trkpt>
      <trkpt lat="48.30661" lon="6.39057">
        <ele>287.5</ele>
        <time>2026-05-17T15:56:01+02:00</time>
      </trkpt>
      <trkpt lat="48.30667" lon="6.39052">
        <ele>287.5</ele>
        <time>2026-05-17T15:56:02+02:00</time>
      </trkpt>
      <trkpt lat="48.30673" lon="6.39048">
        <ele>287.6006</ele>
        <time>2026-05-17T15:56:03+02:00</time>
      </trkpt>
      <trkpt lat="48.30679" lon="6.39042">
        <ele>287.6006</ele>
        <time>2026-05-17T15:56:04+02:00</time>
      </trkpt>
      <trkpt lat="48.30685" lon="6.39037">
        <ele>287.7002</ele>
        <time>2026-05-17T15:56:05+02:00</time>
      </trkpt>
      <trkpt lat="48.30688" lon="6.39035">
        <ele>287.6006</ele>
        <time>2026-05-17T15:56:06+02:00</time>
      </trkpt>
      <trkpt lat="48.30697" lon="6.39028">
        <ele>287.6006</ele>
        <time>2026-05-17T15:56:07+02:00</time>
      </trkpt>
      <trkpt lat="48.30703" lon="6.39022">
        <ele>287.5</ele>
        <time>2026-05-17T15:56:08+02:00</time>
      </trkpt>
      <trkpt lat="48.30708" lon="6.39017">
        <ele>287.5</ele>
        <time>2026-05-17T15:56:09+02:00</time>
      </trkpt>
      <trkpt lat="48.30715" lon="6.39013">
        <ele>287.5</ele>
        <time>2026-05-17T15:56:10+02:00</time>
      </trkpt>
      <trkpt lat="48.3072" lon="6.39008">
        <ele>287.5</ele>
        <time>2026-05-17T15:56:11+02:00</time>
      </trkpt>
      <trkpt lat="48.30726" lon="6.39003">
        <ele>287.5</ele>
        <time>2026-05-17T15:56:12+02:00</time>
      </trkpt>
      <trkpt lat="48.30732" lon="6.38998">
        <ele>287.4004</ele>
        <time>2026-05-17T15:56:13+02:00</time>
      </trkpt>
      <trkpt lat="48.30738" lon="6.38993">
        <ele>287.4004</ele>
        <time>2026-05-17T15:56:14+02:00</time>
      </trkpt>
      <trkpt lat="48.30744" lon="6.38988">
        <ele>287.2998</ele>
        <time>2026-05-17T15:56:15+02:00</time>
      </trkpt>
      <trkpt lat="48.3075" lon="6.38983">
        <ele>287.2002</ele>
        <time>2026-05-17T15:56:16+02:00</time>
      </trkpt>
      <trkpt lat="48.30756" lon="6.38979">
        <ele>287.2002</ele>
        <time>2026-05-17T15:56:17+02:00</time>
      </trkpt>
      <trkpt lat="48.30761" lon="6.38974">
        <ele>287.2002</ele>
        <time>2026-05-17T15:56:18+02:00</time>
      </trkpt>
      <trkpt lat="48.30767" lon="6.38969">
        <ele>287.1006</ele>
        <time>2026-05-17T15:56:19+02:00</time>
      </trkpt>
      <trkpt lat="48.30773" lon="6.38964">
        <ele>287.1006</ele>
        <time>2026-05-17T15:56:20+02:00</time>
      </trkpt>
      <trkpt lat="48.30779" lon="6.3896">
        <ele>287</ele>
        <time>2026-05-17T15:56:21+02:00</time>
      </trkpt>
      <trkpt lat="48.30784" lon="6.38955">
        <ele>287</ele>
        <time>2026-05-17T15:56:22+02:00</time>
      </trkpt>
      <trkpt lat="48.3079" lon="6.38951">
        <ele>286.9004</ele>
        <time>2026-05-17T15:56:23+02:00</time>
      </trkpt>
      <trkpt lat="48.30796" lon="6.38946">
        <ele>286.9004</ele>
        <time>2026-05-17T15:56:24+02:00</time>
      </trkpt>
      <trkpt lat="48.30802" lon="6.38941">
        <ele>286.7998</ele>
        <time>2026-05-17T15:56:25+02:00</time>
      </trkpt>
      <trkpt lat="48.30808" lon="6.38936">
        <ele>286.7998</ele>
        <time>2026-05-17T15:56:26+02:00</time>
      </trkpt>
      <trkpt lat="48.30814" lon="6.38931">
        <ele>286.7002</ele>
        <time>2026-05-17T15:56:27+02:00</time>
      </trkpt>
      <trkpt lat="48.3082" lon="6.38926">
        <ele>286.6006</ele>
        <time>2026-05-17T15:56:28+02:00</time>
      </trkpt>
      <trkpt lat="48.30826" lon="6.38921">
        <ele>286.2998</ele>
        <time>2026-05-17T15:56:29+02:00</time>
      </trkpt>
      <trkpt lat="48.30832" lon="6.38916">
        <ele>286.1006</ele>
        <time>2026-05-17T15:56:30+02:00</time>
      </trkpt>
      <trkpt lat="48.30838" lon="6.38911">
        <ele>285.9004</ele>
        <time>2026-05-17T15:56:31+02:00</time>
      </trkpt>
      <trkpt lat="48.30843" lon="6.38906">
        <ele>285.9004</ele>
        <time>2026-05-17T15:56:32+02:00</time>
      </trkpt>
      <trkpt lat="48.3085" lon="6.38901">
        <ele>285.5</ele>
        <time>2026-05-17T15:56:33+02:00</time>
      </trkpt>
      <trkpt lat="48.30856" lon="6.38896">
        <ele>285.4004</ele>
        <time>2026-05-17T15:56:34+02:00</time>
      </trkpt>
      <trkpt lat="48.30862" lon="6.38891">
        <ele>285.2002</ele>
        <time>2026-05-17T15:56:35+02:00</time>
      </trkpt>
      <trkpt lat="48.30868" lon="6.38886">
        <ele>285.1006</ele>
        <time>2026-05-17T15:56:36+02:00</time>
      </trkpt>
      <trkpt lat="48.30874" lon="6.38881">
        <ele>284.9004</ele>
        <time>2026-05-17T15:56:37+02:00</time>
      </trkpt>
      <trkpt lat="48.3088" lon="6.38876">
        <ele>284.7998</ele>
        <time>2026-05-17T15:56:38+02:00</time>
      </trkpt>
      <trkpt lat="48.30885" lon="6.38872">
        <ele>284.7002</ele>
        <time>2026-05-17T15:56:39+02:00</time>
      </trkpt>
      <trkpt lat="48.30891" lon="6.38867">
        <ele>284.6006</ele>
        <time>2026-05-17T15:56:40+02:00</time>
      </trkpt>
      <trkpt lat="48.30894" lon="6.38865">
        <ele>284.6006</ele>
        <time>2026-05-17T15:56:41+02:00</time>
      </trkpt>
      <trkpt lat="48.30902" lon="6.38858">
        <ele>284.6006</ele>
        <time>2026-05-17T15:56:42+02:00</time>
      </trkpt>
      <trkpt lat="48.30908" lon="6.38853">
        <ele>284.7002</ele>
        <time>2026-05-17T15:56:43+02:00</time>
      </trkpt>
      <trkpt lat="48.30914" lon="6.38849">
        <ele>284.7002</ele>
        <time>2026-05-17T15:56:44+02:00</time>
      </trkpt>
      <trkpt lat="48.3092" lon="6.38844">
        <ele>284.7998</ele>
        <time>2026-05-17T15:56:45+02:00</time>
      </trkpt>
      <trkpt lat="48.30925" lon="6.38839">
        <ele>284.7998</ele>
        <time>2026-05-17T15:56:46+02:00</time>
      </trkpt>
      <trkpt lat="48.3093" lon="6.38834">
        <ele>285</ele>
        <time>2026-05-17T15:56:47+02:00</time>
      </trkpt>
      <trkpt lat="48.30936" lon="6.3883">
        <ele>285</ele>
        <time>2026-05-17T15:56:48+02:00</time>
      </trkpt>
      <trkpt lat="48.30942" lon="6.38825">
        <ele>285.1006</ele>
        <time>2026-05-17T15:56:49+02:00</time>
      </trkpt>
      <trkpt lat="48.30947" lon="6.38821">
        <ele>285.2002</ele>
        <time>2026-05-17T15:56:50+02:00</time>
      </trkpt>
      <trkpt lat="48.30951" lon="6.38816">
        <ele>285.2998</ele>
        <time>2026-05-17T15:56:51+02:00</time>
      </trkpt>
      <trkpt lat="48.30956" lon="6.38811">
        <ele>285.4004</ele>
        <time>2026-05-17T15:56:52+02:00</time>
      </trkpt>
      <trkpt lat="48.30958" lon="6.38808">
        <ele>285.5</ele>
        <time>2026-05-17T15:56:53+02:00</time>
      </trkpt>
      <trkpt lat="48.30964" lon="6.388">
        <ele>285.6006</ele>
        <time>2026-05-17T15:56:54+02:00</time>
      </trkpt>
      <trkpt lat="48.30968" lon="6.38796">
        <ele>285.6006</ele>
        <time>2026-05-17T15:56:55+02:00</time>
      </trkpt>
      <trkpt lat="48.30973" lon="6.38791">
        <ele>285.7002</ele>
        <time>2026-05-17T15:56:56+02:00</time>
      </trkpt>
      <trkpt lat="48.30978" lon="6.38789">
        <ele>285.7002</ele>
        <time>2026-05-17T15:56:57+02:00</time>
      </trkpt>
      <trkpt lat="48.30983" lon="6.38787">
        <ele>285.6006</ele>
        <time>2026-05-17T15:56:58+02:00</time>
      </trkpt>
      <trkpt lat="48.30988" lon="6.38786">
        <ele>285.6006</ele>
        <time>2026-05-17T15:56:59+02:00</time>
      </trkpt>
      <trkpt lat="48.30992" lon="6.38784">
        <ele>285.5</ele>
        <time>2026-05-17T15:57:00+02:00</time>
      </trkpt>
      <trkpt lat="48.30996" lon="6.38784">
        <ele>285.5</ele>
        <time>2026-05-17T15:57:01+02:00</time>
      </trkpt>
      <trkpt lat="48.30999" lon="6.38782">
        <ele>285.4004</ele>
        <time>2026-05-17T15:57:02+02:00</time>
      </trkpt>
      <trkpt lat="48.31001" lon="6.38781">
        <ele>285.4004</ele>
        <time>2026-05-17T15:57:03+02:00</time>
      </trkpt>
      <trkpt lat="48.31002" lon="6.38781">
        <ele>285.4004</ele>
        <time>2026-05-17T15:57:04+02:00</time>
      </trkpt>
      <trkpt lat="48.31003" lon="6.3878">
        <ele>285.2998</ele>
        <time>2026-05-17T15:57:05+02:00</time>
      </trkpt>
      <trkpt lat="48.31003" lon="6.3878">
        <ele>285.2998</ele>
        <time>2026-05-17T15:57:06+02:00</time>
      </trkpt>
      <trkpt lat="48.31003" lon="6.3878">
        <ele>285.2998</ele>
        <time>2026-05-17T15:57:07+02:00</time>
      </trkpt>
      <trkpt lat="48.31003" lon="6.3878">
        <ele>285.2998</ele>
        <time>2026-05-17T15:57:08+02:00</time>
      </trkpt>
      <trkpt lat="48.3102" lon="6.38763">
        <ele>285.2002</ele>
        <time>2026-05-17T15:57:18+02:00</time>
      </trkpt>
      <trkpt lat="48.31024" lon="6.38759">
        <ele>285.2002</ele>
        <time>2026-05-17T15:57:19+02:00</time>
      </trkpt>
      <trkpt lat="48.31029" lon="6.38755">
        <ele>285.1006</ele>
        <time>2026-05-17T15:57:20+02:00</time>
      </trkpt>
      <trkpt lat="48.31034" lon="6.38751">
        <ele>285.1006</ele>
        <time>2026-05-17T15:57:21+02:00</time>
      </trkpt>
      <trkpt lat="48.31039" lon="6.38746">
        <ele>285</ele>
        <time>2026-05-17T15:57:22+02:00</time>
      </trkpt>
      <trkpt lat="48.31044" lon="6.38742">
        <ele>285</ele>
        <time>2026-05-17T15:57:23+02:00</time>
      </trkpt>
      <trkpt lat="48.31049" lon="6.38738">
        <ele>284.9004</ele>
        <time>2026-05-17T15:57:24+02:00</time>
      </trkpt>
      <trkpt lat="48.31054" lon="6.38734">
        <ele>284.9004</ele>
        <time>2026-05-17T15:57:25+02:00</time>
      </trkpt>
      <trkpt lat="48.31059" lon="6.38729">
        <ele>284.9004</ele>
        <time>2026-05-17T15:57:26+02:00</time>
      </trkpt>
      <trkpt lat="48.31064" lon="6.38725">
        <ele>284.9004</ele>
        <time>2026-05-17T15:57:27+02:00</time>
      </trkpt>
      <trkpt lat="48.31069" lon="6.38721">
        <ele>284.7998</ele>
        <time>2026-05-17T15:57:28+02:00</time>
      </trkpt>
      <trkpt lat="48.31075" lon="6.38717">
        <ele>284.9004</ele>
        <time>2026-05-17T15:57:29+02:00</time>
      </trkpt>
      <trkpt lat="48.3108" lon="6.38713">
        <ele>284.9004</ele>
        <time>2026-05-17T15:57:30+02:00</time>
      </trkpt>
      <trkpt lat="48.31085" lon="6.38709">
        <ele>285</ele>
        <time>2026-05-17T15:57:31+02:00</time>
      </trkpt>
      <trkpt lat="48.31091" lon="6.38704">
        <ele>285</ele>
        <time>2026-05-17T15:57:32+02:00</time>
      </trkpt>
      <trkpt lat="48.31096" lon="6.38699">
        <ele>285.2002</ele>
        <time>2026-05-17T15:57:33+02:00</time>
      </trkpt>
      <trkpt lat="48.31101" lon="6.38695">
        <ele>285.2002</ele>
        <time>2026-05-17T15:57:34+02:00</time>
      </trkpt>
      <trkpt lat="48.31107" lon="6.3869">
        <ele>285.2998</ele>
        <time>2026-05-17T15:57:35+02:00</time>
      </trkpt>
      <trkpt lat="48.31113" lon="6.38685">
        <ele>285.4004</ele>
        <time>2026-05-17T15:57:36+02:00</time>
      </trkpt>
      <trkpt lat="48.31119" lon="6.3868">
        <ele>285.5</ele>
        <time>2026-05-17T15:57:37+02:00</time>
      </trkpt>
      <trkpt lat="48.31124" lon="6.38675">
        <ele>285.6006</ele>
        <time>2026-05-17T15:57:38+02:00</time>
      </trkpt>
      <trkpt lat="48.3113" lon="6.3867">
        <ele>285.7998</ele>
        <time>2026-05-17T15:57:39+02:00</time>
      </trkpt>
      <trkpt lat="48.31135" lon="6.38665">
        <ele>285.9004</ele>
        <time>2026-05-17T15:57:40+02:00</time>
      </trkpt>
      <trkpt lat="48.31141" lon="6.38661">
        <ele>286</ele>
        <time>2026-05-17T15:57:41+02:00</time>
      </trkpt>
      <trkpt lat="48.31147" lon="6.38656">
        <ele>286.1006</ele>
        <time>2026-05-17T15:57:42+02:00</time>
      </trkpt>
      <trkpt lat="48.31149" lon="6.38654">
        <ele>286.1006</ele>
        <time>2026-05-17T15:57:43+02:00</time>
      </trkpt>
      <trkpt lat="48.31157" lon="6.38647">
        <ele>286.2002</ele>
        <time>2026-05-17T15:57:44+02:00</time>
      </trkpt>
      <trkpt lat="48.31163" lon="6.38642">
        <ele>286.5</ele>
        <time>2026-05-17T15:57:45+02:00</time>
      </trkpt>
      <trkpt lat="48.31169" lon="6.38638">
        <ele>286.7002</ele>
        <time>2026-05-17T15:57:46+02:00</time>
      </trkpt>
      <trkpt lat="48.31174" lon="6.38633">
        <ele>286.7002</ele>
        <time>2026-05-17T15:57:47+02:00</time>
      </trkpt>
      <trkpt lat="48.3118" lon="6.38628">
        <ele>286.9004</ele>
        <time>2026-05-17T15:57:48+02:00</time>
      </trkpt>
      <trkpt lat="48.31185" lon="6.38624">
        <ele>287</ele>
        <time>2026-05-17T15:57:49+02:00</time>
      </trkpt>
      <trkpt lat="48.31191" lon="6.38619">
        <ele>287.1006</ele>
        <time>2026-05-17T15:57:50+02:00</time>
      </trkpt>
      <trkpt lat="48.31196" lon="6.38615">
        <ele>287.2998</ele>
        <time>2026-05-17T15:57:51+02:00</time>
      </trkpt>
      <trkpt lat="48.31202" lon="6.3861">
        <ele>287.2998</ele>
        <time>2026-05-17T15:57:52+02:00</time>
      </trkpt>
      <trkpt lat="48.31207" lon="6.38605">
        <ele>287.4004</ele>
        <time>2026-05-17T15:57:53+02:00</time>
      </trkpt>
      <trkpt lat="48.31213" lon="6.38601">
        <ele>287.5</ele>
        <time>2026-05-17T15:57:54+02:00</time>
      </trkpt>
      <trkpt lat="48.31218" lon="6.38595">
        <ele>287.5</ele>
        <time>2026-05-17T15:57:55+02:00</time>
      </trkpt>
      <trkpt lat="48.31225" lon="6.3859">
        <ele>287.6006</ele>
        <time>2026-05-17T15:57:56+02:00</time>
      </trkpt>
      <trkpt lat="48.3123" lon="6.38586">
        <ele>287.6006</ele>
        <time>2026-05-17T15:57:57+02:00</time>
      </trkpt>
      <trkpt lat="48.31236" lon="6.38581">
        <ele>287.7002</ele>
        <time>2026-05-17T15:57:58+02:00</time>
      </trkpt>
      <trkpt lat="48.31242" lon="6.38576">
        <ele>287.7002</ele>
        <time>2026-05-17T15:57:59+02:00</time>
      </trkpt>
      <trkpt lat="48.31248" lon="6.38571">
        <ele>287.6006</ele>
        <time>2026-05-17T15:58:00+02:00</time>
      </trkpt>
      <trkpt lat="48.31254" lon="6.38566">
        <ele>287.7002</ele>
        <time>2026-05-17T15:58:01+02:00</time>
      </trkpt>
      <trkpt lat="48.3126" lon="6.38561">
        <ele>287.6006</ele>
        <time>2026-05-17T15:58:02+02:00</time>
      </trkpt>
      <trkpt lat="48.31266" lon="6.38557">
        <ele>287.6006</ele>
        <time>2026-05-17T15:58:03+02:00</time>
      </trkpt>
      <trkpt lat="48.31271" lon="6.38552">
        <ele>287.5</ele>
        <time>2026-05-17T15:58:04+02:00</time>
      </trkpt>
      <trkpt lat="48.31278" lon="6.38547">
        <ele>287.4004</ele>
        <time>2026-05-17T15:58:05+02:00</time>
      </trkpt>
      <trkpt lat="48.31283" lon="6.38542">
        <ele>287.2002</ele>
        <time>2026-05-17T15:58:06+02:00</time>
      </trkpt>
      <trkpt lat="48.31289" lon="6.38537">
        <ele>287</ele>
        <time>2026-05-17T15:58:07+02:00</time>
      </trkpt>
      <trkpt lat="48.31295" lon="6.38532">
        <ele>286.9004</ele>
        <time>2026-05-17T15:58:08+02:00</time>
      </trkpt>
      <trkpt lat="48.313" lon="6.38527">
        <ele>286.7002</ele>
        <time>2026-05-17T15:58:09+02:00</time>
      </trkpt>
      <trkpt lat="48.31305" lon="6.38522">
        <ele>286.7002</ele>
        <time>2026-05-17T15:58:10+02:00</time>
      </trkpt>
      <trkpt lat="48.3131" lon="6.38518">
        <ele>286.4004</ele>
        <time>2026-05-17T15:58:11+02:00</time>
      </trkpt>
      <trkpt lat="48.31316" lon="6.38514">
        <ele>286.2998</ele>
        <time>2026-05-17T15:58:12+02:00</time>
      </trkpt>
      <trkpt lat="48.31321" lon="6.3851">
        <ele>286</ele>
        <time>2026-05-17T15:58:13+02:00</time>
      </trkpt>
      <trkpt lat="48.31326" lon="6.38505">
        <ele>285.7998</ele>
        <time>2026-05-17T15:58:14+02:00</time>
      </trkpt>
      <trkpt lat="48.31331" lon="6.38501">
        <ele>285.5</ele>
        <time>2026-05-17T15:58:15+02:00</time>
      </trkpt>
      <trkpt lat="48.31337" lon="6.38496">
        <ele>285.2998</ele>
        <time>2026-05-17T15:58:16+02:00</time>
      </trkpt>
      <trkpt lat="48.31342" lon="6.38492">
        <ele>285</ele>
        <time>2026-05-17T15:58:17+02:00</time>
      </trkpt>
      <trkpt lat="48.31347" lon="6.38487">
        <ele>284.9004</ele>
        <time>2026-05-17T15:58:18+02:00</time>
      </trkpt>
      <trkpt lat="48.31353" lon="6.38483">
        <ele>284.7002</ele>
        <time>2026-05-17T15:58:19+02:00</time>
      </trkpt>
      <trkpt lat="48.31358" lon="6.38479">
        <ele>284.6006</ele>
        <time>2026-05-17T15:58:20+02:00</time>
      </trkpt>
      <trkpt lat="48.31363" lon="6.38474">
        <ele>284.4004</ele>
        <time>2026-05-17T15:58:21+02:00</time>
      </trkpt>
      <trkpt lat="48.31369" lon="6.3847">
        <ele>284.4004</ele>
        <time>2026-05-17T15:58:22+02:00</time>
      </trkpt>
      <trkpt lat="48.31374" lon="6.38466">
        <ele>284.2998</ele>
        <time>2026-05-17T15:58:23+02:00</time>
      </trkpt>
      <trkpt lat="48.31379" lon="6.38461">
        <ele>284.2998</ele>
        <time>2026-05-17T15:58:24+02:00</time>
      </trkpt>
      <trkpt lat="48.31384" lon="6.38457">
        <ele>284.2002</ele>
        <time>2026-05-17T15:58:25+02:00</time>
      </trkpt>
      <trkpt lat="48.31389" lon="6.38453">
        <ele>284.2998</ele>
        <time>2026-05-17T15:58:26+02:00</time>
      </trkpt>
      <trkpt lat="48.31394" lon="6.38449">
        <ele>284.4004</ele>
        <time>2026-05-17T15:58:27+02:00</time>
      </trkpt>
      <trkpt lat="48.31399" lon="6.38445">
        <ele>284.4004</ele>
        <time>2026-05-17T15:58:28+02:00</time>
      </trkpt>
      <trkpt lat="48.31404" lon="6.38441">
        <ele>284.5</ele>
        <time>2026-05-17T15:58:29+02:00</time>
      </trkpt>
      <trkpt lat="48.31409" lon="6.38437">
        <ele>284.5</ele>
        <time>2026-05-17T15:58:30+02:00</time>
      </trkpt>
      <trkpt lat="48.31414" lon="6.38433">
        <ele>284.5</ele>
        <time>2026-05-17T15:58:31+02:00</time>
      </trkpt>
      <trkpt lat="48.31419" lon="6.38428">
        <ele>284.6006</ele>
        <time>2026-05-17T15:58:32+02:00</time>
      </trkpt>
      <trkpt lat="48.31424" lon="6.38424">
        <ele>284.6006</ele>
        <time>2026-05-17T15:58:33+02:00</time>
      </trkpt>
      <trkpt lat="48.31429" lon="6.38419">
        <ele>284.7002</ele>
        <time>2026-05-17T15:58:34+02:00</time>
      </trkpt>
      <trkpt lat="48.31435" lon="6.38415">
        <ele>284.7002</ele>
        <time>2026-05-17T15:58:35+02:00</time>
      </trkpt>
      <trkpt lat="48.3144" lon="6.3841">
        <ele>284.7002</ele>
        <time>2026-05-17T15:58:36+02:00</time>
      </trkpt>
      <trkpt lat="48.31445" lon="6.38406">
        <ele>284.7002</ele>
        <time>2026-05-17T15:58:37+02:00</time>
      </trkpt>
      <trkpt lat="48.3145" lon="6.38401">
        <ele>284.7002</ele>
        <time>2026-05-17T15:58:38+02:00</time>
      </trkpt>
      <trkpt lat="48.31455" lon="6.38397">
        <ele>284.7002</ele>
        <time>2026-05-17T15:58:39+02:00</time>
      </trkpt>
      <trkpt lat="48.3146" lon="6.38393">
        <ele>284.6006</ele>
        <time>2026-05-17T15:58:40+02:00</time>
      </trkpt>
      <trkpt lat="48.31465" lon="6.38388">
        <ele>284.7002</ele>
        <time>2026-05-17T15:58:41+02:00</time>
      </trkpt>
      <trkpt lat="48.31469" lon="6.38384">
        <ele>284.6006</ele>
        <time>2026-05-17T15:58:42+02:00</time>
      </trkpt>
      <trkpt lat="48.31474" lon="6.38379">
        <ele>284.5</ele>
        <time>2026-05-17T15:58:43+02:00</time>
      </trkpt>
      <trkpt lat="48.31479" lon="6.38375">
        <ele>284.4004</ele>
        <time>2026-05-17T15:58:44+02:00</time>
      </trkpt>
      <trkpt lat="48.31484" lon="6.3837">
        <ele>284.4004</ele>
        <time>2026-05-17T15:58:45+02:00</time>
      </trkpt>
      <trkpt lat="48.31488" lon="6.38365">
        <ele>284.5</ele>
        <time>2026-05-17T15:58:46+02:00</time>
      </trkpt>
      <trkpt lat="48.31493" lon="6.38361">
        <ele>284.2998</ele>
        <time>2026-05-17T15:58:47+02:00</time>
      </trkpt>
      <trkpt lat="48.31498" lon="6.38356">
        <ele>284.2998</ele>
        <time>2026-05-17T15:58:48+02:00</time>
      </trkpt>
      <trkpt lat="48.31503" lon="6.38351">
        <ele>284.2002</ele>
        <time>2026-05-17T15:58:49+02:00</time>
      </trkpt>
      <trkpt lat="48.31508" lon="6.38346">
        <ele>284.1006</ele>
        <time>2026-05-17T15:58:50+02:00</time>
      </trkpt>
      <trkpt lat="48.31512" lon="6.38342">
        <ele>284</ele>
        <time>2026-05-17T15:58:51+02:00</time>
      </trkpt>
      <trkpt lat="48.31517" lon="6.38337">
        <ele>284.1006</ele>
        <time>2026-05-17T15:58:52+02:00</time>
      </trkpt>
      <trkpt lat="48.31522" lon="6.38332">
        <ele>284.1006</ele>
        <time>2026-05-17T15:58:53+02:00</time>
      </trkpt>
      <trkpt lat="48.31527" lon="6.38327">
        <ele>284.2998</ele>
        <time>2026-05-17T15:58:54+02:00</time>
      </trkpt>
      <trkpt lat="48.31531" lon="6.38322">
        <ele>284.4004</ele>
        <time>2026-05-17T15:58:55+02:00</time>
      </trkpt>
      <trkpt lat="48.31536" lon="6.38317">
        <ele>284.2998</ele>
        <time>2026-05-17T15:58:56+02:00</time>
      </trkpt>
      <trkpt lat="48.31541" lon="6.38312">
        <ele>284.4004</ele>
        <time>2026-05-17T15:58:57+02:00</time>
      </trkpt>
      <trkpt lat="48.31546" lon="6.38307">
        <ele>284.2998</ele>
        <time>2026-05-17T15:58:58+02:00</time>
      </trkpt>
      <trkpt lat="48.31551" lon="6.38301">
        <ele>284.6006</ele>
        <time>2026-05-17T15:58:59+02:00</time>
      </trkpt>
      <trkpt lat="48.31556" lon="6.38296">
        <ele>284.7998</ele>
        <time>2026-05-17T15:59:00+02:00</time>
      </trkpt>
      <trkpt lat="48.3156" lon="6.3829">
        <ele>284.7002</ele>
        <time>2026-05-17T15:59:01+02:00</time>
      </trkpt>
      <trkpt lat="48.31565" lon="6.38285">
        <ele>284.7002</ele>
        <time>2026-05-17T15:59:02+02:00</time>
      </trkpt>
      <trkpt lat="48.31569" lon="6.38279">
        <ele>284.7002</ele>
        <time>2026-05-17T15:59:03+02:00</time>
      </trkpt>
      <trkpt lat="48.31574" lon="6.38275">
        <ele>284.6006</ele>
        <time>2026-05-17T15:59:04+02:00</time>
      </trkpt>
      <trkpt lat="48.31578" lon="6.3827">
        <ele>284.7998</ele>
        <time>2026-05-17T15:59:05+02:00</time>
      </trkpt>
      <trkpt lat="48.31582" lon="6.38266">
        <ele>284.7002</ele>
        <time>2026-05-17T15:59:06+02:00</time>
      </trkpt>
      <trkpt lat="48.31585" lon="6.38262">
        <ele>284.9004</ele>
        <time>2026-05-17T15:59:07+02:00</time>
      </trkpt>
      <trkpt lat="48.31589" lon="6.38258">
        <ele>284.7002</ele>
        <time>2026-05-17T15:59:08+02:00</time>
      </trkpt>
      <trkpt lat="48.31593" lon="6.38253">
        <ele>284.6006</ele>
        <time>2026-05-17T15:59:09+02:00</time>
      </trkpt>
      <trkpt lat="48.31597" lon="6.38248">
        <ele>284.4004</ele>
        <time>2026-05-17T15:59:10+02:00</time>
      </trkpt>
      <trkpt lat="48.31601" lon="6.38243">
        <ele>284.5</ele>
        <time>2026-05-17T15:59:11+02:00</time>
      </trkpt>
      <trkpt lat="48.31606" lon="6.38238">
        <ele>284.2998</ele>
        <time>2026-05-17T15:59:12+02:00</time>
      </trkpt>
      <trkpt lat="48.3161" lon="6.38233">
        <ele>284.2002</ele>
        <time>2026-05-17T15:59:13+02:00</time>
      </trkpt>
      <trkpt lat="48.31614" lon="6.38227">
        <ele>284.2002</ele>
        <time>2026-05-17T15:59:14+02:00</time>
      </trkpt>
      <trkpt lat="48.31619" lon="6.38222">
        <ele>284.2002</ele>
        <time>2026-05-17T15:59:15+02:00</time>
      </trkpt>
      <trkpt lat="48.31623" lon="6.38216">
        <ele>284.1006</ele>
        <time>2026-05-17T15:59:16+02:00</time>
      </trkpt>
      <trkpt lat="48.31625" lon="6.38214">
        <ele>284.1006</ele>
        <time>2026-05-17T15:59:17+02:00</time>
      </trkpt>
      <trkpt lat="48.31631" lon="6.38206">
        <ele>283.7002</ele>
        <time>2026-05-17T15:59:18+02:00</time>
      </trkpt>
      <trkpt lat="48.31635" lon="6.382">
        <ele>283.9004</ele>
        <time>2026-05-17T15:59:19+02:00</time>
      </trkpt>
      <trkpt lat="48.31639" lon="6.38195">
        <ele>283.6006</ele>
        <time>2026-05-17T15:59:20+02:00</time>
      </trkpt>
      <trkpt lat="48.31643" lon="6.38189">
        <ele>283.6006</ele>
        <time>2026-05-17T15:59:21+02:00</time>
      </trkpt>
      <trkpt lat="48.31648" lon="6.38184">
        <ele>283.7998</ele>
        <time>2026-05-17T15:59:22+02:00</time>
      </trkpt>
      <trkpt lat="48.31653" lon="6.38179">
        <ele>283.5</ele>
        <time>2026-05-17T15:59:23+02:00</time>
      </trkpt>
      <trkpt lat="48.31657" lon="6.38173">
        <ele>283.5</ele>
        <time>2026-05-17T15:59:24+02:00</time>
      </trkpt>
      <trkpt lat="48.31662" lon="6.38167">
        <ele>283.4004</ele>
        <time>2026-05-17T15:59:25+02:00</time>
      </trkpt>
      <trkpt lat="48.31666" lon="6.38161">
        <ele>283.1006</ele>
        <time>2026-05-17T15:59:26+02:00</time>
      </trkpt>
      <trkpt lat="48.31671" lon="6.38155">
        <ele>283.1006</ele>
        <time>2026-05-17T15:59:27+02:00</time>
      </trkpt>
      <trkpt lat="48.31675" lon="6.38149">
        <ele>283.4004</ele>
        <time>2026-05-17T15:59:28+02:00</time>
      </trkpt>
      <trkpt lat="48.3168" lon="6.38142">
        <ele>283.2998</ele>
        <time>2026-05-17T15:59:29+02:00</time>
      </trkpt>
      <trkpt lat="48.31685" lon="6.38136">
        <ele>283.1006</ele>
        <time>2026-05-17T15:59:30+02:00</time>
      </trkpt>
      <trkpt lat="48.31689" lon="6.38129">
        <ele>283</ele>
        <time>2026-05-17T15:59:31+02:00</time>
      </trkpt>
      <trkpt lat="48.31693" lon="6.38123">
        <ele>283.2998</ele>
        <time>2026-05-17T15:59:32+02:00</time>
      </trkpt>
      <trkpt lat="48.31698" lon="6.38116">
        <ele>283.4004</ele>
        <time>2026-05-17T15:59:33+02:00</time>
      </trkpt>
      <trkpt lat="48.31702" lon="6.3811">
        <ele>283.2002</ele>
        <time>2026-05-17T15:59:34+02:00</time>
      </trkpt>
      <trkpt lat="48.31707" lon="6.38104">
        <ele>283.2002</ele>
        <time>2026-05-17T15:59:35+02:00</time>
      </trkpt>
      <trkpt lat="48.31711" lon="6.38098">
        <ele>283.4004</ele>
        <time>2026-05-17T15:59:36+02:00</time>
      </trkpt>
      <trkpt lat="48.31716" lon="6.38091">
        <ele>283.2998</ele>
        <time>2026-05-17T15:59:37+02:00</time>
      </trkpt>
      <trkpt lat="48.3172" lon="6.38085">
        <ele>283</ele>
        <time>2026-05-17T15:59:38+02:00</time>
      </trkpt>
      <trkpt lat="48.31724" lon="6.38078">
        <ele>283.1006</ele>
        <time>2026-05-17T15:59:39+02:00</time>
      </trkpt>
      <trkpt lat="48.31728" lon="6.38072">
        <ele>283.1006</ele>
        <time>2026-05-17T15:59:40+02:00</time>
      </trkpt>
      <trkpt lat="48.31733" lon="6.38065">
        <ele>283.2998</ele>
        <time>2026-05-17T15:59:41+02:00</time>
      </trkpt>
      <trkpt lat="48.31737" lon="6.38059">
        <ele>283</ele>
        <time>2026-05-17T15:59:42+02:00</time>
      </trkpt>
      <trkpt lat="48.31741" lon="6.38052">
        <ele>283.1006</ele>
        <time>2026-05-17T15:59:43+02:00</time>
      </trkpt>
      <trkpt lat="48.31745" lon="6.38045">
        <ele>283.4004</ele>
        <time>2026-05-17T15:59:44+02:00</time>
      </trkpt>
      <trkpt lat="48.31749" lon="6.38038">
        <ele>283.6006</ele>
        <time>2026-05-17T15:59:45+02:00</time>
      </trkpt>
      <trkpt lat="48.31754" lon="6.38032">
        <ele>283.6006</ele>
        <time>2026-05-17T15:59:46+02:00</time>
      </trkpt>
      <trkpt lat="48.31758" lon="6.38025">
        <ele>283.7002</ele>
        <time>2026-05-17T15:59:47+02:00</time>
      </trkpt>
      <trkpt lat="48.31762" lon="6.38018">
        <ele>283.9004</ele>
        <time>2026-05-17T15:59:48+02:00</time>
      </trkpt>
      <trkpt lat="48.31766" lon="6.38011">
        <ele>284.1006</ele>
        <time>2026-05-17T15:59:49+02:00</time>
      </trkpt>
      <trkpt lat="48.3177" lon="6.38004">
        <ele>284.4004</ele>
        <time>2026-05-17T15:59:50+02:00</time>
      </trkpt>
      <trkpt lat="48.31774" lon="6.37997">
        <ele>284.4004</ele>
        <time>2026-05-17T15:59:51+02:00</time>
      </trkpt>
      <trkpt lat="48.31776" lon="6.37994">
        <ele>284.7002</ele>
        <time>2026-05-17T15:59:52+02:00</time>
      </trkpt>
      <trkpt lat="48.31782" lon="6.37984">
        <ele>284.9004</ele>
        <time>2026-05-17T15:59:53+02:00</time>
      </trkpt>
      <trkpt lat="48.31786" lon="6.37977">
        <ele>285.1006</ele>
        <time>2026-05-17T15:59:54+02:00</time>
      </trkpt>
      <trkpt lat="48.3179" lon="6.37971">
        <ele>285.1006</ele>
        <time>2026-05-17T15:59:55+02:00</time>
      </trkpt>
      <trkpt lat="48.31794" lon="6.37964">
        <ele>285.2002</ele>
        <time>2026-05-17T15:59:56+02:00</time>
      </trkpt>
      <trkpt lat="48.31798" lon="6.37957">
        <ele>285.2002</ele>
        <time>2026-05-17T15:59:57+02:00</time>
      </trkpt>
      <trkpt lat="48.31802" lon="6.3795">
        <ele>285.1006</ele>
        <time>2026-05-17T15:59:58+02:00</time>
      </trkpt>
      <trkpt lat="48.31806" lon="6.37943">
        <ele>285</ele>
        <time>2026-05-17T15:59:59+02:00</time>
      </trkpt>
      <trkpt lat="48.3181" lon="6.37936">
        <ele>284.7998</ele>
        <time>2026-05-17T16:00:00+02:00</time>
      </trkpt>
      <trkpt lat="48.31813" lon="6.37929">
        <ele>284.7998</ele>
        <time>2026-05-17T16:00:01+02:00</time>
      </trkpt>
      <trkpt lat="48.31817" lon="6.37923">
        <ele>284.5</ele>
        <time>2026-05-17T16:00:02+02:00</time>
      </trkpt>
      <trkpt lat="48.3182" lon="6.37916">
        <ele>284.2998</ele>
        <time>2026-05-17T16:00:03+02:00</time>
      </trkpt>
      <trkpt lat="48.31824" lon="6.37911">
        <ele>284.2998</ele>
        <time>2026-05-17T16:00:04+02:00</time>
      </trkpt>
      <trkpt lat="48.31828" lon="6.37905">
        <ele>284.2002</ele>
        <time>2026-05-17T16:00:05+02:00</time>
      </trkpt>
      <trkpt lat="48.31831" lon="6.37899">
        <ele>284.2998</ele>
        <time>2026-05-17T16:00:06+02:00</time>
      </trkpt>
      <trkpt lat="48.31834" lon="6.37893">
        <ele>284.1006</ele>
        <time>2026-05-17T16:00:07+02:00</time>
      </trkpt>
      <trkpt lat="48.31838" lon="6.37886">
        <ele>284.2002</ele>
        <time>2026-05-17T16:00:08+02:00</time>
      </trkpt>
      <trkpt lat="48.31841" lon="6.37879">
        <ele>284</ele>
        <time>2026-05-17T16:00:09+02:00</time>
      </trkpt>
      <trkpt lat="48.31844" lon="6.37873">
        <ele>283.9004</ele>
        <time>2026-05-17T16:00:10+02:00</time>
      </trkpt>
      <trkpt lat="48.31848" lon="6.37865">
        <ele>283.7998</ele>
        <time>2026-05-17T16:00:11+02:00</time>
      </trkpt>
      <trkpt lat="48.31852" lon="6.37858">
        <ele>283.7002</ele>
        <time>2026-05-17T16:00:12+02:00</time>
      </trkpt>
      <trkpt lat="48.31855" lon="6.37851">
        <ele>283.7002</ele>
        <time>2026-05-17T16:00:13+02:00</time>
      </trkpt>
      <trkpt lat="48.31859" lon="6.37844">
        <ele>283.6006</ele>
        <time>2026-05-17T16:00:14+02:00</time>
      </trkpt>
      <trkpt lat="48.31863" lon="6.37837">
        <ele>283.4004</ele>
        <time>2026-05-17T16:00:15+02:00</time>
      </trkpt>
      <trkpt lat="48.31866" lon="6.37829">
        <ele>283.2998</ele>
        <time>2026-05-17T16:00:16+02:00</time>
      </trkpt>
      <trkpt lat="48.3187" lon="6.37822">
        <ele>283.2998</ele>
        <time>2026-05-17T16:00:17+02:00</time>
      </trkpt>
      <trkpt lat="48.31874" lon="6.37814">
        <ele>283.2998</ele>
        <time>2026-05-17T16:00:18+02:00</time>
      </trkpt>
      <trkpt lat="48.31878" lon="6.37807">
        <ele>283.1006</ele>
        <time>2026-05-17T16:00:19+02:00</time>
      </trkpt>
      <trkpt lat="48.31881" lon="6.37799">
        <ele>283.1006</ele>
        <time>2026-05-17T16:00:20+02:00</time>
      </trkpt>
      <trkpt lat="48.31885" lon="6.37791">
        <ele>282.9004</ele>
        <time>2026-05-17T16:00:21+02:00</time>
      </trkpt>
      <trkpt lat="48.31889" lon="6.37783">
        <ele>282.7002</ele>
        <time>2026-05-17T16:00:22+02:00</time>
      </trkpt>
      <trkpt lat="48.31893" lon="6.37776">
        <ele>282.7002</ele>
        <time>2026-05-17T16:00:23+02:00</time>
      </trkpt>
      <trkpt lat="48.31897" lon="6.37768">
        <ele>282.4004</ele>
        <time>2026-05-17T16:00:24+02:00</time>
      </trkpt>
      <trkpt lat="48.31901" lon="6.3776">
        <ele>282.2002</ele>
        <time>2026-05-17T16:00:25+02:00</time>
      </trkpt>
      <trkpt lat="48.31905" lon="6.37752">
        <ele>282.1006</ele>
        <time>2026-05-17T16:00:26+02:00</time>
      </trkpt>
      <trkpt lat="48.31907" lon="6.37749">
        <ele>282.1006</ele>
        <time>2026-05-17T16:00:27+02:00</time>
      </trkpt>
      <trkpt lat="48.31912" lon="6.37738">
        <ele>281.9004</ele>
        <time>2026-05-17T16:00:28+02:00</time>
      </trkpt>
      <trkpt lat="48.31915" lon="6.3773">
        <ele>281.9004</ele>
        <time>2026-05-17T16:00:29+02:00</time>
      </trkpt>
      <trkpt lat="48.31917" lon="6.37722">
        <ele>281.7002</ele>
        <time>2026-05-17T16:00:30+02:00</time>
      </trkpt>
      <trkpt lat="48.31918" lon="6.37716">
        <ele>281.7998</ele>
        <time>2026-05-17T16:00:31+02:00</time>
      </trkpt>
      <trkpt lat="48.31918" lon="6.37711">
        <ele>281.7998</ele>
        <time>2026-05-17T16:00:32+02:00</time>
      </trkpt>
      <trkpt lat="48.31919" lon="6.37706">
        <ele>281.7998</ele>
        <time>2026-05-17T16:00:33+02:00</time>
      </trkpt>
      <trkpt lat="48.31921" lon="6.37702">
        <ele>281.9004</ele>
        <time>2026-05-17T16:00:34+02:00</time>
      </trkpt>
      <trkpt lat="48.31923" lon="6.37698">
        <ele>281.7998</ele>
        <time>2026-05-17T16:00:35+02:00</time>
      </trkpt>
      <trkpt lat="48.31925" lon="6.37695">
        <ele>281.7998</ele>
        <time>2026-05-17T16:00:36+02:00</time>
      </trkpt>
      <trkpt lat="48.31927" lon="6.3769">
        <ele>281.7998</ele>
        <time>2026-05-17T16:00:37+02:00</time>
      </trkpt>
      <trkpt lat="48.31929" lon="6.37686">
        <ele>281.7002</ele>
        <time>2026-05-17T16:00:38+02:00</time>
      </trkpt>
      <trkpt lat="48.31931" lon="6.37682">
        <ele>281.7002</ele>
        <time>2026-05-17T16:00:39+02:00</time>
      </trkpt>
      <trkpt lat="48.31933" lon="6.37678">
        <ele>281.6006</ele>
        <time>2026-05-17T16:00:40+02:00</time>
      </trkpt>
      <trkpt lat="48.31935" lon="6.37674">
        <ele>281.5</ele>
        <time>2026-05-17T16:00:41+02:00</time>
      </trkpt>
      <trkpt lat="48.31937" lon="6.3767">
        <ele>281.5</ele>
        <time>2026-05-17T16:00:42+02:00</time>
      </trkpt>
      <trkpt lat="48.31939" lon="6.37666">
        <ele>281.5</ele>
        <time>2026-05-17T16:00:43+02:00</time>
      </trkpt>
      <trkpt lat="48.31942" lon="6.37662">
        <ele>281.4004</ele>
        <time>2026-05-17T16:00:44+02:00</time>
      </trkpt>
      <trkpt lat="48.31944" lon="6.37658">
        <ele>281.2998</ele>
        <time>2026-05-17T16:00:45+02:00</time>
      </trkpt>
      <trkpt lat="48.31947" lon="6.37653">
        <ele>281.2002</ele>
        <time>2026-05-17T16:00:46+02:00</time>
      </trkpt>
      <trkpt lat="48.3195" lon="6.37648">
        <ele>281.2002</ele>
        <time>2026-05-17T16:00:47+02:00</time>
      </trkpt>
      <trkpt lat="48.31954" lon="6.37642">
        <ele>281</ele>
        <time>2026-05-17T16:00:48+02:00</time>
      </trkpt>
      <trkpt lat="48.31957" lon="6.37637">
        <ele>280.9004</ele>
        <time>2026-05-17T16:00:49+02:00</time>
      </trkpt>
      <trkpt lat="48.31961" lon="6.37632">
        <ele>280.7998</ele>
        <time>2026-05-17T16:00:50+02:00</time>
      </trkpt>
      <trkpt lat="48.31965" lon="6.37627">
        <ele>280.6006</ele>
        <time>2026-05-17T16:00:51+02:00</time>
      </trkpt>
      <trkpt lat="48.31968" lon="6.37622">
        <ele>280.6006</ele>
        <time>2026-05-17T16:00:52+02:00</time>
      </trkpt>
      <trkpt lat="48.31972" lon="6.37617">
        <ele>280.6006</ele>
        <time>2026-05-17T16:00:53+02:00</time>
      </trkpt>
      <trkpt lat="48.31976" lon="6.3761">
        <ele>280.6006</ele>
        <time>2026-05-17T16:00:54+02:00</time>
      </trkpt>
      <trkpt lat="48.31979" lon="6.37602">
        <ele>280.6006</ele>
        <time>2026-05-17T16:00:55+02:00</time>
      </trkpt>
      <trkpt lat="48.31983" lon="6.37594">
        <ele>280.7002</ele>
        <time>2026-05-17T16:00:56+02:00</time>
      </trkpt>
      <trkpt lat="48.31987" lon="6.37585">
        <ele>280.7002</ele>
        <time>2026-05-17T16:00:57+02:00</time>
      </trkpt>
      <trkpt lat="48.31991" lon="6.37576">
        <ele>280.7002</ele>
        <time>2026-05-17T16:00:58+02:00</time>
      </trkpt>
      <trkpt lat="48.31995" lon="6.37567">
        <ele>280.7002</ele>
        <time>2026-05-17T16:00:59+02:00</time>
      </trkpt>
      <trkpt lat="48.31999" lon="6.37558">
        <ele>280.7002</ele>
        <time>2026-05-17T16:01:00+02:00</time>
      </trkpt>
      <trkpt lat="48.32003" lon="6.3755">
        <ele>280.6006</ele>
        <time>2026-05-17T16:01:01+02:00</time>
      </trkpt>
      <trkpt lat="48.32007" lon="6.37541">
        <ele>280.7002</ele>
        <time>2026-05-17T16:01:02+02:00</time>
      </trkpt>
      <trkpt lat="48.3201" lon="6.37536">
        <ele>280.7998</ele>
        <time>2026-05-17T16:01:03+02:00</time>
      </trkpt>
      <trkpt lat="48.32016" lon="6.37523">
        <ele>280.9004</ele>
        <time>2026-05-17T16:01:04+02:00</time>
      </trkpt>
      <trkpt lat="48.3202" lon="6.37515">
        <ele>280.9004</ele>
        <time>2026-05-17T16:01:05+02:00</time>
      </trkpt>
      <trkpt lat="48.32024" lon="6.37506">
        <ele>280.7998</ele>
        <time>2026-05-17T16:01:06+02:00</time>
      </trkpt>
      <trkpt lat="48.32028" lon="6.37497">
        <ele>280.7998</ele>
        <time>2026-05-17T16:01:07+02:00</time>
      </trkpt>
      <trkpt lat="48.32031" lon="6.37489">
        <ele>280.9004</ele>
        <time>2026-05-17T16:01:08+02:00</time>
      </trkpt>
      <trkpt lat="48.32035" lon="6.37481">
        <ele>280.7998</ele>
        <time>2026-05-17T16:01:09+02:00</time>
      </trkpt>
      <trkpt lat="48.32037" lon="6.37476">
        <ele>280.9004</ele>
        <time>2026-05-17T16:01:10+02:00</time>
      </trkpt>
      <trkpt lat="48.32042" lon="6.37464">
        <ele>280.7002</ele>
        <time>2026-05-17T16:01:11+02:00</time>
      </trkpt>
      <trkpt lat="48.32045" lon="6.37455">
        <ele>280.7002</ele>
        <time>2026-05-17T16:01:12+02:00</time>
      </trkpt>
      <trkpt lat="48.32049" lon="6.37446">
        <ele>280.7002</ele>
        <time>2026-05-17T16:01:13+02:00</time>
      </trkpt>
      <trkpt lat="48.32052" lon="6.37437">
        <ele>280.6006</ele>
        <time>2026-05-17T16:01:14+02:00</time>
      </trkpt>
      <trkpt lat="48.32066" lon="6.37403">
        <ele>280.6006</ele>
        <time>2026-05-17T16:01:15+02:00</time>
      </trkpt>
      <trkpt lat="48.32069" lon="6.37394">
        <ele>280.6006</ele>
        <time>2026-05-17T16:01:16+02:00</time>
      </trkpt>
      <trkpt lat="48.32072" lon="6.37386">
        <ele>280.6006</ele>
        <time>2026-05-17T16:01:17+02:00</time>
      </trkpt>
      <trkpt lat="48.32075" lon="6.37377">
        <ele>280.6006</ele>
        <time>2026-05-17T16:01:18+02:00</time>
      </trkpt>
      <trkpt lat="48.32078" lon="6.37368">
        <ele>280.5</ele>
        <time>2026-05-17T16:01:19+02:00</time>
      </trkpt>
      <trkpt lat="48.32082" lon="6.3736">
        <ele>280.6006</ele>
        <time>2026-05-17T16:01:20+02:00</time>
      </trkpt>
      <trkpt lat="48.32085" lon="6.37351">
        <ele>280.6006</ele>
        <time>2026-05-17T16:01:21+02:00</time>
      </trkpt>
      <trkpt lat="48.32088" lon="6.37342">
        <ele>280.6006</ele>
        <time>2026-05-17T16:01:22+02:00</time>
      </trkpt>
      <trkpt lat="48.3209" lon="6.37338">
        <ele>280.6006</ele>
        <time>2026-05-17T16:01:23+02:00</time>
      </trkpt>
      <trkpt lat="48.32094" lon="6.37325">
        <ele>280.6006</ele>
        <time>2026-05-17T16:01:24+02:00</time>
      </trkpt>
      <trkpt lat="48.32097" lon="6.37316">
        <ele>280.6006</ele>
        <time>2026-05-17T16:01:25+02:00</time>
      </trkpt>
      <trkpt lat="48.321" lon="6.37307">
        <ele>280.7002</ele>
        <time>2026-05-17T16:01:26+02:00</time>
      </trkpt>
      <trkpt lat="48.32103" lon="6.37298">
        <ele>280.6006</ele>
        <time>2026-05-17T16:01:27+02:00</time>
      </trkpt>
      <trkpt lat="48.32107" lon="6.3729">
        <ele>280.7002</ele>
        <time>2026-05-17T16:01:28+02:00</time>
      </trkpt>
      <trkpt lat="48.3211" lon="6.37281">
        <ele>280.6006</ele>
        <time>2026-05-17T16:01:29+02:00</time>
      </trkpt>
      <trkpt lat="48.32113" lon="6.37273">
        <ele>280.7002</ele>
        <time>2026-05-17T16:01:30+02:00</time>
      </trkpt>
      <trkpt lat="48.32116" lon="6.37265">
        <ele>280.7002</ele>
        <time>2026-05-17T16:01:31+02:00</time>
      </trkpt>
      <trkpt lat="48.32119" lon="6.37257">
        <ele>280.9004</ele>
        <time>2026-05-17T16:01:32+02:00</time>
      </trkpt>
      <trkpt lat="48.32121" lon="6.37249">
        <ele>280.9004</ele>
        <time>2026-05-17T16:01:33+02:00</time>
      </trkpt>
      <trkpt lat="48.32124" lon="6.3724">
        <ele>281.2002</ele>
        <time>2026-05-17T16:01:34+02:00</time>
      </trkpt>
      <trkpt lat="48.32127" lon="6.37232">
        <ele>281.2002</ele>
        <time>2026-05-17T16:01:35+02:00</time>
      </trkpt>
      <trkpt lat="48.3213" lon="6.37223">
        <ele>281</ele>
        <time>2026-05-17T16:01:36+02:00</time>
      </trkpt>
      <trkpt lat="48.32133" lon="6.37215">
        <ele>280.7998</ele>
        <time>2026-05-17T16:01:37+02:00</time>
      </trkpt>
      <trkpt lat="48.32136" lon="6.37206">
        <ele>280.6006</ele>
        <time>2026-05-17T16:01:38+02:00</time>
      </trkpt>
      <trkpt lat="48.32139" lon="6.37198">
        <ele>280.4004</ele>
        <time>2026-05-17T16:01:39+02:00</time>
      </trkpt>
      <trkpt lat="48.32142" lon="6.37189">
        <ele>280.6006</ele>
        <time>2026-05-17T16:01:40+02:00</time>
      </trkpt>
      <trkpt lat="48.32145" lon="6.37181">
        <ele>280.7002</ele>
        <time>2026-05-17T16:01:41+02:00</time>
      </trkpt>
      <trkpt lat="48.32148" lon="6.37172">
        <ele>280.6006</ele>
        <time>2026-05-17T16:01:42+02:00</time>
      </trkpt>
      <trkpt lat="48.32151" lon="6.37165">
        <ele>280.7002</ele>
        <time>2026-05-17T16:01:43+02:00</time>
      </trkpt>
      <trkpt lat="48.32153" lon="6.37157">
        <ele>280.6006</ele>
        <time>2026-05-17T16:01:44+02:00</time>
      </trkpt>
      <trkpt lat="48.32156" lon="6.3715">
        <ele>280.5</ele>
        <time>2026-05-17T16:01:45+02:00</time>
      </trkpt>
      <trkpt lat="48.32159" lon="6.37142">
        <ele>280.7002</ele>
        <time>2026-05-17T16:01:46+02:00</time>
      </trkpt>
      <trkpt lat="48.32162" lon="6.37134">
        <ele>280.9004</ele>
        <time>2026-05-17T16:01:47+02:00</time>
      </trkpt>
      <trkpt lat="48.32165" lon="6.37126">
        <ele>280.9004</ele>
        <time>2026-05-17T16:01:48+02:00</time>
      </trkpt>
      <trkpt lat="48.32168" lon="6.37118">
        <ele>280.7998</ele>
        <time>2026-05-17T16:01:49+02:00</time>
      </trkpt>
      <trkpt lat="48.3217" lon="6.3711">
        <ele>280.6006</ele>
        <time>2026-05-17T16:01:50+02:00</time>
      </trkpt>
      <trkpt lat="48.32173" lon="6.37101">
        <ele>280.5</ele>
        <time>2026-05-17T16:01:51+02:00</time>
      </trkpt>
      <trkpt lat="48.32177" lon="6.37093">
        <ele>280.4004</ele>
        <time>2026-05-17T16:01:52+02:00</time>
      </trkpt>
      <trkpt lat="48.3218" lon="6.37085">
        <ele>280.4004</ele>
        <time>2026-05-17T16:01:53+02:00</time>
      </trkpt>
      <trkpt lat="48.32183" lon="6.37076">
        <ele>280.4004</ele>
        <time>2026-05-17T16:01:54+02:00</time>
      </trkpt>
      <trkpt lat="48.32186" lon="6.37068">
        <ele>280.6006</ele>
        <time>2026-05-17T16:01:55+02:00</time>
      </trkpt>
      <trkpt lat="48.32189" lon="6.37059">
        <ele>280.6006</ele>
        <time>2026-05-17T16:01:56+02:00</time>
      </trkpt>
      <trkpt lat="48.32191" lon="6.37051">
        <ele>280.5</ele>
        <time>2026-05-17T16:01:57+02:00</time>
      </trkpt>
      <trkpt lat="48.32194" lon="6.37043">
        <ele>280.5</ele>
        <time>2026-05-17T16:01:58+02:00</time>
      </trkpt>
      <trkpt lat="48.32197" lon="6.37034">
        <ele>280.5</ele>
        <time>2026-05-17T16:01:59+02:00</time>
      </trkpt>
      <trkpt lat="48.32198" lon="6.3703">
        <ele>280.5</ele>
        <time>2026-05-17T16:02:00+02:00</time>
      </trkpt>
      <trkpt lat="48.32203" lon="6.37018">
        <ele>280.5</ele>
        <time>2026-05-17T16:02:01+02:00</time>
      </trkpt>
      <trkpt lat="48.32205" lon="6.37008">
        <ele>280.5</ele>
        <time>2026-05-17T16:02:02+02:00</time>
      </trkpt>
      <trkpt lat="48.32208" lon="6.37">
        <ele>280.5</ele>
        <time>2026-05-17T16:02:03+02:00</time>
      </trkpt>
      <trkpt lat="48.32211" lon="6.36991">
        <ele>280.6006</ele>
        <time>2026-05-17T16:02:04+02:00</time>
      </trkpt>
      <trkpt lat="48.32214" lon="6.36983">
        <ele>280.5</ele>
        <time>2026-05-17T16:02:05+02:00</time>
      </trkpt>
      <trkpt lat="48.32217" lon="6.36975">
        <ele>280.5</ele>
        <time>2026-05-17T16:02:06+02:00</time>
      </trkpt>
      <trkpt lat="48.3222" lon="6.36967">
        <ele>280.6006</ele>
        <time>2026-05-17T16:02:07+02:00</time>
      </trkpt>
      <trkpt lat="48.32223" lon="6.3696">
        <ele>280.7002</ele>
        <time>2026-05-17T16:02:08+02:00</time>
      </trkpt>
      <trkpt lat="48.32226" lon="6.36952">
        <ele>280.7998</ele>
        <time>2026-05-17T16:02:09+02:00</time>
      </trkpt>
      <trkpt lat="48.32228" lon="6.36944">
        <ele>280.7998</ele>
        <time>2026-05-17T16:02:10+02:00</time>
      </trkpt>
      <trkpt lat="48.32231" lon="6.36937">
        <ele>280.7002</ele>
        <time>2026-05-17T16:02:11+02:00</time>
      </trkpt>
      <trkpt lat="48.32234" lon="6.36929">
        <ele>280.6006</ele>
        <time>2026-05-17T16:02:12+02:00</time>
      </trkpt>
      <trkpt lat="48.32236" lon="6.36922">
        <ele>280.6006</ele>
        <time>2026-05-17T16:02:13+02:00</time>
      </trkpt>
      <trkpt lat="48.32239" lon="6.36915">
        <ele>280.5</ele>
        <time>2026-05-17T16:02:14+02:00</time>
      </trkpt>
      <trkpt lat="48.32242" lon="6.36907">
        <ele>280.7002</ele>
        <time>2026-05-17T16:02:15+02:00</time>
      </trkpt>
      <trkpt lat="48.32244" lon="6.369">
        <ele>280.7002</ele>
        <time>2026-05-17T16:02:16+02:00</time>
      </trkpt>
      <trkpt lat="48.32245" lon="6.36896">
        <ele>280.7002</ele>
        <time>2026-05-17T16:02:17+02:00</time>
      </trkpt>
      <trkpt lat="48.32249" lon="6.36885">
        <ele>280.7998</ele>
        <time>2026-05-17T16:02:18+02:00</time>
      </trkpt>
      <trkpt lat="48.32252" lon="6.36878">
        <ele>280.7998</ele>
        <time>2026-05-17T16:02:19+02:00</time>
      </trkpt>
      <trkpt lat="48.32254" lon="6.3687">
        <ele>280.7002</ele>
        <time>2026-05-17T16:02:20+02:00</time>
      </trkpt>
      <trkpt lat="48.32257" lon="6.36863">
        <ele>280.6006</ele>
        <time>2026-05-17T16:02:21+02:00</time>
      </trkpt>
      <trkpt lat="48.32259" lon="6.36856">
        <ele>280.6006</ele>
        <time>2026-05-17T16:02:22+02:00</time>
      </trkpt>
      <trkpt lat="48.32261" lon="6.36848">
        <ele>280.5</ele>
        <time>2026-05-17T16:02:23+02:00</time>
      </trkpt>
      <trkpt lat="48.32264" lon="6.3684">
        <ele>280.4004</ele>
        <time>2026-05-17T16:02:24+02:00</time>
      </trkpt>
      <trkpt lat="48.32267" lon="6.36832">
        <ele>280.5</ele>
        <time>2026-05-17T16:02:25+02:00</time>
      </trkpt>
      <trkpt lat="48.32269" lon="6.36825">
        <ele>280.5</ele>
        <time>2026-05-17T16:02:26+02:00</time>
      </trkpt>
      <trkpt lat="48.32272" lon="6.36817">
        <ele>280.5</ele>
        <time>2026-05-17T16:02:27+02:00</time>
      </trkpt>
      <trkpt lat="48.32275" lon="6.3681">
        <ele>280.5</ele>
        <time>2026-05-17T16:02:28+02:00</time>
      </trkpt>
      <trkpt lat="48.32278" lon="6.36802">
        <ele>280.4004</ele>
        <time>2026-05-17T16:02:29+02:00</time>
      </trkpt>
      <trkpt lat="48.32281" lon="6.36794">
        <ele>280.4004</ele>
        <time>2026-05-17T16:02:30+02:00</time>
      </trkpt>
      <trkpt lat="48.32284" lon="6.36786">
        <ele>280.5</ele>
        <time>2026-05-17T16:02:31+02:00</time>
      </trkpt>
      <trkpt lat="48.32287" lon="6.36778">
        <ele>280.5</ele>
        <time>2026-05-17T16:02:32+02:00</time>
      </trkpt>
      <trkpt lat="48.32289" lon="6.3677">
        <ele>280.6006</ele>
        <time>2026-05-17T16:02:33+02:00</time>
      </trkpt>
      <trkpt lat="48.32292" lon="6.36762">
        <ele>280.6006</ele>
        <time>2026-05-17T16:02:34+02:00</time>
      </trkpt>
      <trkpt lat="48.32295" lon="6.36754">
        <ele>280.5</ele>
        <time>2026-05-17T16:02:35+02:00</time>
      </trkpt>
      <trkpt lat="48.32297" lon="6.36746">
        <ele>280.4004</ele>
        <time>2026-05-17T16:02:36+02:00</time>
      </trkpt>
      <trkpt lat="48.323" lon="6.36738">
        <ele>280.2998</ele>
        <time>2026-05-17T16:02:37+02:00</time>
      </trkpt>
      <trkpt lat="48.32303" lon="6.3673">
        <ele>280.2998</ele>
        <time>2026-05-17T16:02:38+02:00</time>
      </trkpt>
      <trkpt lat="48.32306" lon="6.36722">
        <ele>280.6006</ele>
        <time>2026-05-17T16:02:39+02:00</time>
      </trkpt>
      <trkpt lat="48.32309" lon="6.36714">
        <ele>280.7002</ele>
        <time>2026-05-17T16:02:40+02:00</time>
      </trkpt>
      <trkpt lat="48.32312" lon="6.36705">
        <ele>280.7002</ele>
        <time>2026-05-17T16:02:41+02:00</time>
      </trkpt>
      <trkpt lat="48.32315" lon="6.36697">
        <ele>280.6006</ele>
        <time>2026-05-17T16:02:42+02:00</time>
      </trkpt>
      <trkpt lat="48.32317" lon="6.3669">
        <ele>280.5</ele>
        <time>2026-05-17T16:02:43+02:00</time>
      </trkpt>
      <trkpt lat="48.3232" lon="6.36681">
        <ele>280.4004</ele>
        <time>2026-05-17T16:02:44+02:00</time>
      </trkpt>
      <trkpt lat="48.32323" lon="6.36673">
        <ele>280.4004</ele>
        <time>2026-05-17T16:02:45+02:00</time>
      </trkpt>
      <trkpt lat="48.32326" lon="6.36665">
        <ele>280.2998</ele>
        <time>2026-05-17T16:02:46+02:00</time>
      </trkpt>
      <trkpt lat="48.32329" lon="6.36657">
        <ele>280.5</ele>
        <time>2026-05-17T16:02:47+02:00</time>
      </trkpt>
      <trkpt lat="48.32332" lon="6.36649">
        <ele>280.5</ele>
        <time>2026-05-17T16:02:48+02:00</time>
      </trkpt>
      <trkpt lat="48.32334" lon="6.36641">
        <ele>280.5</ele>
        <time>2026-05-17T16:02:49+02:00</time>
      </trkpt>
      <trkpt lat="48.32337" lon="6.36633">
        <ele>280.5</ele>
        <time>2026-05-17T16:02:50+02:00</time>
      </trkpt>
      <trkpt lat="48.3234" lon="6.36625">
        <ele>280.4004</ele>
        <time>2026-05-17T16:02:51+02:00</time>
      </trkpt>
      <trkpt lat="48.32343" lon="6.36617">
        <ele>280.4004</ele>
        <time>2026-05-17T16:02:52+02:00</time>
      </trkpt>
      <trkpt lat="48.32346" lon="6.36609">
        <ele>280.2998</ele>
        <time>2026-05-17T16:02:53+02:00</time>
      </trkpt>
      <trkpt lat="48.32349" lon="6.36601">
        <ele>280.2998</ele>
        <time>2026-05-17T16:02:54+02:00</time>
      </trkpt>
      <trkpt lat="48.32352" lon="6.36593">
        <ele>280.4004</ele>
        <time>2026-05-17T16:02:55+02:00</time>
      </trkpt>
      <trkpt lat="48.32354" lon="6.36586">
        <ele>280.5</ele>
        <time>2026-05-17T16:02:56+02:00</time>
      </trkpt>
      <trkpt lat="48.32358" lon="6.36578">
        <ele>280.2998</ele>
        <time>2026-05-17T16:02:57+02:00</time>
      </trkpt>
      <trkpt lat="48.3236" lon="6.36571">
        <ele>280.2998</ele>
        <time>2026-05-17T16:02:58+02:00</time>
      </trkpt>
      <trkpt lat="48.32363" lon="6.36563">
        <ele>280.2002</ele>
        <time>2026-05-17T16:02:59+02:00</time>
      </trkpt>
      <trkpt lat="48.32366" lon="6.36556">
        <ele>280.2002</ele>
        <time>2026-05-17T16:03:00+02:00</time>
      </trkpt>
      <trkpt lat="48.32369" lon="6.36549">
        <ele>280</ele>
        <time>2026-05-17T16:03:01+02:00</time>
      </trkpt>
      <trkpt lat="48.32371" lon="6.36542">
        <ele>280.1006</ele>
        <time>2026-05-17T16:03:02+02:00</time>
      </trkpt>
      <trkpt lat="48.32374" lon="6.36534">
        <ele>280</ele>
        <time>2026-05-17T16:03:03+02:00</time>
      </trkpt>
      <trkpt lat="48.32377" lon="6.36527">
        <ele>280.1006</ele>
        <time>2026-05-17T16:03:04+02:00</time>
      </trkpt>
      <trkpt lat="48.3238" lon="6.36519">
        <ele>279.7998</ele>
        <time>2026-05-17T16:03:05+02:00</time>
      </trkpt>
      <trkpt lat="48.32383" lon="6.36512">
        <ele>279.7998</ele>
        <time>2026-05-17T16:03:06+02:00</time>
      </trkpt>
      <trkpt lat="48.32386" lon="6.36504">
        <ele>279.6006</ele>
        <time>2026-05-17T16:03:07+02:00</time>
      </trkpt>
      <trkpt lat="48.32389" lon="6.36497">
        <ele>279.7002</ele>
        <time>2026-05-17T16:03:08+02:00</time>
      </trkpt>
      <trkpt lat="48.32392" lon="6.3649">
        <ele>279.5</ele>
        <time>2026-05-17T16:03:09+02:00</time>
      </trkpt>
      <trkpt lat="48.32395" lon="6.36482">
        <ele>279.7002</ele>
        <time>2026-05-17T16:03:10+02:00</time>
      </trkpt>
      <trkpt lat="48.32398" lon="6.36475">
        <ele>279.6006</ele>
        <time>2026-05-17T16:03:11+02:00</time>
      </trkpt>
      <trkpt lat="48.32401" lon="6.36468">
        <ele>279.7998</ele>
        <time>2026-05-17T16:03:12+02:00</time>
      </trkpt>
      <trkpt lat="48.32404" lon="6.36461">
        <ele>279.5</ele>
        <time>2026-05-17T16:03:13+02:00</time>
      </trkpt>
      <trkpt lat="48.32407" lon="6.36454">
        <ele>279.7002</ele>
        <time>2026-05-17T16:03:14+02:00</time>
      </trkpt>
      <trkpt lat="48.32409" lon="6.36447">
        <ele>279.6006</ele>
        <time>2026-05-17T16:03:15+02:00</time>
      </trkpt>
      <trkpt lat="48.32412" lon="6.36439">
        <ele>279.7002</ele>
        <time>2026-05-17T16:03:16+02:00</time>
      </trkpt>
      <trkpt lat="48.32416" lon="6.36432">
        <ele>279.7002</ele>
        <time>2026-05-17T16:03:17+02:00</time>
      </trkpt>
      <trkpt lat="48.32419" lon="6.36425">
        <ele>279.7998</ele>
        <time>2026-05-17T16:03:18+02:00</time>
      </trkpt>
      <trkpt lat="48.32422" lon="6.36418">
        <ele>279.7998</ele>
        <time>2026-05-17T16:03:19+02:00</time>
      </trkpt>
      <trkpt lat="48.32425" lon="6.3641">
        <ele>279.7002</ele>
        <time>2026-05-17T16:03:20+02:00</time>
      </trkpt>
      <trkpt lat="48.32428" lon="6.36403">
        <ele>279.9004</ele>
        <time>2026-05-17T16:03:21+02:00</time>
      </trkpt>
      <trkpt lat="48.32431" lon="6.36396">
        <ele>279.9004</ele>
        <time>2026-05-17T16:03:22+02:00</time>
      </trkpt>
      <trkpt lat="48.32435" lon="6.36389">
        <ele>280.1006</ele>
        <time>2026-05-17T16:03:23+02:00</time>
      </trkpt>
      <trkpt lat="48.32438" lon="6.36381">
        <ele>280.2002</ele>
        <time>2026-05-17T16:03:24+02:00</time>
      </trkpt>
      <trkpt lat="48.32441" lon="6.36374">
        <ele>280.4004</ele>
        <time>2026-05-17T16:03:25+02:00</time>
      </trkpt>
      <trkpt lat="48.32445" lon="6.36367">
        <ele>280.2998</ele>
        <time>2026-05-17T16:03:26+02:00</time>
      </trkpt>
      <trkpt lat="48.32448" lon="6.3636">
        <ele>280.4004</ele>
        <time>2026-05-17T16:03:27+02:00</time>
      </trkpt>
      <trkpt lat="48.32451" lon="6.36353">
        <ele>280.6006</ele>
        <time>2026-05-17T16:03:28+02:00</time>
      </trkpt>
      <trkpt lat="48.32455" lon="6.36346">
        <ele>280.7998</ele>
        <time>2026-05-17T16:03:29+02:00</time>
      </trkpt>
      <trkpt lat="48.32458" lon="6.36339">
        <ele>281</ele>
        <time>2026-05-17T16:03:30+02:00</time>
      </trkpt>
      <trkpt lat="48.32462" lon="6.36332">
        <ele>280.9004</ele>
        <time>2026-05-17T16:03:31+02:00</time>
      </trkpt>
      <trkpt lat="48.32464" lon="6.36329">
        <ele>281</ele>
        <time>2026-05-17T16:03:32+02:00</time>
      </trkpt>
      <trkpt lat="48.32468" lon="6.36318">
        <ele>280.7002</ele>
        <time>2026-05-17T16:03:33+02:00</time>
      </trkpt>
      <trkpt lat="48.32472" lon="6.36311">
        <ele>280.4004</ele>
        <time>2026-05-17T16:03:34+02:00</time>
      </trkpt>
      <trkpt lat="48.32475" lon="6.36304">
        <ele>280.4004</ele>
        <time>2026-05-17T16:03:35+02:00</time>
      </trkpt>
      <trkpt lat="48.32478" lon="6.36297">
        <ele>280.2998</ele>
        <time>2026-05-17T16:03:36+02:00</time>
      </trkpt>
      <trkpt lat="48.32482" lon="6.3629">
        <ele>280.2002</ele>
        <time>2026-05-17T16:03:37+02:00</time>
      </trkpt>
      <trkpt lat="48.32485" lon="6.36284">
        <ele>280.2998</ele>
        <time>2026-05-17T16:03:38+02:00</time>
      </trkpt>
      <trkpt lat="48.32489" lon="6.36277">
        <ele>280.2998</ele>
        <time>2026-05-17T16:03:39+02:00</time>
      </trkpt>
      <trkpt lat="48.32493" lon="6.3627">
        <ele>280.2002</ele>
        <time>2026-05-17T16:03:40+02:00</time>
      </trkpt>
      <trkpt lat="48.32496" lon="6.36263">
        <ele>280.2002</ele>
        <time>2026-05-17T16:03:41+02:00</time>
      </trkpt>
      <trkpt lat="48.325" lon="6.36256">
        <ele>280.2002</ele>
        <time>2026-05-17T16:03:42+02:00</time>
      </trkpt>
      <trkpt lat="48.32504" lon="6.36249">
        <ele>280.2998</ele>
        <time>2026-05-17T16:03:43+02:00</time>
      </trkpt>
      <trkpt lat="48.32507" lon="6.36243">
        <ele>280.4004</ele>
        <time>2026-05-17T16:03:44+02:00</time>
      </trkpt>
      <trkpt lat="48.32511" lon="6.36236">
        <ele>280.5</ele>
        <time>2026-05-17T16:03:45+02:00</time>
      </trkpt>
      <trkpt lat="48.32514" lon="6.36229">
        <ele>280.5</ele>
        <time>2026-05-17T16:03:46+02:00</time>
      </trkpt>
      <trkpt lat="48.32518" lon="6.36223">
        <ele>280.5</ele>
        <time>2026-05-17T16:03:47+02:00</time>
      </trkpt>
      <trkpt lat="48.32522" lon="6.36216">
        <ele>280.4004</ele>
        <time>2026-05-17T16:03:48+02:00</time>
      </trkpt>
      <trkpt lat="48.32525" lon="6.3621">
        <ele>280.4004</ele>
        <time>2026-05-17T16:03:49+02:00</time>
      </trkpt>
      <trkpt lat="48.32529" lon="6.36203">
        <ele>280.2002</ele>
        <time>2026-05-17T16:03:50+02:00</time>
      </trkpt>
      <trkpt lat="48.32533" lon="6.36197">
        <ele>280.1006</ele>
        <time>2026-05-17T16:03:51+02:00</time>
      </trkpt>
      <trkpt lat="48.32536" lon="6.3619">
        <ele>280.2002</ele>
        <time>2026-05-17T16:03:52+02:00</time>
      </trkpt>
      <trkpt lat="48.3254" lon="6.36183">
        <ele>280</ele>
        <time>2026-05-17T16:03:53+02:00</time>
      </trkpt>
      <trkpt lat="48.32544" lon="6.36176">
        <ele>280</ele>
        <time>2026-05-17T16:03:54+02:00</time>
      </trkpt>
      <trkpt lat="48.32548" lon="6.3617">
        <ele>279.9004</ele>
        <time>2026-05-17T16:03:55+02:00</time>
      </trkpt>
      <trkpt lat="48.32552" lon="6.36162">
        <ele>279.7998</ele>
        <time>2026-05-17T16:03:56+02:00</time>
      </trkpt>
      <trkpt lat="48.32556" lon="6.36155">
        <ele>279.7002</ele>
        <time>2026-05-17T16:03:57+02:00</time>
      </trkpt>
      <trkpt lat="48.3256" lon="6.36148">
        <ele>279.7998</ele>
        <time>2026-05-17T16:03:58+02:00</time>
      </trkpt>
      <trkpt lat="48.32564" lon="6.36141">
        <ele>279.7002</ele>
        <time>2026-05-17T16:03:59+02:00</time>
      </trkpt>
      <trkpt lat="48.32568" lon="6.36134">
        <ele>279.6006</ele>
        <time>2026-05-17T16:04:00+02:00</time>
      </trkpt>
      <trkpt lat="48.32572" lon="6.36127">
        <ele>279.6006</ele>
        <time>2026-05-17T16:04:01+02:00</time>
      </trkpt>
      <trkpt lat="48.32575" lon="6.3612">
        <ele>279.5</ele>
        <time>2026-05-17T16:04:02+02:00</time>
      </trkpt>
      <trkpt lat="48.32579" lon="6.36113">
        <ele>279.5</ele>
        <time>2026-05-17T16:04:03+02:00</time>
      </trkpt>
      <trkpt lat="48.32583" lon="6.36105">
        <ele>279.7002</ele>
        <time>2026-05-17T16:04:04+02:00</time>
      </trkpt>
      <trkpt lat="48.32587" lon="6.36098">
        <ele>279.7002</ele>
        <time>2026-05-17T16:04:05+02:00</time>
      </trkpt>
      <trkpt lat="48.32591" lon="6.36091">
        <ele>279.7002</ele>
        <time>2026-05-17T16:04:06+02:00</time>
      </trkpt>
      <trkpt lat="48.32595" lon="6.36084">
        <ele>279.7002</ele>
        <time>2026-05-17T16:04:07+02:00</time>
      </trkpt>
      <trkpt lat="48.32599" lon="6.36077">
        <ele>279.7002</ele>
        <time>2026-05-17T16:04:08+02:00</time>
      </trkpt>
      <trkpt lat="48.32603" lon="6.36071">
        <ele>279.7998</ele>
        <time>2026-05-17T16:04:09+02:00</time>
      </trkpt>
      <trkpt lat="48.32607" lon="6.36064">
        <ele>280</ele>
        <time>2026-05-17T16:04:10+02:00</time>
      </trkpt>
      <trkpt lat="48.32612" lon="6.36057">
        <ele>279.7002</ele>
        <time>2026-05-17T16:04:11+02:00</time>
      </trkpt>
      <trkpt lat="48.32615" lon="6.36051">
        <ele>279.7002</ele>
        <time>2026-05-17T16:04:12+02:00</time>
      </trkpt>
      <trkpt lat="48.3262" lon="6.36044">
        <ele>279.6006</ele>
        <time>2026-05-17T16:04:13+02:00</time>
      </trkpt>
      <trkpt lat="48.32624" lon="6.36038">
        <ele>279.7002</ele>
        <time>2026-05-17T16:04:14+02:00</time>
      </trkpt>
      <trkpt lat="48.32628" lon="6.36032">
        <ele>279.7002</ele>
        <time>2026-05-17T16:04:15+02:00</time>
      </trkpt>
      <trkpt lat="48.32632" lon="6.36025">
        <ele>279.7998</ele>
        <time>2026-05-17T16:04:16+02:00</time>
      </trkpt>
      <trkpt lat="48.32636" lon="6.36019">
        <ele>280</ele>
        <time>2026-05-17T16:04:17+02:00</time>
      </trkpt>
      <trkpt lat="48.32641" lon="6.36012">
        <ele>280.2002</ele>
        <time>2026-05-17T16:04:18+02:00</time>
      </trkpt>
      <trkpt lat="48.32645" lon="6.36006">
        <ele>280.2002</ele>
        <time>2026-05-17T16:04:19+02:00</time>
      </trkpt>
      <trkpt lat="48.32649" lon="6.35999">
        <ele>280.4004</ele>
        <time>2026-05-17T16:04:20+02:00</time>
      </trkpt>
      <trkpt lat="48.32654" lon="6.35993">
        <ele>280.5</ele>
        <time>2026-05-17T16:04:21+02:00</time>
      </trkpt>
      <trkpt lat="48.32657" lon="6.35986">
        <ele>280.6006</ele>
        <time>2026-05-17T16:04:22+02:00</time>
      </trkpt>
      <trkpt lat="48.32661" lon="6.35981">
        <ele>280.5</ele>
        <time>2026-05-17T16:04:23+02:00</time>
      </trkpt>
      <trkpt lat="48.32665" lon="6.35975">
        <ele>280.4004</ele>
        <time>2026-05-17T16:04:24+02:00</time>
      </trkpt>
      <trkpt lat="48.32669" lon="6.35969">
        <ele>280.4004</ele>
        <time>2026-05-17T16:04:25+02:00</time>
      </trkpt>
      <trkpt lat="48.32673" lon="6.35963">
        <ele>280.4004</ele>
        <time>2026-05-17T16:04:26+02:00</time>
      </trkpt>
      <trkpt lat="48.32677" lon="6.35956">
        <ele>280.2998</ele>
        <time>2026-05-17T16:04:27+02:00</time>
      </trkpt>
      <trkpt lat="48.32679" lon="6.35953">
        <ele>280.2998</ele>
        <time>2026-05-17T16:04:28+02:00</time>
      </trkpt>
      <trkpt lat="48.32685" lon="6.35944">
        <ele>280.2998</ele>
        <time>2026-05-17T16:04:29+02:00</time>
      </trkpt>
      <trkpt lat="48.32689" lon="6.35938">
        <ele>280.2002</ele>
        <time>2026-05-17T16:04:30+02:00</time>
      </trkpt>
      <trkpt lat="48.32693" lon="6.35932">
        <ele>280.2998</ele>
        <time>2026-05-17T16:04:31+02:00</time>
      </trkpt>
      <trkpt lat="48.32697" lon="6.35925">
        <ele>280.2998</ele>
        <time>2026-05-17T16:04:32+02:00</time>
      </trkpt>
      <trkpt lat="48.32702" lon="6.35919">
        <ele>280.2998</ele>
        <time>2026-05-17T16:04:33+02:00</time>
      </trkpt>
      <trkpt lat="48.32706" lon="6.35913">
        <ele>280.2998</ele>
        <time>2026-05-17T16:04:34+02:00</time>
      </trkpt>
      <trkpt lat="48.3271" lon="6.35906">
        <ele>280.2002</ele>
        <time>2026-05-17T16:04:35+02:00</time>
      </trkpt>
      <trkpt lat="48.32714" lon="6.359">
        <ele>280.2002</ele>
        <time>2026-05-17T16:04:36+02:00</time>
      </trkpt>
      <trkpt lat="48.32718" lon="6.35894">
        <ele>279.9004</ele>
        <time>2026-05-17T16:04:37+02:00</time>
      </trkpt>
      <trkpt lat="48.32723" lon="6.35889">
        <ele>279.9004</ele>
        <time>2026-05-17T16:04:38+02:00</time>
      </trkpt>
      <trkpt lat="48.32728" lon="6.35882">
        <ele>280.1006</ele>
        <time>2026-05-17T16:04:39+02:00</time>
      </trkpt>
      <trkpt lat="48.32732" lon="6.35876">
        <ele>280.2002</ele>
        <time>2026-05-17T16:04:40+02:00</time>
      </trkpt>
      <trkpt lat="48.32736" lon="6.35869">
        <ele>280.1006</ele>
        <time>2026-05-17T16:04:41+02:00</time>
      </trkpt>
      <trkpt lat="48.3274" lon="6.35862">
        <ele>279.9004</ele>
        <time>2026-05-17T16:04:42+02:00</time>
      </trkpt>
      <trkpt lat="48.32744" lon="6.35856">
        <ele>280</ele>
        <time>2026-05-17T16:04:43+02:00</time>
      </trkpt>
      <trkpt lat="48.32747" lon="6.35851">
        <ele>279.7998</ele>
        <time>2026-05-17T16:04:44+02:00</time>
      </trkpt>
      <trkpt lat="48.32752" lon="6.35845">
        <ele>280</ele>
        <time>2026-05-17T16:04:45+02:00</time>
      </trkpt>
      <trkpt lat="48.32755" lon="6.3584">
        <ele>280.2002</ele>
        <time>2026-05-17T16:04:46+02:00</time>
      </trkpt>
      <trkpt lat="48.32758" lon="6.35834">
        <ele>280.2002</ele>
        <time>2026-05-17T16:04:47+02:00</time>
      </trkpt>
      <trkpt lat="48.32762" lon="6.35828">
        <ele>280.2002</ele>
        <time>2026-05-17T16:04:48+02:00</time>
      </trkpt>
      <trkpt lat="48.32765" lon="6.35825">
        <ele>280.2002</ele>
        <time>2026-05-17T16:04:49+02:00</time>
      </trkpt>
      <trkpt lat="48.3277" lon="6.35815">
        <ele>280.2998</ele>
        <time>2026-05-17T16:04:50+02:00</time>
      </trkpt>
      <trkpt lat="48.32774" lon="6.35809">
        <ele>280.4004</ele>
        <time>2026-05-17T16:04:51+02:00</time>
      </trkpt>
      <trkpt lat="48.32778" lon="6.35803">
        <ele>280.5</ele>
        <time>2026-05-17T16:04:52+02:00</time>
      </trkpt>
      <trkpt lat="48.32782" lon="6.35797">
        <ele>280.5</ele>
        <time>2026-05-17T16:04:53+02:00</time>
      </trkpt>
      <trkpt lat="48.32786" lon="6.35791">
        <ele>280.5</ele>
        <time>2026-05-17T16:04:54+02:00</time>
      </trkpt>
      <trkpt lat="48.32791" lon="6.35785">
        <ele>280.5</ele>
        <time>2026-05-17T16:04:55+02:00</time>
      </trkpt>
      <trkpt lat="48.32795" lon="6.35779">
        <ele>280.5</ele>
        <time>2026-05-17T16:04:56+02:00</time>
      </trkpt>
      <trkpt lat="48.32799" lon="6.35773">
        <ele>280.4004</ele>
        <time>2026-05-17T16:04:57+02:00</time>
      </trkpt>
      <trkpt lat="48.32803" lon="6.35766">
        <ele>280.5</ele>
        <time>2026-05-17T16:04:58+02:00</time>
      </trkpt>
      <trkpt lat="48.32807" lon="6.3576">
        <ele>280.5</ele>
        <time>2026-05-17T16:04:59+02:00</time>
      </trkpt>
      <trkpt lat="48.32811" lon="6.35754">
        <ele>280.4004</ele>
        <time>2026-05-17T16:05:00+02:00</time>
      </trkpt>
      <trkpt lat="48.32815" lon="6.35747">
        <ele>280.6006</ele>
        <time>2026-05-17T16:05:01+02:00</time>
      </trkpt>
      <trkpt lat="48.32819" lon="6.3574">
        <ele>280.7002</ele>
        <time>2026-05-17T16:05:02+02:00</time>
      </trkpt>
      <trkpt lat="48.32824" lon="6.35734">
        <ele>280.5</ele>
        <time>2026-05-17T16:05:03+02:00</time>
      </trkpt>
      <trkpt lat="48.32828" lon="6.35727">
        <ele>280.5</ele>
        <time>2026-05-17T16:05:04+02:00</time>
      </trkpt>
      <trkpt lat="48.32832" lon="6.35721">
        <ele>280.2002</ele>
        <time>2026-05-17T16:05:05+02:00</time>
      </trkpt>
      <trkpt lat="48.32836" lon="6.35715">
        <ele>280.2998</ele>
        <time>2026-05-17T16:05:06+02:00</time>
      </trkpt>
      <trkpt lat="48.3284" lon="6.35708">
        <ele>280.4004</ele>
        <time>2026-05-17T16:05:07+02:00</time>
      </trkpt>
      <trkpt lat="48.32844" lon="6.35702">
        <ele>280.5</ele>
        <time>2026-05-17T16:05:08+02:00</time>
      </trkpt>
      <trkpt lat="48.32848" lon="6.35695">
        <ele>280.2002</ele>
        <time>2026-05-17T16:05:09+02:00</time>
      </trkpt>
      <trkpt lat="48.32853" lon="6.35689">
        <ele>280</ele>
        <time>2026-05-17T16:05:10+02:00</time>
      </trkpt>
      <trkpt lat="48.32857" lon="6.35683">
        <ele>280</ele>
        <time>2026-05-17T16:05:11+02:00</time>
      </trkpt>
      <trkpt lat="48.32861" lon="6.35676">
        <ele>280.1006</ele>
        <time>2026-05-17T16:05:12+02:00</time>
      </trkpt>
      <trkpt lat="48.32865" lon="6.3567">
        <ele>280</ele>
        <time>2026-05-17T16:05:13+02:00</time>
      </trkpt>
      <trkpt lat="48.32869" lon="6.35664">
        <ele>280</ele>
        <time>2026-05-17T16:05:14+02:00</time>
      </trkpt>
      <trkpt lat="48.32874" lon="6.35658">
        <ele>279.7998</ele>
        <time>2026-05-17T16:05:15+02:00</time>
      </trkpt>
      <trkpt lat="48.32877" lon="6.35651">
        <ele>279.6006</ele>
        <time>2026-05-17T16:05:16+02:00</time>
      </trkpt>
      <trkpt lat="48.32882" lon="6.35645">
        <ele>279.4004</ele>
        <time>2026-05-17T16:05:17+02:00</time>
      </trkpt>
      <trkpt lat="48.32884" lon="6.35642">
        <ele>279.6006</ele>
        <time>2026-05-17T16:05:18+02:00</time>
      </trkpt>
      <trkpt lat="48.3289" lon="6.35633">
        <ele>279.5</ele>
        <time>2026-05-17T16:05:19+02:00</time>
      </trkpt>
      <trkpt lat="48.32894" lon="6.35626">
        <ele>279.2998</ele>
        <time>2026-05-17T16:05:20+02:00</time>
      </trkpt>
      <trkpt lat="48.32898" lon="6.3562">
        <ele>279.1006</ele>
        <time>2026-05-17T16:05:21+02:00</time>
      </trkpt>
      <trkpt lat="48.32902" lon="6.35614">
        <ele>279.1006</ele>
        <time>2026-05-17T16:05:22+02:00</time>
      </trkpt>
      <trkpt lat="48.32906" lon="6.35609">
        <ele>278.9004</ele>
        <time>2026-05-17T16:05:23+02:00</time>
      </trkpt>
      <trkpt lat="48.32911" lon="6.35603">
        <ele>278.7998</ele>
        <time>2026-05-17T16:05:24+02:00</time>
      </trkpt>
      <trkpt lat="48.32915" lon="6.35597">
        <ele>278.7002</ele>
        <time>2026-05-17T16:05:25+02:00</time>
      </trkpt>
      <trkpt lat="48.32919" lon="6.35591">
        <ele>278.7998</ele>
        <time>2026-05-17T16:05:26+02:00</time>
      </trkpt>
      <trkpt lat="48.32923" lon="6.35585">
        <ele>278.7002</ele>
        <time>2026-05-17T16:05:27+02:00</time>
      </trkpt>
      <trkpt lat="48.32927" lon="6.35579">
        <ele>278.6006</ele>
        <time>2026-05-17T16:05:28+02:00</time>
      </trkpt>
      <trkpt lat="48.32932" lon="6.35573">
        <ele>278.7998</ele>
        <time>2026-05-17T16:05:29+02:00</time>
      </trkpt>
      <trkpt lat="48.32935" lon="6.35567">
        <ele>278.7002</ele>
        <time>2026-05-17T16:05:30+02:00</time>
      </trkpt>
      <trkpt lat="48.3294" lon="6.35562">
        <ele>278.5</ele>
        <time>2026-05-17T16:05:31+02:00</time>
      </trkpt>
      <trkpt lat="48.32943" lon="6.35556">
        <ele>278.6006</ele>
        <time>2026-05-17T16:05:32+02:00</time>
      </trkpt>
      <trkpt lat="48.32948" lon="6.3555">
        <ele>278.5</ele>
        <time>2026-05-17T16:05:33+02:00</time>
      </trkpt>
      <trkpt lat="48.32952" lon="6.35544">
        <ele>278.4004</ele>
        <time>2026-05-17T16:05:34+02:00</time>
      </trkpt>
      <trkpt lat="48.32956" lon="6.35538">
        <ele>278.4004</ele>
        <time>2026-05-17T16:05:35+02:00</time>
      </trkpt>
      <trkpt lat="48.3296" lon="6.35532">
        <ele>278.5</ele>
        <time>2026-05-17T16:05:36+02:00</time>
      </trkpt>
      <trkpt lat="48.32964" lon="6.35527">
        <ele>278.2998</ele>
        <time>2026-05-17T16:05:37+02:00</time>
      </trkpt>
      <trkpt lat="48.32968" lon="6.3552">
        <ele>278.2998</ele>
        <time>2026-05-17T16:05:38+02:00</time>
      </trkpt>
      <trkpt lat="48.32972" lon="6.35514">
        <ele>278.4004</ele>
        <time>2026-05-17T16:05:39+02:00</time>
      </trkpt>
      <trkpt lat="48.32976" lon="6.35508">
        <ele>278.2998</ele>
        <time>2026-05-17T16:05:40+02:00</time>
      </trkpt>
      <trkpt lat="48.32979" lon="6.35501">
        <ele>278.4004</ele>
        <time>2026-05-17T16:05:41+02:00</time>
      </trkpt>
      <trkpt lat="48.32982" lon="6.35494">
        <ele>278.5</ele>
        <time>2026-05-17T16:05:42+02:00</time>
      </trkpt>
      <trkpt lat="48.32985" lon="6.35488">
        <ele>278.6006</ele>
        <time>2026-05-17T16:05:43+02:00</time>
      </trkpt>
      <trkpt lat="48.32988" lon="6.35483">
        <ele>278.6006</ele>
        <time>2026-05-17T16:05:44+02:00</time>
      </trkpt>
      <trkpt lat="48.32992" lon="6.35478">
        <ele>278.5</ele>
        <time>2026-05-17T16:05:45+02:00</time>
      </trkpt>
      <trkpt lat="48.32996" lon="6.35473">
        <ele>278.2998</ele>
        <time>2026-05-17T16:05:46+02:00</time>
      </trkpt>
      <trkpt lat="48.33001" lon="6.35469">
        <ele>278.2002</ele>
        <time>2026-05-17T16:05:47+02:00</time>
      </trkpt>
      <trkpt lat="48.33005" lon="6.35466">
        <ele>278.2002</ele>
        <time>2026-05-17T16:05:48+02:00</time>
      </trkpt>
      <trkpt lat="48.33009" lon="6.35462">
        <ele>278.2998</ele>
        <time>2026-05-17T16:05:49+02:00</time>
      </trkpt>
      <trkpt lat="48.33014" lon="6.35459">
        <ele>278.1006</ele>
        <time>2026-05-17T16:05:50+02:00</time>
      </trkpt>
      <trkpt lat="48.33018" lon="6.35454">
        <ele>278.1006</ele>
        <time>2026-05-17T16:05:51+02:00</time>
      </trkpt>
      <trkpt lat="48.33022" lon="6.35448">
        <ele>278.1006</ele>
        <time>2026-05-17T16:05:52+02:00</time>
      </trkpt>
      <trkpt lat="48.33027" lon="6.35441">
        <ele>278</ele>
        <time>2026-05-17T16:05:53+02:00</time>
      </trkpt>
      <trkpt lat="48.33032" lon="6.35434">
        <ele>277.9004</ele>
        <time>2026-05-17T16:05:54+02:00</time>
      </trkpt>
      <trkpt lat="48.33037" lon="6.35427">
        <ele>278</ele>
        <time>2026-05-17T16:05:55+02:00</time>
      </trkpt>
      <trkpt lat="48.33042" lon="6.3542">
        <ele>277.9004</ele>
        <time>2026-05-17T16:05:56+02:00</time>
      </trkpt>
      <trkpt lat="48.33047" lon="6.35413">
        <ele>277.9004</ele>
        <time>2026-05-17T16:05:57+02:00</time>
      </trkpt>
      <trkpt lat="48.33053" lon="6.35406">
        <ele>277.7002</ele>
        <time>2026-05-17T16:05:58+02:00</time>
      </trkpt>
      <trkpt lat="48.33058" lon="6.35399">
        <ele>277.7998</ele>
        <time>2026-05-17T16:05:59+02:00</time>
      </trkpt>
      <trkpt lat="48.33063" lon="6.35392">
        <ele>278</ele>
        <time>2026-05-17T16:06:00+02:00</time>
      </trkpt>
      <trkpt lat="48.33066" lon="6.35388">
        <ele>277.9004</ele>
        <time>2026-05-17T16:06:01+02:00</time>
      </trkpt>
      <trkpt lat="48.33074" lon="6.35377">
        <ele>278</ele>
        <time>2026-05-17T16:06:02+02:00</time>
      </trkpt>
      <trkpt lat="48.33078" lon="6.3537">
        <ele>278.1006</ele>
        <time>2026-05-17T16:06:03+02:00</time>
      </trkpt>
      <trkpt lat="48.33083" lon="6.35363">
        <ele>278.1006</ele>
        <time>2026-05-17T16:06:04+02:00</time>
      </trkpt>
      <trkpt lat="48.33088" lon="6.35356">
        <ele>278.2002</ele>
        <time>2026-05-17T16:06:05+02:00</time>
      </trkpt>
      <trkpt lat="48.33093" lon="6.35349">
        <ele>278.2002</ele>
        <time>2026-05-17T16:06:06+02:00</time>
      </trkpt>
      <trkpt lat="48.33098" lon="6.35342">
        <ele>278.2998</ele>
        <time>2026-05-17T16:06:07+02:00</time>
      </trkpt>
      <trkpt lat="48.33102" lon="6.35335">
        <ele>278.2998</ele>
        <time>2026-05-17T16:06:08+02:00</time>
      </trkpt>
      <trkpt lat="48.33107" lon="6.35328">
        <ele>278.2998</ele>
        <time>2026-05-17T16:06:09+02:00</time>
      </trkpt>
      <trkpt lat="48.33111" lon="6.35321">
        <ele>278.4004</ele>
        <time>2026-05-17T16:06:10+02:00</time>
      </trkpt>
      <trkpt lat="48.33116" lon="6.35315">
        <ele>278.5</ele>
        <time>2026-05-17T16:06:11+02:00</time>
      </trkpt>
      <trkpt lat="48.3312" lon="6.35309">
        <ele>278.5</ele>
        <time>2026-05-17T16:06:12+02:00</time>
      </trkpt>
      <trkpt lat="48.33124" lon="6.35303">
        <ele>278.6006</ele>
        <time>2026-05-17T16:06:13+02:00</time>
      </trkpt>
      <trkpt lat="48.33127" lon="6.35297">
        <ele>278.6006</ele>
        <time>2026-05-17T16:06:14+02:00</time>
      </trkpt>
      <trkpt lat="48.33132" lon="6.35292">
        <ele>278.7002</ele>
        <time>2026-05-17T16:06:15+02:00</time>
      </trkpt>
      <trkpt lat="48.33135" lon="6.35287">
        <ele>278.7002</ele>
        <time>2026-05-17T16:06:16+02:00</time>
      </trkpt>
      <trkpt lat="48.3314" lon="6.35282">
        <ele>278.7998</ele>
        <time>2026-05-17T16:06:17+02:00</time>
      </trkpt>
      <trkpt lat="48.33143" lon="6.35276">
        <ele>278.7998</ele>
        <time>2026-05-17T16:06:18+02:00</time>
      </trkpt>
      <trkpt lat="48.33148" lon="6.35271">
        <ele>278.7998</ele>
        <time>2026-05-17T16:06:19+02:00</time>
      </trkpt>
      <trkpt lat="48.33152" lon="6.35265">
        <ele>278.6006</ele>
        <time>2026-05-17T16:06:20+02:00</time>
      </trkpt>
      <trkpt lat="48.33156" lon="6.35259">
        <ele>278.6006</ele>
        <time>2026-05-17T16:06:21+02:00</time>
      </trkpt>
      <trkpt lat="48.3316" lon="6.35253">
        <ele>278.2998</ele>
        <time>2026-05-17T16:06:22+02:00</time>
      </trkpt>
      <trkpt lat="48.33164" lon="6.35247">
        <ele>278.1006</ele>
        <time>2026-05-17T16:06:23+02:00</time>
      </trkpt>
      <trkpt lat="48.33168" lon="6.35241">
        <ele>278.1006</ele>
        <time>2026-05-17T16:06:24+02:00</time>
      </trkpt>
      <trkpt lat="48.33172" lon="6.35235">
        <ele>278.2998</ele>
        <time>2026-05-17T16:06:25+02:00</time>
      </trkpt>
      <trkpt lat="48.33177" lon="6.3523">
        <ele>278.1006</ele>
        <time>2026-05-17T16:06:26+02:00</time>
      </trkpt>
      <trkpt lat="48.33181" lon="6.35225">
        <ele>278.2998</ele>
        <time>2026-05-17T16:06:27+02:00</time>
      </trkpt>
      <trkpt lat="48.33185" lon="6.35219">
        <ele>278.2998</ele>
        <time>2026-05-17T16:06:28+02:00</time>
      </trkpt>
      <trkpt lat="48.3319" lon="6.35214">
        <ele>278.2998</ele>
        <time>2026-05-17T16:06:29+02:00</time>
      </trkpt>
      <trkpt lat="48.33194" lon="6.35209">
        <ele>278.2998</ele>
        <time>2026-05-17T16:06:30+02:00</time>
      </trkpt>
      <trkpt lat="48.33198" lon="6.35203">
        <ele>278.2998</ele>
        <time>2026-05-17T16:06:31+02:00</time>
      </trkpt>
      <trkpt lat="48.33202" lon="6.35198">
        <ele>278.2998</ele>
        <time>2026-05-17T16:06:32+02:00</time>
      </trkpt>
      <trkpt lat="48.33207" lon="6.35192">
        <ele>278.4004</ele>
        <time>2026-05-17T16:06:33+02:00</time>
      </trkpt>
      <trkpt lat="48.33212" lon="6.35187">
        <ele>278.4004</ele>
        <time>2026-05-17T16:06:34+02:00</time>
      </trkpt>
      <trkpt lat="48.33216" lon="6.35181">
        <ele>278.2002</ele>
        <time>2026-05-17T16:06:35+02:00</time>
      </trkpt>
      <trkpt lat="48.33221" lon="6.35176">
        <ele>278.5</ele>
        <time>2026-05-17T16:06:36+02:00</time>
      </trkpt>
      <trkpt lat="48.33225" lon="6.35171">
        <ele>278.7002</ele>
        <time>2026-05-17T16:06:37+02:00</time>
      </trkpt>
      <trkpt lat="48.3323" lon="6.35165">
        <ele>278.7002</ele>
        <time>2026-05-17T16:06:38+02:00</time>
      </trkpt>
      <trkpt lat="48.33235" lon="6.3516">
        <ele>278.5</ele>
        <time>2026-05-17T16:06:39+02:00</time>
      </trkpt>
      <trkpt lat="48.33239" lon="6.35155">
        <ele>278.2002</ele>
        <time>2026-05-17T16:06:40+02:00</time>
      </trkpt>
      <trkpt lat="48.33243" lon="6.35149">
        <ele>278.2002</ele>
        <time>2026-05-17T16:06:41+02:00</time>
      </trkpt>
      <trkpt lat="48.33248" lon="6.35144">
        <ele>278</ele>
        <time>2026-05-17T16:06:42+02:00</time>
      </trkpt>
      <trkpt lat="48.33252" lon="6.35139">
        <ele>278</ele>
        <time>2026-05-17T16:06:43+02:00</time>
      </trkpt>
      <trkpt lat="48.33256" lon="6.35134">
        <ele>277.9004</ele>
        <time>2026-05-17T16:06:44+02:00</time>
      </trkpt>
      <trkpt lat="48.3326" lon="6.3513">
        <ele>277.9004</ele>
        <time>2026-05-17T16:06:45+02:00</time>
      </trkpt>
      <trkpt lat="48.33264" lon="6.35125">
        <ele>277.9004</ele>
        <time>2026-05-17T16:06:46+02:00</time>
      </trkpt>
      <trkpt lat="48.33268" lon="6.3512">
        <ele>277.7998</ele>
        <time>2026-05-17T16:06:47+02:00</time>
      </trkpt>
      <trkpt lat="48.33273" lon="6.35115">
        <ele>277.7998</ele>
        <time>2026-05-17T16:06:48+02:00</time>
      </trkpt>
      <trkpt lat="48.33277" lon="6.3511">
        <ele>277.7998</ele>
        <time>2026-05-17T16:06:49+02:00</time>
      </trkpt>
      <trkpt lat="48.33282" lon="6.35104">
        <ele>277.7998</ele>
        <time>2026-05-17T16:06:50+02:00</time>
      </trkpt>
      <trkpt lat="48.33286" lon="6.35099">
        <ele>277.7998</ele>
        <time>2026-05-17T16:06:51+02:00</time>
      </trkpt>
      <trkpt lat="48.33291" lon="6.35094">
        <ele>277.7998</ele>
        <time>2026-05-17T16:06:52+02:00</time>
      </trkpt>
      <trkpt lat="48.33296" lon="6.35089">
        <ele>277.7998</ele>
        <time>2026-05-17T16:06:53+02:00</time>
      </trkpt>
      <trkpt lat="48.333" lon="6.35083">
        <ele>277.7002</ele>
        <time>2026-05-17T16:06:54+02:00</time>
      </trkpt>
      <trkpt lat="48.33305" lon="6.35078">
        <ele>277.7002</ele>
        <time>2026-05-17T16:06:55+02:00</time>
      </trkpt>
      <trkpt lat="48.33309" lon="6.35072">
        <ele>277.7998</ele>
        <time>2026-05-17T16:06:56+02:00</time>
      </trkpt>
      <trkpt lat="48.33314" lon="6.35067">
        <ele>277.7998</ele>
        <time>2026-05-17T16:06:57+02:00</time>
      </trkpt>
      <trkpt lat="48.33318" lon="6.35061">
        <ele>277.7998</ele>
        <time>2026-05-17T16:06:58+02:00</time>
      </trkpt>
      <trkpt lat="48.33323" lon="6.35056">
        <ele>277.7998</ele>
        <time>2026-05-17T16:06:59+02:00</time>
      </trkpt>
      <trkpt lat="48.33328" lon="6.3505">
        <ele>277.7002</ele>
        <time>2026-05-17T16:07:00+02:00</time>
      </trkpt>
      <trkpt lat="48.33333" lon="6.35045">
        <ele>277.7002</ele>
        <time>2026-05-17T16:07:01+02:00</time>
      </trkpt>
      <trkpt lat="48.33337" lon="6.3504">
        <ele>277.7002</ele>
        <time>2026-05-17T16:07:02+02:00</time>
      </trkpt>
      <trkpt lat="48.33342" lon="6.35034">
        <ele>277.7002</ele>
        <time>2026-05-17T16:07:03+02:00</time>
      </trkpt>
      <trkpt lat="48.33347" lon="6.35029">
        <ele>277.7002</ele>
        <time>2026-05-17T16:07:04+02:00</time>
      </trkpt>
      <trkpt lat="48.33351" lon="6.35023">
        <ele>277.7002</ele>
        <time>2026-05-17T16:07:05+02:00</time>
      </trkpt>
      <trkpt lat="48.33356" lon="6.35018">
        <ele>277.7002</ele>
        <time>2026-05-17T16:07:06+02:00</time>
      </trkpt>
      <trkpt lat="48.3336" lon="6.35012">
        <ele>277.7002</ele>
        <time>2026-05-17T16:07:07+02:00</time>
      </trkpt>
      <trkpt lat="48.33365" lon="6.35006">
        <ele>277.6006</ele>
        <time>2026-05-17T16:07:08+02:00</time>
      </trkpt>
      <trkpt lat="48.3337" lon="6.35">
        <ele>277.7002</ele>
        <time>2026-05-17T16:07:09+02:00</time>
      </trkpt>
      <trkpt lat="48.33374" lon="6.34995">
        <ele>277.7002</ele>
        <time>2026-05-17T16:07:10+02:00</time>
      </trkpt>
      <trkpt lat="48.33379" lon="6.34989">
        <ele>277.7998</ele>
        <time>2026-05-17T16:07:11+02:00</time>
      </trkpt>
      <trkpt lat="48.33383" lon="6.34983">
        <ele>277.7998</ele>
        <time>2026-05-17T16:07:12+02:00</time>
      </trkpt>
      <trkpt lat="48.33388" lon="6.34977">
        <ele>277.7998</ele>
        <time>2026-05-17T16:07:13+02:00</time>
      </trkpt>
      <trkpt lat="48.33392" lon="6.34971">
        <ele>277.7998</ele>
        <time>2026-05-17T16:07:14+02:00</time>
      </trkpt>
      <trkpt lat="48.33397" lon="6.34965">
        <ele>277.7002</ele>
        <time>2026-05-17T16:07:15+02:00</time>
      </trkpt>
      <trkpt lat="48.33401" lon="6.34959">
        <ele>277.7998</ele>
        <time>2026-05-17T16:07:16+02:00</time>
      </trkpt>
      <trkpt lat="48.33405" lon="6.34953">
        <ele>277.7998</ele>
        <time>2026-05-17T16:07:17+02:00</time>
      </trkpt>
      <trkpt lat="48.3341" lon="6.34947">
        <ele>277.7998</ele>
        <time>2026-05-17T16:07:18+02:00</time>
      </trkpt>
      <trkpt lat="48.33414" lon="6.34942">
        <ele>277.7998</ele>
        <time>2026-05-17T16:07:19+02:00</time>
      </trkpt>
      <trkpt lat="48.33418" lon="6.34936">
        <ele>277.7998</ele>
        <time>2026-05-17T16:07:20+02:00</time>
      </trkpt>
      <trkpt lat="48.33422" lon="6.3493">
        <ele>277.7002</ele>
        <time>2026-05-17T16:07:21+02:00</time>
      </trkpt>
      <trkpt lat="48.33426" lon="6.34924">
        <ele>277.7998</ele>
        <time>2026-05-17T16:07:22+02:00</time>
      </trkpt>
      <trkpt lat="48.3343" lon="6.34918">
        <ele>277.7998</ele>
        <time>2026-05-17T16:07:23+02:00</time>
      </trkpt>
      <trkpt lat="48.33434" lon="6.34913">
        <ele>277.7998</ele>
        <time>2026-05-17T16:07:24+02:00</time>
      </trkpt>
      <trkpt lat="48.33438" lon="6.34906">
        <ele>277.7998</ele>
        <time>2026-05-17T16:07:25+02:00</time>
      </trkpt>
      <trkpt lat="48.33442" lon="6.349">
        <ele>277.7998</ele>
        <time>2026-05-17T16:07:26+02:00</time>
      </trkpt>
      <trkpt lat="48.33446" lon="6.34893">
        <ele>277.7998</ele>
        <time>2026-05-17T16:07:27+02:00</time>
      </trkpt>
      <trkpt lat="48.3345" lon="6.34887">
        <ele>277.7002</ele>
        <time>2026-05-17T16:07:28+02:00</time>
      </trkpt>
      <trkpt lat="48.33454" lon="6.3488">
        <ele>277.7002</ele>
        <time>2026-05-17T16:07:29+02:00</time>
      </trkpt>
      <trkpt lat="48.33458" lon="6.34874">
        <ele>277.7998</ele>
        <time>2026-05-17T16:07:30+02:00</time>
      </trkpt>
      <trkpt lat="48.33462" lon="6.34867">
        <ele>277.7002</ele>
        <time>2026-05-17T16:07:31+02:00</time>
      </trkpt>
      <trkpt lat="48.33466" lon="6.34861">
        <ele>277.7002</ele>
        <time>2026-05-17T16:07:32+02:00</time>
      </trkpt>
      <trkpt lat="48.3347" lon="6.34854">
        <ele>277.7002</ele>
        <time>2026-05-17T16:07:33+02:00</time>
      </trkpt>
      <trkpt lat="48.33474" lon="6.34847">
        <ele>277.7002</ele>
        <time>2026-05-17T16:07:34+02:00</time>
      </trkpt>
      <trkpt lat="48.33478" lon="6.34841">
        <ele>277.7002</ele>
        <time>2026-05-17T16:07:35+02:00</time>
      </trkpt>
      <trkpt lat="48.33482" lon="6.34834">
        <ele>277.7002</ele>
        <time>2026-05-17T16:07:36+02:00</time>
      </trkpt>
      <trkpt lat="48.33486" lon="6.34828">
        <ele>277.7002</ele>
        <time>2026-05-17T16:07:37+02:00</time>
      </trkpt>
      <trkpt lat="48.33489" lon="6.34821">
        <ele>277.7002</ele>
        <time>2026-05-17T16:07:38+02:00</time>
      </trkpt>
      <trkpt lat="48.33492" lon="6.34814">
        <ele>277.6006</ele>
        <time>2026-05-17T16:07:39+02:00</time>
      </trkpt>
      <trkpt lat="48.33496" lon="6.34807">
        <ele>277.6006</ele>
        <time>2026-05-17T16:07:40+02:00</time>
      </trkpt>
      <trkpt lat="48.33499" lon="6.34801">
        <ele>277.6006</ele>
        <time>2026-05-17T16:07:41+02:00</time>
      </trkpt>
      <trkpt lat="48.33503" lon="6.34794">
        <ele>277.6006</ele>
        <time>2026-05-17T16:07:42+02:00</time>
      </trkpt>
      <trkpt lat="48.33506" lon="6.34788">
        <ele>277.6006</ele>
        <time>2026-05-17T16:07:43+02:00</time>
      </trkpt>
      <trkpt lat="48.33509" lon="6.34781">
        <ele>277.5</ele>
        <time>2026-05-17T16:07:44+02:00</time>
      </trkpt>
      <trkpt lat="48.3351" lon="6.34778">
        <ele>277.5</ele>
        <time>2026-05-17T16:07:45+02:00</time>
      </trkpt>
      <trkpt lat="48.33515" lon="6.34767">
        <ele>277.5</ele>
        <time>2026-05-17T16:07:46+02:00</time>
      </trkpt>
      <trkpt lat="48.33518" lon="6.3476">
        <ele>277.4004</ele>
        <time>2026-05-17T16:07:47+02:00</time>
      </trkpt>
      <trkpt lat="48.33521" lon="6.34752">
        <ele>277.6006</ele>
        <time>2026-05-17T16:07:48+02:00</time>
      </trkpt>
      <trkpt lat="48.33524" lon="6.34745">
        <ele>277.6006</ele>
        <time>2026-05-17T16:07:49+02:00</time>
      </trkpt>
      <trkpt lat="48.33528" lon="6.34738">
        <ele>277.7998</ele>
        <time>2026-05-17T16:07:50+02:00</time>
      </trkpt>
      <trkpt lat="48.33531" lon="6.34731">
        <ele>277.7998</ele>
        <time>2026-05-17T16:07:51+02:00</time>
      </trkpt>
      <trkpt lat="48.33532" lon="6.34727">
        <ele>277.7002</ele>
        <time>2026-05-17T16:07:52+02:00</time>
      </trkpt>
      <trkpt lat="48.33536" lon="6.34716">
        <ele>277.5</ele>
        <time>2026-05-17T16:07:53+02:00</time>
      </trkpt>
      <trkpt lat="48.33539" lon="6.34708">
        <ele>277.2998</ele>
        <time>2026-05-17T16:07:54+02:00</time>
      </trkpt>
      <trkpt lat="48.33542" lon="6.34701">
        <ele>277.2998</ele>
        <time>2026-05-17T16:07:55+02:00</time>
      </trkpt>
      <trkpt lat="48.33545" lon="6.34693">
        <ele>277.2998</ele>
        <time>2026-05-17T16:07:56+02:00</time>
      </trkpt>
      <trkpt lat="48.33548" lon="6.34686">
        <ele>277.4004</ele>
        <time>2026-05-17T16:07:57+02:00</time>
      </trkpt>
      <trkpt lat="48.33551" lon="6.34678">
        <ele>277.5</ele>
        <time>2026-05-17T16:07:58+02:00</time>
      </trkpt>
      <trkpt lat="48.33553" lon="6.3467">
        <ele>277.5</ele>
        <time>2026-05-17T16:07:59+02:00</time>
      </trkpt>
      <trkpt lat="48.33556" lon="6.34663">
        <ele>277.4004</ele>
        <time>2026-05-17T16:08:00+02:00</time>
      </trkpt>
      <trkpt lat="48.3356" lon="6.34655">
        <ele>277.2998</ele>
        <time>2026-05-17T16:08:01+02:00</time>
      </trkpt>
      <trkpt lat="48.33562" lon="6.34647">
        <ele>277.2998</ele>
        <time>2026-05-17T16:08:02+02:00</time>
      </trkpt>
      <trkpt lat="48.33565" lon="6.34639">
        <ele>277.2998</ele>
        <time>2026-05-17T16:08:03+02:00</time>
      </trkpt>
      <trkpt lat="48.33568" lon="6.34631">
        <ele>277.2002</ele>
        <time>2026-05-17T16:08:04+02:00</time>
      </trkpt>
      <trkpt lat="48.33571" lon="6.34623">
        <ele>277.2998</ele>
        <time>2026-05-17T16:08:05+02:00</time>
      </trkpt>
      <trkpt lat="48.33574" lon="6.34615">
        <ele>277.2002</ele>
        <time>2026-05-17T16:08:06+02:00</time>
      </trkpt>
      <trkpt lat="48.33577" lon="6.34607">
        <ele>277.2002</ele>
        <time>2026-05-17T16:08:07+02:00</time>
      </trkpt>
      <trkpt lat="48.3358" lon="6.34599">
        <ele>277.2998</ele>
        <time>2026-05-17T16:08:08+02:00</time>
      </trkpt>
      <trkpt lat="48.33582" lon="6.3459">
        <ele>277.2998</ele>
        <time>2026-05-17T16:08:09+02:00</time>
      </trkpt>
      <trkpt lat="48.33585" lon="6.34582">
        <ele>277.4004</ele>
        <time>2026-05-17T16:08:10+02:00</time>
      </trkpt>
      <trkpt lat="48.33588" lon="6.34573">
        <ele>277.4004</ele>
        <time>2026-05-17T16:08:11+02:00</time>
      </trkpt>
      <trkpt lat="48.33591" lon="6.34564">
        <ele>277.5</ele>
        <time>2026-05-17T16:08:12+02:00</time>
      </trkpt>
      <trkpt lat="48.33594" lon="6.34556">
        <ele>277.5</ele>
        <time>2026-05-17T16:08:13+02:00</time>
      </trkpt>
      <trkpt lat="48.33597" lon="6.34547">
        <ele>277.5</ele>
        <time>2026-05-17T16:08:14+02:00</time>
      </trkpt>
      <trkpt lat="48.33599" lon="6.34538">
        <ele>277.5</ele>
        <time>2026-05-17T16:08:15+02:00</time>
      </trkpt>
      <trkpt lat="48.33602" lon="6.3453">
        <ele>277.5</ele>
        <time>2026-05-17T16:08:16+02:00</time>
      </trkpt>
      <trkpt lat="48.33605" lon="6.34521">
        <ele>277.5</ele>
        <time>2026-05-17T16:08:17+02:00</time>
      </trkpt>
      <trkpt lat="48.33607" lon="6.34512">
        <ele>277.4004</ele>
        <time>2026-05-17T16:08:18+02:00</time>
      </trkpt>
      <trkpt lat="48.3361" lon="6.34503">
        <ele>277.2002</ele>
        <time>2026-05-17T16:08:19+02:00</time>
      </trkpt>
      <trkpt lat="48.33613" lon="6.34495">
        <ele>277.4004</ele>
        <time>2026-05-17T16:08:20+02:00</time>
      </trkpt>
      <trkpt lat="48.33615" lon="6.34486">
        <ele>277.2998</ele>
        <time>2026-05-17T16:08:21+02:00</time>
      </trkpt>
      <trkpt lat="48.33618" lon="6.34477">
        <ele>277.5</ele>
        <time>2026-05-17T16:08:22+02:00</time>
      </trkpt>
      <trkpt lat="48.33621" lon="6.34469">
        <ele>277.4004</ele>
        <time>2026-05-17T16:08:23+02:00</time>
      </trkpt>
      <trkpt lat="48.33623" lon="6.3446">
        <ele>277.6006</ele>
        <time>2026-05-17T16:08:24+02:00</time>
      </trkpt>
      <trkpt lat="48.33625" lon="6.34451">
        <ele>277.2998</ele>
        <time>2026-05-17T16:08:25+02:00</time>
      </trkpt>
      <trkpt lat="48.33628" lon="6.34443">
        <ele>277.1006</ele>
        <time>2026-05-17T16:08:26+02:00</time>
      </trkpt>
      <trkpt lat="48.3363" lon="6.34434">
        <ele>277.2002</ele>
        <time>2026-05-17T16:08:27+02:00</time>
      </trkpt>
      <trkpt lat="48.33632" lon="6.34426">
        <ele>277.1006</ele>
        <time>2026-05-17T16:08:28+02:00</time>
      </trkpt>
      <trkpt lat="48.33635" lon="6.34418">
        <ele>277.4004</ele>
        <time>2026-05-17T16:08:29+02:00</time>
      </trkpt>
      <trkpt lat="48.33638" lon="6.34409">
        <ele>277.2002</ele>
        <time>2026-05-17T16:08:30+02:00</time>
      </trkpt>
      <trkpt lat="48.3364" lon="6.344">
        <ele>277.4004</ele>
        <time>2026-05-17T16:08:31+02:00</time>
      </trkpt>
      <trkpt lat="48.33643" lon="6.34392">
        <ele>277.4004</ele>
        <time>2026-05-17T16:08:32+02:00</time>
      </trkpt>
      <trkpt lat="48.33647" lon="6.34383">
        <ele>278.2998</ele>
        <time>2026-05-17T16:08:33+02:00</time>
      </trkpt>
      <trkpt lat="48.3365" lon="6.34374">
        <ele>277.9004</ele>
        <time>2026-05-17T16:08:34+02:00</time>
      </trkpt>
      <trkpt lat="48.33652" lon="6.34365">
        <ele>277.2002</ele>
        <time>2026-05-17T16:08:35+02:00</time>
      </trkpt>
      <trkpt lat="48.33655" lon="6.34356">
        <ele>276.7998</ele>
        <time>2026-05-17T16:08:36+02:00</time>
      </trkpt>
      <trkpt lat="48.33659" lon="6.34348">
        <ele>276.7002</ele>
        <time>2026-05-17T16:08:37+02:00</time>
      </trkpt>
      <trkpt lat="48.33661" lon="6.34339">
        <ele>276.9004</ele>
        <time>2026-05-17T16:08:38+02:00</time>
      </trkpt>
      <trkpt lat="48.33665" lon="6.3433">
        <ele>276.9004</ele>
        <time>2026-05-17T16:08:39+02:00</time>
      </trkpt>
      <trkpt lat="48.33668" lon="6.34322">
        <ele>276.7998</ele>
        <time>2026-05-17T16:08:40+02:00</time>
      </trkpt>
      <trkpt lat="48.33671" lon="6.34313">
        <ele>276.9004</ele>
        <time>2026-05-17T16:08:41+02:00</time>
      </trkpt>
      <trkpt lat="48.33674" lon="6.34304">
        <ele>276.9004</ele>
        <time>2026-05-17T16:08:42+02:00</time>
      </trkpt>
      <trkpt lat="48.33678" lon="6.34296">
        <ele>276.7002</ele>
        <time>2026-05-17T16:08:43+02:00</time>
      </trkpt>
      <trkpt lat="48.33681" lon="6.34288">
        <ele>277.2002</ele>
        <time>2026-05-17T16:08:44+02:00</time>
      </trkpt>
      <trkpt lat="48.33685" lon="6.3428">
        <ele>277.7998</ele>
        <time>2026-05-17T16:08:45+02:00</time>
      </trkpt>
      <trkpt lat="48.33688" lon="6.34271">
        <ele>277.7002</ele>
        <time>2026-05-17T16:08:46+02:00</time>
      </trkpt>
      <trkpt lat="48.33692" lon="6.34263">
        <ele>277.2002</ele>
        <time>2026-05-17T16:08:47+02:00</time>
      </trkpt>
      <trkpt lat="48.33696" lon="6.34255">
        <ele>277.2002</ele>
        <time>2026-05-17T16:08:48+02:00</time>
      </trkpt>
      <trkpt lat="48.33698" lon="6.3425">
        <ele>276.9004</ele>
        <time>2026-05-17T16:08:49+02:00</time>
      </trkpt>
      <trkpt lat="48.33703" lon="6.34239">
        <ele>276.9004</ele>
        <time>2026-05-17T16:08:50+02:00</time>
      </trkpt>
      <trkpt lat="48.33707" lon="6.3423">
        <ele>276.7998</ele>
        <time>2026-05-17T16:08:51+02:00</time>
      </trkpt>
      <trkpt lat="48.3371" lon="6.34223">
        <ele>277</ele>
        <time>2026-05-17T16:08:52+02:00</time>
      </trkpt>
      <trkpt lat="48.33714" lon="6.34215">
        <ele>277</ele>
        <time>2026-05-17T16:08:53+02:00</time>
      </trkpt>
      <trkpt lat="48.33717" lon="6.34207">
        <ele>276.9004</ele>
        <time>2026-05-17T16:08:54+02:00</time>
      </trkpt>
      <trkpt lat="48.33721" lon="6.34199">
        <ele>276.9004</ele>
        <time>2026-05-17T16:08:55+02:00</time>
      </trkpt>
      <trkpt lat="48.33725" lon="6.34192">
        <ele>276.9004</ele>
        <time>2026-05-17T16:08:56+02:00</time>
      </trkpt>
      <trkpt lat="48.33729" lon="6.34184">
        <ele>276.9004</ele>
        <time>2026-05-17T16:08:57+02:00</time>
      </trkpt>
      <trkpt lat="48.33732" lon="6.34177">
        <ele>276.9004</ele>
        <time>2026-05-17T16:08:58+02:00</time>
      </trkpt>
      <trkpt lat="48.33736" lon="6.3417">
        <ele>276.9004</ele>
        <time>2026-05-17T16:08:59+02:00</time>
      </trkpt>
      <trkpt lat="48.3374" lon="6.34162">
        <ele>276.9004</ele>
        <time>2026-05-17T16:09:00+02:00</time>
      </trkpt>
      <trkpt lat="48.33745" lon="6.34155">
        <ele>277</ele>
        <time>2026-05-17T16:09:01+02:00</time>
      </trkpt>
      <trkpt lat="48.33749" lon="6.34148">
        <ele>277.2002</ele>
        <time>2026-05-17T16:09:02+02:00</time>
      </trkpt>
      <trkpt lat="48.33753" lon="6.3414">
        <ele>277.2002</ele>
        <time>2026-05-17T16:09:03+02:00</time>
      </trkpt>
      <trkpt lat="48.33757" lon="6.34133">
        <ele>277.1006</ele>
        <time>2026-05-17T16:09:04+02:00</time>
      </trkpt>
      <trkpt lat="48.33761" lon="6.34126">
        <ele>277.2002</ele>
        <time>2026-05-17T16:09:05+02:00</time>
      </trkpt>
      <trkpt lat="48.33766" lon="6.34119">
        <ele>277.2002</ele>
        <time>2026-05-17T16:09:06+02:00</time>
      </trkpt>
      <trkpt lat="48.3377" lon="6.34111">
        <ele>277.1006</ele>
        <time>2026-05-17T16:09:07+02:00</time>
      </trkpt>
      <trkpt lat="48.33774" lon="6.34104">
        <ele>277.2998</ele>
        <time>2026-05-17T16:09:08+02:00</time>
      </trkpt>
      <trkpt lat="48.33779" lon="6.34096">
        <ele>277.2998</ele>
        <time>2026-05-17T16:09:09+02:00</time>
      </trkpt>
      <trkpt lat="48.33784" lon="6.34089">
        <ele>277.1006</ele>
        <time>2026-05-17T16:09:10+02:00</time>
      </trkpt>
      <trkpt lat="48.33789" lon="6.34083">
        <ele>277.2002</ele>
        <time>2026-05-17T16:09:11+02:00</time>
      </trkpt>
      <trkpt lat="48.33794" lon="6.34076">
        <ele>277.1006</ele>
        <time>2026-05-17T16:09:12+02:00</time>
      </trkpt>
      <trkpt lat="48.33799" lon="6.34069">
        <ele>277</ele>
        <time>2026-05-17T16:09:13+02:00</time>
      </trkpt>
      <trkpt lat="48.33804" lon="6.34062">
        <ele>277</ele>
        <time>2026-05-17T16:09:14+02:00</time>
      </trkpt>
      <trkpt lat="48.33809" lon="6.34055">
        <ele>276.9004</ele>
        <time>2026-05-17T16:09:15+02:00</time>
      </trkpt>
      <trkpt lat="48.33814" lon="6.34048">
        <ele>276.9004</ele>
        <time>2026-05-17T16:09:16+02:00</time>
      </trkpt>
      <trkpt lat="48.33819" lon="6.34041">
        <ele>276.9004</ele>
        <time>2026-05-17T16:09:17+02:00</time>
      </trkpt>
      <trkpt lat="48.33824" lon="6.34035">
        <ele>276.7998</ele>
        <time>2026-05-17T16:09:18+02:00</time>
      </trkpt>
      <trkpt lat="48.33829" lon="6.34028">
        <ele>276.7002</ele>
        <time>2026-05-17T16:09:19+02:00</time>
      </trkpt>
      <trkpt lat="48.33834" lon="6.34022">
        <ele>276.7002</ele>
        <time>2026-05-17T16:09:20+02:00</time>
      </trkpt>
      <trkpt lat="48.33839" lon="6.34016">
        <ele>276.7002</ele>
        <time>2026-05-17T16:09:21+02:00</time>
      </trkpt>
      <trkpt lat="48.33845" lon="6.3401">
        <ele>276.7002</ele>
        <time>2026-05-17T16:09:22+02:00</time>
      </trkpt>
      <trkpt lat="48.33847" lon="6.34007">
        <ele>276.7002</ele>
        <time>2026-05-17T16:09:23+02:00</time>
      </trkpt>
      <trkpt lat="48.33855" lon="6.33999">
        <ele>276.6006</ele>
        <time>2026-05-17T16:09:24+02:00</time>
      </trkpt>
      <trkpt lat="48.33861" lon="6.33994">
        <ele>276.5</ele>
        <time>2026-05-17T16:09:25+02:00</time>
      </trkpt>
      <trkpt lat="48.33866" lon="6.33989">
        <ele>276.4004</ele>
        <time>2026-05-17T16:09:26+02:00</time>
      </trkpt>
      <trkpt lat="48.33872" lon="6.33983">
        <ele>276.2998</ele>
        <time>2026-05-17T16:09:27+02:00</time>
      </trkpt>
      <trkpt lat="48.33877" lon="6.33978">
        <ele>276.2002</ele>
        <time>2026-05-17T16:09:28+02:00</time>
      </trkpt>
      <trkpt lat="48.33882" lon="6.33973">
        <ele>276</ele>
        <time>2026-05-17T16:09:29+02:00</time>
      </trkpt>
      <trkpt lat="48.33888" lon="6.33967">
        <ele>276</ele>
        <time>2026-05-17T16:09:30+02:00</time>
      </trkpt>
      <trkpt lat="48.33893" lon="6.33962">
        <ele>276</ele>
        <time>2026-05-17T16:09:31+02:00</time>
      </trkpt>
      <trkpt lat="48.33898" lon="6.33957">
        <ele>276</ele>
        <time>2026-05-17T16:09:32+02:00</time>
      </trkpt>
      <trkpt lat="48.33903" lon="6.33952">
        <ele>276</ele>
        <time>2026-05-17T16:09:33+02:00</time>
      </trkpt>
      <trkpt lat="48.33907" lon="6.33948">
        <ele>276</ele>
        <time>2026-05-17T16:09:34+02:00</time>
      </trkpt>
      <trkpt lat="48.33912" lon="6.33944">
        <ele>276.1006</ele>
        <time>2026-05-17T16:09:35+02:00</time>
      </trkpt>
      <trkpt lat="48.33916" lon="6.33942">
        <ele>275.9004</ele>
        <time>2026-05-17T16:09:36+02:00</time>
      </trkpt>
      <trkpt lat="48.3392" lon="6.33941">
        <ele>275.6006</ele>
        <time>2026-05-17T16:09:37+02:00</time>
      </trkpt>
      <trkpt lat="48.33924" lon="6.33939">
        <ele>275.6006</ele>
        <time>2026-05-17T16:09:38+02:00</time>
      </trkpt>
      <trkpt lat="48.33927" lon="6.33938">
        <ele>275.5</ele>
        <time>2026-05-17T16:09:39+02:00</time>
      </trkpt>
      <trkpt lat="48.33931" lon="6.33936">
        <ele>275.2998</ele>
        <time>2026-05-17T16:09:40+02:00</time>
      </trkpt>
      <trkpt lat="48.33935" lon="6.33933">
        <ele>275.2998</ele>
        <time>2026-05-17T16:09:41+02:00</time>
      </trkpt>
      <trkpt lat="48.33939" lon="6.33929">
        <ele>275.4004</ele>
        <time>2026-05-17T16:09:42+02:00</time>
      </trkpt>
      <trkpt lat="48.33944" lon="6.33925">
        <ele>275.4004</ele>
        <time>2026-05-17T16:09:43+02:00</time>
      </trkpt>
      <trkpt lat="48.33949" lon="6.33922">
        <ele>275.4004</ele>
        <time>2026-05-17T16:09:44+02:00</time>
      </trkpt>
      <trkpt lat="48.33956" lon="6.33918">
        <ele>275.4004</ele>
        <time>2026-05-17T16:09:45+02:00</time>
      </trkpt>
      <trkpt lat="48.33962" lon="6.33914">
        <ele>275.4004</ele>
        <time>2026-05-17T16:09:46+02:00</time>
      </trkpt>
      <trkpt lat="48.33968" lon="6.3391">
        <ele>275.2998</ele>
        <time>2026-05-17T16:09:47+02:00</time>
      </trkpt>
      <trkpt lat="48.33975" lon="6.33906">
        <ele>275.4004</ele>
        <time>2026-05-17T16:09:48+02:00</time>
      </trkpt>
      <trkpt lat="48.33981" lon="6.33903">
        <ele>275.4004</ele>
        <time>2026-05-17T16:09:49+02:00</time>
      </trkpt>
      <trkpt lat="48.33987" lon="6.33899">
        <ele>275.4004</ele>
        <time>2026-05-17T16:09:50+02:00</time>
      </trkpt>
      <trkpt lat="48.33993" lon="6.33895">
        <ele>275.5</ele>
        <time>2026-05-17T16:09:51+02:00</time>
      </trkpt>
      <trkpt lat="48.33996" lon="6.33893">
        <ele>275.5</ele>
        <time>2026-05-17T16:09:52+02:00</time>
      </trkpt>
      <trkpt lat="48.34006" lon="6.33888">
        <ele>275.6006</ele>
        <time>2026-05-17T16:09:53+02:00</time>
      </trkpt>
      <trkpt lat="48.34012" lon="6.33883">
        <ele>275.6006</ele>
        <time>2026-05-17T16:09:54+02:00</time>
      </trkpt>
      <trkpt lat="48.34017" lon="6.33877">
        <ele>275.6006</ele>
        <time>2026-05-17T16:09:55+02:00</time>
      </trkpt>
      <trkpt lat="48.34021" lon="6.3387">
        <ele>275.6006</ele>
        <time>2026-05-17T16:09:56+02:00</time>
      </trkpt>
      <trkpt lat="48.34025" lon="6.33862">
        <ele>275.7002</ele>
        <time>2026-05-17T16:09:57+02:00</time>
      </trkpt>
      <trkpt lat="48.34027" lon="6.33854">
        <ele>275.7002</ele>
        <time>2026-05-17T16:09:58+02:00</time>
      </trkpt>
      <trkpt lat="48.34029" lon="6.33845">
        <ele>275.7002</ele>
        <time>2026-05-17T16:09:59+02:00</time>
      </trkpt>
      <trkpt lat="48.34031" lon="6.33836">
        <ele>275.7002</ele>
        <time>2026-05-17T16:10:00+02:00</time>
      </trkpt>
      <trkpt lat="48.34032" lon="6.33826">
        <ele>275.6006</ele>
        <time>2026-05-17T16:10:01+02:00</time>
      </trkpt>
      <trkpt lat="48.34033" lon="6.33817">
        <ele>275.5</ele>
        <time>2026-05-17T16:10:02+02:00</time>
      </trkpt>
      <trkpt lat="48.34034" lon="6.33807">
        <ele>275.4004</ele>
        <time>2026-05-17T16:10:03+02:00</time>
      </trkpt>
      <trkpt lat="48.34035" lon="6.33798">
        <ele>275.2002</ele>
        <time>2026-05-17T16:10:04+02:00</time>
      </trkpt>
      <trkpt lat="48.34036" lon="6.3379">
        <ele>275.2002</ele>
        <time>2026-05-17T16:10:05+02:00</time>
      </trkpt>
      <trkpt lat="48.34038" lon="6.33781">
        <ele>275.1006</ele>
        <time>2026-05-17T16:10:06+02:00</time>
      </trkpt>
      <trkpt lat="48.34041" lon="6.33775">
        <ele>275.2002</ele>
        <time>2026-05-17T16:10:07+02:00</time>
      </trkpt>
      <trkpt lat="48.34044" lon="6.33769">
        <ele>275.1006</ele>
        <time>2026-05-17T16:10:08+02:00</time>
      </trkpt>
      <trkpt lat="48.34049" lon="6.33765">
        <ele>275.1006</ele>
        <time>2026-05-17T16:10:09+02:00</time>
      </trkpt>
      <trkpt lat="48.34055" lon="6.33762">
        <ele>275.2002</ele>
        <time>2026-05-17T16:10:10+02:00</time>
      </trkpt>
      <trkpt lat="48.3406" lon="6.33758">
        <ele>275.2998</ele>
        <time>2026-05-17T16:10:11+02:00</time>
      </trkpt>
      <trkpt lat="48.34066" lon="6.33754">
        <ele>275.2998</ele>
        <time>2026-05-17T16:10:12+02:00</time>
      </trkpt>
      <trkpt lat="48.34071" lon="6.3375">
        <ele>275.4004</ele>
        <time>2026-05-17T16:10:13+02:00</time>
      </trkpt>
      <trkpt lat="48.34076" lon="6.33745">
        <ele>275.4004</ele>
        <time>2026-05-17T16:10:14+02:00</time>
      </trkpt>
      <trkpt lat="48.34082" lon="6.33741">
        <ele>275.5</ele>
        <time>2026-05-17T16:10:15+02:00</time>
      </trkpt>
      <trkpt lat="48.34088" lon="6.33737">
        <ele>275.4004</ele>
        <time>2026-05-17T16:10:16+02:00</time>
      </trkpt>
      <trkpt lat="48.34093" lon="6.33732">
        <ele>275.4004</ele>
        <time>2026-05-17T16:10:17+02:00</time>
      </trkpt>
      <trkpt lat="48.34098" lon="6.33728">
        <ele>275.2998</ele>
        <time>2026-05-17T16:10:18+02:00</time>
      </trkpt>
      <trkpt lat="48.34104" lon="6.33724">
        <ele>275.2998</ele>
        <time>2026-05-17T16:10:19+02:00</time>
      </trkpt>
      <trkpt lat="48.34109" lon="6.33719">
        <ele>275.2002</ele>
        <time>2026-05-17T16:10:20+02:00</time>
      </trkpt>
      <trkpt lat="48.34115" lon="6.33715">
        <ele>275.2998</ele>
        <time>2026-05-17T16:10:21+02:00</time>
      </trkpt>
      <trkpt lat="48.34117" lon="6.33713">
        <ele>275.2002</ele>
        <time>2026-05-17T16:10:22+02:00</time>
      </trkpt>
      <trkpt lat="48.34125" lon="6.33707">
        <ele>275.4004</ele>
        <time>2026-05-17T16:10:23+02:00</time>
      </trkpt>
      <trkpt lat="48.34131" lon="6.33702">
        <ele>275.2998</ele>
        <time>2026-05-17T16:10:24+02:00</time>
      </trkpt>
      <trkpt lat="48.34136" lon="6.33698">
        <ele>275.2998</ele>
        <time>2026-05-17T16:10:25+02:00</time>
      </trkpt>
      <trkpt lat="48.34142" lon="6.33694">
        <ele>275.2998</ele>
        <time>2026-05-17T16:10:26+02:00</time>
      </trkpt>
      <trkpt lat="48.34147" lon="6.3369">
        <ele>275.2998</ele>
        <time>2026-05-17T16:10:27+02:00</time>
      </trkpt>
      <trkpt lat="48.34152" lon="6.33686">
        <ele>275.2002</ele>
        <time>2026-05-17T16:10:28+02:00</time>
      </trkpt>
      <trkpt lat="48.34158" lon="6.33682">
        <ele>275.2998</ele>
        <time>2026-05-17T16:10:29+02:00</time>
      </trkpt>
      <trkpt lat="48.34163" lon="6.33678">
        <ele>275.4004</ele>
        <time>2026-05-17T16:10:30+02:00</time>
      </trkpt>
      <trkpt lat="48.34168" lon="6.33674">
        <ele>275.5</ele>
        <time>2026-05-17T16:10:31+02:00</time>
      </trkpt>
      <trkpt lat="48.34174" lon="6.3367">
        <ele>275.5</ele>
        <time>2026-05-17T16:10:32+02:00</time>
      </trkpt>
      <trkpt lat="48.34179" lon="6.33666">
        <ele>275.6006</ele>
        <time>2026-05-17T16:10:33+02:00</time>
      </trkpt>
      <trkpt lat="48.34184" lon="6.33662">
        <ele>275.6006</ele>
        <time>2026-05-17T16:10:34+02:00</time>
      </trkpt>
      <trkpt lat="48.34189" lon="6.33658">
        <ele>275.7998</ele>
        <time>2026-05-17T16:10:35+02:00</time>
      </trkpt>
      <trkpt lat="48.34194" lon="6.33655">
        <ele>275.7998</ele>
        <time>2026-05-17T16:10:36+02:00</time>
      </trkpt>
      <trkpt lat="48.342" lon="6.33651">
        <ele>275.7002</ele>
        <time>2026-05-17T16:10:37+02:00</time>
      </trkpt>
      <trkpt lat="48.34205" lon="6.33647">
        <ele>275.7002</ele>
        <time>2026-05-17T16:10:38+02:00</time>
      </trkpt>
      <trkpt lat="48.3421" lon="6.33643">
        <ele>275.6006</ele>
        <time>2026-05-17T16:10:39+02:00</time>
      </trkpt>
      <trkpt lat="48.34215" lon="6.33639">
        <ele>275.6006</ele>
        <time>2026-05-17T16:10:40+02:00</time>
      </trkpt>
      <trkpt lat="48.3422" lon="6.33635">
        <ele>275.5</ele>
        <time>2026-05-17T16:10:41+02:00</time>
      </trkpt>
      <trkpt lat="48.34225" lon="6.33631">
        <ele>275.5</ele>
        <time>2026-05-17T16:10:42+02:00</time>
      </trkpt>
      <trkpt lat="48.3423" lon="6.33627">
        <ele>275.5</ele>
        <time>2026-05-17T16:10:43+02:00</time>
      </trkpt>
      <trkpt lat="48.34236" lon="6.33623">
        <ele>275.6006</ele>
        <time>2026-05-17T16:10:44+02:00</time>
      </trkpt>
      <trkpt lat="48.34241" lon="6.33619">
        <ele>275.6006</ele>
        <time>2026-05-17T16:10:45+02:00</time>
      </trkpt>
      <trkpt lat="48.34246" lon="6.33615">
        <ele>275.5</ele>
        <time>2026-05-17T16:10:46+02:00</time>
      </trkpt>
      <trkpt lat="48.34251" lon="6.33611">
        <ele>275.5</ele>
        <time>2026-05-17T16:10:47+02:00</time>
      </trkpt>
      <trkpt lat="48.34257" lon="6.33607">
        <ele>275.4004</ele>
        <time>2026-05-17T16:10:48+02:00</time>
      </trkpt>
      <trkpt lat="48.34262" lon="6.33603">
        <ele>275.4004</ele>
        <time>2026-05-17T16:10:49+02:00</time>
      </trkpt>
      <trkpt lat="48.34268" lon="6.33599">
        <ele>275.4004</ele>
        <time>2026-05-17T16:10:50+02:00</time>
      </trkpt>
      <trkpt lat="48.34273" lon="6.33595">
        <ele>275.4004</ele>
        <time>2026-05-17T16:10:51+02:00</time>
      </trkpt>
      <trkpt lat="48.34278" lon="6.3359">
        <ele>275.4004</ele>
        <time>2026-05-17T16:10:52+02:00</time>
      </trkpt>
      <trkpt lat="48.34283" lon="6.33586">
        <ele>275.4004</ele>
        <time>2026-05-17T16:10:53+02:00</time>
      </trkpt>
      <trkpt lat="48.34289" lon="6.33582">
        <ele>275.4004</ele>
        <time>2026-05-17T16:10:54+02:00</time>
      </trkpt>
      <trkpt lat="48.34294" lon="6.33578">
        <ele>275.4004</ele>
        <time>2026-05-17T16:10:55+02:00</time>
      </trkpt>
      <trkpt lat="48.34299" lon="6.33574">
        <ele>275.2998</ele>
        <time>2026-05-17T16:10:56+02:00</time>
      </trkpt>
      <trkpt lat="48.34303" lon="6.33569">
        <ele>275.4004</ele>
        <time>2026-05-17T16:10:57+02:00</time>
      </trkpt>
      <trkpt lat="48.34307" lon="6.33564">
        <ele>275.2998</ele>
        <time>2026-05-17T16:10:58+02:00</time>
      </trkpt>
      <trkpt lat="48.34311" lon="6.33559">
        <ele>275.2002</ele>
        <time>2026-05-17T16:10:59+02:00</time>
      </trkpt>
      <trkpt lat="48.34315" lon="6.33554">
        <ele>275.2998</ele>
        <time>2026-05-17T16:11:00+02:00</time>
      </trkpt>
      <trkpt lat="48.3432" lon="6.33551">
        <ele>275.2998</ele>
        <time>2026-05-17T16:11:01+02:00</time>
      </trkpt>
      <trkpt lat="48.34325" lon="6.33548">
        <ele>275.2002</ele>
        <time>2026-05-17T16:11:02+02:00</time>
      </trkpt>
      <trkpt lat="48.3433" lon="6.33545">
        <ele>275.2002</ele>
        <time>2026-05-17T16:11:03+02:00</time>
      </trkpt>
      <trkpt lat="48.34336" lon="6.33543">
        <ele>275.4004</ele>
        <time>2026-05-17T16:11:04+02:00</time>
      </trkpt>
      <trkpt lat="48.34341" lon="6.3354">
        <ele>275.2998</ele>
        <time>2026-05-17T16:11:05+02:00</time>
      </trkpt>
      <trkpt lat="48.34347" lon="6.33537">
        <ele>275.4004</ele>
        <time>2026-05-17T16:11:06+02:00</time>
      </trkpt>
      <trkpt lat="48.34352" lon="6.33535">
        <ele>275.4004</ele>
        <time>2026-05-17T16:11:07+02:00</time>
      </trkpt>
      <trkpt lat="48.34358" lon="6.33532">
        <ele>275.4004</ele>
        <time>2026-05-17T16:11:08+02:00</time>
      </trkpt>
      <trkpt lat="48.34363" lon="6.33529">
        <ele>275.4004</ele>
        <time>2026-05-17T16:11:09+02:00</time>
      </trkpt>
      <trkpt lat="48.34369" lon="6.33525">
        <ele>275.4004</ele>
        <time>2026-05-17T16:11:10+02:00</time>
      </trkpt>
      <trkpt lat="48.34374" lon="6.33522">
        <ele>275.2998</ele>
        <time>2026-05-17T16:11:11+02:00</time>
      </trkpt>
      <trkpt lat="48.34379" lon="6.33519">
        <ele>275.2998</ele>
        <time>2026-05-17T16:11:12+02:00</time>
      </trkpt>
      <trkpt lat="48.34385" lon="6.33515">
        <ele>275.2002</ele>
        <time>2026-05-17T16:11:13+02:00</time>
      </trkpt>
      <trkpt lat="48.3439" lon="6.33512">
        <ele>275.2002</ele>
        <time>2026-05-17T16:11:14+02:00</time>
      </trkpt>
      <trkpt lat="48.34396" lon="6.33509">
        <ele>275.2002</ele>
        <time>2026-05-17T16:11:15+02:00</time>
      </trkpt>
      <trkpt lat="48.34401" lon="6.33505">
        <ele>275.1006</ele>
        <time>2026-05-17T16:11:16+02:00</time>
      </trkpt>
      <trkpt lat="48.34406" lon="6.33502">
        <ele>275.1006</ele>
        <time>2026-05-17T16:11:17+02:00</time>
      </trkpt>
      <trkpt lat="48.34412" lon="6.33498">
        <ele>275</ele>
        <time>2026-05-17T16:11:18+02:00</time>
      </trkpt>
      <trkpt lat="48.34417" lon="6.33495">
        <ele>275</ele>
        <time>2026-05-17T16:11:19+02:00</time>
      </trkpt>
      <trkpt lat="48.34423" lon="6.33491">
        <ele>275</ele>
        <time>2026-05-17T16:11:20+02:00</time>
      </trkpt>
      <trkpt lat="48.34428" lon="6.33487">
        <ele>274.9004</ele>
        <time>2026-05-17T16:11:21+02:00</time>
      </trkpt>
      <trkpt lat="48.34433" lon="6.33484">
        <ele>274.9004</ele>
        <time>2026-05-17T16:11:22+02:00</time>
      </trkpt>
      <trkpt lat="48.34438" lon="6.3348">
        <ele>274.9004</ele>
        <time>2026-05-17T16:11:23+02:00</time>
      </trkpt>
      <trkpt lat="48.34444" lon="6.33476">
        <ele>274.9004</ele>
        <time>2026-05-17T16:11:24+02:00</time>
      </trkpt>
      <trkpt lat="48.34449" lon="6.33473">
        <ele>274.7998</ele>
        <time>2026-05-17T16:11:25+02:00</time>
      </trkpt>
      <trkpt lat="48.34454" lon="6.33469">
        <ele>274.7998</ele>
        <time>2026-05-17T16:11:26+02:00</time>
      </trkpt>
      <trkpt lat="48.34459" lon="6.33465">
        <ele>274.7998</ele>
        <time>2026-05-17T16:11:27+02:00</time>
      </trkpt>
      <trkpt lat="48.34465" lon="6.33461">
        <ele>274.7998</ele>
        <time>2026-05-17T16:11:28+02:00</time>
      </trkpt>
      <trkpt lat="48.3447" lon="6.33457">
        <ele>274.7998</ele>
        <time>2026-05-17T16:11:29+02:00</time>
      </trkpt>
      <trkpt lat="48.34476" lon="6.33453">
        <ele>274.7998</ele>
        <time>2026-05-17T16:11:30+02:00</time>
      </trkpt>
      <trkpt lat="48.34481" lon="6.33449">
        <ele>274.7998</ele>
        <time>2026-05-17T16:11:31+02:00</time>
      </trkpt>
      <trkpt lat="48.34487" lon="6.33446">
        <ele>274.7998</ele>
        <time>2026-05-17T16:11:32+02:00</time>
      </trkpt>
      <trkpt lat="48.34492" lon="6.33442">
        <ele>274.7998</ele>
        <time>2026-05-17T16:11:33+02:00</time>
      </trkpt>
      <trkpt lat="48.34498" lon="6.33438">
        <ele>274.7998</ele>
        <time>2026-05-17T16:11:34+02:00</time>
      </trkpt>
      <trkpt lat="48.34503" lon="6.33434">
        <ele>274.7998</ele>
        <time>2026-05-17T16:11:35+02:00</time>
      </trkpt>
      <trkpt lat="48.34508" lon="6.3343">
        <ele>274.7998</ele>
        <time>2026-05-17T16:11:36+02:00</time>
      </trkpt>
      <trkpt lat="48.34514" lon="6.33426">
        <ele>274.7998</ele>
        <time>2026-05-17T16:11:37+02:00</time>
      </trkpt>
      <trkpt lat="48.34519" lon="6.33422">
        <ele>274.7998</ele>
        <time>2026-05-17T16:11:38+02:00</time>
      </trkpt>
      <trkpt lat="48.34524" lon="6.33418">
        <ele>274.7998</ele>
        <time>2026-05-17T16:11:39+02:00</time>
      </trkpt>
      <trkpt lat="48.3453" lon="6.33414">
        <ele>274.7998</ele>
        <time>2026-05-17T16:11:40+02:00</time>
      </trkpt>
      <trkpt lat="48.34535" lon="6.33409">
        <ele>274.7998</ele>
        <time>2026-05-17T16:11:41+02:00</time>
      </trkpt>
      <trkpt lat="48.34541" lon="6.33405">
        <ele>274.7998</ele>
        <time>2026-05-17T16:11:42+02:00</time>
      </trkpt>
      <trkpt lat="48.34547" lon="6.33401">
        <ele>274.7998</ele>
        <time>2026-05-17T16:11:43+02:00</time>
      </trkpt>
      <trkpt lat="48.34552" lon="6.33397">
        <ele>274.7998</ele>
        <time>2026-05-17T16:11:44+02:00</time>
      </trkpt>
      <trkpt lat="48.34558" lon="6.33393">
        <ele>274.7998</ele>
        <time>2026-05-17T16:11:45+02:00</time>
      </trkpt>
      <trkpt lat="48.34564" lon="6.33389">
        <ele>274.7998</ele>
        <time>2026-05-17T16:11:46+02:00</time>
      </trkpt>
      <trkpt lat="48.34569" lon="6.33384">
        <ele>274.7002</ele>
        <time>2026-05-17T16:11:47+02:00</time>
      </trkpt>
      <trkpt lat="48.34575" lon="6.3338">
        <ele>274.7998</ele>
        <time>2026-05-17T16:11:48+02:00</time>
      </trkpt>
      <trkpt lat="48.34581" lon="6.33376">
        <ele>274.7998</ele>
        <time>2026-05-17T16:11:49+02:00</time>
      </trkpt>
      <trkpt lat="48.34586" lon="6.33372">
        <ele>274.9004</ele>
        <time>2026-05-17T16:11:50+02:00</time>
      </trkpt>
      <trkpt lat="48.34592" lon="6.33368">
        <ele>274.7998</ele>
        <time>2026-05-17T16:11:51+02:00</time>
      </trkpt>
      <trkpt lat="48.34598" lon="6.33364">
        <ele>274.7998</ele>
        <time>2026-05-17T16:11:52+02:00</time>
      </trkpt>
      <trkpt lat="48.34604" lon="6.33359">
        <ele>274.7998</ele>
        <time>2026-05-17T16:11:53+02:00</time>
      </trkpt>
      <trkpt lat="48.34609" lon="6.33355">
        <ele>274.7998</ele>
        <time>2026-05-17T16:11:54+02:00</time>
      </trkpt>
      <trkpt lat="48.34615" lon="6.33351">
        <ele>274.7002</ele>
        <time>2026-05-17T16:11:55+02:00</time>
      </trkpt>
      <trkpt lat="48.3462" lon="6.33347">
        <ele>274.7002</ele>
        <time>2026-05-17T16:11:56+02:00</time>
      </trkpt>
      <trkpt lat="48.34626" lon="6.33343">
        <ele>274.7002</ele>
        <time>2026-05-17T16:11:57+02:00</time>
      </trkpt>
      <trkpt lat="48.34631" lon="6.33339">
        <ele>274.7002</ele>
        <time>2026-05-17T16:11:58+02:00</time>
      </trkpt>
      <trkpt lat="48.34637" lon="6.33335">
        <ele>274.6006</ele>
        <time>2026-05-17T16:11:59+02:00</time>
      </trkpt>
      <trkpt lat="48.34643" lon="6.3333">
        <ele>274.6006</ele>
        <time>2026-05-17T16:12:00+02:00</time>
      </trkpt>
      <trkpt lat="48.34648" lon="6.33326">
        <ele>274.6006</ele>
        <time>2026-05-17T16:12:01+02:00</time>
      </trkpt>
      <trkpt lat="48.34654" lon="6.33322">
        <ele>274.6006</ele>
        <time>2026-05-17T16:12:02+02:00</time>
      </trkpt>
      <trkpt lat="48.34659" lon="6.33318">
        <ele>274.6006</ele>
        <time>2026-05-17T16:12:03+02:00</time>
      </trkpt>
      <trkpt lat="48.34665" lon="6.33314">
        <ele>274.6006</ele>
        <time>2026-05-17T16:12:04+02:00</time>
      </trkpt>
      <trkpt lat="48.34671" lon="6.3331">
        <ele>274.6006</ele>
        <time>2026-05-17T16:12:05+02:00</time>
      </trkpt>
      <trkpt lat="48.34676" lon="6.33306">
        <ele>274.6006</ele>
        <time>2026-05-17T16:12:06+02:00</time>
      </trkpt>
      <trkpt lat="48.34681" lon="6.33302">
        <ele>274.6006</ele>
        <time>2026-05-17T16:12:07+02:00</time>
      </trkpt>
      <trkpt lat="48.34687" lon="6.33298">
        <ele>274.6006</ele>
        <time>2026-05-17T16:12:08+02:00</time>
      </trkpt>
      <trkpt lat="48.34693" lon="6.33294">
        <ele>274.5</ele>
        <time>2026-05-17T16:12:09+02:00</time>
      </trkpt>
      <trkpt lat="48.34698" lon="6.3329">
        <ele>274.5</ele>
        <time>2026-05-17T16:12:10+02:00</time>
      </trkpt>
      <trkpt lat="48.34704" lon="6.33286">
        <ele>274.5</ele>
        <time>2026-05-17T16:12:11+02:00</time>
      </trkpt>
      <trkpt lat="48.34709" lon="6.33282">
        <ele>274.5</ele>
        <time>2026-05-17T16:12:12+02:00</time>
      </trkpt>
      <trkpt lat="48.34715" lon="6.33278">
        <ele>274.5</ele>
        <time>2026-05-17T16:12:13+02:00</time>
      </trkpt>
      <trkpt lat="48.34721" lon="6.33274">
        <ele>274.5</ele>
        <time>2026-05-17T16:12:14+02:00</time>
      </trkpt>
      <trkpt lat="48.34726" lon="6.33269">
        <ele>274.5</ele>
        <time>2026-05-17T16:12:15+02:00</time>
      </trkpt>
      <trkpt lat="48.34732" lon="6.33265">
        <ele>274.5</ele>
        <time>2026-05-17T16:12:16+02:00</time>
      </trkpt>
      <trkpt lat="48.34738" lon="6.33261">
        <ele>274.5</ele>
        <time>2026-05-17T16:12:17+02:00</time>
      </trkpt>
      <trkpt lat="48.34743" lon="6.33257">
        <ele>274.4004</ele>
        <time>2026-05-17T16:12:18+02:00</time>
      </trkpt>
      <trkpt lat="48.34749" lon="6.33253">
        <ele>274.4004</ele>
        <time>2026-05-17T16:12:19+02:00</time>
      </trkpt>
      <trkpt lat="48.34754" lon="6.33248">
        <ele>274.4004</ele>
        <time>2026-05-17T16:12:20+02:00</time>
      </trkpt>
      <trkpt lat="48.34759" lon="6.33244">
        <ele>274.4004</ele>
        <time>2026-05-17T16:12:21+02:00</time>
      </trkpt>
      <trkpt lat="48.34764" lon="6.3324">
        <ele>274.2998</ele>
        <time>2026-05-17T16:12:22+02:00</time>
      </trkpt>
      <trkpt lat="48.34769" lon="6.33236">
        <ele>274.2998</ele>
        <time>2026-05-17T16:12:23+02:00</time>
      </trkpt>
      <trkpt lat="48.34774" lon="6.33232">
        <ele>274.2998</ele>
        <time>2026-05-17T16:12:24+02:00</time>
      </trkpt>
      <trkpt lat="48.34779" lon="6.33228">
        <ele>274.2998</ele>
        <time>2026-05-17T16:12:25+02:00</time>
      </trkpt>
      <trkpt lat="48.34784" lon="6.33225">
        <ele>274.2002</ele>
        <time>2026-05-17T16:12:26+02:00</time>
      </trkpt>
      <trkpt lat="48.34789" lon="6.33221">
        <ele>274.2002</ele>
        <time>2026-05-17T16:12:27+02:00</time>
      </trkpt>
      <trkpt lat="48.34794" lon="6.33216">
        <ele>274.1006</ele>
        <time>2026-05-17T16:12:28+02:00</time>
      </trkpt>
      <trkpt lat="48.34799" lon="6.3321">
        <ele>274.1006</ele>
        <time>2026-05-17T16:12:29+02:00</time>
      </trkpt>
      <trkpt lat="48.34803" lon="6.33204">
        <ele>274.1006</ele>
        <time>2026-05-17T16:12:30+02:00</time>
      </trkpt>
      <trkpt lat="48.34807" lon="6.33198">
        <ele>274.2002</ele>
        <time>2026-05-17T16:12:31+02:00</time>
      </trkpt>
      <trkpt lat="48.34812" lon="6.33192">
        <ele>274.1006</ele>
        <time>2026-05-17T16:12:32+02:00</time>
      </trkpt>
      <trkpt lat="48.34816" lon="6.33186">
        <ele>274.1006</ele>
        <time>2026-05-17T16:12:33+02:00</time>
      </trkpt>
      <trkpt lat="48.3482" lon="6.3318">
        <ele>274.1006</ele>
        <time>2026-05-17T16:12:34+02:00</time>
      </trkpt>
      <trkpt lat="48.34824" lon="6.33173">
        <ele>274.1006</ele>
        <time>2026-05-17T16:12:35+02:00</time>
      </trkpt>
      <trkpt lat="48.34828" lon="6.33167">
        <ele>274.1006</ele>
        <time>2026-05-17T16:12:36+02:00</time>
      </trkpt>
      <trkpt lat="48.34832" lon="6.3316">
        <ele>274.1006</ele>
        <time>2026-05-17T16:12:37+02:00</time>
      </trkpt>
      <trkpt lat="48.34835" lon="6.33153">
        <ele>274.2002</ele>
        <time>2026-05-17T16:12:38+02:00</time>
      </trkpt>
      <trkpt lat="48.34837" lon="6.3315">
        <ele>274.2002</ele>
        <time>2026-05-17T16:12:39+02:00</time>
      </trkpt>
      <trkpt lat="48.34842" lon="6.33139">
        <ele>274.2002</ele>
        <time>2026-05-17T16:12:40+02:00</time>
      </trkpt>
      <trkpt lat="48.34845" lon="6.33131">
        <ele>274.2998</ele>
        <time>2026-05-17T16:12:41+02:00</time>
      </trkpt>
      <trkpt lat="48.34849" lon="6.33124">
        <ele>274.2998</ele>
        <time>2026-05-17T16:12:42+02:00</time>
      </trkpt>
      <trkpt lat="48.34852" lon="6.33117">
        <ele>274.4004</ele>
        <time>2026-05-17T16:12:43+02:00</time>
      </trkpt>
      <trkpt lat="48.34856" lon="6.3311">
        <ele>274.4004</ele>
        <time>2026-05-17T16:12:44+02:00</time>
      </trkpt>
      <trkpt lat="48.34859" lon="6.33102">
        <ele>274.2998</ele>
        <time>2026-05-17T16:12:45+02:00</time>
      </trkpt>
      <trkpt lat="48.34862" lon="6.33094">
        <ele>274.4004</ele>
        <time>2026-05-17T16:12:46+02:00</time>
      </trkpt>
      <trkpt lat="48.34866" lon="6.33087">
        <ele>274.5</ele>
        <time>2026-05-17T16:12:47+02:00</time>
      </trkpt>
      <trkpt lat="48.34869" lon="6.33079">
        <ele>274.6006</ele>
        <time>2026-05-17T16:12:48+02:00</time>
      </trkpt>
      <trkpt lat="48.34872" lon="6.33072">
        <ele>274.5</ele>
        <time>2026-05-17T16:12:49+02:00</time>
      </trkpt>
      <trkpt lat="48.34875" lon="6.33064">
        <ele>274.2002</ele>
        <time>2026-05-17T16:12:50+02:00</time>
      </trkpt>
      <trkpt lat="48.34878" lon="6.33057">
        <ele>274.4004</ele>
        <time>2026-05-17T16:12:51+02:00</time>
      </trkpt>
      <trkpt lat="48.34882" lon="6.33049">
        <ele>274.4004</ele>
        <time>2026-05-17T16:12:52+02:00</time>
      </trkpt>
      <trkpt lat="48.34885" lon="6.33042">
        <ele>274.5</ele>
        <time>2026-05-17T16:12:53+02:00</time>
      </trkpt>
      <trkpt lat="48.34888" lon="6.33034">
        <ele>274.4004</ele>
        <time>2026-05-17T16:12:54+02:00</time>
      </trkpt>
      <trkpt lat="48.34891" lon="6.33027">
        <ele>274.2002</ele>
        <time>2026-05-17T16:12:55+02:00</time>
      </trkpt>
      <trkpt lat="48.34894" lon="6.3302">
        <ele>274.2002</ele>
        <time>2026-05-17T16:12:56+02:00</time>
      </trkpt>
      <trkpt lat="48.34898" lon="6.33013">
        <ele>274.2002</ele>
        <time>2026-05-17T16:12:57+02:00</time>
      </trkpt>
      <trkpt lat="48.34901" lon="6.33005">
        <ele>274.2998</ele>
        <time>2026-05-17T16:12:58+02:00</time>
      </trkpt>
      <trkpt lat="48.34905" lon="6.32998">
        <ele>274.1006</ele>
        <time>2026-05-17T16:12:59+02:00</time>
      </trkpt>
      <trkpt lat="48.34908" lon="6.3299">
        <ele>274.1006</ele>
        <time>2026-05-17T16:13:00+02:00</time>
      </trkpt>
      <trkpt lat="48.34911" lon="6.32983">
        <ele>274</ele>
        <time>2026-05-17T16:13:01+02:00</time>
      </trkpt>
      <trkpt lat="48.34915" lon="6.32975">
        <ele>274.1006</ele>
        <time>2026-05-17T16:13:02+02:00</time>
      </trkpt>
      <trkpt lat="48.34918" lon="6.32968">
        <ele>274.2002</ele>
        <time>2026-05-17T16:13:03+02:00</time>
      </trkpt>
      <trkpt lat="48.34921" lon="6.3296">
        <ele>274.2002</ele>
        <time>2026-05-17T16:13:04+02:00</time>
      </trkpt>
      <trkpt lat="48.34924" lon="6.32953">
        <ele>274.2998</ele>
        <time>2026-05-17T16:13:05+02:00</time>
      </trkpt>
      <trkpt lat="48.34927" lon="6.32945">
        <ele>274.2998</ele>
        <time>2026-05-17T16:13:06+02:00</time>
      </trkpt>
      <trkpt lat="48.34931" lon="6.32938">
        <ele>274.4004</ele>
        <time>2026-05-17T16:13:07+02:00</time>
      </trkpt>
      <trkpt lat="48.34934" lon="6.32931">
        <ele>274.2998</ele>
        <time>2026-05-17T16:13:08+02:00</time>
      </trkpt>
      <trkpt lat="48.34937" lon="6.32924">
        <ele>274.1006</ele>
        <time>2026-05-17T16:13:09+02:00</time>
      </trkpt>
      <trkpt lat="48.34941" lon="6.32916">
        <ele>274.2002</ele>
        <time>2026-05-17T16:13:10+02:00</time>
      </trkpt>
      <trkpt lat="48.34944" lon="6.32909">
        <ele>274.1006</ele>
        <time>2026-05-17T16:13:11+02:00</time>
      </trkpt>
      <trkpt lat="48.34947" lon="6.32902">
        <ele>274.1006</ele>
        <time>2026-05-17T16:13:12+02:00</time>
      </trkpt>
      <trkpt lat="48.34951" lon="6.32895">
        <ele>274.1006</ele>
        <time>2026-05-17T16:13:13+02:00</time>
      </trkpt>
      <trkpt lat="48.34954" lon="6.32887">
        <ele>274.1006</ele>
        <time>2026-05-17T16:13:14+02:00</time>
      </trkpt>
      <trkpt lat="48.34957" lon="6.3288">
        <ele>274.1006</ele>
        <time>2026-05-17T16:13:15+02:00</time>
      </trkpt>
      <trkpt lat="48.34961" lon="6.32872">
        <ele>274</ele>
        <time>2026-05-17T16:13:16+02:00</time>
      </trkpt>
      <trkpt lat="48.34964" lon="6.32865">
        <ele>274</ele>
        <time>2026-05-17T16:13:17+02:00</time>
      </trkpt>
      <trkpt lat="48.34967" lon="6.32857">
        <ele>274</ele>
        <time>2026-05-17T16:13:18+02:00</time>
      </trkpt>
      <trkpt lat="48.34971" lon="6.3285">
        <ele>273.9004</ele>
        <time>2026-05-17T16:13:19+02:00</time>
      </trkpt>
      <trkpt lat="48.34974" lon="6.32842">
        <ele>273.9004</ele>
        <time>2026-05-17T16:13:20+02:00</time>
      </trkpt>
      <trkpt lat="48.34977" lon="6.32834">
        <ele>273.9004</ele>
        <time>2026-05-17T16:13:21+02:00</time>
      </trkpt>
      <trkpt lat="48.34981" lon="6.32827">
        <ele>274</ele>
        <time>2026-05-17T16:13:22+02:00</time>
      </trkpt>
      <trkpt lat="48.34984" lon="6.32819">
        <ele>274.1006</ele>
        <time>2026-05-17T16:13:23+02:00</time>
      </trkpt>
      <trkpt lat="48.34987" lon="6.32812">
        <ele>274.2002</ele>
        <time>2026-05-17T16:13:24+02:00</time>
      </trkpt>
      <trkpt lat="48.34991" lon="6.32804">
        <ele>274.2002</ele>
        <time>2026-05-17T16:13:25+02:00</time>
      </trkpt>
      <trkpt lat="48.34994" lon="6.32796">
        <ele>274.2002</ele>
        <time>2026-05-17T16:13:26+02:00</time>
      </trkpt>
      <trkpt lat="48.34998" lon="6.32789">
        <ele>274.2002</ele>
        <time>2026-05-17T16:13:27+02:00</time>
      </trkpt>
      <trkpt lat="48.35001" lon="6.32781">
        <ele>274.2002</ele>
        <time>2026-05-17T16:13:28+02:00</time>
      </trkpt>
      <trkpt lat="48.35005" lon="6.32773">
        <ele>274.2002</ele>
        <time>2026-05-17T16:13:29+02:00</time>
      </trkpt>
      <trkpt lat="48.35008" lon="6.32765">
        <ele>274.2002</ele>
        <time>2026-05-17T16:13:30+02:00</time>
      </trkpt>
      <trkpt lat="48.35012" lon="6.32757">
        <ele>274.2002</ele>
        <time>2026-05-17T16:13:31+02:00</time>
      </trkpt>
      <trkpt lat="48.35015" lon="6.3275">
        <ele>274.1006</ele>
        <time>2026-05-17T16:13:32+02:00</time>
      </trkpt>
      <trkpt lat="48.35019" lon="6.32742">
        <ele>274</ele>
        <time>2026-05-17T16:13:33+02:00</time>
      </trkpt>
      <trkpt lat="48.35022" lon="6.32735">
        <ele>274.1006</ele>
        <time>2026-05-17T16:13:34+02:00</time>
      </trkpt>
      <trkpt lat="48.35025" lon="6.32727">
        <ele>274.1006</ele>
        <time>2026-05-17T16:13:35+02:00</time>
      </trkpt>
      <trkpt lat="48.35029" lon="6.3272">
        <ele>274.1006</ele>
        <time>2026-05-17T16:13:36+02:00</time>
      </trkpt>
      <trkpt lat="48.35032" lon="6.32713">
        <ele>274.1006</ele>
        <time>2026-05-17T16:13:37+02:00</time>
      </trkpt>
      <trkpt lat="48.35035" lon="6.32705">
        <ele>274</ele>
        <time>2026-05-17T16:13:38+02:00</time>
      </trkpt>
      <trkpt lat="48.35039" lon="6.32698">
        <ele>273.9004</ele>
        <time>2026-05-17T16:13:39+02:00</time>
      </trkpt>
      <trkpt lat="48.35042" lon="6.3269">
        <ele>273.9004</ele>
        <time>2026-05-17T16:13:40+02:00</time>
      </trkpt>
      <trkpt lat="48.35045" lon="6.32683">
        <ele>274</ele>
        <time>2026-05-17T16:13:41+02:00</time>
      </trkpt>
      <trkpt lat="48.35047" lon="6.32679">
        <ele>274</ele>
        <time>2026-05-17T16:13:42+02:00</time>
      </trkpt>
      <trkpt lat="48.35052" lon="6.32668">
        <ele>274.1006</ele>
        <time>2026-05-17T16:13:43+02:00</time>
      </trkpt>
      <trkpt lat="48.35055" lon="6.3266">
        <ele>274.2002</ele>
        <time>2026-05-17T16:13:44+02:00</time>
      </trkpt>
      <trkpt lat="48.35058" lon="6.32653">
        <ele>274.1006</ele>
        <time>2026-05-17T16:13:45+02:00</time>
      </trkpt>
      <trkpt lat="48.35061" lon="6.32646">
        <ele>274</ele>
        <time>2026-05-17T16:13:46+02:00</time>
      </trkpt>
      <trkpt lat="48.35064" lon="6.32638">
        <ele>274</ele>
        <time>2026-05-17T16:13:47+02:00</time>
      </trkpt>
      <trkpt lat="48.35067" lon="6.3263">
        <ele>273.9004</ele>
        <time>2026-05-17T16:13:48+02:00</time>
      </trkpt>
      <trkpt lat="48.35071" lon="6.32623">
        <ele>273.9004</ele>
        <time>2026-05-17T16:13:49+02:00</time>
      </trkpt>
      <trkpt lat="48.35074" lon="6.32616">
        <ele>274</ele>
        <time>2026-05-17T16:13:50+02:00</time>
      </trkpt>
      <trkpt lat="48.35077" lon="6.32608">
        <ele>273.9004</ele>
        <time>2026-05-17T16:13:51+02:00</time>
      </trkpt>
      <trkpt lat="48.3508" lon="6.32601">
        <ele>273.9004</ele>
        <time>2026-05-17T16:13:52+02:00</time>
      </trkpt>
      <trkpt lat="48.35084" lon="6.32594">
        <ele>273.9004</ele>
        <time>2026-05-17T16:13:53+02:00</time>
      </trkpt>
      <trkpt lat="48.35087" lon="6.32586">
        <ele>273.9004</ele>
        <time>2026-05-17T16:13:54+02:00</time>
      </trkpt>
      <trkpt lat="48.3509" lon="6.32579">
        <ele>273.9004</ele>
        <time>2026-05-17T16:13:55+02:00</time>
      </trkpt>
      <trkpt lat="48.35093" lon="6.32572">
        <ele>273.9004</ele>
        <time>2026-05-17T16:13:56+02:00</time>
      </trkpt>
      <trkpt lat="48.35096" lon="6.32564">
        <ele>274</ele>
        <time>2026-05-17T16:13:57+02:00</time>
      </trkpt>
      <trkpt lat="48.351" lon="6.32557">
        <ele>274</ele>
        <time>2026-05-17T16:13:58+02:00</time>
      </trkpt>
      <trkpt lat="48.35103" lon="6.32549">
        <ele>274</ele>
        <time>2026-05-17T16:13:59+02:00</time>
      </trkpt>
      <trkpt lat="48.35106" lon="6.32542">
        <ele>274</ele>
        <time>2026-05-17T16:14:00+02:00</time>
      </trkpt>
      <trkpt lat="48.3511" lon="6.32534">
        <ele>274</ele>
        <time>2026-05-17T16:14:01+02:00</time>
      </trkpt>
      <trkpt lat="48.35113" lon="6.32526">
        <ele>274</ele>
        <time>2026-05-17T16:14:02+02:00</time>
      </trkpt>
      <trkpt lat="48.35116" lon="6.32518">
        <ele>273.9004</ele>
        <time>2026-05-17T16:14:03+02:00</time>
      </trkpt>
      <trkpt lat="48.3512" lon="6.32511">
        <ele>273.9004</ele>
        <time>2026-05-17T16:14:04+02:00</time>
      </trkpt>
      <trkpt lat="48.35123" lon="6.32503">
        <ele>274</ele>
        <time>2026-05-17T16:14:05+02:00</time>
      </trkpt>
      <trkpt lat="48.35127" lon="6.32496">
        <ele>274</ele>
        <time>2026-05-17T16:14:06+02:00</time>
      </trkpt>
      <trkpt lat="48.3513" lon="6.32488">
        <ele>274</ele>
        <time>2026-05-17T16:14:07+02:00</time>
      </trkpt>
      <trkpt lat="48.35134" lon="6.3248">
        <ele>273.9004</ele>
        <time>2026-05-17T16:14:08+02:00</time>
      </trkpt>
      <trkpt lat="48.35137" lon="6.32472">
        <ele>273.9004</ele>
        <time>2026-05-17T16:14:09+02:00</time>
      </trkpt>
      <trkpt lat="48.35141" lon="6.32464">
        <ele>273.9004</ele>
        <time>2026-05-17T16:14:10+02:00</time>
      </trkpt>
      <trkpt lat="48.35145" lon="6.32456">
        <ele>273.7998</ele>
        <time>2026-05-17T16:14:11+02:00</time>
      </trkpt>
      <trkpt lat="48.35148" lon="6.32449">
        <ele>274</ele>
        <time>2026-05-17T16:14:12+02:00</time>
      </trkpt>
      <trkpt lat="48.35151" lon="6.32442">
        <ele>273.9004</ele>
        <time>2026-05-17T16:14:13+02:00</time>
      </trkpt>
      <trkpt lat="48.35154" lon="6.32434">
        <ele>274.2998</ele>
        <time>2026-05-17T16:14:14+02:00</time>
      </trkpt>
      <trkpt lat="48.35158" lon="6.32427">
        <ele>274.6006</ele>
        <time>2026-05-17T16:14:15+02:00</time>
      </trkpt>
      <trkpt lat="48.35161" lon="6.32419">
        <ele>274.6006</ele>
        <time>2026-05-17T16:14:16+02:00</time>
      </trkpt>
      <trkpt lat="48.35164" lon="6.32411">
        <ele>274.6006</ele>
        <time>2026-05-17T16:14:17+02:00</time>
      </trkpt>
      <trkpt lat="48.35167" lon="6.32404">
        <ele>274.2998</ele>
        <time>2026-05-17T16:14:18+02:00</time>
      </trkpt>
      <trkpt lat="48.35171" lon="6.32396">
        <ele>274.2998</ele>
        <time>2026-05-17T16:14:19+02:00</time>
      </trkpt>
      <trkpt lat="48.35174" lon="6.32389">
        <ele>274.2002</ele>
        <time>2026-05-17T16:14:20+02:00</time>
      </trkpt>
      <trkpt lat="48.35177" lon="6.32381">
        <ele>274.2998</ele>
        <time>2026-05-17T16:14:21+02:00</time>
      </trkpt>
      <trkpt lat="48.3518" lon="6.32374">
        <ele>274</ele>
        <time>2026-05-17T16:14:22+02:00</time>
      </trkpt>
      <trkpt lat="48.35183" lon="6.32366">
        <ele>273.9004</ele>
        <time>2026-05-17T16:14:23+02:00</time>
      </trkpt>
      <trkpt lat="48.35185" lon="6.32359">
        <ele>273.9004</ele>
        <time>2026-05-17T16:14:24+02:00</time>
      </trkpt>
      <trkpt lat="48.35188" lon="6.32351">
        <ele>273.9004</ele>
        <time>2026-05-17T16:14:25+02:00</time>
      </trkpt>
      <trkpt lat="48.35191" lon="6.32344">
        <ele>273.9004</ele>
        <time>2026-05-17T16:14:26+02:00</time>
      </trkpt>
      <trkpt lat="48.35194" lon="6.32336">
        <ele>273.7998</ele>
        <time>2026-05-17T16:14:27+02:00</time>
      </trkpt>
      <trkpt lat="48.35196" lon="6.32328">
        <ele>273.7002</ele>
        <time>2026-05-17T16:14:28+02:00</time>
      </trkpt>
      <trkpt lat="48.35199" lon="6.3232">
        <ele>273.6006</ele>
        <time>2026-05-17T16:14:29+02:00</time>
      </trkpt>
      <trkpt lat="48.35203" lon="6.32313">
        <ele>273.7002</ele>
        <time>2026-05-17T16:14:30+02:00</time>
      </trkpt>
      <trkpt lat="48.35206" lon="6.32307">
        <ele>273.7002</ele>
        <time>2026-05-17T16:14:31+02:00</time>
      </trkpt>
      <trkpt lat="48.35209" lon="6.32301">
        <ele>273.9004</ele>
        <time>2026-05-17T16:14:32+02:00</time>
      </trkpt>
      <trkpt lat="48.35213" lon="6.32295">
        <ele>273.9004</ele>
        <time>2026-05-17T16:14:33+02:00</time>
      </trkpt>
      <trkpt lat="48.35216" lon="6.32291">
        <ele>274.1006</ele>
        <time>2026-05-17T16:14:34+02:00</time>
      </trkpt>
      <trkpt lat="48.35219" lon="6.32288">
        <ele>274.1006</ele>
        <time>2026-05-17T16:14:35+02:00</time>
      </trkpt>
      <trkpt lat="48.35221" lon="6.32286">
        <ele>274.2998</ele>
        <time>2026-05-17T16:14:36+02:00</time>
      </trkpt>
      <trkpt lat="48.35223" lon="6.32284">
        <ele>274.2998</ele>
        <time>2026-05-17T16:14:37+02:00</time>
      </trkpt>
      <trkpt lat="48.35225" lon="6.32281">
        <ele>274.2998</ele>
        <time>2026-05-17T16:14:38+02:00</time>
      </trkpt>
      <trkpt lat="48.35226" lon="6.32278">
        <ele>274.2998</ele>
        <time>2026-05-17T16:14:39+02:00</time>
      </trkpt>
      <trkpt lat="48.35226" lon="6.32275">
        <ele>274.2998</ele>
        <time>2026-05-17T16:14:40+02:00</time>
      </trkpt>
      <trkpt lat="48.35227" lon="6.32272">
        <ele>274.2998</ele>
        <time>2026-05-17T16:14:41+02:00</time>
      </trkpt>
      <trkpt lat="48.35228" lon="6.32268">
        <ele>274.1006</ele>
        <time>2026-05-17T16:14:42+02:00</time>
      </trkpt>
      <trkpt lat="48.3523" lon="6.32263">
        <ele>273.9004</ele>
        <time>2026-05-17T16:14:43+02:00</time>
      </trkpt>
      <trkpt lat="48.35232" lon="6.32259">
        <ele>274.1006</ele>
        <time>2026-05-17T16:14:44+02:00</time>
      </trkpt>
      <trkpt lat="48.35235" lon="6.32253">
        <ele>273.9004</ele>
        <time>2026-05-17T16:14:45+02:00</time>
      </trkpt>
      <trkpt lat="48.35237" lon="6.32247">
        <ele>274.1006</ele>
        <time>2026-05-17T16:14:46+02:00</time>
      </trkpt>
      <trkpt lat="48.3524" lon="6.3224">
        <ele>273.9004</ele>
        <time>2026-05-17T16:14:47+02:00</time>
      </trkpt>
      <trkpt lat="48.35242" lon="6.32234">
        <ele>273.9004</ele>
        <time>2026-05-17T16:14:48+02:00</time>
      </trkpt>
      <trkpt lat="48.35245" lon="6.32227">
        <ele>273.7998</ele>
        <time>2026-05-17T16:14:49+02:00</time>
      </trkpt>
      <trkpt lat="48.35248" lon="6.32221">
        <ele>273.7998</ele>
        <time>2026-05-17T16:14:50+02:00</time>
      </trkpt>
      <trkpt lat="48.35251" lon="6.32215">
        <ele>273.7002</ele>
        <time>2026-05-17T16:14:51+02:00</time>
      </trkpt>
      <trkpt lat="48.35254" lon="6.32208">
        <ele>273.5</ele>
        <time>2026-05-17T16:14:52+02:00</time>
      </trkpt>
      <trkpt lat="48.35256" lon="6.32202">
        <ele>273.4004</ele>
        <time>2026-05-17T16:14:53+02:00</time>
      </trkpt>
      <trkpt lat="48.35259" lon="6.32196">
        <ele>273.4004</ele>
        <time>2026-05-17T16:14:54+02:00</time>
      </trkpt>
      <trkpt lat="48.35262" lon="6.32189">
        <ele>273.4004</ele>
        <time>2026-05-17T16:14:55+02:00</time>
      </trkpt>
      <trkpt lat="48.35265" lon="6.32183">
        <ele>273.2998</ele>
        <time>2026-05-17T16:14:56+02:00</time>
      </trkpt>
      <trkpt lat="48.35268" lon="6.32176">
        <ele>273.4004</ele>
        <time>2026-05-17T16:14:57+02:00</time>
      </trkpt>
      <trkpt lat="48.35271" lon="6.32169">
        <ele>273.4004</ele>
        <time>2026-05-17T16:14:58+02:00</time>
      </trkpt>
      <trkpt lat="48.35273" lon="6.32163">
        <ele>273.6006</ele>
        <time>2026-05-17T16:14:59+02:00</time>
      </trkpt>
      <trkpt lat="48.35276" lon="6.32156">
        <ele>273.5</ele>
        <time>2026-05-17T16:15:00+02:00</time>
      </trkpt>
      <trkpt lat="48.35279" lon="6.3215">
        <ele>273.5</ele>
        <time>2026-05-17T16:15:01+02:00</time>
      </trkpt>
      <trkpt lat="48.35282" lon="6.32144">
        <ele>273.5</ele>
        <time>2026-05-17T16:15:02+02:00</time>
      </trkpt>
      <trkpt lat="48.35285" lon="6.32137">
        <ele>273.4004</ele>
        <time>2026-05-17T16:15:03+02:00</time>
      </trkpt>
      <trkpt lat="48.35288" lon="6.3213">
        <ele>273.1006</ele>
        <time>2026-05-17T16:15:04+02:00</time>
      </trkpt>
      <trkpt lat="48.35291" lon="6.32124">
        <ele>272.9004</ele>
        <time>2026-05-17T16:15:05+02:00</time>
      </trkpt>
      <trkpt lat="48.35294" lon="6.32118">
        <ele>272.9004</ele>
        <time>2026-05-17T16:15:06+02:00</time>
      </trkpt>
      <trkpt lat="48.35296" lon="6.32111">
        <ele>273.1006</ele>
        <time>2026-05-17T16:15:07+02:00</time>
      </trkpt>
      <trkpt lat="48.35299" lon="6.32105">
        <ele>272.7998</ele>
        <time>2026-05-17T16:15:08+02:00</time>
      </trkpt>
      <trkpt lat="48.35302" lon="6.32098">
        <ele>272.9004</ele>
        <time>2026-05-17T16:15:09+02:00</time>
      </trkpt>
      <trkpt lat="48.35305" lon="6.32091">
        <ele>272.6006</ele>
        <time>2026-05-17T16:15:10+02:00</time>
      </trkpt>
      <trkpt lat="48.35308" lon="6.32085">
        <ele>272.7998</ele>
        <time>2026-05-17T16:15:11+02:00</time>
      </trkpt>
      <trkpt lat="48.3532" lon="6.32058">
        <ele>272.7002</ele>
        <time>2026-05-17T16:15:12+02:00</time>
      </trkpt>
      <trkpt lat="48.35323" lon="6.32051">
        <ele>272.7002</ele>
        <time>2026-05-17T16:15:13+02:00</time>
      </trkpt>
      <trkpt lat="48.35326" lon="6.32044">
        <ele>272.2998</ele>
        <time>2026-05-17T16:15:14+02:00</time>
      </trkpt>
      <trkpt lat="48.35329" lon="6.32037">
        <ele>272.4004</ele>
        <time>2026-05-17T16:15:15+02:00</time>
      </trkpt>
      <trkpt lat="48.35332" lon="6.32029">
        <ele>272.5</ele>
        <time>2026-05-17T16:15:16+02:00</time>
      </trkpt>
      <trkpt lat="48.35335" lon="6.32022">
        <ele>272.9004</ele>
        <time>2026-05-17T16:15:17+02:00</time>
      </trkpt>
      <trkpt lat="48.35338" lon="6.32015">
        <ele>272.9004</ele>
        <time>2026-05-17T16:15:18+02:00</time>
      </trkpt>
      <trkpt lat="48.35341" lon="6.32008">
        <ele>273.5</ele>
        <time>2026-05-17T16:15:19+02:00</time>
      </trkpt>
      <trkpt lat="48.35344" lon="6.32001">
        <ele>273.2002</ele>
        <time>2026-05-17T16:15:20+02:00</time>
      </trkpt>
      <trkpt lat="48.35348" lon="6.31994">
        <ele>273.2998</ele>
        <time>2026-05-17T16:15:21+02:00</time>
      </trkpt>
      <trkpt lat="48.35351" lon="6.31986">
        <ele>273.2998</ele>
        <time>2026-05-17T16:15:22+02:00</time>
      </trkpt>
      <trkpt lat="48.35354" lon="6.31979">
        <ele>272.7002</ele>
        <time>2026-05-17T16:15:23+02:00</time>
      </trkpt>
      <trkpt lat="48.35357" lon="6.31972">
        <ele>273.4004</ele>
        <time>2026-05-17T16:15:24+02:00</time>
      </trkpt>
      <trkpt lat="48.35361" lon="6.31964">
        <ele>273</ele>
        <time>2026-05-17T16:15:25+02:00</time>
      </trkpt>
      <trkpt lat="48.35364" lon="6.31957">
        <ele>273.2002</ele>
        <time>2026-05-17T16:15:26+02:00</time>
      </trkpt>
      <trkpt lat="48.35367" lon="6.31949">
        <ele>272.7002</ele>
        <time>2026-05-17T16:15:27+02:00</time>
      </trkpt>
      <trkpt lat="48.3537" lon="6.31942">
        <ele>272.5</ele>
        <time>2026-05-17T16:15:28+02:00</time>
      </trkpt>
      <trkpt lat="48.35374" lon="6.31935">
        <ele>272.5</ele>
        <time>2026-05-17T16:15:29+02:00</time>
      </trkpt>
      <trkpt lat="48.35377" lon="6.31927">
        <ele>272.2998</ele>
        <time>2026-05-17T16:15:30+02:00</time>
      </trkpt>
      <trkpt lat="48.3538" lon="6.3192">
        <ele>273.1006</ele>
        <time>2026-05-17T16:15:31+02:00</time>
      </trkpt>
      <trkpt lat="48.35384" lon="6.31913">
        <ele>273.2002</ele>
        <time>2026-05-17T16:15:32+02:00</time>
      </trkpt>
      <trkpt lat="48.35387" lon="6.31907">
        <ele>274</ele>
        <time>2026-05-17T16:15:33+02:00</time>
      </trkpt>
      <trkpt lat="48.3539" lon="6.319">
        <ele>273.9004</ele>
        <time>2026-05-17T16:15:34+02:00</time>
      </trkpt>
      <trkpt lat="48.35393" lon="6.31894">
        <ele>273.9004</ele>
        <time>2026-05-17T16:15:35+02:00</time>
      </trkpt>
      <trkpt lat="48.35396" lon="6.31887">
        <ele>273.9004</ele>
        <time>2026-05-17T16:15:36+02:00</time>
      </trkpt>
      <trkpt lat="48.35399" lon="6.3188">
        <ele>273.6006</ele>
        <time>2026-05-17T16:15:37+02:00</time>
      </trkpt>
      <trkpt lat="48.35402" lon="6.31873">
        <ele>272.9004</ele>
        <time>2026-05-17T16:15:38+02:00</time>
      </trkpt>
      <trkpt lat="48.35406" lon="6.31865">
        <ele>273.2998</ele>
        <time>2026-05-17T16:15:39+02:00</time>
      </trkpt>
      <trkpt lat="48.35409" lon="6.31858">
        <ele>273.4004</ele>
        <time>2026-05-17T16:15:40+02:00</time>
      </trkpt>
      <trkpt lat="48.35412" lon="6.31851">
        <ele>272.9004</ele>
        <time>2026-05-17T16:15:41+02:00</time>
      </trkpt>
      <trkpt lat="48.35415" lon="6.31843">
        <ele>273.2002</ele>
        <time>2026-05-17T16:15:42+02:00</time>
      </trkpt>
      <trkpt lat="48.35418" lon="6.31836">
        <ele>272.7002</ele>
        <time>2026-05-17T16:15:43+02:00</time>
      </trkpt>
      <trkpt lat="48.35422" lon="6.31828">
        <ele>272.7998</ele>
        <time>2026-05-17T16:15:44+02:00</time>
      </trkpt>
      <trkpt lat="48.35425" lon="6.31821">
        <ele>272.5</ele>
        <time>2026-05-17T16:15:45+02:00</time>
      </trkpt>
      <trkpt lat="48.35429" lon="6.31813">
        <ele>272.5</ele>
        <time>2026-05-17T16:15:46+02:00</time>
      </trkpt>
      <trkpt lat="48.35433" lon="6.31806">
        <ele>272.5</ele>
        <time>2026-05-17T16:15:47+02:00</time>
      </trkpt>
      <trkpt lat="48.35436" lon="6.31798">
        <ele>272.2002</ele>
        <time>2026-05-17T16:15:48+02:00</time>
      </trkpt>
      <trkpt lat="48.3544" lon="6.31791">
        <ele>272.2998</ele>
        <time>2026-05-17T16:15:49+02:00</time>
      </trkpt>
      <trkpt lat="48.35443" lon="6.31784">
        <ele>272.7002</ele>
        <time>2026-05-17T16:15:50+02:00</time>
      </trkpt>
      <trkpt lat="48.35447" lon="6.31776">
        <ele>272.6006</ele>
        <time>2026-05-17T16:15:51+02:00</time>
      </trkpt>
      <trkpt lat="48.3545" lon="6.31769">
        <ele>273.2002</ele>
        <time>2026-05-17T16:15:52+02:00</time>
      </trkpt>
      <trkpt lat="48.35454" lon="6.31761">
        <ele>273.5</ele>
        <time>2026-05-17T16:15:53+02:00</time>
      </trkpt>
      <trkpt lat="48.35457" lon="6.31754">
        <ele>273.2002</ele>
        <time>2026-05-17T16:15:54+02:00</time>
      </trkpt>
      <trkpt lat="48.3546" lon="6.31746">
        <ele>273.1006</ele>
        <time>2026-05-17T16:15:55+02:00</time>
      </trkpt>
      <trkpt lat="48.35463" lon="6.31739">
        <ele>272.7002</ele>
        <time>2026-05-17T16:15:56+02:00</time>
      </trkpt>
      <trkpt lat="48.35467" lon="6.31731">
        <ele>272.9004</ele>
        <time>2026-05-17T16:15:57+02:00</time>
      </trkpt>
      <trkpt lat="48.3547" lon="6.31724">
        <ele>272.9004</ele>
        <time>2026-05-17T16:15:58+02:00</time>
      </trkpt>
      <trkpt lat="48.35473" lon="6.31716">
        <ele>273</ele>
        <time>2026-05-17T16:15:59+02:00</time>
      </trkpt>
      <trkpt lat="48.35477" lon="6.31709">
        <ele>273</ele>
        <time>2026-05-17T16:16:00+02:00</time>
      </trkpt>
      <trkpt lat="48.3548" lon="6.31701">
        <ele>272.6006</ele>
        <time>2026-05-17T16:16:01+02:00</time>
      </trkpt>
      <trkpt lat="48.35484" lon="6.31693">
        <ele>272.7998</ele>
        <time>2026-05-17T16:16:02+02:00</time>
      </trkpt>
      <trkpt lat="48.35487" lon="6.31686">
        <ele>272.5</ele>
        <time>2026-05-17T16:16:03+02:00</time>
      </trkpt>
      <trkpt lat="48.3549" lon="6.31678">
        <ele>273.1006</ele>
        <time>2026-05-17T16:16:04+02:00</time>
      </trkpt>
      <trkpt lat="48.35494" lon="6.3167">
        <ele>273.6006</ele>
        <time>2026-05-17T16:16:05+02:00</time>
      </trkpt>
      <trkpt lat="48.35497" lon="6.31662">
        <ele>273.5</ele>
        <time>2026-05-17T16:16:06+02:00</time>
      </trkpt>
      <trkpt lat="48.355" lon="6.31655">
        <ele>273.7998</ele>
        <time>2026-05-17T16:16:07+02:00</time>
      </trkpt>
      <trkpt lat="48.35504" lon="6.31647">
        <ele>273.6006</ele>
        <time>2026-05-17T16:16:08+02:00</time>
      </trkpt>
      <trkpt lat="48.35507" lon="6.31639">
        <ele>273.5</ele>
        <time>2026-05-17T16:16:09+02:00</time>
      </trkpt>
      <trkpt lat="48.3551" lon="6.31631">
        <ele>273.1006</ele>
        <time>2026-05-17T16:16:10+02:00</time>
      </trkpt>
      <trkpt lat="48.35513" lon="6.31623">
        <ele>273.5</ele>
        <time>2026-05-17T16:16:11+02:00</time>
      </trkpt>
      <trkpt lat="48.35517" lon="6.31614">
        <ele>273.7002</ele>
        <time>2026-05-17T16:16:12+02:00</time>
      </trkpt>
      <trkpt lat="48.3552" lon="6.31606">
        <ele>273.2002</ele>
        <time>2026-05-17T16:16:13+02:00</time>
      </trkpt>
      <trkpt lat="48.35524" lon="6.31598">
        <ele>272.9004</ele>
        <time>2026-05-17T16:16:14+02:00</time>
      </trkpt>
      <trkpt lat="48.35527" lon="6.3159">
        <ele>272.5</ele>
        <time>2026-05-17T16:16:15+02:00</time>
      </trkpt>
      <trkpt lat="48.35531" lon="6.31582">
        <ele>272.7002</ele>
        <time>2026-05-17T16:16:16+02:00</time>
      </trkpt>
      <trkpt lat="48.35534" lon="6.31575">
        <ele>272.7002</ele>
        <time>2026-05-17T16:16:17+02:00</time>
      </trkpt>
      <trkpt lat="48.35538" lon="6.31567">
        <ele>272.4004</ele>
        <time>2026-05-17T16:16:18+02:00</time>
      </trkpt>
      <trkpt lat="48.35541" lon="6.31559">
        <ele>272.4004</ele>
        <time>2026-05-17T16:16:19+02:00</time>
      </trkpt>
      <trkpt lat="48.35544" lon="6.31551">
        <ele>272.4004</ele>
        <time>2026-05-17T16:16:20+02:00</time>
      </trkpt>
      <trkpt lat="48.35548" lon="6.31543">
        <ele>272.6006</ele>
        <time>2026-05-17T16:16:21+02:00</time>
      </trkpt>
      <trkpt lat="48.35551" lon="6.31536">
        <ele>272.9004</ele>
        <time>2026-05-17T16:16:22+02:00</time>
      </trkpt>
      <trkpt lat="48.35553" lon="6.31532">
        <ele>272.9004</ele>
        <time>2026-05-17T16:16:23+02:00</time>
      </trkpt>
      <trkpt lat="48.35558" lon="6.31521">
        <ele>273.2998</ele>
        <time>2026-05-17T16:16:24+02:00</time>
      </trkpt>
      <trkpt lat="48.35561" lon="6.31513">
        <ele>273.1006</ele>
        <time>2026-05-17T16:16:25+02:00</time>
      </trkpt>
      <trkpt lat="48.35565" lon="6.31505">
        <ele>273</ele>
        <time>2026-05-17T16:16:26+02:00</time>
      </trkpt>
      <trkpt lat="48.35568" lon="6.31497">
        <ele>272.6006</ele>
        <time>2026-05-17T16:16:27+02:00</time>
      </trkpt>
      <trkpt lat="48.35571" lon="6.3149">
        <ele>272.7002</ele>
        <time>2026-05-17T16:16:28+02:00</time>
      </trkpt>
      <trkpt lat="48.35575" lon="6.31482">
        <ele>273</ele>
        <time>2026-05-17T16:16:29+02:00</time>
      </trkpt>
      <trkpt lat="48.35578" lon="6.31475">
        <ele>273</ele>
        <time>2026-05-17T16:16:30+02:00</time>
      </trkpt>
      <trkpt lat="48.35581" lon="6.31468">
        <ele>273</ele>
        <time>2026-05-17T16:16:31+02:00</time>
      </trkpt>
      <trkpt lat="48.35584" lon="6.31461">
        <ele>272.6006</ele>
        <time>2026-05-17T16:16:32+02:00</time>
      </trkpt>
      <trkpt lat="48.35587" lon="6.31453">
        <ele>272.4004</ele>
        <time>2026-05-17T16:16:33+02:00</time>
      </trkpt>
      <trkpt lat="48.35591" lon="6.31446">
        <ele>272.5</ele>
        <time>2026-05-17T16:16:34+02:00</time>
      </trkpt>
      <trkpt lat="48.35594" lon="6.31438">
        <ele>272.5</ele>
        <time>2026-05-17T16:16:35+02:00</time>
      </trkpt>
      <trkpt lat="48.35597" lon="6.31431">
        <ele>272.6006</ele>
        <time>2026-05-17T16:16:36+02:00</time>
      </trkpt>
      <trkpt lat="48.356" lon="6.31424">
        <ele>272.4004</ele>
        <time>2026-05-17T16:16:37+02:00</time>
      </trkpt>
      <trkpt lat="48.35604" lon="6.31417">
        <ele>272.2998</ele>
        <time>2026-05-17T16:16:38+02:00</time>
      </trkpt>
      <trkpt lat="48.35607" lon="6.3141">
        <ele>272.1006</ele>
        <time>2026-05-17T16:16:39+02:00</time>
      </trkpt>
      <trkpt lat="48.3561" lon="6.31402">
        <ele>272.2002</ele>
        <time>2026-05-17T16:16:40+02:00</time>
      </trkpt>
      <trkpt lat="48.35614" lon="6.31395">
        <ele>272.2002</ele>
        <time>2026-05-17T16:16:41+02:00</time>
      </trkpt>
      <trkpt lat="48.35617" lon="6.31388">
        <ele>272.2002</ele>
        <time>2026-05-17T16:16:42+02:00</time>
      </trkpt>
      <trkpt lat="48.35621" lon="6.31381">
        <ele>272.2002</ele>
        <time>2026-05-17T16:16:43+02:00</time>
      </trkpt>
      <trkpt lat="48.35624" lon="6.31373">
        <ele>272.1006</ele>
        <time>2026-05-17T16:16:44+02:00</time>
      </trkpt>
      <trkpt lat="48.35627" lon="6.31366">
        <ele>272</ele>
        <time>2026-05-17T16:16:45+02:00</time>
      </trkpt>
      <trkpt lat="48.35631" lon="6.31359">
        <ele>272</ele>
        <time>2026-05-17T16:16:46+02:00</time>
      </trkpt>
      <trkpt lat="48.35634" lon="6.31352">
        <ele>271.9004</ele>
        <time>2026-05-17T16:16:47+02:00</time>
      </trkpt>
      <trkpt lat="48.35638" lon="6.31345">
        <ele>271.9004</ele>
        <time>2026-05-17T16:16:48+02:00</time>
      </trkpt>
      <trkpt lat="48.35641" lon="6.31338">
        <ele>271.9004</ele>
        <time>2026-05-17T16:16:49+02:00</time>
      </trkpt>
      <trkpt lat="48.35645" lon="6.31331">
        <ele>271.9004</ele>
        <time>2026-05-17T16:16:50+02:00</time>
      </trkpt>
      <trkpt lat="48.35649" lon="6.31324">
        <ele>271.9004</ele>
        <time>2026-05-17T16:16:51+02:00</time>
      </trkpt>
      <trkpt lat="48.35653" lon="6.31317">
        <ele>271.7998</ele>
        <time>2026-05-17T16:16:52+02:00</time>
      </trkpt>
      <trkpt lat="48.35656" lon="6.3131">
        <ele>271.7002</ele>
        <time>2026-05-17T16:16:53+02:00</time>
      </trkpt>
      <trkpt lat="48.3566" lon="6.31303">
        <ele>271.7002</ele>
        <time>2026-05-17T16:16:54+02:00</time>
      </trkpt>
      <trkpt lat="48.35664" lon="6.31296">
        <ele>271.7002</ele>
        <time>2026-05-17T16:16:55+02:00</time>
      </trkpt>
      <trkpt lat="48.35668" lon="6.31289">
        <ele>271.7998</ele>
        <time>2026-05-17T16:16:56+02:00</time>
      </trkpt>
      <trkpt lat="48.35671" lon="6.31282">
        <ele>271.7002</ele>
        <time>2026-05-17T16:16:57+02:00</time>
      </trkpt>
      <trkpt lat="48.35675" lon="6.31275">
        <ele>271.7002</ele>
        <time>2026-05-17T16:16:58+02:00</time>
      </trkpt>
      <trkpt lat="48.35679" lon="6.31268">
        <ele>271.7002</ele>
        <time>2026-05-17T16:16:59+02:00</time>
      </trkpt>
      <trkpt lat="48.35682" lon="6.31261">
        <ele>271.6006</ele>
        <time>2026-05-17T16:17:00+02:00</time>
      </trkpt>
      <trkpt lat="48.35686" lon="6.31254">
        <ele>271.6006</ele>
        <time>2026-05-17T16:17:01+02:00</time>
      </trkpt>
      <trkpt lat="48.3569" lon="6.31246">
        <ele>271.5</ele>
        <time>2026-05-17T16:17:02+02:00</time>
      </trkpt>
      <trkpt lat="48.35694" lon="6.31239">
        <ele>271.5</ele>
        <time>2026-05-17T16:17:03+02:00</time>
      </trkpt>
      <trkpt lat="48.35698" lon="6.31232">
        <ele>271.5</ele>
        <time>2026-05-17T16:17:04+02:00</time>
      </trkpt>
      <trkpt lat="48.35702" lon="6.31225">
        <ele>271.5</ele>
        <time>2026-05-17T16:17:05+02:00</time>
      </trkpt>
      <trkpt lat="48.35706" lon="6.31218">
        <ele>271.5</ele>
        <time>2026-05-17T16:17:06+02:00</time>
      </trkpt>
      <trkpt lat="48.3571" lon="6.31211">
        <ele>271.5</ele>
        <time>2026-05-17T16:17:07+02:00</time>
      </trkpt>
      <trkpt lat="48.35714" lon="6.31205">
        <ele>271.4004</ele>
        <time>2026-05-17T16:17:08+02:00</time>
      </trkpt>
      <trkpt lat="48.35718" lon="6.31198">
        <ele>271.2998</ele>
        <time>2026-05-17T16:17:09+02:00</time>
      </trkpt>
      <trkpt lat="48.35722" lon="6.31192">
        <ele>271.2002</ele>
        <time>2026-05-17T16:17:10+02:00</time>
      </trkpt>
      <trkpt lat="48.35726" lon="6.31185">
        <ele>271.2002</ele>
        <time>2026-05-17T16:17:11+02:00</time>
      </trkpt>
      <trkpt lat="48.3573" lon="6.31178">
        <ele>271.1006</ele>
        <time>2026-05-17T16:17:12+02:00</time>
      </trkpt>
      <trkpt lat="48.35734" lon="6.31171">
        <ele>271</ele>
        <time>2026-05-17T16:17:13+02:00</time>
      </trkpt>
      <trkpt lat="48.35738" lon="6.31165">
        <ele>271</ele>
        <time>2026-05-17T16:17:14+02:00</time>
      </trkpt>
      <trkpt lat="48.35742" lon="6.31158">
        <ele>271</ele>
        <time>2026-05-17T16:17:15+02:00</time>
      </trkpt>
      <trkpt lat="48.35746" lon="6.31152">
        <ele>271</ele>
        <time>2026-05-17T16:17:16+02:00</time>
      </trkpt>
      <trkpt lat="48.3575" lon="6.31145">
        <ele>271</ele>
        <time>2026-05-17T16:17:17+02:00</time>
      </trkpt>
      <trkpt lat="48.35754" lon="6.31139">
        <ele>271</ele>
        <time>2026-05-17T16:17:18+02:00</time>
      </trkpt>
      <trkpt lat="48.35758" lon="6.31132">
        <ele>271</ele>
        <time>2026-05-17T16:17:19+02:00</time>
      </trkpt>
      <trkpt lat="48.35762" lon="6.31126">
        <ele>271</ele>
        <time>2026-05-17T16:17:20+02:00</time>
      </trkpt>
      <trkpt lat="48.35766" lon="6.31119">
        <ele>271</ele>
        <time>2026-05-17T16:17:21+02:00</time>
      </trkpt>
      <trkpt lat="48.3577" lon="6.31113">
        <ele>271</ele>
        <time>2026-05-17T16:17:22+02:00</time>
      </trkpt>
      <trkpt lat="48.35774" lon="6.31107">
        <ele>271</ele>
        <time>2026-05-17T16:17:23+02:00</time>
      </trkpt>
      <trkpt lat="48.35779" lon="6.31101">
        <ele>271.1006</ele>
        <time>2026-05-17T16:17:24+02:00</time>
      </trkpt>
      <trkpt lat="48.35782" lon="6.31094">
        <ele>271.1006</ele>
        <time>2026-05-17T16:17:25+02:00</time>
      </trkpt>
      <trkpt lat="48.35787" lon="6.31088">
        <ele>271.2002</ele>
        <time>2026-05-17T16:17:26+02:00</time>
      </trkpt>
      <trkpt lat="48.35791" lon="6.31082">
        <ele>271.2002</ele>
        <time>2026-05-17T16:17:27+02:00</time>
      </trkpt>
      <trkpt lat="48.35795" lon="6.31075">
        <ele>271.1006</ele>
        <time>2026-05-17T16:17:28+02:00</time>
      </trkpt>
      <trkpt lat="48.35798" lon="6.31069">
        <ele>271</ele>
        <time>2026-05-17T16:17:29+02:00</time>
      </trkpt>
      <trkpt lat="48.35803" lon="6.31063">
        <ele>271</ele>
        <time>2026-05-17T16:17:30+02:00</time>
      </trkpt>
      <trkpt lat="48.35807" lon="6.31057">
        <ele>271</ele>
        <time>2026-05-17T16:17:31+02:00</time>
      </trkpt>
      <trkpt lat="48.35811" lon="6.31051">
        <ele>271</ele>
        <time>2026-05-17T16:17:32+02:00</time>
      </trkpt>
      <trkpt lat="48.35815" lon="6.31045">
        <ele>271</ele>
        <time>2026-05-17T16:17:33+02:00</time>
      </trkpt>
      <trkpt lat="48.35819" lon="6.31039">
        <ele>271</ele>
        <time>2026-05-17T16:17:34+02:00</time>
      </trkpt>
      <trkpt lat="48.35824" lon="6.31032">
        <ele>270.9004</ele>
        <time>2026-05-17T16:17:35+02:00</time>
      </trkpt>
      <trkpt lat="48.35828" lon="6.31025">
        <ele>270.9004</ele>
        <time>2026-05-17T16:17:36+02:00</time>
      </trkpt>
      <trkpt lat="48.35832" lon="6.31019">
        <ele>270.9004</ele>
        <time>2026-05-17T16:17:37+02:00</time>
      </trkpt>
      <trkpt lat="48.35837" lon="6.31013">
        <ele>270.7998</ele>
        <time>2026-05-17T16:17:38+02:00</time>
      </trkpt>
      <trkpt lat="48.35841" lon="6.31007">
        <ele>270.7002</ele>
        <time>2026-05-17T16:17:39+02:00</time>
      </trkpt>
      <trkpt lat="48.35846" lon="6.31001">
        <ele>270.6006</ele>
        <time>2026-05-17T16:17:40+02:00</time>
      </trkpt>
      <trkpt lat="48.3585" lon="6.30994">
        <ele>270.6006</ele>
        <time>2026-05-17T16:17:41+02:00</time>
      </trkpt>
      <trkpt lat="48.35854" lon="6.30988">
        <ele>270.6006</ele>
        <time>2026-05-17T16:17:42+02:00</time>
      </trkpt>
      <trkpt lat="48.35859" lon="6.30982">
        <ele>270.6006</ele>
        <time>2026-05-17T16:17:43+02:00</time>
      </trkpt>
      <trkpt lat="48.35864" lon="6.30976">
        <ele>270.6006</ele>
        <time>2026-05-17T16:17:44+02:00</time>
      </trkpt>
      <trkpt lat="48.35869" lon="6.3097">
        <ele>270.5</ele>
        <time>2026-05-17T16:17:45+02:00</time>
      </trkpt>
      <trkpt lat="48.35873" lon="6.30964">
        <ele>270.4004</ele>
        <time>2026-05-17T16:17:46+02:00</time>
      </trkpt>
      <trkpt lat="48.35878" lon="6.30959">
        <ele>270.4004</ele>
        <time>2026-05-17T16:17:47+02:00</time>
      </trkpt>
      <trkpt lat="48.35882" lon="6.30954">
        <ele>270.4004</ele>
        <time>2026-05-17T16:17:48+02:00</time>
      </trkpt>
      <trkpt lat="48.35886" lon="6.30949">
        <ele>270.4004</ele>
        <time>2026-05-17T16:17:49+02:00</time>
      </trkpt>
      <trkpt lat="48.3589" lon="6.30945">
        <ele>270.4004</ele>
        <time>2026-05-17T16:17:50+02:00</time>
      </trkpt>
      <trkpt lat="48.35894" lon="6.3094">
        <ele>270.4004</ele>
        <time>2026-05-17T16:17:51+02:00</time>
      </trkpt>
      <trkpt lat="48.35898" lon="6.30935">
        <ele>270.4004</ele>
        <time>2026-05-17T16:17:52+02:00</time>
      </trkpt>
      <trkpt lat="48.35901" lon="6.30929">
        <ele>270.4004</ele>
        <time>2026-05-17T16:17:53+02:00</time>
      </trkpt>
      <trkpt lat="48.35906" lon="6.30923">
        <ele>270.4004</ele>
        <time>2026-05-17T16:17:54+02:00</time>
      </trkpt>
      <trkpt lat="48.3591" lon="6.30918">
        <ele>270.4004</ele>
        <time>2026-05-17T16:17:55+02:00</time>
      </trkpt>
      <trkpt lat="48.35914" lon="6.30912">
        <ele>270.4004</ele>
        <time>2026-05-17T16:17:56+02:00</time>
      </trkpt>
      <trkpt lat="48.35918" lon="6.30906">
        <ele>270.4004</ele>
        <time>2026-05-17T16:17:57+02:00</time>
      </trkpt>
      <trkpt lat="48.35923" lon="6.30901">
        <ele>270.5</ele>
        <time>2026-05-17T16:17:58+02:00</time>
      </trkpt>
      <trkpt lat="48.35927" lon="6.30895">
        <ele>270.4004</ele>
        <time>2026-05-17T16:17:59+02:00</time>
      </trkpt>
      <trkpt lat="48.35932" lon="6.30889">
        <ele>270.5</ele>
        <time>2026-05-17T16:18:00+02:00</time>
      </trkpt>
      <trkpt lat="48.35936" lon="6.30883">
        <ele>270.7002</ele>
        <time>2026-05-17T16:18:01+02:00</time>
      </trkpt>
      <trkpt lat="48.3594" lon="6.30878">
        <ele>270.9004</ele>
        <time>2026-05-17T16:18:02+02:00</time>
      </trkpt>
      <trkpt lat="48.35944" lon="6.30872">
        <ele>270.7998</ele>
        <time>2026-05-17T16:18:03+02:00</time>
      </trkpt>
      <trkpt lat="48.35949" lon="6.30866">
        <ele>270.9004</ele>
        <time>2026-05-17T16:18:04+02:00</time>
      </trkpt>
      <trkpt lat="48.35954" lon="6.3086">
        <ele>270.9004</ele>
        <time>2026-05-17T16:18:05+02:00</time>
      </trkpt>
      <trkpt lat="48.35958" lon="6.30854">
        <ele>271.1006</ele>
        <time>2026-05-17T16:18:06+02:00</time>
      </trkpt>
      <trkpt lat="48.35963" lon="6.30847">
        <ele>271.4004</ele>
        <time>2026-05-17T16:18:07+02:00</time>
      </trkpt>
      <trkpt lat="48.35967" lon="6.30841">
        <ele>271.4004</ele>
        <time>2026-05-17T16:18:08+02:00</time>
      </trkpt>
      <trkpt lat="48.35972" lon="6.30835">
        <ele>271.2998</ele>
        <time>2026-05-17T16:18:09+02:00</time>
      </trkpt>
      <trkpt lat="48.35976" lon="6.30829">
        <ele>271.2002</ele>
        <time>2026-05-17T16:18:10+02:00</time>
      </trkpt>
      <trkpt lat="48.3598" lon="6.30822">
        <ele>271.5</ele>
        <time>2026-05-17T16:18:11+02:00</time>
      </trkpt>
      <trkpt lat="48.35985" lon="6.30816">
        <ele>271.6006</ele>
        <time>2026-05-17T16:18:12+02:00</time>
      </trkpt>
      <trkpt lat="48.3599" lon="6.3081">
        <ele>271.6006</ele>
        <time>2026-05-17T16:18:13+02:00</time>
      </trkpt>
      <trkpt lat="48.35994" lon="6.30803">
        <ele>271.2002</ele>
        <time>2026-05-17T16:18:14+02:00</time>
      </trkpt>
      <trkpt lat="48.35999" lon="6.30797">
        <ele>271.2002</ele>
        <time>2026-05-17T16:18:15+02:00</time>
      </trkpt>
      <trkpt lat="48.36004" lon="6.3079">
        <ele>270.7998</ele>
        <time>2026-05-17T16:18:16+02:00</time>
      </trkpt>
      <trkpt lat="48.36009" lon="6.30784">
        <ele>270.5</ele>
        <time>2026-05-17T16:18:17+02:00</time>
      </trkpt>
      <trkpt lat="48.36013" lon="6.30778">
        <ele>270.5</ele>
        <time>2026-05-17T16:18:18+02:00</time>
      </trkpt>
      <trkpt lat="48.36017" lon="6.30772">
        <ele>270.5</ele>
        <time>2026-05-17T16:18:19+02:00</time>
      </trkpt>
      <trkpt lat="48.36022" lon="6.30766">
        <ele>270.7002</ele>
        <time>2026-05-17T16:18:20+02:00</time>
      </trkpt>
      <trkpt lat="48.36027" lon="6.3076">
        <ele>270.7002</ele>
        <time>2026-05-17T16:18:21+02:00</time>
      </trkpt>
      <trkpt lat="48.36031" lon="6.30754">
        <ele>271</ele>
        <time>2026-05-17T16:18:22+02:00</time>
      </trkpt>
      <trkpt lat="48.36035" lon="6.30748">
        <ele>270.6006</ele>
        <time>2026-05-17T16:18:23+02:00</time>
      </trkpt>
      <trkpt lat="48.36039" lon="6.30742">
        <ele>270.7002</ele>
        <time>2026-05-17T16:18:24+02:00</time>
      </trkpt>
      <trkpt lat="48.36043" lon="6.30737">
        <ele>271.2002</ele>
        <time>2026-05-17T16:18:25+02:00</time>
      </trkpt>
      <trkpt lat="48.36047" lon="6.30731">
        <ele>271.4004</ele>
        <time>2026-05-17T16:18:26+02:00</time>
      </trkpt>
      <trkpt lat="48.36052" lon="6.30725">
        <ele>270.9004</ele>
        <time>2026-05-17T16:18:27+02:00</time>
      </trkpt>
      <trkpt lat="48.36056" lon="6.30719">
        <ele>271.2002</ele>
        <time>2026-05-17T16:18:28+02:00</time>
      </trkpt>
      <trkpt lat="48.3606" lon="6.30713">
        <ele>271.1006</ele>
        <time>2026-05-17T16:18:29+02:00</time>
      </trkpt>
      <trkpt lat="48.36065" lon="6.30707">
        <ele>271.2998</ele>
        <time>2026-05-17T16:18:30+02:00</time>
      </trkpt>
      <trkpt lat="48.36069" lon="6.30701">
        <ele>271</ele>
        <time>2026-05-17T16:18:31+02:00</time>
      </trkpt>
      <trkpt lat="48.36073" lon="6.30694">
        <ele>271.4004</ele>
        <time>2026-05-17T16:18:32+02:00</time>
      </trkpt>
      <trkpt lat="48.36076" lon="6.30691">
        <ele>271.2998</ele>
        <time>2026-05-17T16:18:33+02:00</time>
      </trkpt>
      <trkpt lat="48.36082" lon="6.30682">
        <ele>271.5</ele>
        <time>2026-05-17T16:18:34+02:00</time>
      </trkpt>
      <trkpt lat="48.36087" lon="6.30676">
        <ele>272.2002</ele>
        <time>2026-05-17T16:18:35+02:00</time>
      </trkpt>
      <trkpt lat="48.36092" lon="6.3067">
        <ele>272.2002</ele>
        <time>2026-05-17T16:18:36+02:00</time>
      </trkpt>
      <trkpt lat="48.36096" lon="6.30664">
        <ele>272.6006</ele>
        <time>2026-05-17T16:18:37+02:00</time>
      </trkpt>
      <trkpt lat="48.36101" lon="6.30658">
        <ele>272</ele>
        <time>2026-05-17T16:18:38+02:00</time>
      </trkpt>
      <trkpt lat="48.36105" lon="6.30651">
        <ele>272.2998</ele>
        <time>2026-05-17T16:18:39+02:00</time>
      </trkpt>
      <trkpt lat="48.36109" lon="6.30646">
        <ele>271.6006</ele>
        <time>2026-05-17T16:18:40+02:00</time>
      </trkpt>
      <trkpt lat="48.36114" lon="6.3064">
        <ele>272</ele>
        <time>2026-05-17T16:18:41+02:00</time>
      </trkpt>
      <trkpt lat="48.36119" lon="6.30634">
        <ele>272.4004</ele>
        <time>2026-05-17T16:18:42+02:00</time>
      </trkpt>
      <trkpt lat="48.36123" lon="6.30628">
        <ele>272.1006</ele>
        <time>2026-05-17T16:18:43+02:00</time>
      </trkpt>
      <trkpt lat="48.36128" lon="6.30621">
        <ele>271.5</ele>
        <time>2026-05-17T16:18:44+02:00</time>
      </trkpt>
      <trkpt lat="48.36133" lon="6.30615">
        <ele>270.7998</ele>
        <time>2026-05-17T16:18:45+02:00</time>
      </trkpt>
      <trkpt lat="48.36137" lon="6.30609">
        <ele>270.7998</ele>
        <time>2026-05-17T16:18:46+02:00</time>
      </trkpt>
      <trkpt lat="48.36141" lon="6.30603">
        <ele>270.6006</ele>
        <time>2026-05-17T16:18:47+02:00</time>
      </trkpt>
      <trkpt lat="48.36146" lon="6.30597">
        <ele>270.7998</ele>
        <time>2026-05-17T16:18:48+02:00</time>
      </trkpt>
      <trkpt lat="48.3615" lon="6.30591">
        <ele>271.4004</ele>
        <time>2026-05-17T16:18:49+02:00</time>
      </trkpt>
      <trkpt lat="48.36155" lon="6.30586">
        <ele>270.9004</ele>
        <time>2026-05-17T16:18:50+02:00</time>
      </trkpt>
      <trkpt lat="48.36159" lon="6.3058">
        <ele>270.7002</ele>
        <time>2026-05-17T16:18:51+02:00</time>
      </trkpt>
      <trkpt lat="48.36164" lon="6.30575">
        <ele>271.2002</ele>
        <time>2026-05-17T16:18:52+02:00</time>
      </trkpt>
      <trkpt lat="48.36168" lon="6.30569">
        <ele>271.5</ele>
        <time>2026-05-17T16:18:53+02:00</time>
      </trkpt>
      <trkpt lat="48.36173" lon="6.30564">
        <ele>272.5</ele>
        <time>2026-05-17T16:18:54+02:00</time>
      </trkpt>
      <trkpt lat="48.36178" lon="6.30558">
        <ele>272.4004</ele>
        <time>2026-05-17T16:18:55+02:00</time>
      </trkpt>
      <trkpt lat="48.36183" lon="6.30552">
        <ele>272.5</ele>
        <time>2026-05-17T16:18:56+02:00</time>
      </trkpt>
      <trkpt lat="48.36187" lon="6.30547">
        <ele>272.7002</ele>
        <time>2026-05-17T16:18:57+02:00</time>
      </trkpt>
      <trkpt lat="48.36191" lon="6.3054">
        <ele>272.1006</ele>
        <time>2026-05-17T16:18:58+02:00</time>
      </trkpt>
      <trkpt lat="48.36196" lon="6.30534">
        <ele>272.6006</ele>
        <time>2026-05-17T16:18:59+02:00</time>
      </trkpt>
      <trkpt lat="48.362" lon="6.30528">
        <ele>272.5</ele>
        <time>2026-05-17T16:19:00+02:00</time>
      </trkpt>
      <trkpt lat="48.36205" lon="6.30522">
        <ele>273.2002</ele>
        <time>2026-05-17T16:19:01+02:00</time>
      </trkpt>
      <trkpt lat="48.36209" lon="6.30516">
        <ele>273</ele>
        <time>2026-05-17T16:19:02+02:00</time>
      </trkpt>
      <trkpt lat="48.36214" lon="6.3051">
        <ele>272.5</ele>
        <time>2026-05-17T16:19:03+02:00</time>
      </trkpt>
      <trkpt lat="48.36216" lon="6.30507">
        <ele>272.5</ele>
        <time>2026-05-17T16:19:04+02:00</time>
      </trkpt>
      <trkpt lat="48.36223" lon="6.30499">
        <ele>272.6006</ele>
        <time>2026-05-17T16:19:05+02:00</time>
      </trkpt>
      <trkpt lat="48.36227" lon="6.30493">
        <ele>272.7998</ele>
        <time>2026-05-17T16:19:06+02:00</time>
      </trkpt>
      <trkpt lat="48.36232" lon="6.30487">
        <ele>272.7998</ele>
        <time>2026-05-17T16:19:07+02:00</time>
      </trkpt>
      <trkpt lat="48.36236" lon="6.30481">
        <ele>272.2998</ele>
        <time>2026-05-17T16:19:08+02:00</time>
      </trkpt>
      <trkpt lat="48.36241" lon="6.30476">
        <ele>271.6006</ele>
        <time>2026-05-17T16:19:09+02:00</time>
      </trkpt>
      <trkpt lat="48.36245" lon="6.3047">
        <ele>271.6006</ele>
        <time>2026-05-17T16:19:10+02:00</time>
      </trkpt>
      <trkpt lat="48.3625" lon="6.30464">
        <ele>271.1006</ele>
        <time>2026-05-17T16:19:11+02:00</time>
      </trkpt>
      <trkpt lat="48.36254" lon="6.30458">
        <ele>271.2002</ele>
        <time>2026-05-17T16:19:12+02:00</time>
      </trkpt>
      <trkpt lat="48.36258" lon="6.30451">
        <ele>270.7998</ele>
        <time>2026-05-17T16:19:13+02:00</time>
      </trkpt>
      <trkpt lat="48.36263" lon="6.30446">
        <ele>271.2998</ele>
        <time>2026-05-17T16:19:14+02:00</time>
      </trkpt>
      <trkpt lat="48.36267" lon="6.3044">
        <ele>271.4004</ele>
        <time>2026-05-17T16:19:15+02:00</time>
      </trkpt>
      <trkpt lat="48.36271" lon="6.30433">
        <ele>271.2998</ele>
        <time>2026-05-17T16:19:16+02:00</time>
      </trkpt>
      <trkpt lat="48.36275" lon="6.30427">
        <ele>272</ele>
        <time>2026-05-17T16:19:17+02:00</time>
      </trkpt>
      <trkpt lat="48.36278" lon="6.30424">
        <ele>271.5</ele>
        <time>2026-05-17T16:19:18+02:00</time>
      </trkpt>
      <trkpt lat="48.36284" lon="6.30414">
        <ele>271.7998</ele>
        <time>2026-05-17T16:19:19+02:00</time>
      </trkpt>
      <trkpt lat="48.36288" lon="6.30407">
        <ele>271.6006</ele>
        <time>2026-05-17T16:19:20+02:00</time>
      </trkpt>
      <trkpt lat="48.36292" lon="6.30401">
        <ele>271.6006</ele>
        <time>2026-05-17T16:19:21+02:00</time>
      </trkpt>
      <trkpt lat="48.36297" lon="6.30394">
        <ele>271.5</ele>
        <time>2026-05-17T16:19:22+02:00</time>
      </trkpt>
      <trkpt lat="48.36301" lon="6.30388">
        <ele>272</ele>
        <time>2026-05-17T16:19:23+02:00</time>
      </trkpt>
      <trkpt lat="48.36306" lon="6.30382">
        <ele>272.7002</ele>
        <time>2026-05-17T16:19:24+02:00</time>
      </trkpt>
      <trkpt lat="48.36311" lon="6.30375">
        <ele>273.2002</ele>
        <time>2026-05-17T16:19:25+02:00</time>
      </trkpt>
      <trkpt lat="48.36316" lon="6.30369">
        <ele>272.4004</ele>
        <time>2026-05-17T16:19:26+02:00</time>
      </trkpt>
      <trkpt lat="48.3632" lon="6.30362">
        <ele>271</ele>
        <time>2026-05-17T16:19:27+02:00</time>
      </trkpt>
      <trkpt lat="48.36326" lon="6.30356">
        <ele>270.2002</ele>
        <time>2026-05-17T16:19:28+02:00</time>
      </trkpt>
      <trkpt lat="48.3633" lon="6.30349">
        <ele>270</ele>
        <time>2026-05-17T16:19:29+02:00</time>
      </trkpt>
      <trkpt lat="48.36335" lon="6.30343">
        <ele>270.2998</ele>
        <time>2026-05-17T16:19:30+02:00</time>
      </trkpt>
      <trkpt lat="48.3634" lon="6.30337">
        <ele>270.5</ele>
        <time>2026-05-17T16:19:31+02:00</time>
      </trkpt>
      <trkpt lat="48.36345" lon="6.3033">
        <ele>270.5</ele>
        <time>2026-05-17T16:19:32+02:00</time>
      </trkpt>
      <trkpt lat="48.3635" lon="6.30324">
        <ele>271.1006</ele>
        <time>2026-05-17T16:19:33+02:00</time>
      </trkpt>
      <trkpt lat="48.36355" lon="6.30317">
        <ele>270.4004</ele>
        <time>2026-05-17T16:19:34+02:00</time>
      </trkpt>
      <trkpt lat="48.36359" lon="6.30311">
        <ele>270.6006</ele>
        <time>2026-05-17T16:19:35+02:00</time>
      </trkpt>
      <trkpt lat="48.36364" lon="6.30304">
        <ele>270.7998</ele>
        <time>2026-05-17T16:19:36+02:00</time>
      </trkpt>
      <trkpt lat="48.36369" lon="6.30298">
        <ele>271.5</ele>
        <time>2026-05-17T16:19:37+02:00</time>
      </trkpt>
      <trkpt lat="48.36374" lon="6.30291">
        <ele>271.2002</ele>
        <time>2026-05-17T16:19:38+02:00</time>
      </trkpt>
      <trkpt lat="48.36378" lon="6.30285">
        <ele>271.2002</ele>
        <time>2026-05-17T16:19:39+02:00</time>
      </trkpt>
      <trkpt lat="48.36383" lon="6.30279">
        <ele>270.9004</ele>
        <time>2026-05-17T16:19:40+02:00</time>
      </trkpt>
      <trkpt lat="48.36387" lon="6.30273">
        <ele>272</ele>
        <time>2026-05-17T16:19:41+02:00</time>
      </trkpt>
      <trkpt lat="48.36392" lon="6.30267">
        <ele>272.9004</ele>
        <time>2026-05-17T16:19:42+02:00</time>
      </trkpt>
      <trkpt lat="48.36396" lon="6.30261">
        <ele>272.2002</ele>
        <time>2026-05-17T16:19:43+02:00</time>
      </trkpt>
      <trkpt lat="48.364" lon="6.30255">
        <ele>272.2002</ele>
        <time>2026-05-17T16:19:44+02:00</time>
      </trkpt>
      <trkpt lat="48.36405" lon="6.30249">
        <ele>271.1006</ele>
        <time>2026-05-17T16:19:45+02:00</time>
      </trkpt>
      <trkpt lat="48.3641" lon="6.30242">
        <ele>271.5</ele>
        <time>2026-05-17T16:19:46+02:00</time>
      </trkpt>
      <trkpt lat="48.36414" lon="6.30236">
        <ele>272.2998</ele>
        <time>2026-05-17T16:19:47+02:00</time>
      </trkpt>
      <trkpt lat="48.36419" lon="6.30229">
        <ele>272.7002</ele>
        <time>2026-05-17T16:19:48+02:00</time>
      </trkpt>
      <trkpt lat="48.36424" lon="6.30223">
        <ele>271.7002</ele>
        <time>2026-05-17T16:19:49+02:00</time>
      </trkpt>
      <trkpt lat="48.36429" lon="6.30216">
        <ele>270.4004</ele>
        <time>2026-05-17T16:19:50+02:00</time>
      </trkpt>
      <trkpt lat="48.36434" lon="6.3021">
        <ele>270.1006</ele>
        <time>2026-05-17T16:19:51+02:00</time>
      </trkpt>
      <trkpt lat="48.36438" lon="6.30203">
        <ele>270</ele>
        <time>2026-05-17T16:19:52+02:00</time>
      </trkpt>
      <trkpt lat="48.36443" lon="6.30196">
        <ele>270.2002</ele>
        <time>2026-05-17T16:19:53+02:00</time>
      </trkpt>
      <trkpt lat="48.36448" lon="6.3019">
        <ele>270.2002</ele>
        <time>2026-05-17T16:19:54+02:00</time>
      </trkpt>
      <trkpt lat="48.36453" lon="6.30183">
        <ele>270</ele>
        <time>2026-05-17T16:19:55+02:00</time>
      </trkpt>
      <trkpt lat="48.36458" lon="6.30177">
        <ele>270.1006</ele>
        <time>2026-05-17T16:19:56+02:00</time>
      </trkpt>
      <trkpt lat="48.36463" lon="6.3017">
        <ele>270.1006</ele>
        <time>2026-05-17T16:19:57+02:00</time>
      </trkpt>
      <trkpt lat="48.36468" lon="6.30164">
        <ele>270.7998</ele>
        <time>2026-05-17T16:19:58+02:00</time>
      </trkpt>
      <trkpt lat="48.36472" lon="6.30158">
        <ele>271.2998</ele>
        <time>2026-05-17T16:19:59+02:00</time>
      </trkpt>
      <trkpt lat="48.36477" lon="6.30152">
        <ele>271.4004</ele>
        <time>2026-05-17T16:20:00+02:00</time>
      </trkpt>
      <trkpt lat="48.36483" lon="6.30146">
        <ele>270.7998</ele>
        <time>2026-05-17T16:20:01+02:00</time>
      </trkpt>
      <trkpt lat="48.36488" lon="6.30141">
        <ele>270.2998</ele>
        <time>2026-05-17T16:20:02+02:00</time>
      </trkpt>
      <trkpt lat="48.36493" lon="6.30135">
        <ele>270.6006</ele>
        <time>2026-05-17T16:20:03+02:00</time>
      </trkpt>
      <trkpt lat="48.36498" lon="6.30128">
        <ele>271.1006</ele>
        <time>2026-05-17T16:20:04+02:00</time>
      </trkpt>
      <trkpt lat="48.36504" lon="6.30122">
        <ele>271.1006</ele>
        <time>2026-05-17T16:20:05+02:00</time>
      </trkpt>
      <trkpt lat="48.36509" lon="6.30116">
        <ele>270.6006</ele>
        <time>2026-05-17T16:20:06+02:00</time>
      </trkpt>
      <trkpt lat="48.36515" lon="6.3011">
        <ele>270.6006</ele>
        <time>2026-05-17T16:20:07+02:00</time>
      </trkpt>
      <trkpt lat="48.3652" lon="6.30104">
        <ele>270.2002</ele>
        <time>2026-05-17T16:20:08+02:00</time>
      </trkpt>
      <trkpt lat="48.36525" lon="6.30098">
        <ele>270.2002</ele>
        <time>2026-05-17T16:20:09+02:00</time>
      </trkpt>
      <trkpt lat="48.36531" lon="6.30093">
        <ele>270.2998</ele>
        <time>2026-05-17T16:20:10+02:00</time>
      </trkpt>
      <trkpt lat="48.36537" lon="6.30087">
        <ele>270.2998</ele>
        <time>2026-05-17T16:20:11+02:00</time>
      </trkpt>
      <trkpt lat="48.36542" lon="6.30082">
        <ele>270.2002</ele>
        <time>2026-05-17T16:20:12+02:00</time>
      </trkpt>
      <trkpt lat="48.36548" lon="6.30077">
        <ele>270.2998</ele>
        <time>2026-05-17T16:20:13+02:00</time>
      </trkpt>
      <trkpt lat="48.36553" lon="6.30072">
        <ele>270.2998</ele>
        <time>2026-05-17T16:20:14+02:00</time>
      </trkpt>
      <trkpt lat="48.36559" lon="6.30066">
        <ele>270.6006</ele>
        <time>2026-05-17T16:20:15+02:00</time>
      </trkpt>
      <trkpt lat="48.36564" lon="6.30061">
        <ele>270.7998</ele>
        <time>2026-05-17T16:20:16+02:00</time>
      </trkpt>
      <trkpt lat="48.3657" lon="6.30057">
        <ele>270.9004</ele>
        <time>2026-05-17T16:20:17+02:00</time>
      </trkpt>
      <trkpt lat="48.36575" lon="6.30052">
        <ele>271</ele>
        <time>2026-05-17T16:20:18+02:00</time>
      </trkpt>
      <trkpt lat="48.3658" lon="6.30048">
        <ele>270.6006</ele>
        <time>2026-05-17T16:20:19+02:00</time>
      </trkpt>
      <trkpt lat="48.36586" lon="6.30043">
        <ele>270.7002</ele>
        <time>2026-05-17T16:20:20+02:00</time>
      </trkpt>
      <trkpt lat="48.36591" lon="6.30038">
        <ele>270.4004</ele>
        <time>2026-05-17T16:20:21+02:00</time>
      </trkpt>
      <trkpt lat="48.36597" lon="6.30034">
        <ele>270.7002</ele>
        <time>2026-05-17T16:20:22+02:00</time>
      </trkpt>
      <trkpt lat="48.36603" lon="6.3003">
        <ele>270.9004</ele>
        <time>2026-05-17T16:20:23+02:00</time>
      </trkpt>
      <trkpt lat="48.36608" lon="6.30026">
        <ele>271.2002</ele>
        <time>2026-05-17T16:20:24+02:00</time>
      </trkpt>
      <trkpt lat="48.36614" lon="6.30022">
        <ele>271.4004</ele>
        <time>2026-05-17T16:20:25+02:00</time>
      </trkpt>
      <trkpt lat="48.36619" lon="6.30018">
        <ele>271.4004</ele>
        <time>2026-05-17T16:20:26+02:00</time>
      </trkpt>
      <trkpt lat="48.36625" lon="6.30014">
        <ele>271</ele>
        <time>2026-05-17T16:20:27+02:00</time>
      </trkpt>
      <trkpt lat="48.3663" lon="6.3001">
        <ele>271</ele>
        <time>2026-05-17T16:20:28+02:00</time>
      </trkpt>
      <trkpt lat="48.36636" lon="6.30006">
        <ele>271</ele>
        <time>2026-05-17T16:20:29+02:00</time>
      </trkpt>
      <trkpt lat="48.36641" lon="6.30002">
        <ele>270.6006</ele>
        <time>2026-05-17T16:20:30+02:00</time>
      </trkpt>
      <trkpt lat="48.36644" lon="6.3">
        <ele>270.6006</ele>
        <time>2026-05-17T16:20:31+02:00</time>
      </trkpt>
      <trkpt lat="48.36653" lon="6.29995">
        <ele>270.4004</ele>
        <time>2026-05-17T16:20:32+02:00</time>
      </trkpt>
      <trkpt lat="48.36658" lon="6.29992">
        <ele>270.4004</ele>
        <time>2026-05-17T16:20:33+02:00</time>
      </trkpt>
      <trkpt lat="48.36664" lon="6.29988">
        <ele>270.2002</ele>
        <time>2026-05-17T16:20:34+02:00</time>
      </trkpt>
      <trkpt lat="48.3667" lon="6.29985">
        <ele>270.2002</ele>
        <time>2026-05-17T16:20:35+02:00</time>
      </trkpt>
      <trkpt lat="48.36676" lon="6.29982">
        <ele>270.2002</ele>
        <time>2026-05-17T16:20:36+02:00</time>
      </trkpt>
      <trkpt lat="48.36682" lon="6.29978">
        <ele>270.1006</ele>
        <time>2026-05-17T16:20:37+02:00</time>
      </trkpt>
      <trkpt lat="48.36688" lon="6.29975">
        <ele>270.2002</ele>
        <time>2026-05-17T16:20:38+02:00</time>
      </trkpt>
      <trkpt lat="48.36693" lon="6.29972">
        <ele>270.5</ele>
        <time>2026-05-17T16:20:39+02:00</time>
      </trkpt>
      <trkpt lat="48.36699" lon="6.29969">
        <ele>270.5</ele>
        <time>2026-05-17T16:20:40+02:00</time>
      </trkpt>
      <trkpt lat="48.36706" lon="6.29966">
        <ele>270.6006</ele>
        <time>2026-05-17T16:20:41+02:00</time>
      </trkpt>
      <trkpt lat="48.36711" lon="6.29963">
        <ele>270.6006</ele>
        <time>2026-05-17T16:20:42+02:00</time>
      </trkpt>
      <trkpt lat="48.36717" lon="6.29959">
        <ele>270.4004</ele>
        <time>2026-05-17T16:20:43+02:00</time>
      </trkpt>
      <trkpt lat="48.36723" lon="6.29956">
        <ele>270.4004</ele>
        <time>2026-05-17T16:20:44+02:00</time>
      </trkpt>
      <trkpt lat="48.36729" lon="6.29951">
        <ele>270.2998</ele>
        <time>2026-05-17T16:20:45+02:00</time>
      </trkpt>
      <trkpt lat="48.36735" lon="6.29947">
        <ele>270.2998</ele>
        <time>2026-05-17T16:20:46+02:00</time>
      </trkpt>
      <trkpt lat="48.3674" lon="6.29943">
        <ele>270.2998</ele>
        <time>2026-05-17T16:20:47+02:00</time>
      </trkpt>
      <trkpt lat="48.36745" lon="6.2994">
        <ele>270.2002</ele>
        <time>2026-05-17T16:20:48+02:00</time>
      </trkpt>
      <trkpt lat="48.36751" lon="6.29936">
        <ele>270.2002</ele>
        <time>2026-05-17T16:20:49+02:00</time>
      </trkpt>
      <trkpt lat="48.36756" lon="6.29934">
        <ele>270.2002</ele>
        <time>2026-05-17T16:20:50+02:00</time>
      </trkpt>
      <trkpt lat="48.3676" lon="6.29931">
        <ele>270.2998</ele>
        <time>2026-05-17T16:20:51+02:00</time>
      </trkpt>
      <trkpt lat="48.36764" lon="6.29929">
        <ele>270.2998</ele>
        <time>2026-05-17T16:20:52+02:00</time>
      </trkpt>
      <trkpt lat="48.36768" lon="6.29927">
        <ele>270.2998</ele>
        <time>2026-05-17T16:20:53+02:00</time>
      </trkpt>
      <trkpt lat="48.36772" lon="6.29924">
        <ele>270.2998</ele>
        <time>2026-05-17T16:20:54+02:00</time>
      </trkpt>
      <trkpt lat="48.36776" lon="6.29922">
        <ele>270.2998</ele>
        <time>2026-05-17T16:20:55+02:00</time>
      </trkpt>
      <trkpt lat="48.3678" lon="6.29922">
        <ele>270.2998</ele>
        <time>2026-05-17T16:20:56+02:00</time>
      </trkpt>
      <trkpt lat="48.36783" lon="6.29924">
        <ele>270.2998</ele>
        <time>2026-05-17T16:20:57+02:00</time>
      </trkpt>
      <trkpt lat="48.36785" lon="6.29927">
        <ele>270.2998</ele>
        <time>2026-05-17T16:20:58+02:00</time>
      </trkpt>
      <trkpt lat="48.36788" lon="6.29929">
        <ele>270.2998</ele>
        <time>2026-05-17T16:20:59+02:00</time>
      </trkpt>
      <trkpt lat="48.36791" lon="6.29929">
        <ele>270.2998</ele>
        <time>2026-05-17T16:21:00+02:00</time>
      </trkpt>
      <trkpt lat="48.36793" lon="6.29929">
        <ele>270.2998</ele>
        <time>2026-05-17T16:21:01+02:00</time>
      </trkpt>
      <trkpt lat="48.36795" lon="6.29928">
        <ele>270.2998</ele>
        <time>2026-05-17T16:21:02+02:00</time>
      </trkpt>
      <trkpt lat="48.36798" lon="6.29927">
        <ele>270.2998</ele>
        <time>2026-05-17T16:21:03+02:00</time>
      </trkpt>
      <trkpt lat="48.36801" lon="6.29925">
        <ele>270.2998</ele>
        <time>2026-05-17T16:21:04+02:00</time>
      </trkpt>
      <trkpt lat="48.36804" lon="6.29923">
        <ele>270.2998</ele>
        <time>2026-05-17T16:21:05+02:00</time>
      </trkpt>
      <trkpt lat="48.36807" lon="6.29922">
        <ele>270.2998</ele>
        <time>2026-05-17T16:21:06+02:00</time>
      </trkpt>
      <trkpt lat="48.36811" lon="6.2992">
        <ele>270.2998</ele>
        <time>2026-05-17T16:21:07+02:00</time>
      </trkpt>
      <trkpt lat="48.36815" lon="6.29918">
        <ele>270.2998</ele>
        <time>2026-05-17T16:21:08+02:00</time>
      </trkpt>
      <trkpt lat="48.36819" lon="6.29916">
        <ele>270.2998</ele>
        <time>2026-05-17T16:21:09+02:00</time>
      </trkpt>
      <trkpt lat="48.36823" lon="6.29914">
        <ele>270.4004</ele>
        <time>2026-05-17T16:21:10+02:00</time>
      </trkpt>
      <trkpt lat="48.36828" lon="6.29911">
        <ele>270.4004</ele>
        <time>2026-05-17T16:21:11+02:00</time>
      </trkpt>
      <trkpt lat="48.36833" lon="6.29909">
        <ele>270.6006</ele>
        <time>2026-05-17T16:21:12+02:00</time>
      </trkpt>
      <trkpt lat="48.36838" lon="6.29906">
        <ele>270.6006</ele>
        <time>2026-05-17T16:21:13+02:00</time>
      </trkpt>
      <trkpt lat="48.36844" lon="6.29904">
        <ele>270.6006</ele>
        <time>2026-05-17T16:21:14+02:00</time>
      </trkpt>
      <trkpt lat="48.36849" lon="6.29901">
        <ele>270.6006</ele>
        <time>2026-05-17T16:21:15+02:00</time>
      </trkpt>
      <trkpt lat="48.36854" lon="6.29899">
        <ele>270.5</ele>
        <time>2026-05-17T16:21:16+02:00</time>
      </trkpt>
      <trkpt lat="48.3686" lon="6.29896">
        <ele>270.5</ele>
        <time>2026-05-17T16:21:17+02:00</time>
      </trkpt>
      <trkpt lat="48.36865" lon="6.29893">
        <ele>270.4004</ele>
        <time>2026-05-17T16:21:18+02:00</time>
      </trkpt>
      <trkpt lat="48.36871" lon="6.2989">
        <ele>270.4004</ele>
        <time>2026-05-17T16:21:19+02:00</time>
      </trkpt>
      <trkpt lat="48.36876" lon="6.29887">
        <ele>270.2998</ele>
        <time>2026-05-17T16:21:20+02:00</time>
      </trkpt>
      <trkpt lat="48.36881" lon="6.29885">
        <ele>270.2998</ele>
        <time>2026-05-17T16:21:21+02:00</time>
      </trkpt>
      <trkpt lat="48.36887" lon="6.29882">
        <ele>270.2998</ele>
        <time>2026-05-17T16:21:22+02:00</time>
      </trkpt>
      <trkpt lat="48.36892" lon="6.2988">
        <ele>270.2998</ele>
        <time>2026-05-17T16:21:23+02:00</time>
      </trkpt>
      <trkpt lat="48.36898" lon="6.29877">
        <ele>270.2998</ele>
        <time>2026-05-17T16:21:24+02:00</time>
      </trkpt>
      <trkpt lat="48.36904" lon="6.29874">
        <ele>270.2002</ele>
        <time>2026-05-17T16:21:25+02:00</time>
      </trkpt>
      <trkpt lat="48.36909" lon="6.29871">
        <ele>270.1006</ele>
        <time>2026-05-17T16:21:26+02:00</time>
      </trkpt>
      <trkpt lat="48.36915" lon="6.29868">
        <ele>270.1006</ele>
        <time>2026-05-17T16:21:27+02:00</time>
      </trkpt>
      <trkpt lat="48.3692" lon="6.29865">
        <ele>270</ele>
        <time>2026-05-17T16:21:28+02:00</time>
      </trkpt>
      <trkpt lat="48.36926" lon="6.29863">
        <ele>269.9004</ele>
        <time>2026-05-17T16:21:29+02:00</time>
      </trkpt>
      <trkpt lat="48.36932" lon="6.2986">
        <ele>269.7998</ele>
        <time>2026-05-17T16:21:30+02:00</time>
      </trkpt>
      <trkpt lat="48.36937" lon="6.29857">
        <ele>269.7998</ele>
        <time>2026-05-17T16:21:31+02:00</time>
      </trkpt>
      <trkpt lat="48.36943" lon="6.29854">
        <ele>269.7002</ele>
        <time>2026-05-17T16:21:32+02:00</time>
      </trkpt>
      <trkpt lat="48.36949" lon="6.29851">
        <ele>269.7998</ele>
        <time>2026-05-17T16:21:33+02:00</time>
      </trkpt>
      <trkpt lat="48.36954" lon="6.29849">
        <ele>269.7002</ele>
        <time>2026-05-17T16:21:34+02:00</time>
      </trkpt>
      <trkpt lat="48.3696" lon="6.29846">
        <ele>269.6006</ele>
        <time>2026-05-17T16:21:35+02:00</time>
      </trkpt>
      <trkpt lat="48.36965" lon="6.29843">
        <ele>269.5</ele>
        <time>2026-05-17T16:21:36+02:00</time>
      </trkpt>
      <trkpt lat="48.36971" lon="6.2984">
        <ele>269.5</ele>
        <time>2026-05-17T16:21:37+02:00</time>
      </trkpt>
      <trkpt lat="48.36977" lon="6.29838">
        <ele>269.2998</ele>
        <time>2026-05-17T16:21:38+02:00</time>
      </trkpt>
      <trkpt lat="48.36983" lon="6.29835">
        <ele>269.2002</ele>
        <time>2026-05-17T16:21:39+02:00</time>
      </trkpt>
      <trkpt lat="48.36989" lon="6.29832">
        <ele>269.1006</ele>
        <time>2026-05-17T16:21:40+02:00</time>
      </trkpt>
      <trkpt lat="48.36995" lon="6.29829">
        <ele>269</ele>
        <time>2026-05-17T16:21:41+02:00</time>
      </trkpt>
      <trkpt lat="48.37001" lon="6.29826">
        <ele>268.9004</ele>
        <time>2026-05-17T16:21:42+02:00</time>
      </trkpt>
      <trkpt lat="48.37007" lon="6.29823">
        <ele>268.9004</ele>
        <time>2026-05-17T16:21:43+02:00</time>
      </trkpt>
      <trkpt lat="48.37013" lon="6.2982">
        <ele>268.9004</ele>
        <time>2026-05-17T16:21:44+02:00</time>
      </trkpt>
      <trkpt lat="48.37019" lon="6.29817">
        <ele>268.7998</ele>
        <time>2026-05-17T16:21:45+02:00</time>
      </trkpt>
      <trkpt lat="48.37025" lon="6.29815">
        <ele>268.9004</ele>
        <time>2026-05-17T16:21:46+02:00</time>
      </trkpt>
      <trkpt lat="48.37031" lon="6.29812">
        <ele>268.7998</ele>
        <time>2026-05-17T16:21:47+02:00</time>
      </trkpt>
      <trkpt lat="48.37037" lon="6.29809">
        <ele>268.7002</ele>
        <time>2026-05-17T16:21:48+02:00</time>
      </trkpt>
      <trkpt lat="48.37043" lon="6.29806">
        <ele>268.7002</ele>
        <time>2026-05-17T16:21:49+02:00</time>
      </trkpt>
      <trkpt lat="48.37049" lon="6.29803">
        <ele>268.6006</ele>
        <time>2026-05-17T16:21:50+02:00</time>
      </trkpt>
      <trkpt lat="48.37055" lon="6.298">
        <ele>268.5</ele>
        <time>2026-05-17T16:21:51+02:00</time>
      </trkpt>
      <trkpt lat="48.37061" lon="6.29798">
        <ele>268.4004</ele>
        <time>2026-05-17T16:21:52+02:00</time>
      </trkpt>
      <trkpt lat="48.37066" lon="6.29795">
        <ele>268.2998</ele>
        <time>2026-05-17T16:21:53+02:00</time>
      </trkpt>
      <trkpt lat="48.37073" lon="6.29792">
        <ele>268.2002</ele>
        <time>2026-05-17T16:21:54+02:00</time>
      </trkpt>
      <trkpt lat="48.37079" lon="6.29789">
        <ele>268.1006</ele>
        <time>2026-05-17T16:21:55+02:00</time>
      </trkpt>
      <trkpt lat="48.37085" lon="6.29786">
        <ele>268</ele>
        <time>2026-05-17T16:21:56+02:00</time>
      </trkpt>
      <trkpt lat="48.37091" lon="6.29783">
        <ele>267.9004</ele>
        <time>2026-05-17T16:21:57+02:00</time>
      </trkpt>
      <trkpt lat="48.37097" lon="6.2978">
        <ele>268</ele>
        <time>2026-05-17T16:21:58+02:00</time>
      </trkpt>
      <trkpt lat="48.371" lon="6.29779">
        <ele>268</ele>
        <time>2026-05-17T16:21:59+02:00</time>
      </trkpt>
      <trkpt lat="48.3711" lon="6.29775">
        <ele>267.7998</ele>
        <time>2026-05-17T16:22:00+02:00</time>
      </trkpt>
      <trkpt lat="48.37116" lon="6.29771">
        <ele>267.7998</ele>
        <time>2026-05-17T16:22:01+02:00</time>
      </trkpt>
      <trkpt lat="48.37122" lon="6.29768">
        <ele>267.7998</ele>
        <time>2026-05-17T16:22:02+02:00</time>
      </trkpt>
      <trkpt lat="48.37127" lon="6.29765">
        <ele>267.7998</ele>
        <time>2026-05-17T16:22:03+02:00</time>
      </trkpt>
      <trkpt lat="48.37134" lon="6.29762">
        <ele>267.7002</ele>
        <time>2026-05-17T16:22:04+02:00</time>
      </trkpt>
      <trkpt lat="48.3714" lon="6.29759">
        <ele>267.6006</ele>
        <time>2026-05-17T16:22:05+02:00</time>
      </trkpt>
      <trkpt lat="48.37146" lon="6.29757">
        <ele>267.4004</ele>
        <time>2026-05-17T16:22:06+02:00</time>
      </trkpt>
      <trkpt lat="48.37152" lon="6.29754">
        <ele>267.4004</ele>
        <time>2026-05-17T16:22:07+02:00</time>
      </trkpt>
      <trkpt lat="48.37158" lon="6.29751">
        <ele>267.2002</ele>
        <time>2026-05-17T16:22:08+02:00</time>
      </trkpt>
      <trkpt lat="48.37164" lon="6.29748">
        <ele>267</ele>
        <time>2026-05-17T16:22:09+02:00</time>
      </trkpt>
      <trkpt lat="48.37171" lon="6.29745">
        <ele>266.6006</ele>
        <time>2026-05-17T16:22:10+02:00</time>
      </trkpt>
      <trkpt lat="48.37177" lon="6.29742">
        <ele>266.4004</ele>
        <time>2026-05-17T16:22:11+02:00</time>
      </trkpt>
      <trkpt lat="48.37183" lon="6.29739">
        <ele>266.2998</ele>
        <time>2026-05-17T16:22:12+02:00</time>
      </trkpt>
      <trkpt lat="48.37189" lon="6.29736">
        <ele>266.1006</ele>
        <time>2026-05-17T16:22:13+02:00</time>
      </trkpt>
      <trkpt lat="48.37196" lon="6.29733">
        <ele>266</ele>
        <time>2026-05-17T16:22:14+02:00</time>
      </trkpt>
      <trkpt lat="48.37201" lon="6.29729">
        <ele>265.7998</ele>
        <time>2026-05-17T16:22:15+02:00</time>
      </trkpt>
      <trkpt lat="48.37208" lon="6.29726">
        <ele>265.7998</ele>
        <time>2026-05-17T16:22:16+02:00</time>
      </trkpt>
      <trkpt lat="48.37214" lon="6.29724">
        <ele>265.7002</ele>
        <time>2026-05-17T16:22:17+02:00</time>
      </trkpt>
      <trkpt lat="48.3722" lon="6.29721">
        <ele>265.7002</ele>
        <time>2026-05-17T16:22:18+02:00</time>
      </trkpt>
      <trkpt lat="48.37226" lon="6.29718">
        <ele>265.5</ele>
        <time>2026-05-17T16:22:19+02:00</time>
      </trkpt>
      <trkpt lat="48.37232" lon="6.29715">
        <ele>265.2998</ele>
        <time>2026-05-17T16:22:20+02:00</time>
      </trkpt>
      <trkpt lat="48.37238" lon="6.29712">
        <ele>265.2998</ele>
        <time>2026-05-17T16:22:21+02:00</time>
      </trkpt>
      <trkpt lat="48.37244" lon="6.29709">
        <ele>265.1006</ele>
        <time>2026-05-17T16:22:22+02:00</time>
      </trkpt>
      <trkpt lat="48.3725" lon="6.29707">
        <ele>265</ele>
        <time>2026-05-17T16:22:23+02:00</time>
      </trkpt>
      <trkpt lat="48.37256" lon="6.29704">
        <ele>264.9004</ele>
        <time>2026-05-17T16:22:24+02:00</time>
      </trkpt>
      <trkpt lat="48.37261" lon="6.29701">
        <ele>264.9004</ele>
        <time>2026-05-17T16:22:25+02:00</time>
      </trkpt>
      <trkpt lat="48.37267" lon="6.29698">
        <ele>265</ele>
        <time>2026-05-17T16:22:26+02:00</time>
      </trkpt>
      <trkpt lat="48.37272" lon="6.29695">
        <ele>264.9004</ele>
        <time>2026-05-17T16:22:27+02:00</time>
      </trkpt>
      <trkpt lat="48.37278" lon="6.29692">
        <ele>265</ele>
        <time>2026-05-17T16:22:28+02:00</time>
      </trkpt>
      <trkpt lat="48.37283" lon="6.29689">
        <ele>265.1006</ele>
        <time>2026-05-17T16:22:29+02:00</time>
      </trkpt>
      <trkpt lat="48.37287" lon="6.29686">
        <ele>265</ele>
        <time>2026-05-17T16:22:30+02:00</time>
      </trkpt>
      <trkpt lat="48.3729" lon="6.29685">
        <ele>265</ele>
        <time>2026-05-17T16:22:31+02:00</time>
      </trkpt>
      <trkpt lat="48.37293" lon="6.29683">
        <ele>265.1006</ele>
        <time>2026-05-17T16:22:32+02:00</time>
      </trkpt>
      <trkpt lat="48.37296" lon="6.29681">
        <ele>265.1006</ele>
        <time>2026-05-17T16:22:33+02:00</time>
      </trkpt>
      <trkpt lat="48.37299" lon="6.29679">
        <ele>264.9004</ele>
        <time>2026-05-17T16:22:34+02:00</time>
      </trkpt>
      <trkpt lat="48.37304" lon="6.29676">
        <ele>264.9004</ele>
        <time>2026-05-17T16:22:35+02:00</time>
      </trkpt>
      <trkpt lat="48.37307" lon="6.29674">
        <ele>264.9004</ele>
        <time>2026-05-17T16:22:36+02:00</time>
      </trkpt>
      <trkpt lat="48.37309" lon="6.29673">
        <ele>264.9004</ele>
        <time>2026-05-17T16:22:37+02:00</time>
      </trkpt>
      <trkpt lat="48.37311" lon="6.29672">
        <ele>264.9004</ele>
        <time>2026-05-17T16:22:38+02:00</time>
      </trkpt>
      <trkpt lat="48.37313" lon="6.2967">
        <ele>264.7998</ele>
        <time>2026-05-17T16:22:39+02:00</time>
      </trkpt>
      <trkpt lat="48.37316" lon="6.29668">
        <ele>264.7998</ele>
        <time>2026-05-17T16:22:40+02:00</time>
      </trkpt>
      <trkpt lat="48.37319" lon="6.29665">
        <ele>264.9004</ele>
        <time>2026-05-17T16:22:41+02:00</time>
      </trkpt>
      <trkpt lat="48.37323" lon="6.29662">
        <ele>264.7998</ele>
        <time>2026-05-17T16:22:42+02:00</time>
      </trkpt>
      <trkpt lat="48.37327" lon="6.29659">
        <ele>264.9004</ele>
        <time>2026-05-17T16:22:43+02:00</time>
      </trkpt>
      <trkpt lat="48.37331" lon="6.29656">
        <ele>265.1006</ele>
        <time>2026-05-17T16:22:44+02:00</time>
      </trkpt>
      <trkpt lat="48.37335" lon="6.29652">
        <ele>265</ele>
        <time>2026-05-17T16:22:45+02:00</time>
      </trkpt>
      <trkpt lat="48.37339" lon="6.29648">
        <ele>265.2998</ele>
        <time>2026-05-17T16:22:46+02:00</time>
      </trkpt>
      <trkpt lat="48.37343" lon="6.29644">
        <ele>265.2002</ele>
        <time>2026-05-17T16:22:47+02:00</time>
      </trkpt>
      <trkpt lat="48.37348" lon="6.2964">
        <ele>265.5</ele>
        <time>2026-05-17T16:22:48+02:00</time>
      </trkpt>
      <trkpt lat="48.37352" lon="6.29635">
        <ele>265.2002</ele>
        <time>2026-05-17T16:22:49+02:00</time>
      </trkpt>
      <trkpt lat="48.37356" lon="6.2963">
        <ele>265.7002</ele>
        <time>2026-05-17T16:22:50+02:00</time>
      </trkpt>
      <trkpt lat="48.37358" lon="6.29628">
        <ele>265.4004</ele>
        <time>2026-05-17T16:22:51+02:00</time>
      </trkpt>
      <trkpt lat="48.37364" lon="6.29621">
        <ele>265.9004</ele>
        <time>2026-05-17T16:22:52+02:00</time>
      </trkpt>
      <trkpt lat="48.37368" lon="6.29615">
        <ele>265.9004</ele>
        <time>2026-05-17T16:22:53+02:00</time>
      </trkpt>
      <trkpt lat="48.37372" lon="6.29609">
        <ele>265.7998</ele>
        <time>2026-05-17T16:22:54+02:00</time>
      </trkpt>
      <trkpt lat="48.37376" lon="6.29603">
        <ele>266.2998</ele>
        <time>2026-05-17T16:22:55+02:00</time>
      </trkpt>
      <trkpt lat="48.3738" lon="6.29598">
        <ele>266</ele>
        <time>2026-05-17T16:22:56+02:00</time>
      </trkpt>
      <trkpt lat="48.37385" lon="6.29592">
        <ele>266.2002</ele>
        <time>2026-05-17T16:22:57+02:00</time>
      </trkpt>
      <trkpt lat="48.37389" lon="6.29586">
        <ele>266.6006</ele>
        <time>2026-05-17T16:22:58+02:00</time>
      </trkpt>
      <trkpt lat="48.37393" lon="6.2958">
        <ele>266.4004</ele>
        <time>2026-05-17T16:22:59+02:00</time>
      </trkpt>
      <trkpt lat="48.37396" lon="6.29575">
        <ele>265.9004</ele>
        <time>2026-05-17T16:23:00+02:00</time>
      </trkpt>
      <trkpt lat="48.374" lon="6.29569">
        <ele>266.4004</ele>
        <time>2026-05-17T16:23:01+02:00</time>
      </trkpt>
      <trkpt lat="48.37404" lon="6.29564">
        <ele>266.1006</ele>
        <time>2026-05-17T16:23:02+02:00</time>
      </trkpt>
      <trkpt lat="48.37407" lon="6.29558">
        <ele>266.2998</ele>
        <time>2026-05-17T16:23:03+02:00</time>
      </trkpt>
      <trkpt lat="48.37411" lon="6.29552">
        <ele>266.4004</ele>
        <time>2026-05-17T16:23:04+02:00</time>
      </trkpt>
      <trkpt lat="48.37415" lon="6.29547">
        <ele>266</ele>
        <time>2026-05-17T16:23:05+02:00</time>
      </trkpt>
      <trkpt lat="48.37418" lon="6.29542">
        <ele>265.2998</ele>
        <time>2026-05-17T16:23:06+02:00</time>
      </trkpt>
      <trkpt lat="48.37421" lon="6.29536">
        <ele>265.2998</ele>
        <time>2026-05-17T16:23:07+02:00</time>
      </trkpt>
      <trkpt lat="48.37424" lon="6.2953">
        <ele>264.9004</ele>
        <time>2026-05-17T16:23:08+02:00</time>
      </trkpt>
      <trkpt lat="48.37427" lon="6.29524">
        <ele>264.7998</ele>
        <time>2026-05-17T16:23:09+02:00</time>
      </trkpt>
      <trkpt lat="48.3743" lon="6.29518">
        <ele>264.7998</ele>
        <time>2026-05-17T16:23:10+02:00</time>
      </trkpt>
      <trkpt lat="48.37432" lon="6.29515">
        <ele>264.7002</ele>
        <time>2026-05-17T16:23:11+02:00</time>
      </trkpt>
      <trkpt lat="48.37437" lon="6.29506">
        <ele>264.7998</ele>
        <time>2026-05-17T16:23:12+02:00</time>
      </trkpt>
      <trkpt lat="48.37441" lon="6.295">
        <ele>264.9004</ele>
        <time>2026-05-17T16:23:13+02:00</time>
      </trkpt>
      <trkpt lat="48.37446" lon="6.29495">
        <ele>264.7998</ele>
        <time>2026-05-17T16:23:14+02:00</time>
      </trkpt>
      <trkpt lat="48.37449" lon="6.29489">
        <ele>264.7998</ele>
        <time>2026-05-17T16:23:15+02:00</time>
      </trkpt>
      <trkpt lat="48.37453" lon="6.29483">
        <ele>264.9004</ele>
        <time>2026-05-17T16:23:16+02:00</time>
      </trkpt>
      <trkpt lat="48.37457" lon="6.29478">
        <ele>264.9004</ele>
        <time>2026-05-17T16:23:17+02:00</time>
      </trkpt>
      <trkpt lat="48.3746" lon="6.29471">
        <ele>264.7998</ele>
        <time>2026-05-17T16:23:18+02:00</time>
      </trkpt>
      <trkpt lat="48.37464" lon="6.29465">
        <ele>264.7002</ele>
        <time>2026-05-17T16:23:19+02:00</time>
      </trkpt>
      <trkpt lat="48.37468" lon="6.29459">
        <ele>264.9004</ele>
        <time>2026-05-17T16:23:20+02:00</time>
      </trkpt>
      <trkpt lat="48.37472" lon="6.29453">
        <ele>264.7998</ele>
        <time>2026-05-17T16:23:21+02:00</time>
      </trkpt>
      <trkpt lat="48.37476" lon="6.29446">
        <ele>264.7998</ele>
        <time>2026-05-17T16:23:22+02:00</time>
      </trkpt>
      <trkpt lat="48.3748" lon="6.29439">
        <ele>264.9004</ele>
        <time>2026-05-17T16:23:23+02:00</time>
      </trkpt>
      <trkpt lat="48.37484" lon="6.29433">
        <ele>265.2998</ele>
        <time>2026-05-17T16:23:24+02:00</time>
      </trkpt>
      <trkpt lat="48.37488" lon="6.29426">
        <ele>265.2002</ele>
        <time>2026-05-17T16:23:25+02:00</time>
      </trkpt>
      <trkpt lat="48.37492" lon="6.2942">
        <ele>265.6006</ele>
        <time>2026-05-17T16:23:26+02:00</time>
      </trkpt>
      <trkpt lat="48.37496" lon="6.29413">
        <ele>265.6006</ele>
        <time>2026-05-17T16:23:27+02:00</time>
      </trkpt>
      <trkpt lat="48.37499" lon="6.29407">
        <ele>265.6006</ele>
        <time>2026-05-17T16:23:28+02:00</time>
      </trkpt>
      <trkpt lat="48.37503" lon="6.294">
        <ele>265.5</ele>
        <time>2026-05-17T16:23:29+02:00</time>
      </trkpt>
      <trkpt lat="48.37507" lon="6.29393">
        <ele>265.5</ele>
        <time>2026-05-17T16:23:30+02:00</time>
      </trkpt>
      <trkpt lat="48.3751" lon="6.29386">
        <ele>265.5</ele>
        <time>2026-05-17T16:23:31+02:00</time>
      </trkpt>
      <trkpt lat="48.37514" lon="6.2938">
        <ele>265.7998</ele>
        <time>2026-05-17T16:23:32+02:00</time>
      </trkpt>
      <trkpt lat="48.37517" lon="6.29373">
        <ele>265.7002</ele>
        <time>2026-05-17T16:23:33+02:00</time>
      </trkpt>
      <trkpt lat="48.37521" lon="6.29366">
        <ele>265.5</ele>
        <time>2026-05-17T16:23:34+02:00</time>
      </trkpt>
      <trkpt lat="48.37524" lon="6.29359">
        <ele>265.4004</ele>
        <time>2026-05-17T16:23:35+02:00</time>
      </trkpt>
      <trkpt lat="48.37528" lon="6.29352">
        <ele>265</ele>
        <time>2026-05-17T16:23:36+02:00</time>
      </trkpt>
      <trkpt lat="48.37531" lon="6.29345">
        <ele>265.2998</ele>
        <time>2026-05-17T16:23:37+02:00</time>
      </trkpt>
      <trkpt lat="48.37534" lon="6.29338">
        <ele>265.2002</ele>
        <time>2026-05-17T16:23:38+02:00</time>
      </trkpt>
      <trkpt lat="48.37538" lon="6.29331">
        <ele>265.2002</ele>
        <time>2026-05-17T16:23:39+02:00</time>
      </trkpt>
      <trkpt lat="48.37541" lon="6.29324">
        <ele>265.1006</ele>
        <time>2026-05-17T16:23:40+02:00</time>
      </trkpt>
      <trkpt lat="48.37544" lon="6.29317">
        <ele>265.1006</ele>
        <time>2026-05-17T16:23:41+02:00</time>
      </trkpt>
      <trkpt lat="48.37547" lon="6.2931">
        <ele>265.2998</ele>
        <time>2026-05-17T16:23:42+02:00</time>
      </trkpt>
      <trkpt lat="48.3755" lon="6.29303">
        <ele>265.2998</ele>
        <time>2026-05-17T16:23:43+02:00</time>
      </trkpt>
      <trkpt lat="48.37554" lon="6.29296">
        <ele>265.6006</ele>
        <time>2026-05-17T16:23:44+02:00</time>
      </trkpt>
      <trkpt lat="48.37557" lon="6.29289">
        <ele>265.6006</ele>
        <time>2026-05-17T16:23:45+02:00</time>
      </trkpt>
      <trkpt lat="48.3756" lon="6.29281">
        <ele>265.7998</ele>
        <time>2026-05-17T16:23:46+02:00</time>
      </trkpt>
      <trkpt lat="48.37563" lon="6.29274">
        <ele>265.7002</ele>
        <time>2026-05-17T16:23:47+02:00</time>
      </trkpt>
      <trkpt lat="48.37567" lon="6.29266">
        <ele>265.7002</ele>
        <time>2026-05-17T16:23:48+02:00</time>
      </trkpt>
      <trkpt lat="48.3757" lon="6.29259">
        <ele>265.7002</ele>
        <time>2026-05-17T16:23:49+02:00</time>
      </trkpt>
      <trkpt lat="48.37573" lon="6.29252">
        <ele>265.7002</ele>
        <time>2026-05-17T16:23:50+02:00</time>
      </trkpt>
      <trkpt lat="48.37577" lon="6.29245">
        <ele>266.1006</ele>
        <time>2026-05-17T16:23:51+02:00</time>
      </trkpt>
      <trkpt lat="48.3758" lon="6.29237">
        <ele>266</ele>
        <time>2026-05-17T16:23:52+02:00</time>
      </trkpt>
      <trkpt lat="48.37583" lon="6.2923">
        <ele>265.9004</ele>
        <time>2026-05-17T16:23:53+02:00</time>
      </trkpt>
      <trkpt lat="48.37586" lon="6.29223">
        <ele>265.2998</ele>
        <time>2026-05-17T16:23:54+02:00</time>
      </trkpt>
      <trkpt lat="48.37589" lon="6.29216">
        <ele>265.5</ele>
        <time>2026-05-17T16:23:55+02:00</time>
      </trkpt>
      <trkpt lat="48.37593" lon="6.29208">
        <ele>266</ele>
        <time>2026-05-17T16:23:56+02:00</time>
      </trkpt>
      <trkpt lat="48.37596" lon="6.29201">
        <ele>265.9004</ele>
        <time>2026-05-17T16:23:57+02:00</time>
      </trkpt>
      <trkpt lat="48.37599" lon="6.29194">
        <ele>266</ele>
        <time>2026-05-17T16:23:58+02:00</time>
      </trkpt>
      <trkpt lat="48.37602" lon="6.29186">
        <ele>265.5</ele>
        <time>2026-05-17T16:23:59+02:00</time>
      </trkpt>
      <trkpt lat="48.37605" lon="6.29179">
        <ele>265.1006</ele>
        <time>2026-05-17T16:24:00+02:00</time>
      </trkpt>
      <trkpt lat="48.37609" lon="6.29172">
        <ele>265</ele>
        <time>2026-05-17T16:24:01+02:00</time>
      </trkpt>
      <trkpt lat="48.37612" lon="6.29165">
        <ele>265.4004</ele>
        <time>2026-05-17T16:24:02+02:00</time>
      </trkpt>
      <trkpt lat="48.37615" lon="6.29158">
        <ele>265.2998</ele>
        <time>2026-05-17T16:24:03+02:00</time>
      </trkpt>
      <trkpt lat="48.37618" lon="6.29151">
        <ele>265.2002</ele>
        <time>2026-05-17T16:24:04+02:00</time>
      </trkpt>
      <trkpt lat="48.37621" lon="6.29144">
        <ele>265.1006</ele>
        <time>2026-05-17T16:24:05+02:00</time>
      </trkpt>
      <trkpt lat="48.37624" lon="6.29137">
        <ele>264.9004</ele>
        <time>2026-05-17T16:24:06+02:00</time>
      </trkpt>
      <trkpt lat="48.37628" lon="6.2913">
        <ele>265.1006</ele>
        <time>2026-05-17T16:24:07+02:00</time>
      </trkpt>
      <trkpt lat="48.37631" lon="6.29122">
        <ele>265.1006</ele>
        <time>2026-05-17T16:24:08+02:00</time>
      </trkpt>
      <trkpt lat="48.37634" lon="6.29115">
        <ele>265</ele>
        <time>2026-05-17T16:24:09+02:00</time>
      </trkpt>
      <trkpt lat="48.37638" lon="6.29108">
        <ele>265</ele>
        <time>2026-05-17T16:24:10+02:00</time>
      </trkpt>
      <trkpt lat="48.37641" lon="6.291">
        <ele>264.7002</ele>
        <time>2026-05-17T16:24:11+02:00</time>
      </trkpt>
      <trkpt lat="48.37644" lon="6.29093">
        <ele>264.9004</ele>
        <time>2026-05-17T16:24:12+02:00</time>
      </trkpt>
      <trkpt lat="48.37647" lon="6.29086">
        <ele>264.7002</ele>
        <time>2026-05-17T16:24:13+02:00</time>
      </trkpt>
      <trkpt lat="48.3765" lon="6.29079">
        <ele>265.2002</ele>
        <time>2026-05-17T16:24:14+02:00</time>
      </trkpt>
      <trkpt lat="48.37654" lon="6.29071">
        <ele>265.2998</ele>
        <time>2026-05-17T16:24:15+02:00</time>
      </trkpt>
      <trkpt lat="48.37657" lon="6.29063">
        <ele>265.7998</ele>
        <time>2026-05-17T16:24:16+02:00</time>
      </trkpt>
      <trkpt lat="48.3766" lon="6.29056">
        <ele>265.7002</ele>
        <time>2026-05-17T16:24:17+02:00</time>
      </trkpt>
      <trkpt lat="48.37663" lon="6.29048">
        <ele>265.5</ele>
        <time>2026-05-17T16:24:18+02:00</time>
      </trkpt>
      <trkpt lat="48.37666" lon="6.2904">
        <ele>265.1006</ele>
        <time>2026-05-17T16:24:19+02:00</time>
      </trkpt>
      <trkpt lat="48.37669" lon="6.29032">
        <ele>265.1006</ele>
        <time>2026-05-17T16:24:20+02:00</time>
      </trkpt>
      <trkpt lat="48.37672" lon="6.29024">
        <ele>265.5</ele>
        <time>2026-05-17T16:24:21+02:00</time>
      </trkpt>
      <trkpt lat="48.37675" lon="6.29016">
        <ele>265.4004</ele>
        <time>2026-05-17T16:24:22+02:00</time>
      </trkpt>
      <trkpt lat="48.37678" lon="6.29008">
        <ele>265.6006</ele>
        <time>2026-05-17T16:24:23+02:00</time>
      </trkpt>
      <trkpt lat="48.37681" lon="6.29">
        <ele>265.5</ele>
        <time>2026-05-17T16:24:24+02:00</time>
      </trkpt>
      <trkpt lat="48.37684" lon="6.28992">
        <ele>265.5</ele>
        <time>2026-05-17T16:24:25+02:00</time>
      </trkpt>
      <trkpt lat="48.37686" lon="6.28983">
        <ele>265.2998</ele>
        <time>2026-05-17T16:24:26+02:00</time>
      </trkpt>
      <trkpt lat="48.37689" lon="6.28975">
        <ele>265.1006</ele>
        <time>2026-05-17T16:24:27+02:00</time>
      </trkpt>
      <trkpt lat="48.37691" lon="6.28966">
        <ele>265.2998</ele>
        <time>2026-05-17T16:24:28+02:00</time>
      </trkpt>
      <trkpt lat="48.37693" lon="6.28957">
        <ele>265.1006</ele>
        <time>2026-05-17T16:24:29+02:00</time>
      </trkpt>
      <trkpt lat="48.37695" lon="6.28948">
        <ele>265.5</ele>
        <time>2026-05-17T16:24:30+02:00</time>
      </trkpt>
      <trkpt lat="48.37697" lon="6.28939">
        <ele>265.5</ele>
        <time>2026-05-17T16:24:31+02:00</time>
      </trkpt>
      <trkpt lat="48.37698" lon="6.2893">
        <ele>265.5</ele>
        <time>2026-05-17T16:24:32+02:00</time>
      </trkpt>
      <trkpt lat="48.377" lon="6.28921">
        <ele>265.4004</ele>
        <time>2026-05-17T16:24:33+02:00</time>
      </trkpt>
      <trkpt lat="48.37701" lon="6.28912">
        <ele>265.2998</ele>
        <time>2026-05-17T16:24:34+02:00</time>
      </trkpt>
      <trkpt lat="48.37702" lon="6.28903">
        <ele>265</ele>
        <time>2026-05-17T16:24:35+02:00</time>
      </trkpt>
      <trkpt lat="48.37703" lon="6.28894">
        <ele>264.7998</ele>
        <time>2026-05-17T16:24:36+02:00</time>
      </trkpt>
      <trkpt lat="48.37704" lon="6.28885">
        <ele>264.7998</ele>
        <time>2026-05-17T16:24:37+02:00</time>
      </trkpt>
      <trkpt lat="48.37704" lon="6.28876">
        <ele>264.7998</ele>
        <time>2026-05-17T16:24:38+02:00</time>
      </trkpt>
      <trkpt lat="48.37705" lon="6.28867">
        <ele>264.7998</ele>
        <time>2026-05-17T16:24:39+02:00</time>
      </trkpt>
      <trkpt lat="48.37705" lon="6.28859">
        <ele>264.7998</ele>
        <time>2026-05-17T16:24:40+02:00</time>
      </trkpt>
      <trkpt lat="48.37705" lon="6.2885">
        <ele>264.7998</ele>
        <time>2026-05-17T16:24:41+02:00</time>
      </trkpt>
      <trkpt lat="48.37705" lon="6.28841">
        <ele>264.7998</ele>
        <time>2026-05-17T16:24:42+02:00</time>
      </trkpt>
      <trkpt lat="48.37705" lon="6.28833">
        <ele>264.7998</ele>
        <time>2026-05-17T16:24:43+02:00</time>
      </trkpt>
      <trkpt lat="48.37704" lon="6.28824">
        <ele>264.7002</ele>
        <time>2026-05-17T16:24:44+02:00</time>
      </trkpt>
      <trkpt lat="48.37704" lon="6.28816">
        <ele>264.7002</ele>
        <time>2026-05-17T16:24:45+02:00</time>
      </trkpt>
      <trkpt lat="48.37703" lon="6.28808">
        <ele>264.7002</ele>
        <time>2026-05-17T16:24:46+02:00</time>
      </trkpt>
      <trkpt lat="48.37703" lon="6.288">
        <ele>264.7002</ele>
        <time>2026-05-17T16:24:47+02:00</time>
      </trkpt>
      <trkpt lat="48.37702" lon="6.28793">
        <ele>264.7002</ele>
        <time>2026-05-17T16:24:48+02:00</time>
      </trkpt>
      <trkpt lat="48.377" lon="6.28786">
        <ele>264.9004</ele>
        <time>2026-05-17T16:24:49+02:00</time>
      </trkpt>
      <trkpt lat="48.37699" lon="6.28779">
        <ele>264.9004</ele>
        <time>2026-05-17T16:24:50+02:00</time>
      </trkpt>
      <trkpt lat="48.37697" lon="6.28772">
        <ele>264.9004</ele>
        <time>2026-05-17T16:24:51+02:00</time>
      </trkpt>
      <trkpt lat="48.37696" lon="6.28764">
        <ele>264.9004</ele>
        <time>2026-05-17T16:24:52+02:00</time>
      </trkpt>
      <trkpt lat="48.37695" lon="6.28757">
        <ele>264.9004</ele>
        <time>2026-05-17T16:24:53+02:00</time>
      </trkpt>
      <trkpt lat="48.37694" lon="6.28749">
        <ele>265.1006</ele>
        <time>2026-05-17T16:24:54+02:00</time>
      </trkpt>
      <trkpt lat="48.37692" lon="6.28742">
        <ele>265.1006</ele>
        <time>2026-05-17T16:24:55+02:00</time>
      </trkpt>
      <trkpt lat="48.37691" lon="6.28735">
        <ele>265</ele>
        <time>2026-05-17T16:24:56+02:00</time>
      </trkpt>
      <trkpt lat="48.3769" lon="6.28728">
        <ele>265</ele>
        <time>2026-05-17T16:24:57+02:00</time>
      </trkpt>
      <trkpt lat="48.3769" lon="6.2872">
        <ele>265</ele>
        <time>2026-05-17T16:24:58+02:00</time>
      </trkpt>
      <trkpt lat="48.3769" lon="6.28713">
        <ele>265</ele>
        <time>2026-05-17T16:24:59+02:00</time>
      </trkpt>
      <trkpt lat="48.37689" lon="6.28707">
        <ele>265.2998</ele>
        <time>2026-05-17T16:25:00+02:00</time>
      </trkpt>
      <trkpt lat="48.37689" lon="6.28702">
        <ele>265.2998</ele>
        <time>2026-05-17T16:25:01+02:00</time>
      </trkpt>
      <trkpt lat="48.3769" lon="6.28698">
        <ele>265</ele>
        <time>2026-05-17T16:25:02+02:00</time>
      </trkpt>
      <trkpt lat="48.37692" lon="6.28696">
        <ele>265</ele>
        <time>2026-05-17T16:25:03+02:00</time>
      </trkpt>
      <trkpt lat="48.37695" lon="6.28695">
        <ele>264.7998</ele>
        <time>2026-05-17T16:25:04+02:00</time>
      </trkpt>
      <trkpt lat="48.37696" lon="6.28698">
        <ele>264.7998</ele>
        <time>2026-05-17T16:25:05+02:00</time>
      </trkpt>
      <trkpt lat="48.37697" lon="6.28702">
        <ele>264.7998</ele>
        <time>2026-05-17T16:25:06+02:00</time>
      </trkpt>
      <trkpt lat="48.37697" lon="6.28707">
        <ele>264.7998</ele>
        <time>2026-05-17T16:25:07+02:00</time>
      </trkpt>
      <trkpt lat="48.37697" lon="6.28713">
        <ele>264.7998</ele>
        <time>2026-05-17T16:25:08+02:00</time>
      </trkpt>
      <trkpt lat="48.37698" lon="6.28719">
        <ele>264.7998</ele>
        <time>2026-05-17T16:25:09+02:00</time>
      </trkpt>
      <trkpt lat="48.37698" lon="6.28725">
        <ele>264.7998</ele>
        <time>2026-05-17T16:25:10+02:00</time>
      </trkpt>
      <trkpt lat="48.37698" lon="6.28732">
        <ele>264.7998</ele>
        <time>2026-05-17T16:25:11+02:00</time>
      </trkpt>
      <trkpt lat="48.37698" lon="6.28739">
        <ele>264.7998</ele>
        <time>2026-05-17T16:25:12+02:00</time>
      </trkpt>
      <trkpt lat="48.37698" lon="6.28745">
        <ele>264.7998</ele>
        <time>2026-05-17T16:25:13+02:00</time>
      </trkpt>
      <trkpt lat="48.37699" lon="6.28752">
        <ele>264.7998</ele>
        <time>2026-05-17T16:25:14+02:00</time>
      </trkpt>
      <trkpt lat="48.377" lon="6.28758">
        <ele>264.9004</ele>
        <time>2026-05-17T16:25:15+02:00</time>
      </trkpt>
      <trkpt lat="48.37701" lon="6.28764">
        <ele>264.7002</ele>
        <time>2026-05-17T16:25:16+02:00</time>
      </trkpt>
      <trkpt lat="48.37703" lon="6.2877">
        <ele>264.7002</ele>
        <time>2026-05-17T16:25:17+02:00</time>
      </trkpt>
      <trkpt lat="48.37705" lon="6.28776">
        <ele>264.7002</ele>
        <time>2026-05-17T16:25:18+02:00</time>
      </trkpt>
      <trkpt lat="48.37708" lon="6.28781">
        <ele>264.7998</ele>
        <time>2026-05-17T16:25:19+02:00</time>
      </trkpt>
      <trkpt lat="48.3771" lon="6.28787">
        <ele>264.7998</ele>
        <time>2026-05-17T16:25:20+02:00</time>
      </trkpt>
      <trkpt lat="48.37713" lon="6.28792">
        <ele>264.9004</ele>
        <time>2026-05-17T16:25:21+02:00</time>
      </trkpt>
      <trkpt lat="48.37715" lon="6.28797">
        <ele>265</ele>
        <time>2026-05-17T16:25:22+02:00</time>
      </trkpt>
      <trkpt lat="48.37716" lon="6.28803">
        <ele>265</ele>
        <time>2026-05-17T16:25:23+02:00</time>
      </trkpt>
      <trkpt lat="48.37717" lon="6.2881">
        <ele>265</ele>
        <time>2026-05-17T16:25:24+02:00</time>
      </trkpt>
      <trkpt lat="48.37717" lon="6.28818">
        <ele>265</ele>
        <time>2026-05-17T16:25:25+02:00</time>
      </trkpt>
      <trkpt lat="48.37717" lon="6.28825">
        <ele>265</ele>
        <time>2026-05-17T16:25:26+02:00</time>
      </trkpt>
      <trkpt lat="48.37717" lon="6.28833">
        <ele>265</ele>
        <time>2026-05-17T16:25:27+02:00</time>
      </trkpt>
      <trkpt lat="48.37717" lon="6.28841">
        <ele>265</ele>
        <time>2026-05-17T16:25:28+02:00</time>
      </trkpt>
      <trkpt lat="48.37717" lon="6.28848">
        <ele>265</ele>
        <time>2026-05-17T16:25:29+02:00</time>
      </trkpt>
      <trkpt lat="48.37717" lon="6.28856">
        <ele>265</ele>
        <time>2026-05-17T16:25:30+02:00</time>
      </trkpt>
      <trkpt lat="48.37717" lon="6.28863">
        <ele>265</ele>
        <time>2026-05-17T16:25:31+02:00</time>
      </trkpt>
      <trkpt lat="48.37717" lon="6.28869">
        <ele>265.1006</ele>
        <time>2026-05-17T16:25:32+02:00</time>
      </trkpt>
      <trkpt lat="48.37716" lon="6.28876">
        <ele>265.1006</ele>
        <time>2026-05-17T16:25:33+02:00</time>
      </trkpt>
      <trkpt lat="48.37716" lon="6.28883">
        <ele>265.1006</ele>
        <time>2026-05-17T16:25:34+02:00</time>
      </trkpt>
      <trkpt lat="48.37716" lon="6.2889">
        <ele>265.1006</ele>
        <time>2026-05-17T16:25:35+02:00</time>
      </trkpt>
      <trkpt lat="48.37716" lon="6.28897">
        <ele>265.2002</ele>
        <time>2026-05-17T16:25:36+02:00</time>
      </trkpt>
      <trkpt lat="48.37715" lon="6.28904">
        <ele>265.2998</ele>
        <time>2026-05-17T16:25:37+02:00</time>
      </trkpt>
      <trkpt lat="48.37715" lon="6.28911">
        <ele>265.6006</ele>
        <time>2026-05-17T16:25:38+02:00</time>
      </trkpt>
      <trkpt lat="48.37715" lon="6.28918">
        <ele>265.7998</ele>
        <time>2026-05-17T16:25:39+02:00</time>
      </trkpt>
      <trkpt lat="48.37714" lon="6.28925">
        <ele>266</ele>
        <time>2026-05-17T16:25:40+02:00</time>
      </trkpt>
      <trkpt lat="48.37713" lon="6.28931">
        <ele>266</ele>
        <time>2026-05-17T16:25:41+02:00</time>
      </trkpt>
      <trkpt lat="48.37712" lon="6.28937">
        <ele>266.1006</ele>
        <time>2026-05-17T16:25:42+02:00</time>
      </trkpt>
      <trkpt lat="48.37711" lon="6.2894">
        <ele>266</ele>
        <time>2026-05-17T16:25:43+02:00</time>
      </trkpt>
      <trkpt lat="48.37711" lon="6.28949">
        <ele>266.1006</ele>
        <time>2026-05-17T16:25:44+02:00</time>
      </trkpt>
      <trkpt lat="48.3771" lon="6.28955">
        <ele>266.1006</ele>
        <time>2026-05-17T16:25:45+02:00</time>
      </trkpt>
      <trkpt lat="48.37709" lon="6.2896">
        <ele>266.2002</ele>
        <time>2026-05-17T16:25:46+02:00</time>
      </trkpt>
      <trkpt lat="48.37708" lon="6.28965">
        <ele>266.2002</ele>
        <time>2026-05-17T16:25:47+02:00</time>
      </trkpt>
      <trkpt lat="48.37707" lon="6.28969">
        <ele>266.2002</ele>
        <time>2026-05-17T16:25:48+02:00</time>
      </trkpt>
      <trkpt lat="48.37707" lon="6.28974">
        <ele>266.2002</ele>
        <time>2026-05-17T16:25:49+02:00</time>
      </trkpt>
      <trkpt lat="48.37706" lon="6.28979">
        <ele>266.1006</ele>
        <time>2026-05-17T16:25:50+02:00</time>
      </trkpt>
      <trkpt lat="48.37705" lon="6.28983">
        <ele>266.1006</ele>
        <time>2026-05-17T16:25:51+02:00</time>
      </trkpt>
      <trkpt lat="48.37705" lon="6.28988">
        <ele>266.2002</ele>
        <time>2026-05-17T16:25:52+02:00</time>
      </trkpt>
      <trkpt lat="48.37704" lon="6.28992">
        <ele>266.2002</ele>
        <time>2026-05-17T16:25:53+02:00</time>
      </trkpt>
      <trkpt lat="48.37703" lon="6.28996">
        <ele>266.2998</ele>
        <time>2026-05-17T16:25:54+02:00</time>
      </trkpt>
      <trkpt lat="48.37703" lon="6.28999">
        <ele>266.2998</ele>
        <time>2026-05-17T16:25:55+02:00</time>
      </trkpt>
      <trkpt lat="48.37704" lon="6.29001">
        <ele>266.2998</ele>
        <time>2026-05-17T16:25:56+02:00</time>
      </trkpt>
      <trkpt lat="48.37705" lon="6.29001">
        <ele>266.2998</ele>
        <time>2026-05-17T16:25:57+02:00</time>
      </trkpt>
      <trkpt lat="48.37707" lon="6.29001">
        <ele>266.5</ele>
        <time>2026-05-17T16:25:58+02:00</time>
      </trkpt>
      <trkpt lat="48.37707" lon="6.29">
        <ele>266.5</ele>
        <time>2026-05-17T16:25:59+02:00</time>
      </trkpt>
      <trkpt lat="48.37708" lon="6.29">
        <ele>266.5</ele>
        <time>2026-05-17T16:26:00+02:00</time>
      </trkpt>
      <trkpt lat="48.37708" lon="6.29">
        <ele>266.5</ele>
        <time>2026-05-17T16:26:01+02:00</time>
      </trkpt>
      <trkpt lat="48.37708" lon="6.29">
        <ele>266.5</ele>
        <time>2026-05-17T16:26:02+02:00</time>
      </trkpt>
    </trkseg>
  </trk>
</gpx>